<?xml version="1.0" encoding="UTF-8" standalone="no" ?>
<gpx xmlns="http://www.topografix.com/GPX/1/1" xmlns:xsi="http://www.w3.org/2001/XMLSchema-instance" xsi:schemaLocation="http://www.topografix.com/GPX/1/1 http://www.topografix.com/GPX/1/1/gpx.xsd" version="1.1" creator="VisuGPX - https://www.visugpx.com">
  <metadata>
    <name>HRP2023-J01</name>
  </metadata>
  <trk>
    <name><![CDATA[HRP2023-J01]]></name>
    <extensions>
      <line xmlns="http://www.topografix.com/GPX/gpx_style/0/2">
        <color>0000FF</color>
        <width>4</width>
      </line>
    </extensions>
    <trkseg>
      <trkpt lat="42.48268" lon="3.12893">
        <ele>3.7999999523163</ele>
        <time>2023-07-12T03:09:02.000Z</time>
      </trkpt>
      <trkpt lat="42.48267" lon="3.12893">
        <ele>6</ele>
        <time>2023-07-12T03:09:03.000Z</time>
      </trkpt>
      <trkpt lat="42.48258" lon="3.12891">
        <ele>6.1999998092651</ele>
        <time>2023-07-12T03:09:10.000Z</time>
      </trkpt>
      <trkpt lat="42.4825" lon="3.12893">
        <ele>6.4000000953674</ele>
        <time>2023-07-12T03:09:16.000Z</time>
      </trkpt>
      <trkpt lat="42.4824" lon="3.12894">
        <ele>6.4000000953674</ele>
        <time>2023-07-12T03:09:23.000Z</time>
      </trkpt>
      <trkpt lat="42.48232" lon="3.12899">
        <ele>6.4000000953674</ele>
        <time>2023-07-12T03:09:30.000Z</time>
      </trkpt>
      <trkpt lat="42.48222" lon="3.12902">
        <ele>6</ele>
        <time>2023-07-12T03:09:38.000Z</time>
      </trkpt>
      <trkpt lat="42.48211" lon="3.12905">
        <ele>5.5999999046326</ele>
        <time>2023-07-12T03:09:47.000Z</time>
      </trkpt>
      <trkpt lat="42.48197" lon="3.12905">
        <ele>5.4000000953674</ele>
        <time>2023-07-12T03:09:55.000Z</time>
      </trkpt>
      <trkpt lat="42.48188" lon="3.12914">
        <ele>5</ele>
        <time>2023-07-12T03:10:03.000Z</time>
      </trkpt>
      <trkpt lat="42.48186" lon="3.12915">
        <ele>5</ele>
        <time>2023-07-12T03:10:04.000Z</time>
      </trkpt>
      <trkpt lat="42.4818" lon="3.1292">
        <ele>4.8000001907349</ele>
        <time>2023-07-12T03:10:10.000Z</time>
      </trkpt>
      <trkpt lat="42.4817" lon="3.12925">
        <ele>4.5999999046326</ele>
        <time>2023-07-12T03:10:19.000Z</time>
      </trkpt>
      <trkpt lat="42.48159" lon="3.12934">
        <ele>4.8000001907349</ele>
        <time>2023-07-12T03:10:26.000Z</time>
      </trkpt>
      <trkpt lat="42.48156" lon="3.12938">
        <ele>5.1999998092651</ele>
        <time>2023-07-12T03:10:32.000Z</time>
      </trkpt>
      <trkpt lat="42.4815" lon="3.12937">
        <ele>5</ele>
        <time>2023-07-12T03:10:42.000Z</time>
      </trkpt>
      <trkpt lat="42.48141" lon="3.12935">
        <ele>4.8000001907349</ele>
        <time>2023-07-12T03:10:49.000Z</time>
      </trkpt>
      <trkpt lat="42.4814" lon="3.12938">
        <ele>4.8000001907349</ele>
        <time>2023-07-12T03:10:53.000Z</time>
      </trkpt>
      <trkpt lat="42.48139" lon="3.12943">
        <ele>4.8000001907349</ele>
        <time>2023-07-12T03:11:00.000Z</time>
      </trkpt>
      <trkpt lat="42.48139" lon="3.12943">
        <ele>4.8000001907349</ele>
        <time>2023-07-12T03:11:04.000Z</time>
      </trkpt>
      <trkpt lat="42.4814" lon="3.12939">
        <ele>4.8000001907349</ele>
        <time>2023-07-12T03:11:09.000Z</time>
      </trkpt>
      <trkpt lat="42.4815" lon="3.12937">
        <ele>5</ele>
        <time>2023-07-12T03:11:40.000Z</time>
      </trkpt>
      <trkpt lat="42.48149" lon="3.12935">
        <ele>4.8000001907349</ele>
        <time>2023-07-12T03:11:47.000Z</time>
      </trkpt>
      <trkpt lat="42.48129" lon="3.12942">
        <ele>4.1999998092651</ele>
        <time>2023-07-12T03:12:15.000Z</time>
      </trkpt>
      <trkpt lat="42.48128" lon="3.12943">
        <ele>4.5999999046326</ele>
        <time>2023-07-12T03:12:23.000Z</time>
      </trkpt>
      <trkpt lat="42.48142" lon="3.12947">
        <ele>4</ele>
        <time>2023-07-12T03:13:25.000Z</time>
      </trkpt>
      <trkpt lat="42.48141" lon="3.12948">
        <ele>4</ele>
        <time>2023-07-12T03:13:27.000Z</time>
      </trkpt>
      <trkpt lat="42.48136" lon="3.1295">
        <ele>3.7999999523163</ele>
        <time>2023-07-12T03:13:32.000Z</time>
      </trkpt>
      <trkpt lat="42.48133" lon="3.12953">
        <ele>3.7999999523163</ele>
        <time>2023-07-12T03:13:38.000Z</time>
      </trkpt>
      <trkpt lat="42.48133" lon="3.12953">
        <ele>3.7999999523163</ele>
        <time>2023-07-12T03:13:46.000Z</time>
      </trkpt>
      <trkpt lat="42.48134" lon="3.12955">
        <ele>3.5999999046326</ele>
        <time>2023-07-12T03:13:54.000Z</time>
      </trkpt>
      <trkpt lat="42.48133" lon="3.12955">
        <ele>3.4000000953674</ele>
        <time>2023-07-12T03:14:02.000Z</time>
      </trkpt>
      <trkpt lat="42.48133" lon="3.12954">
        <ele>3.5999999046326</ele>
        <time>2023-07-12T03:14:11.000Z</time>
      </trkpt>
      <trkpt lat="42.48133" lon="3.12955">
        <ele>3.5999999046326</ele>
        <time>2023-07-12T03:14:17.000Z</time>
      </trkpt>
      <trkpt lat="42.48137" lon="3.1295">
        <ele>3.5999999046326</ele>
        <time>2023-07-12T03:14:25.000Z</time>
      </trkpt>
      <trkpt lat="42.48135" lon="3.12936">
        <ele>3.5999999046326</ele>
        <time>2023-07-12T03:14:31.000Z</time>
      </trkpt>
      <trkpt lat="42.48129" lon="3.12927">
        <ele>3.5999999046326</ele>
        <time>2023-07-12T03:14:38.000Z</time>
      </trkpt>
      <trkpt lat="42.48108" lon="3.12908">
        <ele>2.5999999046326</ele>
        <time>2023-07-12T03:14:59.000Z</time>
      </trkpt>
      <trkpt lat="42.48108" lon="3.12908">
        <ele>2.7999999523163</ele>
        <time>2023-07-12T03:15:02.000Z</time>
      </trkpt>
      <trkpt lat="42.48108" lon="3.12907">
        <ele>2.7999999523163</ele>
        <time>2023-07-12T03:15:03.000Z</time>
      </trkpt>
      <trkpt lat="42.48104" lon="3.12904">
        <ele>3</ele>
        <time>2023-07-12T03:15:07.000Z</time>
      </trkpt>
      <trkpt lat="42.48101" lon="3.12904">
        <ele>3</ele>
        <time>2023-07-12T03:15:09.000Z</time>
      </trkpt>
      <trkpt lat="42.48101" lon="3.12903">
        <ele>3</ele>
        <time>2023-07-12T03:15:34.000Z</time>
      </trkpt>
      <trkpt lat="42.48106" lon="3.12906">
        <ele>3.4000000953674</ele>
        <time>2023-07-12T03:15:41.000Z</time>
      </trkpt>
      <trkpt lat="42.48116" lon="3.12914">
        <ele>3.7999999523163</ele>
        <time>2023-07-12T03:15:49.000Z</time>
      </trkpt>
      <trkpt lat="42.48118" lon="3.12912">
        <ele>3.7999999523163</ele>
        <time>2023-07-12T03:15:51.000Z</time>
      </trkpt>
      <trkpt lat="42.48118" lon="3.12911">
        <ele>4</ele>
        <time>2023-07-12T03:15:53.000Z</time>
      </trkpt>
      <trkpt lat="42.48116" lon="3.12909">
        <ele>4.1999998092651</ele>
        <time>2023-07-12T03:15:55.000Z</time>
      </trkpt>
      <trkpt lat="42.48115" lon="3.12897">
        <ele>4</ele>
        <time>2023-07-12T03:16:02.000Z</time>
      </trkpt>
      <trkpt lat="42.48122" lon="3.12883">
        <ele>4</ele>
        <time>2023-07-12T03:16:08.000Z</time>
      </trkpt>
      <trkpt lat="42.48129" lon="3.12868">
        <ele>4</ele>
        <time>2023-07-12T03:16:15.000Z</time>
      </trkpt>
      <trkpt lat="42.48134" lon="3.12866">
        <ele>4</ele>
        <time>2023-07-12T03:16:17.000Z</time>
      </trkpt>
      <trkpt lat="42.48141" lon="3.12864">
        <ele>3.7999999523163</ele>
        <time>2023-07-12T03:16:21.000Z</time>
      </trkpt>
      <trkpt lat="42.48145" lon="3.12861">
        <ele>3.7999999523163</ele>
        <time>2023-07-12T03:16:23.000Z</time>
      </trkpt>
      <trkpt lat="42.48145" lon="3.12859">
        <ele>3.7999999523163</ele>
        <time>2023-07-12T03:16:26.000Z</time>
      </trkpt>
      <trkpt lat="42.48144" lon="3.12856">
        <ele>3.7999999523163</ele>
        <time>2023-07-12T03:16:29.000Z</time>
      </trkpt>
      <trkpt lat="42.48138" lon="3.12849">
        <ele>3.5999999046326</ele>
        <time>2023-07-12T03:16:34.000Z</time>
      </trkpt>
      <trkpt lat="42.48128" lon="3.12839">
        <ele>3.5999999046326</ele>
        <time>2023-07-12T03:16:43.000Z</time>
      </trkpt>
      <trkpt lat="42.48108" lon="3.12806">
        <ele>4.5999999046326</ele>
        <time>2023-07-12T03:17:10.000Z</time>
      </trkpt>
      <trkpt lat="42.48092" lon="3.12793">
        <ele>4.1999998092651</ele>
        <time>2023-07-12T03:17:24.000Z</time>
      </trkpt>
      <trkpt lat="42.48083" lon="3.12773">
        <ele>4.4000000953674</ele>
        <time>2023-07-12T03:17:37.000Z</time>
      </trkpt>
      <trkpt lat="42.48087" lon="3.12766">
        <ele>4.4000000953674</ele>
        <time>2023-07-12T03:17:38.000Z</time>
      </trkpt>
      <trkpt lat="42.48086" lon="3.12762">
        <ele>4.4000000953674</ele>
        <time>2023-07-12T03:17:39.000Z</time>
      </trkpt>
      <trkpt lat="42.48085" lon="3.12755">
        <ele>4.4000000953674</ele>
        <time>2023-07-12T03:17:42.000Z</time>
      </trkpt>
      <trkpt lat="42.48074" lon="3.1274">
        <ele>4</ele>
        <time>2023-07-12T03:17:50.000Z</time>
      </trkpt>
      <trkpt lat="42.48066" lon="3.12728">
        <ele>4</ele>
        <time>2023-07-12T03:17:57.000Z</time>
      </trkpt>
      <trkpt lat="42.48062" lon="3.12721">
        <ele>4</ele>
        <time>2023-07-12T03:18:04.000Z</time>
      </trkpt>
      <trkpt lat="42.48057" lon="3.12722">
        <ele>4</ele>
        <time>2023-07-12T03:18:11.000Z</time>
      </trkpt>
      <trkpt lat="42.48056" lon="3.12722">
        <ele>4</ele>
        <time>2023-07-12T03:18:12.000Z</time>
      </trkpt>
      <trkpt lat="42.48021" lon="3.12718">
        <ele>3.7999999523163</ele>
        <time>2023-07-12T03:18:39.000Z</time>
      </trkpt>
      <trkpt lat="42.48017" lon="3.12714">
        <ele>3.7999999523163</ele>
        <time>2023-07-12T03:18:43.000Z</time>
      </trkpt>
      <trkpt lat="42.4801" lon="3.12704">
        <ele>4</ele>
        <time>2023-07-12T03:18:50.000Z</time>
      </trkpt>
      <trkpt lat="42.48005" lon="3.12697">
        <ele>4</ele>
        <time>2023-07-12T03:18:59.000Z</time>
      </trkpt>
      <trkpt lat="42.47994" lon="3.12688">
        <ele>4.1999998092651</ele>
        <time>2023-07-12T03:19:08.000Z</time>
      </trkpt>
      <trkpt lat="42.47984" lon="3.12682">
        <ele>4.4000000953674</ele>
        <time>2023-07-12T03:19:15.000Z</time>
      </trkpt>
      <trkpt lat="42.47976" lon="3.12675">
        <ele>4</ele>
        <time>2023-07-12T03:19:23.000Z</time>
      </trkpt>
      <trkpt lat="42.47967" lon="3.12666">
        <ele>4.1999998092651</ele>
        <time>2023-07-12T03:19:30.000Z</time>
      </trkpt>
      <trkpt lat="42.4796" lon="3.12657">
        <ele>4</ele>
        <time>2023-07-12T03:19:39.000Z</time>
      </trkpt>
      <trkpt lat="42.47952" lon="3.12645">
        <ele>4</ele>
        <time>2023-07-12T03:19:45.000Z</time>
      </trkpt>
      <trkpt lat="42.47942" lon="3.12636">
        <ele>4</ele>
        <time>2023-07-12T03:19:52.000Z</time>
      </trkpt>
      <trkpt lat="42.47933" lon="3.1263">
        <ele>5</ele>
        <time>2023-07-12T03:20:01.000Z</time>
      </trkpt>
      <trkpt lat="42.47922" lon="3.12623">
        <ele>4.5999999046326</ele>
        <time>2023-07-12T03:20:09.000Z</time>
      </trkpt>
      <trkpt lat="42.47913" lon="3.12619">
        <ele>4.5999999046326</ele>
        <time>2023-07-12T03:20:18.000Z</time>
      </trkpt>
      <trkpt lat="42.47912" lon="3.1262">
        <ele>4.8000001907349</ele>
        <time>2023-07-12T03:20:24.000Z</time>
      </trkpt>
      <trkpt lat="42.47912" lon="3.12618">
        <ele>4.5999999046326</ele>
        <time>2023-07-12T03:20:27.000Z</time>
      </trkpt>
      <trkpt lat="42.47912" lon="3.12616">
        <ele>4.5999999046326</ele>
        <time>2023-07-12T03:20:45.000Z</time>
      </trkpt>
      <trkpt lat="42.47894" lon="3.12619">
        <ele>4.5999999046326</ele>
        <time>2023-07-12T03:20:58.000Z</time>
      </trkpt>
      <trkpt lat="42.47892" lon="3.12617">
        <ele>4.5999999046326</ele>
        <time>2023-07-12T03:21:00.000Z</time>
      </trkpt>
      <trkpt lat="42.47886" lon="3.12609">
        <ele>4.8000001907349</ele>
        <time>2023-07-12T03:21:06.000Z</time>
      </trkpt>
      <trkpt lat="42.47887" lon="3.12594">
        <ele>4.8000001907349</ele>
        <time>2023-07-12T03:21:14.000Z</time>
      </trkpt>
      <trkpt lat="42.47888" lon="3.12574">
        <ele>4.1999998092651</ele>
        <time>2023-07-12T03:21:24.000Z</time>
      </trkpt>
      <trkpt lat="42.47888" lon="3.12568">
        <ele>4</ele>
        <time>2023-07-12T03:21:27.000Z</time>
      </trkpt>
      <trkpt lat="42.47888" lon="3.12555">
        <ele>4.5999999046326</ele>
        <time>2023-07-12T03:21:35.000Z</time>
      </trkpt>
      <trkpt lat="42.47889" lon="3.12551">
        <ele>4.4000000953674</ele>
        <time>2023-07-12T03:21:41.000Z</time>
      </trkpt>
      <trkpt lat="42.47889" lon="3.12552">
        <ele>4.1999998092651</ele>
        <time>2023-07-12T03:21:43.000Z</time>
      </trkpt>
      <trkpt lat="42.47888" lon="3.12552">
        <ele>4.5999999046326</ele>
        <time>2023-07-12T03:21:54.000Z</time>
      </trkpt>
      <trkpt lat="42.47887" lon="3.12551">
        <ele>4.4000000953674</ele>
        <time>2023-07-12T03:22:05.000Z</time>
      </trkpt>
      <trkpt lat="42.47885" lon="3.12546">
        <ele>4.4000000953674</ele>
        <time>2023-07-12T03:22:11.000Z</time>
      </trkpt>
      <trkpt lat="42.47882" lon="3.12536">
        <ele>4.8000001907349</ele>
        <time>2023-07-12T03:22:18.000Z</time>
      </trkpt>
      <trkpt lat="42.47875" lon="3.12525">
        <ele>5.1999998092651</ele>
        <time>2023-07-12T03:22:25.000Z</time>
      </trkpt>
      <trkpt lat="42.47867" lon="3.12514">
        <ele>4.8000001907349</ele>
        <time>2023-07-12T03:22:32.000Z</time>
      </trkpt>
      <trkpt lat="42.47861" lon="3.12505">
        <ele>4.8000001907349</ele>
        <time>2023-07-12T03:22:39.000Z</time>
      </trkpt>
      <trkpt lat="42.47855" lon="3.12493">
        <ele>4.1999998092651</ele>
        <time>2023-07-12T03:22:46.000Z</time>
      </trkpt>
      <trkpt lat="42.47853" lon="3.1249">
        <ele>4.1999998092651</ele>
        <time>2023-07-12T03:22:48.000Z</time>
      </trkpt>
      <trkpt lat="42.4785" lon="3.12473">
        <ele>4.1999998092651</ele>
        <time>2023-07-12T03:22:57.000Z</time>
      </trkpt>
      <trkpt lat="42.47846" lon="3.1246">
        <ele>4.4000000953674</ele>
        <time>2023-07-12T03:23:05.000Z</time>
      </trkpt>
      <trkpt lat="42.47841" lon="3.12443">
        <ele>4.4000000953674</ele>
        <time>2023-07-12T03:23:14.000Z</time>
      </trkpt>
      <trkpt lat="42.47836" lon="3.12429">
        <ele>4.8000001907349</ele>
        <time>2023-07-12T03:23:22.000Z</time>
      </trkpt>
      <trkpt lat="42.47831" lon="3.1242">
        <ele>4.8000001907349</ele>
        <time>2023-07-12T03:23:28.000Z</time>
      </trkpt>
      <trkpt lat="42.47824" lon="3.12407">
        <ele>5.1999998092651</ele>
        <time>2023-07-12T03:23:36.000Z</time>
      </trkpt>
      <trkpt lat="42.47822" lon="3.124">
        <ele>5.1999998092651</ele>
        <time>2023-07-12T03:23:40.000Z</time>
      </trkpt>
      <trkpt lat="42.47819" lon="3.12387">
        <ele>5.1999998092651</ele>
        <time>2023-07-12T03:23:47.000Z</time>
      </trkpt>
      <trkpt lat="42.47817" lon="3.12372">
        <ele>6.1999998092651</ele>
        <time>2023-07-12T03:23:56.000Z</time>
      </trkpt>
      <trkpt lat="42.47819" lon="3.12371">
        <ele>6.8000001907349</ele>
        <time>2023-07-12T03:23:58.000Z</time>
      </trkpt>
      <trkpt lat="42.47844" lon="3.12361">
        <ele>6</ele>
        <time>2023-07-12T03:24:10.000Z</time>
      </trkpt>
      <trkpt lat="42.47846" lon="3.1236">
        <ele>6</ele>
        <time>2023-07-12T03:24:11.000Z</time>
      </trkpt>
      <trkpt lat="42.47869" lon="3.12361">
        <ele>6.8000001907349</ele>
        <time>2023-07-12T03:24:28.000Z</time>
      </trkpt>
      <trkpt lat="42.47873" lon="3.12363">
        <ele>6.5999999046326</ele>
        <time>2023-07-12T03:24:34.000Z</time>
      </trkpt>
      <trkpt lat="42.47905" lon="3.12361">
        <ele>7.1999998092651</ele>
        <time>2023-07-12T03:24:54.000Z</time>
      </trkpt>
      <trkpt lat="42.47936" lon="3.12373">
        <ele>6.5999999046326</ele>
        <time>2023-07-12T03:25:16.000Z</time>
      </trkpt>
      <trkpt lat="42.47941" lon="3.12378">
        <ele>6.5999999046326</ele>
        <time>2023-07-12T03:25:24.000Z</time>
      </trkpt>
      <trkpt lat="42.47949" lon="3.12382">
        <ele>7</ele>
        <time>2023-07-12T03:25:30.000Z</time>
      </trkpt>
      <trkpt lat="42.47957" lon="3.12384">
        <ele>6.5999999046326</ele>
        <time>2023-07-12T03:25:36.000Z</time>
      </trkpt>
      <trkpt lat="42.47956" lon="3.12382">
        <ele>6.5999999046326</ele>
        <time>2023-07-12T03:25:39.000Z</time>
      </trkpt>
      <trkpt lat="42.47957" lon="3.12376">
        <ele>6.1999998092651</ele>
        <time>2023-07-12T03:25:43.000Z</time>
      </trkpt>
      <trkpt lat="42.47957" lon="3.12373">
        <ele>6.1999998092651</ele>
        <time>2023-07-12T03:25:45.000Z</time>
      </trkpt>
      <trkpt lat="42.47967" lon="3.12329">
        <ele>6.5999999046326</ele>
        <time>2023-07-12T03:26:14.000Z</time>
      </trkpt>
      <trkpt lat="42.47964" lon="3.12324">
        <ele>6.8000001907349</ele>
        <time>2023-07-12T03:26:18.000Z</time>
      </trkpt>
      <trkpt lat="42.47959" lon="3.12321">
        <ele>7.1999998092651</ele>
        <time>2023-07-12T03:26:21.000Z</time>
      </trkpt>
      <trkpt lat="42.47955" lon="3.12319">
        <ele>7.4000000953674</ele>
        <time>2023-07-12T03:26:24.000Z</time>
      </trkpt>
      <trkpt lat="42.47954" lon="3.12314">
        <ele>7.5999999046326</ele>
        <time>2023-07-12T03:26:30.000Z</time>
      </trkpt>
      <trkpt lat="42.47952" lon="3.12306">
        <ele>7.4000000953674</ele>
        <time>2023-07-12T03:26:36.000Z</time>
      </trkpt>
      <trkpt lat="42.47949" lon="3.12305">
        <ele>7</ele>
        <time>2023-07-12T03:26:40.000Z</time>
      </trkpt>
      <trkpt lat="42.47947" lon="3.12302">
        <ele>7.1999998092651</ele>
        <time>2023-07-12T03:26:49.000Z</time>
      </trkpt>
      <trkpt lat="42.47946" lon="3.12302">
        <ele>8</ele>
        <time>2023-07-12T03:27:00.000Z</time>
      </trkpt>
      <trkpt lat="42.47947" lon="3.12303">
        <ele>8.1999998092651</ele>
        <time>2023-07-12T03:27:04.000Z</time>
      </trkpt>
      <trkpt lat="42.47949" lon="3.12299">
        <ele>8.1999998092651</ele>
        <time>2023-07-12T03:27:10.000Z</time>
      </trkpt>
      <trkpt lat="42.47949" lon="3.12297">
        <ele>8.1999998092651</ele>
        <time>2023-07-12T03:27:18.000Z</time>
      </trkpt>
      <trkpt lat="42.47948" lon="3.12301">
        <ele>8</ele>
        <time>2023-07-12T03:27:26.000Z</time>
      </trkpt>
      <trkpt lat="42.47945" lon="3.12302">
        <ele>8</ele>
        <time>2023-07-12T03:27:33.000Z</time>
      </trkpt>
      <trkpt lat="42.47946" lon="3.123">
        <ele>8.1999998092651</ele>
        <time>2023-07-12T03:27:39.000Z</time>
      </trkpt>
      <trkpt lat="42.47951" lon="3.12304">
        <ele>9.6000003814697</ele>
        <time>2023-07-12T03:27:54.000Z</time>
      </trkpt>
      <trkpt lat="42.47959" lon="3.12299">
        <ele>10.199999809265</ele>
        <time>2023-07-12T03:28:01.000Z</time>
      </trkpt>
      <trkpt lat="42.4796" lon="3.12299">
        <ele>10.39999961853</ele>
        <time>2023-07-12T03:28:02.000Z</time>
      </trkpt>
      <trkpt lat="42.47962" lon="3.12298">
        <ele>11.39999961853</ele>
        <time>2023-07-12T03:28:07.000Z</time>
      </trkpt>
      <trkpt lat="42.47964" lon="3.12298">
        <ele>11.800000190735</ele>
        <time>2023-07-12T03:28:09.000Z</time>
      </trkpt>
      <trkpt lat="42.47965" lon="3.12297">
        <ele>12.60000038147</ele>
        <time>2023-07-12T03:28:13.000Z</time>
      </trkpt>
      <trkpt lat="42.47968" lon="3.12299">
        <ele>13.60000038147</ele>
        <time>2023-07-12T03:28:18.000Z</time>
      </trkpt>
      <trkpt lat="42.47968" lon="3.12299">
        <ele>13.800000190735</ele>
        <time>2023-07-12T03:28:19.000Z</time>
      </trkpt>
      <trkpt lat="42.47972" lon="3.12299">
        <ele>14.800000190735</ele>
        <time>2023-07-12T03:28:25.000Z</time>
      </trkpt>
      <trkpt lat="42.47972" lon="3.123">
        <ele>15</ele>
        <time>2023-07-12T03:28:26.000Z</time>
      </trkpt>
      <trkpt lat="42.47975" lon="3.12299">
        <ele>15.800000190735</ele>
        <time>2023-07-12T03:28:33.000Z</time>
      </trkpt>
      <trkpt lat="42.47976" lon="3.123">
        <ele>16</ele>
        <time>2023-07-12T03:28:34.000Z</time>
      </trkpt>
      <trkpt lat="42.4798" lon="3.12299">
        <ele>17</ele>
        <time>2023-07-12T03:28:42.000Z</time>
      </trkpt>
      <trkpt lat="42.47983" lon="3.12298">
        <ele>17.799999237061</ele>
        <time>2023-07-12T03:28:49.000Z</time>
      </trkpt>
      <trkpt lat="42.47984" lon="3.12298">
        <ele>18.200000762939</ele>
        <time>2023-07-12T03:28:50.000Z</time>
      </trkpt>
      <trkpt lat="42.47986" lon="3.12296">
        <ele>19.39999961853</ele>
        <time>2023-07-12T03:28:55.000Z</time>
      </trkpt>
      <trkpt lat="42.47986" lon="3.12295">
        <ele>19.799999237061</ele>
        <time>2023-07-12T03:28:57.000Z</time>
      </trkpt>
      <trkpt lat="42.47987" lon="3.12295">
        <ele>20.799999237061</ele>
        <time>2023-07-12T03:28:59.000Z</time>
      </trkpt>
      <trkpt lat="42.4799" lon="3.12293">
        <ele>21.200000762939</ele>
        <time>2023-07-12T03:29:06.000Z</time>
      </trkpt>
      <trkpt lat="42.47992" lon="3.12293">
        <ele>22</ele>
        <time>2023-07-12T03:29:12.000Z</time>
      </trkpt>
      <trkpt lat="42.47993" lon="3.12293">
        <ele>22.200000762939</ele>
        <time>2023-07-12T03:29:14.000Z</time>
      </trkpt>
      <trkpt lat="42.47997" lon="3.12293">
        <ele>23</ele>
        <time>2023-07-12T03:29:20.000Z</time>
      </trkpt>
      <trkpt lat="42.48" lon="3.12289">
        <ele>24.200000762939</ele>
        <time>2023-07-12T03:29:27.000Z</time>
      </trkpt>
      <trkpt lat="42.48001" lon="3.12287">
        <ele>25.200000762939</ele>
        <time>2023-07-12T03:29:29.000Z</time>
      </trkpt>
      <trkpt lat="42.48002" lon="3.12287">
        <ele>25.39999961853</ele>
        <time>2023-07-12T03:29:30.000Z</time>
      </trkpt>
      <trkpt lat="42.48005" lon="3.12283">
        <ele>26.39999961853</ele>
        <time>2023-07-12T03:29:37.000Z</time>
      </trkpt>
      <trkpt lat="42.48008" lon="3.12276">
        <ele>27.60000038147</ele>
        <time>2023-07-12T03:29:45.000Z</time>
      </trkpt>
      <trkpt lat="42.48011" lon="3.12272">
        <ele>29</ele>
        <time>2023-07-12T03:29:51.000Z</time>
      </trkpt>
      <trkpt lat="42.48012" lon="3.12271">
        <ele>29.200000762939</ele>
        <time>2023-07-12T03:29:53.000Z</time>
      </trkpt>
      <trkpt lat="42.48014" lon="3.12268">
        <ele>29.60000038147</ele>
        <time>2023-07-12T03:30:01.000Z</time>
      </trkpt>
      <trkpt lat="42.48017" lon="3.12261">
        <ele>30.200000762939</ele>
        <time>2023-07-12T03:30:08.000Z</time>
      </trkpt>
      <trkpt lat="42.4802" lon="3.12254">
        <ele>31.200000762939</ele>
        <time>2023-07-12T03:30:16.000Z</time>
      </trkpt>
      <trkpt lat="42.48021" lon="3.12253">
        <ele>31.39999961853</ele>
        <time>2023-07-12T03:30:18.000Z</time>
      </trkpt>
      <trkpt lat="42.48024" lon="3.12247">
        <ele>32.400001525879</ele>
        <time>2023-07-12T03:30:24.000Z</time>
      </trkpt>
      <trkpt lat="42.48028" lon="3.12243">
        <ele>33</ele>
        <time>2023-07-12T03:30:32.000Z</time>
      </trkpt>
      <trkpt lat="42.48032" lon="3.12238">
        <ele>33.400001525879</ele>
        <time>2023-07-12T03:30:37.000Z</time>
      </trkpt>
      <trkpt lat="42.48032" lon="3.12237">
        <ele>33.599998474121</ele>
        <time>2023-07-12T03:30:38.000Z</time>
      </trkpt>
      <trkpt lat="42.48035" lon="3.12228">
        <ele>34.200000762939</ele>
        <time>2023-07-12T03:30:47.000Z</time>
      </trkpt>
      <trkpt lat="42.48038" lon="3.12215">
        <ele>35</ele>
        <time>2023-07-12T03:30:56.000Z</time>
      </trkpt>
      <trkpt lat="42.48038" lon="3.12198">
        <ele>35</ele>
        <time>2023-07-12T03:31:06.000Z</time>
      </trkpt>
      <trkpt lat="42.4804" lon="3.12184">
        <ele>34.799999237061</ele>
        <time>2023-07-12T03:31:15.000Z</time>
      </trkpt>
      <trkpt lat="42.48041" lon="3.12172">
        <ele>34.200000762939</ele>
        <time>2023-07-12T03:31:21.000Z</time>
      </trkpt>
      <trkpt lat="42.48042" lon="3.12163">
        <ele>34.200000762939</ele>
        <time>2023-07-12T03:31:27.000Z</time>
      </trkpt>
      <trkpt lat="42.48046" lon="3.12148">
        <ele>34.400001525879</ele>
        <time>2023-07-12T03:31:35.000Z</time>
      </trkpt>
      <trkpt lat="42.48046" lon="3.1214">
        <ele>34.400001525879</ele>
        <time>2023-07-12T03:31:41.000Z</time>
      </trkpt>
      <trkpt lat="42.48048" lon="3.12124">
        <ele>34.599998474121</ele>
        <time>2023-07-12T03:31:49.000Z</time>
      </trkpt>
      <trkpt lat="42.48046" lon="3.1211">
        <ele>35</ele>
        <time>2023-07-12T03:31:57.000Z</time>
      </trkpt>
      <trkpt lat="42.48045" lon="3.12101">
        <ele>35.400001525879</ele>
        <time>2023-07-12T03:32:03.000Z</time>
      </trkpt>
      <trkpt lat="42.48045" lon="3.12096">
        <ele>35.799999237061</ele>
        <time>2023-07-12T03:32:06.000Z</time>
      </trkpt>
      <trkpt lat="42.48046" lon="3.12089">
        <ele>36.200000762939</ele>
        <time>2023-07-12T03:32:11.000Z</time>
      </trkpt>
      <trkpt lat="42.48047" lon="3.12081">
        <ele>37</ele>
        <time>2023-07-12T03:32:16.000Z</time>
      </trkpt>
      <trkpt lat="42.48048" lon="3.12072">
        <ele>37.799999237061</ele>
        <time>2023-07-12T03:32:20.000Z</time>
      </trkpt>
      <trkpt lat="42.48049" lon="3.12071">
        <ele>38</ele>
        <time>2023-07-12T03:32:21.000Z</time>
      </trkpt>
      <trkpt lat="42.4805" lon="3.12061">
        <ele>38.400001525879</ele>
        <time>2023-07-12T03:32:29.000Z</time>
      </trkpt>
      <trkpt lat="42.4805" lon="3.12055">
        <ele>39</ele>
        <time>2023-07-12T03:32:33.000Z</time>
      </trkpt>
      <trkpt lat="42.48049" lon="3.12047">
        <ele>40</ele>
        <time>2023-07-12T03:32:38.000Z</time>
      </trkpt>
      <trkpt lat="42.48049" lon="3.12046">
        <ele>40.200000762939</ele>
        <time>2023-07-12T03:32:39.000Z</time>
      </trkpt>
      <trkpt lat="42.48049" lon="3.12039">
        <ele>40.799999237061</ele>
        <time>2023-07-12T03:32:45.000Z</time>
      </trkpt>
      <trkpt lat="42.48049" lon="3.12029">
        <ele>41.200000762939</ele>
        <time>2023-07-12T03:32:51.000Z</time>
      </trkpt>
      <trkpt lat="42.48049" lon="3.12026">
        <ele>41.400001525879</ele>
        <time>2023-07-12T03:32:53.000Z</time>
      </trkpt>
      <trkpt lat="42.48048" lon="3.12013">
        <ele>42</ele>
        <time>2023-07-12T03:33:01.000Z</time>
      </trkpt>
      <trkpt lat="42.48048" lon="3.12008">
        <ele>42.200000762939</ele>
        <time>2023-07-12T03:33:05.000Z</time>
      </trkpt>
      <trkpt lat="42.4805" lon="3.11998">
        <ele>42.400001525879</ele>
        <time>2023-07-12T03:33:11.000Z</time>
      </trkpt>
      <trkpt lat="42.48052" lon="3.11988">
        <ele>43.400001525879</ele>
        <time>2023-07-12T03:33:17.000Z</time>
      </trkpt>
      <trkpt lat="42.48052" lon="3.11985">
        <ele>43.799999237061</ele>
        <time>2023-07-12T03:33:20.000Z</time>
      </trkpt>
      <trkpt lat="42.48054" lon="3.11973">
        <ele>44.200000762939</ele>
        <time>2023-07-12T03:33:27.000Z</time>
      </trkpt>
      <trkpt lat="42.48054" lon="3.11971">
        <ele>44.400001525879</ele>
        <time>2023-07-12T03:33:28.000Z</time>
      </trkpt>
      <trkpt lat="42.48056" lon="3.1196">
        <ele>45.200000762939</ele>
        <time>2023-07-12T03:33:36.000Z</time>
      </trkpt>
      <trkpt lat="42.48057" lon="3.11956">
        <ele>45.400001525879</ele>
        <time>2023-07-12T03:33:38.000Z</time>
      </trkpt>
      <trkpt lat="42.48057" lon="3.11947">
        <ele>45.799999237061</ele>
        <time>2023-07-12T03:33:44.000Z</time>
      </trkpt>
      <trkpt lat="42.48058" lon="3.1194">
        <ele>46.400001525879</ele>
        <time>2023-07-12T03:33:49.000Z</time>
      </trkpt>
      <trkpt lat="42.48062" lon="3.1193">
        <ele>47.200000762939</ele>
        <time>2023-07-12T03:33:55.000Z</time>
      </trkpt>
      <trkpt lat="42.48063" lon="3.11923">
        <ele>47.400001525879</ele>
        <time>2023-07-12T03:34:00.000Z</time>
      </trkpt>
      <trkpt lat="42.48064" lon="3.11919">
        <ele>47.599998474121</ele>
        <time>2023-07-12T03:34:03.000Z</time>
      </trkpt>
      <trkpt lat="42.48064" lon="3.11915">
        <ele>47.799999237061</ele>
        <time>2023-07-12T03:34:09.000Z</time>
      </trkpt>
      <trkpt lat="42.48063" lon="3.11903">
        <ele>47.799999237061</ele>
        <time>2023-07-12T03:34:16.000Z</time>
      </trkpt>
      <trkpt lat="42.48066" lon="3.1189">
        <ele>48</ele>
        <time>2023-07-12T03:34:24.000Z</time>
      </trkpt>
      <trkpt lat="42.48069" lon="3.11882">
        <ele>47.400001525879</ele>
        <time>2023-07-12T03:34:30.000Z</time>
      </trkpt>
      <trkpt lat="42.48074" lon="3.11871">
        <ele>47.200000762939</ele>
        <time>2023-07-12T03:34:38.000Z</time>
      </trkpt>
      <trkpt lat="42.48079" lon="3.11864">
        <ele>46.799999237061</ele>
        <time>2023-07-12T03:34:46.000Z</time>
      </trkpt>
      <trkpt lat="42.48081" lon="3.11861">
        <ele>46.400001525879</ele>
        <time>2023-07-12T03:34:48.000Z</time>
      </trkpt>
      <trkpt lat="42.48084" lon="3.11853">
        <ele>46.200000762939</ele>
        <time>2023-07-12T03:34:53.000Z</time>
      </trkpt>
      <trkpt lat="42.4809" lon="3.11837">
        <ele>46</ele>
        <time>2023-07-12T03:35:01.000Z</time>
      </trkpt>
      <trkpt lat="42.48096" lon="3.11822">
        <ele>46.599998474121</ele>
        <time>2023-07-12T03:35:09.000Z</time>
      </trkpt>
      <trkpt lat="42.48101" lon="3.1181">
        <ele>46.599998474121</ele>
        <time>2023-07-12T03:35:17.000Z</time>
      </trkpt>
      <trkpt lat="42.48108" lon="3.11798">
        <ele>45.599998474121</ele>
        <time>2023-07-12T03:35:26.000Z</time>
      </trkpt>
      <trkpt lat="42.48112" lon="3.11788">
        <ele>46.200000762939</ele>
        <time>2023-07-12T03:35:34.000Z</time>
      </trkpt>
      <trkpt lat="42.48119" lon="3.11779">
        <ele>46.799999237061</ele>
        <time>2023-07-12T03:35:43.000Z</time>
      </trkpt>
      <trkpt lat="42.48129" lon="3.1177">
        <ele>46.799999237061</ele>
        <time>2023-07-12T03:35:52.000Z</time>
      </trkpt>
      <trkpt lat="42.48136" lon="3.1176">
        <ele>47.599998474121</ele>
        <time>2023-07-12T03:36:00.000Z</time>
      </trkpt>
      <trkpt lat="42.48139" lon="3.11756">
        <ele>48.200000762939</ele>
        <time>2023-07-12T03:36:03.000Z</time>
      </trkpt>
      <trkpt lat="42.48143" lon="3.1175">
        <ele>48.799999237061</ele>
        <time>2023-07-12T03:36:07.000Z</time>
      </trkpt>
      <trkpt lat="42.48147" lon="3.11742">
        <ele>48.799999237061</ele>
        <time>2023-07-12T03:36:12.000Z</time>
      </trkpt>
      <trkpt lat="42.4815" lon="3.11727">
        <ele>49.599998474121</ele>
        <time>2023-07-12T03:36:20.000Z</time>
      </trkpt>
      <trkpt lat="42.4815" lon="3.1172">
        <ele>49.799999237061</ele>
        <time>2023-07-12T03:36:24.000Z</time>
      </trkpt>
      <trkpt lat="42.48151" lon="3.11712">
        <ele>50.200000762939</ele>
        <time>2023-07-12T03:36:29.000Z</time>
      </trkpt>
      <trkpt lat="42.48152" lon="3.11705">
        <ele>51.200000762939</ele>
        <time>2023-07-12T03:36:34.000Z</time>
      </trkpt>
      <trkpt lat="42.48152" lon="3.117">
        <ele>51.599998474121</ele>
        <time>2023-07-12T03:36:38.000Z</time>
      </trkpt>
      <trkpt lat="42.48154" lon="3.11702">
        <ele>51.799999237061</ele>
        <time>2023-07-12T03:36:47.000Z</time>
      </trkpt>
      <trkpt lat="42.48153" lon="3.11701">
        <ele>51.799999237061</ele>
        <time>2023-07-12T03:36:54.000Z</time>
      </trkpt>
      <trkpt lat="42.48152" lon="3.11703">
        <ele>51.400001525879</ele>
        <time>2023-07-12T03:37:05.000Z</time>
      </trkpt>
      <trkpt lat="42.48151" lon="3.11697">
        <ele>52.200000762939</ele>
        <time>2023-07-12T03:37:13.000Z</time>
      </trkpt>
      <trkpt lat="42.48151" lon="3.11686">
        <ele>52.400001525879</ele>
        <time>2023-07-12T03:37:21.000Z</time>
      </trkpt>
      <trkpt lat="42.4815" lon="3.11678">
        <ele>52</ele>
        <time>2023-07-12T03:37:27.000Z</time>
      </trkpt>
      <trkpt lat="42.48146" lon="3.11663">
        <ele>51.400001525879</ele>
        <time>2023-07-12T03:37:37.000Z</time>
      </trkpt>
      <trkpt lat="42.48146" lon="3.11663">
        <ele>51.200000762939</ele>
        <time>2023-07-12T03:37:38.000Z</time>
      </trkpt>
      <trkpt lat="42.48148" lon="3.11664">
        <ele>51</ele>
        <time>2023-07-12T03:37:40.000Z</time>
      </trkpt>
      <trkpt lat="42.4815" lon="3.11664">
        <ele>50.799999237061</ele>
        <time>2023-07-12T03:37:45.000Z</time>
      </trkpt>
      <trkpt lat="42.4815" lon="3.11663">
        <ele>50.799999237061</ele>
        <time>2023-07-12T03:37:46.000Z</time>
      </trkpt>
      <trkpt lat="42.48146" lon="3.11648">
        <ele>50</ele>
        <time>2023-07-12T03:37:54.000Z</time>
      </trkpt>
      <trkpt lat="42.48143" lon="3.11642">
        <ele>48.799999237061</ele>
        <time>2023-07-12T03:37:58.000Z</time>
      </trkpt>
      <trkpt lat="42.48138" lon="3.11632">
        <ele>48.200000762939</ele>
        <time>2023-07-12T03:38:05.000Z</time>
      </trkpt>
      <trkpt lat="42.48133" lon="3.11624">
        <ele>48.400001525879</ele>
        <time>2023-07-12T03:38:12.000Z</time>
      </trkpt>
      <trkpt lat="42.48126" lon="3.1161">
        <ele>49.400001525879</ele>
        <time>2023-07-12T03:38:21.000Z</time>
      </trkpt>
      <trkpt lat="42.48122" lon="3.11599">
        <ele>49.599998474121</ele>
        <time>2023-07-12T03:38:29.000Z</time>
      </trkpt>
      <trkpt lat="42.48121" lon="3.11597">
        <ele>49.799999237061</ele>
        <time>2023-07-12T03:38:30.000Z</time>
      </trkpt>
      <trkpt lat="42.48117" lon="3.11586">
        <ele>49.799999237061</ele>
        <time>2023-07-12T03:38:38.000Z</time>
      </trkpt>
      <trkpt lat="42.48115" lon="3.11579">
        <ele>50.799999237061</ele>
        <time>2023-07-12T03:38:42.000Z</time>
      </trkpt>
      <trkpt lat="42.48115" lon="3.11573">
        <ele>51.599998474121</ele>
        <time>2023-07-12T03:38:47.000Z</time>
      </trkpt>
      <trkpt lat="42.48114" lon="3.11571">
        <ele>52</ele>
        <time>2023-07-12T03:38:49.000Z</time>
      </trkpt>
      <trkpt lat="42.48113" lon="3.11569">
        <ele>53.200000762939</ele>
        <time>2023-07-12T03:38:51.000Z</time>
      </trkpt>
      <trkpt lat="42.4811" lon="3.11566">
        <ele>53.400001525879</ele>
        <time>2023-07-12T03:38:55.000Z</time>
      </trkpt>
      <trkpt lat="42.48102" lon="3.11561">
        <ele>53.200000762939</ele>
        <time>2023-07-12T03:39:03.000Z</time>
      </trkpt>
      <trkpt lat="42.48099" lon="3.11553">
        <ele>54</ele>
        <time>2023-07-12T03:39:12.000Z</time>
      </trkpt>
      <trkpt lat="42.48098" lon="3.11553">
        <ele>54.200000762939</ele>
        <time>2023-07-12T03:39:13.000Z</time>
      </trkpt>
      <trkpt lat="42.48097" lon="3.11549">
        <ele>54.400001525879</ele>
        <time>2023-07-12T03:39:18.000Z</time>
      </trkpt>
      <trkpt lat="42.48093" lon="3.11538">
        <ele>55</ele>
        <time>2023-07-12T03:39:27.000Z</time>
      </trkpt>
      <trkpt lat="42.48091" lon="3.11536">
        <ele>55.200000762939</ele>
        <time>2023-07-12T03:39:30.000Z</time>
      </trkpt>
      <trkpt lat="42.48089" lon="3.11535">
        <ele>55.799999237061</ele>
        <time>2023-07-12T03:39:33.000Z</time>
      </trkpt>
      <trkpt lat="42.48088" lon="3.11535">
        <ele>56.200000762939</ele>
        <time>2023-07-12T03:39:36.000Z</time>
      </trkpt>
      <trkpt lat="42.48085" lon="3.11533">
        <ele>57.200000762939</ele>
        <time>2023-07-12T03:39:42.000Z</time>
      </trkpt>
      <trkpt lat="42.48083" lon="3.1153">
        <ele>58.200000762939</ele>
        <time>2023-07-12T03:39:49.000Z</time>
      </trkpt>
      <trkpt lat="42.48081" lon="3.11529">
        <ele>58.400001525879</ele>
        <time>2023-07-12T03:39:50.000Z</time>
      </trkpt>
      <trkpt lat="42.48077" lon="3.11528">
        <ele>59.400001525879</ele>
        <time>2023-07-12T03:39:55.000Z</time>
      </trkpt>
      <trkpt lat="42.48077" lon="3.11527">
        <ele>59.799999237061</ele>
        <time>2023-07-12T03:39:56.000Z</time>
      </trkpt>
      <trkpt lat="42.48067" lon="3.11525">
        <ele>60.400001525879</ele>
        <time>2023-07-12T03:40:03.000Z</time>
      </trkpt>
      <trkpt lat="42.48063" lon="3.11519">
        <ele>62</ele>
        <time>2023-07-12T03:40:14.000Z</time>
      </trkpt>
      <trkpt lat="42.48061" lon="3.11514">
        <ele>62.599998474121</ele>
        <time>2023-07-12T03:40:19.000Z</time>
      </trkpt>
      <trkpt lat="42.48063" lon="3.1151">
        <ele>63</ele>
        <time>2023-07-12T03:40:23.000Z</time>
      </trkpt>
      <trkpt lat="42.48062" lon="3.11507">
        <ele>63.799999237061</ele>
        <time>2023-07-12T03:40:28.000Z</time>
      </trkpt>
      <trkpt lat="42.48062" lon="3.11504">
        <ele>64.599998474121</ele>
        <time>2023-07-12T03:40:32.000Z</time>
      </trkpt>
      <trkpt lat="42.48062" lon="3.11503">
        <ele>64.800003051758</ele>
        <time>2023-07-12T03:40:33.000Z</time>
      </trkpt>
      <trkpt lat="42.48062" lon="3.115">
        <ele>66</ele>
        <time>2023-07-12T03:40:39.000Z</time>
      </trkpt>
      <trkpt lat="42.48058" lon="3.1149">
        <ele>67.199996948242</ele>
        <time>2023-07-12T03:40:49.000Z</time>
      </trkpt>
      <trkpt lat="42.48052" lon="3.1149">
        <ele>68.199996948242</ele>
        <time>2023-07-12T03:40:55.000Z</time>
      </trkpt>
      <trkpt lat="42.48047" lon="3.11488">
        <ele>69.400001525879</ele>
        <time>2023-07-12T03:41:03.000Z</time>
      </trkpt>
      <trkpt lat="42.48047" lon="3.11488">
        <ele>69.599998474121</ele>
        <time>2023-07-12T03:41:04.000Z</time>
      </trkpt>
      <trkpt lat="42.48045" lon="3.11482">
        <ele>69.800003051758</ele>
        <time>2023-07-12T03:41:11.000Z</time>
      </trkpt>
      <trkpt lat="42.48043" lon="3.1148">
        <ele>70.599998474121</ele>
        <time>2023-07-12T03:41:17.000Z</time>
      </trkpt>
      <trkpt lat="42.48042" lon="3.11479">
        <ele>71.400001525879</ele>
        <time>2023-07-12T03:41:20.000Z</time>
      </trkpt>
      <trkpt lat="42.48042" lon="3.11479">
        <ele>71.800003051758</ele>
        <time>2023-07-12T03:41:21.000Z</time>
      </trkpt>
      <trkpt lat="42.48041" lon="3.11477">
        <ele>72.800003051758</ele>
        <time>2023-07-12T03:41:25.000Z</time>
      </trkpt>
      <trkpt lat="42.48039" lon="3.11475">
        <ele>73.199996948242</ele>
        <time>2023-07-12T03:41:28.000Z</time>
      </trkpt>
      <trkpt lat="42.48037" lon="3.11473">
        <ele>74</ele>
        <time>2023-07-12T03:41:33.000Z</time>
      </trkpt>
      <trkpt lat="42.48036" lon="3.11472">
        <ele>74.599998474121</ele>
        <time>2023-07-12T03:41:35.000Z</time>
      </trkpt>
      <trkpt lat="42.48035" lon="3.11468">
        <ele>74.800003051758</ele>
        <time>2023-07-12T03:41:42.000Z</time>
      </trkpt>
      <trkpt lat="42.48036" lon="3.11466">
        <ele>75.199996948242</ele>
        <time>2023-07-12T03:41:45.000Z</time>
      </trkpt>
      <trkpt lat="42.48033" lon="3.11461">
        <ele>76.400001525879</ele>
        <time>2023-07-12T03:41:51.000Z</time>
      </trkpt>
      <trkpt lat="42.48031" lon="3.11458">
        <ele>77.400001525879</ele>
        <time>2023-07-12T03:41:58.000Z</time>
      </trkpt>
      <trkpt lat="42.48032" lon="3.11453">
        <ele>78</ele>
        <time>2023-07-12T03:42:04.000Z</time>
      </trkpt>
      <trkpt lat="42.48033" lon="3.11449">
        <ele>78.400001525879</ele>
        <time>2023-07-12T03:42:07.000Z</time>
      </trkpt>
      <trkpt lat="42.48033" lon="3.11444">
        <ele>79.599998474121</ele>
        <time>2023-07-12T03:42:12.000Z</time>
      </trkpt>
      <trkpt lat="42.4803" lon="3.1144">
        <ele>81.400001525879</ele>
        <time>2023-07-12T03:42:19.000Z</time>
      </trkpt>
      <trkpt lat="42.48029" lon="3.11439">
        <ele>82</ele>
        <time>2023-07-12T03:42:21.000Z</time>
      </trkpt>
      <trkpt lat="42.48025" lon="3.11429">
        <ele>82.400001525879</ele>
        <time>2023-07-12T03:42:30.000Z</time>
      </trkpt>
      <trkpt lat="42.48025" lon="3.11426">
        <ele>82.400001525879</ele>
        <time>2023-07-12T03:42:32.000Z</time>
      </trkpt>
      <trkpt lat="42.48023" lon="3.11418">
        <ele>83</ele>
        <time>2023-07-12T03:42:39.000Z</time>
      </trkpt>
      <trkpt lat="42.48024" lon="3.11411">
        <ele>83.599998474121</ele>
        <time>2023-07-12T03:42:46.000Z</time>
      </trkpt>
      <trkpt lat="42.48025" lon="3.11409">
        <ele>83.800003051758</ele>
        <time>2023-07-12T03:42:48.000Z</time>
      </trkpt>
      <trkpt lat="42.48025" lon="3.11405">
        <ele>84.800003051758</ele>
        <time>2023-07-12T03:42:51.000Z</time>
      </trkpt>
      <trkpt lat="42.48026" lon="3.11402">
        <ele>84.800003051758</ele>
        <time>2023-07-12T03:42:55.000Z</time>
      </trkpt>
      <trkpt lat="42.48027" lon="3.11397">
        <ele>86</ele>
        <time>2023-07-12T03:43:02.000Z</time>
      </trkpt>
      <trkpt lat="42.48027" lon="3.11397">
        <ele>87</ele>
        <time>2023-07-12T03:43:03.000Z</time>
      </trkpt>
      <trkpt lat="42.48027" lon="3.11396">
        <ele>87.199996948242</ele>
        <time>2023-07-12T03:43:04.000Z</time>
      </trkpt>
      <trkpt lat="42.48024" lon="3.11389">
        <ele>87.599998474121</ele>
        <time>2023-07-12T03:43:13.000Z</time>
      </trkpt>
      <trkpt lat="42.48025" lon="3.11384">
        <ele>88.400001525879</ele>
        <time>2023-07-12T03:43:19.000Z</time>
      </trkpt>
      <trkpt lat="42.48025" lon="3.11382">
        <ele>89.400001525879</ele>
        <time>2023-07-12T03:43:22.000Z</time>
      </trkpt>
      <trkpt lat="42.48025" lon="3.1138">
        <ele>89.599998474121</ele>
        <time>2023-07-12T03:43:24.000Z</time>
      </trkpt>
      <trkpt lat="42.48024" lon="3.11375">
        <ele>90.599998474121</ele>
        <time>2023-07-12T03:43:30.000Z</time>
      </trkpt>
      <trkpt lat="42.48022" lon="3.11365">
        <ele>91.599998474121</ele>
        <time>2023-07-12T03:43:39.000Z</time>
      </trkpt>
      <trkpt lat="42.48021" lon="3.11363">
        <ele>91.800003051758</ele>
        <time>2023-07-12T03:43:41.000Z</time>
      </trkpt>
      <trkpt lat="42.48017" lon="3.11358">
        <ele>92.800003051758</ele>
        <time>2023-07-12T03:43:48.000Z</time>
      </trkpt>
      <trkpt lat="42.48017" lon="3.11356">
        <ele>93</ele>
        <time>2023-07-12T03:43:49.000Z</time>
      </trkpt>
      <trkpt lat="42.48018" lon="3.11346">
        <ele>93.800003051758</ele>
        <time>2023-07-12T03:43:58.000Z</time>
      </trkpt>
      <trkpt lat="42.48018" lon="3.11344">
        <ele>94</ele>
        <time>2023-07-12T03:43:59.000Z</time>
      </trkpt>
      <trkpt lat="42.48018" lon="3.11335">
        <ele>94.599998474121</ele>
        <time>2023-07-12T03:44:05.000Z</time>
      </trkpt>
      <trkpt lat="42.48017" lon="3.11328">
        <ele>95.199996948242</ele>
        <time>2023-07-12T03:44:11.000Z</time>
      </trkpt>
      <trkpt lat="42.48016" lon="3.11324">
        <ele>95.199996948242</ele>
        <time>2023-07-12T03:44:13.000Z</time>
      </trkpt>
      <trkpt lat="42.48018" lon="3.11316">
        <ele>95</ele>
        <time>2023-07-12T03:44:19.000Z</time>
      </trkpt>
      <trkpt lat="42.48021" lon="3.11304">
        <ele>95.400001525879</ele>
        <time>2023-07-12T03:44:27.000Z</time>
      </trkpt>
      <trkpt lat="42.48024" lon="3.11295">
        <ele>95</ele>
        <time>2023-07-12T03:44:35.000Z</time>
      </trkpt>
      <trkpt lat="42.48025" lon="3.11294">
        <ele>95</ele>
        <time>2023-07-12T03:44:37.000Z</time>
      </trkpt>
      <trkpt lat="42.48026" lon="3.11295">
        <ele>95</ele>
        <time>2023-07-12T03:44:42.000Z</time>
      </trkpt>
      <trkpt lat="42.48026" lon="3.11293">
        <ele>95.800003051758</ele>
        <time>2023-07-12T03:44:53.000Z</time>
      </trkpt>
      <trkpt lat="42.48026" lon="3.11289">
        <ele>95.199996948242</ele>
        <time>2023-07-12T03:45:02.000Z</time>
      </trkpt>
      <trkpt lat="42.48024" lon="3.1128">
        <ele>94.199996948242</ele>
        <time>2023-07-12T03:45:08.000Z</time>
      </trkpt>
      <trkpt lat="42.48024" lon="3.11278">
        <ele>94.199996948242</ele>
        <time>2023-07-12T03:45:09.000Z</time>
      </trkpt>
      <trkpt lat="42.48025" lon="3.11267">
        <ele>95</ele>
        <time>2023-07-12T03:45:16.000Z</time>
      </trkpt>
      <trkpt lat="42.48027" lon="3.11257">
        <ele>94.599998474121</ele>
        <time>2023-07-12T03:45:23.000Z</time>
      </trkpt>
      <trkpt lat="42.48035" lon="3.11246">
        <ele>94.400001525879</ele>
        <time>2023-07-12T03:45:33.000Z</time>
      </trkpt>
      <trkpt lat="42.48041" lon="3.1124">
        <ele>94.599998474121</ele>
        <time>2023-07-12T03:45:39.000Z</time>
      </trkpt>
      <trkpt lat="42.48048" lon="3.11231">
        <ele>95</ele>
        <time>2023-07-12T03:45:47.000Z</time>
      </trkpt>
      <trkpt lat="42.48049" lon="3.1123">
        <ele>95.199996948242</ele>
        <time>2023-07-12T03:45:48.000Z</time>
      </trkpt>
      <trkpt lat="42.48055" lon="3.11221">
        <ele>96.400001525879</ele>
        <time>2023-07-12T03:45:55.000Z</time>
      </trkpt>
      <trkpt lat="42.48055" lon="3.11213">
        <ele>97.400001525879</ele>
        <time>2023-07-12T03:46:03.000Z</time>
      </trkpt>
      <trkpt lat="42.48055" lon="3.11211">
        <ele>97.400001525879</ele>
        <time>2023-07-12T03:46:04.000Z</time>
      </trkpt>
      <trkpt lat="42.48058" lon="3.11203">
        <ele>98.599998474121</ele>
        <time>2023-07-12T03:46:11.000Z</time>
      </trkpt>
      <trkpt lat="42.48059" lon="3.11199">
        <ele>98.800003051758</ele>
        <time>2023-07-12T03:46:14.000Z</time>
      </trkpt>
      <trkpt lat="42.4806" lon="3.11197">
        <ele>99.800003051758</ele>
        <time>2023-07-12T03:46:18.000Z</time>
      </trkpt>
      <trkpt lat="42.4806" lon="3.11196">
        <ele>100.19999694824</ele>
        <time>2023-07-12T03:46:20.000Z</time>
      </trkpt>
      <trkpt lat="42.4806" lon="3.11194">
        <ele>100.19999694824</ele>
        <time>2023-07-12T03:46:27.000Z</time>
      </trkpt>
      <trkpt lat="42.4806" lon="3.11193">
        <ele>100.19999694824</ele>
        <time>2023-07-12T03:46:35.000Z</time>
      </trkpt>
      <trkpt lat="42.4806" lon="3.11192">
        <ele>99.800003051758</ele>
        <time>2023-07-12T03:46:42.000Z</time>
      </trkpt>
      <trkpt lat="42.48063" lon="3.11186">
        <ele>99.800003051758</ele>
        <time>2023-07-12T03:46:48.000Z</time>
      </trkpt>
      <trkpt lat="42.48062" lon="3.1119">
        <ele>100.40000152588</ele>
        <time>2023-07-12T03:46:55.000Z</time>
      </trkpt>
      <trkpt lat="42.48061" lon="3.11191">
        <ele>100.40000152588</ele>
        <time>2023-07-12T03:46:57.000Z</time>
      </trkpt>
      <trkpt lat="42.48061" lon="3.11187">
        <ele>100.40000152588</ele>
        <time>2023-07-12T03:47:00.000Z</time>
      </trkpt>
      <trkpt lat="42.48062" lon="3.11184">
        <ele>100.80000305176</ele>
        <time>2023-07-12T03:47:02.000Z</time>
      </trkpt>
      <trkpt lat="42.48062" lon="3.11177">
        <ele>102</ele>
        <time>2023-07-12T03:47:06.000Z</time>
      </trkpt>
      <trkpt lat="42.48062" lon="3.11173">
        <ele>102.19999694824</ele>
        <time>2023-07-12T03:47:08.000Z</time>
      </trkpt>
      <trkpt lat="42.48065" lon="3.11155">
        <ele>102.80000305176</ele>
        <time>2023-07-12T03:47:19.000Z</time>
      </trkpt>
      <trkpt lat="42.48066" lon="3.1115">
        <ele>103</ele>
        <time>2023-07-12T03:47:22.000Z</time>
      </trkpt>
      <trkpt lat="42.48067" lon="3.11137">
        <ele>103.59999847412</ele>
        <time>2023-07-12T03:47:30.000Z</time>
      </trkpt>
      <trkpt lat="42.48067" lon="3.11132">
        <ele>104.40000152588</ele>
        <time>2023-07-12T03:47:33.000Z</time>
      </trkpt>
      <trkpt lat="42.48068" lon="3.11122">
        <ele>104.80000305176</ele>
        <time>2023-07-12T03:47:40.000Z</time>
      </trkpt>
      <trkpt lat="42.4807" lon="3.11111">
        <ele>105.59999847412</ele>
        <time>2023-07-12T03:47:49.000Z</time>
      </trkpt>
      <trkpt lat="42.4807" lon="3.11109">
        <ele>105.80000305176</ele>
        <time>2023-07-12T03:47:50.000Z</time>
      </trkpt>
      <trkpt lat="42.48075" lon="3.11094">
        <ele>106.59999847412</ele>
        <time>2023-07-12T03:47:59.000Z</time>
      </trkpt>
      <trkpt lat="42.4808" lon="3.11083">
        <ele>107.59999847412</ele>
        <time>2023-07-12T03:48:06.000Z</time>
      </trkpt>
      <trkpt lat="42.48083" lon="3.1108">
        <ele>108.40000152588</ele>
        <time>2023-07-12T03:48:09.000Z</time>
      </trkpt>
      <trkpt lat="42.48084" lon="3.11076">
        <ele>109.19999694824</ele>
        <time>2023-07-12T03:48:11.000Z</time>
      </trkpt>
      <trkpt lat="42.48089" lon="3.11067">
        <ele>109.59999847412</ele>
        <time>2023-07-12T03:48:18.000Z</time>
      </trkpt>
      <trkpt lat="42.48093" lon="3.11055">
        <ele>109.19999694824</ele>
        <time>2023-07-12T03:48:27.000Z</time>
      </trkpt>
      <trkpt lat="42.48099" lon="3.11036">
        <ele>109.59999847412</ele>
        <time>2023-07-12T03:48:38.000Z</time>
      </trkpt>
      <trkpt lat="42.48101" lon="3.1103">
        <ele>110.59999847412</ele>
        <time>2023-07-12T03:48:42.000Z</time>
      </trkpt>
      <trkpt lat="42.48103" lon="3.11021">
        <ele>111.40000152588</ele>
        <time>2023-07-12T03:48:48.000Z</time>
      </trkpt>
      <trkpt lat="42.48105" lon="3.11009">
        <ele>111.59999847412</ele>
        <time>2023-07-12T03:48:56.000Z</time>
      </trkpt>
      <trkpt lat="42.48105" lon="3.11007">
        <ele>111.59999847412</ele>
        <time>2023-07-12T03:48:57.000Z</time>
      </trkpt>
      <trkpt lat="42.4811" lon="3.10992">
        <ele>112.40000152588</ele>
        <time>2023-07-12T03:49:07.000Z</time>
      </trkpt>
      <trkpt lat="42.48114" lon="3.10978">
        <ele>112.59999847412</ele>
        <time>2023-07-12T03:49:16.000Z</time>
      </trkpt>
      <trkpt lat="42.48117" lon="3.10961">
        <ele>113.59999847412</ele>
        <time>2023-07-12T03:49:25.000Z</time>
      </trkpt>
      <trkpt lat="42.48118" lon="3.10959">
        <ele>113.80000305176</ele>
        <time>2023-07-12T03:49:26.000Z</time>
      </trkpt>
      <trkpt lat="42.48124" lon="3.1095">
        <ele>114</ele>
        <time>2023-07-12T03:49:35.000Z</time>
      </trkpt>
      <trkpt lat="42.48128" lon="3.10943">
        <ele>114.80000305176</ele>
        <time>2023-07-12T03:49:40.000Z</time>
      </trkpt>
      <trkpt lat="42.48131" lon="3.10939">
        <ele>115.19999694824</ele>
        <time>2023-07-12T03:49:44.000Z</time>
      </trkpt>
      <trkpt lat="42.48138" lon="3.10932">
        <ele>116</ele>
        <time>2023-07-12T03:49:50.000Z</time>
      </trkpt>
      <trkpt lat="42.48141" lon="3.1093">
        <ele>116.40000152588</ele>
        <time>2023-07-12T03:49:53.000Z</time>
      </trkpt>
      <trkpt lat="42.48147" lon="3.10923">
        <ele>117</ele>
        <time>2023-07-12T03:50:02.000Z</time>
      </trkpt>
      <trkpt lat="42.48151" lon="3.10912">
        <ele>118.19999694824</ele>
        <time>2023-07-12T03:50:11.000Z</time>
      </trkpt>
      <trkpt lat="42.48151" lon="3.1091">
        <ele>118.19999694824</ele>
        <time>2023-07-12T03:50:12.000Z</time>
      </trkpt>
      <trkpt lat="42.48153" lon="3.109">
        <ele>119.19999694824</ele>
        <time>2023-07-12T03:50:19.000Z</time>
      </trkpt>
      <trkpt lat="42.48153" lon="3.10895">
        <ele>120</ele>
        <time>2023-07-12T03:50:23.000Z</time>
      </trkpt>
      <trkpt lat="42.48153" lon="3.10894">
        <ele>120.59999847412</ele>
        <time>2023-07-12T03:50:24.000Z</time>
      </trkpt>
      <trkpt lat="42.48154" lon="3.10885">
        <ele>121.59999847412</ele>
        <time>2023-07-12T03:50:30.000Z</time>
      </trkpt>
      <trkpt lat="42.48155" lon="3.10882">
        <ele>121.80000305176</ele>
        <time>2023-07-12T03:50:32.000Z</time>
      </trkpt>
      <trkpt lat="42.48156" lon="3.10875">
        <ele>122.59999847412</ele>
        <time>2023-07-12T03:50:36.000Z</time>
      </trkpt>
      <trkpt lat="42.48158" lon="3.10868">
        <ele>123.40000152588</ele>
        <time>2023-07-12T03:50:42.000Z</time>
      </trkpt>
      <trkpt lat="42.48158" lon="3.10867">
        <ele>123.80000305176</ele>
        <time>2023-07-12T03:50:45.000Z</time>
      </trkpt>
      <trkpt lat="42.48158" lon="3.10864">
        <ele>125</ele>
        <time>2023-07-12T03:50:48.000Z</time>
      </trkpt>
      <trkpt lat="42.48158" lon="3.10862">
        <ele>125.80000305176</ele>
        <time>2023-07-12T03:50:50.000Z</time>
      </trkpt>
      <trkpt lat="42.48158" lon="3.10861">
        <ele>126</ele>
        <time>2023-07-12T03:50:54.000Z</time>
      </trkpt>
      <trkpt lat="42.48159" lon="3.10859">
        <ele>126.80000305176</ele>
        <time>2023-07-12T03:50:57.000Z</time>
      </trkpt>
      <trkpt lat="42.4816" lon="3.10859">
        <ele>127.19999694824</ele>
        <time>2023-07-12T03:50:58.000Z</time>
      </trkpt>
      <trkpt lat="42.48161" lon="3.10856">
        <ele>127.59999847412</ele>
        <time>2023-07-12T03:51:04.000Z</time>
      </trkpt>
      <trkpt lat="42.48162" lon="3.10852">
        <ele>128.39999389648</ele>
        <time>2023-07-12T03:51:08.000Z</time>
      </trkpt>
      <trkpt lat="42.48162" lon="3.10849">
        <ele>129.19999694824</ele>
        <time>2023-07-12T03:51:13.000Z</time>
      </trkpt>
      <trkpt lat="42.48163" lon="3.10847">
        <ele>129.39999389648</ele>
        <time>2023-07-12T03:51:14.000Z</time>
      </trkpt>
      <trkpt lat="42.48164" lon="3.10843">
        <ele>130.60000610352</ele>
        <time>2023-07-12T03:51:20.000Z</time>
      </trkpt>
      <trkpt lat="42.48164" lon="3.1084">
        <ele>131.60000610352</ele>
        <time>2023-07-12T03:51:23.000Z</time>
      </trkpt>
      <trkpt lat="42.48166" lon="3.10831">
        <ele>132.80000305176</ele>
        <time>2023-07-12T03:51:29.000Z</time>
      </trkpt>
      <trkpt lat="42.48166" lon="3.10827">
        <ele>134.19999694824</ele>
        <time>2023-07-12T03:51:34.000Z</time>
      </trkpt>
      <trkpt lat="42.48167" lon="3.10824">
        <ele>134.60000610352</ele>
        <time>2023-07-12T03:51:37.000Z</time>
      </trkpt>
      <trkpt lat="42.4817" lon="3.10815">
        <ele>136</ele>
        <time>2023-07-12T03:51:47.000Z</time>
      </trkpt>
      <trkpt lat="42.48174" lon="3.10804">
        <ele>136.80000305176</ele>
        <time>2023-07-12T03:51:57.000Z</time>
      </trkpt>
      <trkpt lat="42.48176" lon="3.10793">
        <ele>137</ele>
        <time>2023-07-12T03:52:05.000Z</time>
      </trkpt>
      <trkpt lat="42.48177" lon="3.10777">
        <ele>138</ele>
        <time>2023-07-12T03:52:16.000Z</time>
      </trkpt>
      <trkpt lat="42.48178" lon="3.1077">
        <ele>139.19999694824</ele>
        <time>2023-07-12T03:52:22.000Z</time>
      </trkpt>
      <trkpt lat="42.48179" lon="3.10766">
        <ele>139.80000305176</ele>
        <time>2023-07-12T03:52:24.000Z</time>
      </trkpt>
      <trkpt lat="42.48182" lon="3.10758">
        <ele>140.19999694824</ele>
        <time>2023-07-12T03:52:30.000Z</time>
      </trkpt>
      <trkpt lat="42.48184" lon="3.10753">
        <ele>141.19999694824</ele>
        <time>2023-07-12T03:52:35.000Z</time>
      </trkpt>
      <trkpt lat="42.48186" lon="3.10751">
        <ele>141.39999389648</ele>
        <time>2023-07-12T03:52:37.000Z</time>
      </trkpt>
      <trkpt lat="42.48188" lon="3.10747">
        <ele>142.80000305176</ele>
        <time>2023-07-12T03:52:42.000Z</time>
      </trkpt>
      <trkpt lat="42.48189" lon="3.10745">
        <ele>143</ele>
        <time>2023-07-12T03:52:45.000Z</time>
      </trkpt>
      <trkpt lat="42.48191" lon="3.10741">
        <ele>144</ele>
        <time>2023-07-12T03:52:49.000Z</time>
      </trkpt>
      <trkpt lat="42.48192" lon="3.10738">
        <ele>144.60000610352</ele>
        <time>2023-07-12T03:52:53.000Z</time>
      </trkpt>
      <trkpt lat="42.48192" lon="3.10737">
        <ele>145.39999389648</ele>
        <time>2023-07-12T03:52:55.000Z</time>
      </trkpt>
      <trkpt lat="42.48198" lon="3.10728">
        <ele>146</ele>
        <time>2023-07-12T03:53:03.000Z</time>
      </trkpt>
      <trkpt lat="42.48199" lon="3.10725">
        <ele>146.60000610352</ele>
        <time>2023-07-12T03:53:05.000Z</time>
      </trkpt>
      <trkpt lat="42.48202" lon="3.10718">
        <ele>147.39999389648</ele>
        <time>2023-07-12T03:53:11.000Z</time>
      </trkpt>
      <trkpt lat="42.48205" lon="3.1071">
        <ele>147.80000305176</ele>
        <time>2023-07-12T03:53:20.000Z</time>
      </trkpt>
      <trkpt lat="42.48206" lon="3.10709">
        <ele>148</ele>
        <time>2023-07-12T03:53:21.000Z</time>
      </trkpt>
      <trkpt lat="42.48207" lon="3.10706">
        <ele>148.80000305176</ele>
        <time>2023-07-12T03:53:23.000Z</time>
      </trkpt>
      <trkpt lat="42.4821" lon="3.10704">
        <ele>150</ele>
        <time>2023-07-12T03:53:28.000Z</time>
      </trkpt>
      <trkpt lat="42.48213" lon="3.10702">
        <ele>151.19999694824</ele>
        <time>2023-07-12T03:53:32.000Z</time>
      </trkpt>
      <trkpt lat="42.48216" lon="3.10698">
        <ele>151.39999389648</ele>
        <time>2023-07-12T03:53:36.000Z</time>
      </trkpt>
      <trkpt lat="42.48217" lon="3.10694">
        <ele>152.60000610352</ele>
        <time>2023-07-12T03:53:41.000Z</time>
      </trkpt>
      <trkpt lat="42.48217" lon="3.10691">
        <ele>153.39999389648</ele>
        <time>2023-07-12T03:53:45.000Z</time>
      </trkpt>
      <trkpt lat="42.48218" lon="3.10683">
        <ele>153.80000305176</ele>
        <time>2023-07-12T03:53:51.000Z</time>
      </trkpt>
      <trkpt lat="42.48222" lon="3.10679">
        <ele>154.80000305176</ele>
        <time>2023-07-12T03:53:55.000Z</time>
      </trkpt>
      <trkpt lat="42.48223" lon="3.10678">
        <ele>155.19999694824</ele>
        <time>2023-07-12T03:53:56.000Z</time>
      </trkpt>
      <trkpt lat="42.48225" lon="3.10674">
        <ele>155.80000305176</ele>
        <time>2023-07-12T03:54:02.000Z</time>
      </trkpt>
      <trkpt lat="42.48227" lon="3.10672">
        <ele>156</ele>
        <time>2023-07-12T03:54:05.000Z</time>
      </trkpt>
      <trkpt lat="42.48232" lon="3.10666">
        <ele>156.60000610352</ele>
        <time>2023-07-12T03:54:14.000Z</time>
      </trkpt>
      <trkpt lat="42.48233" lon="3.10663">
        <ele>157.39999389648</ele>
        <time>2023-07-12T03:54:16.000Z</time>
      </trkpt>
      <trkpt lat="42.48234" lon="3.1066">
        <ele>158.39999389648</ele>
        <time>2023-07-12T03:54:18.000Z</time>
      </trkpt>
      <trkpt lat="42.48236" lon="3.10656">
        <ele>158.60000610352</ele>
        <time>2023-07-12T03:54:21.000Z</time>
      </trkpt>
      <trkpt lat="42.48239" lon="3.10647">
        <ele>159</ele>
        <time>2023-07-12T03:54:29.000Z</time>
      </trkpt>
      <trkpt lat="42.48244" lon="3.10639">
        <ele>159.60000610352</ele>
        <time>2023-07-12T03:54:35.000Z</time>
      </trkpt>
      <trkpt lat="42.48245" lon="3.10638">
        <ele>159.80000305176</ele>
        <time>2023-07-12T03:54:36.000Z</time>
      </trkpt>
      <trkpt lat="42.48249" lon="3.10632">
        <ele>160.60000610352</ele>
        <time>2023-07-12T03:54:42.000Z</time>
      </trkpt>
      <trkpt lat="42.4825" lon="3.10629">
        <ele>162</ele>
        <time>2023-07-12T03:54:46.000Z</time>
      </trkpt>
      <trkpt lat="42.4825" lon="3.10627">
        <ele>162.19999694824</ele>
        <time>2023-07-12T03:54:47.000Z</time>
      </trkpt>
      <trkpt lat="42.4825" lon="3.10624">
        <ele>163.19999694824</ele>
        <time>2023-07-12T03:54:49.000Z</time>
      </trkpt>
      <trkpt lat="42.4825" lon="3.10616">
        <ele>164.39999389648</ele>
        <time>2023-07-12T03:54:54.000Z</time>
      </trkpt>
      <trkpt lat="42.48248" lon="3.10613">
        <ele>164.80000305176</ele>
        <time>2023-07-12T03:54:57.000Z</time>
      </trkpt>
      <trkpt lat="42.48246" lon="3.10611">
        <ele>165</ele>
        <time>2023-07-12T03:55:00.000Z</time>
      </trkpt>
      <trkpt lat="42.48242" lon="3.10611">
        <ele>165.19999694824</ele>
        <time>2023-07-12T03:55:05.000Z</time>
      </trkpt>
      <trkpt lat="42.48241" lon="3.1061">
        <ele>165.39999389648</ele>
        <time>2023-07-12T03:55:06.000Z</time>
      </trkpt>
      <trkpt lat="42.48238" lon="3.10607">
        <ele>166.19999694824</ele>
        <time>2023-07-12T03:55:11.000Z</time>
      </trkpt>
      <trkpt lat="42.48237" lon="3.10604">
        <ele>166.60000610352</ele>
        <time>2023-07-12T03:55:13.000Z</time>
      </trkpt>
      <trkpt lat="42.48237" lon="3.10599">
        <ele>166.80000305176</ele>
        <time>2023-07-12T03:55:17.000Z</time>
      </trkpt>
      <trkpt lat="42.48236" lon="3.10594">
        <ele>167.60000610352</ele>
        <time>2023-07-12T03:55:21.000Z</time>
      </trkpt>
      <trkpt lat="42.48239" lon="3.10585">
        <ele>167.80000305176</ele>
        <time>2023-07-12T03:55:27.000Z</time>
      </trkpt>
      <trkpt lat="42.4824" lon="3.1058">
        <ele>168.60000610352</ele>
        <time>2023-07-12T03:55:30.000Z</time>
      </trkpt>
      <trkpt lat="42.48241" lon="3.10579">
        <ele>169.60000610352</ele>
        <time>2023-07-12T03:55:31.000Z</time>
      </trkpt>
      <trkpt lat="42.48242" lon="3.10572">
        <ele>170.19999694824</ele>
        <time>2023-07-12T03:55:36.000Z</time>
      </trkpt>
      <trkpt lat="42.48243" lon="3.10569">
        <ele>170.80000305176</ele>
        <time>2023-07-12T03:55:38.000Z</time>
      </trkpt>
      <trkpt lat="42.48244" lon="3.10559">
        <ele>171.80000305176</ele>
        <time>2023-07-12T03:55:46.000Z</time>
      </trkpt>
      <trkpt lat="42.48245" lon="3.10548">
        <ele>172.60000610352</ele>
        <time>2023-07-12T03:55:55.000Z</time>
      </trkpt>
      <trkpt lat="42.48249" lon="3.10534">
        <ele>172.80000305176</ele>
        <time>2023-07-12T03:56:03.000Z</time>
      </trkpt>
      <trkpt lat="42.4825" lon="3.10529">
        <ele>172.80000305176</ele>
        <time>2023-07-12T03:56:07.000Z</time>
      </trkpt>
      <trkpt lat="42.48252" lon="3.10519">
        <ele>172.80000305176</ele>
        <time>2023-07-12T03:56:14.000Z</time>
      </trkpt>
      <trkpt lat="42.48255" lon="3.10505">
        <ele>173</ele>
        <time>2023-07-12T03:56:22.000Z</time>
      </trkpt>
      <trkpt lat="42.48256" lon="3.105">
        <ele>173.80000305176</ele>
        <time>2023-07-12T03:56:26.000Z</time>
      </trkpt>
      <trkpt lat="42.48259" lon="3.10491">
        <ele>174.39999389648</ele>
        <time>2023-07-12T03:56:31.000Z</time>
      </trkpt>
      <trkpt lat="42.4826" lon="3.10482">
        <ele>175</ele>
        <time>2023-07-12T03:56:37.000Z</time>
      </trkpt>
      <trkpt lat="42.48261" lon="3.10477">
        <ele>175.39999389648</ele>
        <time>2023-07-12T03:56:41.000Z</time>
      </trkpt>
      <trkpt lat="42.48264" lon="3.10465">
        <ele>176</ele>
        <time>2023-07-12T03:56:49.000Z</time>
      </trkpt>
      <trkpt lat="42.48265" lon="3.10463">
        <ele>176</ele>
        <time>2023-07-12T03:56:50.000Z</time>
      </trkpt>
      <trkpt lat="42.48269" lon="3.10448">
        <ele>176.39999389648</ele>
        <time>2023-07-12T03:56:59.000Z</time>
      </trkpt>
      <trkpt lat="42.48271" lon="3.10439">
        <ele>177.19999694824</ele>
        <time>2023-07-12T03:57:04.000Z</time>
      </trkpt>
      <trkpt lat="42.48271" lon="3.10429">
        <ele>178.19999694824</ele>
        <time>2023-07-12T03:57:10.000Z</time>
      </trkpt>
      <trkpt lat="42.48271" lon="3.10428">
        <ele>178.19999694824</ele>
        <time>2023-07-12T03:57:11.000Z</time>
      </trkpt>
      <trkpt lat="42.48271" lon="3.10423">
        <ele>179.19999694824</ele>
        <time>2023-07-12T03:57:15.000Z</time>
      </trkpt>
      <trkpt lat="42.48272" lon="3.10415">
        <ele>179.39999389648</ele>
        <time>2023-07-12T03:57:20.000Z</time>
      </trkpt>
      <trkpt lat="42.48273" lon="3.10408">
        <ele>181.19999694824</ele>
        <time>2023-07-12T03:57:25.000Z</time>
      </trkpt>
      <trkpt lat="42.48274" lon="3.10398">
        <ele>181.60000610352</ele>
        <time>2023-07-12T03:57:31.000Z</time>
      </trkpt>
      <trkpt lat="42.48275" lon="3.10392">
        <ele>182.39999389648</ele>
        <time>2023-07-12T03:57:36.000Z</time>
      </trkpt>
      <trkpt lat="42.48275" lon="3.10385">
        <ele>183.19999694824</ele>
        <time>2023-07-12T03:57:41.000Z</time>
      </trkpt>
      <trkpt lat="42.48275" lon="3.10384">
        <ele>183.39999389648</ele>
        <time>2023-07-12T03:57:42.000Z</time>
      </trkpt>
      <trkpt lat="42.48276" lon="3.10377">
        <ele>184.60000610352</ele>
        <time>2023-07-12T03:57:46.000Z</time>
      </trkpt>
      <trkpt lat="42.48277" lon="3.10371">
        <ele>185</ele>
        <time>2023-07-12T03:57:50.000Z</time>
      </trkpt>
      <trkpt lat="42.48278" lon="3.10351">
        <ele>185.60000610352</ele>
        <time>2023-07-12T03:58:01.000Z</time>
      </trkpt>
      <trkpt lat="42.48278" lon="3.1035">
        <ele>185.60000610352</ele>
        <time>2023-07-12T03:58:02.000Z</time>
      </trkpt>
      <trkpt lat="42.48278" lon="3.10345">
        <ele>186.60000610352</ele>
        <time>2023-07-12T03:58:05.000Z</time>
      </trkpt>
      <trkpt lat="42.48277" lon="3.10337">
        <ele>187.60000610352</ele>
        <time>2023-07-12T03:58:13.000Z</time>
      </trkpt>
      <trkpt lat="42.48278" lon="3.10336">
        <ele>187.80000305176</ele>
        <time>2023-07-12T03:58:14.000Z</time>
      </trkpt>
      <trkpt lat="42.48279" lon="3.10326">
        <ele>188.80000305176</ele>
        <time>2023-07-12T03:58:21.000Z</time>
      </trkpt>
      <trkpt lat="42.48279" lon="3.10324">
        <ele>189</ele>
        <time>2023-07-12T03:58:22.000Z</time>
      </trkpt>
      <trkpt lat="42.4828" lon="3.1032">
        <ele>190</ele>
        <time>2023-07-12T03:58:26.000Z</time>
      </trkpt>
      <trkpt lat="42.4828" lon="3.10315">
        <ele>190.60000610352</ele>
        <time>2023-07-12T03:58:31.000Z</time>
      </trkpt>
      <trkpt lat="42.48281" lon="3.1031">
        <ele>191</ele>
        <time>2023-07-12T03:58:34.000Z</time>
      </trkpt>
      <trkpt lat="42.48282" lon="3.10305">
        <ele>192.19999694824</ele>
        <time>2023-07-12T03:58:39.000Z</time>
      </trkpt>
      <trkpt lat="42.48282" lon="3.10303">
        <ele>192.39999389648</ele>
        <time>2023-07-12T03:58:40.000Z</time>
      </trkpt>
      <trkpt lat="42.48284" lon="3.10296">
        <ele>193.39999389648</ele>
        <time>2023-07-12T03:58:46.000Z</time>
      </trkpt>
      <trkpt lat="42.48285" lon="3.10292">
        <ele>194.60000610352</ele>
        <time>2023-07-12T03:58:49.000Z</time>
      </trkpt>
      <trkpt lat="42.48286" lon="3.10288">
        <ele>195.60000610352</ele>
        <time>2023-07-12T03:58:53.000Z</time>
      </trkpt>
      <trkpt lat="42.48289" lon="3.10289">
        <ele>196.39999389648</ele>
        <time>2023-07-12T03:58:57.000Z</time>
      </trkpt>
      <trkpt lat="42.48291" lon="3.10285">
        <ele>196.80000305176</ele>
        <time>2023-07-12T03:59:02.000Z</time>
      </trkpt>
      <trkpt lat="42.48292" lon="3.10282">
        <ele>196.80000305176</ele>
        <time>2023-07-12T03:59:05.000Z</time>
      </trkpt>
      <trkpt lat="42.48293" lon="3.10272">
        <ele>195.80000305176</ele>
        <time>2023-07-12T03:59:12.000Z</time>
      </trkpt>
      <trkpt lat="42.48293" lon="3.1027">
        <ele>195.60000610352</ele>
        <time>2023-07-12T03:59:13.000Z</time>
      </trkpt>
      <trkpt lat="42.48294" lon="3.10257">
        <ele>195.60000610352</ele>
        <time>2023-07-12T03:59:21.000Z</time>
      </trkpt>
      <trkpt lat="42.48296" lon="3.10252">
        <ele>196.80000305176</ele>
        <time>2023-07-12T03:59:24.000Z</time>
      </trkpt>
      <trkpt lat="42.48296" lon="3.1025">
        <ele>198.19999694824</ele>
        <time>2023-07-12T03:59:25.000Z</time>
      </trkpt>
      <trkpt lat="42.48297" lon="3.10246">
        <ele>200</ele>
        <time>2023-07-12T03:59:29.000Z</time>
      </trkpt>
      <trkpt lat="42.48297" lon="3.10246">
        <ele>200.80000305176</ele>
        <time>2023-07-12T03:59:30.000Z</time>
      </trkpt>
      <trkpt lat="42.48297" lon="3.10246">
        <ele>201.19999694824</ele>
        <time>2023-07-12T03:59:33.000Z</time>
      </trkpt>
      <trkpt lat="42.48297" lon="3.10246">
        <ele>201.39999389648</ele>
        <time>2023-07-12T03:59:38.000Z</time>
      </trkpt>
      <trkpt lat="42.48297" lon="3.1024">
        <ele>200.80000305176</ele>
        <time>2023-07-12T03:59:45.000Z</time>
      </trkpt>
      <trkpt lat="42.48301" lon="3.10228">
        <ele>199.80000305176</ele>
        <time>2023-07-12T03:59:53.000Z</time>
      </trkpt>
      <trkpt lat="42.48302" lon="3.10226">
        <ele>199.19999694824</ele>
        <time>2023-07-12T03:59:54.000Z</time>
      </trkpt>
      <trkpt lat="42.48302" lon="3.10212">
        <ele>201</ele>
        <time>2023-07-12T04:00:03.000Z</time>
      </trkpt>
      <trkpt lat="42.48302" lon="3.1021">
        <ele>201.60000610352</ele>
        <time>2023-07-12T04:00:04.000Z</time>
      </trkpt>
      <trkpt lat="42.48304" lon="3.10194">
        <ele>201.19999694824</ele>
        <time>2023-07-12T04:00:13.000Z</time>
      </trkpt>
      <trkpt lat="42.48304" lon="3.1019">
        <ele>202.19999694824</ele>
        <time>2023-07-12T04:00:19.000Z</time>
      </trkpt>
      <trkpt lat="42.48304" lon="3.10189">
        <ele>202.19999694824</ele>
        <time>2023-07-12T04:00:20.000Z</time>
      </trkpt>
      <trkpt lat="42.48305" lon="3.10174">
        <ele>203</ele>
        <time>2023-07-12T04:00:30.000Z</time>
      </trkpt>
      <trkpt lat="42.48305" lon="3.10167">
        <ele>203.19999694824</ele>
        <time>2023-07-12T04:00:36.000Z</time>
      </trkpt>
      <trkpt lat="42.48305" lon="3.10164">
        <ele>203.60000610352</ele>
        <time>2023-07-12T04:00:38.000Z</time>
      </trkpt>
      <trkpt lat="42.48305" lon="3.10159">
        <ele>204.39999389648</ele>
        <time>2023-07-12T04:00:42.000Z</time>
      </trkpt>
      <trkpt lat="42.48308" lon="3.10154">
        <ele>205.80000305176</ele>
        <time>2023-07-12T04:00:46.000Z</time>
      </trkpt>
      <trkpt lat="42.48309" lon="3.10153">
        <ele>206.19999694824</ele>
        <time>2023-07-12T04:00:47.000Z</time>
      </trkpt>
      <trkpt lat="42.4831" lon="3.10153">
        <ele>206.80000305176</ele>
        <time>2023-07-12T04:00:49.000Z</time>
      </trkpt>
      <trkpt lat="42.48311" lon="3.10154">
        <ele>207</ele>
        <time>2023-07-12T04:00:50.000Z</time>
      </trkpt>
      <trkpt lat="42.48311" lon="3.10159">
        <ele>207.60000610352</ele>
        <time>2023-07-12T04:00:53.000Z</time>
      </trkpt>
      <trkpt lat="42.48313" lon="3.10167">
        <ele>208</ele>
        <time>2023-07-12T04:00:57.000Z</time>
      </trkpt>
      <trkpt lat="42.48314" lon="3.10173">
        <ele>209</ele>
        <time>2023-07-12T04:01:03.000Z</time>
      </trkpt>
      <trkpt lat="42.48315" lon="3.10188">
        <ele>208.60000610352</ele>
        <time>2023-07-12T04:01:13.000Z</time>
      </trkpt>
      <trkpt lat="42.48317" lon="3.10204">
        <ele>208.60000610352</ele>
        <time>2023-07-12T04:01:23.000Z</time>
      </trkpt>
      <trkpt lat="42.48317" lon="3.10217">
        <ele>209.19999694824</ele>
        <time>2023-07-12T04:01:30.000Z</time>
      </trkpt>
      <trkpt lat="42.48318" lon="3.10226">
        <ele>210.39999389648</ele>
        <time>2023-07-12T04:01:35.000Z</time>
      </trkpt>
      <trkpt lat="42.48321" lon="3.10232">
        <ele>210.80000305176</ele>
        <time>2023-07-12T04:01:42.000Z</time>
      </trkpt>
      <trkpt lat="42.48324" lon="3.10232">
        <ele>211.60000610352</ele>
        <time>2023-07-12T04:01:48.000Z</time>
      </trkpt>
      <trkpt lat="42.48324" lon="3.10232">
        <ele>212</ele>
        <time>2023-07-12T04:01:49.000Z</time>
      </trkpt>
      <trkpt lat="42.48324" lon="3.1023">
        <ele>213.19999694824</ele>
        <time>2023-07-12T04:01:53.000Z</time>
      </trkpt>
      <trkpt lat="42.48326" lon="3.10227">
        <ele>214.19999694824</ele>
        <time>2023-07-12T04:01:56.000Z</time>
      </trkpt>
      <trkpt lat="42.48326" lon="3.1022">
        <ele>215.39999389648</ele>
        <time>2023-07-12T04:02:03.000Z</time>
      </trkpt>
      <trkpt lat="42.48326" lon="3.10213">
        <ele>216.39999389648</ele>
        <time>2023-07-12T04:02:12.000Z</time>
      </trkpt>
      <trkpt lat="42.48327" lon="3.1021">
        <ele>216.60000610352</ele>
        <time>2023-07-12T04:02:15.000Z</time>
      </trkpt>
      <trkpt lat="42.48329" lon="3.10207">
        <ele>216.80000305176</ele>
        <time>2023-07-12T04:02:22.000Z</time>
      </trkpt>
      <trkpt lat="42.4833" lon="3.10201">
        <ele>217.80000305176</ele>
        <time>2023-07-12T04:02:27.000Z</time>
      </trkpt>
      <trkpt lat="42.4833" lon="3.10198">
        <ele>218.39999389648</ele>
        <time>2023-07-12T04:02:29.000Z</time>
      </trkpt>
      <trkpt lat="42.4833" lon="3.10194">
        <ele>219</ele>
        <time>2023-07-12T04:02:31.000Z</time>
      </trkpt>
      <trkpt lat="42.4833" lon="3.10189">
        <ele>219.19999694824</ele>
        <time>2023-07-12T04:02:36.000Z</time>
      </trkpt>
      <trkpt lat="42.48332" lon="3.10184">
        <ele>218.80000305176</ele>
        <time>2023-07-12T04:02:42.000Z</time>
      </trkpt>
      <trkpt lat="42.48335" lon="3.10179">
        <ele>219.80000305176</ele>
        <time>2023-07-12T04:02:50.000Z</time>
      </trkpt>
      <trkpt lat="42.48335" lon="3.10178">
        <ele>220.19999694824</ele>
        <time>2023-07-12T04:02:51.000Z</time>
      </trkpt>
      <trkpt lat="42.48336" lon="3.10175">
        <ele>221.39999389648</ele>
        <time>2023-07-12T04:02:56.000Z</time>
      </trkpt>
      <trkpt lat="42.48337" lon="3.10174">
        <ele>221.60000610352</ele>
        <time>2023-07-12T04:02:57.000Z</time>
      </trkpt>
      <trkpt lat="42.48337" lon="3.10171">
        <ele>222.39999389648</ele>
        <time>2023-07-12T04:03:00.000Z</time>
      </trkpt>
      <trkpt lat="42.48338" lon="3.10164">
        <ele>222.80000305176</ele>
        <time>2023-07-12T04:03:05.000Z</time>
      </trkpt>
      <trkpt lat="42.48339" lon="3.10159">
        <ele>223.60000610352</ele>
        <time>2023-07-12T04:03:08.000Z</time>
      </trkpt>
      <trkpt lat="42.4834" lon="3.10155">
        <ele>224.60000610352</ele>
        <time>2023-07-12T04:03:11.000Z</time>
      </trkpt>
      <trkpt lat="42.4834" lon="3.10154">
        <ele>224.80000305176</ele>
        <time>2023-07-12T04:03:12.000Z</time>
      </trkpt>
      <trkpt lat="42.48341" lon="3.10149">
        <ele>225.39999389648</ele>
        <time>2023-07-12T04:03:17.000Z</time>
      </trkpt>
      <trkpt lat="42.48342" lon="3.10147">
        <ele>225.80000305176</ele>
        <time>2023-07-12T04:03:18.000Z</time>
      </trkpt>
      <trkpt lat="42.48348" lon="3.10141">
        <ele>226.80000305176</ele>
        <time>2023-07-12T04:03:24.000Z</time>
      </trkpt>
      <trkpt lat="42.48349" lon="3.1014">
        <ele>226.80000305176</ele>
        <time>2023-07-12T04:03:26.000Z</time>
      </trkpt>
      <trkpt lat="42.48353" lon="3.10136">
        <ele>227.60000610352</ele>
        <time>2023-07-12T04:03:31.000Z</time>
      </trkpt>
      <trkpt lat="42.48354" lon="3.10133">
        <ele>228</ele>
        <time>2023-07-12T04:03:33.000Z</time>
      </trkpt>
      <trkpt lat="42.48358" lon="3.10129">
        <ele>228.60000610352</ele>
        <time>2023-07-12T04:03:39.000Z</time>
      </trkpt>
      <trkpt lat="42.4836" lon="3.10127">
        <ele>229.19999694824</ele>
        <time>2023-07-12T04:03:42.000Z</time>
      </trkpt>
      <trkpt lat="42.48361" lon="3.10122">
        <ele>230</ele>
        <time>2023-07-12T04:03:48.000Z</time>
      </trkpt>
      <trkpt lat="42.48362" lon="3.1012">
        <ele>230.19999694824</ele>
        <time>2023-07-12T04:03:49.000Z</time>
      </trkpt>
      <trkpt lat="42.48365" lon="3.1011">
        <ele>231.39999389648</ele>
        <time>2023-07-12T04:03:55.000Z</time>
      </trkpt>
      <trkpt lat="42.48366" lon="3.10108">
        <ele>231.60000610352</ele>
        <time>2023-07-12T04:03:56.000Z</time>
      </trkpt>
      <trkpt lat="42.48367" lon="3.10102">
        <ele>232.39999389648</ele>
        <time>2023-07-12T04:04:02.000Z</time>
      </trkpt>
      <trkpt lat="42.48368" lon="3.10098">
        <ele>232.80000305176</ele>
        <time>2023-07-12T04:04:04.000Z</time>
      </trkpt>
      <trkpt lat="42.48369" lon="3.10091">
        <ele>233.39999389648</ele>
        <time>2023-07-12T04:04:10.000Z</time>
      </trkpt>
      <trkpt lat="42.48369" lon="3.10088">
        <ele>234</ele>
        <time>2023-07-12T04:04:12.000Z</time>
      </trkpt>
      <trkpt lat="42.48372" lon="3.10074">
        <ele>234.39999389648</ele>
        <time>2023-07-12T04:04:20.000Z</time>
      </trkpt>
      <trkpt lat="42.48372" lon="3.10072">
        <ele>234.60000610352</ele>
        <time>2023-07-12T04:04:21.000Z</time>
      </trkpt>
      <trkpt lat="42.4837" lon="3.10061">
        <ele>234.80000305176</ele>
        <time>2023-07-12T04:04:27.000Z</time>
      </trkpt>
      <trkpt lat="42.48367" lon="3.10051">
        <ele>235.19999694824</ele>
        <time>2023-07-12T04:04:35.000Z</time>
      </trkpt>
      <trkpt lat="42.48366" lon="3.10049">
        <ele>235.60000610352</ele>
        <time>2023-07-12T04:04:37.000Z</time>
      </trkpt>
      <trkpt lat="42.48365" lon="3.10037">
        <ele>236.60000610352</ele>
        <time>2023-07-12T04:04:43.000Z</time>
      </trkpt>
      <trkpt lat="42.48363" lon="3.10025">
        <ele>237.39999389648</ele>
        <time>2023-07-12T04:04:52.000Z</time>
      </trkpt>
      <trkpt lat="42.48363" lon="3.10019">
        <ele>237.60000610352</ele>
        <time>2023-07-12T04:04:56.000Z</time>
      </trkpt>
      <trkpt lat="42.48363" lon="3.10014">
        <ele>238.39999389648</ele>
        <time>2023-07-12T04:05:00.000Z</time>
      </trkpt>
      <trkpt lat="42.48363" lon="3.10007">
        <ele>238.80000305176</ele>
        <time>2023-07-12T04:05:04.000Z</time>
      </trkpt>
      <trkpt lat="42.48363" lon="3.09999">
        <ele>239</ele>
        <time>2023-07-12T04:05:09.000Z</time>
      </trkpt>
      <trkpt lat="42.4836" lon="3.09983">
        <ele>239.60000610352</ele>
        <time>2023-07-12T04:05:18.000Z</time>
      </trkpt>
      <trkpt lat="42.48359" lon="3.0998">
        <ele>239.80000305176</ele>
        <time>2023-07-12T04:05:20.000Z</time>
      </trkpt>
      <trkpt lat="42.48356" lon="3.09968">
        <ele>240.19999694824</ele>
        <time>2023-07-12T04:05:28.000Z</time>
      </trkpt>
      <trkpt lat="42.48353" lon="3.09959">
        <ele>240.80000305176</ele>
        <time>2023-07-12T04:05:34.000Z</time>
      </trkpt>
      <trkpt lat="42.4835" lon="3.09954">
        <ele>241.60000610352</ele>
        <time>2023-07-12T04:05:38.000Z</time>
      </trkpt>
      <trkpt lat="42.48347" lon="3.09947">
        <ele>241.80000305176</ele>
        <time>2023-07-12T04:05:43.000Z</time>
      </trkpt>
      <trkpt lat="42.48345" lon="3.09944">
        <ele>242</ele>
        <time>2023-07-12T04:05:47.000Z</time>
      </trkpt>
      <trkpt lat="42.48343" lon="3.09938">
        <ele>242.39999389648</ele>
        <time>2023-07-12T04:05:53.000Z</time>
      </trkpt>
      <trkpt lat="42.48341" lon="3.09932">
        <ele>243</ele>
        <time>2023-07-12T04:05:58.000Z</time>
      </trkpt>
      <trkpt lat="42.48341" lon="3.09929">
        <ele>243.39999389648</ele>
        <time>2023-07-12T04:06:01.000Z</time>
      </trkpt>
      <trkpt lat="42.4834" lon="3.09923">
        <ele>244</ele>
        <time>2023-07-12T04:06:05.000Z</time>
      </trkpt>
      <trkpt lat="42.4834" lon="3.09919">
        <ele>244.60000610352</ele>
        <time>2023-07-12T04:06:08.000Z</time>
      </trkpt>
      <trkpt lat="42.4834" lon="3.09906">
        <ele>245</ele>
        <time>2023-07-12T04:06:15.000Z</time>
      </trkpt>
      <trkpt lat="42.4834" lon="3.09898">
        <ele>246</ele>
        <time>2023-07-12T04:06:19.000Z</time>
      </trkpt>
      <trkpt lat="42.4834" lon="3.09896">
        <ele>246.19999694824</ele>
        <time>2023-07-12T04:06:20.000Z</time>
      </trkpt>
      <trkpt lat="42.48338" lon="3.09883">
        <ele>245.80000305176</ele>
        <time>2023-07-12T04:06:29.000Z</time>
      </trkpt>
      <trkpt lat="42.48336" lon="3.09869">
        <ele>247.19999694824</ele>
        <time>2023-07-12T04:06:38.000Z</time>
      </trkpt>
      <trkpt lat="42.48334" lon="3.09857">
        <ele>248</ele>
        <time>2023-07-12T04:06:47.000Z</time>
      </trkpt>
      <trkpt lat="42.48334" lon="3.09855">
        <ele>248.39999389648</ele>
        <time>2023-07-12T04:06:49.000Z</time>
      </trkpt>
      <trkpt lat="42.48333" lon="3.09847">
        <ele>249.39999389648</ele>
        <time>2023-07-12T04:06:53.000Z</time>
      </trkpt>
      <trkpt lat="42.48332" lon="3.09844">
        <ele>249.80000305176</ele>
        <time>2023-07-12T04:06:55.000Z</time>
      </trkpt>
      <trkpt lat="42.48331" lon="3.09835">
        <ele>250.39999389648</ele>
        <time>2023-07-12T04:07:00.000Z</time>
      </trkpt>
      <trkpt lat="42.48331" lon="3.09828">
        <ele>250.60000610352</ele>
        <time>2023-07-12T04:07:05.000Z</time>
      </trkpt>
      <trkpt lat="42.48329" lon="3.0982">
        <ele>250.80000305176</ele>
        <time>2023-07-12T04:07:12.000Z</time>
      </trkpt>
      <trkpt lat="42.48328" lon="3.09818">
        <ele>252.19999694824</ele>
        <time>2023-07-12T04:07:14.000Z</time>
      </trkpt>
      <trkpt lat="42.48328" lon="3.09803">
        <ele>252.80000305176</ele>
        <time>2023-07-12T04:07:23.000Z</time>
      </trkpt>
      <trkpt lat="42.48328" lon="3.09791">
        <ele>253.39999389648</ele>
        <time>2023-07-12T04:07:31.000Z</time>
      </trkpt>
      <trkpt lat="42.48328" lon="3.09777">
        <ele>254.19999694824</ele>
        <time>2023-07-12T04:07:41.000Z</time>
      </trkpt>
      <trkpt lat="42.48328" lon="3.09774">
        <ele>254.60000610352</ele>
        <time>2023-07-12T04:07:43.000Z</time>
      </trkpt>
      <trkpt lat="42.48326" lon="3.09762">
        <ele>255.39999389648</ele>
        <time>2023-07-12T04:07:51.000Z</time>
      </trkpt>
      <trkpt lat="42.48326" lon="3.09755">
        <ele>255.80000305176</ele>
        <time>2023-07-12T04:07:55.000Z</time>
      </trkpt>
      <trkpt lat="42.48324" lon="3.09745">
        <ele>256.60000610352</ele>
        <time>2023-07-12T04:08:01.000Z</time>
      </trkpt>
      <trkpt lat="42.48323" lon="3.09742">
        <ele>256.79998779297</ele>
        <time>2023-07-12T04:08:03.000Z</time>
      </trkpt>
      <trkpt lat="42.48321" lon="3.09734">
        <ele>257.39999389648</ele>
        <time>2023-07-12T04:08:08.000Z</time>
      </trkpt>
      <trkpt lat="42.48319" lon="3.09729">
        <ele>258.20001220703</ele>
        <time>2023-07-12T04:08:12.000Z</time>
      </trkpt>
      <trkpt lat="42.48318" lon="3.09722">
        <ele>259</ele>
        <time>2023-07-12T04:08:17.000Z</time>
      </trkpt>
      <trkpt lat="42.48318" lon="3.09721">
        <ele>259.20001220703</ele>
        <time>2023-07-12T04:08:18.000Z</time>
      </trkpt>
      <trkpt lat="42.48315" lon="3.09712">
        <ele>260.20001220703</ele>
        <time>2023-07-12T04:08:25.000Z</time>
      </trkpt>
      <trkpt lat="42.48315" lon="3.09711">
        <ele>260.39999389648</ele>
        <time>2023-07-12T04:08:26.000Z</time>
      </trkpt>
      <trkpt lat="42.48317" lon="3.09702">
        <ele>261.20001220703</ele>
        <time>2023-07-12T04:08:34.000Z</time>
      </trkpt>
      <trkpt lat="42.48318" lon="3.09698">
        <ele>261.79998779297</ele>
        <time>2023-07-12T04:08:37.000Z</time>
      </trkpt>
      <trkpt lat="42.48318" lon="3.09692">
        <ele>262.20001220703</ele>
        <time>2023-07-12T04:08:41.000Z</time>
      </trkpt>
      <trkpt lat="42.4832" lon="3.0968">
        <ele>262.39999389648</ele>
        <time>2023-07-12T04:08:49.000Z</time>
      </trkpt>
      <trkpt lat="42.48321" lon="3.0967">
        <ele>262.39999389648</ele>
        <time>2023-07-12T04:08:56.000Z</time>
      </trkpt>
      <trkpt lat="42.48322" lon="3.09659">
        <ele>262.20001220703</ele>
        <time>2023-07-12T04:09:04.000Z</time>
      </trkpt>
      <trkpt lat="42.48325" lon="3.09644">
        <ele>261</ele>
        <time>2023-07-12T04:09:13.000Z</time>
      </trkpt>
      <trkpt lat="42.48326" lon="3.09636">
        <ele>260.79998779297</ele>
        <time>2023-07-12T04:09:18.000Z</time>
      </trkpt>
      <trkpt lat="42.48326" lon="3.09633">
        <ele>260.60000610352</ele>
        <time>2023-07-12T04:09:20.000Z</time>
      </trkpt>
      <trkpt lat="42.48329" lon="3.09623">
        <ele>259.39999389648</ele>
        <time>2023-07-12T04:09:27.000Z</time>
      </trkpt>
      <trkpt lat="42.48331" lon="3.09616">
        <ele>258.20001220703</ele>
        <time>2023-07-12T04:09:32.000Z</time>
      </trkpt>
      <trkpt lat="42.48331" lon="3.09612">
        <ele>257</ele>
        <time>2023-07-12T04:09:35.000Z</time>
      </trkpt>
      <trkpt lat="42.4833" lon="3.09598">
        <ele>256.39999389648</ele>
        <time>2023-07-12T04:09:42.000Z</time>
      </trkpt>
      <trkpt lat="42.48325" lon="3.09586">
        <ele>256</ele>
        <time>2023-07-12T04:09:50.000Z</time>
      </trkpt>
      <trkpt lat="42.48318" lon="3.09571">
        <ele>255.39999389648</ele>
        <time>2023-07-12T04:10:00.000Z</time>
      </trkpt>
      <trkpt lat="42.48317" lon="3.09569">
        <ele>255</ele>
        <time>2023-07-12T04:10:02.000Z</time>
      </trkpt>
      <trkpt lat="42.48313" lon="3.0956">
        <ele>254.39999389648</ele>
        <time>2023-07-12T04:10:08.000Z</time>
      </trkpt>
      <trkpt lat="42.48308" lon="3.0955">
        <ele>254</ele>
        <time>2023-07-12T04:10:16.000Z</time>
      </trkpt>
      <trkpt lat="42.48307" lon="3.09549">
        <ele>254</ele>
        <time>2023-07-12T04:10:17.000Z</time>
      </trkpt>
      <trkpt lat="42.48305" lon="3.09542">
        <ele>252.80000305176</ele>
        <time>2023-07-12T04:10:23.000Z</time>
      </trkpt>
      <trkpt lat="42.48304" lon="3.0954">
        <ele>252.19999694824</ele>
        <time>2023-07-12T04:10:25.000Z</time>
      </trkpt>
      <trkpt lat="42.48298" lon="3.0953">
        <ele>253.60000610352</ele>
        <time>2023-07-12T04:10:31.000Z</time>
      </trkpt>
      <trkpt lat="42.48296" lon="3.09528">
        <ele>253.80000305176</ele>
        <time>2023-07-12T04:10:33.000Z</time>
      </trkpt>
      <trkpt lat="42.48294" lon="3.09522">
        <ele>255.80000305176</ele>
        <time>2023-07-12T04:10:37.000Z</time>
      </trkpt>
      <trkpt lat="42.48291" lon="3.09518">
        <ele>256.39999389648</ele>
        <time>2023-07-12T04:10:40.000Z</time>
      </trkpt>
      <trkpt lat="42.4829" lon="3.09516">
        <ele>257.79998779297</ele>
        <time>2023-07-12T04:10:42.000Z</time>
      </trkpt>
      <trkpt lat="42.48289" lon="3.09514">
        <ele>260.20001220703</ele>
        <time>2023-07-12T04:10:43.000Z</time>
      </trkpt>
      <trkpt lat="42.48287" lon="3.09508">
        <ele>261</ele>
        <time>2023-07-12T04:10:47.000Z</time>
      </trkpt>
      <trkpt lat="42.48285" lon="3.09504">
        <ele>259</ele>
        <time>2023-07-12T04:10:49.000Z</time>
      </trkpt>
      <trkpt lat="42.48282" lon="3.09494">
        <ele>257.39999389648</ele>
        <time>2023-07-12T04:10:56.000Z</time>
      </trkpt>
      <trkpt lat="42.48282" lon="3.09492">
        <ele>257.39999389648</ele>
        <time>2023-07-12T04:10:57.000Z</time>
      </trkpt>
      <trkpt lat="42.48278" lon="3.0948">
        <ele>257.79998779297</ele>
        <time>2023-07-12T04:11:04.000Z</time>
      </trkpt>
      <trkpt lat="42.48273" lon="3.09471">
        <ele>258.79998779297</ele>
        <time>2023-07-12T04:11:11.000Z</time>
      </trkpt>
      <trkpt lat="42.48272" lon="3.09469">
        <ele>259.20001220703</ele>
        <time>2023-07-12T04:11:13.000Z</time>
      </trkpt>
      <trkpt lat="42.48267" lon="3.09461">
        <ele>260.20001220703</ele>
        <time>2023-07-12T04:11:20.000Z</time>
      </trkpt>
      <trkpt lat="42.48266" lon="3.09458">
        <ele>260.60000610352</ele>
        <time>2023-07-12T04:11:22.000Z</time>
      </trkpt>
      <trkpt lat="42.48265" lon="3.09456">
        <ele>261.20001220703</ele>
        <time>2023-07-12T04:11:27.000Z</time>
      </trkpt>
      <trkpt lat="42.48265" lon="3.09455">
        <ele>261.20001220703</ele>
        <time>2023-07-12T04:11:28.000Z</time>
      </trkpt>
      <trkpt lat="42.48265" lon="3.09453">
        <ele>262.20001220703</ele>
        <time>2023-07-12T04:11:31.000Z</time>
      </trkpt>
      <trkpt lat="42.48266" lon="3.09451">
        <ele>262.20001220703</ele>
        <time>2023-07-12T04:11:34.000Z</time>
      </trkpt>
      <trkpt lat="42.48266" lon="3.0945">
        <ele>261.20001220703</ele>
        <time>2023-07-12T04:11:38.000Z</time>
      </trkpt>
      <trkpt lat="42.48265" lon="3.09448">
        <ele>259.20001220703</ele>
        <time>2023-07-12T04:11:41.000Z</time>
      </trkpt>
      <trkpt lat="42.48264" lon="3.09447">
        <ele>257.79998779297</ele>
        <time>2023-07-12T04:11:43.000Z</time>
      </trkpt>
      <trkpt lat="42.48264" lon="3.09448">
        <ele>256.60000610352</ele>
        <time>2023-07-12T04:11:45.000Z</time>
      </trkpt>
      <trkpt lat="42.48264" lon="3.09447">
        <ele>256</ele>
        <time>2023-07-12T04:11:48.000Z</time>
      </trkpt>
      <trkpt lat="42.48265" lon="3.09452">
        <ele>255.80000305176</ele>
        <time>2023-07-12T04:11:58.000Z</time>
      </trkpt>
      <trkpt lat="42.48265" lon="3.09454">
        <ele>255.39999389648</ele>
        <time>2023-07-12T04:12:04.000Z</time>
      </trkpt>
      <trkpt lat="42.48265" lon="3.09452">
        <ele>255.39999389648</ele>
        <time>2023-07-12T04:12:06.000Z</time>
      </trkpt>
      <trkpt lat="42.48263" lon="3.09447">
        <ele>255.19999694824</ele>
        <time>2023-07-12T04:12:13.000Z</time>
      </trkpt>
      <trkpt lat="42.48263" lon="3.09444">
        <ele>255.80000305176</ele>
        <time>2023-07-12T04:12:21.000Z</time>
      </trkpt>
      <trkpt lat="42.48263" lon="3.0944">
        <ele>257</ele>
        <time>2023-07-12T04:12:25.000Z</time>
      </trkpt>
      <trkpt lat="42.48262" lon="3.09435">
        <ele>257.39999389648</ele>
        <time>2023-07-12T04:12:29.000Z</time>
      </trkpt>
      <trkpt lat="42.48261" lon="3.09433">
        <ele>255.19999694824</ele>
        <time>2023-07-12T04:12:31.000Z</time>
      </trkpt>
      <trkpt lat="42.4826" lon="3.09432">
        <ele>253.60000610352</ele>
        <time>2023-07-12T04:12:32.000Z</time>
      </trkpt>
      <trkpt lat="42.4826" lon="3.09431">
        <ele>252.60000610352</ele>
        <time>2023-07-12T04:12:33.000Z</time>
      </trkpt>
      <trkpt lat="42.48258" lon="3.09427">
        <ele>252.39999389648</ele>
        <time>2023-07-12T04:12:36.000Z</time>
      </trkpt>
      <trkpt lat="42.48253" lon="3.09418">
        <ele>251.39999389648</ele>
        <time>2023-07-12T04:12:42.000Z</time>
      </trkpt>
      <trkpt lat="42.48252" lon="3.09417">
        <ele>251.19999694824</ele>
        <time>2023-07-12T04:12:43.000Z</time>
      </trkpt>
      <trkpt lat="42.48253" lon="3.09416">
        <ele>250.60000610352</ele>
        <time>2023-07-12T04:12:46.000Z</time>
      </trkpt>
      <trkpt lat="42.48254" lon="3.09417">
        <ele>250.39999389648</ele>
        <time>2023-07-12T04:12:47.000Z</time>
      </trkpt>
      <trkpt lat="42.48255" lon="3.09417">
        <ele>250.39999389648</ele>
        <time>2023-07-12T04:12:48.000Z</time>
      </trkpt>
      <trkpt lat="42.48257" lon="3.09415">
        <ele>250.60000610352</ele>
        <time>2023-07-12T04:12:50.000Z</time>
      </trkpt>
      <trkpt lat="42.48258" lon="3.09413">
        <ele>252.19999694824</ele>
        <time>2023-07-12T04:12:52.000Z</time>
      </trkpt>
      <trkpt lat="42.48258" lon="3.09411">
        <ele>252.39999389648</ele>
        <time>2023-07-12T04:12:53.000Z</time>
      </trkpt>
      <trkpt lat="42.48258" lon="3.0941">
        <ele>252</ele>
        <time>2023-07-12T04:13:01.000Z</time>
      </trkpt>
      <trkpt lat="42.48255" lon="3.09398">
        <ele>251.60000610352</ele>
        <time>2023-07-12T04:13:10.000Z</time>
      </trkpt>
      <trkpt lat="42.48255" lon="3.09393">
        <ele>254.39999389648</ele>
        <time>2023-07-12T04:13:13.000Z</time>
      </trkpt>
      <trkpt lat="42.48255" lon="3.09389">
        <ele>254.60000610352</ele>
        <time>2023-07-12T04:13:16.000Z</time>
      </trkpt>
      <trkpt lat="42.48256" lon="3.09387">
        <ele>253.19999694824</ele>
        <time>2023-07-12T04:13:22.000Z</time>
      </trkpt>
      <trkpt lat="42.48254" lon="3.09386">
        <ele>252.80000305176</ele>
        <time>2023-07-12T04:13:33.000Z</time>
      </trkpt>
      <trkpt lat="42.48253" lon="3.09386">
        <ele>252</ele>
        <time>2023-07-12T04:13:40.000Z</time>
      </trkpt>
      <trkpt lat="42.48252" lon="3.09385">
        <ele>251.80000305176</ele>
        <time>2023-07-12T04:13:42.000Z</time>
      </trkpt>
      <trkpt lat="42.48255" lon="3.09377">
        <ele>253.39999389648</ele>
        <time>2023-07-12T04:13:48.000Z</time>
      </trkpt>
      <trkpt lat="42.48259" lon="3.09366">
        <ele>254</ele>
        <time>2023-07-12T04:13:55.000Z</time>
      </trkpt>
      <trkpt lat="42.48259" lon="3.09364">
        <ele>254.80000305176</ele>
        <time>2023-07-12T04:13:56.000Z</time>
      </trkpt>
      <trkpt lat="42.48264" lon="3.09355">
        <ele>255.19999694824</ele>
        <time>2023-07-12T04:14:03.000Z</time>
      </trkpt>
      <trkpt lat="42.48269" lon="3.09338">
        <ele>255.60000610352</ele>
        <time>2023-07-12T04:14:13.000Z</time>
      </trkpt>
      <trkpt lat="42.48272" lon="3.09325">
        <ele>256</ele>
        <time>2023-07-12T04:14:21.000Z</time>
      </trkpt>
      <trkpt lat="42.48276" lon="3.09313">
        <ele>256.79998779297</ele>
        <time>2023-07-12T04:14:28.000Z</time>
      </trkpt>
      <trkpt lat="42.48277" lon="3.09305">
        <ele>256.79998779297</ele>
        <time>2023-07-12T04:14:35.000Z</time>
      </trkpt>
      <trkpt lat="42.48278" lon="3.09291">
        <ele>256.20001220703</ele>
        <time>2023-07-12T04:14:41.000Z</time>
      </trkpt>
      <trkpt lat="42.48279" lon="3.09282">
        <ele>256.39999389648</ele>
        <time>2023-07-12T04:14:47.000Z</time>
      </trkpt>
      <trkpt lat="42.4828" lon="3.0927">
        <ele>257.20001220703</ele>
        <time>2023-07-12T04:14:55.000Z</time>
      </trkpt>
      <trkpt lat="42.48282" lon="3.09264">
        <ele>258.39999389648</ele>
        <time>2023-07-12T04:15:00.000Z</time>
      </trkpt>
      <trkpt lat="42.48282" lon="3.09262">
        <ele>258.60000610352</ele>
        <time>2023-07-12T04:15:01.000Z</time>
      </trkpt>
      <trkpt lat="42.48285" lon="3.0925">
        <ele>259.39999389648</ele>
        <time>2023-07-12T04:15:07.000Z</time>
      </trkpt>
      <trkpt lat="42.48286" lon="3.09249">
        <ele>259.60000610352</ele>
        <time>2023-07-12T04:15:08.000Z</time>
      </trkpt>
      <trkpt lat="42.48288" lon="3.09241">
        <ele>259.60000610352</ele>
        <time>2023-07-12T04:15:13.000Z</time>
      </trkpt>
      <trkpt lat="42.4829" lon="3.09232">
        <ele>260.60000610352</ele>
        <time>2023-07-12T04:15:18.000Z</time>
      </trkpt>
      <trkpt lat="42.48289" lon="3.09229">
        <ele>260.79998779297</ele>
        <time>2023-07-12T04:15:21.000Z</time>
      </trkpt>
      <trkpt lat="42.48289" lon="3.09222">
        <ele>261.60000610352</ele>
        <time>2023-07-12T04:15:25.000Z</time>
      </trkpt>
      <trkpt lat="42.48291" lon="3.09217">
        <ele>262</ele>
        <time>2023-07-12T04:15:28.000Z</time>
      </trkpt>
      <trkpt lat="42.48293" lon="3.09206">
        <ele>262.60000610352</ele>
        <time>2023-07-12T04:15:35.000Z</time>
      </trkpt>
      <trkpt lat="42.48303" lon="3.09194">
        <ele>263.60000610352</ele>
        <time>2023-07-12T04:15:43.000Z</time>
      </trkpt>
      <trkpt lat="42.48304" lon="3.09194">
        <ele>264</ele>
        <time>2023-07-12T04:15:44.000Z</time>
      </trkpt>
      <trkpt lat="42.48305" lon="3.09191">
        <ele>265</ele>
        <time>2023-07-12T04:15:49.000Z</time>
      </trkpt>
      <trkpt lat="42.48309" lon="3.0919">
        <ele>265.20001220703</ele>
        <time>2023-07-12T04:15:51.000Z</time>
      </trkpt>
      <trkpt lat="42.48318" lon="3.09189">
        <ele>266.20001220703</ele>
        <time>2023-07-12T04:15:55.000Z</time>
      </trkpt>
      <trkpt lat="42.48321" lon="3.09188">
        <ele>266.39999389648</ele>
        <time>2023-07-12T04:15:57.000Z</time>
      </trkpt>
      <trkpt lat="42.48328" lon="3.09185">
        <ele>267.39999389648</ele>
        <time>2023-07-12T04:16:02.000Z</time>
      </trkpt>
      <trkpt lat="42.48332" lon="3.09185">
        <ele>268.60000610352</ele>
        <time>2023-07-12T04:16:05.000Z</time>
      </trkpt>
      <trkpt lat="42.48343" lon="3.09185">
        <ele>269.79998779297</ele>
        <time>2023-07-12T04:16:13.000Z</time>
      </trkpt>
      <trkpt lat="42.48345" lon="3.09185">
        <ele>269.79998779297</ele>
        <time>2023-07-12T04:16:14.000Z</time>
      </trkpt>
      <trkpt lat="42.48352" lon="3.09183">
        <ele>270.60000610352</ele>
        <time>2023-07-12T04:16:20.000Z</time>
      </trkpt>
      <trkpt lat="42.48353" lon="3.09182">
        <ele>270.79998779297</ele>
        <time>2023-07-12T04:16:21.000Z</time>
      </trkpt>
      <trkpt lat="42.48358" lon="3.09179">
        <ele>271</ele>
        <time>2023-07-12T04:16:26.000Z</time>
      </trkpt>
      <trkpt lat="42.48359" lon="3.09178">
        <ele>271.60000610352</ele>
        <time>2023-07-12T04:16:31.000Z</time>
      </trkpt>
      <trkpt lat="42.48358" lon="3.09178">
        <ele>271.60000610352</ele>
        <time>2023-07-12T04:16:32.000Z</time>
      </trkpt>
      <trkpt lat="42.48358" lon="3.09182">
        <ele>271.39999389648</ele>
        <time>2023-07-12T04:16:36.000Z</time>
      </trkpt>
      <trkpt lat="42.48361" lon="3.09184">
        <ele>271.39999389648</ele>
        <time>2023-07-12T04:16:39.000Z</time>
      </trkpt>
      <trkpt lat="42.48375" lon="3.09186">
        <ele>271.39999389648</ele>
        <time>2023-07-12T04:16:47.000Z</time>
      </trkpt>
      <trkpt lat="42.48379" lon="3.09184">
        <ele>272</ele>
        <time>2023-07-12T04:16:52.000Z</time>
      </trkpt>
      <trkpt lat="42.48381" lon="3.09181">
        <ele>273.20001220703</ele>
        <time>2023-07-12T04:16:55.000Z</time>
      </trkpt>
      <trkpt lat="42.48384" lon="3.09177">
        <ele>274.39999389648</ele>
        <time>2023-07-12T04:16:59.000Z</time>
      </trkpt>
      <trkpt lat="42.48387" lon="3.09173">
        <ele>275.20001220703</ele>
        <time>2023-07-12T04:17:02.000Z</time>
      </trkpt>
      <trkpt lat="42.48388" lon="3.09171">
        <ele>275.60000610352</ele>
        <time>2023-07-12T04:17:03.000Z</time>
      </trkpt>
      <trkpt lat="42.48391" lon="3.0916">
        <ele>275.20001220703</ele>
        <time>2023-07-12T04:17:10.000Z</time>
      </trkpt>
      <trkpt lat="42.48394" lon="3.09146">
        <ele>275.60000610352</ele>
        <time>2023-07-12T04:17:18.000Z</time>
      </trkpt>
      <trkpt lat="42.48396" lon="3.09134">
        <ele>276.60000610352</ele>
        <time>2023-07-12T04:17:25.000Z</time>
      </trkpt>
      <trkpt lat="42.48396" lon="3.09132">
        <ele>276.79998779297</ele>
        <time>2023-07-12T04:17:26.000Z</time>
      </trkpt>
      <trkpt lat="42.48399" lon="3.09121">
        <ele>276.20001220703</ele>
        <time>2023-07-12T04:17:33.000Z</time>
      </trkpt>
      <trkpt lat="42.48399" lon="3.09119">
        <ele>274.79998779297</ele>
        <time>2023-07-12T04:17:34.000Z</time>
      </trkpt>
      <trkpt lat="42.48401" lon="3.09107">
        <ele>275.60000610352</ele>
        <time>2023-07-12T04:17:41.000Z</time>
      </trkpt>
      <trkpt lat="42.48402" lon="3.09103">
        <ele>276</ele>
        <time>2023-07-12T04:17:43.000Z</time>
      </trkpt>
      <trkpt lat="42.48401" lon="3.09096">
        <ele>276</ele>
        <time>2023-07-12T04:17:47.000Z</time>
      </trkpt>
      <trkpt lat="42.48402" lon="3.09087">
        <ele>276.79998779297</ele>
        <time>2023-07-12T04:17:53.000Z</time>
      </trkpt>
      <trkpt lat="42.48403" lon="3.09081">
        <ele>277.20001220703</ele>
        <time>2023-07-12T04:17:57.000Z</time>
      </trkpt>
      <trkpt lat="42.48405" lon="3.0907">
        <ele>277.39999389648</ele>
        <time>2023-07-12T04:18:01.000Z</time>
      </trkpt>
      <trkpt lat="42.48404" lon="3.09063">
        <ele>278</ele>
        <time>2023-07-12T04:18:07.000Z</time>
      </trkpt>
      <trkpt lat="42.48404" lon="3.09061">
        <ele>278.39999389648</ele>
        <time>2023-07-12T04:18:08.000Z</time>
      </trkpt>
      <trkpt lat="42.48404" lon="3.09053">
        <ele>278.79998779297</ele>
        <time>2023-07-12T04:18:15.000Z</time>
      </trkpt>
      <trkpt lat="42.48405" lon="3.09039">
        <ele>279.20001220703</ele>
        <time>2023-07-12T04:18:22.000Z</time>
      </trkpt>
      <trkpt lat="42.48406" lon="3.09037">
        <ele>279.39999389648</ele>
        <time>2023-07-12T04:18:23.000Z</time>
      </trkpt>
      <trkpt lat="42.48404" lon="3.09035">
        <ele>279.79998779297</ele>
        <time>2023-07-12T04:18:28.000Z</time>
      </trkpt>
      <trkpt lat="42.48404" lon="3.09031">
        <ele>279.79998779297</ele>
        <time>2023-07-12T04:18:35.000Z</time>
      </trkpt>
      <trkpt lat="42.48402" lon="3.09031">
        <ele>280</ele>
        <time>2023-07-12T04:18:44.000Z</time>
      </trkpt>
      <trkpt lat="42.48403" lon="3.09027">
        <ele>280.20001220703</ele>
        <time>2023-07-12T04:18:50.000Z</time>
      </trkpt>
      <trkpt lat="42.48402" lon="3.09029">
        <ele>279.39999389648</ele>
        <time>2023-07-12T04:18:57.000Z</time>
      </trkpt>
      <trkpt lat="42.48403" lon="3.09031">
        <ele>280.79998779297</ele>
        <time>2023-07-12T04:19:01.000Z</time>
      </trkpt>
      <trkpt lat="42.48403" lon="3.09031">
        <ele>281.20001220703</ele>
        <time>2023-07-12T04:19:03.000Z</time>
      </trkpt>
      <trkpt lat="42.48401" lon="3.0903">
        <ele>280</ele>
        <time>2023-07-12T04:19:13.000Z</time>
      </trkpt>
      <trkpt lat="42.48402" lon="3.09029">
        <ele>279.79998779297</ele>
        <time>2023-07-12T04:19:17.000Z</time>
      </trkpt>
      <trkpt lat="42.48404" lon="3.09027">
        <ele>280</ele>
        <time>2023-07-12T04:19:19.000Z</time>
      </trkpt>
      <trkpt lat="42.48408" lon="3.09017">
        <ele>279</ele>
        <time>2023-07-12T04:19:25.000Z</time>
      </trkpt>
      <trkpt lat="42.48409" lon="3.09015">
        <ele>278.20001220703</ele>
        <time>2023-07-12T04:19:26.000Z</time>
      </trkpt>
      <trkpt lat="42.48409" lon="3.09007">
        <ele>278.20001220703</ele>
        <time>2023-07-12T04:19:31.000Z</time>
      </trkpt>
      <trkpt lat="42.4841" lon="3.08996">
        <ele>278.79998779297</ele>
        <time>2023-07-12T04:19:37.000Z</time>
      </trkpt>
      <trkpt lat="42.4841" lon="3.08986">
        <ele>277.20001220703</ele>
        <time>2023-07-12T04:19:44.000Z</time>
      </trkpt>
      <trkpt lat="42.4841" lon="3.08975">
        <ele>277.79998779297</ele>
        <time>2023-07-12T04:19:51.000Z</time>
      </trkpt>
      <trkpt lat="42.48411" lon="3.08957">
        <ele>276.60000610352</ele>
        <time>2023-07-12T04:20:02.000Z</time>
      </trkpt>
      <trkpt lat="42.48409" lon="3.08942">
        <ele>276</ele>
        <time>2023-07-12T04:20:10.000Z</time>
      </trkpt>
      <trkpt lat="42.48407" lon="3.08938">
        <ele>274.79998779297</ele>
        <time>2023-07-12T04:20:15.000Z</time>
      </trkpt>
      <trkpt lat="42.48402" lon="3.08931">
        <ele>274.79998779297</ele>
        <time>2023-07-12T04:20:19.000Z</time>
      </trkpt>
      <trkpt lat="42.48399" lon="3.08916">
        <ele>274.39999389648</ele>
        <time>2023-07-12T04:20:26.000Z</time>
      </trkpt>
      <trkpt lat="42.48396" lon="3.08904">
        <ele>274.60000610352</ele>
        <time>2023-07-12T04:20:33.000Z</time>
      </trkpt>
      <trkpt lat="42.48392" lon="3.08892">
        <ele>275.39999389648</ele>
        <time>2023-07-12T04:20:40.000Z</time>
      </trkpt>
      <trkpt lat="42.48391" lon="3.08879">
        <ele>275.79998779297</ele>
        <time>2023-07-12T04:20:48.000Z</time>
      </trkpt>
      <trkpt lat="42.48393" lon="3.08868">
        <ele>276.79998779297</ele>
        <time>2023-07-12T04:20:55.000Z</time>
      </trkpt>
      <trkpt lat="42.48396" lon="3.08858">
        <ele>276.79998779297</ele>
        <time>2023-07-12T04:21:02.000Z</time>
      </trkpt>
      <trkpt lat="42.48396" lon="3.08856">
        <ele>277</ele>
        <time>2023-07-12T04:21:03.000Z</time>
      </trkpt>
      <trkpt lat="42.484" lon="3.08848">
        <ele>276.79998779297</ele>
        <time>2023-07-12T04:21:12.000Z</time>
      </trkpt>
      <trkpt lat="42.484" lon="3.08845">
        <ele>277</ele>
        <time>2023-07-12T04:21:18.000Z</time>
      </trkpt>
      <trkpt lat="42.484" lon="3.08842">
        <ele>277.39999389648</ele>
        <time>2023-07-12T04:21:24.000Z</time>
      </trkpt>
      <trkpt lat="42.484" lon="3.08843">
        <ele>277</ele>
        <time>2023-07-12T04:21:31.000Z</time>
      </trkpt>
      <trkpt lat="42.48395" lon="3.08836">
        <ele>276.39999389648</ele>
        <time>2023-07-12T04:21:38.000Z</time>
      </trkpt>
      <trkpt lat="42.48398" lon="3.08833">
        <ele>277</ele>
        <time>2023-07-12T04:21:45.000Z</time>
      </trkpt>
      <trkpt lat="42.48397" lon="3.08832">
        <ele>276.79998779297</ele>
        <time>2023-07-12T04:21:51.000Z</time>
      </trkpt>
      <trkpt lat="42.484" lon="3.08833">
        <ele>277.20001220703</ele>
        <time>2023-07-12T04:21:59.000Z</time>
      </trkpt>
      <trkpt lat="42.48398" lon="3.0884">
        <ele>277.60000610352</ele>
        <time>2023-07-12T04:22:06.000Z</time>
      </trkpt>
      <trkpt lat="42.48399" lon="3.0884">
        <ele>278</ele>
        <time>2023-07-12T04:22:14.000Z</time>
      </trkpt>
      <trkpt lat="42.48399" lon="3.0884">
        <ele>278.20001220703</ele>
        <time>2023-07-12T04:22:15.000Z</time>
      </trkpt>
      <trkpt lat="42.48397" lon="3.0884">
        <ele>278.79998779297</ele>
        <time>2023-07-12T04:22:24.000Z</time>
      </trkpt>
      <trkpt lat="42.48396" lon="3.08843">
        <ele>278.79998779297</ele>
        <time>2023-07-12T04:22:36.000Z</time>
      </trkpt>
      <trkpt lat="42.48396" lon="3.08843">
        <ele>279.20001220703</ele>
        <time>2023-07-12T04:22:38.000Z</time>
      </trkpt>
      <trkpt lat="42.48395" lon="3.08842">
        <ele>279.60000610352</ele>
        <time>2023-07-12T04:22:45.000Z</time>
      </trkpt>
      <trkpt lat="42.48394" lon="3.08837">
        <ele>279.60000610352</ele>
        <time>2023-07-12T04:22:55.000Z</time>
      </trkpt>
      <trkpt lat="42.48394" lon="3.08836">
        <ele>279.79998779297</ele>
        <time>2023-07-12T04:23:01.000Z</time>
      </trkpt>
      <trkpt lat="42.48396" lon="3.08834">
        <ele>279.79998779297</ele>
        <time>2023-07-12T04:23:07.000Z</time>
      </trkpt>
      <trkpt lat="42.48394" lon="3.08835">
        <ele>279.60000610352</ele>
        <time>2023-07-12T04:23:14.000Z</time>
      </trkpt>
      <trkpt lat="42.48393" lon="3.08839">
        <ele>280</ele>
        <time>2023-07-12T04:23:20.000Z</time>
      </trkpt>
      <trkpt lat="42.48398" lon="3.08838">
        <ele>279.79998779297</ele>
        <time>2023-07-12T04:23:31.000Z</time>
      </trkpt>
      <trkpt lat="42.48397" lon="3.0884">
        <ele>279.79998779297</ele>
        <time>2023-07-12T04:23:41.000Z</time>
      </trkpt>
      <trkpt lat="42.48395" lon="3.08841">
        <ele>280.60000610352</ele>
        <time>2023-07-12T04:23:49.000Z</time>
      </trkpt>
      <trkpt lat="42.48402" lon="3.08838">
        <ele>280.60000610352</ele>
        <time>2023-07-12T04:24:31.000Z</time>
      </trkpt>
      <trkpt lat="42.48403" lon="3.08836">
        <ele>280.79998779297</ele>
        <time>2023-07-12T04:24:38.000Z</time>
      </trkpt>
      <trkpt lat="42.48402" lon="3.08835">
        <ele>281.20001220703</ele>
        <time>2023-07-12T04:24:46.000Z</time>
      </trkpt>
      <trkpt lat="42.48402" lon="3.08835">
        <ele>281.39999389648</ele>
        <time>2023-07-12T04:24:50.000Z</time>
      </trkpt>
      <trkpt lat="42.48404" lon="3.08832">
        <ele>281.20001220703</ele>
        <time>2023-07-12T04:24:59.000Z</time>
      </trkpt>
      <trkpt lat="42.48399" lon="3.08834">
        <ele>281.60000610352</ele>
        <time>2023-07-12T04:25:06.000Z</time>
      </trkpt>
      <trkpt lat="42.48399" lon="3.08834">
        <ele>281.60000610352</ele>
        <time>2023-07-12T04:25:12.000Z</time>
      </trkpt>
      <trkpt lat="42.48397" lon="3.08835">
        <ele>281.60000610352</ele>
        <time>2023-07-12T04:25:22.000Z</time>
      </trkpt>
      <trkpt lat="42.48397" lon="3.08834">
        <ele>281.20001220703</ele>
        <time>2023-07-12T04:25:30.000Z</time>
      </trkpt>
      <trkpt lat="42.48397" lon="3.08833">
        <ele>281.79998779297</ele>
        <time>2023-07-12T04:25:39.000Z</time>
      </trkpt>
      <trkpt lat="42.48398" lon="3.08833">
        <ele>282.39999389648</ele>
        <time>2023-07-12T04:25:43.000Z</time>
      </trkpt>
      <trkpt lat="42.48398" lon="3.08832">
        <ele>282.79998779297</ele>
        <time>2023-07-12T04:25:48.000Z</time>
      </trkpt>
      <trkpt lat="42.48403" lon="3.08812">
        <ele>282.20001220703</ele>
        <time>2023-07-12T04:26:21.000Z</time>
      </trkpt>
      <trkpt lat="42.48401" lon="3.08815">
        <ele>282.20001220703</ele>
        <time>2023-07-12T04:26:29.000Z</time>
      </trkpt>
      <trkpt lat="42.484" lon="3.08824">
        <ele>282.39999389648</ele>
        <time>2023-07-12T04:26:38.000Z</time>
      </trkpt>
      <trkpt lat="42.48395" lon="3.08833">
        <ele>283</ele>
        <time>2023-07-12T04:26:53.000Z</time>
      </trkpt>
      <trkpt lat="42.4839" lon="3.08835">
        <ele>283.79998779297</ele>
        <time>2023-07-12T04:27:55.000Z</time>
      </trkpt>
      <trkpt lat="42.48391" lon="3.08837">
        <ele>283.79998779297</ele>
        <time>2023-07-12T04:28:04.000Z</time>
      </trkpt>
      <trkpt lat="42.48396" lon="3.08836">
        <ele>283.79998779297</ele>
        <time>2023-07-12T04:28:11.000Z</time>
      </trkpt>
      <trkpt lat="42.484" lon="3.08831">
        <ele>283.60000610352</ele>
        <time>2023-07-12T04:28:18.000Z</time>
      </trkpt>
      <trkpt lat="42.48399" lon="3.08825">
        <ele>283.39999389648</ele>
        <time>2023-07-12T04:28:26.000Z</time>
      </trkpt>
      <trkpt lat="42.48398" lon="3.08823">
        <ele>283.79998779297</ele>
        <time>2023-07-12T04:28:33.000Z</time>
      </trkpt>
      <trkpt lat="42.48398" lon="3.08822">
        <ele>284.39999389648</ele>
        <time>2023-07-12T04:28:36.000Z</time>
      </trkpt>
      <trkpt lat="42.48399" lon="3.08823">
        <ele>285.39999389648</ele>
        <time>2023-07-12T04:28:40.000Z</time>
      </trkpt>
      <trkpt lat="42.48398" lon="3.08823">
        <ele>286</ele>
        <time>2023-07-12T04:28:48.000Z</time>
      </trkpt>
      <trkpt lat="42.48397" lon="3.08821">
        <ele>286.79998779297</ele>
        <time>2023-07-12T04:28:54.000Z</time>
      </trkpt>
      <trkpt lat="42.48397" lon="3.08819">
        <ele>287.39999389648</ele>
        <time>2023-07-12T04:28:58.000Z</time>
      </trkpt>
      <trkpt lat="42.48396" lon="3.08819">
        <ele>287.79998779297</ele>
        <time>2023-07-12T04:29:00.000Z</time>
      </trkpt>
      <trkpt lat="42.48396" lon="3.0882">
        <ele>289.20001220703</ele>
        <time>2023-07-12T04:29:09.000Z</time>
      </trkpt>
      <trkpt lat="42.48393" lon="3.08815">
        <ele>291</ele>
        <time>2023-07-12T04:29:23.000Z</time>
      </trkpt>
      <trkpt lat="42.48394" lon="3.08814">
        <ele>291.39999389648</ele>
        <time>2023-07-12T04:29:24.000Z</time>
      </trkpt>
      <trkpt lat="42.48395" lon="3.0881">
        <ele>292.20001220703</ele>
        <time>2023-07-12T04:29:28.000Z</time>
      </trkpt>
      <trkpt lat="42.48396" lon="3.08809">
        <ele>292.60000610352</ele>
        <time>2023-07-12T04:29:32.000Z</time>
      </trkpt>
      <trkpt lat="42.48401" lon="3.08803">
        <ele>293</ele>
        <time>2023-07-12T04:29:39.000Z</time>
      </trkpt>
      <trkpt lat="42.48403" lon="3.088">
        <ele>293.20001220703</ele>
        <time>2023-07-12T04:29:43.000Z</time>
      </trkpt>
      <trkpt lat="42.48401" lon="3.08798">
        <ele>294</ele>
        <time>2023-07-12T04:29:47.000Z</time>
      </trkpt>
      <trkpt lat="42.48398" lon="3.08797">
        <ele>294.39999389648</ele>
        <time>2023-07-12T04:29:49.000Z</time>
      </trkpt>
      <trkpt lat="42.48397" lon="3.08799">
        <ele>295.39999389648</ele>
        <time>2023-07-12T04:29:53.000Z</time>
      </trkpt>
      <trkpt lat="42.48396" lon="3.08799">
        <ele>296</ele>
        <time>2023-07-12T04:30:00.000Z</time>
      </trkpt>
      <trkpt lat="42.48394" lon="3.08799">
        <ele>296.39999389648</ele>
        <time>2023-07-12T04:30:06.000Z</time>
      </trkpt>
      <trkpt lat="42.48394" lon="3.08798">
        <ele>297.39999389648</ele>
        <time>2023-07-12T04:30:10.000Z</time>
      </trkpt>
      <trkpt lat="42.48394" lon="3.08798">
        <ele>297.79998779297</ele>
        <time>2023-07-12T04:30:11.000Z</time>
      </trkpt>
      <trkpt lat="42.48395" lon="3.08793">
        <ele>299.60000610352</ele>
        <time>2023-07-12T04:30:22.000Z</time>
      </trkpt>
      <trkpt lat="42.48395" lon="3.08793">
        <ele>300</ele>
        <time>2023-07-12T04:30:23.000Z</time>
      </trkpt>
      <trkpt lat="42.48397" lon="3.08793">
        <ele>300.79998779297</ele>
        <time>2023-07-12T04:30:30.000Z</time>
      </trkpt>
      <trkpt lat="42.48396" lon="3.08789">
        <ele>301</ele>
        <time>2023-07-12T04:30:35.000Z</time>
      </trkpt>
      <trkpt lat="42.48397" lon="3.08783">
        <ele>301.79998779297</ele>
        <time>2023-07-12T04:30:40.000Z</time>
      </trkpt>
      <trkpt lat="42.48395" lon="3.08782">
        <ele>302.20001220703</ele>
        <time>2023-07-12T04:30:42.000Z</time>
      </trkpt>
      <trkpt lat="42.48394" lon="3.08782">
        <ele>303.20001220703</ele>
        <time>2023-07-12T04:30:45.000Z</time>
      </trkpt>
      <trkpt lat="42.48392" lon="3.08781">
        <ele>304</ele>
        <time>2023-07-12T04:30:49.000Z</time>
      </trkpt>
      <trkpt lat="42.48391" lon="3.0878">
        <ele>304.20001220703</ele>
        <time>2023-07-12T04:30:52.000Z</time>
      </trkpt>
      <trkpt lat="42.48388" lon="3.08779">
        <ele>304.79998779297</ele>
        <time>2023-07-12T04:30:55.000Z</time>
      </trkpt>
      <trkpt lat="42.48387" lon="3.08778">
        <ele>305.20001220703</ele>
        <time>2023-07-12T04:31:00.000Z</time>
      </trkpt>
      <trkpt lat="42.48387" lon="3.08778">
        <ele>305.60000610352</ele>
        <time>2023-07-12T04:31:01.000Z</time>
      </trkpt>
      <trkpt lat="42.48387" lon="3.08778">
        <ele>306.39999389648</ele>
        <time>2023-07-12T04:31:04.000Z</time>
      </trkpt>
      <trkpt lat="42.48386" lon="3.08776">
        <ele>307.39999389648</ele>
        <time>2023-07-12T04:31:07.000Z</time>
      </trkpt>
      <trkpt lat="42.48387" lon="3.08775">
        <ele>307.79998779297</ele>
        <time>2023-07-12T04:31:09.000Z</time>
      </trkpt>
      <trkpt lat="42.48388" lon="3.0877">
        <ele>308</ele>
        <time>2023-07-12T04:31:16.000Z</time>
      </trkpt>
      <trkpt lat="42.48386" lon="3.08762">
        <ele>308.39999389648</ele>
        <time>2023-07-12T04:31:22.000Z</time>
      </trkpt>
      <trkpt lat="42.48386" lon="3.08762">
        <ele>309.60000610352</ele>
        <time>2023-07-12T04:31:25.000Z</time>
      </trkpt>
      <trkpt lat="42.48386" lon="3.08762">
        <ele>310.20001220703</ele>
        <time>2023-07-12T04:31:26.000Z</time>
      </trkpt>
      <trkpt lat="42.48386" lon="3.08761">
        <ele>310.79998779297</ele>
        <time>2023-07-12T04:31:29.000Z</time>
      </trkpt>
      <trkpt lat="42.48386" lon="3.08761">
        <ele>311.79998779297</ele>
        <time>2023-07-12T04:31:34.000Z</time>
      </trkpt>
      <trkpt lat="42.48385" lon="3.08761">
        <ele>312</ele>
        <time>2023-07-12T04:31:36.000Z</time>
      </trkpt>
      <trkpt lat="42.48383" lon="3.08761">
        <ele>312.60000610352</ele>
        <time>2023-07-12T04:31:44.000Z</time>
      </trkpt>
      <trkpt lat="42.48384" lon="3.08757">
        <ele>313.20001220703</ele>
        <time>2023-07-12T04:31:52.000Z</time>
      </trkpt>
      <trkpt lat="42.48381" lon="3.08758">
        <ele>314.20001220703</ele>
        <time>2023-07-12T04:31:54.000Z</time>
      </trkpt>
      <trkpt lat="42.4838" lon="3.08759">
        <ele>314.60000610352</ele>
        <time>2023-07-12T04:31:55.000Z</time>
      </trkpt>
      <trkpt lat="42.48377" lon="3.08759">
        <ele>315.39999389648</ele>
        <time>2023-07-12T04:31:58.000Z</time>
      </trkpt>
      <trkpt lat="42.48377" lon="3.08756">
        <ele>316.39999389648</ele>
        <time>2023-07-12T04:32:03.000Z</time>
      </trkpt>
      <trkpt lat="42.48379" lon="3.08757">
        <ele>316.20001220703</ele>
        <time>2023-07-12T04:32:10.000Z</time>
      </trkpt>
      <trkpt lat="42.48379" lon="3.08757">
        <ele>316.39999389648</ele>
        <time>2023-07-12T04:32:12.000Z</time>
      </trkpt>
      <trkpt lat="42.48379" lon="3.08755">
        <ele>317.60000610352</ele>
        <time>2023-07-12T04:32:16.000Z</time>
      </trkpt>
      <trkpt lat="42.48378" lon="3.0875">
        <ele>318.60000610352</ele>
        <time>2023-07-12T04:32:21.000Z</time>
      </trkpt>
      <trkpt lat="42.48377" lon="3.08748">
        <ele>319</ele>
        <time>2023-07-12T04:32:22.000Z</time>
      </trkpt>
      <trkpt lat="42.48376" lon="3.08745">
        <ele>319.79998779297</ele>
        <time>2023-07-12T04:32:28.000Z</time>
      </trkpt>
      <trkpt lat="42.48376" lon="3.08744">
        <ele>320.39999389648</ele>
        <time>2023-07-12T04:32:31.000Z</time>
      </trkpt>
      <trkpt lat="42.48377" lon="3.08742">
        <ele>321</ele>
        <time>2023-07-12T04:32:34.000Z</time>
      </trkpt>
      <trkpt lat="42.48376" lon="3.08741">
        <ele>322</ele>
        <time>2023-07-12T04:32:37.000Z</time>
      </trkpt>
      <trkpt lat="42.48375" lon="3.0874">
        <ele>322.20001220703</ele>
        <time>2023-07-12T04:32:38.000Z</time>
      </trkpt>
      <trkpt lat="42.48375" lon="3.08737">
        <ele>323.39999389648</ele>
        <time>2023-07-12T04:32:42.000Z</time>
      </trkpt>
      <trkpt lat="42.48375" lon="3.08734">
        <ele>324</ele>
        <time>2023-07-12T04:32:46.000Z</time>
      </trkpt>
      <trkpt lat="42.48372" lon="3.08732">
        <ele>323.79998779297</ele>
        <time>2023-07-12T04:32:53.000Z</time>
      </trkpt>
      <trkpt lat="42.48372" lon="3.08734">
        <ele>324.39999389648</ele>
        <time>2023-07-12T04:32:55.000Z</time>
      </trkpt>
      <trkpt lat="42.48371" lon="3.08735">
        <ele>325.60000610352</ele>
        <time>2023-07-12T04:32:58.000Z</time>
      </trkpt>
      <trkpt lat="42.48373" lon="3.08733">
        <ele>326</ele>
        <time>2023-07-12T04:33:01.000Z</time>
      </trkpt>
      <trkpt lat="42.48374" lon="3.08733">
        <ele>326.79998779297</ele>
        <time>2023-07-12T04:33:04.000Z</time>
      </trkpt>
      <trkpt lat="42.48375" lon="3.0873">
        <ele>328</ele>
        <time>2023-07-12T04:33:07.000Z</time>
      </trkpt>
      <trkpt lat="42.48375" lon="3.08729">
        <ele>329</ele>
        <time>2023-07-12T04:33:09.000Z</time>
      </trkpt>
      <trkpt lat="42.48375" lon="3.08729">
        <ele>329.20001220703</ele>
        <time>2023-07-12T04:33:10.000Z</time>
      </trkpt>
      <trkpt lat="42.48378" lon="3.08725">
        <ele>330.20001220703</ele>
        <time>2023-07-12T04:33:17.000Z</time>
      </trkpt>
      <trkpt lat="42.48379" lon="3.08719">
        <ele>331.20001220703</ele>
        <time>2023-07-12T04:33:24.000Z</time>
      </trkpt>
      <trkpt lat="42.48377" lon="3.08719">
        <ele>332.39999389648</ele>
        <time>2023-07-12T04:33:29.000Z</time>
      </trkpt>
      <trkpt lat="42.48376" lon="3.08717">
        <ele>333</ele>
        <time>2023-07-12T04:33:34.000Z</time>
      </trkpt>
      <trkpt lat="42.48377" lon="3.08717">
        <ele>333.60000610352</ele>
        <time>2023-07-12T04:33:36.000Z</time>
      </trkpt>
      <trkpt lat="42.48376" lon="3.08716">
        <ele>334.79998779297</ele>
        <time>2023-07-12T04:33:40.000Z</time>
      </trkpt>
      <trkpt lat="42.48376" lon="3.08714">
        <ele>335</ele>
        <time>2023-07-12T04:33:42.000Z</time>
      </trkpt>
      <trkpt lat="42.48374" lon="3.08709">
        <ele>336</ele>
        <time>2023-07-12T04:33:47.000Z</time>
      </trkpt>
      <trkpt lat="42.48374" lon="3.08705">
        <ele>336.79998779297</ele>
        <time>2023-07-12T04:33:50.000Z</time>
      </trkpt>
      <trkpt lat="42.48374" lon="3.08704">
        <ele>337</ele>
        <time>2023-07-12T04:33:51.000Z</time>
      </trkpt>
      <trkpt lat="42.48373" lon="3.08698">
        <ele>337.39999389648</ele>
        <time>2023-07-12T04:33:57.000Z</time>
      </trkpt>
      <trkpt lat="42.48372" lon="3.08699">
        <ele>338.39999389648</ele>
        <time>2023-07-12T04:34:00.000Z</time>
      </trkpt>
      <trkpt lat="42.48371" lon="3.08702">
        <ele>339.60000610352</ele>
        <time>2023-07-12T04:34:03.000Z</time>
      </trkpt>
      <trkpt lat="42.4837" lon="3.08704">
        <ele>340.20001220703</ele>
        <time>2023-07-12T04:34:04.000Z</time>
      </trkpt>
      <trkpt lat="42.4837" lon="3.08703">
        <ele>340.79998779297</ele>
        <time>2023-07-12T04:34:06.000Z</time>
      </trkpt>
      <trkpt lat="42.48369" lon="3.08702">
        <ele>341</ele>
        <time>2023-07-12T04:34:12.000Z</time>
      </trkpt>
      <trkpt lat="42.48368" lon="3.08703">
        <ele>340.79998779297</ele>
        <time>2023-07-12T04:34:19.000Z</time>
      </trkpt>
      <trkpt lat="42.48368" lon="3.08704">
        <ele>341.39999389648</ele>
        <time>2023-07-12T04:34:26.000Z</time>
      </trkpt>
      <trkpt lat="42.48367" lon="3.08702">
        <ele>341</ele>
        <time>2023-07-12T04:34:33.000Z</time>
      </trkpt>
      <trkpt lat="42.48368" lon="3.08701">
        <ele>341</ele>
        <time>2023-07-12T04:34:40.000Z</time>
      </trkpt>
      <trkpt lat="42.48367" lon="3.08701">
        <ele>341</ele>
        <time>2023-07-12T04:34:51.000Z</time>
      </trkpt>
      <trkpt lat="42.48363" lon="3.087">
        <ele>341.39999389648</ele>
        <time>2023-07-12T04:34:58.000Z</time>
      </trkpt>
      <trkpt lat="42.48362" lon="3.087">
        <ele>341.79998779297</ele>
        <time>2023-07-12T04:35:01.000Z</time>
      </trkpt>
      <trkpt lat="42.4836" lon="3.087">
        <ele>343</ele>
        <time>2023-07-12T04:35:06.000Z</time>
      </trkpt>
      <trkpt lat="42.48358" lon="3.08703">
        <ele>344.20001220703</ele>
        <time>2023-07-12T04:35:11.000Z</time>
      </trkpt>
      <trkpt lat="42.48358" lon="3.08703">
        <ele>344.39999389648</ele>
        <time>2023-07-12T04:35:13.000Z</time>
      </trkpt>
      <trkpt lat="42.48357" lon="3.08705">
        <ele>345.20001220703</ele>
        <time>2023-07-12T04:35:20.000Z</time>
      </trkpt>
      <trkpt lat="42.48357" lon="3.08705">
        <ele>345.60000610352</ele>
        <time>2023-07-12T04:35:21.000Z</time>
      </trkpt>
      <trkpt lat="42.48358" lon="3.08704">
        <ele>346.60000610352</ele>
        <time>2023-07-12T04:35:25.000Z</time>
      </trkpt>
      <trkpt lat="42.48358" lon="3.08698">
        <ele>347.39999389648</ele>
        <time>2023-07-12T04:35:30.000Z</time>
      </trkpt>
      <trkpt lat="42.48356" lon="3.08697">
        <ele>347.60000610352</ele>
        <time>2023-07-12T04:35:33.000Z</time>
      </trkpt>
      <trkpt lat="42.48357" lon="3.08696">
        <ele>348.60000610352</ele>
        <time>2023-07-12T04:35:39.000Z</time>
      </trkpt>
      <trkpt lat="42.48353" lon="3.08692">
        <ele>348.79998779297</ele>
        <time>2023-07-12T04:35:47.000Z</time>
      </trkpt>
      <trkpt lat="42.48351" lon="3.08693">
        <ele>349.79998779297</ele>
        <time>2023-07-12T04:35:52.000Z</time>
      </trkpt>
      <trkpt lat="42.48352" lon="3.08693">
        <ele>350.20001220703</ele>
        <time>2023-07-12T04:35:53.000Z</time>
      </trkpt>
      <trkpt lat="42.48352" lon="3.08692">
        <ele>351.20001220703</ele>
        <time>2023-07-12T04:35:56.000Z</time>
      </trkpt>
      <trkpt lat="42.48351" lon="3.08693">
        <ele>352.20001220703</ele>
        <time>2023-07-12T04:36:01.000Z</time>
      </trkpt>
      <trkpt lat="42.48352" lon="3.08692">
        <ele>352.79998779297</ele>
        <time>2023-07-12T04:36:05.000Z</time>
      </trkpt>
      <trkpt lat="42.48355" lon="3.08689">
        <ele>353.39999389648</ele>
        <time>2023-07-12T04:36:09.000Z</time>
      </trkpt>
      <trkpt lat="42.48356" lon="3.08687">
        <ele>354.20001220703</ele>
        <time>2023-07-12T04:36:11.000Z</time>
      </trkpt>
      <trkpt lat="42.48356" lon="3.08684">
        <ele>354.39999389648</ele>
        <time>2023-07-12T04:36:14.000Z</time>
      </trkpt>
      <trkpt lat="42.48353" lon="3.08682">
        <ele>354.79998779297</ele>
        <time>2023-07-12T04:36:19.000Z</time>
      </trkpt>
      <trkpt lat="42.48351" lon="3.08682">
        <ele>355.60000610352</ele>
        <time>2023-07-12T04:36:21.000Z</time>
      </trkpt>
      <trkpt lat="42.48354" lon="3.08681">
        <ele>356.39999389648</ele>
        <time>2023-07-12T04:36:27.000Z</time>
      </trkpt>
      <trkpt lat="42.48353" lon="3.0868">
        <ele>357</ele>
        <time>2023-07-12T04:36:30.000Z</time>
      </trkpt>
      <trkpt lat="42.48351" lon="3.08675">
        <ele>357.79998779297</ele>
        <time>2023-07-12T04:36:35.000Z</time>
      </trkpt>
      <trkpt lat="42.48351" lon="3.08673">
        <ele>358.39999389648</ele>
        <time>2023-07-12T04:36:37.000Z</time>
      </trkpt>
      <trkpt lat="42.4835" lon="3.08668">
        <ele>358.79998779297</ele>
        <time>2023-07-12T04:36:43.000Z</time>
      </trkpt>
      <trkpt lat="42.48352" lon="3.08665">
        <ele>359.60000610352</ele>
        <time>2023-07-12T04:36:48.000Z</time>
      </trkpt>
      <trkpt lat="42.48353" lon="3.08662">
        <ele>360.39999389648</ele>
        <time>2023-07-12T04:36:52.000Z</time>
      </trkpt>
      <trkpt lat="42.48354" lon="3.0866">
        <ele>360.60000610352</ele>
        <time>2023-07-12T04:36:54.000Z</time>
      </trkpt>
      <trkpt lat="42.48357" lon="3.08652">
        <ele>361.60000610352</ele>
        <time>2023-07-12T04:37:02.000Z</time>
      </trkpt>
      <trkpt lat="42.48359" lon="3.0865">
        <ele>362.60000610352</ele>
        <time>2023-07-12T04:37:07.000Z</time>
      </trkpt>
      <trkpt lat="42.48359" lon="3.0865">
        <ele>362.60000610352</ele>
        <time>2023-07-12T04:37:09.000Z</time>
      </trkpt>
      <trkpt lat="42.48361" lon="3.08642">
        <ele>363.60000610352</ele>
        <time>2023-07-12T04:37:19.000Z</time>
      </trkpt>
      <trkpt lat="42.4836" lon="3.08642">
        <ele>363.79998779297</ele>
        <time>2023-07-12T04:37:20.000Z</time>
      </trkpt>
      <trkpt lat="42.48356" lon="3.08641">
        <ele>364.79998779297</ele>
        <time>2023-07-12T04:37:24.000Z</time>
      </trkpt>
      <trkpt lat="42.48355" lon="3.08642">
        <ele>365.20001220703</ele>
        <time>2023-07-12T04:37:25.000Z</time>
      </trkpt>
      <trkpt lat="42.48353" lon="3.0864">
        <ele>366</ele>
        <time>2023-07-12T04:37:29.000Z</time>
      </trkpt>
      <trkpt lat="42.48355" lon="3.08638">
        <ele>366.39999389648</ele>
        <time>2023-07-12T04:37:32.000Z</time>
      </trkpt>
      <trkpt lat="42.48357" lon="3.08638">
        <ele>367</ele>
        <time>2023-07-12T04:37:37.000Z</time>
      </trkpt>
      <trkpt lat="42.48357" lon="3.08638">
        <ele>367</ele>
        <time>2023-07-12T04:37:38.000Z</time>
      </trkpt>
      <trkpt lat="42.48357" lon="3.08635">
        <ele>367.60000610352</ele>
        <time>2023-07-12T04:37:47.000Z</time>
      </trkpt>
      <trkpt lat="42.48355" lon="3.08633">
        <ele>368</ele>
        <time>2023-07-12T04:37:51.000Z</time>
      </trkpt>
      <trkpt lat="42.48354" lon="3.08631">
        <ele>369</ele>
        <time>2023-07-12T04:37:54.000Z</time>
      </trkpt>
      <trkpt lat="42.48354" lon="3.0863">
        <ele>370.20001220703</ele>
        <time>2023-07-12T04:37:58.000Z</time>
      </trkpt>
      <trkpt lat="42.48353" lon="3.08627">
        <ele>370.39999389648</ele>
        <time>2023-07-12T04:38:02.000Z</time>
      </trkpt>
      <trkpt lat="42.48353" lon="3.08625">
        <ele>371.20001220703</ele>
        <time>2023-07-12T04:38:05.000Z</time>
      </trkpt>
      <trkpt lat="42.48354" lon="3.08625">
        <ele>372.20001220703</ele>
        <time>2023-07-12T04:38:10.000Z</time>
      </trkpt>
      <trkpt lat="42.48358" lon="3.08619">
        <ele>372.39999389648</ele>
        <time>2023-07-12T04:38:17.000Z</time>
      </trkpt>
      <trkpt lat="42.48355" lon="3.08618">
        <ele>373.60000610352</ele>
        <time>2023-07-12T04:38:25.000Z</time>
      </trkpt>
      <trkpt lat="42.48353" lon="3.08619">
        <ele>374.60000610352</ele>
        <time>2023-07-12T04:38:31.000Z</time>
      </trkpt>
      <trkpt lat="42.48354" lon="3.08619">
        <ele>374.60000610352</ele>
        <time>2023-07-12T04:38:32.000Z</time>
      </trkpt>
      <trkpt lat="42.48354" lon="3.08617">
        <ele>374.39999389648</ele>
        <time>2023-07-12T04:38:40.000Z</time>
      </trkpt>
      <trkpt lat="42.48355" lon="3.08609">
        <ele>375.39999389648</ele>
        <time>2023-07-12T04:38:47.000Z</time>
      </trkpt>
      <trkpt lat="42.48353" lon="3.08607">
        <ele>375.60000610352</ele>
        <time>2023-07-12T04:38:49.000Z</time>
      </trkpt>
      <trkpt lat="42.48346" lon="3.08604">
        <ele>376.39999389648</ele>
        <time>2023-07-12T04:38:56.000Z</time>
      </trkpt>
      <trkpt lat="42.48346" lon="3.08603">
        <ele>377</ele>
        <time>2023-07-12T04:38:57.000Z</time>
      </trkpt>
      <trkpt lat="42.48345" lon="3.08604">
        <ele>378</ele>
        <time>2023-07-12T04:39:03.000Z</time>
      </trkpt>
      <trkpt lat="42.48346" lon="3.08604">
        <ele>378</ele>
        <time>2023-07-12T04:39:04.000Z</time>
      </trkpt>
      <trkpt lat="42.48354" lon="3.086">
        <ele>378.20001220703</ele>
        <time>2023-07-12T04:39:11.000Z</time>
      </trkpt>
      <trkpt lat="42.48354" lon="3.08599">
        <ele>378.39999389648</ele>
        <time>2023-07-12T04:39:12.000Z</time>
      </trkpt>
      <trkpt lat="42.48353" lon="3.08599">
        <ele>379.60000610352</ele>
        <time>2023-07-12T04:39:15.000Z</time>
      </trkpt>
      <trkpt lat="42.48354" lon="3.086">
        <ele>380.39999389648</ele>
        <time>2023-07-12T04:39:19.000Z</time>
      </trkpt>
      <trkpt lat="42.48353" lon="3.08601">
        <ele>380.60000610352</ele>
        <time>2023-07-12T04:39:28.000Z</time>
      </trkpt>
      <trkpt lat="42.48352" lon="3.08592">
        <ele>381</ele>
        <time>2023-07-12T04:39:33.000Z</time>
      </trkpt>
      <trkpt lat="42.48353" lon="3.08583">
        <ele>381.60000610352</ele>
        <time>2023-07-12T04:39:38.000Z</time>
      </trkpt>
      <trkpt lat="42.48353" lon="3.08581">
        <ele>381.60000610352</ele>
        <time>2023-07-12T04:39:39.000Z</time>
      </trkpt>
      <trkpt lat="42.48352" lon="3.08573">
        <ele>382.60000610352</ele>
        <time>2023-07-12T04:39:45.000Z</time>
      </trkpt>
      <trkpt lat="42.48353" lon="3.08571">
        <ele>382.60000610352</ele>
        <time>2023-07-12T04:39:46.000Z</time>
      </trkpt>
      <trkpt lat="42.48353" lon="3.08561">
        <ele>383.20001220703</ele>
        <time>2023-07-12T04:39:52.000Z</time>
      </trkpt>
      <trkpt lat="42.48354" lon="3.08556">
        <ele>383.79998779297</ele>
        <time>2023-07-12T04:39:56.000Z</time>
      </trkpt>
      <trkpt lat="42.48356" lon="3.08552">
        <ele>384.60000610352</ele>
        <time>2023-07-12T04:40:00.000Z</time>
      </trkpt>
      <trkpt lat="42.48359" lon="3.08548">
        <ele>384.60000610352</ele>
        <time>2023-07-12T04:40:06.000Z</time>
      </trkpt>
      <trkpt lat="42.4836" lon="3.08545">
        <ele>384.79998779297</ele>
        <time>2023-07-12T04:40:08.000Z</time>
      </trkpt>
      <trkpt lat="42.48362" lon="3.08537">
        <ele>385.79998779297</ele>
        <time>2023-07-12T04:40:13.000Z</time>
      </trkpt>
      <trkpt lat="42.48362" lon="3.08535">
        <ele>386</ele>
        <time>2023-07-12T04:40:14.000Z</time>
      </trkpt>
      <trkpt lat="42.4836" lon="3.08526">
        <ele>388</ele>
        <time>2023-07-12T04:40:20.000Z</time>
      </trkpt>
      <trkpt lat="42.48359" lon="3.08526">
        <ele>388</ele>
        <time>2023-07-12T04:40:21.000Z</time>
      </trkpt>
      <trkpt lat="42.48358" lon="3.08526">
        <ele>387.79998779297</ele>
        <time>2023-07-12T04:40:26.000Z</time>
      </trkpt>
      <trkpt lat="42.48357" lon="3.08529">
        <ele>387.60000610352</ele>
        <time>2023-07-12T04:40:29.000Z</time>
      </trkpt>
      <trkpt lat="42.48357" lon="3.08531">
        <ele>387.39999389648</ele>
        <time>2023-07-12T04:40:30.000Z</time>
      </trkpt>
      <trkpt lat="42.4836" lon="3.08524">
        <ele>387.39999389648</ele>
        <time>2023-07-12T04:40:34.000Z</time>
      </trkpt>
      <trkpt lat="42.48365" lon="3.08517">
        <ele>387</ele>
        <time>2023-07-12T04:40:41.000Z</time>
      </trkpt>
      <trkpt lat="42.48365" lon="3.08517">
        <ele>387</ele>
        <time>2023-07-12T04:40:42.000Z</time>
      </trkpt>
      <trkpt lat="42.48368" lon="3.08512">
        <ele>388.20001220703</ele>
        <time>2023-07-12T04:40:47.000Z</time>
      </trkpt>
      <trkpt lat="42.48369" lon="3.08511">
        <ele>388.39999389648</ele>
        <time>2023-07-12T04:40:48.000Z</time>
      </trkpt>
      <trkpt lat="42.48371" lon="3.08506">
        <ele>389.39999389648</ele>
        <time>2023-07-12T04:40:52.000Z</time>
      </trkpt>
      <trkpt lat="42.48372" lon="3.08504">
        <ele>390</ele>
        <time>2023-07-12T04:40:54.000Z</time>
      </trkpt>
      <trkpt lat="42.48372" lon="3.08498">
        <ele>390.39999389648</ele>
        <time>2023-07-12T04:40:58.000Z</time>
      </trkpt>
      <trkpt lat="42.48374" lon="3.08492">
        <ele>391.20001220703</ele>
        <time>2023-07-12T04:41:04.000Z</time>
      </trkpt>
      <trkpt lat="42.48375" lon="3.08491">
        <ele>391.39999389648</ele>
        <time>2023-07-12T04:41:05.000Z</time>
      </trkpt>
      <trkpt lat="42.48378" lon="3.08486">
        <ele>392.79998779297</ele>
        <time>2023-07-12T04:41:10.000Z</time>
      </trkpt>
      <trkpt lat="42.48379" lon="3.08485">
        <ele>393.60000610352</ele>
        <time>2023-07-12T04:41:14.000Z</time>
      </trkpt>
      <trkpt lat="42.48379" lon="3.08484">
        <ele>393.79998779297</ele>
        <time>2023-07-12T04:41:16.000Z</time>
      </trkpt>
      <trkpt lat="42.48381" lon="3.08476">
        <ele>393.60000610352</ele>
        <time>2023-07-12T04:41:22.000Z</time>
      </trkpt>
      <trkpt lat="42.48384" lon="3.08474">
        <ele>394.60000610352</ele>
        <time>2023-07-12T04:41:29.000Z</time>
      </trkpt>
      <trkpt lat="42.48386" lon="3.08472">
        <ele>395</ele>
        <time>2023-07-12T04:41:31.000Z</time>
      </trkpt>
      <trkpt lat="42.48387" lon="3.0847">
        <ele>396</ele>
        <time>2023-07-12T04:41:37.000Z</time>
      </trkpt>
      <trkpt lat="42.48392" lon="3.08471">
        <ele>397.20001220703</ele>
        <time>2023-07-12T04:41:42.000Z</time>
      </trkpt>
      <trkpt lat="42.48397" lon="3.08472">
        <ele>398.60000610352</ele>
        <time>2023-07-12T04:41:46.000Z</time>
      </trkpt>
      <trkpt lat="42.48401" lon="3.08469">
        <ele>398.79998779297</ele>
        <time>2023-07-12T04:41:53.000Z</time>
      </trkpt>
      <trkpt lat="42.48402" lon="3.0847">
        <ele>399.60000610352</ele>
        <time>2023-07-12T04:41:55.000Z</time>
      </trkpt>
      <trkpt lat="42.48404" lon="3.08469">
        <ele>400.20001220703</ele>
        <time>2023-07-12T04:42:00.000Z</time>
      </trkpt>
      <trkpt lat="42.48405" lon="3.08467">
        <ele>401</ele>
        <time>2023-07-12T04:42:02.000Z</time>
      </trkpt>
      <trkpt lat="42.48408" lon="3.08463">
        <ele>402.60000610352</ele>
        <time>2023-07-12T04:42:08.000Z</time>
      </trkpt>
      <trkpt lat="42.48408" lon="3.08462">
        <ele>403</ele>
        <time>2023-07-12T04:42:10.000Z</time>
      </trkpt>
      <trkpt lat="42.48409" lon="3.08464">
        <ele>403.60000610352</ele>
        <time>2023-07-12T04:42:15.000Z</time>
      </trkpt>
      <trkpt lat="42.48411" lon="3.08463">
        <ele>404.20001220703</ele>
        <time>2023-07-12T04:42:17.000Z</time>
      </trkpt>
      <trkpt lat="42.48415" lon="3.0846">
        <ele>405</ele>
        <time>2023-07-12T04:42:24.000Z</time>
      </trkpt>
      <trkpt lat="42.48416" lon="3.08459">
        <ele>405.39999389648</ele>
        <time>2023-07-12T04:42:25.000Z</time>
      </trkpt>
      <trkpt lat="42.48415" lon="3.08458">
        <ele>405.60000610352</ele>
        <time>2023-07-12T04:42:31.000Z</time>
      </trkpt>
      <trkpt lat="42.48416" lon="3.08453">
        <ele>405.79998779297</ele>
        <time>2023-07-12T04:42:37.000Z</time>
      </trkpt>
      <trkpt lat="42.48419" lon="3.08452">
        <ele>406</ele>
        <time>2023-07-12T04:42:43.000Z</time>
      </trkpt>
      <trkpt lat="42.4842" lon="3.08453">
        <ele>407</ele>
        <time>2023-07-12T04:42:46.000Z</time>
      </trkpt>
      <trkpt lat="42.48421" lon="3.08453">
        <ele>407.60000610352</ele>
        <time>2023-07-12T04:42:47.000Z</time>
      </trkpt>
      <trkpt lat="42.48421" lon="3.08448">
        <ele>408</ele>
        <time>2023-07-12T04:42:55.000Z</time>
      </trkpt>
      <trkpt lat="42.48422" lon="3.08448">
        <ele>409</ele>
        <time>2023-07-12T04:43:00.000Z</time>
      </trkpt>
      <trkpt lat="42.48423" lon="3.08447">
        <ele>409.20001220703</ele>
        <time>2023-07-12T04:43:02.000Z</time>
      </trkpt>
      <trkpt lat="42.48425" lon="3.08445">
        <ele>410.20001220703</ele>
        <time>2023-07-12T04:43:08.000Z</time>
      </trkpt>
      <trkpt lat="42.48427" lon="3.08445">
        <ele>411.20001220703</ele>
        <time>2023-07-12T04:43:11.000Z</time>
      </trkpt>
      <trkpt lat="42.48429" lon="3.08443">
        <ele>412.60000610352</ele>
        <time>2023-07-12T04:43:16.000Z</time>
      </trkpt>
      <trkpt lat="42.4843" lon="3.08441">
        <ele>412.79998779297</ele>
        <time>2023-07-12T04:43:19.000Z</time>
      </trkpt>
      <trkpt lat="42.4843" lon="3.08438">
        <ele>413.79998779297</ele>
        <time>2023-07-12T04:43:24.000Z</time>
      </trkpt>
      <trkpt lat="42.48432" lon="3.08436">
        <ele>414.39999389648</ele>
        <time>2023-07-12T04:43:28.000Z</time>
      </trkpt>
      <trkpt lat="42.48434" lon="3.08433">
        <ele>415</ele>
        <time>2023-07-12T04:43:33.000Z</time>
      </trkpt>
      <trkpt lat="42.48435" lon="3.08432">
        <ele>415.79998779297</ele>
        <time>2023-07-12T04:43:39.000Z</time>
      </trkpt>
      <trkpt lat="42.48435" lon="3.08431">
        <ele>416.20001220703</ele>
        <time>2023-07-12T04:43:41.000Z</time>
      </trkpt>
      <trkpt lat="42.48437" lon="3.08426">
        <ele>416.60000610352</ele>
        <time>2023-07-12T04:43:47.000Z</time>
      </trkpt>
      <trkpt lat="42.48437" lon="3.08424">
        <ele>417.39999389648</ele>
        <time>2023-07-12T04:43:53.000Z</time>
      </trkpt>
      <trkpt lat="42.48438" lon="3.08423">
        <ele>418.20001220703</ele>
        <time>2023-07-12T04:43:55.000Z</time>
      </trkpt>
      <trkpt lat="42.48439" lon="3.08422">
        <ele>418.79998779297</ele>
        <time>2023-07-12T04:43:56.000Z</time>
      </trkpt>
      <trkpt lat="42.48443" lon="3.08421">
        <ele>419.20001220703</ele>
        <time>2023-07-12T04:44:02.000Z</time>
      </trkpt>
      <trkpt lat="42.48445" lon="3.08418">
        <ele>419.79998779297</ele>
        <time>2023-07-12T04:44:08.000Z</time>
      </trkpt>
      <trkpt lat="42.48445" lon="3.08418">
        <ele>419.79998779297</ele>
        <time>2023-07-12T04:44:09.000Z</time>
      </trkpt>
      <trkpt lat="42.48447" lon="3.08417">
        <ele>420.79998779297</ele>
        <time>2023-07-12T04:44:14.000Z</time>
      </trkpt>
      <trkpt lat="42.48449" lon="3.08417">
        <ele>421.60000610352</ele>
        <time>2023-07-12T04:44:18.000Z</time>
      </trkpt>
      <trkpt lat="42.4845" lon="3.08417">
        <ele>422.20001220703</ele>
        <time>2023-07-12T04:44:20.000Z</time>
      </trkpt>
      <trkpt lat="42.48453" lon="3.08418">
        <ele>423.20001220703</ele>
        <time>2023-07-12T04:44:24.000Z</time>
      </trkpt>
      <trkpt lat="42.48454" lon="3.08418">
        <ele>423.20001220703</ele>
        <time>2023-07-12T04:44:25.000Z</time>
      </trkpt>
      <trkpt lat="42.48454" lon="3.08416">
        <ele>424.39999389648</ele>
        <time>2023-07-12T04:44:29.000Z</time>
      </trkpt>
      <trkpt lat="42.48454" lon="3.08413">
        <ele>425</ele>
        <time>2023-07-12T04:44:32.000Z</time>
      </trkpt>
      <trkpt lat="42.48454" lon="3.08412">
        <ele>426.20001220703</ele>
        <time>2023-07-12T04:44:34.000Z</time>
      </trkpt>
      <trkpt lat="42.48454" lon="3.08409">
        <ele>426.39999389648</ele>
        <time>2023-07-12T04:44:38.000Z</time>
      </trkpt>
      <trkpt lat="42.48456" lon="3.08404">
        <ele>427.39999389648</ele>
        <time>2023-07-12T04:44:44.000Z</time>
      </trkpt>
      <trkpt lat="42.48458" lon="3.0841">
        <ele>426.79998779297</ele>
        <time>2023-07-12T04:44:51.000Z</time>
      </trkpt>
      <trkpt lat="42.4846" lon="3.08414">
        <ele>427</ele>
        <time>2023-07-12T04:44:59.000Z</time>
      </trkpt>
      <trkpt lat="42.48457" lon="3.08414">
        <ele>427.60000610352</ele>
        <time>2023-07-12T04:45:09.000Z</time>
      </trkpt>
      <trkpt lat="42.48457" lon="3.08413">
        <ele>427.39999389648</ele>
        <time>2023-07-12T04:45:16.000Z</time>
      </trkpt>
      <trkpt lat="42.48457" lon="3.08417">
        <ele>427.60000610352</ele>
        <time>2023-07-12T04:45:22.000Z</time>
      </trkpt>
      <trkpt lat="42.48461" lon="3.08412">
        <ele>426.79998779297</ele>
        <time>2023-07-12T04:45:29.000Z</time>
      </trkpt>
      <trkpt lat="42.48463" lon="3.08408">
        <ele>426.20001220703</ele>
        <time>2023-07-12T04:45:33.000Z</time>
      </trkpt>
      <trkpt lat="42.48465" lon="3.08402">
        <ele>425.79998779297</ele>
        <time>2023-07-12T04:45:38.000Z</time>
      </trkpt>
      <trkpt lat="42.48473" lon="3.08393">
        <ele>426.20001220703</ele>
        <time>2023-07-12T04:45:47.000Z</time>
      </trkpt>
      <trkpt lat="42.48478" lon="3.08383">
        <ele>426.60000610352</ele>
        <time>2023-07-12T04:45:55.000Z</time>
      </trkpt>
      <trkpt lat="42.48484" lon="3.08367">
        <ele>426</ele>
        <time>2023-07-12T04:46:04.000Z</time>
      </trkpt>
      <trkpt lat="42.48491" lon="3.08357">
        <ele>426</ele>
        <time>2023-07-12T04:46:13.000Z</time>
      </trkpt>
      <trkpt lat="42.485" lon="3.08349">
        <ele>425.39999389648</ele>
        <time>2023-07-12T04:46:22.000Z</time>
      </trkpt>
      <trkpt lat="42.48502" lon="3.08347">
        <ele>425.20001220703</ele>
        <time>2023-07-12T04:46:24.000Z</time>
      </trkpt>
      <trkpt lat="42.48508" lon="3.08343">
        <ele>424</ele>
        <time>2023-07-12T04:46:29.000Z</time>
      </trkpt>
      <trkpt lat="42.48511" lon="3.08342">
        <ele>423.79998779297</ele>
        <time>2023-07-12T04:46:32.000Z</time>
      </trkpt>
      <trkpt lat="42.48522" lon="3.08338">
        <ele>424.20001220703</ele>
        <time>2023-07-12T04:46:40.000Z</time>
      </trkpt>
      <trkpt lat="42.48527" lon="3.08336">
        <ele>422.79998779297</ele>
        <time>2023-07-12T04:46:45.000Z</time>
      </trkpt>
      <trkpt lat="42.4853" lon="3.08333">
        <ele>422.60000610352</ele>
        <time>2023-07-12T04:46:49.000Z</time>
      </trkpt>
      <trkpt lat="42.4854" lon="3.08328">
        <ele>422.60000610352</ele>
        <time>2023-07-12T04:46:56.000Z</time>
      </trkpt>
      <trkpt lat="42.48546" lon="3.08325">
        <ele>422.39999389648</ele>
        <time>2023-07-12T04:47:01.000Z</time>
      </trkpt>
      <trkpt lat="42.48552" lon="3.0832">
        <ele>423</ele>
        <time>2023-07-12T04:47:09.000Z</time>
      </trkpt>
      <trkpt lat="42.4856" lon="3.0831">
        <ele>422</ele>
        <time>2023-07-12T04:47:18.000Z</time>
      </trkpt>
      <trkpt lat="42.48561" lon="3.08308">
        <ele>421.79998779297</ele>
        <time>2023-07-12T04:47:20.000Z</time>
      </trkpt>
      <trkpt lat="42.48564" lon="3.08301">
        <ele>421</ele>
        <time>2023-07-12T04:47:25.000Z</time>
      </trkpt>
      <trkpt lat="42.48565" lon="3.08293">
        <ele>420.60000610352</ele>
        <time>2023-07-12T04:47:33.000Z</time>
      </trkpt>
      <trkpt lat="42.48566" lon="3.08291">
        <ele>420.60000610352</ele>
        <time>2023-07-12T04:47:34.000Z</time>
      </trkpt>
      <trkpt lat="42.48569" lon="3.08281">
        <ele>419.79998779297</ele>
        <time>2023-07-12T04:47:41.000Z</time>
      </trkpt>
      <trkpt lat="42.48571" lon="3.08277">
        <ele>419.60000610352</ele>
        <time>2023-07-12T04:47:44.000Z</time>
      </trkpt>
      <trkpt lat="42.48575" lon="3.08271">
        <ele>419.60000610352</ele>
        <time>2023-07-12T04:47:50.000Z</time>
      </trkpt>
      <trkpt lat="42.48579" lon="3.08262">
        <ele>420.39999389648</ele>
        <time>2023-07-12T04:47:58.000Z</time>
      </trkpt>
      <trkpt lat="42.48581" lon="3.08261">
        <ele>420.60000610352</ele>
        <time>2023-07-12T04:48:01.000Z</time>
      </trkpt>
      <trkpt lat="42.48585" lon="3.08259">
        <ele>421.60000610352</ele>
        <time>2023-07-12T04:48:06.000Z</time>
      </trkpt>
      <trkpt lat="42.48585" lon="3.08259">
        <ele>421.79998779297</ele>
        <time>2023-07-12T04:48:07.000Z</time>
      </trkpt>
      <trkpt lat="42.4859" lon="3.0825">
        <ele>422.20001220703</ele>
        <time>2023-07-12T04:48:15.000Z</time>
      </trkpt>
      <trkpt lat="42.48594" lon="3.08236">
        <ele>421.20001220703</ele>
        <time>2023-07-12T04:48:25.000Z</time>
      </trkpt>
      <trkpt lat="42.48596" lon="3.08231">
        <ele>420.79998779297</ele>
        <time>2023-07-12T04:48:28.000Z</time>
      </trkpt>
      <trkpt lat="42.48599" lon="3.08227">
        <ele>420.60000610352</ele>
        <time>2023-07-12T04:48:32.000Z</time>
      </trkpt>
      <trkpt lat="42.48599" lon="3.08226">
        <ele>420.60000610352</ele>
        <time>2023-07-12T04:48:33.000Z</time>
      </trkpt>
      <trkpt lat="42.486" lon="3.08219">
        <ele>420.20001220703</ele>
        <time>2023-07-12T04:48:38.000Z</time>
      </trkpt>
      <trkpt lat="42.48603" lon="3.08208">
        <ele>420.39999389648</ele>
        <time>2023-07-12T04:48:47.000Z</time>
      </trkpt>
      <trkpt lat="42.48608" lon="3.08198">
        <ele>420.79998779297</ele>
        <time>2023-07-12T04:48:55.000Z</time>
      </trkpt>
      <trkpt lat="42.48612" lon="3.08189">
        <ele>421</ele>
        <time>2023-07-12T04:49:02.000Z</time>
      </trkpt>
      <trkpt lat="42.48616" lon="3.08182">
        <ele>421.60000610352</ele>
        <time>2023-07-12T04:49:08.000Z</time>
      </trkpt>
      <trkpt lat="42.48622" lon="3.08171">
        <ele>422</ele>
        <time>2023-07-12T04:49:17.000Z</time>
      </trkpt>
      <trkpt lat="42.48623" lon="3.08161">
        <ele>422.79998779297</ele>
        <time>2023-07-12T04:49:26.000Z</time>
      </trkpt>
      <trkpt lat="42.48623" lon="3.08159">
        <ele>423</ele>
        <time>2023-07-12T04:49:27.000Z</time>
      </trkpt>
      <trkpt lat="42.48623" lon="3.08152">
        <ele>423.60000610352</ele>
        <time>2023-07-12T04:49:32.000Z</time>
      </trkpt>
      <trkpt lat="42.48622" lon="3.08145">
        <ele>424</ele>
        <time>2023-07-12T04:49:36.000Z</time>
      </trkpt>
      <trkpt lat="42.48622" lon="3.08142">
        <ele>424.60000610352</ele>
        <time>2023-07-12T04:49:38.000Z</time>
      </trkpt>
      <trkpt lat="42.48621" lon="3.08139">
        <ele>425.20001220703</ele>
        <time>2023-07-12T04:49:41.000Z</time>
      </trkpt>
      <trkpt lat="42.48621" lon="3.08135">
        <ele>425.79998779297</ele>
        <time>2023-07-12T04:49:46.000Z</time>
      </trkpt>
      <trkpt lat="42.48621" lon="3.08133">
        <ele>426.20001220703</ele>
        <time>2023-07-12T04:49:48.000Z</time>
      </trkpt>
      <trkpt lat="42.48622" lon="3.08123">
        <ele>427.39999389648</ele>
        <time>2023-07-12T04:49:55.000Z</time>
      </trkpt>
      <trkpt lat="42.48622" lon="3.08109">
        <ele>428.60000610352</ele>
        <time>2023-07-12T04:50:04.000Z</time>
      </trkpt>
      <trkpt lat="42.48621" lon="3.08101">
        <ele>429.60000610352</ele>
        <time>2023-07-12T04:50:11.000Z</time>
      </trkpt>
      <trkpt lat="42.48621" lon="3.08099">
        <ele>429.79998779297</ele>
        <time>2023-07-12T04:50:13.000Z</time>
      </trkpt>
      <trkpt lat="42.48618" lon="3.08087">
        <ele>430.79998779297</ele>
        <time>2023-07-12T04:50:22.000Z</time>
      </trkpt>
      <trkpt lat="42.48618" lon="3.08085">
        <ele>431</ele>
        <time>2023-07-12T04:50:24.000Z</time>
      </trkpt>
      <trkpt lat="42.48619" lon="3.08083">
        <ele>431.79998779297</ele>
        <time>2023-07-12T04:50:27.000Z</time>
      </trkpt>
      <trkpt lat="42.48621" lon="3.08081">
        <ele>432.39999389648</ele>
        <time>2023-07-12T04:50:31.000Z</time>
      </trkpt>
      <trkpt lat="42.48623" lon="3.08077">
        <ele>433</ele>
        <time>2023-07-12T04:50:35.000Z</time>
      </trkpt>
      <trkpt lat="42.48625" lon="3.08072">
        <ele>433.79998779297</ele>
        <time>2023-07-12T04:50:40.000Z</time>
      </trkpt>
      <trkpt lat="42.48626" lon="3.08071">
        <ele>434</ele>
        <time>2023-07-12T04:50:42.000Z</time>
      </trkpt>
      <trkpt lat="42.48628" lon="3.08067">
        <ele>435</ele>
        <time>2023-07-12T04:50:47.000Z</time>
      </trkpt>
      <trkpt lat="42.48629" lon="3.08064">
        <ele>435.20001220703</ele>
        <time>2023-07-12T04:50:49.000Z</time>
      </trkpt>
      <trkpt lat="42.48631" lon="3.08058">
        <ele>436.39999389648</ele>
        <time>2023-07-12T04:50:53.000Z</time>
      </trkpt>
      <trkpt lat="42.48632" lon="3.08052">
        <ele>436.39999389648</ele>
        <time>2023-07-12T04:51:01.000Z</time>
      </trkpt>
      <trkpt lat="42.48631" lon="3.08049">
        <ele>436.39999389648</ele>
        <time>2023-07-12T04:51:09.000Z</time>
      </trkpt>
      <trkpt lat="42.48631" lon="3.08046">
        <ele>435.60000610352</ele>
        <time>2023-07-12T04:51:19.000Z</time>
      </trkpt>
      <trkpt lat="42.48632" lon="3.08049">
        <ele>435.60000610352</ele>
        <time>2023-07-12T04:51:25.000Z</time>
      </trkpt>
      <trkpt lat="42.48633" lon="3.08052">
        <ele>435.39999389648</ele>
        <time>2023-07-12T04:51:36.000Z</time>
      </trkpt>
      <trkpt lat="42.48636" lon="3.08045">
        <ele>435.39999389648</ele>
        <time>2023-07-12T04:51:41.000Z</time>
      </trkpt>
      <trkpt lat="42.48645" lon="3.0804">
        <ele>436</ele>
        <time>2023-07-12T04:51:49.000Z</time>
      </trkpt>
      <trkpt lat="42.48643" lon="3.08043">
        <ele>435</ele>
        <time>2023-07-12T04:51:55.000Z</time>
      </trkpt>
      <trkpt lat="42.48644" lon="3.08047">
        <ele>435</ele>
        <time>2023-07-12T04:52:00.000Z</time>
      </trkpt>
      <trkpt lat="42.48645" lon="3.08039">
        <ele>434.79998779297</ele>
        <time>2023-07-12T04:52:06.000Z</time>
      </trkpt>
      <trkpt lat="42.48648" lon="3.08034">
        <ele>434.20001220703</ele>
        <time>2023-07-12T04:52:09.000Z</time>
      </trkpt>
      <trkpt lat="42.4865" lon="3.08032">
        <ele>432.79998779297</ele>
        <time>2023-07-12T04:52:11.000Z</time>
      </trkpt>
      <trkpt lat="42.48651" lon="3.08028">
        <ele>432.60000610352</ele>
        <time>2023-07-12T04:52:13.000Z</time>
      </trkpt>
      <trkpt lat="42.48652" lon="3.08018">
        <ele>433.20001220703</ele>
        <time>2023-07-12T04:52:22.000Z</time>
      </trkpt>
      <trkpt lat="42.48651" lon="3.08018">
        <ele>433.20001220703</ele>
        <time>2023-07-12T04:52:24.000Z</time>
      </trkpt>
      <trkpt lat="42.48651" lon="3.08016">
        <ele>433</ele>
        <time>2023-07-12T04:52:28.000Z</time>
      </trkpt>
      <trkpt lat="42.48653" lon="3.08013">
        <ele>432.79998779297</ele>
        <time>2023-07-12T04:52:30.000Z</time>
      </trkpt>
      <trkpt lat="42.48656" lon="3.08009">
        <ele>432.79998779297</ele>
        <time>2023-07-12T04:52:33.000Z</time>
      </trkpt>
      <trkpt lat="42.48662" lon="3.08005">
        <ele>432.79998779297</ele>
        <time>2023-07-12T04:52:40.000Z</time>
      </trkpt>
      <trkpt lat="42.48666" lon="3.07998">
        <ele>433.20001220703</ele>
        <time>2023-07-12T04:52:48.000Z</time>
      </trkpt>
      <trkpt lat="42.48671" lon="3.07987">
        <ele>433.79998779297</ele>
        <time>2023-07-12T04:52:59.000Z</time>
      </trkpt>
      <trkpt lat="42.4867" lon="3.0798">
        <ele>435</ele>
        <time>2023-07-12T04:53:05.000Z</time>
      </trkpt>
      <trkpt lat="42.48669" lon="3.07975">
        <ele>435.39999389648</ele>
        <time>2023-07-12T04:53:09.000Z</time>
      </trkpt>
      <trkpt lat="42.48667" lon="3.07964">
        <ele>436</ele>
        <time>2023-07-12T04:53:15.000Z</time>
      </trkpt>
      <trkpt lat="42.48666" lon="3.07959">
        <ele>437</ele>
        <time>2023-07-12T04:53:18.000Z</time>
      </trkpt>
      <trkpt lat="42.48662" lon="3.07952">
        <ele>437.79998779297</ele>
        <time>2023-07-12T04:53:25.000Z</time>
      </trkpt>
      <trkpt lat="42.48659" lon="3.07949">
        <ele>439.39999389648</ele>
        <time>2023-07-12T04:53:34.000Z</time>
      </trkpt>
      <trkpt lat="42.48658" lon="3.07946">
        <ele>439.79998779297</ele>
        <time>2023-07-12T04:53:36.000Z</time>
      </trkpt>
      <trkpt lat="42.48657" lon="3.07942">
        <ele>440.60000610352</ele>
        <time>2023-07-12T04:53:40.000Z</time>
      </trkpt>
      <trkpt lat="42.48658" lon="3.07938">
        <ele>441.60000610352</ele>
        <time>2023-07-12T04:53:44.000Z</time>
      </trkpt>
      <trkpt lat="42.48658" lon="3.07936">
        <ele>441.60000610352</ele>
        <time>2023-07-12T04:53:45.000Z</time>
      </trkpt>
      <trkpt lat="42.48659" lon="3.07931">
        <ele>442.60000610352</ele>
        <time>2023-07-12T04:53:50.000Z</time>
      </trkpt>
      <trkpt lat="42.48659" lon="3.07929">
        <ele>443</ele>
        <time>2023-07-12T04:53:51.000Z</time>
      </trkpt>
      <trkpt lat="42.48658" lon="3.07924">
        <ele>443.79998779297</ele>
        <time>2023-07-12T04:53:55.000Z</time>
      </trkpt>
      <trkpt lat="42.48655" lon="3.0792">
        <ele>444.79998779297</ele>
        <time>2023-07-12T04:53:59.000Z</time>
      </trkpt>
      <trkpt lat="42.48655" lon="3.07919">
        <ele>445</ele>
        <time>2023-07-12T04:54:00.000Z</time>
      </trkpt>
      <trkpt lat="42.48653" lon="3.07914">
        <ele>446.20001220703</ele>
        <time>2023-07-12T04:54:05.000Z</time>
      </trkpt>
      <trkpt lat="42.48652" lon="3.07909">
        <ele>446.39999389648</ele>
        <time>2023-07-12T04:54:08.000Z</time>
      </trkpt>
      <trkpt lat="42.48651" lon="3.07898">
        <ele>447</ele>
        <time>2023-07-12T04:54:15.000Z</time>
      </trkpt>
      <trkpt lat="42.48652" lon="3.0789">
        <ele>446.79998779297</ele>
        <time>2023-07-12T04:54:22.000Z</time>
      </trkpt>
      <trkpt lat="42.48652" lon="3.07882">
        <ele>446.39999389648</ele>
        <time>2023-07-12T04:54:29.000Z</time>
      </trkpt>
      <trkpt lat="42.4865" lon="3.0787">
        <ele>446.20001220703</ele>
        <time>2023-07-12T04:54:36.000Z</time>
      </trkpt>
      <trkpt lat="42.48646" lon="3.07862">
        <ele>446.20001220703</ele>
        <time>2023-07-12T04:54:44.000Z</time>
      </trkpt>
      <trkpt lat="42.48638" lon="3.07848">
        <ele>446</ele>
        <time>2023-07-12T04:54:53.000Z</time>
      </trkpt>
      <trkpt lat="42.48634" lon="3.07839">
        <ele>447.20001220703</ele>
        <time>2023-07-12T04:55:00.000Z</time>
      </trkpt>
      <trkpt lat="42.48633" lon="3.07838">
        <ele>447.39999389648</ele>
        <time>2023-07-12T04:55:01.000Z</time>
      </trkpt>
      <trkpt lat="42.48627" lon="3.07824">
        <ele>447.60000610352</ele>
        <time>2023-07-12T04:55:09.000Z</time>
      </trkpt>
      <trkpt lat="42.48627" lon="3.07813">
        <ele>447</ele>
        <time>2023-07-12T04:55:19.000Z</time>
      </trkpt>
      <trkpt lat="42.48628" lon="3.07812">
        <ele>446</ele>
        <time>2023-07-12T04:55:20.000Z</time>
      </trkpt>
      <trkpt lat="42.48635" lon="3.07805">
        <ele>445.79998779297</ele>
        <time>2023-07-12T04:55:28.000Z</time>
      </trkpt>
      <trkpt lat="42.4864" lon="3.07797">
        <ele>445.79998779297</ele>
        <time>2023-07-12T04:55:35.000Z</time>
      </trkpt>
      <trkpt lat="42.48644" lon="3.07789">
        <ele>446.39999389648</ele>
        <time>2023-07-12T04:55:42.000Z</time>
      </trkpt>
      <trkpt lat="42.48651" lon="3.07778">
        <ele>446</ele>
        <time>2023-07-12T04:55:52.000Z</time>
      </trkpt>
      <trkpt lat="42.48654" lon="3.07771">
        <ele>447</ele>
        <time>2023-07-12T04:55:58.000Z</time>
      </trkpt>
      <trkpt lat="42.48655" lon="3.07768">
        <ele>447.39999389648</ele>
        <time>2023-07-12T04:56:01.000Z</time>
      </trkpt>
      <trkpt lat="42.4866" lon="3.07762">
        <ele>448.20001220703</ele>
        <time>2023-07-12T04:56:07.000Z</time>
      </trkpt>
      <trkpt lat="42.48664" lon="3.07758">
        <ele>448.60000610352</ele>
        <time>2023-07-12T04:56:11.000Z</time>
      </trkpt>
      <trkpt lat="42.48668" lon="3.07755">
        <ele>449.60000610352</ele>
        <time>2023-07-12T04:56:16.000Z</time>
      </trkpt>
      <trkpt lat="42.48671" lon="3.07752">
        <ele>450.39999389648</ele>
        <time>2023-07-12T04:56:20.000Z</time>
      </trkpt>
      <trkpt lat="42.48672" lon="3.07751">
        <ele>450.60000610352</ele>
        <time>2023-07-12T04:56:22.000Z</time>
      </trkpt>
      <trkpt lat="42.48676" lon="3.07746">
        <ele>451.79998779297</ele>
        <time>2023-07-12T04:56:28.000Z</time>
      </trkpt>
      <trkpt lat="42.48676" lon="3.07745">
        <ele>452.20001220703</ele>
        <time>2023-07-12T04:56:29.000Z</time>
      </trkpt>
      <trkpt lat="42.48678" lon="3.07734">
        <ele>452.79998779297</ele>
        <time>2023-07-12T04:56:37.000Z</time>
      </trkpt>
      <trkpt lat="42.48683" lon="3.07733">
        <ele>453.20001220703</ele>
        <time>2023-07-12T04:56:45.000Z</time>
      </trkpt>
      <trkpt lat="42.48687" lon="3.07728">
        <ele>453.79998779297</ele>
        <time>2023-07-12T04:56:52.000Z</time>
      </trkpt>
      <trkpt lat="42.48688" lon="3.07727">
        <ele>454.20001220703</ele>
        <time>2023-07-12T04:56:53.000Z</time>
      </trkpt>
      <trkpt lat="42.48688" lon="3.07726">
        <ele>455.20001220703</ele>
        <time>2023-07-12T04:56:55.000Z</time>
      </trkpt>
      <trkpt lat="42.4869" lon="3.07723">
        <ele>455.60000610352</ele>
        <time>2023-07-12T04:56:59.000Z</time>
      </trkpt>
      <trkpt lat="42.48692" lon="3.0772">
        <ele>456.39999389648</ele>
        <time>2023-07-12T04:57:03.000Z</time>
      </trkpt>
      <trkpt lat="42.48693" lon="3.07718">
        <ele>456.79998779297</ele>
        <time>2023-07-12T04:57:06.000Z</time>
      </trkpt>
      <trkpt lat="42.48696" lon="3.07712">
        <ele>457.39999389648</ele>
        <time>2023-07-12T04:57:12.000Z</time>
      </trkpt>
      <trkpt lat="42.48696" lon="3.07711">
        <ele>457.60000610352</ele>
        <time>2023-07-12T04:57:13.000Z</time>
      </trkpt>
      <trkpt lat="42.487" lon="3.07703">
        <ele>458.79998779297</ele>
        <time>2023-07-12T04:57:21.000Z</time>
      </trkpt>
      <trkpt lat="42.48701" lon="3.07702">
        <ele>459.60000610352</ele>
        <time>2023-07-12T04:57:23.000Z</time>
      </trkpt>
      <trkpt lat="42.48703" lon="3.077">
        <ele>459.79998779297</ele>
        <time>2023-07-12T04:57:25.000Z</time>
      </trkpt>
      <trkpt lat="42.48706" lon="3.07696">
        <ele>461</ele>
        <time>2023-07-12T04:57:30.000Z</time>
      </trkpt>
      <trkpt lat="42.48707" lon="3.07696">
        <ele>461.20001220703</ele>
        <time>2023-07-12T04:57:31.000Z</time>
      </trkpt>
      <trkpt lat="42.48709" lon="3.07692">
        <ele>462</ele>
        <time>2023-07-12T04:57:38.000Z</time>
      </trkpt>
      <trkpt lat="42.4871" lon="3.0769">
        <ele>462</ele>
        <time>2023-07-12T04:57:39.000Z</time>
      </trkpt>
      <trkpt lat="42.4871" lon="3.07684">
        <ele>462.79998779297</ele>
        <time>2023-07-12T04:57:44.000Z</time>
      </trkpt>
      <trkpt lat="42.4871" lon="3.07683">
        <ele>463.20001220703</ele>
        <time>2023-07-12T04:57:45.000Z</time>
      </trkpt>
      <trkpt lat="42.48711" lon="3.07678">
        <ele>464.20001220703</ele>
        <time>2023-07-12T04:57:49.000Z</time>
      </trkpt>
      <trkpt lat="42.48711" lon="3.07677">
        <ele>464.39999389648</ele>
        <time>2023-07-12T04:57:50.000Z</time>
      </trkpt>
      <trkpt lat="42.48713" lon="3.0767">
        <ele>465.20001220703</ele>
        <time>2023-07-12T04:57:56.000Z</time>
      </trkpt>
      <trkpt lat="42.48713" lon="3.07669">
        <ele>465.39999389648</ele>
        <time>2023-07-12T04:57:57.000Z</time>
      </trkpt>
      <trkpt lat="42.48714" lon="3.07667">
        <ele>466</ele>
        <time>2023-07-12T04:58:04.000Z</time>
      </trkpt>
      <trkpt lat="42.48714" lon="3.07658">
        <ele>466.20001220703</ele>
        <time>2023-07-12T04:58:10.000Z</time>
      </trkpt>
      <trkpt lat="42.48713" lon="3.07657">
        <ele>466.20001220703</ele>
        <time>2023-07-12T04:58:11.000Z</time>
      </trkpt>
      <trkpt lat="42.48711" lon="3.07649">
        <ele>466.60000610352</ele>
        <time>2023-07-12T04:58:17.000Z</time>
      </trkpt>
      <trkpt lat="42.48708" lon="3.07643">
        <ele>466.79998779297</ele>
        <time>2023-07-12T04:58:26.000Z</time>
      </trkpt>
      <trkpt lat="42.48704" lon="3.07637">
        <ele>466.60000610352</ele>
        <time>2023-07-12T04:58:32.000Z</time>
      </trkpt>
      <trkpt lat="42.48701" lon="3.07632">
        <ele>466</ele>
        <time>2023-07-12T04:58:40.000Z</time>
      </trkpt>
      <trkpt lat="42.48699" lon="3.07622">
        <ele>465.60000610352</ele>
        <time>2023-07-12T04:58:47.000Z</time>
      </trkpt>
      <trkpt lat="42.48699" lon="3.07614">
        <ele>466.20001220703</ele>
        <time>2023-07-12T04:58:53.000Z</time>
      </trkpt>
      <trkpt lat="42.48698" lon="3.07608">
        <ele>467.39999389648</ele>
        <time>2023-07-12T04:58:59.000Z</time>
      </trkpt>
      <trkpt lat="42.48698" lon="3.07607">
        <ele>467.39999389648</ele>
        <time>2023-07-12T04:59:00.000Z</time>
      </trkpt>
      <trkpt lat="42.48696" lon="3.07599">
        <ele>468</ele>
        <time>2023-07-12T04:59:06.000Z</time>
      </trkpt>
      <trkpt lat="42.48696" lon="3.07593">
        <ele>468.60000610352</ele>
        <time>2023-07-12T04:59:09.000Z</time>
      </trkpt>
      <trkpt lat="42.48696" lon="3.0759">
        <ele>469</ele>
        <time>2023-07-12T04:59:12.000Z</time>
      </trkpt>
      <trkpt lat="42.48695" lon="3.0758">
        <ele>469.39999389648</ele>
        <time>2023-07-12T04:59:19.000Z</time>
      </trkpt>
      <trkpt lat="42.48695" lon="3.07579">
        <ele>469.60000610352</ele>
        <time>2023-07-12T04:59:20.000Z</time>
      </trkpt>
      <trkpt lat="42.48693" lon="3.07566">
        <ele>469.60000610352</ele>
        <time>2023-07-12T04:59:28.000Z</time>
      </trkpt>
      <trkpt lat="42.48691" lon="3.07558">
        <ele>470</ele>
        <time>2023-07-12T04:59:35.000Z</time>
      </trkpt>
      <trkpt lat="42.48691" lon="3.07554">
        <ele>470.79998779297</ele>
        <time>2023-07-12T04:59:37.000Z</time>
      </trkpt>
      <trkpt lat="42.48691" lon="3.07547">
        <ele>471.39999389648</ele>
        <time>2023-07-12T04:59:42.000Z</time>
      </trkpt>
      <trkpt lat="42.48692" lon="3.07542">
        <ele>471.79998779297</ele>
        <time>2023-07-12T04:59:46.000Z</time>
      </trkpt>
      <trkpt lat="42.48691" lon="3.0754">
        <ele>471.79998779297</ele>
        <time>2023-07-12T04:59:48.000Z</time>
      </trkpt>
      <trkpt lat="42.48688" lon="3.07528">
        <ele>471.20001220703</ele>
        <time>2023-07-12T04:59:55.000Z</time>
      </trkpt>
      <trkpt lat="42.48689" lon="3.07519">
        <ele>471.20001220703</ele>
        <time>2023-07-12T05:00:01.000Z</time>
      </trkpt>
      <trkpt lat="42.48687" lon="3.07512">
        <ele>472</ele>
        <time>2023-07-12T05:00:08.000Z</time>
      </trkpt>
      <trkpt lat="42.48686" lon="3.07505">
        <ele>472.39999389648</ele>
        <time>2023-07-12T05:00:15.000Z</time>
      </trkpt>
      <trkpt lat="42.48686" lon="3.07495">
        <ele>472.60000610352</ele>
        <time>2023-07-12T05:00:24.000Z</time>
      </trkpt>
      <trkpt lat="42.48684" lon="3.07493">
        <ele>473</ele>
        <time>2023-07-12T05:00:27.000Z</time>
      </trkpt>
      <trkpt lat="42.48682" lon="3.07488">
        <ele>473.60000610352</ele>
        <time>2023-07-12T05:00:30.000Z</time>
      </trkpt>
      <trkpt lat="42.4868" lon="3.07485">
        <ele>474</ele>
        <time>2023-07-12T05:00:32.000Z</time>
      </trkpt>
      <trkpt lat="42.48677" lon="3.07481">
        <ele>474.79998779297</ele>
        <time>2023-07-12T05:00:37.000Z</time>
      </trkpt>
      <trkpt lat="42.48675" lon="3.0748">
        <ele>475</ele>
        <time>2023-07-12T05:00:39.000Z</time>
      </trkpt>
      <trkpt lat="42.4867" lon="3.0747">
        <ele>475.39999389648</ele>
        <time>2023-07-12T05:00:46.000Z</time>
      </trkpt>
      <trkpt lat="42.48665" lon="3.07461">
        <ele>475.39999389648</ele>
        <time>2023-07-12T05:00:52.000Z</time>
      </trkpt>
      <trkpt lat="42.48658" lon="3.07453">
        <ele>476.20001220703</ele>
        <time>2023-07-12T05:01:00.000Z</time>
      </trkpt>
      <trkpt lat="42.48657" lon="3.07453">
        <ele>476.39999389648</ele>
        <time>2023-07-12T05:01:02.000Z</time>
      </trkpt>
      <trkpt lat="42.48654" lon="3.07449">
        <ele>477.39999389648</ele>
        <time>2023-07-12T05:01:18.000Z</time>
      </trkpt>
      <trkpt lat="42.48653" lon="3.07451">
        <ele>477.39999389648</ele>
        <time>2023-07-12T05:01:27.000Z</time>
      </trkpt>
      <trkpt lat="42.48659" lon="3.07451">
        <ele>477.60000610352</ele>
        <time>2023-07-12T05:01:49.000Z</time>
      </trkpt>
      <trkpt lat="42.4865" lon="3.07441">
        <ele>478</ele>
        <time>2023-07-12T05:02:01.000Z</time>
      </trkpt>
      <trkpt lat="42.48644" lon="3.07429">
        <ele>478</ele>
        <time>2023-07-12T05:02:09.000Z</time>
      </trkpt>
      <trkpt lat="42.48642" lon="3.07423">
        <ele>478.39999389648</ele>
        <time>2023-07-12T05:02:13.000Z</time>
      </trkpt>
      <trkpt lat="42.48639" lon="3.07414">
        <ele>479</ele>
        <time>2023-07-12T05:02:18.000Z</time>
      </trkpt>
      <trkpt lat="42.48638" lon="3.07409">
        <ele>479.39999389648</ele>
        <time>2023-07-12T05:02:22.000Z</time>
      </trkpt>
      <trkpt lat="42.48637" lon="3.07404">
        <ele>479.60000610352</ele>
        <time>2023-07-12T05:02:25.000Z</time>
      </trkpt>
      <trkpt lat="42.48633" lon="3.07398">
        <ele>480.20001220703</ele>
        <time>2023-07-12T05:02:31.000Z</time>
      </trkpt>
      <trkpt lat="42.48629" lon="3.07389">
        <ele>480.39999389648</ele>
        <time>2023-07-12T05:02:37.000Z</time>
      </trkpt>
      <trkpt lat="42.48628" lon="3.07388">
        <ele>480.60000610352</ele>
        <time>2023-07-12T05:02:38.000Z</time>
      </trkpt>
      <trkpt lat="42.48623" lon="3.07381">
        <ele>481</ele>
        <time>2023-07-12T05:02:45.000Z</time>
      </trkpt>
      <trkpt lat="42.48618" lon="3.07374">
        <ele>481.39999389648</ele>
        <time>2023-07-12T05:02:51.000Z</time>
      </trkpt>
      <trkpt lat="42.48615" lon="3.07365">
        <ele>481.20001220703</ele>
        <time>2023-07-12T05:02:57.000Z</time>
      </trkpt>
      <trkpt lat="42.48611" lon="3.07361">
        <ele>481.39999389648</ele>
        <time>2023-07-12T05:03:02.000Z</time>
      </trkpt>
      <trkpt lat="42.48608" lon="3.07355">
        <ele>482.20001220703</ele>
        <time>2023-07-12T05:03:07.000Z</time>
      </trkpt>
      <trkpt lat="42.48608" lon="3.07354">
        <ele>482.60000610352</ele>
        <time>2023-07-12T05:03:08.000Z</time>
      </trkpt>
      <trkpt lat="42.48605" lon="3.07347">
        <ele>483.79998779297</ele>
        <time>2023-07-12T05:03:16.000Z</time>
      </trkpt>
      <trkpt lat="42.48605" lon="3.07341">
        <ele>484.79998779297</ele>
        <time>2023-07-12T05:03:22.000Z</time>
      </trkpt>
      <trkpt lat="42.48605" lon="3.07339">
        <ele>485.39999389648</ele>
        <time>2023-07-12T05:03:24.000Z</time>
      </trkpt>
      <trkpt lat="42.48604" lon="3.07335">
        <ele>486</ele>
        <time>2023-07-12T05:03:27.000Z</time>
      </trkpt>
      <trkpt lat="42.48603" lon="3.07332">
        <ele>486.60000610352</ele>
        <time>2023-07-12T05:03:32.000Z</time>
      </trkpt>
      <trkpt lat="42.48602" lon="3.07328">
        <ele>487</ele>
        <time>2023-07-12T05:03:35.000Z</time>
      </trkpt>
      <trkpt lat="42.48601" lon="3.07326">
        <ele>487.79998779297</ele>
        <time>2023-07-12T05:03:38.000Z</time>
      </trkpt>
      <trkpt lat="42.48599" lon="3.07316">
        <ele>488.20001220703</ele>
        <time>2023-07-12T05:03:46.000Z</time>
      </trkpt>
      <trkpt lat="42.48597" lon="3.07308">
        <ele>489</ele>
        <time>2023-07-12T05:03:54.000Z</time>
      </trkpt>
      <trkpt lat="42.48596" lon="3.07305">
        <ele>489.39999389648</ele>
        <time>2023-07-12T05:03:57.000Z</time>
      </trkpt>
      <trkpt lat="42.48596" lon="3.07303">
        <ele>489.39999389648</ele>
        <time>2023-07-12T05:04:01.000Z</time>
      </trkpt>
      <trkpt lat="42.48596" lon="3.07293">
        <ele>488.79998779297</ele>
        <time>2023-07-12T05:04:08.000Z</time>
      </trkpt>
      <trkpt lat="42.48596" lon="3.07292">
        <ele>487.60000610352</ele>
        <time>2023-07-12T05:04:10.000Z</time>
      </trkpt>
      <trkpt lat="42.48596" lon="3.07289">
        <ele>487</ele>
        <time>2023-07-12T05:04:14.000Z</time>
      </trkpt>
      <trkpt lat="42.48595" lon="3.07287">
        <ele>486.20001220703</ele>
        <time>2023-07-12T05:04:19.000Z</time>
      </trkpt>
      <trkpt lat="42.48595" lon="3.07284">
        <ele>485.39999389648</ele>
        <time>2023-07-12T05:04:22.000Z</time>
      </trkpt>
      <trkpt lat="42.48595" lon="3.07283">
        <ele>484.39999389648</ele>
        <time>2023-07-12T05:04:23.000Z</time>
      </trkpt>
      <trkpt lat="42.48595" lon="3.07281">
        <ele>483.20001220703</ele>
        <time>2023-07-12T05:04:25.000Z</time>
      </trkpt>
      <trkpt lat="42.48594" lon="3.07277">
        <ele>482.39999389648</ele>
        <time>2023-07-12T05:04:30.000Z</time>
      </trkpt>
      <trkpt lat="42.48594" lon="3.07277">
        <ele>482.20001220703</ele>
        <time>2023-07-12T05:04:31.000Z</time>
      </trkpt>
      <trkpt lat="42.48593" lon="3.07269">
        <ele>481.79998779297</ele>
        <time>2023-07-12T05:04:36.000Z</time>
      </trkpt>
      <trkpt lat="42.48592" lon="3.07265">
        <ele>481</ele>
        <time>2023-07-12T05:04:38.000Z</time>
      </trkpt>
      <trkpt lat="42.4859" lon="3.07261">
        <ele>479.79998779297</ele>
        <time>2023-07-12T05:04:42.000Z</time>
      </trkpt>
      <trkpt lat="42.48589" lon="3.07259">
        <ele>479.60000610352</ele>
        <time>2023-07-12T05:04:44.000Z</time>
      </trkpt>
      <trkpt lat="42.48584" lon="3.07254">
        <ele>478.39999389648</ele>
        <time>2023-07-12T05:04:55.000Z</time>
      </trkpt>
      <trkpt lat="42.48582" lon="3.0725">
        <ele>477.39999389648</ele>
        <time>2023-07-12T05:05:00.000Z</time>
      </trkpt>
      <trkpt lat="42.4858" lon="3.07247">
        <ele>477.20001220703</ele>
        <time>2023-07-12T05:05:02.000Z</time>
      </trkpt>
      <trkpt lat="42.48575" lon="3.07243">
        <ele>476.20001220703</ele>
        <time>2023-07-12T05:05:08.000Z</time>
      </trkpt>
      <trkpt lat="42.48573" lon="3.07242">
        <ele>476</ele>
        <time>2023-07-12T05:05:09.000Z</time>
      </trkpt>
      <trkpt lat="42.4857" lon="3.07238">
        <ele>475.20001220703</ele>
        <time>2023-07-12T05:05:14.000Z</time>
      </trkpt>
      <trkpt lat="42.48569" lon="3.07238">
        <ele>475.20001220703</ele>
        <time>2023-07-12T05:05:16.000Z</time>
      </trkpt>
      <trkpt lat="42.48569" lon="3.07236">
        <ele>474.20001220703</ele>
        <time>2023-07-12T05:05:19.000Z</time>
      </trkpt>
      <trkpt lat="42.48567" lon="3.07234">
        <ele>473.60000610352</ele>
        <time>2023-07-12T05:05:25.000Z</time>
      </trkpt>
      <trkpt lat="42.48565" lon="3.07233">
        <ele>473</ele>
        <time>2023-07-12T05:05:27.000Z</time>
      </trkpt>
      <trkpt lat="42.48564" lon="3.07229">
        <ele>472</ele>
        <time>2023-07-12T05:05:36.000Z</time>
      </trkpt>
      <trkpt lat="42.48562" lon="3.07225">
        <ele>471</ele>
        <time>2023-07-12T05:05:40.000Z</time>
      </trkpt>
      <trkpt lat="42.48561" lon="3.07223">
        <ele>470.79998779297</ele>
        <time>2023-07-12T05:05:41.000Z</time>
      </trkpt>
      <trkpt lat="42.4856" lon="3.07221">
        <ele>470.39999389648</ele>
        <time>2023-07-12T05:05:46.000Z</time>
      </trkpt>
      <trkpt lat="42.48557" lon="3.07214">
        <ele>470</ele>
        <time>2023-07-12T05:05:53.000Z</time>
      </trkpt>
      <trkpt lat="42.48554" lon="3.07209">
        <ele>469</ele>
        <time>2023-07-12T05:05:57.000Z</time>
      </trkpt>
      <trkpt lat="42.48552" lon="3.07207">
        <ele>468</ele>
        <time>2023-07-12T05:06:01.000Z</time>
      </trkpt>
      <trkpt lat="42.48552" lon="3.07207">
        <ele>467.79998779297</ele>
        <time>2023-07-12T05:06:02.000Z</time>
      </trkpt>
      <trkpt lat="42.48551" lon="3.07201">
        <ele>467.20001220703</ele>
        <time>2023-07-12T05:06:12.000Z</time>
      </trkpt>
      <trkpt lat="42.4855" lon="3.07197">
        <ele>466.60000610352</ele>
        <time>2023-07-12T05:06:17.000Z</time>
      </trkpt>
      <trkpt lat="42.4855" lon="3.07196">
        <ele>466.20001220703</ele>
        <time>2023-07-12T05:06:18.000Z</time>
      </trkpt>
      <trkpt lat="42.48547" lon="3.07188">
        <ele>465.60000610352</ele>
        <time>2023-07-12T05:06:24.000Z</time>
      </trkpt>
      <trkpt lat="42.48545" lon="3.07185">
        <ele>465.39999389648</ele>
        <time>2023-07-12T05:06:26.000Z</time>
      </trkpt>
      <trkpt lat="42.48539" lon="3.07178">
        <ele>464.79998779297</ele>
        <time>2023-07-12T05:06:33.000Z</time>
      </trkpt>
      <trkpt lat="42.48536" lon="3.07174">
        <ele>464.60000610352</ele>
        <time>2023-07-12T05:06:44.000Z</time>
      </trkpt>
      <trkpt lat="42.48534" lon="3.07172">
        <ele>464.39999389648</ele>
        <time>2023-07-12T05:06:46.000Z</time>
      </trkpt>
      <trkpt lat="42.48531" lon="3.07167">
        <ele>463.79998779297</ele>
        <time>2023-07-12T05:06:52.000Z</time>
      </trkpt>
      <trkpt lat="42.48531" lon="3.07164">
        <ele>463.39999389648</ele>
        <time>2023-07-12T05:06:56.000Z</time>
      </trkpt>
      <trkpt lat="42.48529" lon="3.07163">
        <ele>463</ele>
        <time>2023-07-12T05:06:59.000Z</time>
      </trkpt>
      <trkpt lat="42.48529" lon="3.07163">
        <ele>462.20001220703</ele>
        <time>2023-07-12T05:07:02.000Z</time>
      </trkpt>
      <trkpt lat="42.48529" lon="3.0716">
        <ele>461.60000610352</ele>
        <time>2023-07-12T05:07:06.000Z</time>
      </trkpt>
      <trkpt lat="42.48528" lon="3.07157">
        <ele>461.20001220703</ele>
        <time>2023-07-12T05:07:08.000Z</time>
      </trkpt>
      <trkpt lat="42.48527" lon="3.07154">
        <ele>460</ele>
        <time>2023-07-12T05:07:13.000Z</time>
      </trkpt>
      <trkpt lat="42.48523" lon="3.07147">
        <ele>459</ele>
        <time>2023-07-12T05:07:20.000Z</time>
      </trkpt>
      <trkpt lat="42.48523" lon="3.07145">
        <ele>458.60000610352</ele>
        <time>2023-07-12T05:07:22.000Z</time>
      </trkpt>
      <trkpt lat="42.48523" lon="3.07143">
        <ele>457.79998779297</ele>
        <time>2023-07-12T05:07:26.000Z</time>
      </trkpt>
      <trkpt lat="42.48521" lon="3.07137">
        <ele>457</ele>
        <time>2023-07-12T05:07:30.000Z</time>
      </trkpt>
      <trkpt lat="42.4852" lon="3.07135">
        <ele>456.79998779297</ele>
        <time>2023-07-12T05:07:32.000Z</time>
      </trkpt>
      <trkpt lat="42.48515" lon="3.07134">
        <ele>456.39999389648</ele>
        <time>2023-07-12T05:07:37.000Z</time>
      </trkpt>
      <trkpt lat="42.48505" lon="3.07135">
        <ele>457.39999389648</ele>
        <time>2023-07-12T05:07:46.000Z</time>
      </trkpt>
      <trkpt lat="42.48503" lon="3.07137">
        <ele>458</ele>
        <time>2023-07-12T05:07:49.000Z</time>
      </trkpt>
      <trkpt lat="42.48503" lon="3.07137">
        <ele>458</ele>
        <time>2023-07-12T05:07:51.000Z</time>
      </trkpt>
      <trkpt lat="42.48504" lon="3.07136">
        <ele>458</ele>
        <time>2023-07-12T05:07:53.000Z</time>
      </trkpt>
      <trkpt lat="42.48504" lon="3.07134">
        <ele>457.39999389648</ele>
        <time>2023-07-12T05:07:57.000Z</time>
      </trkpt>
      <trkpt lat="42.48502" lon="3.07133">
        <ele>456.79998779297</ele>
        <time>2023-07-12T05:08:00.000Z</time>
      </trkpt>
      <trkpt lat="42.48497" lon="3.07136">
        <ele>456.20001220703</ele>
        <time>2023-07-12T05:08:06.000Z</time>
      </trkpt>
      <trkpt lat="42.48492" lon="3.07142">
        <ele>455.39999389648</ele>
        <time>2023-07-12T05:08:12.000Z</time>
      </trkpt>
      <trkpt lat="42.48491" lon="3.07143">
        <ele>455.39999389648</ele>
        <time>2023-07-12T05:08:14.000Z</time>
      </trkpt>
      <trkpt lat="42.48487" lon="3.07145">
        <ele>455.39999389648</ele>
        <time>2023-07-12T05:08:20.000Z</time>
      </trkpt>
      <trkpt lat="42.48479" lon="3.07143">
        <ele>454</ele>
        <time>2023-07-12T05:08:32.000Z</time>
      </trkpt>
      <trkpt lat="42.48478" lon="3.07143">
        <ele>454</ele>
        <time>2023-07-12T05:08:33.000Z</time>
      </trkpt>
      <trkpt lat="42.48462" lon="3.07133">
        <ele>449.79998779297</ele>
        <time>2023-07-12T05:09:00.000Z</time>
      </trkpt>
      <trkpt lat="42.48461" lon="3.07132">
        <ele>449.79998779297</ele>
        <time>2023-07-12T05:09:01.000Z</time>
      </trkpt>
      <trkpt lat="42.4846" lon="3.07132">
        <ele>448.79998779297</ele>
        <time>2023-07-12T05:09:06.000Z</time>
      </trkpt>
      <trkpt lat="42.4846" lon="3.07132">
        <ele>448.20001220703</ele>
        <time>2023-07-12T05:09:08.000Z</time>
      </trkpt>
      <trkpt lat="42.48461" lon="3.07132">
        <ele>447.60000610352</ele>
        <time>2023-07-12T05:09:11.000Z</time>
      </trkpt>
      <trkpt lat="42.48461" lon="3.07131">
        <ele>447</ele>
        <time>2023-07-12T05:09:18.000Z</time>
      </trkpt>
      <trkpt lat="42.48461" lon="3.07132">
        <ele>446.60000610352</ele>
        <time>2023-07-12T05:09:24.000Z</time>
      </trkpt>
      <trkpt lat="42.48459" lon="3.07129">
        <ele>445.79998779297</ele>
        <time>2023-07-12T05:09:31.000Z</time>
      </trkpt>
      <trkpt lat="42.48457" lon="3.07121">
        <ele>445.39999389648</ele>
        <time>2023-07-12T05:09:43.000Z</time>
      </trkpt>
      <trkpt lat="42.48459" lon="3.07121">
        <ele>445.79998779297</ele>
        <time>2023-07-12T05:09:50.000Z</time>
      </trkpt>
      <trkpt lat="42.48462" lon="3.07127">
        <ele>446</ele>
        <time>2023-07-12T05:09:58.000Z</time>
      </trkpt>
      <trkpt lat="42.48463" lon="3.07134">
        <ele>445.60000610352</ele>
        <time>2023-07-12T05:10:06.000Z</time>
      </trkpt>
      <trkpt lat="42.4846" lon="3.07132">
        <ele>446.60000610352</ele>
        <time>2023-07-12T05:10:17.000Z</time>
      </trkpt>
      <trkpt lat="42.4846" lon="3.07132">
        <ele>446.60000610352</ele>
        <time>2023-07-12T05:10:20.000Z</time>
      </trkpt>
      <trkpt lat="42.48458" lon="3.07127">
        <ele>446.60000610352</ele>
        <time>2023-07-12T05:10:25.000Z</time>
      </trkpt>
      <trkpt lat="42.4846" lon="3.07124">
        <ele>446</ele>
        <time>2023-07-12T05:10:31.000Z</time>
      </trkpt>
      <trkpt lat="42.4846" lon="3.07123">
        <ele>445.60000610352</ele>
        <time>2023-07-12T05:10:33.000Z</time>
      </trkpt>
      <trkpt lat="42.48459" lon="3.07122">
        <ele>444.20001220703</ele>
        <time>2023-07-12T05:10:37.000Z</time>
      </trkpt>
      <trkpt lat="42.48458" lon="3.07121">
        <ele>443.79998779297</ele>
        <time>2023-07-12T05:10:39.000Z</time>
      </trkpt>
      <trkpt lat="42.48458" lon="3.07121">
        <ele>443</ele>
        <time>2023-07-12T05:10:42.000Z</time>
      </trkpt>
      <trkpt lat="42.48457" lon="3.07118">
        <ele>442.20001220703</ele>
        <time>2023-07-12T05:10:45.000Z</time>
      </trkpt>
      <trkpt lat="42.48456" lon="3.07116">
        <ele>441.79998779297</ele>
        <time>2023-07-12T05:10:46.000Z</time>
      </trkpt>
      <trkpt lat="42.48455" lon="3.07115">
        <ele>440.79998779297</ele>
        <time>2023-07-12T05:10:49.000Z</time>
      </trkpt>
      <trkpt lat="42.48452" lon="3.07113">
        <ele>439.79998779297</ele>
        <time>2023-07-12T05:10:52.000Z</time>
      </trkpt>
      <trkpt lat="42.48451" lon="3.07113">
        <ele>439.39999389648</ele>
        <time>2023-07-12T05:10:53.000Z</time>
      </trkpt>
      <trkpt lat="42.48437" lon="3.07101">
        <ele>436.79998779297</ele>
        <time>2023-07-12T05:11:09.000Z</time>
      </trkpt>
      <trkpt lat="42.48435" lon="3.071">
        <ele>436.39999389648</ele>
        <time>2023-07-12T05:11:14.000Z</time>
      </trkpt>
      <trkpt lat="42.48432" lon="3.07097">
        <ele>436.39999389648</ele>
        <time>2023-07-12T05:11:18.000Z</time>
      </trkpt>
      <trkpt lat="42.48426" lon="3.07092">
        <ele>436.20001220703</ele>
        <time>2023-07-12T05:11:24.000Z</time>
      </trkpt>
      <trkpt lat="42.48421" lon="3.07087">
        <ele>435.39999389648</ele>
        <time>2023-07-12T05:11:31.000Z</time>
      </trkpt>
      <trkpt lat="42.4842" lon="3.07085">
        <ele>435.39999389648</ele>
        <time>2023-07-12T05:11:32.000Z</time>
      </trkpt>
      <trkpt lat="42.48417" lon="3.07079">
        <ele>435</ele>
        <time>2023-07-12T05:11:37.000Z</time>
      </trkpt>
      <trkpt lat="42.48409" lon="3.07072">
        <ele>435</ele>
        <time>2023-07-12T05:11:46.000Z</time>
      </trkpt>
      <trkpt lat="42.48371" lon="3.07061">
        <ele>433.79998779297</ele>
        <time>2023-07-12T05:12:25.000Z</time>
      </trkpt>
      <trkpt lat="42.4837" lon="3.07058">
        <ele>433</ele>
        <time>2023-07-12T05:12:28.000Z</time>
      </trkpt>
      <trkpt lat="42.48369" lon="3.07058">
        <ele>432.79998779297</ele>
        <time>2023-07-12T05:12:29.000Z</time>
      </trkpt>
      <trkpt lat="42.48369" lon="3.07055">
        <ele>431.79998779297</ele>
        <time>2023-07-12T05:12:31.000Z</time>
      </trkpt>
      <trkpt lat="42.48368" lon="3.07051">
        <ele>430.60000610352</ele>
        <time>2023-07-12T05:12:37.000Z</time>
      </trkpt>
      <trkpt lat="42.48367" lon="3.0705">
        <ele>430</ele>
        <time>2023-07-12T05:12:38.000Z</time>
      </trkpt>
      <trkpt lat="42.48367" lon="3.07048">
        <ele>429.20001220703</ele>
        <time>2023-07-12T05:12:40.000Z</time>
      </trkpt>
      <trkpt lat="42.48362" lon="3.07041">
        <ele>429.20001220703</ele>
        <time>2023-07-12T05:12:46.000Z</time>
      </trkpt>
      <trkpt lat="42.48351" lon="3.07037">
        <ele>427.20001220703</ele>
        <time>2023-07-12T05:12:59.000Z</time>
      </trkpt>
      <trkpt lat="42.4835" lon="3.07037">
        <ele>427.20001220703</ele>
        <time>2023-07-12T05:13:00.000Z</time>
      </trkpt>
      <trkpt lat="42.4835" lon="3.07036">
        <ele>427</ele>
        <time>2023-07-12T05:13:01.000Z</time>
      </trkpt>
      <trkpt lat="42.4835" lon="3.07035">
        <ele>425</ele>
        <time>2023-07-12T05:13:03.000Z</time>
      </trkpt>
      <trkpt lat="42.48352" lon="3.07036">
        <ele>423.79998779297</ele>
        <time>2023-07-12T05:13:05.000Z</time>
      </trkpt>
      <trkpt lat="42.48353" lon="3.07036">
        <ele>423.79998779297</ele>
        <time>2023-07-12T05:13:06.000Z</time>
      </trkpt>
      <trkpt lat="42.48354" lon="3.07036">
        <ele>423.60000610352</ele>
        <time>2023-07-12T05:13:07.000Z</time>
      </trkpt>
      <trkpt lat="42.48356" lon="3.07035">
        <ele>422.60000610352</ele>
        <time>2023-07-12T05:13:09.000Z</time>
      </trkpt>
      <trkpt lat="42.4836" lon="3.07029">
        <ele>422</ele>
        <time>2023-07-12T05:13:15.000Z</time>
      </trkpt>
      <trkpt lat="42.4836" lon="3.07026">
        <ele>421.60000610352</ele>
        <time>2023-07-12T05:13:17.000Z</time>
      </trkpt>
      <trkpt lat="42.48362" lon="3.07021">
        <ele>420</ele>
        <time>2023-07-12T05:13:20.000Z</time>
      </trkpt>
      <trkpt lat="42.48363" lon="3.0702">
        <ele>419.79998779297</ele>
        <time>2023-07-12T05:13:21.000Z</time>
      </trkpt>
      <trkpt lat="42.48362" lon="3.07017">
        <ele>418.39999389648</ele>
        <time>2023-07-12T05:13:24.000Z</time>
      </trkpt>
      <trkpt lat="42.48357" lon="3.07007">
        <ele>417.60000610352</ele>
        <time>2023-07-12T05:13:30.000Z</time>
      </trkpt>
      <trkpt lat="42.48358" lon="3.07006">
        <ele>417.20001220703</ele>
        <time>2023-07-12T05:13:31.000Z</time>
      </trkpt>
      <trkpt lat="42.48358" lon="3.06999">
        <ele>416.20001220703</ele>
        <time>2023-07-12T05:13:35.000Z</time>
      </trkpt>
      <trkpt lat="42.48357" lon="3.06997">
        <ele>415.60000610352</ele>
        <time>2023-07-12T05:13:36.000Z</time>
      </trkpt>
      <trkpt lat="42.48357" lon="3.06991">
        <ele>415</ele>
        <time>2023-07-12T05:13:39.000Z</time>
      </trkpt>
      <trkpt lat="42.48354" lon="3.06981">
        <ele>414.79998779297</ele>
        <time>2023-07-12T05:13:45.000Z</time>
      </trkpt>
      <trkpt lat="42.48349" lon="3.06976">
        <ele>415.20001220703</ele>
        <time>2023-07-12T05:13:51.000Z</time>
      </trkpt>
      <trkpt lat="42.48345" lon="3.0697">
        <ele>416.20001220703</ele>
        <time>2023-07-12T05:13:56.000Z</time>
      </trkpt>
      <trkpt lat="42.48342" lon="3.06966">
        <ele>416.20001220703</ele>
        <time>2023-07-12T05:14:00.000Z</time>
      </trkpt>
      <trkpt lat="42.48336" lon="3.06957">
        <ele>416.20001220703</ele>
        <time>2023-07-12T05:14:08.000Z</time>
      </trkpt>
      <trkpt lat="42.48333" lon="3.06951">
        <ele>415.79998779297</ele>
        <time>2023-07-12T05:14:16.000Z</time>
      </trkpt>
      <trkpt lat="42.48331" lon="3.06948">
        <ele>415</ele>
        <time>2023-07-12T05:14:18.000Z</time>
      </trkpt>
      <trkpt lat="42.48326" lon="3.06942">
        <ele>414.20001220703</ele>
        <time>2023-07-12T05:14:25.000Z</time>
      </trkpt>
      <trkpt lat="42.48327" lon="3.06943">
        <ele>414.20001220703</ele>
        <time>2023-07-12T05:14:33.000Z</time>
      </trkpt>
      <trkpt lat="42.48327" lon="3.06943">
        <ele>414</ele>
        <time>2023-07-12T05:14:34.000Z</time>
      </trkpt>
      <trkpt lat="42.48327" lon="3.06943">
        <ele>414</ele>
        <time>2023-07-12T05:14:35.000Z</time>
      </trkpt>
      <trkpt lat="42.48328" lon="3.06942">
        <ele>413.60000610352</ele>
        <time>2023-07-12T05:14:44.000Z</time>
      </trkpt>
      <trkpt lat="42.48327" lon="3.06942">
        <ele>414.20001220703</ele>
        <time>2023-07-12T05:14:52.000Z</time>
      </trkpt>
      <trkpt lat="42.48329" lon="3.06942">
        <ele>414.20001220703</ele>
        <time>2023-07-12T05:14:59.000Z</time>
      </trkpt>
      <trkpt lat="42.4833" lon="3.06943">
        <ele>413.79998779297</ele>
        <time>2023-07-12T05:15:06.000Z</time>
      </trkpt>
      <trkpt lat="42.48327" lon="3.0694">
        <ele>413.39999389648</ele>
        <time>2023-07-12T05:15:16.000Z</time>
      </trkpt>
      <trkpt lat="42.48326" lon="3.06941">
        <ele>413</ele>
        <time>2023-07-12T05:15:19.000Z</time>
      </trkpt>
      <trkpt lat="42.48326" lon="3.06942">
        <ele>412.60000610352</ele>
        <time>2023-07-12T05:15:24.000Z</time>
      </trkpt>
      <trkpt lat="42.48328" lon="3.0694">
        <ele>413</ele>
        <time>2023-07-12T05:15:34.000Z</time>
      </trkpt>
      <trkpt lat="42.48329" lon="3.06944">
        <ele>413.20001220703</ele>
        <time>2023-07-12T05:15:45.000Z</time>
      </trkpt>
      <trkpt lat="42.4833" lon="3.06944">
        <ele>413</ele>
        <time>2023-07-12T05:15:52.000Z</time>
      </trkpt>
      <trkpt lat="42.48332" lon="3.06934">
        <ele>413</ele>
        <time>2023-07-12T05:15:58.000Z</time>
      </trkpt>
      <trkpt lat="42.48334" lon="3.06919">
        <ele>412.39999389648</ele>
        <time>2023-07-12T05:16:06.000Z</time>
      </trkpt>
      <trkpt lat="42.48335" lon="3.06911">
        <ele>412</ele>
        <time>2023-07-12T05:16:10.000Z</time>
      </trkpt>
      <trkpt lat="42.48336" lon="3.06906">
        <ele>410.20001220703</ele>
        <time>2023-07-12T05:16:13.000Z</time>
      </trkpt>
      <trkpt lat="42.48336" lon="3.06903">
        <ele>409.79998779297</ele>
        <time>2023-07-12T05:16:15.000Z</time>
      </trkpt>
      <trkpt lat="42.48336" lon="3.06896">
        <ele>408.79998779297</ele>
        <time>2023-07-12T05:16:21.000Z</time>
      </trkpt>
      <trkpt lat="42.48337" lon="3.06894">
        <ele>408.39999389648</ele>
        <time>2023-07-12T05:16:22.000Z</time>
      </trkpt>
      <trkpt lat="42.48337" lon="3.06891">
        <ele>407.79998779297</ele>
        <time>2023-07-12T05:16:24.000Z</time>
      </trkpt>
      <trkpt lat="42.48337" lon="3.06886">
        <ele>406.60000610352</ele>
        <time>2023-07-12T05:16:27.000Z</time>
      </trkpt>
      <trkpt lat="42.48338" lon="3.06882">
        <ele>405.79998779297</ele>
        <time>2023-07-12T05:16:29.000Z</time>
      </trkpt>
      <trkpt lat="42.48339" lon="3.06881">
        <ele>405.60000610352</ele>
        <time>2023-07-12T05:16:30.000Z</time>
      </trkpt>
      <trkpt lat="42.48341" lon="3.06872">
        <ele>405</ele>
        <time>2023-07-12T05:16:38.000Z</time>
      </trkpt>
      <trkpt lat="42.48341" lon="3.0687">
        <ele>405</ele>
        <time>2023-07-12T05:16:45.000Z</time>
      </trkpt>
      <trkpt lat="42.48342" lon="3.06861">
        <ele>404.39999389648</ele>
        <time>2023-07-12T05:16:50.000Z</time>
      </trkpt>
      <trkpt lat="42.48342" lon="3.06856">
        <ele>404.20001220703</ele>
        <time>2023-07-12T05:16:52.000Z</time>
      </trkpt>
      <trkpt lat="42.48344" lon="3.06839">
        <ele>403.39999389648</ele>
        <time>2023-07-12T05:17:00.000Z</time>
      </trkpt>
      <trkpt lat="42.48344" lon="3.06837">
        <ele>403.20001220703</ele>
        <time>2023-07-12T05:17:01.000Z</time>
      </trkpt>
      <trkpt lat="42.48344" lon="3.06828">
        <ele>402.20001220703</ele>
        <time>2023-07-12T05:17:08.000Z</time>
      </trkpt>
      <trkpt lat="42.48343" lon="3.06826">
        <ele>402.20001220703</ele>
        <time>2023-07-12T05:17:09.000Z</time>
      </trkpt>
      <trkpt lat="42.48345" lon="3.06816">
        <ele>402</ele>
        <time>2023-07-12T05:17:16.000Z</time>
      </trkpt>
      <trkpt lat="42.48346" lon="3.06802">
        <ele>402</ele>
        <time>2023-07-12T05:17:24.000Z</time>
      </trkpt>
      <trkpt lat="42.48342" lon="3.06789">
        <ele>402.20001220703</ele>
        <time>2023-07-12T05:17:32.000Z</time>
      </trkpt>
      <trkpt lat="42.48334" lon="3.06777">
        <ele>402</ele>
        <time>2023-07-12T05:17:39.000Z</time>
      </trkpt>
      <trkpt lat="42.48324" lon="3.06768">
        <ele>402.20001220703</ele>
        <time>2023-07-12T05:17:48.000Z</time>
      </trkpt>
      <trkpt lat="42.48266" lon="3.06742">
        <ele>403</ele>
        <time>2023-07-12T05:18:39.000Z</time>
      </trkpt>
      <trkpt lat="42.48261" lon="3.06739">
        <ele>403.20001220703</ele>
        <time>2023-07-12T05:18:43.000Z</time>
      </trkpt>
      <trkpt lat="42.48252" lon="3.06732">
        <ele>403.39999389648</ele>
        <time>2023-07-12T05:18:51.000Z</time>
      </trkpt>
      <trkpt lat="42.48243" lon="3.06719">
        <ele>403.79998779297</ele>
        <time>2023-07-12T05:18:59.000Z</time>
      </trkpt>
      <trkpt lat="42.48241" lon="3.06715">
        <ele>403.79998779297</ele>
        <time>2023-07-12T05:19:06.000Z</time>
      </trkpt>
      <trkpt lat="42.48236" lon="3.06703">
        <ele>404</ele>
        <time>2023-07-12T05:19:15.000Z</time>
      </trkpt>
      <trkpt lat="42.48234" lon="3.06694">
        <ele>403.79998779297</ele>
        <time>2023-07-12T05:19:20.000Z</time>
      </trkpt>
      <trkpt lat="42.4823" lon="3.06685">
        <ele>404.20001220703</ele>
        <time>2023-07-12T05:19:27.000Z</time>
      </trkpt>
      <trkpt lat="42.48221" lon="3.06673">
        <ele>405</ele>
        <time>2023-07-12T05:19:34.000Z</time>
      </trkpt>
      <trkpt lat="42.48213" lon="3.06664">
        <ele>404.79998779297</ele>
        <time>2023-07-12T05:19:41.000Z</time>
      </trkpt>
      <trkpt lat="42.48206" lon="3.06655">
        <ele>404.79998779297</ele>
        <time>2023-07-12T05:19:49.000Z</time>
      </trkpt>
      <trkpt lat="42.48205" lon="3.06648">
        <ele>404.79998779297</ele>
        <time>2023-07-12T05:19:55.000Z</time>
      </trkpt>
      <trkpt lat="42.48205" lon="3.06636">
        <ele>404.79998779297</ele>
        <time>2023-07-12T05:20:03.000Z</time>
      </trkpt>
      <trkpt lat="42.48205" lon="3.06624">
        <ele>404.79998779297</ele>
        <time>2023-07-12T05:20:11.000Z</time>
      </trkpt>
      <trkpt lat="42.48207" lon="3.06613">
        <ele>404.60000610352</ele>
        <time>2023-07-12T05:20:19.000Z</time>
      </trkpt>
      <trkpt lat="42.48208" lon="3.06599">
        <ele>404.79998779297</ele>
        <time>2023-07-12T05:20:27.000Z</time>
      </trkpt>
      <trkpt lat="42.48208" lon="3.06581">
        <ele>405</ele>
        <time>2023-07-12T05:20:37.000Z</time>
      </trkpt>
      <trkpt lat="42.48211" lon="3.06567">
        <ele>404.79998779297</ele>
        <time>2023-07-12T05:20:45.000Z</time>
      </trkpt>
      <trkpt lat="42.48209" lon="3.06552">
        <ele>405.20001220703</ele>
        <time>2023-07-12T05:20:53.000Z</time>
      </trkpt>
      <trkpt lat="42.48207" lon="3.06536">
        <ele>404.79998779297</ele>
        <time>2023-07-12T05:21:02.000Z</time>
      </trkpt>
      <trkpt lat="42.48205" lon="3.06525">
        <ele>405.79998779297</ele>
        <time>2023-07-12T05:21:09.000Z</time>
      </trkpt>
      <trkpt lat="42.48206" lon="3.06512">
        <ele>405.60000610352</ele>
        <time>2023-07-12T05:21:17.000Z</time>
      </trkpt>
      <trkpt lat="42.48205" lon="3.06496">
        <ele>405.39999389648</ele>
        <time>2023-07-12T05:21:25.000Z</time>
      </trkpt>
      <trkpt lat="42.48205" lon="3.06489">
        <ele>405</ele>
        <time>2023-07-12T05:21:31.000Z</time>
      </trkpt>
      <trkpt lat="42.48205" lon="3.06475">
        <ele>404.79998779297</ele>
        <time>2023-07-12T05:21:40.000Z</time>
      </trkpt>
      <trkpt lat="42.48207" lon="3.06464">
        <ele>405.20001220703</ele>
        <time>2023-07-12T05:21:46.000Z</time>
      </trkpt>
      <trkpt lat="42.48209" lon="3.0645">
        <ele>405.60000610352</ele>
        <time>2023-07-12T05:21:54.000Z</time>
      </trkpt>
      <trkpt lat="42.4821" lon="3.06433">
        <ele>404.79998779297</ele>
        <time>2023-07-12T05:22:04.000Z</time>
      </trkpt>
      <trkpt lat="42.48209" lon="3.06427">
        <ele>405.20001220703</ele>
        <time>2023-07-12T05:22:11.000Z</time>
      </trkpt>
      <trkpt lat="42.48204" lon="3.0642">
        <ele>405.20001220703</ele>
        <time>2023-07-12T05:22:17.000Z</time>
      </trkpt>
      <trkpt lat="42.4819" lon="3.06421">
        <ele>405.60000610352</ele>
        <time>2023-07-12T05:22:27.000Z</time>
      </trkpt>
      <trkpt lat="42.48181" lon="3.06425">
        <ele>406.20001220703</ele>
        <time>2023-07-12T05:22:35.000Z</time>
      </trkpt>
      <trkpt lat="42.4818" lon="3.06425">
        <ele>406.39999389648</ele>
        <time>2023-07-12T05:22:36.000Z</time>
      </trkpt>
      <trkpt lat="42.48173" lon="3.06427">
        <ele>406.60000610352</ele>
        <time>2023-07-12T05:22:43.000Z</time>
      </trkpt>
      <trkpt lat="42.48164" lon="3.0643">
        <ele>407.39999389648</ele>
        <time>2023-07-12T05:22:52.000Z</time>
      </trkpt>
      <trkpt lat="42.48158" lon="3.06434">
        <ele>408</ele>
        <time>2023-07-12T05:22:57.000Z</time>
      </trkpt>
      <trkpt lat="42.48155" lon="3.06436">
        <ele>408.39999389648</ele>
        <time>2023-07-12T05:23:00.000Z</time>
      </trkpt>
      <trkpt lat="42.48147" lon="3.06438">
        <ele>409</ele>
        <time>2023-07-12T05:23:06.000Z</time>
      </trkpt>
      <trkpt lat="42.48115" lon="3.06436">
        <ele>411.60000610352</ele>
        <time>2023-07-12T05:23:33.000Z</time>
      </trkpt>
      <trkpt lat="42.4811" lon="3.06436">
        <ele>412.60000610352</ele>
        <time>2023-07-12T05:23:39.000Z</time>
      </trkpt>
      <trkpt lat="42.48103" lon="3.06436">
        <ele>413.60000610352</ele>
        <time>2023-07-12T05:23:47.000Z</time>
      </trkpt>
      <trkpt lat="42.48102" lon="3.06437">
        <ele>413.79998779297</ele>
        <time>2023-07-12T05:23:48.000Z</time>
      </trkpt>
      <trkpt lat="42.48092" lon="3.06437">
        <ele>415</ele>
        <time>2023-07-12T05:23:59.000Z</time>
      </trkpt>
      <trkpt lat="42.4804" lon="3.0642">
        <ele>420</ele>
        <time>2023-07-12T05:24:49.000Z</time>
      </trkpt>
      <trkpt lat="42.48028" lon="3.06408">
        <ele>420.60000610352</ele>
        <time>2023-07-12T05:25:02.000Z</time>
      </trkpt>
      <trkpt lat="42.48023" lon="3.06394">
        <ele>421.20001220703</ele>
        <time>2023-07-12T05:25:12.000Z</time>
      </trkpt>
      <trkpt lat="42.48022" lon="3.06393">
        <ele>421.60000610352</ele>
        <time>2023-07-12T05:25:13.000Z</time>
      </trkpt>
      <trkpt lat="42.48019" lon="3.06388">
        <ele>422.60000610352</ele>
        <time>2023-07-12T05:25:20.000Z</time>
      </trkpt>
      <trkpt lat="42.48018" lon="3.06387">
        <ele>422.79998779297</ele>
        <time>2023-07-12T05:25:21.000Z</time>
      </trkpt>
      <trkpt lat="42.48016" lon="3.0638">
        <ele>423.79998779297</ele>
        <time>2023-07-12T05:25:27.000Z</time>
      </trkpt>
      <trkpt lat="42.48015" lon="3.06379">
        <ele>424</ele>
        <time>2023-07-12T05:25:28.000Z</time>
      </trkpt>
      <trkpt lat="42.48007" lon="3.06367">
        <ele>424.79998779297</ele>
        <time>2023-07-12T05:25:37.000Z</time>
      </trkpt>
      <trkpt lat="42.48005" lon="3.06366">
        <ele>425.20001220703</ele>
        <time>2023-07-12T05:25:39.000Z</time>
      </trkpt>
      <trkpt lat="42.48001" lon="3.06359">
        <ele>426</ele>
        <time>2023-07-12T05:25:46.000Z</time>
      </trkpt>
      <trkpt lat="42.47999" lon="3.06356">
        <ele>426.20001220703</ele>
        <time>2023-07-12T05:25:48.000Z</time>
      </trkpt>
      <trkpt lat="42.47995" lon="3.0635">
        <ele>426.79998779297</ele>
        <time>2023-07-12T05:25:53.000Z</time>
      </trkpt>
      <trkpt lat="42.47994" lon="3.06347">
        <ele>427.20001220703</ele>
        <time>2023-07-12T05:25:56.000Z</time>
      </trkpt>
      <trkpt lat="42.47989" lon="3.06342">
        <ele>427.79998779297</ele>
        <time>2023-07-12T05:26:02.000Z</time>
      </trkpt>
      <trkpt lat="42.47985" lon="3.06338">
        <ele>428.39999389648</ele>
        <time>2023-07-12T05:26:07.000Z</time>
      </trkpt>
      <trkpt lat="42.47978" lon="3.06331">
        <ele>428.79998779297</ele>
        <time>2023-07-12T05:26:13.000Z</time>
      </trkpt>
      <trkpt lat="42.47891" lon="3.06294">
        <ele>438.79998779297</ele>
        <time>2023-07-12T05:27:45.000Z</time>
      </trkpt>
      <trkpt lat="42.47876" lon="3.06283">
        <ele>439.39999389648</ele>
        <time>2023-07-12T05:28:01.000Z</time>
      </trkpt>
      <trkpt lat="42.47872" lon="3.06277">
        <ele>440.39999389648</ele>
        <time>2023-07-12T05:28:08.000Z</time>
      </trkpt>
      <trkpt lat="42.47869" lon="3.06275">
        <ele>440.79998779297</ele>
        <time>2023-07-12T05:28:10.000Z</time>
      </trkpt>
      <trkpt lat="42.47863" lon="3.06268">
        <ele>441.60000610352</ele>
        <time>2023-07-12T05:28:16.000Z</time>
      </trkpt>
      <trkpt lat="42.47862" lon="3.06267">
        <ele>441.79998779297</ele>
        <time>2023-07-12T05:28:17.000Z</time>
      </trkpt>
      <trkpt lat="42.47852" lon="3.0626">
        <ele>443.60000610352</ele>
        <time>2023-07-12T05:28:30.000Z</time>
      </trkpt>
      <trkpt lat="42.47851" lon="3.06258">
        <ele>444.20001220703</ele>
        <time>2023-07-12T05:28:32.000Z</time>
      </trkpt>
      <trkpt lat="42.47849" lon="3.06254">
        <ele>444.79998779297</ele>
        <time>2023-07-12T05:28:35.000Z</time>
      </trkpt>
      <trkpt lat="42.47846" lon="3.06251">
        <ele>445</ele>
        <time>2023-07-12T05:28:38.000Z</time>
      </trkpt>
      <trkpt lat="42.47842" lon="3.06247">
        <ele>445.60000610352</ele>
        <time>2023-07-12T05:28:44.000Z</time>
      </trkpt>
      <trkpt lat="42.47841" lon="3.06246">
        <ele>445.79998779297</ele>
        <time>2023-07-12T05:28:45.000Z</time>
      </trkpt>
      <trkpt lat="42.47835" lon="3.06239">
        <ele>446.60000610352</ele>
        <time>2023-07-12T05:28:52.000Z</time>
      </trkpt>
      <trkpt lat="42.47831" lon="3.06234">
        <ele>447</ele>
        <time>2023-07-12T05:28:57.000Z</time>
      </trkpt>
      <trkpt lat="42.47829" lon="3.06231">
        <ele>447.20001220703</ele>
        <time>2023-07-12T05:29:00.000Z</time>
      </trkpt>
      <trkpt lat="42.47825" lon="3.06224">
        <ele>447.39999389648</ele>
        <time>2023-07-12T05:29:07.000Z</time>
      </trkpt>
      <trkpt lat="42.47823" lon="3.06222">
        <ele>448</ele>
        <time>2023-07-12T05:29:10.000Z</time>
      </trkpt>
      <trkpt lat="42.47821" lon="3.0622">
        <ele>448.60000610352</ele>
        <time>2023-07-12T05:29:14.000Z</time>
      </trkpt>
      <trkpt lat="42.4782" lon="3.06218">
        <ele>449.20001220703</ele>
        <time>2023-07-12T05:29:16.000Z</time>
      </trkpt>
      <trkpt lat="42.47817" lon="3.06213">
        <ele>450</ele>
        <time>2023-07-12T05:29:20.000Z</time>
      </trkpt>
      <trkpt lat="42.47815" lon="3.0621">
        <ele>450.20001220703</ele>
        <time>2023-07-12T05:29:23.000Z</time>
      </trkpt>
      <trkpt lat="42.47813" lon="3.06206">
        <ele>450.20001220703</ele>
        <time>2023-07-12T05:29:26.000Z</time>
      </trkpt>
      <trkpt lat="42.47809" lon="3.062">
        <ele>451.20001220703</ele>
        <time>2023-07-12T05:29:32.000Z</time>
      </trkpt>
      <trkpt lat="42.47809" lon="3.06199">
        <ele>451.20001220703</ele>
        <time>2023-07-12T05:29:33.000Z</time>
      </trkpt>
      <trkpt lat="42.47806" lon="3.06189">
        <ele>452.39999389648</ele>
        <time>2023-07-12T05:29:39.000Z</time>
      </trkpt>
      <trkpt lat="42.47803" lon="3.06177">
        <ele>453.39999389648</ele>
        <time>2023-07-12T05:29:47.000Z</time>
      </trkpt>
      <trkpt lat="42.47802" lon="3.06165">
        <ele>454.20001220703</ele>
        <time>2023-07-12T05:29:55.000Z</time>
      </trkpt>
      <trkpt lat="42.478" lon="3.06157">
        <ele>454.39999389648</ele>
        <time>2023-07-12T05:30:00.000Z</time>
      </trkpt>
      <trkpt lat="42.47799" lon="3.06152">
        <ele>455</ele>
        <time>2023-07-12T05:30:03.000Z</time>
      </trkpt>
      <trkpt lat="42.47795" lon="3.06138">
        <ele>455.60000610352</ele>
        <time>2023-07-12T05:30:13.000Z</time>
      </trkpt>
      <trkpt lat="42.47795" lon="3.06135">
        <ele>456.60000610352</ele>
        <time>2023-07-12T05:30:18.000Z</time>
      </trkpt>
      <trkpt lat="42.47794" lon="3.06132">
        <ele>457</ele>
        <time>2023-07-12T05:30:20.000Z</time>
      </trkpt>
      <trkpt lat="42.47794" lon="3.06126">
        <ele>457.60000610352</ele>
        <time>2023-07-12T05:30:23.000Z</time>
      </trkpt>
      <trkpt lat="42.47792" lon="3.06122">
        <ele>457.79998779297</ele>
        <time>2023-07-12T05:30:26.000Z</time>
      </trkpt>
      <trkpt lat="42.4779" lon="3.06112">
        <ele>458.60000610352</ele>
        <time>2023-07-12T05:30:33.000Z</time>
      </trkpt>
      <trkpt lat="42.4779" lon="3.06112">
        <ele>458.60000610352</ele>
        <time>2023-07-12T05:30:34.000Z</time>
      </trkpt>
      <trkpt lat="42.47791" lon="3.06101">
        <ele>459.79998779297</ele>
        <time>2023-07-12T05:30:41.000Z</time>
      </trkpt>
      <trkpt lat="42.47791" lon="3.06088">
        <ele>460.79998779297</ele>
        <time>2023-07-12T05:30:48.000Z</time>
      </trkpt>
      <trkpt lat="42.47791" lon="3.06086">
        <ele>461</ele>
        <time>2023-07-12T05:30:49.000Z</time>
      </trkpt>
      <trkpt lat="42.47792" lon="3.06079">
        <ele>461.60000610352</ele>
        <time>2023-07-12T05:30:56.000Z</time>
      </trkpt>
      <trkpt lat="42.47793" lon="3.06075">
        <ele>461.79998779297</ele>
        <time>2023-07-12T05:30:59.000Z</time>
      </trkpt>
      <trkpt lat="42.47795" lon="3.06065">
        <ele>462.60000610352</ele>
        <time>2023-07-12T05:31:05.000Z</time>
      </trkpt>
      <trkpt lat="42.47797" lon="3.06055">
        <ele>463</ele>
        <time>2023-07-12T05:31:11.000Z</time>
      </trkpt>
      <trkpt lat="42.47797" lon="3.06052">
        <ele>463</ele>
        <time>2023-07-12T05:31:14.000Z</time>
      </trkpt>
      <trkpt lat="42.47799" lon="3.06044">
        <ele>464</ele>
        <time>2023-07-12T05:31:20.000Z</time>
      </trkpt>
      <trkpt lat="42.47801" lon="3.06039">
        <ele>464.39999389648</ele>
        <time>2023-07-12T05:31:23.000Z</time>
      </trkpt>
      <trkpt lat="42.47802" lon="3.06032">
        <ele>465</ele>
        <time>2023-07-12T05:31:29.000Z</time>
      </trkpt>
      <trkpt lat="42.47803" lon="3.06026">
        <ele>466</ele>
        <time>2023-07-12T05:31:33.000Z</time>
      </trkpt>
      <trkpt lat="42.47803" lon="3.06025">
        <ele>466.20001220703</ele>
        <time>2023-07-12T05:31:34.000Z</time>
      </trkpt>
      <trkpt lat="42.47804" lon="3.06018">
        <ele>467</ele>
        <time>2023-07-12T05:31:41.000Z</time>
      </trkpt>
      <trkpt lat="42.47804" lon="3.06016">
        <ele>467.20001220703</ele>
        <time>2023-07-12T05:31:43.000Z</time>
      </trkpt>
      <trkpt lat="42.47804" lon="3.06008">
        <ele>467.60000610352</ele>
        <time>2023-07-12T05:31:48.000Z</time>
      </trkpt>
      <trkpt lat="42.47803" lon="3.05999">
        <ele>468.20001220703</ele>
        <time>2023-07-12T05:31:56.000Z</time>
      </trkpt>
      <trkpt lat="42.47802" lon="3.05998">
        <ele>468.39999389648</ele>
        <time>2023-07-12T05:31:57.000Z</time>
      </trkpt>
      <trkpt lat="42.47802" lon="3.0599">
        <ele>469.20001220703</ele>
        <time>2023-07-12T05:32:03.000Z</time>
      </trkpt>
      <trkpt lat="42.47802" lon="3.05989">
        <ele>469.39999389648</ele>
        <time>2023-07-12T05:32:04.000Z</time>
      </trkpt>
      <trkpt lat="42.47802" lon="3.05981">
        <ele>470.20001220703</ele>
        <time>2023-07-12T05:32:10.000Z</time>
      </trkpt>
      <trkpt lat="42.47802" lon="3.0598">
        <ele>470.39999389648</ele>
        <time>2023-07-12T05:32:11.000Z</time>
      </trkpt>
      <trkpt lat="42.478" lon="3.05975">
        <ele>471.39999389648</ele>
        <time>2023-07-12T05:32:20.000Z</time>
      </trkpt>
      <trkpt lat="42.478" lon="3.05973">
        <ele>472</ele>
        <time>2023-07-12T05:32:28.000Z</time>
      </trkpt>
      <trkpt lat="42.47799" lon="3.05965">
        <ele>472</ele>
        <time>2023-07-12T05:32:34.000Z</time>
      </trkpt>
      <trkpt lat="42.47797" lon="3.05962">
        <ele>472.39999389648</ele>
        <time>2023-07-12T05:32:38.000Z</time>
      </trkpt>
      <trkpt lat="42.47795" lon="3.05959">
        <ele>473.20001220703</ele>
        <time>2023-07-12T05:32:42.000Z</time>
      </trkpt>
      <trkpt lat="42.47794" lon="3.05958">
        <ele>473.60000610352</ele>
        <time>2023-07-12T05:32:44.000Z</time>
      </trkpt>
      <trkpt lat="42.4779" lon="3.05953">
        <ele>474.60000610352</ele>
        <time>2023-07-12T05:32:50.000Z</time>
      </trkpt>
      <trkpt lat="42.4779" lon="3.05952">
        <ele>474.79998779297</ele>
        <time>2023-07-12T05:32:51.000Z</time>
      </trkpt>
      <trkpt lat="42.47788" lon="3.05941">
        <ele>475.79998779297</ele>
        <time>2023-07-12T05:33:00.000Z</time>
      </trkpt>
      <trkpt lat="42.47788" lon="3.05939">
        <ele>476</ele>
        <time>2023-07-12T05:33:01.000Z</time>
      </trkpt>
      <trkpt lat="42.47785" lon="3.05933">
        <ele>476.79998779297</ele>
        <time>2023-07-12T05:33:06.000Z</time>
      </trkpt>
      <trkpt lat="42.47781" lon="3.05927">
        <ele>477.39999389648</ele>
        <time>2023-07-12T05:33:12.000Z</time>
      </trkpt>
      <trkpt lat="42.4778" lon="3.05926">
        <ele>477.79998779297</ele>
        <time>2023-07-12T05:33:14.000Z</time>
      </trkpt>
      <trkpt lat="42.47775" lon="3.05921">
        <ele>478.60000610352</ele>
        <time>2023-07-12T05:33:19.000Z</time>
      </trkpt>
      <trkpt lat="42.47774" lon="3.05919">
        <ele>478.79998779297</ele>
        <time>2023-07-12T05:33:20.000Z</time>
      </trkpt>
      <trkpt lat="42.47772" lon="3.05914">
        <ele>479.79998779297</ele>
        <time>2023-07-12T05:33:26.000Z</time>
      </trkpt>
      <trkpt lat="42.47772" lon="3.05913">
        <ele>480</ele>
        <time>2023-07-12T05:33:27.000Z</time>
      </trkpt>
      <trkpt lat="42.47768" lon="3.05904">
        <ele>481</ele>
        <time>2023-07-12T05:33:36.000Z</time>
      </trkpt>
      <trkpt lat="42.47764" lon="3.05899">
        <ele>481.79998779297</ele>
        <time>2023-07-12T05:33:44.000Z</time>
      </trkpt>
      <trkpt lat="42.47763" lon="3.05897">
        <ele>482.20001220703</ele>
        <time>2023-07-12T05:33:47.000Z</time>
      </trkpt>
      <trkpt lat="42.47761" lon="3.05894">
        <ele>483.20001220703</ele>
        <time>2023-07-12T05:33:52.000Z</time>
      </trkpt>
      <trkpt lat="42.4776" lon="3.05894">
        <ele>483.20001220703</ele>
        <time>2023-07-12T05:33:53.000Z</time>
      </trkpt>
      <trkpt lat="42.47754" lon="3.05887">
        <ele>484.20001220703</ele>
        <time>2023-07-12T05:34:00.000Z</time>
      </trkpt>
      <trkpt lat="42.47753" lon="3.05886">
        <ele>484.39999389648</ele>
        <time>2023-07-12T05:34:01.000Z</time>
      </trkpt>
      <trkpt lat="42.47751" lon="3.05883">
        <ele>485.39999389648</ele>
        <time>2023-07-12T05:34:07.000Z</time>
      </trkpt>
      <trkpt lat="42.47749" lon="3.05882">
        <ele>485.39999389648</ele>
        <time>2023-07-12T05:34:09.000Z</time>
      </trkpt>
      <trkpt lat="42.47746" lon="3.05878">
        <ele>486.39999389648</ele>
        <time>2023-07-12T05:34:14.000Z</time>
      </trkpt>
      <trkpt lat="42.47744" lon="3.05876">
        <ele>486.79998779297</ele>
        <time>2023-07-12T05:34:17.000Z</time>
      </trkpt>
      <trkpt lat="42.47743" lon="3.05873">
        <ele>487.39999389648</ele>
        <time>2023-07-12T05:34:20.000Z</time>
      </trkpt>
      <trkpt lat="42.47739" lon="3.05867">
        <ele>488.39999389648</ele>
        <time>2023-07-12T05:34:25.000Z</time>
      </trkpt>
      <trkpt lat="42.47738" lon="3.05866">
        <ele>488.60000610352</ele>
        <time>2023-07-12T05:34:27.000Z</time>
      </trkpt>
      <trkpt lat="42.47733" lon="3.05863">
        <ele>489.39999389648</ele>
        <time>2023-07-12T05:34:33.000Z</time>
      </trkpt>
      <trkpt lat="42.47731" lon="3.0586">
        <ele>489.60000610352</ele>
        <time>2023-07-12T05:34:36.000Z</time>
      </trkpt>
      <trkpt lat="42.47729" lon="3.05857">
        <ele>490.79998779297</ele>
        <time>2023-07-12T05:34:42.000Z</time>
      </trkpt>
      <trkpt lat="42.47724" lon="3.0585">
        <ele>491.60000610352</ele>
        <time>2023-07-12T05:34:49.000Z</time>
      </trkpt>
      <trkpt lat="42.47723" lon="3.05849">
        <ele>492</ele>
        <time>2023-07-12T05:34:51.000Z</time>
      </trkpt>
      <trkpt lat="42.47718" lon="3.05843">
        <ele>493</ele>
        <time>2023-07-12T05:34:58.000Z</time>
      </trkpt>
      <trkpt lat="42.47716" lon="3.05841">
        <ele>493.20001220703</ele>
        <time>2023-07-12T05:35:00.000Z</time>
      </trkpt>
      <trkpt lat="42.47713" lon="3.05835">
        <ele>494.39999389648</ele>
        <time>2023-07-12T05:35:08.000Z</time>
      </trkpt>
      <trkpt lat="42.47713" lon="3.05835">
        <ele>494.39999389648</ele>
        <time>2023-07-12T05:35:09.000Z</time>
      </trkpt>
      <trkpt lat="42.47712" lon="3.05824">
        <ele>495.39999389648</ele>
        <time>2023-07-12T05:35:18.000Z</time>
      </trkpt>
      <trkpt lat="42.47711" lon="3.05823">
        <ele>495.79998779297</ele>
        <time>2023-07-12T05:35:20.000Z</time>
      </trkpt>
      <trkpt lat="42.47707" lon="3.05816">
        <ele>496.39999389648</ele>
        <time>2023-07-12T05:35:26.000Z</time>
      </trkpt>
      <trkpt lat="42.47704" lon="3.05814">
        <ele>497.60000610352</ele>
        <time>2023-07-12T05:35:32.000Z</time>
      </trkpt>
      <trkpt lat="42.47701" lon="3.05809">
        <ele>498.79998779297</ele>
        <time>2023-07-12T05:35:38.000Z</time>
      </trkpt>
      <trkpt lat="42.47698" lon="3.05803">
        <ele>499.79998779297</ele>
        <time>2023-07-12T05:35:43.000Z</time>
      </trkpt>
      <trkpt lat="42.47698" lon="3.05801">
        <ele>500</ele>
        <time>2023-07-12T05:35:44.000Z</time>
      </trkpt>
      <trkpt lat="42.47696" lon="3.05792">
        <ele>500.60000610352</ele>
        <time>2023-07-12T05:35:52.000Z</time>
      </trkpt>
      <trkpt lat="42.47696" lon="3.0579">
        <ele>500.79998779297</ele>
        <time>2023-07-12T05:35:54.000Z</time>
      </trkpt>
      <trkpt lat="42.47694" lon="3.05785">
        <ele>501.79998779297</ele>
        <time>2023-07-12T05:36:00.000Z</time>
      </trkpt>
      <trkpt lat="42.47692" lon="3.05785">
        <ele>502</ele>
        <time>2023-07-12T05:36:02.000Z</time>
      </trkpt>
      <trkpt lat="42.47688" lon="3.05782">
        <ele>502.60000610352</ele>
        <time>2023-07-12T05:36:07.000Z</time>
      </trkpt>
      <trkpt lat="42.47688" lon="3.05781">
        <ele>503</ele>
        <time>2023-07-12T05:36:09.000Z</time>
      </trkpt>
      <trkpt lat="42.47685" lon="3.05778">
        <ele>503.60000610352</ele>
        <time>2023-07-12T05:36:13.000Z</time>
      </trkpt>
      <trkpt lat="42.47685" lon="3.05774">
        <ele>504.20001220703</ele>
        <time>2023-07-12T05:36:17.000Z</time>
      </trkpt>
      <trkpt lat="42.47684" lon="3.05769">
        <ele>504.79998779297</ele>
        <time>2023-07-12T05:36:22.000Z</time>
      </trkpt>
      <trkpt lat="42.47683" lon="3.05766">
        <ele>505.39999389648</ele>
        <time>2023-07-12T05:36:25.000Z</time>
      </trkpt>
      <trkpt lat="42.47682" lon="3.05759">
        <ele>506</ele>
        <time>2023-07-12T05:36:30.000Z</time>
      </trkpt>
      <trkpt lat="42.47682" lon="3.05753">
        <ele>506.39999389648</ele>
        <time>2023-07-12T05:36:34.000Z</time>
      </trkpt>
      <trkpt lat="42.47681" lon="3.05749">
        <ele>507</ele>
        <time>2023-07-12T05:36:38.000Z</time>
      </trkpt>
      <trkpt lat="42.4768" lon="3.05745">
        <ele>507.39999389648</ele>
        <time>2023-07-12T05:36:43.000Z</time>
      </trkpt>
      <trkpt lat="42.47679" lon="3.0574">
        <ele>508</ele>
        <time>2023-07-12T05:36:46.000Z</time>
      </trkpt>
      <trkpt lat="42.47678" lon="3.05737">
        <ele>508.39999389648</ele>
        <time>2023-07-12T05:36:48.000Z</time>
      </trkpt>
      <trkpt lat="42.47677" lon="3.05735">
        <ele>509</ele>
        <time>2023-07-12T05:36:53.000Z</time>
      </trkpt>
      <trkpt lat="42.47675" lon="3.05733">
        <ele>509.39999389648</ele>
        <time>2023-07-12T05:36:55.000Z</time>
      </trkpt>
      <trkpt lat="42.47672" lon="3.0573">
        <ele>509.79998779297</ele>
        <time>2023-07-12T05:37:00.000Z</time>
      </trkpt>
      <trkpt lat="42.47669" lon="3.05725">
        <ele>510.39999389648</ele>
        <time>2023-07-12T05:37:05.000Z</time>
      </trkpt>
      <trkpt lat="42.47669" lon="3.05723">
        <ele>510.79998779297</ele>
        <time>2023-07-12T05:37:07.000Z</time>
      </trkpt>
      <trkpt lat="42.47663" lon="3.05715">
        <ele>511.20001220703</ele>
        <time>2023-07-12T05:37:15.000Z</time>
      </trkpt>
      <trkpt lat="42.47661" lon="3.0571">
        <ele>511.79998779297</ele>
        <time>2023-07-12T05:37:19.000Z</time>
      </trkpt>
      <trkpt lat="42.47659" lon="3.05707">
        <ele>512.59997558594</ele>
        <time>2023-07-12T05:37:22.000Z</time>
      </trkpt>
      <trkpt lat="42.47659" lon="3.05707">
        <ele>512.79998779297</ele>
        <time>2023-07-12T05:37:23.000Z</time>
      </trkpt>
      <trkpt lat="42.47655" lon="3.05703">
        <ele>513.79998779297</ele>
        <time>2023-07-12T05:37:29.000Z</time>
      </trkpt>
      <trkpt lat="42.47649" lon="3.05698">
        <ele>514.79998779297</ele>
        <time>2023-07-12T05:37:37.000Z</time>
      </trkpt>
      <trkpt lat="42.47648" lon="3.05697">
        <ele>515.40002441406</ele>
        <time>2023-07-12T05:37:39.000Z</time>
      </trkpt>
      <trkpt lat="42.47647" lon="3.05695">
        <ele>516</ele>
        <time>2023-07-12T05:37:42.000Z</time>
      </trkpt>
      <trkpt lat="42.47646" lon="3.05694">
        <ele>516.20001220703</ele>
        <time>2023-07-12T05:37:44.000Z</time>
      </trkpt>
      <trkpt lat="42.47644" lon="3.05689">
        <ele>517.40002441406</ele>
        <time>2023-07-12T05:37:50.000Z</time>
      </trkpt>
      <trkpt lat="42.47644" lon="3.05688">
        <ele>517.40002441406</ele>
        <time>2023-07-12T05:37:52.000Z</time>
      </trkpt>
      <trkpt lat="42.47642" lon="3.05682">
        <ele>518.79998779297</ele>
        <time>2023-07-12T05:37:58.000Z</time>
      </trkpt>
      <trkpt lat="42.47641" lon="3.0568">
        <ele>519</ele>
        <time>2023-07-12T05:38:01.000Z</time>
      </trkpt>
      <trkpt lat="42.47639" lon="3.05676">
        <ele>519.79998779297</ele>
        <time>2023-07-12T05:38:06.000Z</time>
      </trkpt>
      <trkpt lat="42.47636" lon="3.05673">
        <ele>520.59997558594</ele>
        <time>2023-07-12T05:38:09.000Z</time>
      </trkpt>
      <trkpt lat="42.47635" lon="3.05671">
        <ele>521</ele>
        <time>2023-07-12T05:38:11.000Z</time>
      </trkpt>
      <trkpt lat="42.47632" lon="3.05665">
        <ele>521.59997558594</ele>
        <time>2023-07-12T05:38:17.000Z</time>
      </trkpt>
      <trkpt lat="42.4763" lon="3.05663">
        <ele>522</ele>
        <time>2023-07-12T05:38:19.000Z</time>
      </trkpt>
      <trkpt lat="42.47628" lon="3.05661">
        <ele>523</ele>
        <time>2023-07-12T05:38:24.000Z</time>
      </trkpt>
      <trkpt lat="42.47629" lon="3.05658">
        <ele>523.20001220703</ele>
        <time>2023-07-12T05:38:31.000Z</time>
      </trkpt>
      <trkpt lat="42.47625" lon="3.05653">
        <ele>524.20001220703</ele>
        <time>2023-07-12T05:38:37.000Z</time>
      </trkpt>
      <trkpt lat="42.47622" lon="3.05651">
        <ele>524.40002441406</ele>
        <time>2023-07-12T05:38:41.000Z</time>
      </trkpt>
      <trkpt lat="42.47619" lon="3.05647">
        <ele>525.20001220703</ele>
        <time>2023-07-12T05:38:47.000Z</time>
      </trkpt>
      <trkpt lat="42.47618" lon="3.05646">
        <ele>525.59997558594</ele>
        <time>2023-07-12T05:38:49.000Z</time>
      </trkpt>
      <trkpt lat="42.47616" lon="3.05645">
        <ele>526.20001220703</ele>
        <time>2023-07-12T05:38:56.000Z</time>
      </trkpt>
      <trkpt lat="42.47615" lon="3.05645">
        <ele>526.40002441406</ele>
        <time>2023-07-12T05:38:58.000Z</time>
      </trkpt>
      <trkpt lat="42.47617" lon="3.05645">
        <ele>526.20001220703</ele>
        <time>2023-07-12T05:39:06.000Z</time>
      </trkpt>
      <trkpt lat="42.47618" lon="3.0565">
        <ele>526.20001220703</ele>
        <time>2023-07-12T05:39:13.000Z</time>
      </trkpt>
      <trkpt lat="42.47617" lon="3.05647">
        <ele>526.40002441406</ele>
        <time>2023-07-12T05:39:24.000Z</time>
      </trkpt>
      <trkpt lat="42.47616" lon="3.05645">
        <ele>526.40002441406</ele>
        <time>2023-07-12T05:39:31.000Z</time>
      </trkpt>
      <trkpt lat="42.47615" lon="3.05646">
        <ele>526.59997558594</ele>
        <time>2023-07-12T05:39:41.000Z</time>
      </trkpt>
      <trkpt lat="42.47615" lon="3.05646">
        <ele>526.79998779297</ele>
        <time>2023-07-12T05:39:50.000Z</time>
      </trkpt>
      <trkpt lat="42.47615" lon="3.05645">
        <ele>527</ele>
        <time>2023-07-12T05:40:00.000Z</time>
      </trkpt>
      <trkpt lat="42.47612" lon="3.05646">
        <ele>527</ele>
        <time>2023-07-12T05:40:08.000Z</time>
      </trkpt>
      <trkpt lat="42.47618" lon="3.05646">
        <ele>527.20001220703</ele>
        <time>2023-07-12T05:40:24.000Z</time>
      </trkpt>
      <trkpt lat="42.47617" lon="3.05642">
        <ele>527.40002441406</ele>
        <time>2023-07-12T05:40:31.000Z</time>
      </trkpt>
      <trkpt lat="42.47611" lon="3.0564">
        <ele>527.40002441406</ele>
        <time>2023-07-12T05:40:41.000Z</time>
      </trkpt>
      <trkpt lat="42.47614" lon="3.05642">
        <ele>527</ele>
        <time>2023-07-12T05:40:53.000Z</time>
      </trkpt>
      <trkpt lat="42.47613" lon="3.0564">
        <ele>526.79998779297</ele>
        <time>2023-07-12T05:40:59.000Z</time>
      </trkpt>
      <trkpt lat="42.47609" lon="3.05636">
        <ele>527.40002441406</ele>
        <time>2023-07-12T05:41:06.000Z</time>
      </trkpt>
      <trkpt lat="42.47606" lon="3.05632">
        <ele>528.40002441406</ele>
        <time>2023-07-12T05:41:12.000Z</time>
      </trkpt>
      <trkpt lat="42.47605" lon="3.0563">
        <ele>528.59997558594</ele>
        <time>2023-07-12T05:41:14.000Z</time>
      </trkpt>
      <trkpt lat="42.47601" lon="3.05624">
        <ele>529.40002441406</ele>
        <time>2023-07-12T05:41:21.000Z</time>
      </trkpt>
      <trkpt lat="42.476" lon="3.05623">
        <ele>529.79998779297</ele>
        <time>2023-07-12T05:41:23.000Z</time>
      </trkpt>
      <trkpt lat="42.47598" lon="3.0562">
        <ele>530.40002441406</ele>
        <time>2023-07-12T05:41:28.000Z</time>
      </trkpt>
      <trkpt lat="42.47596" lon="3.05616">
        <ele>531.40002441406</ele>
        <time>2023-07-12T05:41:32.000Z</time>
      </trkpt>
      <trkpt lat="42.47595" lon="3.05615">
        <ele>531.40002441406</ele>
        <time>2023-07-12T05:41:33.000Z</time>
      </trkpt>
      <trkpt lat="42.47591" lon="3.05609">
        <ele>532</ele>
        <time>2023-07-12T05:41:40.000Z</time>
      </trkpt>
      <trkpt lat="42.47588" lon="3.05607">
        <ele>532.40002441406</ele>
        <time>2023-07-12T05:41:44.000Z</time>
      </trkpt>
      <trkpt lat="42.47587" lon="3.05606">
        <ele>532.79998779297</ele>
        <time>2023-07-12T05:41:47.000Z</time>
      </trkpt>
      <trkpt lat="42.47586" lon="3.05604">
        <ele>533.59997558594</ele>
        <time>2023-07-12T05:41:51.000Z</time>
      </trkpt>
      <trkpt lat="42.47582" lon="3.05599">
        <ele>534.40002441406</ele>
        <time>2023-07-12T05:41:56.000Z</time>
      </trkpt>
      <trkpt lat="42.47581" lon="3.05598">
        <ele>534.79998779297</ele>
        <time>2023-07-12T05:41:58.000Z</time>
      </trkpt>
      <trkpt lat="42.47577" lon="3.05593">
        <ele>535.20001220703</ele>
        <time>2023-07-12T05:42:04.000Z</time>
      </trkpt>
      <trkpt lat="42.47573" lon="3.05589">
        <ele>535.79998779297</ele>
        <time>2023-07-12T05:42:09.000Z</time>
      </trkpt>
      <trkpt lat="42.47572" lon="3.05588">
        <ele>536</ele>
        <time>2023-07-12T05:42:10.000Z</time>
      </trkpt>
      <trkpt lat="42.47568" lon="3.0558">
        <ele>537</ele>
        <time>2023-07-12T05:42:18.000Z</time>
      </trkpt>
      <trkpt lat="42.47564" lon="3.05573">
        <ele>537.59997558594</ele>
        <time>2023-07-12T05:42:24.000Z</time>
      </trkpt>
      <trkpt lat="42.47563" lon="3.05572">
        <ele>538.40002441406</ele>
        <time>2023-07-12T05:42:27.000Z</time>
      </trkpt>
      <trkpt lat="42.47563" lon="3.05569">
        <ele>538.59997558594</ele>
        <time>2023-07-12T05:42:31.000Z</time>
      </trkpt>
      <trkpt lat="42.4756" lon="3.05563">
        <ele>539.40002441406</ele>
        <time>2023-07-12T05:42:36.000Z</time>
      </trkpt>
      <trkpt lat="42.47557" lon="3.05562">
        <ele>539.79998779297</ele>
        <time>2023-07-12T05:42:41.000Z</time>
      </trkpt>
      <trkpt lat="42.47555" lon="3.05558">
        <ele>540.59997558594</ele>
        <time>2023-07-12T05:42:45.000Z</time>
      </trkpt>
      <trkpt lat="42.47554" lon="3.05552">
        <ele>541</ele>
        <time>2023-07-12T05:42:50.000Z</time>
      </trkpt>
      <trkpt lat="42.47554" lon="3.0555">
        <ele>541.79998779297</ele>
        <time>2023-07-12T05:42:52.000Z</time>
      </trkpt>
      <trkpt lat="42.47551" lon="3.05546">
        <ele>542.40002441406</ele>
        <time>2023-07-12T05:42:57.000Z</time>
      </trkpt>
      <trkpt lat="42.4755" lon="3.05544">
        <ele>543</ele>
        <time>2023-07-12T05:43:00.000Z</time>
      </trkpt>
      <trkpt lat="42.4755" lon="3.05541">
        <ele>543.40002441406</ele>
        <time>2023-07-12T05:43:04.000Z</time>
      </trkpt>
      <trkpt lat="42.47547" lon="3.05535">
        <ele>544.20001220703</ele>
        <time>2023-07-12T05:43:11.000Z</time>
      </trkpt>
      <trkpt lat="42.47544" lon="3.05527">
        <ele>545.20001220703</ele>
        <time>2023-07-12T05:43:18.000Z</time>
      </trkpt>
      <trkpt lat="42.47544" lon="3.05525">
        <ele>545.40002441406</ele>
        <time>2023-07-12T05:43:19.000Z</time>
      </trkpt>
      <trkpt lat="42.47543" lon="3.05518">
        <ele>546.20001220703</ele>
        <time>2023-07-12T05:43:24.000Z</time>
      </trkpt>
      <trkpt lat="42.47542" lon="3.05516">
        <ele>546.40002441406</ele>
        <time>2023-07-12T05:43:25.000Z</time>
      </trkpt>
      <trkpt lat="42.47538" lon="3.05508">
        <ele>547.20001220703</ele>
        <time>2023-07-12T05:43:34.000Z</time>
      </trkpt>
      <trkpt lat="42.47538" lon="3.05507">
        <ele>547.40002441406</ele>
        <time>2023-07-12T05:43:37.000Z</time>
      </trkpt>
      <trkpt lat="42.47538" lon="3.05506">
        <ele>548</ele>
        <time>2023-07-12T05:43:40.000Z</time>
      </trkpt>
      <trkpt lat="42.47537" lon="3.05504">
        <ele>548.59997558594</ele>
        <time>2023-07-12T05:43:43.000Z</time>
      </trkpt>
      <trkpt lat="42.47536" lon="3.05501">
        <ele>549.20001220703</ele>
        <time>2023-07-12T05:43:46.000Z</time>
      </trkpt>
      <trkpt lat="42.47534" lon="3.05494">
        <ele>549.59997558594</ele>
        <time>2023-07-12T05:43:49.000Z</time>
      </trkpt>
      <trkpt lat="42.47533" lon="3.0549">
        <ele>550</ele>
        <time>2023-07-12T05:43:54.000Z</time>
      </trkpt>
      <trkpt lat="42.47532" lon="3.05486">
        <ele>550.59997558594</ele>
        <time>2023-07-12T05:43:58.000Z</time>
      </trkpt>
      <trkpt lat="42.47533" lon="3.05478">
        <ele>551.40002441406</ele>
        <time>2023-07-12T05:44:04.000Z</time>
      </trkpt>
      <trkpt lat="42.47533" lon="3.05476">
        <ele>551.79998779297</ele>
        <time>2023-07-12T05:44:06.000Z</time>
      </trkpt>
      <trkpt lat="42.47533" lon="3.05474">
        <ele>552.79998779297</ele>
        <time>2023-07-12T05:44:09.000Z</time>
      </trkpt>
      <trkpt lat="42.47532" lon="3.05472">
        <ele>552.79998779297</ele>
        <time>2023-07-12T05:44:13.000Z</time>
      </trkpt>
      <trkpt lat="42.47527" lon="3.05471">
        <ele>553.20001220703</ele>
        <time>2023-07-12T05:44:24.000Z</time>
      </trkpt>
      <trkpt lat="42.47526" lon="3.05472">
        <ele>553.79998779297</ele>
        <time>2023-07-12T05:44:28.000Z</time>
      </trkpt>
      <trkpt lat="42.47524" lon="3.05474">
        <ele>555</ele>
        <time>2023-07-12T05:44:33.000Z</time>
      </trkpt>
      <trkpt lat="42.47523" lon="3.05478">
        <ele>556</ele>
        <time>2023-07-12T05:44:36.000Z</time>
      </trkpt>
      <trkpt lat="42.47523" lon="3.05482">
        <ele>556.79998779297</ele>
        <time>2023-07-12T05:44:41.000Z</time>
      </trkpt>
      <trkpt lat="42.47523" lon="3.05485">
        <ele>557.40002441406</ele>
        <time>2023-07-12T05:44:48.000Z</time>
      </trkpt>
      <trkpt lat="42.47518" lon="3.05486">
        <ele>558.40002441406</ele>
        <time>2023-07-12T05:44:57.000Z</time>
      </trkpt>
      <trkpt lat="42.47517" lon="3.05486">
        <ele>558.59997558594</ele>
        <time>2023-07-12T05:44:58.000Z</time>
      </trkpt>
      <trkpt lat="42.47515" lon="3.0549">
        <ele>559.79998779297</ele>
        <time>2023-07-12T05:45:04.000Z</time>
      </trkpt>
      <trkpt lat="42.47513" lon="3.05493">
        <ele>560.20001220703</ele>
        <time>2023-07-12T05:45:07.000Z</time>
      </trkpt>
      <trkpt lat="42.47511" lon="3.05493">
        <ele>560.79998779297</ele>
        <time>2023-07-12T05:45:10.000Z</time>
      </trkpt>
      <trkpt lat="42.47507" lon="3.05494">
        <ele>562</ele>
        <time>2023-07-12T05:45:15.000Z</time>
      </trkpt>
      <trkpt lat="42.47506" lon="3.05493">
        <ele>562.20001220703</ele>
        <time>2023-07-12T05:45:16.000Z</time>
      </trkpt>
      <trkpt lat="42.47504" lon="3.05494">
        <ele>563</ele>
        <time>2023-07-12T05:45:20.000Z</time>
      </trkpt>
      <trkpt lat="42.47502" lon="3.05497">
        <ele>563.59997558594</ele>
        <time>2023-07-12T05:45:24.000Z</time>
      </trkpt>
      <trkpt lat="42.47499" lon="3.05499">
        <ele>564.20001220703</ele>
        <time>2023-07-12T05:45:27.000Z</time>
      </trkpt>
      <trkpt lat="42.47499" lon="3.05498">
        <ele>564.79998779297</ele>
        <time>2023-07-12T05:45:30.000Z</time>
      </trkpt>
      <trkpt lat="42.47496" lon="3.05498">
        <ele>565.20001220703</ele>
        <time>2023-07-12T05:45:35.000Z</time>
      </trkpt>
      <trkpt lat="42.47496" lon="3.05497">
        <ele>565.59997558594</ele>
        <time>2023-07-12T05:45:36.000Z</time>
      </trkpt>
      <trkpt lat="42.47496" lon="3.05496">
        <ele>566</ele>
        <time>2023-07-12T05:45:38.000Z</time>
      </trkpt>
      <trkpt lat="42.47495" lon="3.05494">
        <ele>566.40002441406</ele>
        <time>2023-07-12T05:45:40.000Z</time>
      </trkpt>
      <trkpt lat="42.47492" lon="3.0549">
        <ele>567.40002441406</ele>
        <time>2023-07-12T05:45:46.000Z</time>
      </trkpt>
      <trkpt lat="42.47491" lon="3.05489">
        <ele>567.40002441406</ele>
        <time>2023-07-12T05:45:47.000Z</time>
      </trkpt>
      <trkpt lat="42.47491" lon="3.05487">
        <ele>567.40002441406</ele>
        <time>2023-07-12T05:45:53.000Z</time>
      </trkpt>
      <trkpt lat="42.47491" lon="3.05484">
        <ele>567.59997558594</ele>
        <time>2023-07-12T05:45:58.000Z</time>
      </trkpt>
      <trkpt lat="42.47491" lon="3.05485">
        <ele>568.40002441406</ele>
        <time>2023-07-12T05:46:04.000Z</time>
      </trkpt>
      <trkpt lat="42.47491" lon="3.05485">
        <ele>568.59997558594</ele>
        <time>2023-07-12T05:46:06.000Z</time>
      </trkpt>
      <trkpt lat="42.4749" lon="3.05485">
        <ele>568</ele>
        <time>2023-07-12T05:46:14.000Z</time>
      </trkpt>
      <trkpt lat="42.47493" lon="3.05481">
        <ele>567.59997558594</ele>
        <time>2023-07-12T05:46:23.000Z</time>
      </trkpt>
      <trkpt lat="42.47491" lon="3.05476">
        <ele>568.59997558594</ele>
        <time>2023-07-12T05:46:30.000Z</time>
      </trkpt>
      <trkpt lat="42.47493" lon="3.05468">
        <ele>569.20001220703</ele>
        <time>2023-07-12T05:46:38.000Z</time>
      </trkpt>
      <trkpt lat="42.47493" lon="3.05464">
        <ele>569.59997558594</ele>
        <time>2023-07-12T05:46:41.000Z</time>
      </trkpt>
      <trkpt lat="42.47494" lon="3.05456">
        <ele>570.20001220703</ele>
        <time>2023-07-12T05:46:47.000Z</time>
      </trkpt>
      <trkpt lat="42.47492" lon="3.05451">
        <ele>570.79998779297</ele>
        <time>2023-07-12T05:46:53.000Z</time>
      </trkpt>
      <trkpt lat="42.47489" lon="3.05448">
        <ele>570.79998779297</ele>
        <time>2023-07-12T05:46:56.000Z</time>
      </trkpt>
      <trkpt lat="42.47487" lon="3.05441">
        <ele>571.79998779297</ele>
        <time>2023-07-12T05:47:02.000Z</time>
      </trkpt>
      <trkpt lat="42.47487" lon="3.0544">
        <ele>572</ele>
        <time>2023-07-12T05:47:04.000Z</time>
      </trkpt>
      <trkpt lat="42.47489" lon="3.05438">
        <ele>572.79998779297</ele>
        <time>2023-07-12T05:47:10.000Z</time>
      </trkpt>
      <trkpt lat="42.47489" lon="3.05438">
        <ele>572.79998779297</ele>
        <time>2023-07-12T05:47:11.000Z</time>
      </trkpt>
      <trkpt lat="42.47488" lon="3.05437">
        <ele>572.79998779297</ele>
        <time>2023-07-12T05:47:22.000Z</time>
      </trkpt>
      <trkpt lat="42.47489" lon="3.05432">
        <ele>573.40002441406</ele>
        <time>2023-07-12T05:47:31.000Z</time>
      </trkpt>
      <trkpt lat="42.47487" lon="3.05431">
        <ele>574</ele>
        <time>2023-07-12T05:47:34.000Z</time>
      </trkpt>
      <trkpt lat="42.47484" lon="3.0543">
        <ele>574.79998779297</ele>
        <time>2023-07-12T05:47:40.000Z</time>
      </trkpt>
      <trkpt lat="42.47483" lon="3.0543">
        <ele>575</ele>
        <time>2023-07-12T05:47:41.000Z</time>
      </trkpt>
      <trkpt lat="42.4748" lon="3.05425">
        <ele>576</ele>
        <time>2023-07-12T05:47:47.000Z</time>
      </trkpt>
      <trkpt lat="42.47478" lon="3.0542">
        <ele>577.20001220703</ele>
        <time>2023-07-12T05:47:54.000Z</time>
      </trkpt>
      <trkpt lat="42.47477" lon="3.05419">
        <ele>577.40002441406</ele>
        <time>2023-07-12T05:47:55.000Z</time>
      </trkpt>
      <trkpt lat="42.47476" lon="3.05413">
        <ele>578.40002441406</ele>
        <time>2023-07-12T05:48:01.000Z</time>
      </trkpt>
      <trkpt lat="42.47476" lon="3.05412">
        <ele>579</ele>
        <time>2023-07-12T05:48:03.000Z</time>
      </trkpt>
      <trkpt lat="42.47476" lon="3.05409">
        <ele>579.40002441406</ele>
        <time>2023-07-12T05:48:06.000Z</time>
      </trkpt>
      <trkpt lat="42.47476" lon="3.05404">
        <ele>579.79998779297</ele>
        <time>2023-07-12T05:48:11.000Z</time>
      </trkpt>
      <trkpt lat="42.47474" lon="3.054">
        <ele>580.40002441406</ele>
        <time>2023-07-12T05:48:16.000Z</time>
      </trkpt>
      <trkpt lat="42.47474" lon="3.05401">
        <ele>580.79998779297</ele>
        <time>2023-07-12T05:48:18.000Z</time>
      </trkpt>
      <trkpt lat="42.47475" lon="3.054">
        <ele>581.40002441406</ele>
        <time>2023-07-12T05:48:21.000Z</time>
      </trkpt>
      <trkpt lat="42.47474" lon="3.05394">
        <ele>582.20001220703</ele>
        <time>2023-07-12T05:48:26.000Z</time>
      </trkpt>
      <trkpt lat="42.47471" lon="3.0539">
        <ele>582.59997558594</ele>
        <time>2023-07-12T05:48:30.000Z</time>
      </trkpt>
      <trkpt lat="42.4747" lon="3.05388">
        <ele>583.20001220703</ele>
        <time>2023-07-12T05:48:33.000Z</time>
      </trkpt>
      <trkpt lat="42.47469" lon="3.05387">
        <ele>583.59997558594</ele>
        <time>2023-07-12T05:48:35.000Z</time>
      </trkpt>
      <trkpt lat="42.47468" lon="3.05385">
        <ele>584.59997558594</ele>
        <time>2023-07-12T05:48:41.000Z</time>
      </trkpt>
      <trkpt lat="42.47467" lon="3.05385">
        <ele>585</ele>
        <time>2023-07-12T05:48:42.000Z</time>
      </trkpt>
      <trkpt lat="42.47467" lon="3.05383">
        <ele>585.79998779297</ele>
        <time>2023-07-12T05:48:48.000Z</time>
      </trkpt>
      <trkpt lat="42.47468" lon="3.05383">
        <ele>586.20001220703</ele>
        <time>2023-07-12T05:48:49.000Z</time>
      </trkpt>
      <trkpt lat="42.47467" lon="3.05378">
        <ele>587</ele>
        <time>2023-07-12T05:48:56.000Z</time>
      </trkpt>
      <trkpt lat="42.47465" lon="3.05376">
        <ele>588.20001220703</ele>
        <time>2023-07-12T05:49:02.000Z</time>
      </trkpt>
      <trkpt lat="42.47464" lon="3.05374">
        <ele>588.79998779297</ele>
        <time>2023-07-12T05:49:05.000Z</time>
      </trkpt>
      <trkpt lat="42.47463" lon="3.05371">
        <ele>589.20001220703</ele>
        <time>2023-07-12T05:49:09.000Z</time>
      </trkpt>
      <trkpt lat="42.47464" lon="3.05368">
        <ele>590</ele>
        <time>2023-07-12T05:49:13.000Z</time>
      </trkpt>
      <trkpt lat="42.47464" lon="3.05364">
        <ele>590.40002441406</ele>
        <time>2023-07-12T05:49:18.000Z</time>
      </trkpt>
      <trkpt lat="42.47464" lon="3.05362">
        <ele>590.79998779297</ele>
        <time>2023-07-12T05:49:21.000Z</time>
      </trkpt>
      <trkpt lat="42.47463" lon="3.05358">
        <ele>591.59997558594</ele>
        <time>2023-07-12T05:49:26.000Z</time>
      </trkpt>
      <trkpt lat="42.47462" lon="3.05357">
        <ele>592.79998779297</ele>
        <time>2023-07-12T05:49:32.000Z</time>
      </trkpt>
      <trkpt lat="42.47462" lon="3.05357">
        <ele>593.20001220703</ele>
        <time>2023-07-12T05:49:34.000Z</time>
      </trkpt>
      <trkpt lat="42.47461" lon="3.05355">
        <ele>594</ele>
        <time>2023-07-12T05:49:36.000Z</time>
      </trkpt>
      <trkpt lat="42.47461" lon="3.05351">
        <ele>594.40002441406</ele>
        <time>2023-07-12T05:49:43.000Z</time>
      </trkpt>
      <trkpt lat="42.47461" lon="3.0535">
        <ele>595.20001220703</ele>
        <time>2023-07-12T05:49:45.000Z</time>
      </trkpt>
      <trkpt lat="42.4746" lon="3.05348">
        <ele>596.20001220703</ele>
        <time>2023-07-12T05:49:49.000Z</time>
      </trkpt>
      <trkpt lat="42.4746" lon="3.05347">
        <ele>596.40002441406</ele>
        <time>2023-07-12T05:49:51.000Z</time>
      </trkpt>
      <trkpt lat="42.4746" lon="3.05343">
        <ele>597.40002441406</ele>
        <time>2023-07-12T05:49:57.000Z</time>
      </trkpt>
      <trkpt lat="42.4746" lon="3.05343">
        <ele>597.59997558594</ele>
        <time>2023-07-12T05:49:58.000Z</time>
      </trkpt>
      <trkpt lat="42.47461" lon="3.05344">
        <ele>598</ele>
        <time>2023-07-12T05:50:06.000Z</time>
      </trkpt>
      <trkpt lat="42.47461" lon="3.05345">
        <ele>597.79998779297</ele>
        <time>2023-07-12T05:50:16.000Z</time>
      </trkpt>
      <trkpt lat="42.47462" lon="3.05341">
        <ele>598</ele>
        <time>2023-07-12T05:50:22.000Z</time>
      </trkpt>
      <trkpt lat="42.47464" lon="3.05338">
        <ele>598.59997558594</ele>
        <time>2023-07-12T05:50:26.000Z</time>
      </trkpt>
      <trkpt lat="42.47462" lon="3.05334">
        <ele>599.20001220703</ele>
        <time>2023-07-12T05:50:30.000Z</time>
      </trkpt>
      <trkpt lat="42.47461" lon="3.05332">
        <ele>599.79998779297</ele>
        <time>2023-07-12T05:50:33.000Z</time>
      </trkpt>
      <trkpt lat="42.4746" lon="3.05328">
        <ele>600.20001220703</ele>
        <time>2023-07-12T05:50:38.000Z</time>
      </trkpt>
      <trkpt lat="42.4746" lon="3.05327">
        <ele>600.79998779297</ele>
        <time>2023-07-12T05:50:41.000Z</time>
      </trkpt>
      <trkpt lat="42.47458" lon="3.05325">
        <ele>601.79998779297</ele>
        <time>2023-07-12T05:50:46.000Z</time>
      </trkpt>
      <trkpt lat="42.47457" lon="3.05326">
        <ele>602</ele>
        <time>2023-07-12T05:50:47.000Z</time>
      </trkpt>
      <trkpt lat="42.47455" lon="3.0532">
        <ele>603.40002441406</ele>
        <time>2023-07-12T05:50:54.000Z</time>
      </trkpt>
      <trkpt lat="42.47454" lon="3.05319">
        <ele>603.59997558594</ele>
        <time>2023-07-12T05:50:55.000Z</time>
      </trkpt>
      <trkpt lat="42.47452" lon="3.05314">
        <ele>604.59997558594</ele>
        <time>2023-07-12T05:51:02.000Z</time>
      </trkpt>
      <trkpt lat="42.47452" lon="3.05313">
        <ele>604.59997558594</ele>
        <time>2023-07-12T05:51:03.000Z</time>
      </trkpt>
      <trkpt lat="42.47449" lon="3.05309">
        <ele>605.79998779297</ele>
        <time>2023-07-12T05:51:11.000Z</time>
      </trkpt>
      <trkpt lat="42.47448" lon="3.05308">
        <ele>606</ele>
        <time>2023-07-12T05:51:13.000Z</time>
      </trkpt>
      <trkpt lat="42.47446" lon="3.05306">
        <ele>606.79998779297</ele>
        <time>2023-07-12T05:51:17.000Z</time>
      </trkpt>
      <trkpt lat="42.47447" lon="3.05304">
        <ele>607.20001220703</ele>
        <time>2023-07-12T05:51:21.000Z</time>
      </trkpt>
      <trkpt lat="42.47448" lon="3.053">
        <ele>608.20001220703</ele>
        <time>2023-07-12T05:51:26.000Z</time>
      </trkpt>
      <trkpt lat="42.47448" lon="3.05298">
        <ele>608.40002441406</ele>
        <time>2023-07-12T05:51:29.000Z</time>
      </trkpt>
      <trkpt lat="42.47449" lon="3.05292">
        <ele>609.20001220703</ele>
        <time>2023-07-12T05:51:33.000Z</time>
      </trkpt>
      <trkpt lat="42.47448" lon="3.05288">
        <ele>609.59997558594</ele>
        <time>2023-07-12T05:51:37.000Z</time>
      </trkpt>
      <trkpt lat="42.47448" lon="3.05286">
        <ele>610.20001220703</ele>
        <time>2023-07-12T05:51:40.000Z</time>
      </trkpt>
      <trkpt lat="42.47447" lon="3.05286">
        <ele>611</ele>
        <time>2023-07-12T05:51:45.000Z</time>
      </trkpt>
      <trkpt lat="42.47447" lon="3.05285">
        <ele>611.40002441406</ele>
        <time>2023-07-12T05:51:47.000Z</time>
      </trkpt>
      <trkpt lat="42.47447" lon="3.05281">
        <ele>612.20001220703</ele>
        <time>2023-07-12T05:51:53.000Z</time>
      </trkpt>
      <trkpt lat="42.47447" lon="3.05279">
        <ele>612.40002441406</ele>
        <time>2023-07-12T05:51:55.000Z</time>
      </trkpt>
      <trkpt lat="42.47447" lon="3.05273">
        <ele>613</ele>
        <time>2023-07-12T05:52:00.000Z</time>
      </trkpt>
      <trkpt lat="42.47447" lon="3.05272">
        <ele>613.40002441406</ele>
        <time>2023-07-12T05:52:02.000Z</time>
      </trkpt>
      <trkpt lat="42.47447" lon="3.05269">
        <ele>614.40002441406</ele>
        <time>2023-07-12T05:52:07.000Z</time>
      </trkpt>
      <trkpt lat="42.47444" lon="3.05269">
        <ele>613.79998779297</ele>
        <time>2023-07-12T05:52:17.000Z</time>
      </trkpt>
      <trkpt lat="42.47445" lon="3.05269">
        <ele>613.40002441406</ele>
        <time>2023-07-12T05:52:26.000Z</time>
      </trkpt>
      <trkpt lat="42.47445" lon="3.0527">
        <ele>613.20001220703</ele>
        <time>2023-07-12T05:52:32.000Z</time>
      </trkpt>
      <trkpt lat="42.47444" lon="3.05274">
        <ele>613.79998779297</ele>
        <time>2023-07-12T05:52:39.000Z</time>
      </trkpt>
      <trkpt lat="42.47446" lon="3.05275">
        <ele>614</ele>
        <time>2023-07-12T05:52:44.000Z</time>
      </trkpt>
      <trkpt lat="42.47448" lon="3.05279">
        <ele>614</ele>
        <time>2023-07-12T05:52:51.000Z</time>
      </trkpt>
      <trkpt lat="42.47447" lon="3.05279">
        <ele>613</ele>
        <time>2023-07-12T05:53:00.000Z</time>
      </trkpt>
      <trkpt lat="42.47447" lon="3.05275">
        <ele>614.20001220703</ele>
        <time>2023-07-12T05:53:08.000Z</time>
      </trkpt>
      <trkpt lat="42.47449" lon="3.05271">
        <ele>614</ele>
        <time>2023-07-12T05:53:13.000Z</time>
      </trkpt>
      <trkpt lat="42.47448" lon="3.05264">
        <ele>613.79998779297</ele>
        <time>2023-07-12T05:53:21.000Z</time>
      </trkpt>
      <trkpt lat="42.47445" lon="3.05261">
        <ele>614.40002441406</ele>
        <time>2023-07-12T05:53:26.000Z</time>
      </trkpt>
      <trkpt lat="42.47445" lon="3.0526">
        <ele>615</ele>
        <time>2023-07-12T05:53:29.000Z</time>
      </trkpt>
      <trkpt lat="42.47444" lon="3.05259">
        <ele>615.59997558594</ele>
        <time>2023-07-12T05:53:32.000Z</time>
      </trkpt>
      <trkpt lat="42.47443" lon="3.05257">
        <ele>616.20001220703</ele>
        <time>2023-07-12T05:53:36.000Z</time>
      </trkpt>
      <trkpt lat="42.47442" lon="3.05256">
        <ele>616.59997558594</ele>
        <time>2023-07-12T05:53:38.000Z</time>
      </trkpt>
      <trkpt lat="42.47437" lon="3.05253">
        <ele>616.79998779297</ele>
        <time>2023-07-12T05:53:45.000Z</time>
      </trkpt>
      <trkpt lat="42.47435" lon="3.05248">
        <ele>617.59997558594</ele>
        <time>2023-07-12T05:53:54.000Z</time>
      </trkpt>
      <trkpt lat="42.47435" lon="3.05244">
        <ele>618.79998779297</ele>
        <time>2023-07-12T05:53:59.000Z</time>
      </trkpt>
      <trkpt lat="42.47434" lon="3.0524">
        <ele>619.59997558594</ele>
        <time>2023-07-12T05:54:03.000Z</time>
      </trkpt>
      <trkpt lat="42.47434" lon="3.05238">
        <ele>620</ele>
        <time>2023-07-12T05:54:04.000Z</time>
      </trkpt>
      <trkpt lat="42.47431" lon="3.05232">
        <ele>621</ele>
        <time>2023-07-12T05:54:10.000Z</time>
      </trkpt>
      <trkpt lat="42.4743" lon="3.05232">
        <ele>621.20001220703</ele>
        <time>2023-07-12T05:54:12.000Z</time>
      </trkpt>
      <trkpt lat="42.47429" lon="3.05229">
        <ele>622.79998779297</ele>
        <time>2023-07-12T05:54:16.000Z</time>
      </trkpt>
      <trkpt lat="42.47427" lon="3.05225">
        <ele>623</ele>
        <time>2023-07-12T05:54:19.000Z</time>
      </trkpt>
      <trkpt lat="42.47426" lon="3.05222">
        <ele>623</ele>
        <time>2023-07-12T05:54:24.000Z</time>
      </trkpt>
      <trkpt lat="42.47429" lon="3.05217">
        <ele>624</ele>
        <time>2023-07-12T05:54:31.000Z</time>
      </trkpt>
      <trkpt lat="42.47429" lon="3.05215">
        <ele>624.40002441406</ele>
        <time>2023-07-12T05:54:32.000Z</time>
      </trkpt>
      <trkpt lat="42.47428" lon="3.05208">
        <ele>624.79998779297</ele>
        <time>2023-07-12T05:54:41.000Z</time>
      </trkpt>
      <trkpt lat="42.47426" lon="3.05204">
        <ele>625.20001220703</ele>
        <time>2023-07-12T05:54:47.000Z</time>
      </trkpt>
      <trkpt lat="42.47426" lon="3.05203">
        <ele>626.20001220703</ele>
        <time>2023-07-12T05:54:51.000Z</time>
      </trkpt>
      <trkpt lat="42.47426" lon="3.05203">
        <ele>626.40002441406</ele>
        <time>2023-07-12T05:54:53.000Z</time>
      </trkpt>
      <trkpt lat="42.47427" lon="3.05199">
        <ele>627.20001220703</ele>
        <time>2023-07-12T05:54:57.000Z</time>
      </trkpt>
      <trkpt lat="42.47427" lon="3.05196">
        <ele>627.59997558594</ele>
        <time>2023-07-12T05:55:00.000Z</time>
      </trkpt>
      <trkpt lat="42.47426" lon="3.05191">
        <ele>628.20001220703</ele>
        <time>2023-07-12T05:55:07.000Z</time>
      </trkpt>
      <trkpt lat="42.47425" lon="3.0519">
        <ele>628.59997558594</ele>
        <time>2023-07-12T05:55:09.000Z</time>
      </trkpt>
      <trkpt lat="42.47425" lon="3.05186">
        <ele>629.20001220703</ele>
        <time>2023-07-12T05:55:13.000Z</time>
      </trkpt>
      <trkpt lat="42.47426" lon="3.05185">
        <ele>629.59997558594</ele>
        <time>2023-07-12T05:55:17.000Z</time>
      </trkpt>
      <trkpt lat="42.47424" lon="3.05183">
        <ele>630.40002441406</ele>
        <time>2023-07-12T05:55:21.000Z</time>
      </trkpt>
      <trkpt lat="42.47421" lon="3.05181">
        <ele>631.20001220703</ele>
        <time>2023-07-12T05:55:25.000Z</time>
      </trkpt>
      <trkpt lat="42.47421" lon="3.05179">
        <ele>631.59997558594</ele>
        <time>2023-07-12T05:55:28.000Z</time>
      </trkpt>
      <trkpt lat="42.47421" lon="3.05178">
        <ele>632</ele>
        <time>2023-07-12T05:55:31.000Z</time>
      </trkpt>
      <trkpt lat="42.47421" lon="3.05176">
        <ele>632.59997558594</ele>
        <time>2023-07-12T05:55:36.000Z</time>
      </trkpt>
      <trkpt lat="42.47421" lon="3.05173">
        <ele>633.79998779297</ele>
        <time>2023-07-12T05:55:40.000Z</time>
      </trkpt>
      <trkpt lat="42.47422" lon="3.05173">
        <ele>634.20001220703</ele>
        <time>2023-07-12T05:55:41.000Z</time>
      </trkpt>
      <trkpt lat="42.47423" lon="3.05171">
        <ele>634.79998779297</ele>
        <time>2023-07-12T05:55:44.000Z</time>
      </trkpt>
      <trkpt lat="42.47424" lon="3.05168">
        <ele>635.79998779297</ele>
        <time>2023-07-12T05:55:50.000Z</time>
      </trkpt>
      <trkpt lat="42.47421" lon="3.05166">
        <ele>636</ele>
        <time>2023-07-12T05:55:56.000Z</time>
      </trkpt>
      <trkpt lat="42.47417" lon="3.05163">
        <ele>636.40002441406</ele>
        <time>2023-07-12T05:56:02.000Z</time>
      </trkpt>
      <trkpt lat="42.47415" lon="3.05161">
        <ele>637</ele>
        <time>2023-07-12T05:56:05.000Z</time>
      </trkpt>
      <trkpt lat="42.47413" lon="3.05158">
        <ele>638.59997558594</ele>
        <time>2023-07-12T05:56:10.000Z</time>
      </trkpt>
      <trkpt lat="42.47412" lon="3.05156">
        <ele>639.59997558594</ele>
        <time>2023-07-12T05:56:16.000Z</time>
      </trkpt>
      <trkpt lat="42.47412" lon="3.05152">
        <ele>640.79998779297</ele>
        <time>2023-07-12T05:56:20.000Z</time>
      </trkpt>
      <trkpt lat="42.47413" lon="3.05146">
        <ele>641.20001220703</ele>
        <time>2023-07-12T05:56:29.000Z</time>
      </trkpt>
      <trkpt lat="42.47413" lon="3.05144">
        <ele>641.79998779297</ele>
        <time>2023-07-12T05:56:32.000Z</time>
      </trkpt>
      <trkpt lat="42.47412" lon="3.05139">
        <ele>642.40002441406</ele>
        <time>2023-07-12T05:56:39.000Z</time>
      </trkpt>
      <trkpt lat="42.47412" lon="3.05136">
        <ele>643.20001220703</ele>
        <time>2023-07-12T05:56:41.000Z</time>
      </trkpt>
      <trkpt lat="42.47411" lon="3.05132">
        <ele>644.40002441406</ele>
        <time>2023-07-12T05:56:44.000Z</time>
      </trkpt>
      <trkpt lat="42.47411" lon="3.05131">
        <ele>645.20001220703</ele>
        <time>2023-07-12T05:56:47.000Z</time>
      </trkpt>
      <trkpt lat="42.4741" lon="3.05129">
        <ele>645.40002441406</ele>
        <time>2023-07-12T05:56:48.000Z</time>
      </trkpt>
      <trkpt lat="42.47409" lon="3.05126">
        <ele>645.20001220703</ele>
        <time>2023-07-12T05:56:53.000Z</time>
      </trkpt>
      <trkpt lat="42.47406" lon="3.05118">
        <ele>645</ele>
        <time>2023-07-12T05:57:00.000Z</time>
      </trkpt>
      <trkpt lat="42.47403" lon="3.05113">
        <ele>646.40002441406</ele>
        <time>2023-07-12T05:57:07.000Z</time>
      </trkpt>
      <trkpt lat="42.47402" lon="3.05109">
        <ele>646.59997558594</ele>
        <time>2023-07-12T05:57:15.000Z</time>
      </trkpt>
      <trkpt lat="42.474" lon="3.05107">
        <ele>647.59997558594</ele>
        <time>2023-07-12T05:57:19.000Z</time>
      </trkpt>
      <trkpt lat="42.474" lon="3.05105">
        <ele>648.20001220703</ele>
        <time>2023-07-12T05:57:24.000Z</time>
      </trkpt>
      <trkpt lat="42.474" lon="3.05104">
        <ele>648.40002441406</ele>
        <time>2023-07-12T05:57:25.000Z</time>
      </trkpt>
      <trkpt lat="42.474" lon="3.05102">
        <ele>648.59997558594</ele>
        <time>2023-07-12T05:57:26.000Z</time>
      </trkpt>
      <trkpt lat="42.47399" lon="3.05099">
        <ele>649.59997558594</ele>
        <time>2023-07-12T05:57:31.000Z</time>
      </trkpt>
      <trkpt lat="42.47398" lon="3.05098">
        <ele>649.79998779297</ele>
        <time>2023-07-12T05:57:33.000Z</time>
      </trkpt>
      <trkpt lat="42.47397" lon="3.05095">
        <ele>651</ele>
        <time>2023-07-12T05:57:39.000Z</time>
      </trkpt>
      <trkpt lat="42.47394" lon="3.05097">
        <ele>651.59997558594</ele>
        <time>2023-07-12T05:57:47.000Z</time>
      </trkpt>
      <trkpt lat="42.47395" lon="3.05097">
        <ele>651.59997558594</ele>
        <time>2023-07-12T05:57:57.000Z</time>
      </trkpt>
      <trkpt lat="42.47398" lon="3.05093">
        <ele>651.79998779297</ele>
        <time>2023-07-12T05:58:05.000Z</time>
      </trkpt>
      <trkpt lat="42.47396" lon="3.05095">
        <ele>651.79998779297</ele>
        <time>2023-07-12T05:58:14.000Z</time>
      </trkpt>
      <trkpt lat="42.47396" lon="3.05096">
        <ele>651.59997558594</ele>
        <time>2023-07-12T05:58:22.000Z</time>
      </trkpt>
      <trkpt lat="42.47399" lon="3.05096">
        <ele>651.59997558594</ele>
        <time>2023-07-12T05:58:36.000Z</time>
      </trkpt>
      <trkpt lat="42.47399" lon="3.05097">
        <ele>651.40002441406</ele>
        <time>2023-07-12T05:58:44.000Z</time>
      </trkpt>
      <trkpt lat="42.47398" lon="3.05095">
        <ele>651.59997558594</ele>
        <time>2023-07-12T05:58:53.000Z</time>
      </trkpt>
      <trkpt lat="42.47397" lon="3.05093">
        <ele>651.79998779297</ele>
        <time>2023-07-12T05:59:03.000Z</time>
      </trkpt>
      <trkpt lat="42.47397" lon="3.05092">
        <ele>652</ele>
        <time>2023-07-12T05:59:04.000Z</time>
      </trkpt>
      <trkpt lat="42.474" lon="3.05093">
        <ele>652.20001220703</ele>
        <time>2023-07-12T05:59:14.000Z</time>
      </trkpt>
      <trkpt lat="42.47397" lon="3.05097">
        <ele>652</ele>
        <time>2023-07-12T05:59:23.000Z</time>
      </trkpt>
      <trkpt lat="42.47398" lon="3.05096">
        <ele>652</ele>
        <time>2023-07-12T05:59:30.000Z</time>
      </trkpt>
      <trkpt lat="42.474" lon="3.05096">
        <ele>651.79998779297</ele>
        <time>2023-07-12T05:59:42.000Z</time>
      </trkpt>
      <trkpt lat="42.47398" lon="3.05094">
        <ele>651.79998779297</ele>
        <time>2023-07-12T05:59:50.000Z</time>
      </trkpt>
      <trkpt lat="42.47398" lon="3.05092">
        <ele>651.79998779297</ele>
        <time>2023-07-12T05:59:58.000Z</time>
      </trkpt>
      <trkpt lat="42.47397" lon="3.0509">
        <ele>653.20001220703</ele>
        <time>2023-07-12T06:00:05.000Z</time>
      </trkpt>
      <trkpt lat="42.47395" lon="3.05089">
        <ele>653.59997558594</ele>
        <time>2023-07-12T06:00:07.000Z</time>
      </trkpt>
      <trkpt lat="42.47395" lon="3.05084">
        <ele>654.20001220703</ele>
        <time>2023-07-12T06:00:12.000Z</time>
      </trkpt>
      <trkpt lat="42.47395" lon="3.05081">
        <ele>654.79998779297</ele>
        <time>2023-07-12T06:00:16.000Z</time>
      </trkpt>
      <trkpt lat="42.47396" lon="3.05078">
        <ele>655.40002441406</ele>
        <time>2023-07-12T06:00:19.000Z</time>
      </trkpt>
      <trkpt lat="42.47396" lon="3.05074">
        <ele>656.40002441406</ele>
        <time>2023-07-12T06:00:23.000Z</time>
      </trkpt>
      <trkpt lat="42.47396" lon="3.05073">
        <ele>656.79998779297</ele>
        <time>2023-07-12T06:00:25.000Z</time>
      </trkpt>
      <trkpt lat="42.47396" lon="3.05071">
        <ele>657.59997558594</ele>
        <time>2023-07-12T06:00:30.000Z</time>
      </trkpt>
      <trkpt lat="42.47396" lon="3.05072">
        <ele>658.20001220703</ele>
        <time>2023-07-12T06:00:34.000Z</time>
      </trkpt>
      <trkpt lat="42.47399" lon="3.05066">
        <ele>659</ele>
        <time>2023-07-12T06:00:42.000Z</time>
      </trkpt>
      <trkpt lat="42.47399" lon="3.05065">
        <ele>659.40002441406</ele>
        <time>2023-07-12T06:00:43.000Z</time>
      </trkpt>
      <trkpt lat="42.47399" lon="3.05063">
        <ele>660.20001220703</ele>
        <time>2023-07-12T06:00:45.000Z</time>
      </trkpt>
      <trkpt lat="42.47398" lon="3.05061">
        <ele>660.59997558594</ele>
        <time>2023-07-12T06:00:49.000Z</time>
      </trkpt>
      <trkpt lat="42.47401" lon="3.0506">
        <ele>661</ele>
        <time>2023-07-12T06:00:55.000Z</time>
      </trkpt>
      <trkpt lat="42.47402" lon="3.05061">
        <ele>661.59997558594</ele>
        <time>2023-07-12T06:00:56.000Z</time>
      </trkpt>
      <trkpt lat="42.47404" lon="3.05061">
        <ele>663.40002441406</ele>
        <time>2023-07-12T06:00:58.000Z</time>
      </trkpt>
      <trkpt lat="42.47406" lon="3.05062">
        <ele>663.59997558594</ele>
        <time>2023-07-12T06:01:02.000Z</time>
      </trkpt>
      <trkpt lat="42.47405" lon="3.05056">
        <ele>662</ele>
        <time>2023-07-12T06:01:09.000Z</time>
      </trkpt>
      <trkpt lat="42.47404" lon="3.05054">
        <ele>661.20001220703</ele>
        <time>2023-07-12T06:01:11.000Z</time>
      </trkpt>
      <trkpt lat="42.47397" lon="3.05046">
        <ele>661.20001220703</ele>
        <time>2023-07-12T06:01:19.000Z</time>
      </trkpt>
      <trkpt lat="42.47398" lon="3.05041">
        <ele>660.40002441406</ele>
        <time>2023-07-12T06:01:24.000Z</time>
      </trkpt>
      <trkpt lat="42.47399" lon="3.05037">
        <ele>660.20001220703</ele>
        <time>2023-07-12T06:01:27.000Z</time>
      </trkpt>
      <trkpt lat="42.47399" lon="3.05026">
        <ele>661.40002441406</ele>
        <time>2023-07-12T06:01:36.000Z</time>
      </trkpt>
      <trkpt lat="42.47399" lon="3.05025">
        <ele>661.40002441406</ele>
        <time>2023-07-12T06:01:38.000Z</time>
      </trkpt>
      <trkpt lat="42.47398" lon="3.05021">
        <ele>662.20001220703</ele>
        <time>2023-07-12T06:01:42.000Z</time>
      </trkpt>
      <trkpt lat="42.47394" lon="3.05017">
        <ele>662.40002441406</ele>
        <time>2023-07-12T06:01:49.000Z</time>
      </trkpt>
      <trkpt lat="42.4739" lon="3.05014">
        <ele>663.20001220703</ele>
        <time>2023-07-12T06:01:54.000Z</time>
      </trkpt>
      <trkpt lat="42.4739" lon="3.05013">
        <ele>663.59997558594</ele>
        <time>2023-07-12T06:01:55.000Z</time>
      </trkpt>
      <trkpt lat="42.47387" lon="3.05005">
        <ele>664.40002441406</ele>
        <time>2023-07-12T06:02:01.000Z</time>
      </trkpt>
      <trkpt lat="42.47387" lon="3.05005">
        <ele>664.79998779297</ele>
        <time>2023-07-12T06:02:02.000Z</time>
      </trkpt>
      <trkpt lat="42.47387" lon="3.05002">
        <ele>664.79998779297</ele>
        <time>2023-07-12T06:02:08.000Z</time>
      </trkpt>
      <trkpt lat="42.47386" lon="3.04998">
        <ele>666.20001220703</ele>
        <time>2023-07-12T06:02:14.000Z</time>
      </trkpt>
      <trkpt lat="42.47386" lon="3.04992">
        <ele>667.20001220703</ele>
        <time>2023-07-12T06:02:22.000Z</time>
      </trkpt>
      <trkpt lat="42.47386" lon="3.04989">
        <ele>668.40002441406</ele>
        <time>2023-07-12T06:02:27.000Z</time>
      </trkpt>
      <trkpt lat="42.47387" lon="3.04987">
        <ele>669.40002441406</ele>
        <time>2023-07-12T06:02:30.000Z</time>
      </trkpt>
      <trkpt lat="42.47387" lon="3.04987">
        <ele>669.59997558594</ele>
        <time>2023-07-12T06:02:31.000Z</time>
      </trkpt>
      <trkpt lat="42.4739" lon="3.04982">
        <ele>670.59997558594</ele>
        <time>2023-07-12T06:02:38.000Z</time>
      </trkpt>
      <trkpt lat="42.47391" lon="3.04982">
        <ele>670.59997558594</ele>
        <time>2023-07-12T06:02:39.000Z</time>
      </trkpt>
      <trkpt lat="42.47391" lon="3.04977">
        <ele>671.40002441406</ele>
        <time>2023-07-12T06:02:45.000Z</time>
      </trkpt>
      <trkpt lat="42.47392" lon="3.04977">
        <ele>671.59997558594</ele>
        <time>2023-07-12T06:02:46.000Z</time>
      </trkpt>
      <trkpt lat="42.47392" lon="3.04974">
        <ele>672.79998779297</ele>
        <time>2023-07-12T06:02:50.000Z</time>
      </trkpt>
      <trkpt lat="42.47393" lon="3.04967">
        <ele>673.40002441406</ele>
        <time>2023-07-12T06:02:55.000Z</time>
      </trkpt>
      <trkpt lat="42.47393" lon="3.04965">
        <ele>674</ele>
        <time>2023-07-12T06:02:59.000Z</time>
      </trkpt>
      <trkpt lat="42.47391" lon="3.04962">
        <ele>674.40002441406</ele>
        <time>2023-07-12T06:03:02.000Z</time>
      </trkpt>
      <trkpt lat="42.47391" lon="3.0496">
        <ele>675.40002441406</ele>
        <time>2023-07-12T06:03:06.000Z</time>
      </trkpt>
      <trkpt lat="42.47393" lon="3.04953">
        <ele>675.59997558594</ele>
        <time>2023-07-12T06:03:13.000Z</time>
      </trkpt>
      <trkpt lat="42.47394" lon="3.04951">
        <ele>676.59997558594</ele>
        <time>2023-07-12T06:03:16.000Z</time>
      </trkpt>
      <trkpt lat="42.47398" lon="3.04949">
        <ele>677.40002441406</ele>
        <time>2023-07-12T06:03:23.000Z</time>
      </trkpt>
      <trkpt lat="42.474" lon="3.04947">
        <ele>677.59997558594</ele>
        <time>2023-07-12T06:03:29.000Z</time>
      </trkpt>
      <trkpt lat="42.47399" lon="3.04946">
        <ele>678.20001220703</ele>
        <time>2023-07-12T06:03:31.000Z</time>
      </trkpt>
      <trkpt lat="42.474" lon="3.04943">
        <ele>678.79998779297</ele>
        <time>2023-07-12T06:03:34.000Z</time>
      </trkpt>
      <trkpt lat="42.47399" lon="3.04941">
        <ele>678.79998779297</ele>
        <time>2023-07-12T06:03:38.000Z</time>
      </trkpt>
      <trkpt lat="42.47399" lon="3.04939">
        <ele>679.79998779297</ele>
        <time>2023-07-12T06:03:41.000Z</time>
      </trkpt>
      <trkpt lat="42.474" lon="3.04932">
        <ele>680.59997558594</ele>
        <time>2023-07-12T06:03:48.000Z</time>
      </trkpt>
      <trkpt lat="42.47403" lon="3.04929">
        <ele>681.20001220703</ele>
        <time>2023-07-12T06:03:53.000Z</time>
      </trkpt>
      <trkpt lat="42.47405" lon="3.04928">
        <ele>681.79998779297</ele>
        <time>2023-07-12T06:03:55.000Z</time>
      </trkpt>
      <trkpt lat="42.47408" lon="3.04923">
        <ele>682.20001220703</ele>
        <time>2023-07-12T06:03:58.000Z</time>
      </trkpt>
      <trkpt lat="42.47409" lon="3.04921">
        <ele>682.79998779297</ele>
        <time>2023-07-12T06:04:02.000Z</time>
      </trkpt>
      <trkpt lat="42.47408" lon="3.04916">
        <ele>683.40002441406</ele>
        <time>2023-07-12T06:04:07.000Z</time>
      </trkpt>
      <trkpt lat="42.47407" lon="3.04914">
        <ele>684.20001220703</ele>
        <time>2023-07-12T06:04:10.000Z</time>
      </trkpt>
      <trkpt lat="42.47407" lon="3.04912">
        <ele>684.59997558594</ele>
        <time>2023-07-12T06:04:13.000Z</time>
      </trkpt>
      <trkpt lat="42.47406" lon="3.04908">
        <ele>685.20001220703</ele>
        <time>2023-07-12T06:04:18.000Z</time>
      </trkpt>
      <trkpt lat="42.47406" lon="3.04905">
        <ele>685.79998779297</ele>
        <time>2023-07-12T06:04:20.000Z</time>
      </trkpt>
      <trkpt lat="42.47406" lon="3.04896">
        <ele>687</ele>
        <time>2023-07-12T06:04:27.000Z</time>
      </trkpt>
      <trkpt lat="42.47405" lon="3.04895">
        <ele>687</ele>
        <time>2023-07-12T06:04:28.000Z</time>
      </trkpt>
      <trkpt lat="42.47406" lon="3.04888">
        <ele>688.20001220703</ele>
        <time>2023-07-12T06:04:35.000Z</time>
      </trkpt>
      <trkpt lat="42.47407" lon="3.04885">
        <ele>688.79998779297</ele>
        <time>2023-07-12T06:04:37.000Z</time>
      </trkpt>
      <trkpt lat="42.47408" lon="3.04882">
        <ele>689.20001220703</ele>
        <time>2023-07-12T06:04:39.000Z</time>
      </trkpt>
      <trkpt lat="42.47407" lon="3.0488">
        <ele>689.79998779297</ele>
        <time>2023-07-12T06:04:44.000Z</time>
      </trkpt>
      <trkpt lat="42.47405" lon="3.0488">
        <ele>690.20001220703</ele>
        <time>2023-07-12T06:04:46.000Z</time>
      </trkpt>
      <trkpt lat="42.47402" lon="3.04882">
        <ele>691</ele>
        <time>2023-07-12T06:04:51.000Z</time>
      </trkpt>
      <trkpt lat="42.474" lon="3.04882">
        <ele>691.40002441406</ele>
        <time>2023-07-12T06:04:53.000Z</time>
      </trkpt>
      <trkpt lat="42.47398" lon="3.04883">
        <ele>692.59997558594</ele>
        <time>2023-07-12T06:04:59.000Z</time>
      </trkpt>
      <trkpt lat="42.47397" lon="3.04884">
        <ele>693.59997558594</ele>
        <time>2023-07-12T06:05:03.000Z</time>
      </trkpt>
      <trkpt lat="42.47396" lon="3.04883">
        <ele>694.40002441406</ele>
        <time>2023-07-12T06:05:06.000Z</time>
      </trkpt>
      <trkpt lat="42.47395" lon="3.0488">
        <ele>694.79998779297</ele>
        <time>2023-07-12T06:05:10.000Z</time>
      </trkpt>
      <trkpt lat="42.47392" lon="3.04877">
        <ele>695.40002441406</ele>
        <time>2023-07-12T06:05:14.000Z</time>
      </trkpt>
      <trkpt lat="42.47391" lon="3.04876">
        <ele>696</ele>
        <time>2023-07-12T06:05:17.000Z</time>
      </trkpt>
      <trkpt lat="42.47387" lon="3.04875">
        <ele>697</ele>
        <time>2023-07-12T06:05:23.000Z</time>
      </trkpt>
      <trkpt lat="42.47387" lon="3.04876">
        <ele>697</ele>
        <time>2023-07-12T06:05:24.000Z</time>
      </trkpt>
      <trkpt lat="42.47386" lon="3.04874">
        <ele>698</ele>
        <time>2023-07-12T06:05:27.000Z</time>
      </trkpt>
      <trkpt lat="42.47383" lon="3.04869">
        <ele>698.40002441406</ele>
        <time>2023-07-12T06:05:31.000Z</time>
      </trkpt>
      <trkpt lat="42.47384" lon="3.04866">
        <ele>699</ele>
        <time>2023-07-12T06:05:37.000Z</time>
      </trkpt>
      <trkpt lat="42.47384" lon="3.04866">
        <ele>699</ele>
        <time>2023-07-12T06:05:38.000Z</time>
      </trkpt>
      <trkpt lat="42.47382" lon="3.04862">
        <ele>700</ele>
        <time>2023-07-12T06:05:43.000Z</time>
      </trkpt>
      <trkpt lat="42.4738" lon="3.04864">
        <ele>701.20001220703</ele>
        <time>2023-07-12T06:05:47.000Z</time>
      </trkpt>
      <trkpt lat="42.47378" lon="3.04863">
        <ele>701.59997558594</ele>
        <time>2023-07-12T06:05:50.000Z</time>
      </trkpt>
      <trkpt lat="42.47378" lon="3.04859">
        <ele>702.20001220703</ele>
        <time>2023-07-12T06:05:54.000Z</time>
      </trkpt>
      <trkpt lat="42.47379" lon="3.04855">
        <ele>702.79998779297</ele>
        <time>2023-07-12T06:05:58.000Z</time>
      </trkpt>
      <trkpt lat="42.47378" lon="3.04852">
        <ele>703.20001220703</ele>
        <time>2023-07-12T06:06:01.000Z</time>
      </trkpt>
      <trkpt lat="42.47378" lon="3.04849">
        <ele>704.40002441406</ele>
        <time>2023-07-12T06:06:06.000Z</time>
      </trkpt>
      <trkpt lat="42.4738" lon="3.04843">
        <ele>705.40002441406</ele>
        <time>2023-07-12T06:06:12.000Z</time>
      </trkpt>
      <trkpt lat="42.4738" lon="3.04841">
        <ele>705.40002441406</ele>
        <time>2023-07-12T06:06:15.000Z</time>
      </trkpt>
      <trkpt lat="42.47378" lon="3.04842">
        <ele>706.79998779297</ele>
        <time>2023-07-12T06:06:21.000Z</time>
      </trkpt>
      <trkpt lat="42.47378" lon="3.04841">
        <ele>707</ele>
        <time>2023-07-12T06:06:23.000Z</time>
      </trkpt>
      <trkpt lat="42.47378" lon="3.04836">
        <ele>707.79998779297</ele>
        <time>2023-07-12T06:06:29.000Z</time>
      </trkpt>
      <trkpt lat="42.47378" lon="3.04835">
        <ele>707.79998779297</ele>
        <time>2023-07-12T06:06:30.000Z</time>
      </trkpt>
      <trkpt lat="42.4738" lon="3.04828">
        <ele>708.79998779297</ele>
        <time>2023-07-12T06:06:38.000Z</time>
      </trkpt>
      <trkpt lat="42.4738" lon="3.04826">
        <ele>709.20001220703</ele>
        <time>2023-07-12T06:06:40.000Z</time>
      </trkpt>
      <trkpt lat="42.4738" lon="3.04825">
        <ele>710</ele>
        <time>2023-07-12T06:06:43.000Z</time>
      </trkpt>
      <trkpt lat="42.4738" lon="3.04821">
        <ele>710.79998779297</ele>
        <time>2023-07-12T06:06:50.000Z</time>
      </trkpt>
      <trkpt lat="42.47381" lon="3.04819">
        <ele>711.20001220703</ele>
        <time>2023-07-12T06:06:52.000Z</time>
      </trkpt>
      <trkpt lat="42.47382" lon="3.04818">
        <ele>712</ele>
        <time>2023-07-12T06:06:58.000Z</time>
      </trkpt>
      <trkpt lat="42.47382" lon="3.04818">
        <ele>712.40002441406</ele>
        <time>2023-07-12T06:06:59.000Z</time>
      </trkpt>
      <trkpt lat="42.47383" lon="3.0482">
        <ele>712.79998779297</ele>
        <time>2023-07-12T06:07:07.000Z</time>
      </trkpt>
      <trkpt lat="42.47386" lon="3.04824">
        <ele>712.79998779297</ele>
        <time>2023-07-12T06:07:13.000Z</time>
      </trkpt>
      <trkpt lat="42.47384" lon="3.0482">
        <ele>712.59997558594</ele>
        <time>2023-07-12T06:07:21.000Z</time>
      </trkpt>
      <trkpt lat="42.47388" lon="3.04814">
        <ele>712.59997558594</ele>
        <time>2023-07-12T06:07:30.000Z</time>
      </trkpt>
      <trkpt lat="42.47391" lon="3.0481">
        <ele>713.40002441406</ele>
        <time>2023-07-12T06:07:37.000Z</time>
      </trkpt>
      <trkpt lat="42.47388" lon="3.04809">
        <ele>714</ele>
        <time>2023-07-12T06:07:39.000Z</time>
      </trkpt>
      <trkpt lat="42.47387" lon="3.04808">
        <ele>714.40002441406</ele>
        <time>2023-07-12T06:07:41.000Z</time>
      </trkpt>
      <trkpt lat="42.47389" lon="3.04803">
        <ele>715.79998779297</ele>
        <time>2023-07-12T06:07:46.000Z</time>
      </trkpt>
      <trkpt lat="42.4739" lon="3.04802">
        <ele>716</ele>
        <time>2023-07-12T06:07:47.000Z</time>
      </trkpt>
      <trkpt lat="42.47393" lon="3.04797">
        <ele>717</ele>
        <time>2023-07-12T06:07:52.000Z</time>
      </trkpt>
      <trkpt lat="42.47394" lon="3.04795">
        <ele>717.59997558594</ele>
        <time>2023-07-12T06:07:55.000Z</time>
      </trkpt>
      <trkpt lat="42.47394" lon="3.04794">
        <ele>718.20001220703</ele>
        <time>2023-07-12T06:07:57.000Z</time>
      </trkpt>
      <trkpt lat="42.47394" lon="3.04788">
        <ele>719</ele>
        <time>2023-07-12T06:08:04.000Z</time>
      </trkpt>
      <trkpt lat="42.47394" lon="3.04785">
        <ele>719.40002441406</ele>
        <time>2023-07-12T06:08:08.000Z</time>
      </trkpt>
      <trkpt lat="42.47394" lon="3.04784">
        <ele>720.59997558594</ele>
        <time>2023-07-12T06:08:12.000Z</time>
      </trkpt>
      <trkpt lat="42.47395" lon="3.04782">
        <ele>720.79998779297</ele>
        <time>2023-07-12T06:08:14.000Z</time>
      </trkpt>
      <trkpt lat="42.47397" lon="3.04773">
        <ele>720.40002441406</ele>
        <time>2023-07-12T06:08:22.000Z</time>
      </trkpt>
      <trkpt lat="42.47396" lon="3.04768">
        <ele>720.40002441406</ele>
        <time>2023-07-12T06:08:29.000Z</time>
      </trkpt>
      <trkpt lat="42.47396" lon="3.04761">
        <ele>721.59997558594</ele>
        <time>2023-07-12T06:08:36.000Z</time>
      </trkpt>
      <trkpt lat="42.47396" lon="3.0476">
        <ele>721.79998779297</ele>
        <time>2023-07-12T06:08:37.000Z</time>
      </trkpt>
      <trkpt lat="42.47395" lon="3.04757">
        <ele>722.79998779297</ele>
        <time>2023-07-12T06:08:41.000Z</time>
      </trkpt>
      <trkpt lat="42.47395" lon="3.04756">
        <ele>722.79998779297</ele>
        <time>2023-07-12T06:08:43.000Z</time>
      </trkpt>
      <trkpt lat="42.47394" lon="3.04752">
        <ele>724</ele>
        <time>2023-07-12T06:08:47.000Z</time>
      </trkpt>
      <trkpt lat="42.47392" lon="3.0475">
        <ele>724.40002441406</ele>
        <time>2023-07-12T06:08:51.000Z</time>
      </trkpt>
      <trkpt lat="42.47392" lon="3.0475">
        <ele>725.20001220703</ele>
        <time>2023-07-12T06:08:56.000Z</time>
      </trkpt>
      <trkpt lat="42.47391" lon="3.04747">
        <ele>725.79998779297</ele>
        <time>2023-07-12T06:08:59.000Z</time>
      </trkpt>
      <trkpt lat="42.47391" lon="3.04745">
        <ele>726.20001220703</ele>
        <time>2023-07-12T06:09:02.000Z</time>
      </trkpt>
      <trkpt lat="42.47391" lon="3.04741">
        <ele>727.40002441406</ele>
        <time>2023-07-12T06:09:07.000Z</time>
      </trkpt>
      <trkpt lat="42.4739" lon="3.0474">
        <ele>727.59997558594</ele>
        <time>2023-07-12T06:09:09.000Z</time>
      </trkpt>
      <trkpt lat="42.47389" lon="3.04739">
        <ele>728.40002441406</ele>
        <time>2023-07-12T06:09:12.000Z</time>
      </trkpt>
      <trkpt lat="42.47388" lon="3.04738">
        <ele>728.79998779297</ele>
        <time>2023-07-12T06:09:15.000Z</time>
      </trkpt>
      <trkpt lat="42.47386" lon="3.04735">
        <ele>729.40002441406</ele>
        <time>2023-07-12T06:09:18.000Z</time>
      </trkpt>
      <trkpt lat="42.47384" lon="3.04733">
        <ele>730</ele>
        <time>2023-07-12T06:09:21.000Z</time>
      </trkpt>
      <trkpt lat="42.47384" lon="3.04731">
        <ele>730.59997558594</ele>
        <time>2023-07-12T06:09:24.000Z</time>
      </trkpt>
      <trkpt lat="42.47384" lon="3.04727">
        <ele>731.59997558594</ele>
        <time>2023-07-12T06:09:28.000Z</time>
      </trkpt>
      <trkpt lat="42.47383" lon="3.04726">
        <ele>731.59997558594</ele>
        <time>2023-07-12T06:09:29.000Z</time>
      </trkpt>
      <trkpt lat="42.47381" lon="3.0472">
        <ele>732.59997558594</ele>
        <time>2023-07-12T06:09:35.000Z</time>
      </trkpt>
      <trkpt lat="42.47378" lon="3.04717">
        <ele>733.79998779297</ele>
        <time>2023-07-12T06:09:40.000Z</time>
      </trkpt>
      <trkpt lat="42.47376" lon="3.04716">
        <ele>734</ele>
        <time>2023-07-12T06:09:44.000Z</time>
      </trkpt>
      <trkpt lat="42.47373" lon="3.04711">
        <ele>735</ele>
        <time>2023-07-12T06:09:50.000Z</time>
      </trkpt>
      <trkpt lat="42.47373" lon="3.0471">
        <ele>735</ele>
        <time>2023-07-12T06:09:52.000Z</time>
      </trkpt>
      <trkpt lat="42.47372" lon="3.04708">
        <ele>735.79998779297</ele>
        <time>2023-07-12T06:10:00.000Z</time>
      </trkpt>
      <trkpt lat="42.47372" lon="3.04708">
        <ele>736</ele>
        <time>2023-07-12T06:10:01.000Z</time>
      </trkpt>
      <trkpt lat="42.47375" lon="3.04702">
        <ele>737.20001220703</ele>
        <time>2023-07-12T06:10:09.000Z</time>
      </trkpt>
      <trkpt lat="42.47374" lon="3.04695">
        <ele>738.20001220703</ele>
        <time>2023-07-12T06:10:14.000Z</time>
      </trkpt>
      <trkpt lat="42.47373" lon="3.04691">
        <ele>738.40002441406</ele>
        <time>2023-07-12T06:10:17.000Z</time>
      </trkpt>
      <trkpt lat="42.47366" lon="3.0469">
        <ele>739.20001220703</ele>
        <time>2023-07-12T06:10:25.000Z</time>
      </trkpt>
      <trkpt lat="42.47363" lon="3.0469">
        <ele>739.20001220703</ele>
        <time>2023-07-12T06:10:29.000Z</time>
      </trkpt>
      <trkpt lat="42.47361" lon="3.04683">
        <ele>739.59997558594</ele>
        <time>2023-07-12T06:10:34.000Z</time>
      </trkpt>
      <trkpt lat="42.47361" lon="3.04673">
        <ele>740.59997558594</ele>
        <time>2023-07-12T06:10:41.000Z</time>
      </trkpt>
      <trkpt lat="42.47361" lon="3.04672">
        <ele>740.79998779297</ele>
        <time>2023-07-12T06:10:42.000Z</time>
      </trkpt>
      <trkpt lat="42.4736" lon="3.04669">
        <ele>741.79998779297</ele>
        <time>2023-07-12T06:10:46.000Z</time>
      </trkpt>
      <trkpt lat="42.47361" lon="3.04665">
        <ele>742.40002441406</ele>
        <time>2023-07-12T06:10:50.000Z</time>
      </trkpt>
      <trkpt lat="42.47361" lon="3.04664">
        <ele>742.79998779297</ele>
        <time>2023-07-12T06:10:52.000Z</time>
      </trkpt>
      <trkpt lat="42.47364" lon="3.04659">
        <ele>744</ele>
        <time>2023-07-12T06:10:58.000Z</time>
      </trkpt>
      <trkpt lat="42.47364" lon="3.04658">
        <ele>744.20001220703</ele>
        <time>2023-07-12T06:10:59.000Z</time>
      </trkpt>
      <trkpt lat="42.47362" lon="3.04657">
        <ele>745</ele>
        <time>2023-07-12T06:11:03.000Z</time>
      </trkpt>
      <trkpt lat="42.47361" lon="3.04656">
        <ele>745.79998779297</ele>
        <time>2023-07-12T06:11:07.000Z</time>
      </trkpt>
      <trkpt lat="42.47362" lon="3.04655">
        <ele>746.20001220703</ele>
        <time>2023-07-12T06:11:09.000Z</time>
      </trkpt>
      <trkpt lat="42.47369" lon="3.04652">
        <ele>747</ele>
        <time>2023-07-12T06:11:15.000Z</time>
      </trkpt>
      <trkpt lat="42.47369" lon="3.04652">
        <ele>747.20001220703</ele>
        <time>2023-07-12T06:11:16.000Z</time>
      </trkpt>
      <trkpt lat="42.47371" lon="3.04649">
        <ele>748.40002441406</ele>
        <time>2023-07-12T06:11:23.000Z</time>
      </trkpt>
      <trkpt lat="42.47371" lon="3.04648">
        <ele>748.59997558594</ele>
        <time>2023-07-12T06:11:24.000Z</time>
      </trkpt>
      <trkpt lat="42.47373" lon="3.0465">
        <ele>749.59997558594</ele>
        <time>2023-07-12T06:11:29.000Z</time>
      </trkpt>
      <trkpt lat="42.47375" lon="3.04649">
        <ele>750</ele>
        <time>2023-07-12T06:11:32.000Z</time>
      </trkpt>
      <trkpt lat="42.47378" lon="3.0465">
        <ele>750.59997558594</ele>
        <time>2023-07-12T06:11:37.000Z</time>
      </trkpt>
      <trkpt lat="42.47378" lon="3.0465">
        <ele>751.20001220703</ele>
        <time>2023-07-12T06:11:40.000Z</time>
      </trkpt>
      <trkpt lat="42.47378" lon="3.04648">
        <ele>751.79998779297</ele>
        <time>2023-07-12T06:11:44.000Z</time>
      </trkpt>
      <trkpt lat="42.47378" lon="3.04644">
        <ele>752.20001220703</ele>
        <time>2023-07-12T06:11:48.000Z</time>
      </trkpt>
      <trkpt lat="42.4738" lon="3.04643">
        <ele>752.79998779297</ele>
        <time>2023-07-12T06:11:52.000Z</time>
      </trkpt>
      <trkpt lat="42.47382" lon="3.04641">
        <ele>753.20001220703</ele>
        <time>2023-07-12T06:11:55.000Z</time>
      </trkpt>
      <trkpt lat="42.47384" lon="3.0464">
        <ele>754</ele>
        <time>2023-07-12T06:11:59.000Z</time>
      </trkpt>
      <trkpt lat="42.47387" lon="3.04638">
        <ele>755</ele>
        <time>2023-07-12T06:12:04.000Z</time>
      </trkpt>
      <trkpt lat="42.4739" lon="3.04637">
        <ele>756</ele>
        <time>2023-07-12T06:12:11.000Z</time>
      </trkpt>
      <trkpt lat="42.47391" lon="3.04635">
        <ele>756.40002441406</ele>
        <time>2023-07-12T06:12:14.000Z</time>
      </trkpt>
      <trkpt lat="42.47391" lon="3.04633">
        <ele>757</ele>
        <time>2023-07-12T06:12:19.000Z</time>
      </trkpt>
      <trkpt lat="42.47392" lon="3.04631">
        <ele>758.20001220703</ele>
        <time>2023-07-12T06:12:26.000Z</time>
      </trkpt>
      <trkpt lat="42.47393" lon="3.04631">
        <ele>758.40002441406</ele>
        <time>2023-07-12T06:12:27.000Z</time>
      </trkpt>
      <trkpt lat="42.47394" lon="3.04631">
        <ele>759.40002441406</ele>
        <time>2023-07-12T06:12:32.000Z</time>
      </trkpt>
      <trkpt lat="42.47398" lon="3.04628">
        <ele>760.20001220703</ele>
        <time>2023-07-12T06:12:38.000Z</time>
      </trkpt>
      <trkpt lat="42.47399" lon="3.04626">
        <ele>760.59997558594</ele>
        <time>2023-07-12T06:12:40.000Z</time>
      </trkpt>
      <trkpt lat="42.474" lon="3.0462">
        <ele>761.59997558594</ele>
        <time>2023-07-12T06:12:47.000Z</time>
      </trkpt>
      <trkpt lat="42.47399" lon="3.04616">
        <ele>762.79998779297</ele>
        <time>2023-07-12T06:12:53.000Z</time>
      </trkpt>
      <trkpt lat="42.47399" lon="3.04614">
        <ele>763.40002441406</ele>
        <time>2023-07-12T06:12:56.000Z</time>
      </trkpt>
      <trkpt lat="42.47398" lon="3.04615">
        <ele>763.79998779297</ele>
        <time>2023-07-12T06:12:58.000Z</time>
      </trkpt>
      <trkpt lat="42.474" lon="3.04617">
        <ele>764.40002441406</ele>
        <time>2023-07-12T06:13:04.000Z</time>
      </trkpt>
      <trkpt lat="42.474" lon="3.04616">
        <ele>764.79998779297</ele>
        <time>2023-07-12T06:13:06.000Z</time>
      </trkpt>
      <trkpt lat="42.47399" lon="3.04613">
        <ele>765.59997558594</ele>
        <time>2023-07-12T06:13:13.000Z</time>
      </trkpt>
      <trkpt lat="42.47399" lon="3.0461">
        <ele>766</ele>
        <time>2023-07-12T06:13:15.000Z</time>
      </trkpt>
      <trkpt lat="42.47398" lon="3.04606">
        <ele>767</ele>
        <time>2023-07-12T06:13:21.000Z</time>
      </trkpt>
      <trkpt lat="42.47398" lon="3.04606">
        <ele>767.20001220703</ele>
        <time>2023-07-12T06:13:22.000Z</time>
      </trkpt>
      <trkpt lat="42.47399" lon="3.04609">
        <ele>768.20001220703</ele>
        <time>2023-07-12T06:13:28.000Z</time>
      </trkpt>
      <trkpt lat="42.474" lon="3.04607">
        <ele>768.59997558594</ele>
        <time>2023-07-12T06:13:31.000Z</time>
      </trkpt>
      <trkpt lat="42.47404" lon="3.04603">
        <ele>768.79998779297</ele>
        <time>2023-07-12T06:13:39.000Z</time>
      </trkpt>
      <trkpt lat="42.47403" lon="3.046">
        <ele>769</ele>
        <time>2023-07-12T06:13:45.000Z</time>
      </trkpt>
      <trkpt lat="42.47403" lon="3.04598">
        <ele>769.40002441406</ele>
        <time>2023-07-12T06:13:51.000Z</time>
      </trkpt>
      <trkpt lat="42.47403" lon="3.04596">
        <ele>769.59997558594</ele>
        <time>2023-07-12T06:13:52.000Z</time>
      </trkpt>
      <trkpt lat="42.47404" lon="3.04593">
        <ele>770.40002441406</ele>
        <time>2023-07-12T06:13:55.000Z</time>
      </trkpt>
      <trkpt lat="42.47404" lon="3.04591">
        <ele>770.79998779297</ele>
        <time>2023-07-12T06:13:59.000Z</time>
      </trkpt>
      <trkpt lat="42.47404" lon="3.04588">
        <ele>771.59997558594</ele>
        <time>2023-07-12T06:14:03.000Z</time>
      </trkpt>
      <trkpt lat="42.47403" lon="3.04587">
        <ele>772.59997558594</ele>
        <time>2023-07-12T06:14:08.000Z</time>
      </trkpt>
      <trkpt lat="42.47402" lon="3.04587">
        <ele>772.59997558594</ele>
        <time>2023-07-12T06:14:09.000Z</time>
      </trkpt>
      <trkpt lat="42.47401" lon="3.04587">
        <ele>773.59997558594</ele>
        <time>2023-07-12T06:14:18.000Z</time>
      </trkpt>
      <trkpt lat="42.474" lon="3.04587">
        <ele>774</ele>
        <time>2023-07-12T06:14:19.000Z</time>
      </trkpt>
      <trkpt lat="42.47398" lon="3.04584">
        <ele>774.20001220703</ele>
        <time>2023-07-12T06:14:26.000Z</time>
      </trkpt>
      <trkpt lat="42.47397" lon="3.04584">
        <ele>774.40002441406</ele>
        <time>2023-07-12T06:14:33.000Z</time>
      </trkpt>
      <trkpt lat="42.47398" lon="3.04587">
        <ele>774.59997558594</ele>
        <time>2023-07-12T06:14:40.000Z</time>
      </trkpt>
      <trkpt lat="42.47405" lon="3.04589">
        <ele>773.79998779297</ele>
        <time>2023-07-12T06:14:47.000Z</time>
      </trkpt>
      <trkpt lat="42.47413" lon="3.04582">
        <ele>774.40002441406</ele>
        <time>2023-07-12T06:14:55.000Z</time>
      </trkpt>
      <trkpt lat="42.47416" lon="3.04578">
        <ele>775.20001220703</ele>
        <time>2023-07-12T06:14:58.000Z</time>
      </trkpt>
      <trkpt lat="42.47415" lon="3.04577">
        <ele>776.20001220703</ele>
        <time>2023-07-12T06:15:03.000Z</time>
      </trkpt>
      <trkpt lat="42.47415" lon="3.04576">
        <ele>776.40002441406</ele>
        <time>2023-07-12T06:15:04.000Z</time>
      </trkpt>
      <trkpt lat="42.47406" lon="3.04571">
        <ele>777.20001220703</ele>
        <time>2023-07-12T06:15:12.000Z</time>
      </trkpt>
      <trkpt lat="42.47406" lon="3.04571">
        <ele>777.40002441406</ele>
        <time>2023-07-12T06:15:13.000Z</time>
      </trkpt>
      <trkpt lat="42.47407" lon="3.04569">
        <ele>778.20001220703</ele>
        <time>2023-07-12T06:15:18.000Z</time>
      </trkpt>
      <trkpt lat="42.47408" lon="3.04568">
        <ele>778.40002441406</ele>
        <time>2023-07-12T06:15:19.000Z</time>
      </trkpt>
      <trkpt lat="42.47412" lon="3.04564">
        <ele>779.40002441406</ele>
        <time>2023-07-12T06:15:26.000Z</time>
      </trkpt>
      <trkpt lat="42.47412" lon="3.04563">
        <ele>779.59997558594</ele>
        <time>2023-07-12T06:15:27.000Z</time>
      </trkpt>
      <trkpt lat="42.47408" lon="3.04561">
        <ele>780</ele>
        <time>2023-07-12T06:15:33.000Z</time>
      </trkpt>
      <trkpt lat="42.47407" lon="3.04562">
        <ele>780.59997558594</ele>
        <time>2023-07-12T06:15:35.000Z</time>
      </trkpt>
      <trkpt lat="42.47408" lon="3.04562">
        <ele>781</ele>
        <time>2023-07-12T06:15:36.000Z</time>
      </trkpt>
      <trkpt lat="42.47408" lon="3.04561">
        <ele>781.59997558594</ele>
        <time>2023-07-12T06:15:38.000Z</time>
      </trkpt>
      <trkpt lat="42.47409" lon="3.04561">
        <ele>781.79998779297</ele>
        <time>2023-07-12T06:15:39.000Z</time>
      </trkpt>
      <trkpt lat="42.47414" lon="3.04555">
        <ele>782.79998779297</ele>
        <time>2023-07-12T06:15:48.000Z</time>
      </trkpt>
      <trkpt lat="42.47415" lon="3.04551">
        <ele>783.79998779297</ele>
        <time>2023-07-12T06:15:53.000Z</time>
      </trkpt>
      <trkpt lat="42.47416" lon="3.04548">
        <ele>784.20001220703</ele>
        <time>2023-07-12T06:15:55.000Z</time>
      </trkpt>
      <trkpt lat="42.47415" lon="3.04542">
        <ele>785.20001220703</ele>
        <time>2023-07-12T06:16:02.000Z</time>
      </trkpt>
      <trkpt lat="42.47414" lon="3.0454">
        <ele>785.79998779297</ele>
        <time>2023-07-12T06:16:05.000Z</time>
      </trkpt>
      <trkpt lat="42.47413" lon="3.0454">
        <ele>786.40002441406</ele>
        <time>2023-07-12T06:16:07.000Z</time>
      </trkpt>
      <trkpt lat="42.47411" lon="3.04539">
        <ele>787.40002441406</ele>
        <time>2023-07-12T06:16:11.000Z</time>
      </trkpt>
      <trkpt lat="42.4741" lon="3.04538">
        <ele>787.79998779297</ele>
        <time>2023-07-12T06:16:13.000Z</time>
      </trkpt>
      <trkpt lat="42.47411" lon="3.04537">
        <ele>788.40002441406</ele>
        <time>2023-07-12T06:16:16.000Z</time>
      </trkpt>
      <trkpt lat="42.47413" lon="3.04536">
        <ele>788.59997558594</ele>
        <time>2023-07-12T06:16:22.000Z</time>
      </trkpt>
      <trkpt lat="42.47411" lon="3.04537">
        <ele>789.59997558594</ele>
        <time>2023-07-12T06:16:29.000Z</time>
      </trkpt>
      <trkpt lat="42.47411" lon="3.04536">
        <ele>789.59997558594</ele>
        <time>2023-07-12T06:16:36.000Z</time>
      </trkpt>
      <trkpt lat="42.47411" lon="3.04535">
        <ele>790.20001220703</ele>
        <time>2023-07-12T06:16:45.000Z</time>
      </trkpt>
      <trkpt lat="42.47409" lon="3.04536">
        <ele>790.79998779297</ele>
        <time>2023-07-12T06:16:47.000Z</time>
      </trkpt>
      <trkpt lat="42.47406" lon="3.04538">
        <ele>792</ele>
        <time>2023-07-12T06:16:50.000Z</time>
      </trkpt>
      <trkpt lat="42.47403" lon="3.04539">
        <ele>792.20001220703</ele>
        <time>2023-07-12T06:16:53.000Z</time>
      </trkpt>
      <trkpt lat="42.47401" lon="3.04539">
        <ele>793</ele>
        <time>2023-07-12T06:16:57.000Z</time>
      </trkpt>
      <trkpt lat="42.47399" lon="3.04536">
        <ele>793.79998779297</ele>
        <time>2023-07-12T06:17:01.000Z</time>
      </trkpt>
      <trkpt lat="42.47399" lon="3.04535">
        <ele>794.20001220703</ele>
        <time>2023-07-12T06:17:03.000Z</time>
      </trkpt>
      <trkpt lat="42.47396" lon="3.04533">
        <ele>795.59997558594</ele>
        <time>2023-07-12T06:17:09.000Z</time>
      </trkpt>
      <trkpt lat="42.47396" lon="3.0453">
        <ele>796.59997558594</ele>
        <time>2023-07-12T06:17:16.000Z</time>
      </trkpt>
      <trkpt lat="42.47397" lon="3.04529">
        <ele>796.79998779297</ele>
        <time>2023-07-12T06:17:18.000Z</time>
      </trkpt>
      <trkpt lat="42.47397" lon="3.04529">
        <ele>796.79998779297</ele>
        <time>2023-07-12T06:17:23.000Z</time>
      </trkpt>
      <trkpt lat="42.47396" lon="3.04528">
        <ele>796.79998779297</ele>
        <time>2023-07-12T06:17:32.000Z</time>
      </trkpt>
      <trkpt lat="42.47396" lon="3.04527">
        <ele>796.79998779297</ele>
        <time>2023-07-12T06:17:40.000Z</time>
      </trkpt>
      <trkpt lat="42.47396" lon="3.04521">
        <ele>797.20001220703</ele>
        <time>2023-07-12T06:17:47.000Z</time>
      </trkpt>
      <trkpt lat="42.47396" lon="3.04519">
        <ele>797.79998779297</ele>
        <time>2023-07-12T06:17:49.000Z</time>
      </trkpt>
      <trkpt lat="42.47394" lon="3.04514">
        <ele>799</ele>
        <time>2023-07-12T06:17:55.000Z</time>
      </trkpt>
      <trkpt lat="42.47394" lon="3.04512">
        <ele>799.40002441406</ele>
        <time>2023-07-12T06:17:56.000Z</time>
      </trkpt>
      <trkpt lat="42.47395" lon="3.04507">
        <ele>800</ele>
        <time>2023-07-12T06:18:04.000Z</time>
      </trkpt>
      <trkpt lat="42.47396" lon="3.04508">
        <ele>800</ele>
        <time>2023-07-12T06:18:05.000Z</time>
      </trkpt>
      <trkpt lat="42.47399" lon="3.04506">
        <ele>801.20001220703</ele>
        <time>2023-07-12T06:18:10.000Z</time>
      </trkpt>
      <trkpt lat="42.47399" lon="3.04505">
        <ele>801.40002441406</ele>
        <time>2023-07-12T06:18:11.000Z</time>
      </trkpt>
      <trkpt lat="42.47397" lon="3.04499">
        <ele>802.40002441406</ele>
        <time>2023-07-12T06:18:17.000Z</time>
      </trkpt>
      <trkpt lat="42.47395" lon="3.04498">
        <ele>803</ele>
        <time>2023-07-12T06:18:20.000Z</time>
      </trkpt>
      <trkpt lat="42.47395" lon="3.04497">
        <ele>803.59997558594</ele>
        <time>2023-07-12T06:18:23.000Z</time>
      </trkpt>
      <trkpt lat="42.47395" lon="3.04494">
        <ele>804.59997558594</ele>
        <time>2023-07-12T06:18:28.000Z</time>
      </trkpt>
      <trkpt lat="42.47398" lon="3.04491">
        <ele>805.59997558594</ele>
        <time>2023-07-12T06:18:35.000Z</time>
      </trkpt>
      <trkpt lat="42.47399" lon="3.0449">
        <ele>806</ele>
        <time>2023-07-12T06:18:37.000Z</time>
      </trkpt>
      <trkpt lat="42.47398" lon="3.04489">
        <ele>806.59997558594</ele>
        <time>2023-07-12T06:18:40.000Z</time>
      </trkpt>
      <trkpt lat="42.47398" lon="3.04487">
        <ele>806.79998779297</ele>
        <time>2023-07-12T06:18:41.000Z</time>
      </trkpt>
      <trkpt lat="42.47397" lon="3.04485">
        <ele>807.40002441406</ele>
        <time>2023-07-12T06:18:44.000Z</time>
      </trkpt>
      <trkpt lat="42.47392" lon="3.04483">
        <ele>808</ele>
        <time>2023-07-12T06:18:48.000Z</time>
      </trkpt>
      <trkpt lat="42.4739" lon="3.04481">
        <ele>808.40002441406</ele>
        <time>2023-07-12T06:18:51.000Z</time>
      </trkpt>
      <trkpt lat="42.4739" lon="3.04479">
        <ele>809</ele>
        <time>2023-07-12T06:18:57.000Z</time>
      </trkpt>
      <trkpt lat="42.47391" lon="3.04479">
        <ele>809.20001220703</ele>
        <time>2023-07-12T06:18:58.000Z</time>
      </trkpt>
      <trkpt lat="42.47393" lon="3.04474">
        <ele>810.20001220703</ele>
        <time>2023-07-12T06:19:03.000Z</time>
      </trkpt>
      <trkpt lat="42.47394" lon="3.04474">
        <ele>811</ele>
        <time>2023-07-12T06:19:07.000Z</time>
      </trkpt>
      <trkpt lat="42.47394" lon="3.04474">
        <ele>811.40002441406</ele>
        <time>2023-07-12T06:19:08.000Z</time>
      </trkpt>
      <trkpt lat="42.47396" lon="3.04471">
        <ele>812.59997558594</ele>
        <time>2023-07-12T06:19:16.000Z</time>
      </trkpt>
      <trkpt lat="42.47396" lon="3.04468">
        <ele>813.59997558594</ele>
        <time>2023-07-12T06:19:23.000Z</time>
      </trkpt>
      <trkpt lat="42.47396" lon="3.04468">
        <ele>813.79998779297</ele>
        <time>2023-07-12T06:19:25.000Z</time>
      </trkpt>
      <trkpt lat="42.47397" lon="3.04469">
        <ele>814.40002441406</ele>
        <time>2023-07-12T06:19:33.000Z</time>
      </trkpt>
      <trkpt lat="42.47397" lon="3.0447">
        <ele>814.59997558594</ele>
        <time>2023-07-12T06:19:34.000Z</time>
      </trkpt>
      <trkpt lat="42.47398" lon="3.04472">
        <ele>815.79998779297</ele>
        <time>2023-07-12T06:19:40.000Z</time>
      </trkpt>
      <trkpt lat="42.47399" lon="3.04471">
        <ele>816.20001220703</ele>
        <time>2023-07-12T06:19:42.000Z</time>
      </trkpt>
      <trkpt lat="42.47403" lon="3.04468">
        <ele>816.79998779297</ele>
        <time>2023-07-12T06:19:48.000Z</time>
      </trkpt>
      <trkpt lat="42.47407" lon="3.04465">
        <ele>818</ele>
        <time>2023-07-12T06:19:53.000Z</time>
      </trkpt>
      <trkpt lat="42.47407" lon="3.04464">
        <ele>818.20001220703</ele>
        <time>2023-07-12T06:19:56.000Z</time>
      </trkpt>
      <trkpt lat="42.47408" lon="3.04462">
        <ele>819</ele>
        <time>2023-07-12T06:20:01.000Z</time>
      </trkpt>
      <trkpt lat="42.47407" lon="3.04461">
        <ele>819.40002441406</ele>
        <time>2023-07-12T06:20:04.000Z</time>
      </trkpt>
      <trkpt lat="42.47406" lon="3.0446">
        <ele>820</ele>
        <time>2023-07-12T06:20:07.000Z</time>
      </trkpt>
      <trkpt lat="42.47405" lon="3.04459">
        <ele>820</ele>
        <time>2023-07-12T06:20:08.000Z</time>
      </trkpt>
      <trkpt lat="42.47404" lon="3.04456">
        <ele>821.20001220703</ele>
        <time>2023-07-12T06:20:14.000Z</time>
      </trkpt>
      <trkpt lat="42.47405" lon="3.04456">
        <ele>821.59997558594</ele>
        <time>2023-07-12T06:20:16.000Z</time>
      </trkpt>
      <trkpt lat="42.47405" lon="3.04452">
        <ele>822.20001220703</ele>
        <time>2023-07-12T06:20:24.000Z</time>
      </trkpt>
      <trkpt lat="42.47406" lon="3.0445">
        <ele>823.40002441406</ele>
        <time>2023-07-12T06:20:30.000Z</time>
      </trkpt>
      <trkpt lat="42.47407" lon="3.04449">
        <ele>824.20001220703</ele>
        <time>2023-07-12T06:20:33.000Z</time>
      </trkpt>
      <trkpt lat="42.47407" lon="3.04449">
        <ele>824.40002441406</ele>
        <time>2023-07-12T06:20:35.000Z</time>
      </trkpt>
      <trkpt lat="42.47408" lon="3.04447">
        <ele>825.40002441406</ele>
        <time>2023-07-12T06:20:41.000Z</time>
      </trkpt>
      <trkpt lat="42.47409" lon="3.04445">
        <ele>825.59997558594</ele>
        <time>2023-07-12T06:20:42.000Z</time>
      </trkpt>
      <trkpt lat="42.47408" lon="3.04439">
        <ele>826.40002441406</ele>
        <time>2023-07-12T06:20:49.000Z</time>
      </trkpt>
      <trkpt lat="42.47408" lon="3.04438">
        <ele>826.59997558594</ele>
        <time>2023-07-12T06:20:50.000Z</time>
      </trkpt>
      <trkpt lat="42.47406" lon="3.04436">
        <ele>827.59997558594</ele>
        <time>2023-07-12T06:20:55.000Z</time>
      </trkpt>
      <trkpt lat="42.47405" lon="3.04435">
        <ele>827.59997558594</ele>
        <time>2023-07-12T06:20:56.000Z</time>
      </trkpt>
      <trkpt lat="42.47406" lon="3.04431">
        <ele>828.79998779297</ele>
        <time>2023-07-12T06:21:04.000Z</time>
      </trkpt>
      <trkpt lat="42.47406" lon="3.04426">
        <ele>829.79998779297</ele>
        <time>2023-07-12T06:21:08.000Z</time>
      </trkpt>
      <trkpt lat="42.47405" lon="3.04423">
        <ele>830.59997558594</ele>
        <time>2023-07-12T06:21:14.000Z</time>
      </trkpt>
      <trkpt lat="42.47405" lon="3.04421">
        <ele>831</ele>
        <time>2023-07-12T06:21:17.000Z</time>
      </trkpt>
      <trkpt lat="42.47402" lon="3.04416">
        <ele>832</ele>
        <time>2023-07-12T06:21:23.000Z</time>
      </trkpt>
      <trkpt lat="42.47402" lon="3.04415">
        <ele>832.20001220703</ele>
        <time>2023-07-12T06:21:24.000Z</time>
      </trkpt>
      <trkpt lat="42.47401" lon="3.04412">
        <ele>833.20001220703</ele>
        <time>2023-07-12T06:21:33.000Z</time>
      </trkpt>
      <trkpt lat="42.47401" lon="3.04411">
        <ele>833.20001220703</ele>
        <time>2023-07-12T06:21:34.000Z</time>
      </trkpt>
      <trkpt lat="42.47399" lon="3.04406">
        <ele>834.40002441406</ele>
        <time>2023-07-12T06:21:40.000Z</time>
      </trkpt>
      <trkpt lat="42.47399" lon="3.04405">
        <ele>834.79998779297</ele>
        <time>2023-07-12T06:21:42.000Z</time>
      </trkpt>
      <trkpt lat="42.47399" lon="3.044">
        <ele>835.40002441406</ele>
        <time>2023-07-12T06:21:46.000Z</time>
      </trkpt>
      <trkpt lat="42.47398" lon="3.04398">
        <ele>836</ele>
        <time>2023-07-12T06:21:52.000Z</time>
      </trkpt>
      <trkpt lat="42.47398" lon="3.04397">
        <ele>836.59997558594</ele>
        <time>2023-07-12T06:21:55.000Z</time>
      </trkpt>
      <trkpt lat="42.47398" lon="3.04389">
        <ele>837.59997558594</ele>
        <time>2023-07-12T06:22:02.000Z</time>
      </trkpt>
      <trkpt lat="42.47396" lon="3.04383">
        <ele>838.79998779297</ele>
        <time>2023-07-12T06:22:11.000Z</time>
      </trkpt>
      <trkpt lat="42.47396" lon="3.04382">
        <ele>839</ele>
        <time>2023-07-12T06:22:12.000Z</time>
      </trkpt>
      <trkpt lat="42.47398" lon="3.04381">
        <ele>840</ele>
        <time>2023-07-12T06:22:15.000Z</time>
      </trkpt>
      <trkpt lat="42.474" lon="3.04381">
        <ele>840.59997558594</ele>
        <time>2023-07-12T06:22:21.000Z</time>
      </trkpt>
      <trkpt lat="42.47401" lon="3.0438">
        <ele>841.20001220703</ele>
        <time>2023-07-12T06:22:24.000Z</time>
      </trkpt>
      <trkpt lat="42.47401" lon="3.04379">
        <ele>842.40002441406</ele>
        <time>2023-07-12T06:22:28.000Z</time>
      </trkpt>
      <trkpt lat="42.47401" lon="3.04379">
        <ele>842.59997558594</ele>
        <time>2023-07-12T06:22:29.000Z</time>
      </trkpt>
      <trkpt lat="42.47405" lon="3.04376">
        <ele>843.59997558594</ele>
        <time>2023-07-12T06:22:36.000Z</time>
      </trkpt>
      <trkpt lat="42.4741" lon="3.04375">
        <ele>844.59997558594</ele>
        <time>2023-07-12T06:22:44.000Z</time>
      </trkpt>
      <trkpt lat="42.47411" lon="3.04375">
        <ele>844.59997558594</ele>
        <time>2023-07-12T06:22:45.000Z</time>
      </trkpt>
      <trkpt lat="42.47415" lon="3.04375">
        <ele>845.40002441406</ele>
        <time>2023-07-12T06:22:52.000Z</time>
      </trkpt>
      <trkpt lat="42.47416" lon="3.04375">
        <ele>845.79998779297</ele>
        <time>2023-07-12T06:22:54.000Z</time>
      </trkpt>
      <trkpt lat="42.47417" lon="3.04375">
        <ele>846.20001220703</ele>
        <time>2023-07-12T06:22:59.000Z</time>
      </trkpt>
      <trkpt lat="42.47415" lon="3.04373">
        <ele>846.20001220703</ele>
        <time>2023-07-12T06:23:02.000Z</time>
      </trkpt>
      <trkpt lat="42.47416" lon="3.04369">
        <ele>846.40002441406</ele>
        <time>2023-07-12T06:23:04.000Z</time>
      </trkpt>
      <trkpt lat="42.47416" lon="3.04368">
        <ele>846.40002441406</ele>
        <time>2023-07-12T06:23:05.000Z</time>
      </trkpt>
      <trkpt lat="42.47415" lon="3.04366">
        <ele>846.20001220703</ele>
        <time>2023-07-12T06:23:10.000Z</time>
      </trkpt>
      <trkpt lat="42.47413" lon="3.04368">
        <ele>846.40002441406</ele>
        <time>2023-07-12T06:23:18.000Z</time>
      </trkpt>
      <trkpt lat="42.47416" lon="3.04368">
        <ele>846.40002441406</ele>
        <time>2023-07-12T06:23:26.000Z</time>
      </trkpt>
      <trkpt lat="42.47417" lon="3.04367">
        <ele>847</ele>
        <time>2023-07-12T06:23:30.000Z</time>
      </trkpt>
      <trkpt lat="42.47419" lon="3.04366">
        <ele>847.79998779297</ele>
        <time>2023-07-12T06:23:35.000Z</time>
      </trkpt>
      <trkpt lat="42.47421" lon="3.04367">
        <ele>848</ele>
        <time>2023-07-12T06:23:40.000Z</time>
      </trkpt>
      <trkpt lat="42.47421" lon="3.04365">
        <ele>847.79998779297</ele>
        <time>2023-07-12T06:23:45.000Z</time>
      </trkpt>
      <trkpt lat="42.47423" lon="3.04362">
        <ele>847.20001220703</ele>
        <time>2023-07-12T06:23:52.000Z</time>
      </trkpt>
      <trkpt lat="42.47428" lon="3.04362">
        <ele>847.59997558594</ele>
        <time>2023-07-12T06:24:01.000Z</time>
      </trkpt>
      <trkpt lat="42.47429" lon="3.04364">
        <ele>847</ele>
        <time>2023-07-12T06:24:04.000Z</time>
      </trkpt>
      <trkpt lat="42.4743" lon="3.04365">
        <ele>846.40002441406</ele>
        <time>2023-07-12T06:24:06.000Z</time>
      </trkpt>
      <trkpt lat="42.47431" lon="3.04364">
        <ele>846.20001220703</ele>
        <time>2023-07-12T06:24:07.000Z</time>
      </trkpt>
      <trkpt lat="42.47433" lon="3.04362">
        <ele>846</ele>
        <time>2023-07-12T06:24:09.000Z</time>
      </trkpt>
      <trkpt lat="42.47435" lon="3.0436">
        <ele>845.79998779297</ele>
        <time>2023-07-12T06:24:12.000Z</time>
      </trkpt>
      <trkpt lat="42.47436" lon="3.04356">
        <ele>845.59997558594</ele>
        <time>2023-07-12T06:24:20.000Z</time>
      </trkpt>
      <trkpt lat="42.47439" lon="3.04353">
        <ele>845.20001220703</ele>
        <time>2023-07-12T06:24:26.000Z</time>
      </trkpt>
      <trkpt lat="42.47442" lon="3.04351">
        <ele>845</ele>
        <time>2023-07-12T06:24:35.000Z</time>
      </trkpt>
      <trkpt lat="42.47442" lon="3.04351">
        <ele>844.79998779297</ele>
        <time>2023-07-12T06:24:36.000Z</time>
      </trkpt>
      <trkpt lat="42.47447" lon="3.04352">
        <ele>844</ele>
        <time>2023-07-12T06:24:44.000Z</time>
      </trkpt>
      <trkpt lat="42.47448" lon="3.04353">
        <ele>843.79998779297</ele>
        <time>2023-07-12T06:24:46.000Z</time>
      </trkpt>
      <trkpt lat="42.47448" lon="3.04353">
        <ele>842.79998779297</ele>
        <time>2023-07-12T06:24:53.000Z</time>
      </trkpt>
      <trkpt lat="42.4745" lon="3.04353">
        <ele>842.59997558594</ele>
        <time>2023-07-12T06:24:56.000Z</time>
      </trkpt>
      <trkpt lat="42.47452" lon="3.04351">
        <ele>842.20001220703</ele>
        <time>2023-07-12T06:25:00.000Z</time>
      </trkpt>
      <trkpt lat="42.47454" lon="3.0435">
        <ele>841.59997558594</ele>
        <time>2023-07-12T06:25:04.000Z</time>
      </trkpt>
      <trkpt lat="42.47455" lon="3.04351">
        <ele>840.79998779297</ele>
        <time>2023-07-12T06:25:09.000Z</time>
      </trkpt>
      <trkpt lat="42.47455" lon="3.04351">
        <ele>840.59997558594</ele>
        <time>2023-07-12T06:25:11.000Z</time>
      </trkpt>
      <trkpt lat="42.47459" lon="3.04352">
        <ele>839.59997558594</ele>
        <time>2023-07-12T06:25:17.000Z</time>
      </trkpt>
      <trkpt lat="42.47459" lon="3.04352">
        <ele>839.40002441406</ele>
        <time>2023-07-12T06:25:18.000Z</time>
      </trkpt>
      <trkpt lat="42.4746" lon="3.04347">
        <ele>838.79998779297</ele>
        <time>2023-07-12T06:25:25.000Z</time>
      </trkpt>
      <trkpt lat="42.4746" lon="3.04346">
        <ele>838.40002441406</ele>
        <time>2023-07-12T06:25:27.000Z</time>
      </trkpt>
      <trkpt lat="42.47461" lon="3.04347">
        <ele>837.59997558594</ele>
        <time>2023-07-12T06:25:33.000Z</time>
      </trkpt>
      <trkpt lat="42.47462" lon="3.04347">
        <ele>837.20001220703</ele>
        <time>2023-07-12T06:25:35.000Z</time>
      </trkpt>
      <trkpt lat="42.47466" lon="3.04347">
        <ele>836.59997558594</ele>
        <time>2023-07-12T06:25:40.000Z</time>
      </trkpt>
      <trkpt lat="42.4747" lon="3.04346">
        <ele>836</ele>
        <time>2023-07-12T06:25:43.000Z</time>
      </trkpt>
      <trkpt lat="42.47477" lon="3.04344">
        <ele>835.20001220703</ele>
        <time>2023-07-12T06:25:50.000Z</time>
      </trkpt>
      <trkpt lat="42.47479" lon="3.04341">
        <ele>834.79998779297</ele>
        <time>2023-07-12T06:25:53.000Z</time>
      </trkpt>
      <trkpt lat="42.4748" lon="3.04338">
        <ele>834.59997558594</ele>
        <time>2023-07-12T06:25:58.000Z</time>
      </trkpt>
      <trkpt lat="42.4748" lon="3.04335">
        <ele>833.79998779297</ele>
        <time>2023-07-12T06:26:02.000Z</time>
      </trkpt>
      <trkpt lat="42.47481" lon="3.04333">
        <ele>833.20001220703</ele>
        <time>2023-07-12T06:26:06.000Z</time>
      </trkpt>
      <trkpt lat="42.4748" lon="3.04332">
        <ele>832.79998779297</ele>
        <time>2023-07-12T06:26:14.000Z</time>
      </trkpt>
      <trkpt lat="42.47485" lon="3.04327">
        <ele>832.59997558594</ele>
        <time>2023-07-12T06:26:22.000Z</time>
      </trkpt>
      <trkpt lat="42.4749" lon="3.04331">
        <ele>833</ele>
        <time>2023-07-12T06:26:29.000Z</time>
      </trkpt>
      <trkpt lat="42.47491" lon="3.04335">
        <ele>832.59997558594</ele>
        <time>2023-07-12T06:26:44.000Z</time>
      </trkpt>
      <trkpt lat="42.47489" lon="3.04329">
        <ele>833.20001220703</ele>
        <time>2023-07-12T06:26:56.000Z</time>
      </trkpt>
      <trkpt lat="42.47487" lon="3.0433">
        <ele>833.20001220703</ele>
        <time>2023-07-12T06:27:03.000Z</time>
      </trkpt>
      <trkpt lat="42.47486" lon="3.0433">
        <ele>833.20001220703</ele>
        <time>2023-07-12T06:27:11.000Z</time>
      </trkpt>
      <trkpt lat="42.47488" lon="3.04329">
        <ele>833.59997558594</ele>
        <time>2023-07-12T06:27:19.000Z</time>
      </trkpt>
      <trkpt lat="42.47488" lon="3.04328">
        <ele>833.79998779297</ele>
        <time>2023-07-12T06:27:25.000Z</time>
      </trkpt>
      <trkpt lat="42.47487" lon="3.04329">
        <ele>833.79998779297</ele>
        <time>2023-07-12T06:27:26.000Z</time>
      </trkpt>
      <trkpt lat="42.47486" lon="3.04329">
        <ele>834.20001220703</ele>
        <time>2023-07-12T06:27:34.000Z</time>
      </trkpt>
      <trkpt lat="42.47485" lon="3.04329">
        <ele>834.20001220703</ele>
        <time>2023-07-12T06:27:41.000Z</time>
      </trkpt>
      <trkpt lat="42.47482" lon="3.0433">
        <ele>834.79998779297</ele>
        <time>2023-07-12T06:27:49.000Z</time>
      </trkpt>
      <trkpt lat="42.47482" lon="3.04331">
        <ele>834.79998779297</ele>
        <time>2023-07-12T06:27:50.000Z</time>
      </trkpt>
      <trkpt lat="42.47481" lon="3.04334">
        <ele>835.40002441406</ele>
        <time>2023-07-12T06:27:56.000Z</time>
      </trkpt>
      <trkpt lat="42.4748" lon="3.04336">
        <ele>836</ele>
        <time>2023-07-12T06:28:03.000Z</time>
      </trkpt>
      <trkpt lat="42.4748" lon="3.04337">
        <ele>836</ele>
        <time>2023-07-12T06:28:04.000Z</time>
      </trkpt>
      <trkpt lat="42.47477" lon="3.04339">
        <ele>837</ele>
        <time>2023-07-12T06:28:10.000Z</time>
      </trkpt>
      <trkpt lat="42.47477" lon="3.0434">
        <ele>837.20001220703</ele>
        <time>2023-07-12T06:28:11.000Z</time>
      </trkpt>
      <trkpt lat="42.47475" lon="3.04342">
        <ele>837.79998779297</ele>
        <time>2023-07-12T06:28:16.000Z</time>
      </trkpt>
      <trkpt lat="42.47475" lon="3.04344">
        <ele>838.20001220703</ele>
        <time>2023-07-12T06:28:19.000Z</time>
      </trkpt>
      <trkpt lat="42.47474" lon="3.04346">
        <ele>838.40002441406</ele>
        <time>2023-07-12T06:28:23.000Z</time>
      </trkpt>
      <trkpt lat="42.47471" lon="3.04348">
        <ele>839</ele>
        <time>2023-07-12T06:28:30.000Z</time>
      </trkpt>
      <trkpt lat="42.47471" lon="3.04348">
        <ele>839.20001220703</ele>
        <time>2023-07-12T06:28:31.000Z</time>
      </trkpt>
      <trkpt lat="42.47466" lon="3.04347">
        <ele>840.20001220703</ele>
        <time>2023-07-12T06:28:39.000Z</time>
      </trkpt>
      <trkpt lat="42.47464" lon="3.04347">
        <ele>841.40002441406</ele>
        <time>2023-07-12T06:28:47.000Z</time>
      </trkpt>
      <trkpt lat="42.47464" lon="3.04347">
        <ele>842.20001220703</ele>
        <time>2023-07-12T06:28:55.000Z</time>
      </trkpt>
      <trkpt lat="42.47463" lon="3.04348">
        <ele>842.40002441406</ele>
        <time>2023-07-12T06:28:59.000Z</time>
      </trkpt>
      <trkpt lat="42.47463" lon="3.04347">
        <ele>842.79998779297</ele>
        <time>2023-07-12T06:29:01.000Z</time>
      </trkpt>
      <trkpt lat="42.47459" lon="3.04344">
        <ele>843.20001220703</ele>
        <time>2023-07-12T06:29:08.000Z</time>
      </trkpt>
      <trkpt lat="42.47458" lon="3.04344">
        <ele>843.59997558594</ele>
        <time>2023-07-12T06:29:09.000Z</time>
      </trkpt>
      <trkpt lat="42.47457" lon="3.04344">
        <ele>844.59997558594</ele>
        <time>2023-07-12T06:29:15.000Z</time>
      </trkpt>
      <trkpt lat="42.47455" lon="3.04341">
        <ele>845.59997558594</ele>
        <time>2023-07-12T06:29:24.000Z</time>
      </trkpt>
      <trkpt lat="42.47457" lon="3.04341">
        <ele>846.20001220703</ele>
        <time>2023-07-12T06:29:32.000Z</time>
      </trkpt>
      <trkpt lat="42.47457" lon="3.04341">
        <ele>846.20001220703</ele>
        <time>2023-07-12T06:29:38.000Z</time>
      </trkpt>
      <trkpt lat="42.47459" lon="3.04341">
        <ele>846.20001220703</ele>
        <time>2023-07-12T06:29:47.000Z</time>
      </trkpt>
      <trkpt lat="42.4746" lon="3.0434">
        <ele>845.59997558594</ele>
        <time>2023-07-12T06:29:55.000Z</time>
      </trkpt>
      <trkpt lat="42.47461" lon="3.04342">
        <ele>844.59997558594</ele>
        <time>2023-07-12T06:30:00.000Z</time>
      </trkpt>
      <trkpt lat="42.47461" lon="3.04343">
        <ele>844.20001220703</ele>
        <time>2023-07-12T06:30:02.000Z</time>
      </trkpt>
      <trkpt lat="42.47461" lon="3.04347">
        <ele>843.40002441406</ele>
        <time>2023-07-12T06:30:10.000Z</time>
      </trkpt>
      <trkpt lat="42.4746" lon="3.04347">
        <ele>843.40002441406</ele>
        <time>2023-07-12T06:30:11.000Z</time>
      </trkpt>
      <trkpt lat="42.47457" lon="3.04347">
        <ele>843</ele>
        <time>2023-07-12T06:30:19.000Z</time>
      </trkpt>
      <trkpt lat="42.47458" lon="3.04347">
        <ele>844.40002441406</ele>
        <time>2023-07-12T06:30:26.000Z</time>
      </trkpt>
      <trkpt lat="42.47455" lon="3.04348">
        <ele>845.40002441406</ele>
        <time>2023-07-12T06:30:33.000Z</time>
      </trkpt>
      <trkpt lat="42.47455" lon="3.04348">
        <ele>845.59997558594</ele>
        <time>2023-07-12T06:30:34.000Z</time>
      </trkpt>
      <trkpt lat="42.47453" lon="3.0435">
        <ele>846.79998779297</ele>
        <time>2023-07-12T06:30:39.000Z</time>
      </trkpt>
      <trkpt lat="42.47452" lon="3.04351">
        <ele>847</ele>
        <time>2023-07-12T06:30:40.000Z</time>
      </trkpt>
      <trkpt lat="42.4745" lon="3.04352">
        <ele>847</ele>
        <time>2023-07-12T06:30:46.000Z</time>
      </trkpt>
      <trkpt lat="42.47446" lon="3.04351">
        <ele>848</ele>
        <time>2023-07-12T06:30:52.000Z</time>
      </trkpt>
      <trkpt lat="42.47445" lon="3.04351">
        <ele>848.20001220703</ele>
        <time>2023-07-12T06:30:53.000Z</time>
      </trkpt>
      <trkpt lat="42.47444" lon="3.0435">
        <ele>849</ele>
        <time>2023-07-12T06:30:59.000Z</time>
      </trkpt>
      <trkpt lat="42.47444" lon="3.0435">
        <ele>849.20001220703</ele>
        <time>2023-07-12T06:31:00.000Z</time>
      </trkpt>
      <trkpt lat="42.4744" lon="3.04349">
        <ele>849.79998779297</ele>
        <time>2023-07-12T06:31:06.000Z</time>
      </trkpt>
      <trkpt lat="42.47438" lon="3.04349">
        <ele>850.20001220703</ele>
        <time>2023-07-12T06:31:12.000Z</time>
      </trkpt>
      <trkpt lat="42.47433" lon="3.04354">
        <ele>850.20001220703</ele>
        <time>2023-07-12T06:31:19.000Z</time>
      </trkpt>
      <trkpt lat="42.47427" lon="3.04359">
        <ele>850.20001220703</ele>
        <time>2023-07-12T06:31:27.000Z</time>
      </trkpt>
      <trkpt lat="42.47428" lon="3.04362">
        <ele>851.40002441406</ele>
        <time>2023-07-12T06:31:33.000Z</time>
      </trkpt>
      <trkpt lat="42.47426" lon="3.04365">
        <ele>852</ele>
        <time>2023-07-12T06:31:41.000Z</time>
      </trkpt>
      <trkpt lat="42.47421" lon="3.04366">
        <ele>852</ele>
        <time>2023-07-12T06:31:48.000Z</time>
      </trkpt>
      <trkpt lat="42.47416" lon="3.04367">
        <ele>852.20001220703</ele>
        <time>2023-07-12T06:31:55.000Z</time>
      </trkpt>
      <trkpt lat="42.47412" lon="3.04364">
        <ele>851.79998779297</ele>
        <time>2023-07-12T06:32:05.000Z</time>
      </trkpt>
      <trkpt lat="42.47411" lon="3.04363">
        <ele>852.40002441406</ele>
        <time>2023-07-12T06:32:08.000Z</time>
      </trkpt>
      <trkpt lat="42.47409" lon="3.0436">
        <ele>853.40002441406</ele>
        <time>2023-07-12T06:32:13.000Z</time>
      </trkpt>
      <trkpt lat="42.47409" lon="3.0436">
        <ele>853.59997558594</ele>
        <time>2023-07-12T06:32:14.000Z</time>
      </trkpt>
      <trkpt lat="42.47408" lon="3.04357">
        <ele>854.59997558594</ele>
        <time>2023-07-12T06:32:19.000Z</time>
      </trkpt>
      <trkpt lat="42.47407" lon="3.04355">
        <ele>855.20001220703</ele>
        <time>2023-07-12T06:32:22.000Z</time>
      </trkpt>
      <trkpt lat="42.47406" lon="3.04354">
        <ele>855.59997558594</ele>
        <time>2023-07-12T06:32:24.000Z</time>
      </trkpt>
      <trkpt lat="42.47407" lon="3.04353">
        <ele>856.20001220703</ele>
        <time>2023-07-12T06:32:29.000Z</time>
      </trkpt>
      <trkpt lat="42.47408" lon="3.04352">
        <ele>856.79998779297</ele>
        <time>2023-07-12T06:32:34.000Z</time>
      </trkpt>
      <trkpt lat="42.47409" lon="3.0435">
        <ele>857.20001220703</ele>
        <time>2023-07-12T06:32:37.000Z</time>
      </trkpt>
      <trkpt lat="42.4741" lon="3.04351">
        <ele>857.79998779297</ele>
        <time>2023-07-12T06:32:41.000Z</time>
      </trkpt>
      <trkpt lat="42.4741" lon="3.04351">
        <ele>858.20001220703</ele>
        <time>2023-07-12T06:32:44.000Z</time>
      </trkpt>
      <trkpt lat="42.47411" lon="3.04348">
        <ele>858.40002441406</ele>
        <time>2023-07-12T06:32:50.000Z</time>
      </trkpt>
      <trkpt lat="42.47412" lon="3.0435">
        <ele>858.79998779297</ele>
        <time>2023-07-12T06:32:57.000Z</time>
      </trkpt>
      <trkpt lat="42.47413" lon="3.0435">
        <ele>859</ele>
        <time>2023-07-12T06:32:58.000Z</time>
      </trkpt>
      <trkpt lat="42.47416" lon="3.04349">
        <ele>859.79998779297</ele>
        <time>2023-07-12T06:33:04.000Z</time>
      </trkpt>
      <trkpt lat="42.47417" lon="3.04345">
        <ele>860.40002441406</ele>
        <time>2023-07-12T06:33:11.000Z</time>
      </trkpt>
      <trkpt lat="42.47417" lon="3.04344">
        <ele>861</ele>
        <time>2023-07-12T06:33:13.000Z</time>
      </trkpt>
      <trkpt lat="42.47417" lon="3.04342">
        <ele>862</ele>
        <time>2023-07-12T06:33:18.000Z</time>
      </trkpt>
      <trkpt lat="42.47417" lon="3.04342">
        <ele>862.20001220703</ele>
        <time>2023-07-12T06:33:20.000Z</time>
      </trkpt>
      <trkpt lat="42.47413" lon="3.04342">
        <ele>862.40002441406</ele>
        <time>2023-07-12T06:33:27.000Z</time>
      </trkpt>
      <trkpt lat="42.47407" lon="3.0434">
        <ele>862.40002441406</ele>
        <time>2023-07-12T06:33:34.000Z</time>
      </trkpt>
      <trkpt lat="42.47414" lon="3.04342">
        <ele>862.20001220703</ele>
        <time>2023-07-12T06:33:42.000Z</time>
      </trkpt>
      <trkpt lat="42.47417" lon="3.04342">
        <ele>863.20001220703</ele>
        <time>2023-07-12T06:33:48.000Z</time>
      </trkpt>
      <trkpt lat="42.47418" lon="3.04342">
        <ele>863.40002441406</ele>
        <time>2023-07-12T06:33:49.000Z</time>
      </trkpt>
      <trkpt lat="42.47417" lon="3.04342">
        <ele>864</ele>
        <time>2023-07-12T06:33:55.000Z</time>
      </trkpt>
      <trkpt lat="42.47417" lon="3.04341">
        <ele>864.40002441406</ele>
        <time>2023-07-12T06:33:57.000Z</time>
      </trkpt>
      <trkpt lat="42.47417" lon="3.04336">
        <ele>865</ele>
        <time>2023-07-12T06:34:01.000Z</time>
      </trkpt>
      <trkpt lat="42.47417" lon="3.04334">
        <ele>865.40002441406</ele>
        <time>2023-07-12T06:34:04.000Z</time>
      </trkpt>
      <trkpt lat="42.47416" lon="3.04333">
        <ele>866.40002441406</ele>
        <time>2023-07-12T06:34:08.000Z</time>
      </trkpt>
      <trkpt lat="42.47416" lon="3.04331">
        <ele>866.59997558594</ele>
        <time>2023-07-12T06:34:09.000Z</time>
      </trkpt>
      <trkpt lat="42.47414" lon="3.04327">
        <ele>867.59997558594</ele>
        <time>2023-07-12T06:34:16.000Z</time>
      </trkpt>
      <trkpt lat="42.47414" lon="3.04326">
        <ele>867.79998779297</ele>
        <time>2023-07-12T06:34:17.000Z</time>
      </trkpt>
      <trkpt lat="42.47415" lon="3.04324">
        <ele>868</ele>
        <time>2023-07-12T06:34:21.000Z</time>
      </trkpt>
      <trkpt lat="42.47416" lon="3.04323">
        <ele>868.79998779297</ele>
        <time>2023-07-12T06:34:25.000Z</time>
      </trkpt>
      <trkpt lat="42.47419" lon="3.04321">
        <ele>870</ele>
        <time>2023-07-12T06:34:32.000Z</time>
      </trkpt>
      <trkpt lat="42.47418" lon="3.0432">
        <ele>870.20001220703</ele>
        <time>2023-07-12T06:34:34.000Z</time>
      </trkpt>
      <trkpt lat="42.47419" lon="3.04318">
        <ele>870.40002441406</ele>
        <time>2023-07-12T06:34:40.000Z</time>
      </trkpt>
      <trkpt lat="42.47424" lon="3.04323">
        <ele>870.59997558594</ele>
        <time>2023-07-12T06:34:47.000Z</time>
      </trkpt>
      <trkpt lat="42.47427" lon="3.04321">
        <ele>870.79998779297</ele>
        <time>2023-07-12T06:34:55.000Z</time>
      </trkpt>
      <trkpt lat="42.47428" lon="3.04318">
        <ele>871</ele>
        <time>2023-07-12T06:34:58.000Z</time>
      </trkpt>
      <trkpt lat="42.47427" lon="3.04315">
        <ele>872</ele>
        <time>2023-07-12T06:35:04.000Z</time>
      </trkpt>
      <trkpt lat="42.47427" lon="3.04314">
        <ele>872.20001220703</ele>
        <time>2023-07-12T06:35:06.000Z</time>
      </trkpt>
      <trkpt lat="42.47426" lon="3.04311">
        <ele>873.40002441406</ele>
        <time>2023-07-12T06:35:11.000Z</time>
      </trkpt>
      <trkpt lat="42.47426" lon="3.0431">
        <ele>873.40002441406</ele>
        <time>2023-07-12T06:35:12.000Z</time>
      </trkpt>
      <trkpt lat="42.47427" lon="3.04306">
        <ele>874.40002441406</ele>
        <time>2023-07-12T06:35:17.000Z</time>
      </trkpt>
      <trkpt lat="42.47427" lon="3.04306">
        <ele>874.40002441406</ele>
        <time>2023-07-12T06:35:18.000Z</time>
      </trkpt>
      <trkpt lat="42.4743" lon="3.04303">
        <ele>875.40002441406</ele>
        <time>2023-07-12T06:35:26.000Z</time>
      </trkpt>
      <trkpt lat="42.4743" lon="3.04302">
        <ele>875.40002441406</ele>
        <time>2023-07-12T06:35:27.000Z</time>
      </trkpt>
      <trkpt lat="42.47434" lon="3.04299">
        <ele>876.20001220703</ele>
        <time>2023-07-12T06:35:33.000Z</time>
      </trkpt>
      <trkpt lat="42.47436" lon="3.04297">
        <ele>876.40002441406</ele>
        <time>2023-07-12T06:35:36.000Z</time>
      </trkpt>
      <trkpt lat="42.47439" lon="3.04292">
        <ele>876.59997558594</ele>
        <time>2023-07-12T06:35:41.000Z</time>
      </trkpt>
      <trkpt lat="42.47441" lon="3.04287">
        <ele>877.20001220703</ele>
        <time>2023-07-12T06:35:48.000Z</time>
      </trkpt>
      <trkpt lat="42.47442" lon="3.04279">
        <ele>877.59997558594</ele>
        <time>2023-07-12T06:35:55.000Z</time>
      </trkpt>
      <trkpt lat="42.47441" lon="3.04278">
        <ele>877.79998779297</ele>
        <time>2023-07-12T06:35:56.000Z</time>
      </trkpt>
      <trkpt lat="42.47441" lon="3.04274">
        <ele>878.59997558594</ele>
        <time>2023-07-12T06:36:02.000Z</time>
      </trkpt>
      <trkpt lat="42.47443" lon="3.04273">
        <ele>879</ele>
        <time>2023-07-12T06:36:04.000Z</time>
      </trkpt>
      <trkpt lat="42.47445" lon="3.04271">
        <ele>879.79998779297</ele>
        <time>2023-07-12T06:36:10.000Z</time>
      </trkpt>
      <trkpt lat="42.47445" lon="3.04271">
        <ele>879.79998779297</ele>
        <time>2023-07-12T06:36:11.000Z</time>
      </trkpt>
      <trkpt lat="42.47449" lon="3.04265">
        <ele>880.79998779297</ele>
        <time>2023-07-12T06:36:18.000Z</time>
      </trkpt>
      <trkpt lat="42.47452" lon="3.0426">
        <ele>881.59997558594</ele>
        <time>2023-07-12T06:36:26.000Z</time>
      </trkpt>
      <trkpt lat="42.47453" lon="3.04262">
        <ele>882</ele>
        <time>2023-07-12T06:36:29.000Z</time>
      </trkpt>
      <trkpt lat="42.47456" lon="3.0426">
        <ele>882</ele>
        <time>2023-07-12T06:36:33.000Z</time>
      </trkpt>
      <trkpt lat="42.4746" lon="3.04254">
        <ele>882.20001220703</ele>
        <time>2023-07-12T06:36:40.000Z</time>
      </trkpt>
      <trkpt lat="42.47463" lon="3.04248">
        <ele>882.79998779297</ele>
        <time>2023-07-12T06:36:48.000Z</time>
      </trkpt>
      <trkpt lat="42.47463" lon="3.04247">
        <ele>883</ele>
        <time>2023-07-12T06:36:51.000Z</time>
      </trkpt>
      <trkpt lat="42.47464" lon="3.04244">
        <ele>884.20001220703</ele>
        <time>2023-07-12T06:36:56.000Z</time>
      </trkpt>
      <trkpt lat="42.47464" lon="3.04243">
        <ele>884.40002441406</ele>
        <time>2023-07-12T06:36:57.000Z</time>
      </trkpt>
      <trkpt lat="42.47467" lon="3.04239">
        <ele>885.20001220703</ele>
        <time>2023-07-12T06:37:02.000Z</time>
      </trkpt>
      <trkpt lat="42.47468" lon="3.04238">
        <ele>885.40002441406</ele>
        <time>2023-07-12T06:37:05.000Z</time>
      </trkpt>
      <trkpt lat="42.47471" lon="3.0424">
        <ele>885.79998779297</ele>
        <time>2023-07-12T06:37:12.000Z</time>
      </trkpt>
      <trkpt lat="42.4747" lon="3.0424">
        <ele>886.40002441406</ele>
        <time>2023-07-12T06:37:15.000Z</time>
      </trkpt>
      <trkpt lat="42.47467" lon="3.0424">
        <ele>887</ele>
        <time>2023-07-12T06:37:21.000Z</time>
      </trkpt>
      <trkpt lat="42.47474" lon="3.04241">
        <ele>887.20001220703</ele>
        <time>2023-07-12T06:37:29.000Z</time>
      </trkpt>
      <trkpt lat="42.47476" lon="3.04241">
        <ele>887.40002441406</ele>
        <time>2023-07-12T06:37:31.000Z</time>
      </trkpt>
      <trkpt lat="42.47477" lon="3.04239">
        <ele>888.20001220703</ele>
        <time>2023-07-12T06:37:37.000Z</time>
      </trkpt>
      <trkpt lat="42.47479" lon="3.04238">
        <ele>888.59997558594</ele>
        <time>2023-07-12T06:37:39.000Z</time>
      </trkpt>
      <trkpt lat="42.47485" lon="3.04232">
        <ele>889</ele>
        <time>2023-07-12T06:37:45.000Z</time>
      </trkpt>
      <trkpt lat="42.47491" lon="3.04226">
        <ele>889</ele>
        <time>2023-07-12T06:37:55.000Z</time>
      </trkpt>
      <trkpt lat="42.47495" lon="3.04226">
        <ele>889.59997558594</ele>
        <time>2023-07-12T06:38:03.000Z</time>
      </trkpt>
      <trkpt lat="42.47495" lon="3.04227">
        <ele>889.79998779297</ele>
        <time>2023-07-12T06:38:04.000Z</time>
      </trkpt>
      <trkpt lat="42.475" lon="3.04227">
        <ele>890.59997558594</ele>
        <time>2023-07-12T06:38:09.000Z</time>
      </trkpt>
      <trkpt lat="42.47502" lon="3.04226">
        <ele>891.40002441406</ele>
        <time>2023-07-12T06:38:13.000Z</time>
      </trkpt>
      <trkpt lat="42.47502" lon="3.0422">
        <ele>893</ele>
        <time>2023-07-12T06:38:23.000Z</time>
      </trkpt>
      <trkpt lat="42.47502" lon="3.0422">
        <ele>893.59997558594</ele>
        <time>2023-07-12T06:38:26.000Z</time>
      </trkpt>
      <trkpt lat="42.47503" lon="3.04221">
        <ele>894.20001220703</ele>
        <time>2023-07-12T06:38:29.000Z</time>
      </trkpt>
      <trkpt lat="42.47505" lon="3.04218">
        <ele>894.79998779297</ele>
        <time>2023-07-12T06:38:33.000Z</time>
      </trkpt>
      <trkpt lat="42.47506" lon="3.04217">
        <ele>895.20001220703</ele>
        <time>2023-07-12T06:38:35.000Z</time>
      </trkpt>
      <trkpt lat="42.47506" lon="3.04215">
        <ele>895.59997558594</ele>
        <time>2023-07-12T06:38:40.000Z</time>
      </trkpt>
      <trkpt lat="42.47506" lon="3.04212">
        <ele>896.40002441406</ele>
        <time>2023-07-12T06:38:45.000Z</time>
      </trkpt>
      <trkpt lat="42.47506" lon="3.04212">
        <ele>896.40002441406</ele>
        <time>2023-07-12T06:38:46.000Z</time>
      </trkpt>
      <trkpt lat="42.47509" lon="3.04211">
        <ele>896.59997558594</ele>
        <time>2023-07-12T06:38:55.000Z</time>
      </trkpt>
      <trkpt lat="42.47508" lon="3.04207">
        <ele>897.40002441406</ele>
        <time>2023-07-12T06:39:01.000Z</time>
      </trkpt>
      <trkpt lat="42.47508" lon="3.04207">
        <ele>897.59997558594</ele>
        <time>2023-07-12T06:39:03.000Z</time>
      </trkpt>
      <trkpt lat="42.47508" lon="3.04207">
        <ele>898.40002441406</ele>
        <time>2023-07-12T06:39:06.000Z</time>
      </trkpt>
      <trkpt lat="42.47508" lon="3.04207">
        <ele>899.59997558594</ele>
        <time>2023-07-12T06:39:12.000Z</time>
      </trkpt>
      <trkpt lat="42.47504" lon="3.042">
        <ele>900.79998779297</ele>
        <time>2023-07-12T06:39:19.000Z</time>
      </trkpt>
      <trkpt lat="42.47503" lon="3.04196">
        <ele>901.20001220703</ele>
        <time>2023-07-12T06:39:21.000Z</time>
      </trkpt>
      <trkpt lat="42.47508" lon="3.04196">
        <ele>901.20001220703</ele>
        <time>2023-07-12T06:39:30.000Z</time>
      </trkpt>
      <trkpt lat="42.47513" lon="3.04192">
        <ele>901.79998779297</ele>
        <time>2023-07-12T06:39:36.000Z</time>
      </trkpt>
      <trkpt lat="42.47516" lon="3.0419">
        <ele>902</ele>
        <time>2023-07-12T06:39:38.000Z</time>
      </trkpt>
      <trkpt lat="42.47517" lon="3.0419">
        <ele>902.40002441406</ele>
        <time>2023-07-12T06:39:39.000Z</time>
      </trkpt>
      <trkpt lat="42.47523" lon="3.04187">
        <ele>902.40002441406</ele>
        <time>2023-07-12T06:39:45.000Z</time>
      </trkpt>
      <trkpt lat="42.47524" lon="3.04187">
        <ele>903</ele>
        <time>2023-07-12T06:39:49.000Z</time>
      </trkpt>
      <trkpt lat="42.47525" lon="3.04186">
        <ele>903.59997558594</ele>
        <time>2023-07-12T06:39:53.000Z</time>
      </trkpt>
      <trkpt lat="42.47525" lon="3.04186">
        <ele>904</ele>
        <time>2023-07-12T06:39:55.000Z</time>
      </trkpt>
      <trkpt lat="42.47527" lon="3.04186">
        <ele>903.79998779297</ele>
        <time>2023-07-12T06:40:01.000Z</time>
      </trkpt>
      <trkpt lat="42.4753" lon="3.04184">
        <ele>903.59997558594</ele>
        <time>2023-07-12T06:40:08.000Z</time>
      </trkpt>
      <trkpt lat="42.47536" lon="3.04181">
        <ele>905</ele>
        <time>2023-07-12T06:40:15.000Z</time>
      </trkpt>
      <trkpt lat="42.47536" lon="3.04181">
        <ele>905.20001220703</ele>
        <time>2023-07-12T06:40:16.000Z</time>
      </trkpt>
      <trkpt lat="42.4754" lon="3.04179">
        <ele>906</ele>
        <time>2023-07-12T06:40:22.000Z</time>
      </trkpt>
      <trkpt lat="42.47541" lon="3.04179">
        <ele>906.20001220703</ele>
        <time>2023-07-12T06:40:23.000Z</time>
      </trkpt>
      <trkpt lat="42.47547" lon="3.04179">
        <ele>906.20001220703</ele>
        <time>2023-07-12T06:40:30.000Z</time>
      </trkpt>
      <trkpt lat="42.4755" lon="3.04176">
        <ele>905.79998779297</ele>
        <time>2023-07-12T06:40:38.000Z</time>
      </trkpt>
      <trkpt lat="42.47554" lon="3.04177">
        <ele>907.40002441406</ele>
        <time>2023-07-12T06:40:45.000Z</time>
      </trkpt>
      <trkpt lat="42.47558" lon="3.0418">
        <ele>908.20001220703</ele>
        <time>2023-07-12T06:40:53.000Z</time>
      </trkpt>
      <trkpt lat="42.47558" lon="3.0418">
        <ele>908.40002441406</ele>
        <time>2023-07-12T06:40:54.000Z</time>
      </trkpt>
      <trkpt lat="42.47563" lon="3.04177">
        <ele>909.59997558594</ele>
        <time>2023-07-12T06:41:00.000Z</time>
      </trkpt>
      <trkpt lat="42.47563" lon="3.04176">
        <ele>909.59997558594</ele>
        <time>2023-07-12T06:41:01.000Z</time>
      </trkpt>
      <trkpt lat="42.47568" lon="3.04175">
        <ele>910.59997558594</ele>
        <time>2023-07-12T06:41:07.000Z</time>
      </trkpt>
      <trkpt lat="42.47569" lon="3.04175">
        <ele>911</ele>
        <time>2023-07-12T06:41:10.000Z</time>
      </trkpt>
      <trkpt lat="42.47571" lon="3.04176">
        <ele>911.59997558594</ele>
        <time>2023-07-12T06:41:13.000Z</time>
      </trkpt>
      <trkpt lat="42.47574" lon="3.04176">
        <ele>912.20001220703</ele>
        <time>2023-07-12T06:41:17.000Z</time>
      </trkpt>
      <trkpt lat="42.47577" lon="3.04174">
        <ele>912.59997558594</ele>
        <time>2023-07-12T06:41:21.000Z</time>
      </trkpt>
      <trkpt lat="42.47578" lon="3.04173">
        <ele>912.59997558594</ele>
        <time>2023-07-12T06:41:22.000Z</time>
      </trkpt>
      <trkpt lat="42.47579" lon="3.04172">
        <ele>913.20001220703</ele>
        <time>2023-07-12T06:41:24.000Z</time>
      </trkpt>
      <trkpt lat="42.47581" lon="3.04171">
        <ele>913.79998779297</ele>
        <time>2023-07-12T06:41:29.000Z</time>
      </trkpt>
      <trkpt lat="42.47582" lon="3.04172">
        <ele>914</ele>
        <time>2023-07-12T06:41:30.000Z</time>
      </trkpt>
      <trkpt lat="42.47583" lon="3.04172">
        <ele>914.20001220703</ele>
        <time>2023-07-12T06:41:32.000Z</time>
      </trkpt>
      <trkpt lat="42.47584" lon="3.04171">
        <ele>914.79998779297</ele>
        <time>2023-07-12T06:41:36.000Z</time>
      </trkpt>
      <trkpt lat="42.47586" lon="3.04172">
        <ele>914.79998779297</ele>
        <time>2023-07-12T06:41:40.000Z</time>
      </trkpt>
      <trkpt lat="42.4759" lon="3.0417">
        <ele>914.79998779297</ele>
        <time>2023-07-12T06:41:47.000Z</time>
      </trkpt>
      <trkpt lat="42.47595" lon="3.04168">
        <ele>916</ele>
        <time>2023-07-12T06:41:54.000Z</time>
      </trkpt>
      <trkpt lat="42.47597" lon="3.04168">
        <ele>916.79998779297</ele>
        <time>2023-07-12T06:42:02.000Z</time>
      </trkpt>
      <trkpt lat="42.47597" lon="3.04169">
        <ele>917</ele>
        <time>2023-07-12T06:42:03.000Z</time>
      </trkpt>
      <trkpt lat="42.47602" lon="3.04168">
        <ele>917.59997558594</ele>
        <time>2023-07-12T06:42:11.000Z</time>
      </trkpt>
      <trkpt lat="42.47604" lon="3.04169">
        <ele>917.79998779297</ele>
        <time>2023-07-12T06:42:17.000Z</time>
      </trkpt>
      <trkpt lat="42.47608" lon="3.04169">
        <ele>918</ele>
        <time>2023-07-12T06:42:24.000Z</time>
      </trkpt>
      <trkpt lat="42.47609" lon="3.04168">
        <ele>918.20001220703</ele>
        <time>2023-07-12T06:42:25.000Z</time>
      </trkpt>
      <trkpt lat="42.4761" lon="3.04167">
        <ele>919.20001220703</ele>
        <time>2023-07-12T06:42:30.000Z</time>
      </trkpt>
      <trkpt lat="42.4761" lon="3.04166">
        <ele>919.40002441406</ele>
        <time>2023-07-12T06:42:31.000Z</time>
      </trkpt>
      <trkpt lat="42.47612" lon="3.04166">
        <ele>920.20001220703</ele>
        <time>2023-07-12T06:42:37.000Z</time>
      </trkpt>
      <trkpt lat="42.47614" lon="3.04165">
        <ele>920.59997558594</ele>
        <time>2023-07-12T06:42:40.000Z</time>
      </trkpt>
      <trkpt lat="42.47615" lon="3.04165">
        <ele>921.20001220703</ele>
        <time>2023-07-12T06:42:45.000Z</time>
      </trkpt>
      <trkpt lat="42.47614" lon="3.04164">
        <ele>921.40002441406</ele>
        <time>2023-07-12T06:42:46.000Z</time>
      </trkpt>
      <trkpt lat="42.47618" lon="3.04159">
        <ele>922.40002441406</ele>
        <time>2023-07-12T06:42:52.000Z</time>
      </trkpt>
      <trkpt lat="42.47618" lon="3.04158">
        <ele>922.59997558594</ele>
        <time>2023-07-12T06:42:53.000Z</time>
      </trkpt>
      <trkpt lat="42.47621" lon="3.04154">
        <ele>923.40002441406</ele>
        <time>2023-07-12T06:43:00.000Z</time>
      </trkpt>
      <trkpt lat="42.47621" lon="3.04155">
        <ele>923.40002441406</ele>
        <time>2023-07-12T06:43:01.000Z</time>
      </trkpt>
      <trkpt lat="42.47624" lon="3.04154">
        <ele>924.40002441406</ele>
        <time>2023-07-12T06:43:08.000Z</time>
      </trkpt>
      <trkpt lat="42.47625" lon="3.04154">
        <ele>924.59997558594</ele>
        <time>2023-07-12T06:43:09.000Z</time>
      </trkpt>
      <trkpt lat="42.47627" lon="3.04153">
        <ele>925.79998779297</ele>
        <time>2023-07-12T06:43:14.000Z</time>
      </trkpt>
      <trkpt lat="42.47628" lon="3.04154">
        <ele>925.79998779297</ele>
        <time>2023-07-12T06:43:15.000Z</time>
      </trkpt>
      <trkpt lat="42.4763" lon="3.04151">
        <ele>926.40002441406</ele>
        <time>2023-07-12T06:43:23.000Z</time>
      </trkpt>
      <trkpt lat="42.47631" lon="3.0415">
        <ele>926.79998779297</ele>
        <time>2023-07-12T06:43:25.000Z</time>
      </trkpt>
      <trkpt lat="42.47635" lon="3.04148">
        <ele>928</ele>
        <time>2023-07-12T06:43:32.000Z</time>
      </trkpt>
      <trkpt lat="42.4764" lon="3.04145">
        <ele>929</ele>
        <time>2023-07-12T06:43:40.000Z</time>
      </trkpt>
      <trkpt lat="42.47641" lon="3.04144">
        <ele>929.20001220703</ele>
        <time>2023-07-12T06:43:41.000Z</time>
      </trkpt>
      <trkpt lat="42.47641" lon="3.04143">
        <ele>930.20001220703</ele>
        <time>2023-07-12T06:43:46.000Z</time>
      </trkpt>
      <trkpt lat="42.47641" lon="3.04142">
        <ele>930.40002441406</ele>
        <time>2023-07-12T06:43:48.000Z</time>
      </trkpt>
      <trkpt lat="42.47643" lon="3.0414">
        <ele>931.20001220703</ele>
        <time>2023-07-12T06:43:54.000Z</time>
      </trkpt>
      <trkpt lat="42.47644" lon="3.04139">
        <ele>931.59997558594</ele>
        <time>2023-07-12T06:43:56.000Z</time>
      </trkpt>
      <trkpt lat="42.47647" lon="3.04137">
        <ele>932.40002441406</ele>
        <time>2023-07-12T06:44:01.000Z</time>
      </trkpt>
      <trkpt lat="42.47649" lon="3.04138">
        <ele>932.59997558594</ele>
        <time>2023-07-12T06:44:04.000Z</time>
      </trkpt>
      <trkpt lat="42.47658" lon="3.04137">
        <ele>933.40002441406</ele>
        <time>2023-07-12T06:44:12.000Z</time>
      </trkpt>
      <trkpt lat="42.47662" lon="3.04134">
        <ele>934.40002441406</ele>
        <time>2023-07-12T06:44:20.000Z</time>
      </trkpt>
      <trkpt lat="42.47663" lon="3.04132">
        <ele>934.59997558594</ele>
        <time>2023-07-12T06:44:22.000Z</time>
      </trkpt>
      <trkpt lat="42.47663" lon="3.04129">
        <ele>935.40002441406</ele>
        <time>2023-07-12T06:44:29.000Z</time>
      </trkpt>
      <trkpt lat="42.47663" lon="3.04129">
        <ele>935.59997558594</ele>
        <time>2023-07-12T06:44:30.000Z</time>
      </trkpt>
      <trkpt lat="42.47668" lon="3.04123">
        <ele>936.59997558594</ele>
        <time>2023-07-12T06:44:39.000Z</time>
      </trkpt>
      <trkpt lat="42.47667" lon="3.04122">
        <ele>937.79998779297</ele>
        <time>2023-07-12T06:44:45.000Z</time>
      </trkpt>
      <trkpt lat="42.47667" lon="3.04122">
        <ele>937.79998779297</ele>
        <time>2023-07-12T06:44:46.000Z</time>
      </trkpt>
      <trkpt lat="42.47667" lon="3.04117">
        <ele>938.79998779297</ele>
        <time>2023-07-12T06:44:51.000Z</time>
      </trkpt>
      <trkpt lat="42.47668" lon="3.04116">
        <ele>939.59997558594</ele>
        <time>2023-07-12T06:44:56.000Z</time>
      </trkpt>
      <trkpt lat="42.47668" lon="3.04116">
        <ele>939.79998779297</ele>
        <time>2023-07-12T06:44:58.000Z</time>
      </trkpt>
      <trkpt lat="42.47667" lon="3.04112">
        <ele>940</ele>
        <time>2023-07-12T06:45:03.000Z</time>
      </trkpt>
      <trkpt lat="42.47666" lon="3.04109">
        <ele>940.79998779297</ele>
        <time>2023-07-12T06:45:11.000Z</time>
      </trkpt>
      <trkpt lat="42.47667" lon="3.04109">
        <ele>941</ele>
        <time>2023-07-12T06:45:12.000Z</time>
      </trkpt>
      <trkpt lat="42.47668" lon="3.04106">
        <ele>941.79998779297</ele>
        <time>2023-07-12T06:45:18.000Z</time>
      </trkpt>
      <trkpt lat="42.47668" lon="3.04106">
        <ele>942</ele>
        <time>2023-07-12T06:45:19.000Z</time>
      </trkpt>
      <trkpt lat="42.47668" lon="3.04103">
        <ele>942.79998779297</ele>
        <time>2023-07-12T06:45:24.000Z</time>
      </trkpt>
      <trkpt lat="42.47668" lon="3.04102">
        <ele>943</ele>
        <time>2023-07-12T06:45:26.000Z</time>
      </trkpt>
      <trkpt lat="42.47665" lon="3.04097">
        <ele>944</ele>
        <time>2023-07-12T06:45:33.000Z</time>
      </trkpt>
      <trkpt lat="42.47665" lon="3.04097">
        <ele>944.20001220703</ele>
        <time>2023-07-12T06:45:35.000Z</time>
      </trkpt>
      <trkpt lat="42.47664" lon="3.04093">
        <ele>945.40002441406</ele>
        <time>2023-07-12T06:45:40.000Z</time>
      </trkpt>
      <trkpt lat="42.47665" lon="3.04089">
        <ele>946.40002441406</ele>
        <time>2023-07-12T06:45:46.000Z</time>
      </trkpt>
      <trkpt lat="42.47665" lon="3.04088">
        <ele>946.59997558594</ele>
        <time>2023-07-12T06:45:48.000Z</time>
      </trkpt>
      <trkpt lat="42.47665" lon="3.04087">
        <ele>947.40002441406</ele>
        <time>2023-07-12T06:45:53.000Z</time>
      </trkpt>
      <trkpt lat="42.47664" lon="3.04084">
        <ele>948</ele>
        <time>2023-07-12T06:45:57.000Z</time>
      </trkpt>
      <trkpt lat="42.47665" lon="3.04081">
        <ele>948.59997558594</ele>
        <time>2023-07-12T06:46:00.000Z</time>
      </trkpt>
      <trkpt lat="42.47664" lon="3.04075">
        <ele>949.59997558594</ele>
        <time>2023-07-12T06:46:06.000Z</time>
      </trkpt>
      <trkpt lat="42.47664" lon="3.04074">
        <ele>949.79998779297</ele>
        <time>2023-07-12T06:46:07.000Z</time>
      </trkpt>
      <trkpt lat="42.47663" lon="3.04069">
        <ele>950.59997558594</ele>
        <time>2023-07-12T06:46:12.000Z</time>
      </trkpt>
      <trkpt lat="42.47663" lon="3.04068">
        <ele>951</ele>
        <time>2023-07-12T06:46:14.000Z</time>
      </trkpt>
      <trkpt lat="42.4766" lon="3.04064">
        <ele>951.79998779297</ele>
        <time>2023-07-12T06:46:19.000Z</time>
      </trkpt>
      <trkpt lat="42.47659" lon="3.04064">
        <ele>951.79998779297</ele>
        <time>2023-07-12T06:46:20.000Z</time>
      </trkpt>
      <trkpt lat="42.47658" lon="3.04061">
        <ele>952.79998779297</ele>
        <time>2023-07-12T06:46:28.000Z</time>
      </trkpt>
      <trkpt lat="42.47657" lon="3.04056">
        <ele>953.79998779297</ele>
        <time>2023-07-12T06:46:35.000Z</time>
      </trkpt>
      <trkpt lat="42.47657" lon="3.04056">
        <ele>954</ele>
        <time>2023-07-12T06:46:36.000Z</time>
      </trkpt>
      <trkpt lat="42.47655" lon="3.04052">
        <ele>954.59997558594</ele>
        <time>2023-07-12T06:46:42.000Z</time>
      </trkpt>
      <trkpt lat="42.47655" lon="3.0405">
        <ele>955.20001220703</ele>
        <time>2023-07-12T06:46:45.000Z</time>
      </trkpt>
      <trkpt lat="42.47654" lon="3.04045">
        <ele>955.79998779297</ele>
        <time>2023-07-12T06:46:49.000Z</time>
      </trkpt>
      <trkpt lat="42.47654" lon="3.04042">
        <ele>956.20001220703</ele>
        <time>2023-07-12T06:46:51.000Z</time>
      </trkpt>
      <trkpt lat="42.47655" lon="3.04035">
        <ele>956.59997558594</ele>
        <time>2023-07-12T06:46:58.000Z</time>
      </trkpt>
      <trkpt lat="42.4766" lon="3.04028">
        <ele>957</ele>
        <time>2023-07-12T06:47:06.000Z</time>
      </trkpt>
      <trkpt lat="42.47662" lon="3.04025">
        <ele>957.20001220703</ele>
        <time>2023-07-12T06:47:09.000Z</time>
      </trkpt>
      <trkpt lat="42.47665" lon="3.04026">
        <ele>957.59997558594</ele>
        <time>2023-07-12T06:47:13.000Z</time>
      </trkpt>
      <trkpt lat="42.47668" lon="3.04024">
        <ele>957.59997558594</ele>
        <time>2023-07-12T06:47:19.000Z</time>
      </trkpt>
      <trkpt lat="42.47668" lon="3.0402">
        <ele>958</ele>
        <time>2023-07-12T06:47:21.000Z</time>
      </trkpt>
      <trkpt lat="42.47673" lon="3.04013">
        <ele>957.79998779297</ele>
        <time>2023-07-12T06:47:29.000Z</time>
      </trkpt>
      <trkpt lat="42.47678" lon="3.04014">
        <ele>957.79998779297</ele>
        <time>2023-07-12T06:47:36.000Z</time>
      </trkpt>
      <trkpt lat="42.47682" lon="3.04014">
        <ele>958.40002441406</ele>
        <time>2023-07-12T06:47:50.000Z</time>
      </trkpt>
      <trkpt lat="42.47679" lon="3.0401">
        <ele>958.40002441406</ele>
        <time>2023-07-12T06:47:58.000Z</time>
      </trkpt>
      <trkpt lat="42.47681" lon="3.04012">
        <ele>958.40002441406</ele>
        <time>2023-07-12T06:48:06.000Z</time>
      </trkpt>
      <trkpt lat="42.47685" lon="3.04021">
        <ele>958.40002441406</ele>
        <time>2023-07-12T06:48:14.000Z</time>
      </trkpt>
      <trkpt lat="42.47688" lon="3.04028">
        <ele>958.59997558594</ele>
        <time>2023-07-12T06:48:19.000Z</time>
      </trkpt>
      <trkpt lat="42.47695" lon="3.04035">
        <ele>958.40002441406</ele>
        <time>2023-07-12T06:48:25.000Z</time>
      </trkpt>
      <trkpt lat="42.47702" lon="3.04038">
        <ele>958.40002441406</ele>
        <time>2023-07-12T06:48:33.000Z</time>
      </trkpt>
      <trkpt lat="42.47707" lon="3.04038">
        <ele>958.59997558594</ele>
        <time>2023-07-12T06:48:39.000Z</time>
      </trkpt>
      <trkpt lat="42.47708" lon="3.04038">
        <ele>958.79998779297</ele>
        <time>2023-07-12T06:48:40.000Z</time>
      </trkpt>
      <trkpt lat="42.47705" lon="3.04038">
        <ele>958.79998779297</ele>
        <time>2023-07-12T06:48:47.000Z</time>
      </trkpt>
      <trkpt lat="42.47702" lon="3.04039">
        <ele>958.79998779297</ele>
        <time>2023-07-12T06:48:56.000Z</time>
      </trkpt>
      <trkpt lat="42.47708" lon="3.0404">
        <ele>958.79998779297</ele>
        <time>2023-07-12T06:49:09.000Z</time>
      </trkpt>
      <trkpt lat="42.47709" lon="3.0404">
        <ele>959.20001220703</ele>
        <time>2023-07-12T06:49:11.000Z</time>
      </trkpt>
      <trkpt lat="42.47708" lon="3.04039">
        <ele>959.59997558594</ele>
        <time>2023-07-12T06:49:19.000Z</time>
      </trkpt>
      <trkpt lat="42.4771" lon="3.04038">
        <ele>959.59997558594</ele>
        <time>2023-07-12T06:49:28.000Z</time>
      </trkpt>
      <trkpt lat="42.47721" lon="3.04033">
        <ele>961.59997558594</ele>
        <time>2023-07-12T06:49:41.000Z</time>
      </trkpt>
      <trkpt lat="42.47723" lon="3.04032">
        <ele>962.20001220703</ele>
        <time>2023-07-12T06:49:43.000Z</time>
      </trkpt>
      <trkpt lat="42.47724" lon="3.04031">
        <ele>962.59997558594</ele>
        <time>2023-07-12T06:49:45.000Z</time>
      </trkpt>
      <trkpt lat="42.47727" lon="3.04027">
        <ele>963.59997558594</ele>
        <time>2023-07-12T06:49:51.000Z</time>
      </trkpt>
      <trkpt lat="42.47728" lon="3.04026">
        <ele>963.59997558594</ele>
        <time>2023-07-12T06:49:53.000Z</time>
      </trkpt>
      <trkpt lat="42.47725" lon="3.04027">
        <ele>963.79998779297</ele>
        <time>2023-07-12T06:50:01.000Z</time>
      </trkpt>
      <trkpt lat="42.47728" lon="3.04022">
        <ele>964.79998779297</ele>
        <time>2023-07-12T06:50:10.000Z</time>
      </trkpt>
      <trkpt lat="42.47731" lon="3.0402">
        <ele>965.20001220703</ele>
        <time>2023-07-12T06:50:18.000Z</time>
      </trkpt>
      <trkpt lat="42.47733" lon="3.04023">
        <ele>965.20001220703</ele>
        <time>2023-07-12T06:50:26.000Z</time>
      </trkpt>
      <trkpt lat="42.47734" lon="3.04015">
        <ele>965.20001220703</ele>
        <time>2023-07-12T06:50:32.000Z</time>
      </trkpt>
      <trkpt lat="42.47728" lon="3.04022">
        <ele>963.20001220703</ele>
        <time>2023-07-12T07:18:35.000Z</time>
      </trkpt>
      <trkpt lat="42.47728" lon="3.04019">
        <ele>963</ele>
        <time>2023-07-12T07:18:41.000Z</time>
      </trkpt>
      <trkpt lat="42.47728" lon="3.04017">
        <ele>963</ele>
        <time>2023-07-12T07:18:47.000Z</time>
      </trkpt>
      <trkpt lat="42.47727" lon="3.04017">
        <ele>963</ele>
        <time>2023-07-12T07:18:56.000Z</time>
      </trkpt>
      <trkpt lat="42.47725" lon="3.0402">
        <ele>963.20001220703</ele>
        <time>2023-07-12T07:19:01.000Z</time>
      </trkpt>
      <trkpt lat="42.47727" lon="3.04022">
        <ele>963</ele>
        <time>2023-07-12T07:19:07.000Z</time>
      </trkpt>
      <trkpt lat="42.47726" lon="3.04025">
        <ele>962.59997558594</ele>
        <time>2023-07-12T07:19:13.000Z</time>
      </trkpt>
      <trkpt lat="42.47725" lon="3.04025">
        <ele>962.40002441406</ele>
        <time>2023-07-12T07:19:21.000Z</time>
      </trkpt>
      <trkpt lat="42.47723" lon="3.04023">
        <ele>962.20001220703</ele>
        <time>2023-07-12T07:19:29.000Z</time>
      </trkpt>
      <trkpt lat="42.47723" lon="3.04023">
        <ele>962.20001220703</ele>
        <time>2023-07-12T07:19:30.000Z</time>
      </trkpt>
      <trkpt lat="42.47721" lon="3.04028">
        <ele>961.20001220703</ele>
        <time>2023-07-12T07:19:36.000Z</time>
      </trkpt>
      <trkpt lat="42.47715" lon="3.04033">
        <ele>960</ele>
        <time>2023-07-12T07:19:42.000Z</time>
      </trkpt>
      <trkpt lat="42.47713" lon="3.04033">
        <ele>959.40002441406</ele>
        <time>2023-07-12T07:19:44.000Z</time>
      </trkpt>
      <trkpt lat="42.47712" lon="3.04034">
        <ele>958.79998779297</ele>
        <time>2023-07-12T07:19:48.000Z</time>
      </trkpt>
      <trkpt lat="42.47713" lon="3.04034">
        <ele>958.79998779297</ele>
        <time>2023-07-12T07:19:50.000Z</time>
      </trkpt>
      <trkpt lat="42.47711" lon="3.04037">
        <ele>958.59997558594</ele>
        <time>2023-07-12T07:19:58.000Z</time>
      </trkpt>
      <trkpt lat="42.47711" lon="3.04034">
        <ele>958.79998779297</ele>
        <time>2023-07-12T07:20:07.000Z</time>
      </trkpt>
      <trkpt lat="42.47711" lon="3.04035">
        <ele>959</ele>
        <time>2023-07-12T07:20:17.000Z</time>
      </trkpt>
      <trkpt lat="42.47712" lon="3.04035">
        <ele>959</ele>
        <time>2023-07-12T07:20:29.000Z</time>
      </trkpt>
      <trkpt lat="42.47707" lon="3.04039">
        <ele>959</ele>
        <time>2023-07-12T07:20:35.000Z</time>
      </trkpt>
      <trkpt lat="42.47702" lon="3.0404">
        <ele>958</ele>
        <time>2023-07-12T07:20:42.000Z</time>
      </trkpt>
      <trkpt lat="42.47699" lon="3.04042">
        <ele>957.59997558594</ele>
        <time>2023-07-12T07:20:44.000Z</time>
      </trkpt>
      <trkpt lat="42.47694" lon="3.04043">
        <ele>956.79998779297</ele>
        <time>2023-07-12T07:20:48.000Z</time>
      </trkpt>
      <trkpt lat="42.47692" lon="3.04044">
        <ele>956.40002441406</ele>
        <time>2023-07-12T07:20:50.000Z</time>
      </trkpt>
      <trkpt lat="42.47687" lon="3.04046">
        <ele>956</ele>
        <time>2023-07-12T07:20:56.000Z</time>
      </trkpt>
      <trkpt lat="42.47682" lon="3.04046">
        <ele>955.40002441406</ele>
        <time>2023-07-12T07:21:00.000Z</time>
      </trkpt>
      <trkpt lat="42.47678" lon="3.04046">
        <ele>955</ele>
        <time>2023-07-12T07:21:04.000Z</time>
      </trkpt>
      <trkpt lat="42.47674" lon="3.04048">
        <ele>954.40002441406</ele>
        <time>2023-07-12T07:21:08.000Z</time>
      </trkpt>
      <trkpt lat="42.47672" lon="3.04051">
        <ele>953.59997558594</ele>
        <time>2023-07-12T07:21:12.000Z</time>
      </trkpt>
      <trkpt lat="42.47671" lon="3.04052">
        <ele>953.40002441406</ele>
        <time>2023-07-12T07:21:13.000Z</time>
      </trkpt>
      <trkpt lat="42.47665" lon="3.04059">
        <ele>952.40002441406</ele>
        <time>2023-07-12T07:21:19.000Z</time>
      </trkpt>
      <trkpt lat="42.47664" lon="3.0406">
        <ele>952.20001220703</ele>
        <time>2023-07-12T07:21:20.000Z</time>
      </trkpt>
      <trkpt lat="42.4766" lon="3.04064">
        <ele>951.20001220703</ele>
        <time>2023-07-12T07:21:26.000Z</time>
      </trkpt>
      <trkpt lat="42.47659" lon="3.04064">
        <ele>951.20001220703</ele>
        <time>2023-07-12T07:21:28.000Z</time>
      </trkpt>
      <trkpt lat="42.47654" lon="3.04061">
        <ele>951.59997558594</ele>
        <time>2023-07-12T07:21:33.000Z</time>
      </trkpt>
      <trkpt lat="42.47646" lon="3.04055">
        <ele>953</ele>
        <time>2023-07-12T07:21:40.000Z</time>
      </trkpt>
      <trkpt lat="42.47645" lon="3.04054">
        <ele>953.20001220703</ele>
        <time>2023-07-12T07:21:41.000Z</time>
      </trkpt>
      <trkpt lat="42.47641" lon="3.04052">
        <ele>953.79998779297</ele>
        <time>2023-07-12T07:21:45.000Z</time>
      </trkpt>
      <trkpt lat="42.47638" lon="3.04045">
        <ele>954.40002441406</ele>
        <time>2023-07-12T07:21:51.000Z</time>
      </trkpt>
      <trkpt lat="42.47635" lon="3.0404">
        <ele>955.40002441406</ele>
        <time>2023-07-12T07:21:57.000Z</time>
      </trkpt>
      <trkpt lat="42.47634" lon="3.04038">
        <ele>955.59997558594</ele>
        <time>2023-07-12T07:21:58.000Z</time>
      </trkpt>
      <trkpt lat="42.47628" lon="3.04032">
        <ele>956.40002441406</ele>
        <time>2023-07-12T07:22:04.000Z</time>
      </trkpt>
      <trkpt lat="42.47628" lon="3.04031">
        <ele>956.59997558594</ele>
        <time>2023-07-12T07:22:05.000Z</time>
      </trkpt>
      <trkpt lat="42.47619" lon="3.04022">
        <ele>957.20001220703</ele>
        <time>2023-07-12T07:22:15.000Z</time>
      </trkpt>
      <trkpt lat="42.47617" lon="3.04023">
        <ele>957.40002441406</ele>
        <time>2023-07-12T07:22:18.000Z</time>
      </trkpt>
      <trkpt lat="42.47613" lon="3.04023">
        <ele>958.20001220703</ele>
        <time>2023-07-12T07:22:22.000Z</time>
      </trkpt>
      <trkpt lat="42.47611" lon="3.04021">
        <ele>958.59997558594</ele>
        <time>2023-07-12T07:22:24.000Z</time>
      </trkpt>
      <trkpt lat="42.47607" lon="3.04015">
        <ele>958.59997558594</ele>
        <time>2023-07-12T07:22:29.000Z</time>
      </trkpt>
      <trkpt lat="42.47609" lon="3.04015">
        <ele>958</ele>
        <time>2023-07-12T07:22:35.000Z</time>
      </trkpt>
      <trkpt lat="42.47609" lon="3.04013">
        <ele>958</ele>
        <time>2023-07-12T07:22:45.000Z</time>
      </trkpt>
      <trkpt lat="42.47608" lon="3.04012">
        <ele>958</ele>
        <time>2023-07-12T07:22:55.000Z</time>
      </trkpt>
      <trkpt lat="42.47608" lon="3.04012">
        <ele>958</ele>
        <time>2023-07-12T07:23:07.000Z</time>
      </trkpt>
      <trkpt lat="42.47606" lon="3.04008">
        <ele>958</ele>
        <time>2023-07-12T07:23:14.000Z</time>
      </trkpt>
      <trkpt lat="42.47603" lon="3.04004">
        <ele>957.59997558594</ele>
        <time>2023-07-12T07:23:19.000Z</time>
      </trkpt>
      <trkpt lat="42.47599" lon="3.04001">
        <ele>957.40002441406</ele>
        <time>2023-07-12T07:23:22.000Z</time>
      </trkpt>
      <trkpt lat="42.47591" lon="3.03999">
        <ele>957.59997558594</ele>
        <time>2023-07-12T07:23:29.000Z</time>
      </trkpt>
      <trkpt lat="42.47584" lon="3.03994">
        <ele>957.79998779297</ele>
        <time>2023-07-12T07:23:36.000Z</time>
      </trkpt>
      <trkpt lat="42.47574" lon="3.03989">
        <ele>957.79998779297</ele>
        <time>2023-07-12T07:23:44.000Z</time>
      </trkpt>
      <trkpt lat="42.47569" lon="3.03986">
        <ele>957.79998779297</ele>
        <time>2023-07-12T07:23:51.000Z</time>
      </trkpt>
      <trkpt lat="42.47568" lon="3.03985">
        <ele>957.59997558594</ele>
        <time>2023-07-12T07:23:57.000Z</time>
      </trkpt>
      <trkpt lat="42.47564" lon="3.03983">
        <ele>957.40002441406</ele>
        <time>2023-07-12T07:24:02.000Z</time>
      </trkpt>
      <trkpt lat="42.47554" lon="3.03974">
        <ele>956.79998779297</ele>
        <time>2023-07-12T07:24:11.000Z</time>
      </trkpt>
      <trkpt lat="42.47545" lon="3.03964">
        <ele>956.59997558594</ele>
        <time>2023-07-12T07:24:19.000Z</time>
      </trkpt>
      <trkpt lat="42.47544" lon="3.03963">
        <ele>956.59997558594</ele>
        <time>2023-07-12T07:24:20.000Z</time>
      </trkpt>
      <trkpt lat="42.47543" lon="3.03961">
        <ele>956.40002441406</ele>
        <time>2023-07-12T07:24:25.000Z</time>
      </trkpt>
      <trkpt lat="42.47535" lon="3.03952">
        <ele>955.79998779297</ele>
        <time>2023-07-12T07:24:33.000Z</time>
      </trkpt>
      <trkpt lat="42.47533" lon="3.03946">
        <ele>955.40002441406</ele>
        <time>2023-07-12T07:24:37.000Z</time>
      </trkpt>
      <trkpt lat="42.4753" lon="3.03942">
        <ele>955</ele>
        <time>2023-07-12T07:24:41.000Z</time>
      </trkpt>
      <trkpt lat="42.47527" lon="3.03936">
        <ele>954.40002441406</ele>
        <time>2023-07-12T07:24:46.000Z</time>
      </trkpt>
      <trkpt lat="42.47525" lon="3.03932">
        <ele>954</ele>
        <time>2023-07-12T07:24:49.000Z</time>
      </trkpt>
      <trkpt lat="42.4752" lon="3.03922">
        <ele>953.40002441406</ele>
        <time>2023-07-12T07:24:57.000Z</time>
      </trkpt>
      <trkpt lat="42.47519" lon="3.03921">
        <ele>953.20001220703</ele>
        <time>2023-07-12T07:24:58.000Z</time>
      </trkpt>
      <trkpt lat="42.47514" lon="3.03915">
        <ele>953</ele>
        <time>2023-07-12T07:25:04.000Z</time>
      </trkpt>
      <trkpt lat="42.47507" lon="3.03906">
        <ele>952.40002441406</ele>
        <time>2023-07-12T07:25:13.000Z</time>
      </trkpt>
      <trkpt lat="42.47506" lon="3.03902">
        <ele>952.20001220703</ele>
        <time>2023-07-12T07:25:15.000Z</time>
      </trkpt>
      <trkpt lat="42.47506" lon="3.03889">
        <ele>951.59997558594</ele>
        <time>2023-07-12T07:25:22.000Z</time>
      </trkpt>
      <trkpt lat="42.47504" lon="3.0388">
        <ele>951.20001220703</ele>
        <time>2023-07-12T07:25:27.000Z</time>
      </trkpt>
      <trkpt lat="42.47501" lon="3.03873">
        <ele>951.20001220703</ele>
        <time>2023-07-12T07:25:31.000Z</time>
      </trkpt>
      <trkpt lat="42.47499" lon="3.03862">
        <ele>950.59997558594</ele>
        <time>2023-07-12T07:25:38.000Z</time>
      </trkpt>
      <trkpt lat="42.47498" lon="3.03857">
        <ele>950.20001220703</ele>
        <time>2023-07-12T07:25:44.000Z</time>
      </trkpt>
      <trkpt lat="42.47497" lon="3.03858">
        <ele>950.20001220703</ele>
        <time>2023-07-12T07:25:46.000Z</time>
      </trkpt>
      <trkpt lat="42.47497" lon="3.03858">
        <ele>950</ele>
        <time>2023-07-12T07:25:51.000Z</time>
      </trkpt>
      <trkpt lat="42.47497" lon="3.03857">
        <ele>950</ele>
        <time>2023-07-12T07:25:52.000Z</time>
      </trkpt>
      <trkpt lat="42.475" lon="3.03857">
        <ele>950.20001220703</ele>
        <time>2023-07-12T07:26:03.000Z</time>
      </trkpt>
      <trkpt lat="42.47498" lon="3.0386">
        <ele>950.20001220703</ele>
        <time>2023-07-12T07:26:09.000Z</time>
      </trkpt>
      <trkpt lat="42.47497" lon="3.03853">
        <ele>950</ele>
        <time>2023-07-12T07:26:15.000Z</time>
      </trkpt>
      <trkpt lat="42.47493" lon="3.03838">
        <ele>950</ele>
        <time>2023-07-12T07:26:23.000Z</time>
      </trkpt>
      <trkpt lat="42.47491" lon="3.0383">
        <ele>949.20001220703</ele>
        <time>2023-07-12T07:26:29.000Z</time>
      </trkpt>
      <trkpt lat="42.47491" lon="3.03826">
        <ele>949</ele>
        <time>2023-07-12T07:26:31.000Z</time>
      </trkpt>
      <trkpt lat="42.47491" lon="3.03811">
        <ele>948</ele>
        <time>2023-07-12T07:26:41.000Z</time>
      </trkpt>
      <trkpt lat="42.47489" lon="3.03804">
        <ele>947.40002441406</ele>
        <time>2023-07-12T07:26:46.000Z</time>
      </trkpt>
      <trkpt lat="42.47488" lon="3.03795">
        <ele>947.20001220703</ele>
        <time>2023-07-12T07:26:53.000Z</time>
      </trkpt>
      <trkpt lat="42.47488" lon="3.03793">
        <ele>946.79998779297</ele>
        <time>2023-07-12T07:26:55.000Z</time>
      </trkpt>
      <trkpt lat="42.47487" lon="3.03788">
        <ele>946.20001220703</ele>
        <time>2023-07-12T07:27:00.000Z</time>
      </trkpt>
      <trkpt lat="42.47485" lon="3.03781">
        <ele>945.79998779297</ele>
        <time>2023-07-12T07:27:04.000Z</time>
      </trkpt>
      <trkpt lat="42.47484" lon="3.03778">
        <ele>945.20001220703</ele>
        <time>2023-07-12T07:27:07.000Z</time>
      </trkpt>
      <trkpt lat="42.47485" lon="3.03774">
        <ele>944.79998779297</ele>
        <time>2023-07-12T07:27:10.000Z</time>
      </trkpt>
      <trkpt lat="42.47486" lon="3.03765">
        <ele>943.79998779297</ele>
        <time>2023-07-12T07:27:16.000Z</time>
      </trkpt>
      <trkpt lat="42.47482" lon="3.03753">
        <ele>943</ele>
        <time>2023-07-12T07:27:23.000Z</time>
      </trkpt>
      <trkpt lat="42.47481" lon="3.03745">
        <ele>942.59997558594</ele>
        <time>2023-07-12T07:27:27.000Z</time>
      </trkpt>
      <trkpt lat="42.4748" lon="3.0374">
        <ele>942.40002441406</ele>
        <time>2023-07-12T07:27:31.000Z</time>
      </trkpt>
      <trkpt lat="42.47477" lon="3.03724">
        <ele>941.79998779297</ele>
        <time>2023-07-12T07:27:39.000Z</time>
      </trkpt>
      <trkpt lat="42.47476" lon="3.03718">
        <ele>941.59997558594</ele>
        <time>2023-07-12T07:27:42.000Z</time>
      </trkpt>
      <trkpt lat="42.47472" lon="3.03707">
        <ele>941.20001220703</ele>
        <time>2023-07-12T07:27:48.000Z</time>
      </trkpt>
      <trkpt lat="42.47469" lon="3.03697">
        <ele>940.79998779297</ele>
        <time>2023-07-12T07:27:56.000Z</time>
      </trkpt>
      <trkpt lat="42.47468" lon="3.03689">
        <ele>940.59997558594</ele>
        <time>2023-07-12T07:28:02.000Z</time>
      </trkpt>
      <trkpt lat="42.47468" lon="3.03687">
        <ele>940.40002441406</ele>
        <time>2023-07-12T07:28:03.000Z</time>
      </trkpt>
      <trkpt lat="42.47469" lon="3.03676">
        <ele>939.79998779297</ele>
        <time>2023-07-12T07:28:10.000Z</time>
      </trkpt>
      <trkpt lat="42.47469" lon="3.03674">
        <ele>939.40002441406</ele>
        <time>2023-07-12T07:28:11.000Z</time>
      </trkpt>
      <trkpt lat="42.47468" lon="3.03666">
        <ele>939</ele>
        <time>2023-07-12T07:28:17.000Z</time>
      </trkpt>
      <trkpt lat="42.47468" lon="3.03652">
        <ele>938.59997558594</ele>
        <time>2023-07-12T07:28:24.000Z</time>
      </trkpt>
      <trkpt lat="42.47468" lon="3.0365">
        <ele>938.40002441406</ele>
        <time>2023-07-12T07:28:25.000Z</time>
      </trkpt>
      <trkpt lat="42.47467" lon="3.0364">
        <ele>938</ele>
        <time>2023-07-12T07:28:33.000Z</time>
      </trkpt>
      <trkpt lat="42.47468" lon="3.03629">
        <ele>938.20001220703</ele>
        <time>2023-07-12T07:28:39.000Z</time>
      </trkpt>
      <trkpt lat="42.47469" lon="3.03616">
        <ele>937.40002441406</ele>
        <time>2023-07-12T07:28:46.000Z</time>
      </trkpt>
      <trkpt lat="42.47469" lon="3.03611">
        <ele>937.40002441406</ele>
        <time>2023-07-12T07:28:49.000Z</time>
      </trkpt>
      <trkpt lat="42.47469" lon="3.03606">
        <ele>937.20001220703</ele>
        <time>2023-07-12T07:28:55.000Z</time>
      </trkpt>
      <trkpt lat="42.47468" lon="3.03605">
        <ele>937</ele>
        <time>2023-07-12T07:29:04.000Z</time>
      </trkpt>
      <trkpt lat="42.47467" lon="3.03595">
        <ele>937</ele>
        <time>2023-07-12T07:29:10.000Z</time>
      </trkpt>
      <trkpt lat="42.47468" lon="3.03584">
        <ele>936.59997558594</ele>
        <time>2023-07-12T07:29:18.000Z</time>
      </trkpt>
      <trkpt lat="42.47469" lon="3.0358">
        <ele>936.40002441406</ele>
        <time>2023-07-12T07:29:20.000Z</time>
      </trkpt>
      <trkpt lat="42.47469" lon="3.03569">
        <ele>935.59997558594</ele>
        <time>2023-07-12T07:29:26.000Z</time>
      </trkpt>
      <trkpt lat="42.47469" lon="3.03565">
        <ele>935.20001220703</ele>
        <time>2023-07-12T07:29:28.000Z</time>
      </trkpt>
      <trkpt lat="42.47468" lon="3.03554">
        <ele>934.40002441406</ele>
        <time>2023-07-12T07:29:34.000Z</time>
      </trkpt>
      <trkpt lat="42.47467" lon="3.03548">
        <ele>934.20001220703</ele>
        <time>2023-07-12T07:29:38.000Z</time>
      </trkpt>
      <trkpt lat="42.47466" lon="3.03544">
        <ele>934</ele>
        <time>2023-07-12T07:29:41.000Z</time>
      </trkpt>
      <trkpt lat="42.47465" lon="3.0353">
        <ele>933.59997558594</ele>
        <time>2023-07-12T07:29:48.000Z</time>
      </trkpt>
      <trkpt lat="42.47463" lon="3.0352">
        <ele>933</ele>
        <time>2023-07-12T07:29:54.000Z</time>
      </trkpt>
      <trkpt lat="42.47463" lon="3.03516">
        <ele>932.59997558594</ele>
        <time>2023-07-12T07:29:57.000Z</time>
      </trkpt>
      <trkpt lat="42.47461" lon="3.03507">
        <ele>932.20001220703</ele>
        <time>2023-07-12T07:30:02.000Z</time>
      </trkpt>
      <trkpt lat="42.4746" lon="3.035">
        <ele>931.79998779297</ele>
        <time>2023-07-12T07:30:07.000Z</time>
      </trkpt>
      <trkpt lat="42.4746" lon="3.03497">
        <ele>931.59997558594</ele>
        <time>2023-07-12T07:30:09.000Z</time>
      </trkpt>
      <trkpt lat="42.47458" lon="3.03485">
        <ele>931</ele>
        <time>2023-07-12T07:30:17.000Z</time>
      </trkpt>
      <trkpt lat="42.47458" lon="3.03483">
        <ele>930.59997558594</ele>
        <time>2023-07-12T07:30:19.000Z</time>
      </trkpt>
      <trkpt lat="42.47459" lon="3.0348">
        <ele>930</ele>
        <time>2023-07-12T07:30:24.000Z</time>
      </trkpt>
      <trkpt lat="42.4746" lon="3.03475">
        <ele>929.79998779297</ele>
        <time>2023-07-12T07:30:31.000Z</time>
      </trkpt>
      <trkpt lat="42.4746" lon="3.03475">
        <ele>929.59997558594</ele>
        <time>2023-07-12T07:30:32.000Z</time>
      </trkpt>
      <trkpt lat="42.4746" lon="3.03476">
        <ele>929.20001220703</ele>
        <time>2023-07-12T07:30:42.000Z</time>
      </trkpt>
      <trkpt lat="42.4746" lon="3.03474">
        <ele>929.40002441406</ele>
        <time>2023-07-12T07:30:46.000Z</time>
      </trkpt>
      <trkpt lat="42.47461" lon="3.03475">
        <ele>929.20001220703</ele>
        <time>2023-07-12T07:30:55.000Z</time>
      </trkpt>
      <trkpt lat="42.47459" lon="3.03475">
        <ele>929.20001220703</ele>
        <time>2023-07-12T07:31:06.000Z</time>
      </trkpt>
      <trkpt lat="42.47459" lon="3.03472">
        <ele>929.40002441406</ele>
        <time>2023-07-12T07:31:13.000Z</time>
      </trkpt>
      <trkpt lat="42.4746" lon="3.03457">
        <ele>928.79998779297</ele>
        <time>2023-07-12T07:31:22.000Z</time>
      </trkpt>
      <trkpt lat="42.4746" lon="3.03455">
        <ele>928.59997558594</ele>
        <time>2023-07-12T07:31:23.000Z</time>
      </trkpt>
      <trkpt lat="42.47461" lon="3.03447">
        <ele>927.59997558594</ele>
        <time>2023-07-12T07:31:29.000Z</time>
      </trkpt>
      <trkpt lat="42.47461" lon="3.03446">
        <ele>927.40002441406</ele>
        <time>2023-07-12T07:31:30.000Z</time>
      </trkpt>
      <trkpt lat="42.47463" lon="3.03438">
        <ele>926.20001220703</ele>
        <time>2023-07-12T07:31:37.000Z</time>
      </trkpt>
      <trkpt lat="42.47464" lon="3.03437">
        <ele>926</ele>
        <time>2023-07-12T07:31:38.000Z</time>
      </trkpt>
      <trkpt lat="42.47466" lon="3.03431">
        <ele>925</ele>
        <time>2023-07-12T07:31:43.000Z</time>
      </trkpt>
      <trkpt lat="42.47468" lon="3.03427">
        <ele>924</ele>
        <time>2023-07-12T07:31:47.000Z</time>
      </trkpt>
      <trkpt lat="42.47469" lon="3.03426">
        <ele>923.79998779297</ele>
        <time>2023-07-12T07:31:49.000Z</time>
      </trkpt>
      <trkpt lat="42.4747" lon="3.03418">
        <ele>922.59997558594</ele>
        <time>2023-07-12T07:31:54.000Z</time>
      </trkpt>
      <trkpt lat="42.4747" lon="3.03417">
        <ele>922.40002441406</ele>
        <time>2023-07-12T07:31:55.000Z</time>
      </trkpt>
      <trkpt lat="42.4747" lon="3.03412">
        <ele>921.59997558594</ele>
        <time>2023-07-12T07:31:58.000Z</time>
      </trkpt>
      <trkpt lat="42.4747" lon="3.03406">
        <ele>920.79998779297</ele>
        <time>2023-07-12T07:32:03.000Z</time>
      </trkpt>
      <trkpt lat="42.4747" lon="3.03403">
        <ele>920.40002441406</ele>
        <time>2023-07-12T07:32:05.000Z</time>
      </trkpt>
      <trkpt lat="42.47473" lon="3.03399">
        <ele>919.40002441406</ele>
        <time>2023-07-12T07:32:10.000Z</time>
      </trkpt>
      <trkpt lat="42.47474" lon="3.03397">
        <ele>919.20001220703</ele>
        <time>2023-07-12T07:32:11.000Z</time>
      </trkpt>
      <trkpt lat="42.47478" lon="3.03393">
        <ele>918.40002441406</ele>
        <time>2023-07-12T07:32:15.000Z</time>
      </trkpt>
      <trkpt lat="42.47481" lon="3.0339">
        <ele>917.20001220703</ele>
        <time>2023-07-12T07:32:19.000Z</time>
      </trkpt>
      <trkpt lat="42.47481" lon="3.03384">
        <ele>916.20001220703</ele>
        <time>2023-07-12T07:32:24.000Z</time>
      </trkpt>
      <trkpt lat="42.4748" lon="3.03379">
        <ele>915.40002441406</ele>
        <time>2023-07-12T07:32:27.000Z</time>
      </trkpt>
      <trkpt lat="42.4748" lon="3.03375">
        <ele>915</ele>
        <time>2023-07-12T07:32:30.000Z</time>
      </trkpt>
      <trkpt lat="42.4748" lon="3.0337">
        <ele>914.59997558594</ele>
        <time>2023-07-12T07:32:33.000Z</time>
      </trkpt>
      <trkpt lat="42.47478" lon="3.03368">
        <ele>913.79998779297</ele>
        <time>2023-07-12T07:32:36.000Z</time>
      </trkpt>
      <trkpt lat="42.47477" lon="3.03365">
        <ele>913</ele>
        <time>2023-07-12T07:32:40.000Z</time>
      </trkpt>
      <trkpt lat="42.47476" lon="3.03364">
        <ele>912.79998779297</ele>
        <time>2023-07-12T07:32:41.000Z</time>
      </trkpt>
      <trkpt lat="42.47472" lon="3.03353">
        <ele>911.40002441406</ele>
        <time>2023-07-12T07:32:47.000Z</time>
      </trkpt>
      <trkpt lat="42.4747" lon="3.03347">
        <ele>910.40002441406</ele>
        <time>2023-07-12T07:32:52.000Z</time>
      </trkpt>
      <trkpt lat="42.4747" lon="3.03345">
        <ele>910.20001220703</ele>
        <time>2023-07-12T07:32:54.000Z</time>
      </trkpt>
      <trkpt lat="42.4747" lon="3.0334">
        <ele>909.40002441406</ele>
        <time>2023-07-12T07:32:58.000Z</time>
      </trkpt>
      <trkpt lat="42.47469" lon="3.03337">
        <ele>909</ele>
        <time>2023-07-12T07:33:00.000Z</time>
      </trkpt>
      <trkpt lat="42.47469" lon="3.03333">
        <ele>908.40002441406</ele>
        <time>2023-07-12T07:33:04.000Z</time>
      </trkpt>
      <trkpt lat="42.47469" lon="3.03327">
        <ele>907.40002441406</ele>
        <time>2023-07-12T07:33:09.000Z</time>
      </trkpt>
      <trkpt lat="42.47469" lon="3.03326">
        <ele>907.20001220703</ele>
        <time>2023-07-12T07:33:10.000Z</time>
      </trkpt>
      <trkpt lat="42.47469" lon="3.03319">
        <ele>906.20001220703</ele>
        <time>2023-07-12T07:33:16.000Z</time>
      </trkpt>
      <trkpt lat="42.4747" lon="3.0331">
        <ele>905.20001220703</ele>
        <time>2023-07-12T07:33:22.000Z</time>
      </trkpt>
      <trkpt lat="42.4747" lon="3.03309">
        <ele>905</ele>
        <time>2023-07-12T07:33:23.000Z</time>
      </trkpt>
      <trkpt lat="42.47469" lon="3.03299">
        <ele>904</ele>
        <time>2023-07-12T07:33:29.000Z</time>
      </trkpt>
      <trkpt lat="42.4747" lon="3.03293">
        <ele>903</ele>
        <time>2023-07-12T07:33:34.000Z</time>
      </trkpt>
      <trkpt lat="42.47472" lon="3.03289">
        <ele>902.20001220703</ele>
        <time>2023-07-12T07:33:38.000Z</time>
      </trkpt>
      <trkpt lat="42.47472" lon="3.03287">
        <ele>901.79998779297</ele>
        <time>2023-07-12T07:33:40.000Z</time>
      </trkpt>
      <trkpt lat="42.47474" lon="3.03282">
        <ele>900.79998779297</ele>
        <time>2023-07-12T07:33:45.000Z</time>
      </trkpt>
      <trkpt lat="42.47474" lon="3.0328">
        <ele>900.59997558594</ele>
        <time>2023-07-12T07:33:46.000Z</time>
      </trkpt>
      <trkpt lat="42.47475" lon="3.03274">
        <ele>899.59997558594</ele>
        <time>2023-07-12T07:33:52.000Z</time>
      </trkpt>
      <trkpt lat="42.47476" lon="3.03272">
        <ele>899.40002441406</ele>
        <time>2023-07-12T07:33:53.000Z</time>
      </trkpt>
      <trkpt lat="42.47478" lon="3.03267">
        <ele>898.59997558594</ele>
        <time>2023-07-12T07:33:57.000Z</time>
      </trkpt>
      <trkpt lat="42.47478" lon="3.03264">
        <ele>898</ele>
        <time>2023-07-12T07:33:59.000Z</time>
      </trkpt>
      <trkpt lat="42.47477" lon="3.0326">
        <ele>897.40002441406</ele>
        <time>2023-07-12T07:34:03.000Z</time>
      </trkpt>
      <trkpt lat="42.47478" lon="3.03253">
        <ele>896.40002441406</ele>
        <time>2023-07-12T07:34:07.000Z</time>
      </trkpt>
      <trkpt lat="42.47478" lon="3.03253">
        <ele>896.20001220703</ele>
        <time>2023-07-12T07:34:08.000Z</time>
      </trkpt>
      <trkpt lat="42.47479" lon="3.03246">
        <ele>895.20001220703</ele>
        <time>2023-07-12T07:34:13.000Z</time>
      </trkpt>
      <trkpt lat="42.47479" lon="3.03244">
        <ele>895</ele>
        <time>2023-07-12T07:34:14.000Z</time>
      </trkpt>
      <trkpt lat="42.47481" lon="3.03235">
        <ele>894</ele>
        <time>2023-07-12T07:34:19.000Z</time>
      </trkpt>
      <trkpt lat="42.47482" lon="3.0323">
        <ele>893.40002441406</ele>
        <time>2023-07-12T07:34:23.000Z</time>
      </trkpt>
      <trkpt lat="42.47483" lon="3.03227">
        <ele>893</ele>
        <time>2023-07-12T07:34:25.000Z</time>
      </trkpt>
      <trkpt lat="42.47483" lon="3.03219">
        <ele>892.20001220703</ele>
        <time>2023-07-12T07:34:30.000Z</time>
      </trkpt>
      <trkpt lat="42.47484" lon="3.03214">
        <ele>892</ele>
        <time>2023-07-12T07:34:33.000Z</time>
      </trkpt>
      <trkpt lat="42.47484" lon="3.03206">
        <ele>891.20001220703</ele>
        <time>2023-07-12T07:34:38.000Z</time>
      </trkpt>
      <trkpt lat="42.47484" lon="3.03204">
        <ele>890.79998779297</ele>
        <time>2023-07-12T07:34:39.000Z</time>
      </trkpt>
      <trkpt lat="42.47482" lon="3.03195">
        <ele>889.79998779297</ele>
        <time>2023-07-12T07:34:46.000Z</time>
      </trkpt>
      <trkpt lat="42.47482" lon="3.03193">
        <ele>889.79998779297</ele>
        <time>2023-07-12T07:34:47.000Z</time>
      </trkpt>
      <trkpt lat="42.47483" lon="3.0318">
        <ele>889</ele>
        <time>2023-07-12T07:34:55.000Z</time>
      </trkpt>
      <trkpt lat="42.4749" lon="3.03174">
        <ele>889</ele>
        <time>2023-07-12T07:35:01.000Z</time>
      </trkpt>
      <trkpt lat="42.47491" lon="3.03172">
        <ele>888.79998779297</ele>
        <time>2023-07-12T07:35:04.000Z</time>
      </trkpt>
      <trkpt lat="42.47495" lon="3.03167">
        <ele>888.20001220703</ele>
        <time>2023-07-12T07:35:08.000Z</time>
      </trkpt>
      <trkpt lat="42.47498" lon="3.03164">
        <ele>887.79998779297</ele>
        <time>2023-07-12T07:35:11.000Z</time>
      </trkpt>
      <trkpt lat="42.475" lon="3.03162">
        <ele>887.20001220703</ele>
        <time>2023-07-12T07:35:15.000Z</time>
      </trkpt>
      <trkpt lat="42.47501" lon="3.0316">
        <ele>886.59997558594</ele>
        <time>2023-07-12T07:35:17.000Z</time>
      </trkpt>
      <trkpt lat="42.47502" lon="3.03153">
        <ele>886</ele>
        <time>2023-07-12T07:35:21.000Z</time>
      </trkpt>
      <trkpt lat="42.47501" lon="3.03147">
        <ele>885.59997558594</ele>
        <time>2023-07-12T07:35:26.000Z</time>
      </trkpt>
      <trkpt lat="42.47501" lon="3.03146">
        <ele>885.40002441406</ele>
        <time>2023-07-12T07:35:27.000Z</time>
      </trkpt>
      <trkpt lat="42.47499" lon="3.03135">
        <ele>884.59997558594</ele>
        <time>2023-07-12T07:35:33.000Z</time>
      </trkpt>
      <trkpt lat="42.47497" lon="3.03126">
        <ele>883.59997558594</ele>
        <time>2023-07-12T07:35:39.000Z</time>
      </trkpt>
      <trkpt lat="42.47496" lon="3.03121">
        <ele>883.59997558594</ele>
        <time>2023-07-12T07:35:42.000Z</time>
      </trkpt>
      <trkpt lat="42.47492" lon="3.03114">
        <ele>883.20001220703</ele>
        <time>2023-07-12T07:35:47.000Z</time>
      </trkpt>
      <trkpt lat="42.4749" lon="3.03106">
        <ele>884</ele>
        <time>2023-07-12T07:35:53.000Z</time>
      </trkpt>
      <trkpt lat="42.47491" lon="3.03105">
        <ele>884</ele>
        <time>2023-07-12T07:35:58.000Z</time>
      </trkpt>
      <trkpt lat="42.47492" lon="3.03106">
        <ele>884</ele>
        <time>2023-07-12T07:36:07.000Z</time>
      </trkpt>
      <trkpt lat="42.47489" lon="3.031">
        <ele>883.79998779297</ele>
        <time>2023-07-12T07:36:19.000Z</time>
      </trkpt>
      <trkpt lat="42.47487" lon="3.03094">
        <ele>884</ele>
        <time>2023-07-12T07:36:26.000Z</time>
      </trkpt>
      <trkpt lat="42.47486" lon="3.03093">
        <ele>884.79998779297</ele>
        <time>2023-07-12T07:36:29.000Z</time>
      </trkpt>
      <trkpt lat="42.47485" lon="3.03089">
        <ele>885.79998779297</ele>
        <time>2023-07-12T07:36:34.000Z</time>
      </trkpt>
      <trkpt lat="42.47481" lon="3.03082">
        <ele>886.79998779297</ele>
        <time>2023-07-12T07:36:40.000Z</time>
      </trkpt>
      <trkpt lat="42.47481" lon="3.03081">
        <ele>887.59997558594</ele>
        <time>2023-07-12T07:36:43.000Z</time>
      </trkpt>
      <trkpt lat="42.47481" lon="3.03081">
        <ele>888</ele>
        <time>2023-07-12T07:36:45.000Z</time>
      </trkpt>
      <trkpt lat="42.47481" lon="3.0308">
        <ele>888</ele>
        <time>2023-07-12T07:36:51.000Z</time>
      </trkpt>
      <trkpt lat="42.47479" lon="3.0308">
        <ele>887.79998779297</ele>
        <time>2023-07-12T07:37:00.000Z</time>
      </trkpt>
      <trkpt lat="42.47482" lon="3.03081">
        <ele>888</ele>
        <time>2023-07-12T07:37:07.000Z</time>
      </trkpt>
      <trkpt lat="42.4748" lon="3.03073">
        <ele>888.59997558594</ele>
        <time>2023-07-12T07:37:14.000Z</time>
      </trkpt>
      <trkpt lat="42.47479" lon="3.03071">
        <ele>889</ele>
        <time>2023-07-12T07:37:16.000Z</time>
      </trkpt>
      <trkpt lat="42.47478" lon="3.03066">
        <ele>890.20001220703</ele>
        <time>2023-07-12T07:37:21.000Z</time>
      </trkpt>
      <trkpt lat="42.47477" lon="3.03062">
        <ele>890.59997558594</ele>
        <time>2023-07-12T07:37:24.000Z</time>
      </trkpt>
      <trkpt lat="42.47475" lon="3.03058">
        <ele>891.20001220703</ele>
        <time>2023-07-12T07:37:29.000Z</time>
      </trkpt>
      <trkpt lat="42.47474" lon="3.03055">
        <ele>891.79998779297</ele>
        <time>2023-07-12T07:37:33.000Z</time>
      </trkpt>
      <trkpt lat="42.47473" lon="3.03052">
        <ele>892.20001220703</ele>
        <time>2023-07-12T07:37:35.000Z</time>
      </trkpt>
      <trkpt lat="42.47471" lon="3.03049">
        <ele>893.20001220703</ele>
        <time>2023-07-12T07:37:39.000Z</time>
      </trkpt>
      <trkpt lat="42.47471" lon="3.03048">
        <ele>893.40002441406</ele>
        <time>2023-07-12T07:37:40.000Z</time>
      </trkpt>
      <trkpt lat="42.4747" lon="3.03043">
        <ele>894.40002441406</ele>
        <time>2023-07-12T07:37:46.000Z</time>
      </trkpt>
      <trkpt lat="42.4747" lon="3.0304">
        <ele>895.20001220703</ele>
        <time>2023-07-12T07:37:49.000Z</time>
      </trkpt>
      <trkpt lat="42.4747" lon="3.03038">
        <ele>895.40002441406</ele>
        <time>2023-07-12T07:37:51.000Z</time>
      </trkpt>
      <trkpt lat="42.4747" lon="3.03033">
        <ele>896.20001220703</ele>
        <time>2023-07-12T07:37:57.000Z</time>
      </trkpt>
      <trkpt lat="42.4747" lon="3.03029">
        <ele>896.59997558594</ele>
        <time>2023-07-12T07:38:00.000Z</time>
      </trkpt>
      <trkpt lat="42.4747" lon="3.03025">
        <ele>897.40002441406</ele>
        <time>2023-07-12T07:38:05.000Z</time>
      </trkpt>
      <trkpt lat="42.47471" lon="3.03024">
        <ele>897.59997558594</ele>
        <time>2023-07-12T07:38:07.000Z</time>
      </trkpt>
      <trkpt lat="42.47471" lon="3.03016">
        <ele>898.59997558594</ele>
        <time>2023-07-12T07:38:13.000Z</time>
      </trkpt>
      <trkpt lat="42.47471" lon="3.03016">
        <ele>898.79998779297</ele>
        <time>2023-07-12T07:38:14.000Z</time>
      </trkpt>
      <trkpt lat="42.47469" lon="3.03011">
        <ele>899.79998779297</ele>
        <time>2023-07-12T07:38:21.000Z</time>
      </trkpt>
      <trkpt lat="42.47469" lon="3.0301">
        <ele>900</ele>
        <time>2023-07-12T07:38:22.000Z</time>
      </trkpt>
      <trkpt lat="42.47467" lon="3.03007">
        <ele>900.79998779297</ele>
        <time>2023-07-12T07:38:27.000Z</time>
      </trkpt>
      <trkpt lat="42.47467" lon="3.03005">
        <ele>901</ele>
        <time>2023-07-12T07:38:29.000Z</time>
      </trkpt>
      <trkpt lat="42.47464" lon="3.02999">
        <ele>901.79998779297</ele>
        <time>2023-07-12T07:38:34.000Z</time>
      </trkpt>
      <trkpt lat="42.47463" lon="3.02997">
        <ele>902</ele>
        <time>2023-07-12T07:38:36.000Z</time>
      </trkpt>
      <trkpt lat="42.47462" lon="3.02992">
        <ele>903</ele>
        <time>2023-07-12T07:38:42.000Z</time>
      </trkpt>
      <trkpt lat="42.47462" lon="3.0299">
        <ele>903.40002441406</ele>
        <time>2023-07-12T07:38:44.000Z</time>
      </trkpt>
      <trkpt lat="42.47463" lon="3.02985">
        <ele>904</ele>
        <time>2023-07-12T07:38:48.000Z</time>
      </trkpt>
      <trkpt lat="42.47463" lon="3.02983">
        <ele>904.40002441406</ele>
        <time>2023-07-12T07:38:50.000Z</time>
      </trkpt>
      <trkpt lat="42.47463" lon="3.02977">
        <ele>905.20001220703</ele>
        <time>2023-07-12T07:38:56.000Z</time>
      </trkpt>
      <trkpt lat="42.47463" lon="3.02976">
        <ele>905.20001220703</ele>
        <time>2023-07-12T07:38:58.000Z</time>
      </trkpt>
      <trkpt lat="42.47461" lon="3.02967">
        <ele>905.79998779297</ele>
        <time>2023-07-12T07:39:05.000Z</time>
      </trkpt>
      <trkpt lat="42.47457" lon="3.02961">
        <ele>906.20001220703</ele>
        <time>2023-07-12T07:39:10.000Z</time>
      </trkpt>
      <trkpt lat="42.47455" lon="3.02959">
        <ele>906.40002441406</ele>
        <time>2023-07-12T07:39:12.000Z</time>
      </trkpt>
      <trkpt lat="42.47448" lon="3.02954">
        <ele>907.20001220703</ele>
        <time>2023-07-12T07:39:20.000Z</time>
      </trkpt>
      <trkpt lat="42.47446" lon="3.02951">
        <ele>908.40002441406</ele>
        <time>2023-07-12T07:39:25.000Z</time>
      </trkpt>
      <trkpt lat="42.47443" lon="3.02949">
        <ele>908.79998779297</ele>
        <time>2023-07-12T07:39:30.000Z</time>
      </trkpt>
      <trkpt lat="42.47436" lon="3.02944">
        <ele>908.79998779297</ele>
        <time>2023-07-12T07:39:36.000Z</time>
      </trkpt>
      <trkpt lat="42.47429" lon="3.02937">
        <ele>908.59997558594</ele>
        <time>2023-07-12T07:39:44.000Z</time>
      </trkpt>
      <trkpt lat="42.4742" lon="3.02927">
        <ele>908.79998779297</ele>
        <time>2023-07-12T07:39:52.000Z</time>
      </trkpt>
      <trkpt lat="42.47412" lon="3.02917">
        <ele>908.79998779297</ele>
        <time>2023-07-12T07:40:02.000Z</time>
      </trkpt>
      <trkpt lat="42.47406" lon="3.02911">
        <ele>909.20001220703</ele>
        <time>2023-07-12T07:40:09.000Z</time>
      </trkpt>
      <trkpt lat="42.47399" lon="3.02906">
        <ele>909</ele>
        <time>2023-07-12T07:40:15.000Z</time>
      </trkpt>
      <trkpt lat="42.47393" lon="3.02901">
        <ele>909</ele>
        <time>2023-07-12T07:40:22.000Z</time>
      </trkpt>
      <trkpt lat="42.47384" lon="3.02895">
        <ele>909</ele>
        <time>2023-07-12T07:40:30.000Z</time>
      </trkpt>
      <trkpt lat="42.47375" lon="3.02886">
        <ele>909.59997558594</ele>
        <time>2023-07-12T07:40:39.000Z</time>
      </trkpt>
      <trkpt lat="42.47368" lon="3.02878">
        <ele>910.59997558594</ele>
        <time>2023-07-12T07:40:47.000Z</time>
      </trkpt>
      <trkpt lat="42.47364" lon="3.02872">
        <ele>911.59997558594</ele>
        <time>2023-07-12T07:40:53.000Z</time>
      </trkpt>
      <trkpt lat="42.47362" lon="3.0287">
        <ele>911.79998779297</ele>
        <time>2023-07-12T07:40:55.000Z</time>
      </trkpt>
      <trkpt lat="42.47358" lon="3.02861">
        <ele>912.59997558594</ele>
        <time>2023-07-12T07:41:02.000Z</time>
      </trkpt>
      <trkpt lat="42.47357" lon="3.02859">
        <ele>912.59997558594</ele>
        <time>2023-07-12T07:41:03.000Z</time>
      </trkpt>
      <trkpt lat="42.47354" lon="3.02851">
        <ele>913.59997558594</ele>
        <time>2023-07-12T07:41:09.000Z</time>
      </trkpt>
      <trkpt lat="42.47353" lon="3.0285">
        <ele>913.79998779297</ele>
        <time>2023-07-12T07:41:10.000Z</time>
      </trkpt>
      <trkpt lat="42.47349" lon="3.02843">
        <ele>914.59997558594</ele>
        <time>2023-07-12T07:41:17.000Z</time>
      </trkpt>
      <trkpt lat="42.47348" lon="3.02841">
        <ele>914.79998779297</ele>
        <time>2023-07-12T07:41:19.000Z</time>
      </trkpt>
      <trkpt lat="42.47344" lon="3.02832">
        <ele>915.40002441406</ele>
        <time>2023-07-12T07:41:26.000Z</time>
      </trkpt>
      <trkpt lat="42.47341" lon="3.02827">
        <ele>915.79998779297</ele>
        <time>2023-07-12T07:41:31.000Z</time>
      </trkpt>
      <trkpt lat="42.4734" lon="3.02824">
        <ele>916.40002441406</ele>
        <time>2023-07-12T07:41:34.000Z</time>
      </trkpt>
      <trkpt lat="42.47337" lon="3.02818">
        <ele>917</ele>
        <time>2023-07-12T07:41:39.000Z</time>
      </trkpt>
      <trkpt lat="42.47336" lon="3.02814">
        <ele>917.40002441406</ele>
        <time>2023-07-12T07:41:42.000Z</time>
      </trkpt>
      <trkpt lat="42.47332" lon="3.02804">
        <ele>918</ele>
        <time>2023-07-12T07:41:49.000Z</time>
      </trkpt>
      <trkpt lat="42.4733" lon="3.028">
        <ele>918.20001220703</ele>
        <time>2023-07-12T07:41:52.000Z</time>
      </trkpt>
      <trkpt lat="42.47326" lon="3.02788">
        <ele>918</ele>
        <time>2023-07-12T07:42:00.000Z</time>
      </trkpt>
      <trkpt lat="42.47328" lon="3.02778">
        <ele>918.40002441406</ele>
        <time>2023-07-12T07:42:08.000Z</time>
      </trkpt>
      <trkpt lat="42.4733" lon="3.02763">
        <ele>918.79998779297</ele>
        <time>2023-07-12T07:42:18.000Z</time>
      </trkpt>
      <trkpt lat="42.4733" lon="3.0276">
        <ele>919</ele>
        <time>2023-07-12T07:42:21.000Z</time>
      </trkpt>
      <trkpt lat="42.47332" lon="3.0275">
        <ele>920</ele>
        <time>2023-07-12T07:42:29.000Z</time>
      </trkpt>
      <trkpt lat="42.47332" lon="3.02749">
        <ele>920.20001220703</ele>
        <time>2023-07-12T07:42:30.000Z</time>
      </trkpt>
      <trkpt lat="42.47332" lon="3.02745">
        <ele>920.79998779297</ele>
        <time>2023-07-12T07:42:36.000Z</time>
      </trkpt>
      <trkpt lat="42.47331" lon="3.02742">
        <ele>921.20001220703</ele>
        <time>2023-07-12T07:42:38.000Z</time>
      </trkpt>
      <trkpt lat="42.47332" lon="3.02735">
        <ele>921.79998779297</ele>
        <time>2023-07-12T07:42:43.000Z</time>
      </trkpt>
      <trkpt lat="42.47332" lon="3.02729">
        <ele>922.20001220703</ele>
        <time>2023-07-12T07:42:48.000Z</time>
      </trkpt>
      <trkpt lat="42.47332" lon="3.02726">
        <ele>922.20001220703</ele>
        <time>2023-07-12T07:42:50.000Z</time>
      </trkpt>
      <trkpt lat="42.47332" lon="3.02715">
        <ele>922.79998779297</ele>
        <time>2023-07-12T07:42:57.000Z</time>
      </trkpt>
      <trkpt lat="42.47332" lon="3.02712">
        <ele>923.20001220703</ele>
        <time>2023-07-12T07:43:00.000Z</time>
      </trkpt>
      <trkpt lat="42.47333" lon="3.02709">
        <ele>923.20001220703</ele>
        <time>2023-07-12T07:43:02.000Z</time>
      </trkpt>
      <trkpt lat="42.47333" lon="3.02703">
        <ele>923.79998779297</ele>
        <time>2023-07-12T07:43:09.000Z</time>
      </trkpt>
      <trkpt lat="42.47332" lon="3.02698">
        <ele>924.20001220703</ele>
        <time>2023-07-12T07:43:12.000Z</time>
      </trkpt>
      <trkpt lat="42.47332" lon="3.02694">
        <ele>924.59997558594</ele>
        <time>2023-07-12T07:43:16.000Z</time>
      </trkpt>
      <trkpt lat="42.47332" lon="3.02688">
        <ele>925</ele>
        <time>2023-07-12T07:43:22.000Z</time>
      </trkpt>
      <trkpt lat="42.47333" lon="3.02684">
        <ele>925.40002441406</ele>
        <time>2023-07-12T07:43:24.000Z</time>
      </trkpt>
      <trkpt lat="42.47334" lon="3.02675">
        <ele>925.40002441406</ele>
        <time>2023-07-12T07:43:30.000Z</time>
      </trkpt>
      <trkpt lat="42.47334" lon="3.02667">
        <ele>926</ele>
        <time>2023-07-12T07:43:36.000Z</time>
      </trkpt>
      <trkpt lat="42.47334" lon="3.02664">
        <ele>926.40002441406</ele>
        <time>2023-07-12T07:43:38.000Z</time>
      </trkpt>
      <trkpt lat="42.47334" lon="3.02655">
        <ele>927</ele>
        <time>2023-07-12T07:43:43.000Z</time>
      </trkpt>
      <trkpt lat="42.47334" lon="3.02646">
        <ele>927.40002441406</ele>
        <time>2023-07-12T07:43:49.000Z</time>
      </trkpt>
      <trkpt lat="42.47334" lon="3.02645">
        <ele>927.40002441406</ele>
        <time>2023-07-12T07:43:50.000Z</time>
      </trkpt>
      <trkpt lat="42.47336" lon="3.02639">
        <ele>927.79998779297</ele>
        <time>2023-07-12T07:43:56.000Z</time>
      </trkpt>
      <trkpt lat="42.47337" lon="3.02628">
        <ele>928.20001220703</ele>
        <time>2023-07-12T07:44:04.000Z</time>
      </trkpt>
      <trkpt lat="42.47337" lon="3.02627">
        <ele>928.59997558594</ele>
        <time>2023-07-12T07:44:06.000Z</time>
      </trkpt>
      <trkpt lat="42.47338" lon="3.02623">
        <ele>929.40002441406</ele>
        <time>2023-07-12T07:44:10.000Z</time>
      </trkpt>
      <trkpt lat="42.47339" lon="3.02621">
        <ele>929.59997558594</ele>
        <time>2023-07-12T07:44:12.000Z</time>
      </trkpt>
      <trkpt lat="42.47342" lon="3.02612">
        <ele>930.40002441406</ele>
        <time>2023-07-12T07:44:19.000Z</time>
      </trkpt>
      <trkpt lat="42.47343" lon="3.02608">
        <ele>930.79998779297</ele>
        <time>2023-07-12T07:44:22.000Z</time>
      </trkpt>
      <trkpt lat="42.47344" lon="3.02604">
        <ele>931.40002441406</ele>
        <time>2023-07-12T07:44:27.000Z</time>
      </trkpt>
      <trkpt lat="42.47344" lon="3.02601">
        <ele>931.79998779297</ele>
        <time>2023-07-12T07:44:29.000Z</time>
      </trkpt>
      <trkpt lat="42.47349" lon="3.0259">
        <ele>932.79998779297</ele>
        <time>2023-07-12T07:44:36.000Z</time>
      </trkpt>
      <trkpt lat="42.47353" lon="3.02584">
        <ele>933.40002441406</ele>
        <time>2023-07-12T07:44:44.000Z</time>
      </trkpt>
      <trkpt lat="42.47355" lon="3.0258">
        <ele>933.79998779297</ele>
        <time>2023-07-12T07:44:48.000Z</time>
      </trkpt>
      <trkpt lat="42.47358" lon="3.02575">
        <ele>934.40002441406</ele>
        <time>2023-07-12T07:44:53.000Z</time>
      </trkpt>
      <trkpt lat="42.47362" lon="3.02571">
        <ele>935</ele>
        <time>2023-07-12T07:44:57.000Z</time>
      </trkpt>
      <trkpt lat="42.47365" lon="3.02568">
        <ele>935</ele>
        <time>2023-07-12T07:45:00.000Z</time>
      </trkpt>
      <trkpt lat="42.4737" lon="3.02559">
        <ele>935.20001220703</ele>
        <time>2023-07-12T07:45:08.000Z</time>
      </trkpt>
      <trkpt lat="42.47373" lon="3.02549">
        <ele>935.79998779297</ele>
        <time>2023-07-12T07:45:16.000Z</time>
      </trkpt>
      <trkpt lat="42.47374" lon="3.02545">
        <ele>936</ele>
        <time>2023-07-12T07:45:19.000Z</time>
      </trkpt>
      <trkpt lat="42.47375" lon="3.02539">
        <ele>936.40002441406</ele>
        <time>2023-07-12T07:45:24.000Z</time>
      </trkpt>
      <trkpt lat="42.47379" lon="3.02529">
        <ele>937</ele>
        <time>2023-07-12T07:45:31.000Z</time>
      </trkpt>
      <trkpt lat="42.47379" lon="3.02528">
        <ele>937</ele>
        <time>2023-07-12T07:45:32.000Z</time>
      </trkpt>
      <trkpt lat="42.4738" lon="3.02518">
        <ele>937.59997558594</ele>
        <time>2023-07-12T07:45:39.000Z</time>
      </trkpt>
      <trkpt lat="42.4738" lon="3.02513">
        <ele>938</ele>
        <time>2023-07-12T07:45:43.000Z</time>
      </trkpt>
      <trkpt lat="42.4738" lon="3.02511">
        <ele>938.20001220703</ele>
        <time>2023-07-12T07:45:44.000Z</time>
      </trkpt>
      <trkpt lat="42.47378" lon="3.02497">
        <ele>939.20001220703</ele>
        <time>2023-07-12T07:45:52.000Z</time>
      </trkpt>
      <trkpt lat="42.47378" lon="3.02487">
        <ele>939.79998779297</ele>
        <time>2023-07-12T07:46:00.000Z</time>
      </trkpt>
      <trkpt lat="42.47378" lon="3.02477">
        <ele>939.79998779297</ele>
        <time>2023-07-12T07:46:08.000Z</time>
      </trkpt>
      <trkpt lat="42.47378" lon="3.02472">
        <ele>939.59997558594</ele>
        <time>2023-07-12T07:46:14.000Z</time>
      </trkpt>
      <trkpt lat="42.47375" lon="3.02464">
        <ele>938.79998779297</ele>
        <time>2023-07-12T07:46:21.000Z</time>
      </trkpt>
      <trkpt lat="42.47373" lon="3.02453">
        <ele>938</ele>
        <time>2023-07-12T07:46:28.000Z</time>
      </trkpt>
      <trkpt lat="42.47372" lon="3.02451">
        <ele>938</ele>
        <time>2023-07-12T07:46:29.000Z</time>
      </trkpt>
      <trkpt lat="42.47371" lon="3.02441">
        <ele>937.20001220703</ele>
        <time>2023-07-12T07:46:36.000Z</time>
      </trkpt>
      <trkpt lat="42.4737" lon="3.02434">
        <ele>937</ele>
        <time>2023-07-12T07:46:41.000Z</time>
      </trkpt>
      <trkpt lat="42.47369" lon="3.0243">
        <ele>936.79998779297</ele>
        <time>2023-07-12T07:46:44.000Z</time>
      </trkpt>
      <trkpt lat="42.47367" lon="3.0242">
        <ele>936</ele>
        <time>2023-07-12T07:46:51.000Z</time>
      </trkpt>
      <trkpt lat="42.47365" lon="3.02414">
        <ele>935.79998779297</ele>
        <time>2023-07-12T07:46:54.000Z</time>
      </trkpt>
      <trkpt lat="42.47363" lon="3.02409">
        <ele>935</ele>
        <time>2023-07-12T07:47:00.000Z</time>
      </trkpt>
      <trkpt lat="42.47364" lon="3.02408">
        <ele>934.40002441406</ele>
        <time>2023-07-12T07:47:03.000Z</time>
      </trkpt>
      <trkpt lat="42.47366" lon="3.02407">
        <ele>933.79998779297</ele>
        <time>2023-07-12T07:47:07.000Z</time>
      </trkpt>
      <trkpt lat="42.47367" lon="3.02405">
        <ele>933.59997558594</ele>
        <time>2023-07-12T07:47:10.000Z</time>
      </trkpt>
      <trkpt lat="42.47371" lon="3.02395">
        <ele>933.59997558594</ele>
        <time>2023-07-12T07:47:17.000Z</time>
      </trkpt>
      <trkpt lat="42.47373" lon="3.02385">
        <ele>933.59997558594</ele>
        <time>2023-07-12T07:47:25.000Z</time>
      </trkpt>
      <trkpt lat="42.47374" lon="3.02373">
        <ele>933.59997558594</ele>
        <time>2023-07-12T07:47:33.000Z</time>
      </trkpt>
      <trkpt lat="42.47375" lon="3.02368">
        <ele>933.40002441406</ele>
        <time>2023-07-12T07:47:39.000Z</time>
      </trkpt>
      <trkpt lat="42.47378" lon="3.02359">
        <ele>933</ele>
        <time>2023-07-12T07:47:47.000Z</time>
      </trkpt>
      <trkpt lat="42.47379" lon="3.02354">
        <ele>932.79998779297</ele>
        <time>2023-07-12T07:47:50.000Z</time>
      </trkpt>
      <trkpt lat="42.4738" lon="3.02347">
        <ele>932.59997558594</ele>
        <time>2023-07-12T07:47:56.000Z</time>
      </trkpt>
      <trkpt lat="42.47384" lon="3.0233">
        <ele>933</ele>
        <time>2023-07-12T07:48:06.000Z</time>
      </trkpt>
      <trkpt lat="42.47386" lon="3.02323">
        <ele>933.40002441406</ele>
        <time>2023-07-12T07:48:12.000Z</time>
      </trkpt>
      <trkpt lat="42.47388" lon="3.02318">
        <ele>933.79998779297</ele>
        <time>2023-07-12T07:48:16.000Z</time>
      </trkpt>
      <trkpt lat="42.47388" lon="3.02314">
        <ele>933.79998779297</ele>
        <time>2023-07-12T07:48:19.000Z</time>
      </trkpt>
      <trkpt lat="42.47387" lon="3.02309">
        <ele>933.59997558594</ele>
        <time>2023-07-12T07:48:24.000Z</time>
      </trkpt>
      <trkpt lat="42.47387" lon="3.02308">
        <ele>933.59997558594</ele>
        <time>2023-07-12T07:48:25.000Z</time>
      </trkpt>
      <trkpt lat="42.47385" lon="3.02307">
        <ele>933.59997558594</ele>
        <time>2023-07-12T07:48:33.000Z</time>
      </trkpt>
      <trkpt lat="42.47384" lon="3.02308">
        <ele>933.59997558594</ele>
        <time>2023-07-12T07:48:42.000Z</time>
      </trkpt>
      <trkpt lat="42.47388" lon="3.02304">
        <ele>933.59997558594</ele>
        <time>2023-07-12T07:48:51.000Z</time>
      </trkpt>
      <trkpt lat="42.47391" lon="3.02294">
        <ele>934.20001220703</ele>
        <time>2023-07-12T07:48:58.000Z</time>
      </trkpt>
      <trkpt lat="42.47394" lon="3.02285">
        <ele>934.40002441406</ele>
        <time>2023-07-12T07:49:05.000Z</time>
      </trkpt>
      <trkpt lat="42.47396" lon="3.02273">
        <ele>934.59997558594</ele>
        <time>2023-07-12T07:49:12.000Z</time>
      </trkpt>
      <trkpt lat="42.47397" lon="3.02265">
        <ele>933.79998779297</ele>
        <time>2023-07-12T07:49:19.000Z</time>
      </trkpt>
      <trkpt lat="42.47397" lon="3.02263">
        <ele>933.40002441406</ele>
        <time>2023-07-12T07:49:25.000Z</time>
      </trkpt>
      <trkpt lat="42.47398" lon="3.0225">
        <ele>933.59997558594</ele>
        <time>2023-07-12T07:49:32.000Z</time>
      </trkpt>
      <trkpt lat="42.47398" lon="3.02239">
        <ele>933.79998779297</ele>
        <time>2023-07-12T07:49:40.000Z</time>
      </trkpt>
      <trkpt lat="42.47395" lon="3.02232">
        <ele>934.40002441406</ele>
        <time>2023-07-12T07:49:46.000Z</time>
      </trkpt>
      <trkpt lat="42.47394" lon="3.02227">
        <ele>934.79998779297</ele>
        <time>2023-07-12T07:49:49.000Z</time>
      </trkpt>
      <trkpt lat="42.47394" lon="3.02224">
        <ele>935.20001220703</ele>
        <time>2023-07-12T07:49:52.000Z</time>
      </trkpt>
      <trkpt lat="42.47395" lon="3.02221">
        <ele>935.79998779297</ele>
        <time>2023-07-12T07:49:56.000Z</time>
      </trkpt>
      <trkpt lat="42.47396" lon="3.02214">
        <ele>936.40002441406</ele>
        <time>2023-07-12T07:50:00.000Z</time>
      </trkpt>
      <trkpt lat="42.47397" lon="3.02208">
        <ele>937</ele>
        <time>2023-07-12T07:50:04.000Z</time>
      </trkpt>
      <trkpt lat="42.47397" lon="3.02204">
        <ele>937.20001220703</ele>
        <time>2023-07-12T07:50:06.000Z</time>
      </trkpt>
      <trkpt lat="42.47398" lon="3.02194">
        <ele>937</ele>
        <time>2023-07-12T07:50:12.000Z</time>
      </trkpt>
      <trkpt lat="42.47399" lon="3.02186">
        <ele>937.20001220703</ele>
        <time>2023-07-12T07:50:18.000Z</time>
      </trkpt>
      <trkpt lat="42.47399" lon="3.02176">
        <ele>937.40002441406</ele>
        <time>2023-07-12T07:50:25.000Z</time>
      </trkpt>
      <trkpt lat="42.47396" lon="3.02164">
        <ele>937.59997558594</ele>
        <time>2023-07-12T07:50:32.000Z</time>
      </trkpt>
      <trkpt lat="42.4739" lon="3.02152">
        <ele>937.79998779297</ele>
        <time>2023-07-12T07:50:41.000Z</time>
      </trkpt>
      <trkpt lat="42.4739" lon="3.02147">
        <ele>938</ele>
        <time>2023-07-12T07:50:44.000Z</time>
      </trkpt>
      <trkpt lat="42.47389" lon="3.0214">
        <ele>938</ele>
        <time>2023-07-12T07:50:48.000Z</time>
      </trkpt>
      <trkpt lat="42.47386" lon="3.02134">
        <ele>937.79998779297</ele>
        <time>2023-07-12T07:50:54.000Z</time>
      </trkpt>
      <trkpt lat="42.47381" lon="3.0213">
        <ele>937.79998779297</ele>
        <time>2023-07-12T07:51:00.000Z</time>
      </trkpt>
      <trkpt lat="42.4738" lon="3.02127">
        <ele>937.59997558594</ele>
        <time>2023-07-12T07:51:07.000Z</time>
      </trkpt>
      <trkpt lat="42.4738" lon="3.02128">
        <ele>937.59997558594</ele>
        <time>2023-07-12T07:51:08.000Z</time>
      </trkpt>
      <trkpt lat="42.47378" lon="3.02131">
        <ele>937.20001220703</ele>
        <time>2023-07-12T07:51:17.000Z</time>
      </trkpt>
      <trkpt lat="42.47377" lon="3.02132">
        <ele>937.20001220703</ele>
        <time>2023-07-12T07:51:25.000Z</time>
      </trkpt>
      <trkpt lat="42.4738" lon="3.02132">
        <ele>937.20001220703</ele>
        <time>2023-07-12T07:51:34.000Z</time>
      </trkpt>
      <trkpt lat="42.47376" lon="3.02131">
        <ele>937</ele>
        <time>2023-07-12T07:51:41.000Z</time>
      </trkpt>
      <trkpt lat="42.47369" lon="3.0213">
        <ele>937</ele>
        <time>2023-07-12T07:51:47.000Z</time>
      </trkpt>
      <trkpt lat="42.47367" lon="3.02129">
        <ele>936.59997558594</ele>
        <time>2023-07-12T07:51:49.000Z</time>
      </trkpt>
      <trkpt lat="42.47357" lon="3.02125">
        <ele>936</ele>
        <time>2023-07-12T07:52:00.000Z</time>
      </trkpt>
      <trkpt lat="42.47351" lon="3.02121">
        <ele>936</ele>
        <time>2023-07-12T07:52:07.000Z</time>
      </trkpt>
      <trkpt lat="42.4735" lon="3.0212">
        <ele>935.79998779297</ele>
        <time>2023-07-12T07:52:08.000Z</time>
      </trkpt>
      <trkpt lat="42.47343" lon="3.02117">
        <ele>935.40002441406</ele>
        <time>2023-07-12T07:52:14.000Z</time>
      </trkpt>
      <trkpt lat="42.47337" lon="3.02116">
        <ele>935.20001220703</ele>
        <time>2023-07-12T07:52:22.000Z</time>
      </trkpt>
      <trkpt lat="42.47332" lon="3.02117">
        <ele>934.79998779297</ele>
        <time>2023-07-12T07:52:27.000Z</time>
      </trkpt>
      <trkpt lat="42.47327" lon="3.02119">
        <ele>934.59997558594</ele>
        <time>2023-07-12T07:52:33.000Z</time>
      </trkpt>
      <trkpt lat="42.47318" lon="3.02123">
        <ele>934.79998779297</ele>
        <time>2023-07-12T07:52:41.000Z</time>
      </trkpt>
      <trkpt lat="42.47314" lon="3.02126">
        <ele>934.59997558594</ele>
        <time>2023-07-12T07:52:47.000Z</time>
      </trkpt>
      <trkpt lat="42.47309" lon="3.02124">
        <ele>934.20001220703</ele>
        <time>2023-07-12T07:52:54.000Z</time>
      </trkpt>
      <trkpt lat="42.47303" lon="3.02123">
        <ele>933.79998779297</ele>
        <time>2023-07-12T07:52:59.000Z</time>
      </trkpt>
      <trkpt lat="42.473" lon="3.02124">
        <ele>933.59997558594</ele>
        <time>2023-07-12T07:53:02.000Z</time>
      </trkpt>
      <trkpt lat="42.47295" lon="3.02126">
        <ele>933.20001220703</ele>
        <time>2023-07-12T07:53:08.000Z</time>
      </trkpt>
      <trkpt lat="42.47288" lon="3.02129">
        <ele>933.20001220703</ele>
        <time>2023-07-12T07:53:15.000Z</time>
      </trkpt>
      <trkpt lat="42.47283" lon="3.02136">
        <ele>933.79998779297</ele>
        <time>2023-07-12T07:53:22.000Z</time>
      </trkpt>
      <trkpt lat="42.47273" lon="3.0214">
        <ele>934.59997558594</ele>
        <time>2023-07-12T07:53:30.000Z</time>
      </trkpt>
      <trkpt lat="42.47271" lon="3.02141">
        <ele>935</ele>
        <time>2023-07-12T07:53:32.000Z</time>
      </trkpt>
      <trkpt lat="42.47268" lon="3.02143">
        <ele>935.20001220703</ele>
        <time>2023-07-12T07:53:36.000Z</time>
      </trkpt>
      <trkpt lat="42.47263" lon="3.02147">
        <ele>935.59997558594</ele>
        <time>2023-07-12T07:53:43.000Z</time>
      </trkpt>
      <trkpt lat="42.47259" lon="3.02145">
        <ele>934.79998779297</ele>
        <time>2023-07-12T07:53:51.000Z</time>
      </trkpt>
      <trkpt lat="42.47251" lon="3.02145">
        <ele>935.20001220703</ele>
        <time>2023-07-12T07:53:59.000Z</time>
      </trkpt>
      <trkpt lat="42.47248" lon="3.02148">
        <ele>936</ele>
        <time>2023-07-12T07:54:07.000Z</time>
      </trkpt>
      <trkpt lat="42.4724" lon="3.02146">
        <ele>936.59997558594</ele>
        <time>2023-07-12T07:54:14.000Z</time>
      </trkpt>
      <trkpt lat="42.47233" lon="3.0214">
        <ele>937</ele>
        <time>2023-07-12T07:54:19.000Z</time>
      </trkpt>
      <trkpt lat="42.47228" lon="3.02139">
        <ele>937.20001220703</ele>
        <time>2023-07-12T07:54:23.000Z</time>
      </trkpt>
      <trkpt lat="42.47218" lon="3.02138">
        <ele>938</ele>
        <time>2023-07-12T07:54:32.000Z</time>
      </trkpt>
      <trkpt lat="42.47217" lon="3.02137">
        <ele>938.20001220703</ele>
        <time>2023-07-12T07:54:33.000Z</time>
      </trkpt>
      <trkpt lat="42.47212" lon="3.02135">
        <ele>938</ele>
        <time>2023-07-12T07:54:39.000Z</time>
      </trkpt>
      <trkpt lat="42.47208" lon="3.0213">
        <ele>937.79998779297</ele>
        <time>2023-07-12T07:54:45.000Z</time>
      </trkpt>
      <trkpt lat="42.47205" lon="3.02125">
        <ele>937</ele>
        <time>2023-07-12T07:54:52.000Z</time>
      </trkpt>
      <trkpt lat="42.47204" lon="3.02125">
        <ele>937</ele>
        <time>2023-07-12T07:54:53.000Z</time>
      </trkpt>
      <trkpt lat="42.47199" lon="3.02121">
        <ele>937</ele>
        <time>2023-07-12T07:54:59.000Z</time>
      </trkpt>
      <trkpt lat="42.47196" lon="3.02116">
        <ele>936.59997558594</ele>
        <time>2023-07-12T07:55:06.000Z</time>
      </trkpt>
      <trkpt lat="42.47191" lon="3.02108">
        <ele>937.20001220703</ele>
        <time>2023-07-12T07:55:15.000Z</time>
      </trkpt>
      <trkpt lat="42.47189" lon="3.02096">
        <ele>937.20001220703</ele>
        <time>2023-07-12T07:55:24.000Z</time>
      </trkpt>
      <trkpt lat="42.47186" lon="3.02084">
        <ele>936.59997558594</ele>
        <time>2023-07-12T07:55:32.000Z</time>
      </trkpt>
      <trkpt lat="42.47185" lon="3.02076">
        <ele>935.79998779297</ele>
        <time>2023-07-12T07:55:38.000Z</time>
      </trkpt>
      <trkpt lat="42.47185" lon="3.02073">
        <ele>935.40002441406</ele>
        <time>2023-07-12T07:55:40.000Z</time>
      </trkpt>
      <trkpt lat="42.47185" lon="3.02069">
        <ele>934.79998779297</ele>
        <time>2023-07-12T07:55:44.000Z</time>
      </trkpt>
      <trkpt lat="42.47186" lon="3.02059">
        <ele>934.40002441406</ele>
        <time>2023-07-12T07:55:49.000Z</time>
      </trkpt>
      <trkpt lat="42.47186" lon="3.02056">
        <ele>933.79998779297</ele>
        <time>2023-07-12T07:55:52.000Z</time>
      </trkpt>
      <trkpt lat="42.47186" lon="3.0205">
        <ele>932.79998779297</ele>
        <time>2023-07-12T07:55:56.000Z</time>
      </trkpt>
      <trkpt lat="42.47185" lon="3.02049">
        <ele>932.79998779297</ele>
        <time>2023-07-12T07:55:57.000Z</time>
      </trkpt>
      <trkpt lat="42.47185" lon="3.02042">
        <ele>931.59997558594</ele>
        <time>2023-07-12T07:56:03.000Z</time>
      </trkpt>
      <trkpt lat="42.47183" lon="3.02033">
        <ele>930.59997558594</ele>
        <time>2023-07-12T07:56:09.000Z</time>
      </trkpt>
      <trkpt lat="42.47182" lon="3.0203">
        <ele>930.40002441406</ele>
        <time>2023-07-12T07:56:11.000Z</time>
      </trkpt>
      <trkpt lat="42.4718" lon="3.02025">
        <ele>929.40002441406</ele>
        <time>2023-07-12T07:56:15.000Z</time>
      </trkpt>
      <trkpt lat="42.47178" lon="3.02019">
        <ele>928.79998779297</ele>
        <time>2023-07-12T07:56:20.000Z</time>
      </trkpt>
      <trkpt lat="42.47177" lon="3.02017">
        <ele>928.40002441406</ele>
        <time>2023-07-12T07:56:22.000Z</time>
      </trkpt>
      <trkpt lat="42.47173" lon="3.02007">
        <ele>927.59997558594</ele>
        <time>2023-07-12T07:56:30.000Z</time>
      </trkpt>
      <trkpt lat="42.4717" lon="3.02003">
        <ele>927.40002441406</ele>
        <time>2023-07-12T07:56:33.000Z</time>
      </trkpt>
      <trkpt lat="42.47166" lon="3.01995">
        <ele>926.59997558594</ele>
        <time>2023-07-12T07:56:39.000Z</time>
      </trkpt>
      <trkpt lat="42.47164" lon="3.01993">
        <ele>926.20001220703</ele>
        <time>2023-07-12T07:56:45.000Z</time>
      </trkpt>
      <trkpt lat="42.47164" lon="3.01995">
        <ele>926</ele>
        <time>2023-07-12T07:56:47.000Z</time>
      </trkpt>
      <trkpt lat="42.47164" lon="3.01996">
        <ele>926</ele>
        <time>2023-07-12T07:56:48.000Z</time>
      </trkpt>
      <trkpt lat="42.47164" lon="3.01996">
        <ele>926</ele>
        <time>2023-07-12T07:56:51.000Z</time>
      </trkpt>
      <trkpt lat="42.47163" lon="3.01994">
        <ele>926</ele>
        <time>2023-07-12T07:56:53.000Z</time>
      </trkpt>
      <trkpt lat="42.47163" lon="3.01983">
        <ele>925.40002441406</ele>
        <time>2023-07-12T07:56:59.000Z</time>
      </trkpt>
      <trkpt lat="42.47161" lon="3.01978">
        <ele>925</ele>
        <time>2023-07-12T07:57:02.000Z</time>
      </trkpt>
      <trkpt lat="42.47159" lon="3.01975">
        <ele>924</ele>
        <time>2023-07-12T07:57:06.000Z</time>
      </trkpt>
      <trkpt lat="42.47155" lon="3.01964">
        <ele>923</ele>
        <time>2023-07-12T07:57:14.000Z</time>
      </trkpt>
      <trkpt lat="42.47153" lon="3.01957">
        <ele>921.79998779297</ele>
        <time>2023-07-12T07:57:19.000Z</time>
      </trkpt>
      <trkpt lat="42.47151" lon="3.01951">
        <ele>921</ele>
        <time>2023-07-12T07:57:23.000Z</time>
      </trkpt>
      <trkpt lat="42.4715" lon="3.0195">
        <ele>920.79998779297</ele>
        <time>2023-07-12T07:57:24.000Z</time>
      </trkpt>
      <trkpt lat="42.47146" lon="3.01943">
        <ele>919.59997558594</ele>
        <time>2023-07-12T07:57:30.000Z</time>
      </trkpt>
      <trkpt lat="42.4714" lon="3.01936">
        <ele>918.59997558594</ele>
        <time>2023-07-12T07:57:38.000Z</time>
      </trkpt>
      <trkpt lat="42.47133" lon="3.01928">
        <ele>917.59997558594</ele>
        <time>2023-07-12T07:57:45.000Z</time>
      </trkpt>
      <trkpt lat="42.47132" lon="3.01927">
        <ele>917.40002441406</ele>
        <time>2023-07-12T07:57:46.000Z</time>
      </trkpt>
      <trkpt lat="42.47128" lon="3.01921">
        <ele>916.20001220703</ele>
        <time>2023-07-12T07:57:53.000Z</time>
      </trkpt>
      <trkpt lat="42.47127" lon="3.0192">
        <ele>916.20001220703</ele>
        <time>2023-07-12T07:57:54.000Z</time>
      </trkpt>
      <trkpt lat="42.47121" lon="3.01914">
        <ele>915.20001220703</ele>
        <time>2023-07-12T07:58:01.000Z</time>
      </trkpt>
      <trkpt lat="42.47119" lon="3.01912">
        <ele>915</ele>
        <time>2023-07-12T07:58:03.000Z</time>
      </trkpt>
      <trkpt lat="42.47115" lon="3.01906">
        <ele>914</ele>
        <time>2023-07-12T07:58:09.000Z</time>
      </trkpt>
      <trkpt lat="42.47114" lon="3.01905">
        <ele>913.59997558594</ele>
        <time>2023-07-12T07:58:11.000Z</time>
      </trkpt>
      <trkpt lat="42.47109" lon="3.01898">
        <ele>913</ele>
        <time>2023-07-12T07:58:17.000Z</time>
      </trkpt>
      <trkpt lat="42.47107" lon="3.01895">
        <ele>912.59997558594</ele>
        <time>2023-07-12T07:58:19.000Z</time>
      </trkpt>
      <trkpt lat="42.47105" lon="3.01892">
        <ele>911.79998779297</ele>
        <time>2023-07-12T07:58:22.000Z</time>
      </trkpt>
      <trkpt lat="42.47103" lon="3.01886">
        <ele>910.79998779297</ele>
        <time>2023-07-12T07:58:27.000Z</time>
      </trkpt>
      <trkpt lat="42.47098" lon="3.0188">
        <ele>909.59997558594</ele>
        <time>2023-07-12T07:58:33.000Z</time>
      </trkpt>
      <trkpt lat="42.47096" lon="3.01881">
        <ele>909</ele>
        <time>2023-07-12T07:58:35.000Z</time>
      </trkpt>
      <trkpt lat="42.47087" lon="3.01879">
        <ele>908.59997558594</ele>
        <time>2023-07-12T07:58:42.000Z</time>
      </trkpt>
      <trkpt lat="42.47084" lon="3.01878">
        <ele>908.59997558594</ele>
        <time>2023-07-12T07:58:44.000Z</time>
      </trkpt>
      <trkpt lat="42.4708" lon="3.01875">
        <ele>908.20001220703</ele>
        <time>2023-07-12T07:58:49.000Z</time>
      </trkpt>
      <trkpt lat="42.47074" lon="3.01871">
        <ele>907.59997558594</ele>
        <time>2023-07-12T07:58:54.000Z</time>
      </trkpt>
      <trkpt lat="42.47072" lon="3.01869">
        <ele>907.40002441406</ele>
        <time>2023-07-12T07:58:56.000Z</time>
      </trkpt>
      <trkpt lat="42.47062" lon="3.01866">
        <ele>907</ele>
        <time>2023-07-12T07:59:04.000Z</time>
      </trkpt>
      <trkpt lat="42.47055" lon="3.0186">
        <ele>906.59997558594</ele>
        <time>2023-07-12T07:59:11.000Z</time>
      </trkpt>
      <trkpt lat="42.47049" lon="3.01856">
        <ele>906.59997558594</ele>
        <time>2023-07-12T07:59:15.000Z</time>
      </trkpt>
      <trkpt lat="42.47047" lon="3.01854">
        <ele>906.40002441406</ele>
        <time>2023-07-12T07:59:18.000Z</time>
      </trkpt>
      <trkpt lat="42.47042" lon="3.01847">
        <ele>906.40002441406</ele>
        <time>2023-07-12T07:59:24.000Z</time>
      </trkpt>
      <trkpt lat="42.47036" lon="3.01843">
        <ele>906.20001220703</ele>
        <time>2023-07-12T07:59:30.000Z</time>
      </trkpt>
      <trkpt lat="42.4703" lon="3.01837">
        <ele>906.20001220703</ele>
        <time>2023-07-12T07:59:37.000Z</time>
      </trkpt>
      <trkpt lat="42.47023" lon="3.01831">
        <ele>906.59997558594</ele>
        <time>2023-07-12T07:59:44.000Z</time>
      </trkpt>
      <trkpt lat="42.47017" lon="3.01829">
        <ele>906.79998779297</ele>
        <time>2023-07-12T07:59:51.000Z</time>
      </trkpt>
      <trkpt lat="42.47009" lon="3.0182">
        <ele>907.59997558594</ele>
        <time>2023-07-12T07:59:58.000Z</time>
      </trkpt>
      <trkpt lat="42.47005" lon="3.01817">
        <ele>908.59997558594</ele>
        <time>2023-07-12T08:00:02.000Z</time>
      </trkpt>
      <trkpt lat="42.47004" lon="3.01815">
        <ele>909</ele>
        <time>2023-07-12T08:00:06.000Z</time>
      </trkpt>
      <trkpt lat="42.47" lon="3.01812">
        <ele>909.79998779297</ele>
        <time>2023-07-12T08:00:11.000Z</time>
      </trkpt>
      <trkpt lat="42.46998" lon="3.01811">
        <ele>910.20001220703</ele>
        <time>2023-07-12T08:00:13.000Z</time>
      </trkpt>
      <trkpt lat="42.46994" lon="3.01807">
        <ele>911</ele>
        <time>2023-07-12T08:00:18.000Z</time>
      </trkpt>
      <trkpt lat="42.46993" lon="3.01805">
        <ele>911.79998779297</ele>
        <time>2023-07-12T08:00:23.000Z</time>
      </trkpt>
      <trkpt lat="42.46993" lon="3.01804">
        <ele>912</ele>
        <time>2023-07-12T08:00:24.000Z</time>
      </trkpt>
      <trkpt lat="42.46992" lon="3.01796">
        <ele>913</ele>
        <time>2023-07-12T08:00:31.000Z</time>
      </trkpt>
      <trkpt lat="42.46989" lon="3.0179">
        <ele>914</ele>
        <time>2023-07-12T08:00:38.000Z</time>
      </trkpt>
      <trkpt lat="42.46988" lon="3.01789">
        <ele>914.20001220703</ele>
        <time>2023-07-12T08:00:39.000Z</time>
      </trkpt>
      <trkpt lat="42.46986" lon="3.01781">
        <ele>915.20001220703</ele>
        <time>2023-07-12T08:00:46.000Z</time>
      </trkpt>
      <trkpt lat="42.46986" lon="3.01779">
        <ele>915.20001220703</ele>
        <time>2023-07-12T08:00:47.000Z</time>
      </trkpt>
      <trkpt lat="42.4698" lon="3.0177">
        <ele>916</ele>
        <time>2023-07-12T08:00:54.000Z</time>
      </trkpt>
      <trkpt lat="42.46976" lon="3.01764">
        <ele>916.20001220703</ele>
        <time>2023-07-12T08:00:59.000Z</time>
      </trkpt>
      <trkpt lat="42.46975" lon="3.01761">
        <ele>916.79998779297</ele>
        <time>2023-07-12T08:01:02.000Z</time>
      </trkpt>
      <trkpt lat="42.46974" lon="3.01752">
        <ele>917.20001220703</ele>
        <time>2023-07-12T08:01:09.000Z</time>
      </trkpt>
      <trkpt lat="42.46974" lon="3.01748">
        <ele>917.40002441406</ele>
        <time>2023-07-12T08:01:11.000Z</time>
      </trkpt>
      <trkpt lat="42.46973" lon="3.01742">
        <ele>917.79998779297</ele>
        <time>2023-07-12T08:01:16.000Z</time>
      </trkpt>
      <trkpt lat="42.4697" lon="3.01732">
        <ele>918.40002441406</ele>
        <time>2023-07-12T08:01:23.000Z</time>
      </trkpt>
      <trkpt lat="42.46969" lon="3.01726">
        <ele>918.79998779297</ele>
        <time>2023-07-12T08:01:29.000Z</time>
      </trkpt>
      <trkpt lat="42.46968" lon="3.01723">
        <ele>919.40002441406</ele>
        <time>2023-07-12T08:01:31.000Z</time>
      </trkpt>
      <trkpt lat="42.46966" lon="3.01715">
        <ele>919.79998779297</ele>
        <time>2023-07-12T08:01:37.000Z</time>
      </trkpt>
      <trkpt lat="42.46964" lon="3.0171">
        <ele>920.59997558594</ele>
        <time>2023-07-12T08:01:43.000Z</time>
      </trkpt>
      <trkpt lat="42.46961" lon="3.01705">
        <ele>921.20001220703</ele>
        <time>2023-07-12T08:01:49.000Z</time>
      </trkpt>
      <trkpt lat="42.4696" lon="3.01702">
        <ele>921.59997558594</ele>
        <time>2023-07-12T08:01:52.000Z</time>
      </trkpt>
      <trkpt lat="42.46957" lon="3.01695">
        <ele>922.40002441406</ele>
        <time>2023-07-12T08:01:57.000Z</time>
      </trkpt>
      <trkpt lat="42.46957" lon="3.01692">
        <ele>922.59997558594</ele>
        <time>2023-07-12T08:02:01.000Z</time>
      </trkpt>
      <trkpt lat="42.46956" lon="3.01688">
        <ele>923</ele>
        <time>2023-07-12T08:02:04.000Z</time>
      </trkpt>
      <trkpt lat="42.46954" lon="3.01678">
        <ele>923.59997558594</ele>
        <time>2023-07-12T08:02:13.000Z</time>
      </trkpt>
      <trkpt lat="42.46954" lon="3.01677">
        <ele>923.79998779297</ele>
        <time>2023-07-12T08:02:14.000Z</time>
      </trkpt>
      <trkpt lat="42.46951" lon="3.01672">
        <ele>924.59997558594</ele>
        <time>2023-07-12T08:02:20.000Z</time>
      </trkpt>
      <trkpt lat="42.46951" lon="3.01672">
        <ele>924.79998779297</ele>
        <time>2023-07-12T08:02:21.000Z</time>
      </trkpt>
      <trkpt lat="42.4695" lon="3.01661">
        <ele>925.20001220703</ele>
        <time>2023-07-12T08:02:29.000Z</time>
      </trkpt>
      <trkpt lat="42.46948" lon="3.01654">
        <ele>924.79998779297</ele>
        <time>2023-07-12T08:02:37.000Z</time>
      </trkpt>
      <trkpt lat="42.46945" lon="3.01646">
        <ele>924.20001220703</ele>
        <time>2023-07-12T08:02:43.000Z</time>
      </trkpt>
      <trkpt lat="42.46943" lon="3.01643">
        <ele>923.79998779297</ele>
        <time>2023-07-12T08:02:45.000Z</time>
      </trkpt>
      <trkpt lat="42.4694" lon="3.0164">
        <ele>923.59997558594</ele>
        <time>2023-07-12T08:02:48.000Z</time>
      </trkpt>
      <trkpt lat="42.46932" lon="3.01634">
        <ele>923.20001220703</ele>
        <time>2023-07-12T08:02:55.000Z</time>
      </trkpt>
      <trkpt lat="42.46928" lon="3.01632">
        <ele>922.79998779297</ele>
        <time>2023-07-12T08:02:59.000Z</time>
      </trkpt>
      <trkpt lat="42.46923" lon="3.01626">
        <ele>922.79998779297</ele>
        <time>2023-07-12T08:03:05.000Z</time>
      </trkpt>
      <trkpt lat="42.46913" lon="3.01618">
        <ele>923.20001220703</ele>
        <time>2023-07-12T08:03:14.000Z</time>
      </trkpt>
      <trkpt lat="42.46911" lon="3.01615">
        <ele>923.79998779297</ele>
        <time>2023-07-12T08:03:20.000Z</time>
      </trkpt>
      <trkpt lat="42.46909" lon="3.01614">
        <ele>924</ele>
        <time>2023-07-12T08:03:22.000Z</time>
      </trkpt>
      <trkpt lat="42.46905" lon="3.01605">
        <ele>924.79998779297</ele>
        <time>2023-07-12T08:03:28.000Z</time>
      </trkpt>
      <trkpt lat="42.46901" lon="3.01597">
        <ele>925.59997558594</ele>
        <time>2023-07-12T08:03:36.000Z</time>
      </trkpt>
      <trkpt lat="42.46898" lon="3.01593">
        <ele>926</ele>
        <time>2023-07-12T08:03:39.000Z</time>
      </trkpt>
      <trkpt lat="42.46894" lon="3.01591">
        <ele>926.20001220703</ele>
        <time>2023-07-12T08:03:43.000Z</time>
      </trkpt>
      <trkpt lat="42.46889" lon="3.01581">
        <ele>925.79998779297</ele>
        <time>2023-07-12T08:03:51.000Z</time>
      </trkpt>
      <trkpt lat="42.4688" lon="3.01575">
        <ele>925</ele>
        <time>2023-07-12T08:03:59.000Z</time>
      </trkpt>
      <trkpt lat="42.4688" lon="3.01575">
        <ele>924.79998779297</ele>
        <time>2023-07-12T08:04:00.000Z</time>
      </trkpt>
      <trkpt lat="42.46876" lon="3.0157">
        <ele>924.79998779297</ele>
        <time>2023-07-12T08:04:05.000Z</time>
      </trkpt>
      <trkpt lat="42.46867" lon="3.01559">
        <ele>925.40002441406</ele>
        <time>2023-07-12T08:04:14.000Z</time>
      </trkpt>
      <trkpt lat="42.46861" lon="3.01545">
        <ele>925.40002441406</ele>
        <time>2023-07-12T08:04:22.000Z</time>
      </trkpt>
      <trkpt lat="42.46857" lon="3.01534">
        <ele>925.59997558594</ele>
        <time>2023-07-12T08:04:32.000Z</time>
      </trkpt>
      <trkpt lat="42.46854" lon="3.01523">
        <ele>925.79998779297</ele>
        <time>2023-07-12T08:04:40.000Z</time>
      </trkpt>
      <trkpt lat="42.46853" lon="3.01521">
        <ele>925.79998779297</ele>
        <time>2023-07-12T08:04:42.000Z</time>
      </trkpt>
      <trkpt lat="42.4685" lon="3.01513">
        <ele>927</ele>
        <time>2023-07-12T08:04:51.000Z</time>
      </trkpt>
      <trkpt lat="42.46847" lon="3.01507">
        <ele>927.59997558594</ele>
        <time>2023-07-12T08:04:57.000Z</time>
      </trkpt>
      <trkpt lat="42.46845" lon="3.01502">
        <ele>928</ele>
        <time>2023-07-12T08:05:02.000Z</time>
      </trkpt>
      <trkpt lat="42.46844" lon="3.01498">
        <ele>928</ele>
        <time>2023-07-12T08:05:06.000Z</time>
      </trkpt>
      <trkpt lat="42.46842" lon="3.0149">
        <ele>928</ele>
        <time>2023-07-12T08:05:13.000Z</time>
      </trkpt>
      <trkpt lat="42.4684" lon="3.0148">
        <ele>928.40002441406</ele>
        <time>2023-07-12T08:05:21.000Z</time>
      </trkpt>
      <trkpt lat="42.46836" lon="3.01473">
        <ele>928.79998779297</ele>
        <time>2023-07-12T08:05:28.000Z</time>
      </trkpt>
      <trkpt lat="42.46836" lon="3.01472">
        <ele>929</ele>
        <time>2023-07-12T08:05:29.000Z</time>
      </trkpt>
      <trkpt lat="42.46833" lon="3.01465">
        <ele>929.59997558594</ele>
        <time>2023-07-12T08:05:35.000Z</time>
      </trkpt>
      <trkpt lat="42.46831" lon="3.01458">
        <ele>930.20001220703</ele>
        <time>2023-07-12T08:05:41.000Z</time>
      </trkpt>
      <trkpt lat="42.4683" lon="3.01457">
        <ele>930.40002441406</ele>
        <time>2023-07-12T08:05:42.000Z</time>
      </trkpt>
      <trkpt lat="42.46826" lon="3.01448">
        <ele>931</ele>
        <time>2023-07-12T08:05:49.000Z</time>
      </trkpt>
      <trkpt lat="42.46825" lon="3.01447">
        <ele>931.20001220703</ele>
        <time>2023-07-12T08:05:50.000Z</time>
      </trkpt>
      <trkpt lat="42.46822" lon="3.01441">
        <ele>932.20001220703</ele>
        <time>2023-07-12T08:05:57.000Z</time>
      </trkpt>
      <trkpt lat="42.4682" lon="3.01439">
        <ele>932.59997558594</ele>
        <time>2023-07-12T08:06:00.000Z</time>
      </trkpt>
      <trkpt lat="42.46819" lon="3.01435">
        <ele>933.59997558594</ele>
        <time>2023-07-12T08:06:03.000Z</time>
      </trkpt>
      <trkpt lat="42.46816" lon="3.01428">
        <ele>934.40002441406</ele>
        <time>2023-07-12T08:06:10.000Z</time>
      </trkpt>
      <trkpt lat="42.46816" lon="3.01427">
        <ele>934.59997558594</ele>
        <time>2023-07-12T08:06:12.000Z</time>
      </trkpt>
      <trkpt lat="42.46814" lon="3.01424">
        <ele>935.59997558594</ele>
        <time>2023-07-12T08:06:18.000Z</time>
      </trkpt>
      <trkpt lat="42.46812" lon="3.0142">
        <ele>936</ele>
        <time>2023-07-12T08:06:21.000Z</time>
      </trkpt>
      <trkpt lat="42.46811" lon="3.01414">
        <ele>937</ele>
        <time>2023-07-12T08:06:26.000Z</time>
      </trkpt>
      <trkpt lat="42.4681" lon="3.01408">
        <ele>937.20001220703</ele>
        <time>2023-07-12T08:06:31.000Z</time>
      </trkpt>
      <trkpt lat="42.4681" lon="3.01404">
        <ele>938.20001220703</ele>
        <time>2023-07-12T08:06:36.000Z</time>
      </trkpt>
      <trkpt lat="42.46809" lon="3.01399">
        <ele>938.79998779297</ele>
        <time>2023-07-12T08:06:40.000Z</time>
      </trkpt>
      <trkpt lat="42.46808" lon="3.01394">
        <ele>939.20001220703</ele>
        <time>2023-07-12T08:06:44.000Z</time>
      </trkpt>
      <trkpt lat="42.46807" lon="3.01388">
        <ele>940</ele>
        <time>2023-07-12T08:06:48.000Z</time>
      </trkpt>
      <trkpt lat="42.46807" lon="3.01384">
        <ele>940.40002441406</ele>
        <time>2023-07-12T08:06:53.000Z</time>
      </trkpt>
      <trkpt lat="42.46807" lon="3.0138">
        <ele>940.59997558594</ele>
        <time>2023-07-12T08:06:55.000Z</time>
      </trkpt>
      <trkpt lat="42.46807" lon="3.01367">
        <ele>941.40002441406</ele>
        <time>2023-07-12T08:07:03.000Z</time>
      </trkpt>
      <trkpt lat="42.46807" lon="3.01365">
        <ele>941.40002441406</ele>
        <time>2023-07-12T08:07:04.000Z</time>
      </trkpt>
      <trkpt lat="42.46808" lon="3.01356">
        <ele>941.79998779297</ele>
        <time>2023-07-12T08:07:10.000Z</time>
      </trkpt>
      <trkpt lat="42.46808" lon="3.01346">
        <ele>942.40002441406</ele>
        <time>2023-07-12T08:07:18.000Z</time>
      </trkpt>
      <trkpt lat="42.46808" lon="3.01345">
        <ele>942.59997558594</ele>
        <time>2023-07-12T08:07:19.000Z</time>
      </trkpt>
      <trkpt lat="42.46809" lon="3.01334">
        <ele>943.59997558594</ele>
        <time>2023-07-12T08:07:26.000Z</time>
      </trkpt>
      <trkpt lat="42.46812" lon="3.01324">
        <ele>944.20001220703</ele>
        <time>2023-07-12T08:07:34.000Z</time>
      </trkpt>
      <trkpt lat="42.46814" lon="3.01315">
        <ele>944.59997558594</ele>
        <time>2023-07-12T08:07:41.000Z</time>
      </trkpt>
      <trkpt lat="42.46814" lon="3.01302">
        <ele>944.79998779297</ele>
        <time>2023-07-12T08:07:48.000Z</time>
      </trkpt>
      <trkpt lat="42.46815" lon="3.01291">
        <ele>945.40002441406</ele>
        <time>2023-07-12T08:07:55.000Z</time>
      </trkpt>
      <trkpt lat="42.46816" lon="3.01285">
        <ele>945.79998779297</ele>
        <time>2023-07-12T08:08:00.000Z</time>
      </trkpt>
      <trkpt lat="42.46816" lon="3.01282">
        <ele>946</ele>
        <time>2023-07-12T08:08:02.000Z</time>
      </trkpt>
      <trkpt lat="42.46819" lon="3.01269">
        <ele>946.40002441406</ele>
        <time>2023-07-12T08:08:10.000Z</time>
      </trkpt>
      <trkpt lat="42.46822" lon="3.01258">
        <ele>946.79998779297</ele>
        <time>2023-07-12T08:08:17.000Z</time>
      </trkpt>
      <trkpt lat="42.46822" lon="3.01257">
        <ele>946.79998779297</ele>
        <time>2023-07-12T08:08:18.000Z</time>
      </trkpt>
      <trkpt lat="42.46823" lon="3.01246">
        <ele>947.20001220703</ele>
        <time>2023-07-12T08:08:24.000Z</time>
      </trkpt>
      <trkpt lat="42.46824" lon="3.0124">
        <ele>947.79998779297</ele>
        <time>2023-07-12T08:08:29.000Z</time>
      </trkpt>
      <trkpt lat="42.46824" lon="3.01236">
        <ele>948</ele>
        <time>2023-07-12T08:08:33.000Z</time>
      </trkpt>
      <trkpt lat="42.46826" lon="3.01223">
        <ele>948.59997558594</ele>
        <time>2023-07-12T08:08:41.000Z</time>
      </trkpt>
      <trkpt lat="42.46827" lon="3.01213">
        <ele>949</ele>
        <time>2023-07-12T08:08:47.000Z</time>
      </trkpt>
      <trkpt lat="42.46828" lon="3.01208">
        <ele>949.40002441406</ele>
        <time>2023-07-12T08:08:51.000Z</time>
      </trkpt>
      <trkpt lat="42.4683" lon="3.01201">
        <ele>950</ele>
        <time>2023-07-12T08:08:56.000Z</time>
      </trkpt>
      <trkpt lat="42.4683" lon="3.01198">
        <ele>950</ele>
        <time>2023-07-12T08:08:58.000Z</time>
      </trkpt>
      <trkpt lat="42.46832" lon="3.01186">
        <ele>950.40002441406</ele>
        <time>2023-07-12T08:09:06.000Z</time>
      </trkpt>
      <trkpt lat="42.46834" lon="3.01176">
        <ele>951</ele>
        <time>2023-07-12T08:09:13.000Z</time>
      </trkpt>
      <trkpt lat="42.46837" lon="3.01168">
        <ele>951.59997558594</ele>
        <time>2023-07-12T08:09:20.000Z</time>
      </trkpt>
      <trkpt lat="42.46839" lon="3.01159">
        <ele>952.20001220703</ele>
        <time>2023-07-12T08:09:27.000Z</time>
      </trkpt>
      <trkpt lat="42.4684" lon="3.01146">
        <ele>953.20001220703</ele>
        <time>2023-07-12T08:09:36.000Z</time>
      </trkpt>
      <trkpt lat="42.4684" lon="3.01145">
        <ele>953.20001220703</ele>
        <time>2023-07-12T08:09:37.000Z</time>
      </trkpt>
      <trkpt lat="42.46842" lon="3.01137">
        <ele>954.40002441406</ele>
        <time>2023-07-12T08:09:46.000Z</time>
      </trkpt>
      <trkpt lat="42.46842" lon="3.01136">
        <ele>954.59997558594</ele>
        <time>2023-07-12T08:09:47.000Z</time>
      </trkpt>
      <trkpt lat="42.46844" lon="3.01126">
        <ele>955.59997558594</ele>
        <time>2023-07-12T08:09:55.000Z</time>
      </trkpt>
      <trkpt lat="42.46848" lon="3.0112">
        <ele>956.59997558594</ele>
        <time>2023-07-12T08:10:02.000Z</time>
      </trkpt>
      <trkpt lat="42.4685" lon="3.01119">
        <ele>956.59997558594</ele>
        <time>2023-07-12T08:10:03.000Z</time>
      </trkpt>
      <trkpt lat="42.46859" lon="3.0111">
        <ele>957.20001220703</ele>
        <time>2023-07-12T08:10:12.000Z</time>
      </trkpt>
      <trkpt lat="42.46863" lon="3.01107">
        <ele>957.79998779297</ele>
        <time>2023-07-12T08:10:16.000Z</time>
      </trkpt>
      <trkpt lat="42.46866" lon="3.01103">
        <ele>958</ele>
        <time>2023-07-12T08:10:20.000Z</time>
      </trkpt>
      <trkpt lat="42.46874" lon="3.01099">
        <ele>958.20001220703</ele>
        <time>2023-07-12T08:10:28.000Z</time>
      </trkpt>
      <trkpt lat="42.46878" lon="3.01089">
        <ele>957.79998779297</ele>
        <time>2023-07-12T08:10:37.000Z</time>
      </trkpt>
      <trkpt lat="42.46882" lon="3.01078">
        <ele>958.40002441406</ele>
        <time>2023-07-12T08:10:45.000Z</time>
      </trkpt>
      <trkpt lat="42.46888" lon="3.01066">
        <ele>958.40002441406</ele>
        <time>2023-07-12T08:10:54.000Z</time>
      </trkpt>
      <trkpt lat="42.46892" lon="3.01054">
        <ele>958.40002441406</ele>
        <time>2023-07-12T08:11:02.000Z</time>
      </trkpt>
      <trkpt lat="42.46895" lon="3.01041">
        <ele>958.79998779297</ele>
        <time>2023-07-12T08:11:09.000Z</time>
      </trkpt>
      <trkpt lat="42.46897" lon="3.01035">
        <ele>959.20001220703</ele>
        <time>2023-07-12T08:11:15.000Z</time>
      </trkpt>
      <trkpt lat="42.46903" lon="3.01023">
        <ele>959.40002441406</ele>
        <time>2023-07-12T08:11:23.000Z</time>
      </trkpt>
      <trkpt lat="42.46909" lon="3.01013">
        <ele>959.79998779297</ele>
        <time>2023-07-12T08:11:30.000Z</time>
      </trkpt>
      <trkpt lat="42.46909" lon="3.01012">
        <ele>959.79998779297</ele>
        <time>2023-07-12T08:11:31.000Z</time>
      </trkpt>
      <trkpt lat="42.46912" lon="3.01003">
        <ele>960.20001220703</ele>
        <time>2023-07-12T08:11:40.000Z</time>
      </trkpt>
      <trkpt lat="42.46915" lon="3.00992">
        <ele>960.59997558594</ele>
        <time>2023-07-12T08:11:47.000Z</time>
      </trkpt>
      <trkpt lat="42.46918" lon="3.00982">
        <ele>960.40002441406</ele>
        <time>2023-07-12T08:11:54.000Z</time>
      </trkpt>
      <trkpt lat="42.46923" lon="3.0097">
        <ele>960.59997558594</ele>
        <time>2023-07-12T08:12:03.000Z</time>
      </trkpt>
      <trkpt lat="42.46931" lon="3.00962">
        <ele>960.59997558594</ele>
        <time>2023-07-12T08:12:11.000Z</time>
      </trkpt>
      <trkpt lat="42.46935" lon="3.00953">
        <ele>961</ele>
        <time>2023-07-12T08:12:18.000Z</time>
      </trkpt>
      <trkpt lat="42.46935" lon="3.00952">
        <ele>961</ele>
        <time>2023-07-12T08:12:19.000Z</time>
      </trkpt>
      <trkpt lat="42.46942" lon="3.00942">
        <ele>961.59997558594</ele>
        <time>2023-07-12T08:12:29.000Z</time>
      </trkpt>
      <trkpt lat="42.46945" lon="3.00936">
        <ele>961.79998779297</ele>
        <time>2023-07-12T08:12:34.000Z</time>
      </trkpt>
      <trkpt lat="42.46945" lon="3.00934">
        <ele>962</ele>
        <time>2023-07-12T08:12:35.000Z</time>
      </trkpt>
      <trkpt lat="42.46946" lon="3.00925">
        <ele>962.20001220703</ele>
        <time>2023-07-12T08:12:41.000Z</time>
      </trkpt>
      <trkpt lat="42.46948" lon="3.00917">
        <ele>962.59997558594</ele>
        <time>2023-07-12T08:12:49.000Z</time>
      </trkpt>
      <trkpt lat="42.46949" lon="3.00905">
        <ele>963</ele>
        <time>2023-07-12T08:12:57.000Z</time>
      </trkpt>
      <trkpt lat="42.46951" lon="3.00894">
        <ele>964</ele>
        <time>2023-07-12T08:13:06.000Z</time>
      </trkpt>
      <trkpt lat="42.46952" lon="3.00892">
        <ele>964</ele>
        <time>2023-07-12T08:13:08.000Z</time>
      </trkpt>
      <trkpt lat="42.46956" lon="3.00888">
        <ele>964.40002441406</ele>
        <time>2023-07-12T08:13:13.000Z</time>
      </trkpt>
      <trkpt lat="42.46959" lon="3.00881">
        <ele>964.20001220703</ele>
        <time>2023-07-12T08:13:19.000Z</time>
      </trkpt>
      <trkpt lat="42.46961" lon="3.00871">
        <ele>964.59997558594</ele>
        <time>2023-07-12T08:13:27.000Z</time>
      </trkpt>
      <trkpt lat="42.46962" lon="3.00867">
        <ele>965.20001220703</ele>
        <time>2023-07-12T08:13:30.000Z</time>
      </trkpt>
      <trkpt lat="42.46963" lon="3.00861">
        <ele>965.59997558594</ele>
        <time>2023-07-12T08:13:35.000Z</time>
      </trkpt>
      <trkpt lat="42.46964" lon="3.00853">
        <ele>965.79998779297</ele>
        <time>2023-07-12T08:13:41.000Z</time>
      </trkpt>
      <trkpt lat="42.46969" lon="3.00844">
        <ele>966</ele>
        <time>2023-07-12T08:13:49.000Z</time>
      </trkpt>
      <trkpt lat="42.46969" lon="3.00842">
        <ele>966.20001220703</ele>
        <time>2023-07-12T08:13:52.000Z</time>
      </trkpt>
      <trkpt lat="42.4697" lon="3.00838">
        <ele>966.59997558594</ele>
        <time>2023-07-12T08:13:56.000Z</time>
      </trkpt>
      <trkpt lat="42.46971" lon="3.00831">
        <ele>967.20001220703</ele>
        <time>2023-07-12T08:14:02.000Z</time>
      </trkpt>
      <trkpt lat="42.46971" lon="3.0083">
        <ele>967.40002441406</ele>
        <time>2023-07-12T08:14:03.000Z</time>
      </trkpt>
      <trkpt lat="42.46969" lon="3.00821">
        <ele>968.40002441406</ele>
        <time>2023-07-12T08:14:10.000Z</time>
      </trkpt>
      <trkpt lat="42.46968" lon="3.00814">
        <ele>969</ele>
        <time>2023-07-12T08:14:16.000Z</time>
      </trkpt>
      <trkpt lat="42.46969" lon="3.00812">
        <ele>969.59997558594</ele>
        <time>2023-07-12T08:14:18.000Z</time>
      </trkpt>
      <trkpt lat="42.46971" lon="3.00807">
        <ele>969.79998779297</ele>
        <time>2023-07-12T08:14:22.000Z</time>
      </trkpt>
      <trkpt lat="42.46975" lon="3.00799">
        <ele>969.79998779297</ele>
        <time>2023-07-12T08:14:28.000Z</time>
      </trkpt>
      <trkpt lat="42.46976" lon="3.0079">
        <ele>969.79998779297</ele>
        <time>2023-07-12T08:14:34.000Z</time>
      </trkpt>
      <trkpt lat="42.4698" lon="3.00782">
        <ele>970.20001220703</ele>
        <time>2023-07-12T08:14:41.000Z</time>
      </trkpt>
      <trkpt lat="42.4698" lon="3.00776">
        <ele>970.59997558594</ele>
        <time>2023-07-12T08:14:46.000Z</time>
      </trkpt>
      <trkpt lat="42.4698" lon="3.00774">
        <ele>970.59997558594</ele>
        <time>2023-07-12T08:14:47.000Z</time>
      </trkpt>
      <trkpt lat="42.4698" lon="3.00766">
        <ele>971.59997558594</ele>
        <time>2023-07-12T08:14:54.000Z</time>
      </trkpt>
      <trkpt lat="42.4698" lon="3.00764">
        <ele>971.79998779297</ele>
        <time>2023-07-12T08:14:55.000Z</time>
      </trkpt>
      <trkpt lat="42.46979" lon="3.00757">
        <ele>972.59997558594</ele>
        <time>2023-07-12T08:15:01.000Z</time>
      </trkpt>
      <trkpt lat="42.46979" lon="3.00754">
        <ele>972.79998779297</ele>
        <time>2023-07-12T08:15:03.000Z</time>
      </trkpt>
      <trkpt lat="42.46978" lon="3.00747">
        <ele>973.59997558594</ele>
        <time>2023-07-12T08:15:08.000Z</time>
      </trkpt>
      <trkpt lat="42.46977" lon="3.00745">
        <ele>974</ele>
        <time>2023-07-12T08:15:10.000Z</time>
      </trkpt>
      <trkpt lat="42.46975" lon="3.00738">
        <ele>975</ele>
        <time>2023-07-12T08:15:16.000Z</time>
      </trkpt>
      <trkpt lat="42.46974" lon="3.00733">
        <ele>976</ele>
        <time>2023-07-12T08:15:23.000Z</time>
      </trkpt>
      <trkpt lat="42.46974" lon="3.00731">
        <ele>977</ele>
        <time>2023-07-12T08:15:26.000Z</time>
      </trkpt>
      <trkpt lat="42.46974" lon="3.0073">
        <ele>977.20001220703</ele>
        <time>2023-07-12T08:15:27.000Z</time>
      </trkpt>
      <trkpt lat="42.46973" lon="3.00722">
        <ele>978.20001220703</ele>
        <time>2023-07-12T08:15:34.000Z</time>
      </trkpt>
      <trkpt lat="42.46973" lon="3.0072">
        <ele>978.40002441406</ele>
        <time>2023-07-12T08:15:35.000Z</time>
      </trkpt>
      <trkpt lat="42.46972" lon="3.00714">
        <ele>979.40002441406</ele>
        <time>2023-07-12T08:15:40.000Z</time>
      </trkpt>
      <trkpt lat="42.46972" lon="3.00709">
        <ele>980.40002441406</ele>
        <time>2023-07-12T08:15:45.000Z</time>
      </trkpt>
      <trkpt lat="42.46972" lon="3.00708">
        <ele>980.40002441406</ele>
        <time>2023-07-12T08:15:46.000Z</time>
      </trkpt>
      <trkpt lat="42.46972" lon="3.00701">
        <ele>981.79998779297</ele>
        <time>2023-07-12T08:15:52.000Z</time>
      </trkpt>
      <trkpt lat="42.46972" lon="3.00692">
        <ele>982.79998779297</ele>
        <time>2023-07-12T08:15:59.000Z</time>
      </trkpt>
      <trkpt lat="42.46972" lon="3.00691">
        <ele>983</ele>
        <time>2023-07-12T08:16:00.000Z</time>
      </trkpt>
      <trkpt lat="42.46972" lon="3.00686">
        <ele>984</ele>
        <time>2023-07-12T08:16:05.000Z</time>
      </trkpt>
      <trkpt lat="42.46974" lon="3.00682">
        <ele>985.20001220703</ele>
        <time>2023-07-12T08:16:09.000Z</time>
      </trkpt>
      <trkpt lat="42.46973" lon="3.0068">
        <ele>985.40002441406</ele>
        <time>2023-07-12T08:16:10.000Z</time>
      </trkpt>
      <trkpt lat="42.46974" lon="3.00673">
        <ele>986</ele>
        <time>2023-07-12T08:16:16.000Z</time>
      </trkpt>
      <trkpt lat="42.46974" lon="3.00672">
        <ele>986.20001220703</ele>
        <time>2023-07-12T08:16:18.000Z</time>
      </trkpt>
      <trkpt lat="42.46976" lon="3.00668">
        <ele>986.79998779297</ele>
        <time>2023-07-12T08:16:22.000Z</time>
      </trkpt>
      <trkpt lat="42.46977" lon="3.00665">
        <ele>987.20001220703</ele>
        <time>2023-07-12T08:16:25.000Z</time>
      </trkpt>
      <trkpt lat="42.46978" lon="3.0066">
        <ele>987.59997558594</ele>
        <time>2023-07-12T08:16:29.000Z</time>
      </trkpt>
      <trkpt lat="42.4698" lon="3.00653">
        <ele>988.20001220703</ele>
        <time>2023-07-12T08:16:36.000Z</time>
      </trkpt>
      <trkpt lat="42.4698" lon="3.00653">
        <ele>988.40002441406</ele>
        <time>2023-07-12T08:16:37.000Z</time>
      </trkpt>
      <trkpt lat="42.46984" lon="3.00648">
        <ele>989.40002441406</ele>
        <time>2023-07-12T08:16:45.000Z</time>
      </trkpt>
      <trkpt lat="42.46984" lon="3.00648">
        <ele>989.59997558594</ele>
        <time>2023-07-12T08:16:46.000Z</time>
      </trkpt>
      <trkpt lat="42.46989" lon="3.00643">
        <ele>990.79998779297</ele>
        <time>2023-07-12T08:16:54.000Z</time>
      </trkpt>
      <trkpt lat="42.46991" lon="3.00638">
        <ele>991.79998779297</ele>
        <time>2023-07-12T08:17:00.000Z</time>
      </trkpt>
      <trkpt lat="42.46991" lon="3.0063">
        <ele>993</ele>
        <time>2023-07-12T08:17:07.000Z</time>
      </trkpt>
      <trkpt lat="42.46991" lon="3.00629">
        <ele>993</ele>
        <time>2023-07-12T08:17:08.000Z</time>
      </trkpt>
      <trkpt lat="42.46993" lon="3.00623">
        <ele>994</ele>
        <time>2023-07-12T08:17:16.000Z</time>
      </trkpt>
      <trkpt lat="42.46993" lon="3.00621">
        <ele>994.20001220703</ele>
        <time>2023-07-12T08:17:17.000Z</time>
      </trkpt>
      <trkpt lat="42.46994" lon="3.00617">
        <ele>995.20001220703</ele>
        <time>2023-07-12T08:17:22.000Z</time>
      </trkpt>
      <trkpt lat="42.46994" lon="3.00616">
        <ele>995.40002441406</ele>
        <time>2023-07-12T08:17:23.000Z</time>
      </trkpt>
      <trkpt lat="42.46995" lon="3.0061">
        <ele>996.20001220703</ele>
        <time>2023-07-12T08:17:29.000Z</time>
      </trkpt>
      <trkpt lat="42.46997" lon="3.00609">
        <ele>996.79998779297</ele>
        <time>2023-07-12T08:17:32.000Z</time>
      </trkpt>
      <trkpt lat="42.47" lon="3.00606">
        <ele>997.59997558594</ele>
        <time>2023-07-12T08:17:37.000Z</time>
      </trkpt>
      <trkpt lat="42.47004" lon="3.00603">
        <ele>998.20001220703</ele>
        <time>2023-07-12T08:17:42.000Z</time>
      </trkpt>
      <trkpt lat="42.47004" lon="3.00603">
        <ele>998.59997558594</ele>
        <time>2023-07-12T08:17:44.000Z</time>
      </trkpt>
      <trkpt lat="42.47007" lon="3.00598">
        <ele>999</ele>
        <time>2023-07-12T08:17:50.000Z</time>
      </trkpt>
      <trkpt lat="42.47012" lon="3.00591">
        <ele>999.59997558594</ele>
        <time>2023-07-12T08:17:58.000Z</time>
      </trkpt>
      <trkpt lat="42.47012" lon="3.0059">
        <ele>999.79998779297</ele>
        <time>2023-07-12T08:17:59.000Z</time>
      </trkpt>
      <trkpt lat="42.47017" lon="3.00583">
        <ele>1000.799987793</ele>
        <time>2023-07-12T08:18:06.000Z</time>
      </trkpt>
      <trkpt lat="42.47021" lon="3.00575">
        <ele>1001</ele>
        <time>2023-07-12T08:18:15.000Z</time>
      </trkpt>
      <trkpt lat="42.47024" lon="3.00567">
        <ele>1001.799987793</ele>
        <time>2023-07-12T08:18:21.000Z</time>
      </trkpt>
      <trkpt lat="42.47026" lon="3.00561">
        <ele>1002.799987793</ele>
        <time>2023-07-12T08:18:29.000Z</time>
      </trkpt>
      <trkpt lat="42.47027" lon="3.0056">
        <ele>1002.799987793</ele>
        <time>2023-07-12T08:18:30.000Z</time>
      </trkpt>
      <trkpt lat="42.47028" lon="3.0055">
        <ele>1003.799987793</ele>
        <time>2023-07-12T08:18:36.000Z</time>
      </trkpt>
      <trkpt lat="42.47028" lon="3.00548">
        <ele>1004</ele>
        <time>2023-07-12T08:18:38.000Z</time>
      </trkpt>
      <trkpt lat="42.47028" lon="3.0054">
        <ele>1005</ele>
        <time>2023-07-12T08:18:44.000Z</time>
      </trkpt>
      <trkpt lat="42.47028" lon="3.00539">
        <ele>1005.200012207</ele>
        <time>2023-07-12T08:18:45.000Z</time>
      </trkpt>
      <trkpt lat="42.47028" lon="3.00529">
        <ele>1006</ele>
        <time>2023-07-12T08:18:53.000Z</time>
      </trkpt>
      <trkpt lat="42.47028" lon="3.00528">
        <ele>1006.200012207</ele>
        <time>2023-07-12T08:18:54.000Z</time>
      </trkpt>
      <trkpt lat="42.47029" lon="3.00521">
        <ele>1007.200012207</ele>
        <time>2023-07-12T08:18:59.000Z</time>
      </trkpt>
      <trkpt lat="42.47029" lon="3.00518">
        <ele>1007.799987793</ele>
        <time>2023-07-12T08:19:02.000Z</time>
      </trkpt>
      <trkpt lat="42.47029" lon="3.00515">
        <ele>1008.200012207</ele>
        <time>2023-07-12T08:19:04.000Z</time>
      </trkpt>
      <trkpt lat="42.47028" lon="3.00506">
        <ele>1009.4000244141</ele>
        <time>2023-07-12T08:19:10.000Z</time>
      </trkpt>
      <trkpt lat="42.4703" lon="3.00494">
        <ele>1010.5999755859</ele>
        <time>2023-07-12T08:19:18.000Z</time>
      </trkpt>
      <trkpt lat="42.4703" lon="3.00493">
        <ele>1010.799987793</ele>
        <time>2023-07-12T08:19:19.000Z</time>
      </trkpt>
      <trkpt lat="42.47032" lon="3.00484">
        <ele>1011.799987793</ele>
        <time>2023-07-12T08:19:26.000Z</time>
      </trkpt>
      <trkpt lat="42.47033" lon="3.00478">
        <ele>1012.799987793</ele>
        <time>2023-07-12T08:19:32.000Z</time>
      </trkpt>
      <trkpt lat="42.47034" lon="3.00474">
        <ele>1012.799987793</ele>
        <time>2023-07-12T08:19:34.000Z</time>
      </trkpt>
      <trkpt lat="42.47034" lon="3.00467">
        <ele>1013.4000244141</ele>
        <time>2023-07-12T08:19:40.000Z</time>
      </trkpt>
      <trkpt lat="42.47034" lon="3.00463">
        <ele>1014</ele>
        <time>2023-07-12T08:19:43.000Z</time>
      </trkpt>
      <trkpt lat="42.47034" lon="3.00458">
        <ele>1014.5999755859</ele>
        <time>2023-07-12T08:19:47.000Z</time>
      </trkpt>
      <trkpt lat="42.47034" lon="3.00453">
        <ele>1015.200012207</ele>
        <time>2023-07-12T08:19:51.000Z</time>
      </trkpt>
      <trkpt lat="42.47035" lon="3.00447">
        <ele>1015.5999755859</ele>
        <time>2023-07-12T08:19:56.000Z</time>
      </trkpt>
      <trkpt lat="42.47036" lon="3.00441">
        <ele>1016.200012207</ele>
        <time>2023-07-12T08:20:00.000Z</time>
      </trkpt>
      <trkpt lat="42.47036" lon="3.00435">
        <ele>1016.5999755859</ele>
        <time>2023-07-12T08:20:04.000Z</time>
      </trkpt>
      <trkpt lat="42.47036" lon="3.0043">
        <ele>1017.200012207</ele>
        <time>2023-07-12T08:20:08.000Z</time>
      </trkpt>
      <trkpt lat="42.47037" lon="3.00424">
        <ele>1018.200012207</ele>
        <time>2023-07-12T08:20:13.000Z</time>
      </trkpt>
      <trkpt lat="42.47038" lon="3.00423">
        <ele>1018.4000244141</ele>
        <time>2023-07-12T08:20:14.000Z</time>
      </trkpt>
      <trkpt lat="42.4704" lon="3.00412">
        <ele>1019.200012207</ele>
        <time>2023-07-12T08:20:23.000Z</time>
      </trkpt>
      <trkpt lat="42.47042" lon="3.00409">
        <ele>1019.4000244141</ele>
        <time>2023-07-12T08:20:26.000Z</time>
      </trkpt>
      <trkpt lat="42.47044" lon="3.00402">
        <ele>1020.200012207</ele>
        <time>2023-07-12T08:20:31.000Z</time>
      </trkpt>
      <trkpt lat="42.47044" lon="3.00398">
        <ele>1020.4000244141</ele>
        <time>2023-07-12T08:20:34.000Z</time>
      </trkpt>
      <trkpt lat="42.47046" lon="3.00389">
        <ele>1021.4000244141</ele>
        <time>2023-07-12T08:20:41.000Z</time>
      </trkpt>
      <trkpt lat="42.47047" lon="3.00386">
        <ele>1021.4000244141</ele>
        <time>2023-07-12T08:20:43.000Z</time>
      </trkpt>
      <trkpt lat="42.4705" lon="3.0038">
        <ele>1022.200012207</ele>
        <time>2023-07-12T08:20:48.000Z</time>
      </trkpt>
      <trkpt lat="42.47052" lon="3.00378">
        <ele>1022.4000244141</ele>
        <time>2023-07-12T08:20:50.000Z</time>
      </trkpt>
      <trkpt lat="42.47054" lon="3.00374">
        <ele>1023.200012207</ele>
        <time>2023-07-12T08:20:54.000Z</time>
      </trkpt>
      <trkpt lat="42.47056" lon="3.00371">
        <ele>1023.5999755859</ele>
        <time>2023-07-12T08:20:58.000Z</time>
      </trkpt>
      <trkpt lat="42.4706" lon="3.00365">
        <ele>1023.5999755859</ele>
        <time>2023-07-12T08:21:03.000Z</time>
      </trkpt>
      <trkpt lat="42.47062" lon="3.00361">
        <ele>1025</ele>
        <time>2023-07-12T08:21:06.000Z</time>
      </trkpt>
      <trkpt lat="42.47066" lon="3.00353">
        <ele>1025.5999755859</ele>
        <time>2023-07-12T08:21:13.000Z</time>
      </trkpt>
      <trkpt lat="42.47068" lon="3.0035">
        <ele>1026</ele>
        <time>2023-07-12T08:21:15.000Z</time>
      </trkpt>
      <trkpt lat="42.47073" lon="3.00345">
        <ele>1026.5999755859</ele>
        <time>2023-07-12T08:21:21.000Z</time>
      </trkpt>
      <trkpt lat="42.47074" lon="3.00344">
        <ele>1027</ele>
        <time>2023-07-12T08:21:23.000Z</time>
      </trkpt>
      <trkpt lat="42.47081" lon="3.00336">
        <ele>1027.5999755859</ele>
        <time>2023-07-12T08:21:30.000Z</time>
      </trkpt>
      <trkpt lat="42.47082" lon="3.00334">
        <ele>1028</ele>
        <time>2023-07-12T08:21:33.000Z</time>
      </trkpt>
      <trkpt lat="42.47086" lon="3.00329">
        <ele>1028.8000488281</ele>
        <time>2023-07-12T08:21:38.000Z</time>
      </trkpt>
      <trkpt lat="42.47087" lon="3.00327">
        <ele>1029.1999511719</ele>
        <time>2023-07-12T08:21:40.000Z</time>
      </trkpt>
      <trkpt lat="42.4709" lon="3.00327">
        <ele>1029.5999755859</ele>
        <time>2023-07-12T08:21:45.000Z</time>
      </trkpt>
      <trkpt lat="42.47092" lon="3.00326">
        <ele>1030.4000244141</ele>
        <time>2023-07-12T08:21:49.000Z</time>
      </trkpt>
      <trkpt lat="42.47093" lon="3.00324">
        <ele>1031</ele>
        <time>2023-07-12T08:21:52.000Z</time>
      </trkpt>
      <trkpt lat="42.47095" lon="3.00323">
        <ele>1031.4000244141</ele>
        <time>2023-07-12T08:21:54.000Z</time>
      </trkpt>
      <trkpt lat="42.47098" lon="3.00316">
        <ele>1032.4000244141</ele>
        <time>2023-07-12T08:22:01.000Z</time>
      </trkpt>
      <trkpt lat="42.471" lon="3.00312">
        <ele>1033.4000244141</ele>
        <time>2023-07-12T08:22:07.000Z</time>
      </trkpt>
      <trkpt lat="42.47102" lon="3.00309">
        <ele>1034.4000244141</ele>
        <time>2023-07-12T08:22:12.000Z</time>
      </trkpt>
      <trkpt lat="42.47102" lon="3.00309">
        <ele>1034.5999755859</ele>
        <time>2023-07-12T08:22:13.000Z</time>
      </trkpt>
      <trkpt lat="42.47106" lon="3.00305">
        <ele>1035.4000244141</ele>
        <time>2023-07-12T08:22:20.000Z</time>
      </trkpt>
      <trkpt lat="42.47106" lon="3.00305">
        <ele>1035.8000488281</ele>
        <time>2023-07-12T08:22:22.000Z</time>
      </trkpt>
      <trkpt lat="42.47108" lon="3.00303">
        <ele>1036.8000488281</ele>
        <time>2023-07-12T08:22:28.000Z</time>
      </trkpt>
      <trkpt lat="42.47112" lon="3.00304">
        <ele>1036.8000488281</ele>
        <time>2023-07-12T08:22:32.000Z</time>
      </trkpt>
      <trkpt lat="42.47113" lon="3.00304">
        <ele>1037.1999511719</ele>
        <time>2023-07-12T08:22:36.000Z</time>
      </trkpt>
      <trkpt lat="42.47115" lon="3.00303">
        <ele>1038</ele>
        <time>2023-07-12T08:22:38.000Z</time>
      </trkpt>
      <trkpt lat="42.47118" lon="3.003">
        <ele>1038.8000488281</ele>
        <time>2023-07-12T08:22:44.000Z</time>
      </trkpt>
      <trkpt lat="42.47123" lon="3.003">
        <ele>1039.1999511719</ele>
        <time>2023-07-12T08:22:49.000Z</time>
      </trkpt>
      <trkpt lat="42.47125" lon="3.003">
        <ele>1039.5999755859</ele>
        <time>2023-07-12T08:22:52.000Z</time>
      </trkpt>
      <trkpt lat="42.47128" lon="3.003">
        <ele>1040.1999511719</ele>
        <time>2023-07-12T08:22:56.000Z</time>
      </trkpt>
      <trkpt lat="42.47131" lon="3.00299">
        <ele>1041</ele>
        <time>2023-07-12T08:23:00.000Z</time>
      </trkpt>
      <trkpt lat="42.47132" lon="3.00299">
        <ele>1041.5999755859</ele>
        <time>2023-07-12T08:23:01.000Z</time>
      </trkpt>
      <trkpt lat="42.47139" lon="3.00299">
        <ele>1042.4000244141</ele>
        <time>2023-07-12T08:23:09.000Z</time>
      </trkpt>
      <trkpt lat="42.47141" lon="3.00299">
        <ele>1042.5999755859</ele>
        <time>2023-07-12T08:23:11.000Z</time>
      </trkpt>
      <trkpt lat="42.47143" lon="3.00296">
        <ele>1043.4000244141</ele>
        <time>2023-07-12T08:23:17.000Z</time>
      </trkpt>
      <trkpt lat="42.47143" lon="3.00296">
        <ele>1043.5999755859</ele>
        <time>2023-07-12T08:23:18.000Z</time>
      </trkpt>
      <trkpt lat="42.47147" lon="3.00293">
        <ele>1044.5999755859</ele>
        <time>2023-07-12T08:23:26.000Z</time>
      </trkpt>
      <trkpt lat="42.47148" lon="3.00293">
        <ele>1045.1999511719</ele>
        <time>2023-07-12T08:23:28.000Z</time>
      </trkpt>
      <trkpt lat="42.47152" lon="3.00291">
        <ele>1045.8000488281</ele>
        <time>2023-07-12T08:23:34.000Z</time>
      </trkpt>
      <trkpt lat="42.47153" lon="3.0029">
        <ele>1046.1999511719</ele>
        <time>2023-07-12T08:23:36.000Z</time>
      </trkpt>
      <trkpt lat="42.47154" lon="3.0029">
        <ele>1046.8000488281</ele>
        <time>2023-07-12T08:23:39.000Z</time>
      </trkpt>
      <trkpt lat="42.47158" lon="3.00289">
        <ele>1047.5999755859</ele>
        <time>2023-07-12T08:23:43.000Z</time>
      </trkpt>
      <trkpt lat="42.47158" lon="3.00289">
        <ele>1047.8000488281</ele>
        <time>2023-07-12T08:23:44.000Z</time>
      </trkpt>
      <trkpt lat="42.4716" lon="3.00289">
        <ele>1049</ele>
        <time>2023-07-12T08:23:51.000Z</time>
      </trkpt>
      <trkpt lat="42.47166" lon="3.00289">
        <ele>1050.1999511719</ele>
        <time>2023-07-12T08:23:57.000Z</time>
      </trkpt>
      <trkpt lat="42.47166" lon="3.0029">
        <ele>1050.4000244141</ele>
        <time>2023-07-12T08:23:59.000Z</time>
      </trkpt>
      <trkpt lat="42.4717" lon="3.00289">
        <ele>1051.4000244141</ele>
        <time>2023-07-12T08:24:05.000Z</time>
      </trkpt>
      <trkpt lat="42.47173" lon="3.00288">
        <ele>1052.4000244141</ele>
        <time>2023-07-12T08:24:11.000Z</time>
      </trkpt>
      <trkpt lat="42.47174" lon="3.00287">
        <ele>1052.8000488281</ele>
        <time>2023-07-12T08:24:13.000Z</time>
      </trkpt>
      <trkpt lat="42.47176" lon="3.00287">
        <ele>1053.5999755859</ele>
        <time>2023-07-12T08:24:17.000Z</time>
      </trkpt>
      <trkpt lat="42.47178" lon="3.00286">
        <ele>1054</ele>
        <time>2023-07-12T08:24:20.000Z</time>
      </trkpt>
      <trkpt lat="42.47179" lon="3.00285">
        <ele>1054.5999755859</ele>
        <time>2023-07-12T08:24:24.000Z</time>
      </trkpt>
      <trkpt lat="42.4718" lon="3.00285">
        <ele>1055.4000244141</ele>
        <time>2023-07-12T08:24:28.000Z</time>
      </trkpt>
      <trkpt lat="42.47182" lon="3.00284">
        <ele>1056</ele>
        <time>2023-07-12T08:24:32.000Z</time>
      </trkpt>
      <trkpt lat="42.47184" lon="3.00283">
        <ele>1057</ele>
        <time>2023-07-12T08:24:37.000Z</time>
      </trkpt>
      <trkpt lat="42.47185" lon="3.00283">
        <ele>1057.1999511719</ele>
        <time>2023-07-12T08:24:38.000Z</time>
      </trkpt>
      <trkpt lat="42.47186" lon="3.00278">
        <ele>1058</ele>
        <time>2023-07-12T08:24:44.000Z</time>
      </trkpt>
      <trkpt lat="42.47186" lon="3.00277">
        <ele>1058.1999511719</ele>
        <time>2023-07-12T08:24:45.000Z</time>
      </trkpt>
      <trkpt lat="42.47189" lon="3.00272">
        <ele>1059.1999511719</ele>
        <time>2023-07-12T08:24:52.000Z</time>
      </trkpt>
      <trkpt lat="42.4719" lon="3.00272">
        <ele>1059.1999511719</ele>
        <time>2023-07-12T08:24:53.000Z</time>
      </trkpt>
      <trkpt lat="42.47192" lon="3.00271">
        <ele>1060.1999511719</ele>
        <time>2023-07-12T08:24:57.000Z</time>
      </trkpt>
      <trkpt lat="42.47192" lon="3.0027">
        <ele>1060.5999755859</ele>
        <time>2023-07-12T08:25:00.000Z</time>
      </trkpt>
      <trkpt lat="42.47193" lon="3.00269">
        <ele>1061.4000244141</ele>
        <time>2023-07-12T08:25:03.000Z</time>
      </trkpt>
      <trkpt lat="42.47195" lon="3.00267">
        <ele>1062.1999511719</ele>
        <time>2023-07-12T08:25:07.000Z</time>
      </trkpt>
      <trkpt lat="42.47195" lon="3.00267">
        <ele>1062.4000244141</ele>
        <time>2023-07-12T08:25:08.000Z</time>
      </trkpt>
      <trkpt lat="42.47198" lon="3.00265">
        <ele>1063.4000244141</ele>
        <time>2023-07-12T08:25:15.000Z</time>
      </trkpt>
      <trkpt lat="42.47199" lon="3.00264">
        <ele>1063.5999755859</ele>
        <time>2023-07-12T08:25:16.000Z</time>
      </trkpt>
      <trkpt lat="42.472" lon="3.00264">
        <ele>1064.8000488281</ele>
        <time>2023-07-12T08:25:22.000Z</time>
      </trkpt>
      <trkpt lat="42.47204" lon="3.00266">
        <ele>1065.8000488281</ele>
        <time>2023-07-12T08:25:29.000Z</time>
      </trkpt>
      <trkpt lat="42.47204" lon="3.00265">
        <ele>1066.1999511719</ele>
        <time>2023-07-12T08:25:31.000Z</time>
      </trkpt>
      <trkpt lat="42.47204" lon="3.00264">
        <ele>1067</ele>
        <time>2023-07-12T08:25:35.000Z</time>
      </trkpt>
      <trkpt lat="42.47204" lon="3.00263">
        <ele>1067.5999755859</ele>
        <time>2023-07-12T08:25:38.000Z</time>
      </trkpt>
      <trkpt lat="42.47204" lon="3.00263">
        <ele>1068</ele>
        <time>2023-07-12T08:25:41.000Z</time>
      </trkpt>
      <trkpt lat="42.47206" lon="3.00259">
        <ele>1068.8000488281</ele>
        <time>2023-07-12T08:25:46.000Z</time>
      </trkpt>
      <trkpt lat="42.47207" lon="3.00259">
        <ele>1069.1999511719</ele>
        <time>2023-07-12T08:25:49.000Z</time>
      </trkpt>
      <trkpt lat="42.4721" lon="3.00259">
        <ele>1070</ele>
        <time>2023-07-12T08:25:54.000Z</time>
      </trkpt>
      <trkpt lat="42.4721" lon="3.00259">
        <ele>1070.1999511719</ele>
        <time>2023-07-12T08:25:56.000Z</time>
      </trkpt>
      <trkpt lat="42.47211" lon="3.00262">
        <ele>1071</ele>
        <time>2023-07-12T08:26:02.000Z</time>
      </trkpt>
      <trkpt lat="42.47211" lon="3.00261">
        <ele>1071.4000244141</ele>
        <time>2023-07-12T08:26:05.000Z</time>
      </trkpt>
      <trkpt lat="42.47213" lon="3.00261">
        <ele>1072</ele>
        <time>2023-07-12T08:26:09.000Z</time>
      </trkpt>
      <trkpt lat="42.47215" lon="3.00261">
        <ele>1072.5999755859</ele>
        <time>2023-07-12T08:26:12.000Z</time>
      </trkpt>
      <trkpt lat="42.47216" lon="3.00259">
        <ele>1073.4000244141</ele>
        <time>2023-07-12T08:26:17.000Z</time>
      </trkpt>
      <trkpt lat="42.47217" lon="3.00258">
        <ele>1073.5999755859</ele>
        <time>2023-07-12T08:26:19.000Z</time>
      </trkpt>
      <trkpt lat="42.47218" lon="3.00256">
        <ele>1074.1999511719</ele>
        <time>2023-07-12T08:26:25.000Z</time>
      </trkpt>
      <trkpt lat="42.4722" lon="3.00256">
        <ele>1074.8000488281</ele>
        <time>2023-07-12T08:26:27.000Z</time>
      </trkpt>
      <trkpt lat="42.47222" lon="3.00256">
        <ele>1075.4000244141</ele>
        <time>2023-07-12T08:26:32.000Z</time>
      </trkpt>
      <trkpt lat="42.47222" lon="3.00253">
        <ele>1075.8000488281</ele>
        <time>2023-07-12T08:26:37.000Z</time>
      </trkpt>
      <trkpt lat="42.47223" lon="3.00251">
        <ele>1076</ele>
        <time>2023-07-12T08:26:39.000Z</time>
      </trkpt>
      <trkpt lat="42.47223" lon="3.00248">
        <ele>1076.8000488281</ele>
        <time>2023-07-12T08:26:43.000Z</time>
      </trkpt>
      <trkpt lat="42.47224" lon="3.00245">
        <ele>1077.1999511719</ele>
        <time>2023-07-12T08:26:46.000Z</time>
      </trkpt>
      <trkpt lat="42.47225" lon="3.00244">
        <ele>1077.5999755859</ele>
        <time>2023-07-12T08:26:50.000Z</time>
      </trkpt>
      <trkpt lat="42.47225" lon="3.00244">
        <ele>1077.8000488281</ele>
        <time>2023-07-12T08:26:51.000Z</time>
      </trkpt>
      <trkpt lat="42.47226" lon="3.00242">
        <ele>1078.1999511719</ele>
        <time>2023-07-12T08:26:55.000Z</time>
      </trkpt>
      <trkpt lat="42.47226" lon="3.0024">
        <ele>1078.8000488281</ele>
        <time>2023-07-12T08:26:59.000Z</time>
      </trkpt>
      <trkpt lat="42.47228" lon="3.00237">
        <ele>1079.5999755859</ele>
        <time>2023-07-12T08:27:04.000Z</time>
      </trkpt>
      <trkpt lat="42.47229" lon="3.00237">
        <ele>1080</ele>
        <time>2023-07-12T08:27:05.000Z</time>
      </trkpt>
      <trkpt lat="42.4723" lon="3.00233">
        <ele>1081</ele>
        <time>2023-07-12T08:27:12.000Z</time>
      </trkpt>
      <trkpt lat="42.47231" lon="3.00232">
        <ele>1081.1999511719</ele>
        <time>2023-07-12T08:27:13.000Z</time>
      </trkpt>
      <trkpt lat="42.47233" lon="3.00228">
        <ele>1082</ele>
        <time>2023-07-12T08:27:19.000Z</time>
      </trkpt>
      <trkpt lat="42.47233" lon="3.00226">
        <ele>1082.4000244141</ele>
        <time>2023-07-12T08:27:21.000Z</time>
      </trkpt>
      <trkpt lat="42.47234" lon="3.00221">
        <ele>1083.1999511719</ele>
        <time>2023-07-12T08:27:27.000Z</time>
      </trkpt>
      <trkpt lat="42.47236" lon="3.00215">
        <ele>1084</ele>
        <time>2023-07-12T08:27:34.000Z</time>
      </trkpt>
      <trkpt lat="42.47236" lon="3.00214">
        <ele>1084.1999511719</ele>
        <time>2023-07-12T08:27:35.000Z</time>
      </trkpt>
      <trkpt lat="42.47236" lon="3.00211">
        <ele>1085.1999511719</ele>
        <time>2023-07-12T08:27:42.000Z</time>
      </trkpt>
      <trkpt lat="42.47236" lon="3.0021">
        <ele>1085.4000244141</ele>
        <time>2023-07-12T08:27:43.000Z</time>
      </trkpt>
      <trkpt lat="42.47238" lon="3.00205">
        <ele>1086.1999511719</ele>
        <time>2023-07-12T08:27:50.000Z</time>
      </trkpt>
      <trkpt lat="42.47238" lon="3.00203">
        <ele>1086.4000244141</ele>
        <time>2023-07-12T08:27:51.000Z</time>
      </trkpt>
      <trkpt lat="42.4724" lon="3.00199">
        <ele>1087.4000244141</ele>
        <time>2023-07-12T08:27:56.000Z</time>
      </trkpt>
      <trkpt lat="42.4724" lon="3.00198">
        <ele>1087.5999755859</ele>
        <time>2023-07-12T08:27:58.000Z</time>
      </trkpt>
      <trkpt lat="42.47243" lon="3.00192">
        <ele>1088.5999755859</ele>
        <time>2023-07-12T08:28:05.000Z</time>
      </trkpt>
      <trkpt lat="42.47243" lon="3.00192">
        <ele>1088.5999755859</ele>
        <time>2023-07-12T08:28:06.000Z</time>
      </trkpt>
      <trkpt lat="42.47247" lon="3.00186">
        <ele>1089.8000488281</ele>
        <time>2023-07-12T08:28:15.000Z</time>
      </trkpt>
      <trkpt lat="42.47248" lon="3.00185">
        <ele>1089.8000488281</ele>
        <time>2023-07-12T08:28:16.000Z</time>
      </trkpt>
      <trkpt lat="42.47251" lon="3.00183">
        <ele>1090.8000488281</ele>
        <time>2023-07-12T08:28:21.000Z</time>
      </trkpt>
      <trkpt lat="42.47252" lon="3.00181">
        <ele>1091</ele>
        <time>2023-07-12T08:28:24.000Z</time>
      </trkpt>
      <trkpt lat="42.47256" lon="3.00177">
        <ele>1091.8000488281</ele>
        <time>2023-07-12T08:28:33.000Z</time>
      </trkpt>
      <trkpt lat="42.47257" lon="3.00177">
        <ele>1092</ele>
        <time>2023-07-12T08:28:34.000Z</time>
      </trkpt>
      <trkpt lat="42.4726" lon="3.00174">
        <ele>1092.8000488281</ele>
        <time>2023-07-12T08:28:40.000Z</time>
      </trkpt>
      <trkpt lat="42.47261" lon="3.00172">
        <ele>1093</ele>
        <time>2023-07-12T08:28:42.000Z</time>
      </trkpt>
      <trkpt lat="42.47263" lon="3.00165">
        <ele>1094.1999511719</ele>
        <time>2023-07-12T08:28:47.000Z</time>
      </trkpt>
      <trkpt lat="42.47263" lon="3.00164">
        <ele>1094.1999511719</ele>
        <time>2023-07-12T08:28:48.000Z</time>
      </trkpt>
      <trkpt lat="42.47266" lon="3.00156">
        <ele>1095.1999511719</ele>
        <time>2023-07-12T08:28:55.000Z</time>
      </trkpt>
      <trkpt lat="42.47267" lon="3.00153">
        <ele>1095.5999755859</ele>
        <time>2023-07-12T08:28:59.000Z</time>
      </trkpt>
      <trkpt lat="42.4727" lon="3.00149">
        <ele>1096.1999511719</ele>
        <time>2023-07-12T08:29:04.000Z</time>
      </trkpt>
      <trkpt lat="42.47272" lon="3.00148">
        <ele>1096.5999755859</ele>
        <time>2023-07-12T08:29:07.000Z</time>
      </trkpt>
      <trkpt lat="42.47275" lon="3.00144">
        <ele>1097.4000244141</ele>
        <time>2023-07-12T08:29:11.000Z</time>
      </trkpt>
      <trkpt lat="42.47278" lon="3.00138">
        <ele>1098.1999511719</ele>
        <time>2023-07-12T08:29:17.000Z</time>
      </trkpt>
      <trkpt lat="42.47279" lon="3.00136">
        <ele>1098.8000488281</ele>
        <time>2023-07-12T08:29:19.000Z</time>
      </trkpt>
      <trkpt lat="42.47278" lon="3.00128">
        <ele>1099.8000488281</ele>
        <time>2023-07-12T08:29:26.000Z</time>
      </trkpt>
      <trkpt lat="42.47278" lon="3.00127">
        <ele>1100</ele>
        <time>2023-07-12T08:29:27.000Z</time>
      </trkpt>
      <trkpt lat="42.47279" lon="3.00122">
        <ele>1100.5999755859</ele>
        <time>2023-07-12T08:29:33.000Z</time>
      </trkpt>
      <trkpt lat="42.4728" lon="3.00117">
        <ele>1100.4000244141</ele>
        <time>2023-07-12T08:29:40.000Z</time>
      </trkpt>
      <trkpt lat="42.4728" lon="3.00117">
        <ele>1100.4000244141</ele>
        <time>2023-07-12T08:29:41.000Z</time>
      </trkpt>
      <trkpt lat="42.47281" lon="3.00113">
        <ele>1100.8000488281</ele>
        <time>2023-07-12T08:29:48.000Z</time>
      </trkpt>
      <trkpt lat="42.47282" lon="3.0011">
        <ele>1101</ele>
        <time>2023-07-12T08:29:50.000Z</time>
      </trkpt>
      <trkpt lat="42.47285" lon="3.00104">
        <ele>1102.1999511719</ele>
        <time>2023-07-12T08:29:56.000Z</time>
      </trkpt>
      <trkpt lat="42.47286" lon="3.00102">
        <ele>1102.4000244141</ele>
        <time>2023-07-12T08:29:58.000Z</time>
      </trkpt>
      <trkpt lat="42.4729" lon="3.00095">
        <ele>1103.1999511719</ele>
        <time>2023-07-12T08:30:04.000Z</time>
      </trkpt>
      <trkpt lat="42.47292" lon="3.00091">
        <ele>1103.5999755859</ele>
        <time>2023-07-12T08:30:07.000Z</time>
      </trkpt>
      <trkpt lat="42.47294" lon="3.00084">
        <ele>1104.1999511719</ele>
        <time>2023-07-12T08:30:12.000Z</time>
      </trkpt>
      <trkpt lat="42.47297" lon="3.00076">
        <ele>1105.1999511719</ele>
        <time>2023-07-12T08:30:19.000Z</time>
      </trkpt>
      <trkpt lat="42.47299" lon="3.00074">
        <ele>1105.4000244141</ele>
        <time>2023-07-12T08:30:21.000Z</time>
      </trkpt>
      <trkpt lat="42.473" lon="3.0007">
        <ele>1106.4000244141</ele>
        <time>2023-07-12T08:30:25.000Z</time>
      </trkpt>
      <trkpt lat="42.47302" lon="3.00067">
        <ele>1106.5999755859</ele>
        <time>2023-07-12T08:30:29.000Z</time>
      </trkpt>
      <trkpt lat="42.47306" lon="3.0006">
        <ele>1107.1999511719</ele>
        <time>2023-07-12T08:30:36.000Z</time>
      </trkpt>
      <trkpt lat="42.47308" lon="3.00058">
        <ele>1107.5999755859</ele>
        <time>2023-07-12T08:30:39.000Z</time>
      </trkpt>
      <trkpt lat="42.47312" lon="3.0005">
        <ele>1108.4000244141</ele>
        <time>2023-07-12T08:30:45.000Z</time>
      </trkpt>
      <trkpt lat="42.47313" lon="3.00049">
        <ele>1108.5999755859</ele>
        <time>2023-07-12T08:30:47.000Z</time>
      </trkpt>
      <trkpt lat="42.47316" lon="3.00043">
        <ele>1109.1999511719</ele>
        <time>2023-07-12T08:30:52.000Z</time>
      </trkpt>
      <trkpt lat="42.47321" lon="3.00033">
        <ele>1109.5999755859</ele>
        <time>2023-07-12T08:31:00.000Z</time>
      </trkpt>
      <trkpt lat="42.47321" lon="3.00032">
        <ele>1109.8000488281</ele>
        <time>2023-07-12T08:31:01.000Z</time>
      </trkpt>
      <trkpt lat="42.47325" lon="3.00024">
        <ele>1110.5999755859</ele>
        <time>2023-07-12T08:31:08.000Z</time>
      </trkpt>
      <trkpt lat="42.47326" lon="3.00023">
        <ele>1110.5999755859</ele>
        <time>2023-07-12T08:31:09.000Z</time>
      </trkpt>
      <trkpt lat="42.47329" lon="3.00012">
        <ele>1111.5999755859</ele>
        <time>2023-07-12T08:31:17.000Z</time>
      </trkpt>
      <trkpt lat="42.4733" lon="3.00009">
        <ele>1111.8000488281</ele>
        <time>2023-07-12T08:31:19.000Z</time>
      </trkpt>
      <trkpt lat="42.47334" lon="3">
        <ele>1112.4000244141</ele>
        <time>2023-07-12T08:31:27.000Z</time>
      </trkpt>
      <trkpt lat="42.47336" lon="2.99997">
        <ele>1112.8000488281</ele>
        <time>2023-07-12T08:31:30.000Z</time>
      </trkpt>
      <trkpt lat="42.4734" lon="2.99989">
        <ele>1113.8000488281</ele>
        <time>2023-07-12T08:31:37.000Z</time>
      </trkpt>
      <trkpt lat="42.47343" lon="2.99983">
        <ele>1114.8000488281</ele>
        <time>2023-07-12T08:31:44.000Z</time>
      </trkpt>
      <trkpt lat="42.47345" lon="2.99979">
        <ele>1116</ele>
        <time>2023-07-12T08:31:49.000Z</time>
      </trkpt>
      <trkpt lat="42.47347" lon="2.99977">
        <ele>1116.4000244141</ele>
        <time>2023-07-12T08:31:52.000Z</time>
      </trkpt>
      <trkpt lat="42.47351" lon="2.99968">
        <ele>1117</ele>
        <time>2023-07-12T08:31:59.000Z</time>
      </trkpt>
      <trkpt lat="42.47352" lon="2.99967">
        <ele>1117.1999511719</ele>
        <time>2023-07-12T08:32:00.000Z</time>
      </trkpt>
      <trkpt lat="42.47355" lon="2.99966">
        <ele>1117.4000244141</ele>
        <time>2023-07-12T08:32:04.000Z</time>
      </trkpt>
      <trkpt lat="42.47356" lon="2.99965">
        <ele>1117.4000244141</ele>
        <time>2023-07-12T08:32:06.000Z</time>
      </trkpt>
      <trkpt lat="42.47355" lon="2.99964">
        <ele>1117.1999511719</ele>
        <time>2023-07-12T08:32:08.000Z</time>
      </trkpt>
      <trkpt lat="42.47356" lon="2.99958">
        <ele>1117.1999511719</ele>
        <time>2023-07-12T08:32:12.000Z</time>
      </trkpt>
      <trkpt lat="42.47355" lon="2.99943">
        <ele>1117.4000244141</ele>
        <time>2023-07-12T08:32:22.000Z</time>
      </trkpt>
      <trkpt lat="42.47357" lon="2.99927">
        <ele>1117.4000244141</ele>
        <time>2023-07-12T08:32:30.000Z</time>
      </trkpt>
      <trkpt lat="42.47357" lon="2.9993">
        <ele>1117.5999755859</ele>
        <time>2023-07-12T08:32:35.000Z</time>
      </trkpt>
      <trkpt lat="42.47359" lon="2.99933">
        <ele>1118</ele>
        <time>2023-07-12T08:32:42.000Z</time>
      </trkpt>
      <trkpt lat="42.47359" lon="2.99934">
        <ele>1118.1999511719</ele>
        <time>2023-07-12T08:32:46.000Z</time>
      </trkpt>
      <trkpt lat="42.47359" lon="2.99937">
        <ele>1118.1999511719</ele>
        <time>2023-07-12T08:32:51.000Z</time>
      </trkpt>
      <trkpt lat="42.4736" lon="2.99938">
        <ele>1118.1999511719</ele>
        <time>2023-07-12T08:32:58.000Z</time>
      </trkpt>
      <trkpt lat="42.47362" lon="2.99938">
        <ele>1118.4000244141</ele>
        <time>2023-07-12T08:33:09.000Z</time>
      </trkpt>
      <trkpt lat="42.47359" lon="2.99933">
        <ele>1118.5999755859</ele>
        <time>2023-07-12T08:33:17.000Z</time>
      </trkpt>
      <trkpt lat="42.47356" lon="2.99936">
        <ele>1118.5999755859</ele>
        <time>2023-07-12T08:33:24.000Z</time>
      </trkpt>
      <trkpt lat="42.47348" lon="2.99942">
        <ele>1119</ele>
        <time>2023-07-12T08:33:31.000Z</time>
      </trkpt>
      <trkpt lat="42.47346" lon="2.99943">
        <ele>1119.1999511719</ele>
        <time>2023-07-12T08:33:33.000Z</time>
      </trkpt>
      <trkpt lat="42.47343" lon="2.99946">
        <ele>1119.8000488281</ele>
        <time>2023-07-12T08:33:38.000Z</time>
      </trkpt>
      <trkpt lat="42.47342" lon="2.99948">
        <ele>1120.1999511719</ele>
        <time>2023-07-12T08:33:40.000Z</time>
      </trkpt>
      <trkpt lat="42.47338" lon="2.99952">
        <ele>1121</ele>
        <time>2023-07-12T08:33:44.000Z</time>
      </trkpt>
      <trkpt lat="42.47337" lon="2.99953">
        <ele>1121.4000244141</ele>
        <time>2023-07-12T08:33:47.000Z</time>
      </trkpt>
      <trkpt lat="42.47334" lon="2.99954">
        <ele>1121.5999755859</ele>
        <time>2023-07-12T08:33:50.000Z</time>
      </trkpt>
      <trkpt lat="42.47334" lon="2.99955">
        <ele>1121.5999755859</ele>
        <time>2023-07-12T08:33:52.000Z</time>
      </trkpt>
      <trkpt lat="42.47333" lon="2.99954">
        <ele>1121.8000488281</ele>
        <time>2023-07-12T08:33:59.000Z</time>
      </trkpt>
      <trkpt lat="42.47328" lon="2.99948">
        <ele>1122.4000244141</ele>
        <time>2023-07-12T08:34:06.000Z</time>
      </trkpt>
      <trkpt lat="42.47327" lon="2.99948">
        <ele>1122.4000244141</ele>
        <time>2023-07-12T08:34:07.000Z</time>
      </trkpt>
      <trkpt lat="42.47321" lon="2.99948">
        <ele>1123.1999511719</ele>
        <time>2023-07-12T08:34:13.000Z</time>
      </trkpt>
      <trkpt lat="42.47319" lon="2.99949">
        <ele>1123.4000244141</ele>
        <time>2023-07-12T08:34:17.000Z</time>
      </trkpt>
      <trkpt lat="42.47321" lon="2.9995">
        <ele>1123.8000488281</ele>
        <time>2023-07-12T08:34:21.000Z</time>
      </trkpt>
      <trkpt lat="42.4732" lon="2.99944">
        <ele>1123.8000488281</ele>
        <time>2023-07-12T08:34:29.000Z</time>
      </trkpt>
      <trkpt lat="42.47317" lon="2.99941">
        <ele>1124.5999755859</ele>
        <time>2023-07-12T08:34:35.000Z</time>
      </trkpt>
      <trkpt lat="42.47316" lon="2.9994">
        <ele>1124.8000488281</ele>
        <time>2023-07-12T08:34:36.000Z</time>
      </trkpt>
      <trkpt lat="42.47313" lon="2.99937">
        <ele>1125.5999755859</ele>
        <time>2023-07-12T08:34:41.000Z</time>
      </trkpt>
      <trkpt lat="42.47313" lon="2.99938">
        <ele>1126</ele>
        <time>2023-07-12T08:34:43.000Z</time>
      </trkpt>
      <trkpt lat="42.47314" lon="2.9994">
        <ele>1126.4000244141</ele>
        <time>2023-07-12T08:34:52.000Z</time>
      </trkpt>
      <trkpt lat="42.47313" lon="2.99938">
        <ele>1126.1999511719</ele>
        <time>2023-07-12T08:35:00.000Z</time>
      </trkpt>
      <trkpt lat="42.47312" lon="2.99936">
        <ele>1126.5999755859</ele>
        <time>2023-07-12T08:35:02.000Z</time>
      </trkpt>
      <trkpt lat="42.47311" lon="2.9993">
        <ele>1127.5999755859</ele>
        <time>2023-07-12T08:35:08.000Z</time>
      </trkpt>
      <trkpt lat="42.47311" lon="2.99929">
        <ele>1127.8000488281</ele>
        <time>2023-07-12T08:35:09.000Z</time>
      </trkpt>
      <trkpt lat="42.47308" lon="2.99925">
        <ele>1129</ele>
        <time>2023-07-12T08:35:15.000Z</time>
      </trkpt>
      <trkpt lat="42.47307" lon="2.99922">
        <ele>1129.4000244141</ele>
        <time>2023-07-12T08:35:17.000Z</time>
      </trkpt>
      <trkpt lat="42.47307" lon="2.99918">
        <ele>1130.1999511719</ele>
        <time>2023-07-12T08:35:22.000Z</time>
      </trkpt>
      <trkpt lat="42.47307" lon="2.99917">
        <ele>1130.4000244141</ele>
        <time>2023-07-12T08:35:24.000Z</time>
      </trkpt>
      <trkpt lat="42.47307" lon="2.99915">
        <ele>1131.1999511719</ele>
        <time>2023-07-12T08:35:28.000Z</time>
      </trkpt>
      <trkpt lat="42.47308" lon="2.99912">
        <ele>1132.4000244141</ele>
        <time>2023-07-12T08:35:33.000Z</time>
      </trkpt>
      <trkpt lat="42.47308" lon="2.99908">
        <ele>1133.4000244141</ele>
        <time>2023-07-12T08:35:40.000Z</time>
      </trkpt>
      <trkpt lat="42.47308" lon="2.99906">
        <ele>1134.1999511719</ele>
        <time>2023-07-12T08:35:44.000Z</time>
      </trkpt>
      <trkpt lat="42.47308" lon="2.99904">
        <ele>1134.5999755859</ele>
        <time>2023-07-12T08:35:47.000Z</time>
      </trkpt>
      <trkpt lat="42.47307" lon="2.99899">
        <ele>1135.5999755859</ele>
        <time>2023-07-12T08:35:54.000Z</time>
      </trkpt>
      <trkpt lat="42.47307" lon="2.99896">
        <ele>1136.5999755859</ele>
        <time>2023-07-12T08:36:00.000Z</time>
      </trkpt>
      <trkpt lat="42.47307" lon="2.99894">
        <ele>1137.1999511719</ele>
        <time>2023-07-12T08:36:04.000Z</time>
      </trkpt>
      <trkpt lat="42.47308" lon="2.99893">
        <ele>1137.8000488281</ele>
        <time>2023-07-12T08:36:07.000Z</time>
      </trkpt>
      <trkpt lat="42.47306" lon="2.99888">
        <ele>1138.8000488281</ele>
        <time>2023-07-12T08:36:14.000Z</time>
      </trkpt>
      <trkpt lat="42.47305" lon="2.99888">
        <ele>1138.8000488281</ele>
        <time>2023-07-12T08:36:15.000Z</time>
      </trkpt>
      <trkpt lat="42.47304" lon="2.99883">
        <ele>1140</ele>
        <time>2023-07-12T08:36:22.000Z</time>
      </trkpt>
      <trkpt lat="42.47303" lon="2.99882">
        <ele>1140.1999511719</ele>
        <time>2023-07-12T08:36:23.000Z</time>
      </trkpt>
      <trkpt lat="42.47303" lon="2.99879">
        <ele>1141.1999511719</ele>
        <time>2023-07-12T08:36:30.000Z</time>
      </trkpt>
      <trkpt lat="42.47303" lon="2.99878">
        <ele>1141.5999755859</ele>
        <time>2023-07-12T08:36:32.000Z</time>
      </trkpt>
      <trkpt lat="42.47303" lon="2.99876">
        <ele>1142.1999511719</ele>
        <time>2023-07-12T08:36:36.000Z</time>
      </trkpt>
      <trkpt lat="42.47304" lon="2.99873">
        <ele>1142.4000244141</ele>
        <time>2023-07-12T08:36:40.000Z</time>
      </trkpt>
      <trkpt lat="42.47304" lon="2.9987">
        <ele>1143.1999511719</ele>
        <time>2023-07-12T08:36:45.000Z</time>
      </trkpt>
      <trkpt lat="42.47304" lon="2.99868">
        <ele>1143.8000488281</ele>
        <time>2023-07-12T08:36:49.000Z</time>
      </trkpt>
      <trkpt lat="42.47304" lon="2.99868">
        <ele>1144.1999511719</ele>
        <time>2023-07-12T08:36:52.000Z</time>
      </trkpt>
      <trkpt lat="42.47304" lon="2.99863">
        <ele>1145.1999511719</ele>
        <time>2023-07-12T08:36:58.000Z</time>
      </trkpt>
      <trkpt lat="42.47303" lon="2.99862">
        <ele>1145.4000244141</ele>
        <time>2023-07-12T08:36:59.000Z</time>
      </trkpt>
      <trkpt lat="42.47302" lon="2.9986">
        <ele>1146.4000244141</ele>
        <time>2023-07-12T08:37:06.000Z</time>
      </trkpt>
      <trkpt lat="42.47301" lon="2.99858">
        <ele>1146.5999755859</ele>
        <time>2023-07-12T08:37:08.000Z</time>
      </trkpt>
      <trkpt lat="42.47301" lon="2.99856">
        <ele>1147.4000244141</ele>
        <time>2023-07-12T08:37:12.000Z</time>
      </trkpt>
      <trkpt lat="42.473" lon="2.99853">
        <ele>1147.8000488281</ele>
        <time>2023-07-12T08:37:16.000Z</time>
      </trkpt>
      <trkpt lat="42.47299" lon="2.9985">
        <ele>1148.4000244141</ele>
        <time>2023-07-12T08:37:19.000Z</time>
      </trkpt>
      <trkpt lat="42.47296" lon="2.99846">
        <ele>1149</ele>
        <time>2023-07-12T08:37:24.000Z</time>
      </trkpt>
      <trkpt lat="42.47295" lon="2.99844">
        <ele>1149.4000244141</ele>
        <time>2023-07-12T08:37:26.000Z</time>
      </trkpt>
      <trkpt lat="42.47293" lon="2.99838">
        <ele>1150.1999511719</ele>
        <time>2023-07-12T08:37:32.000Z</time>
      </trkpt>
      <trkpt lat="42.47291" lon="2.99835">
        <ele>1150.5999755859</ele>
        <time>2023-07-12T08:37:35.000Z</time>
      </trkpt>
      <trkpt lat="42.47288" lon="2.99833">
        <ele>1150.4000244141</ele>
        <time>2023-07-12T08:37:41.000Z</time>
      </trkpt>
      <trkpt lat="42.47288" lon="2.99834">
        <ele>1150.4000244141</ele>
        <time>2023-07-12T08:37:42.000Z</time>
      </trkpt>
      <trkpt lat="42.47287" lon="2.99833">
        <ele>1150.4000244141</ele>
        <time>2023-07-12T08:37:44.000Z</time>
      </trkpt>
      <trkpt lat="42.47286" lon="2.99832">
        <ele>1150.1999511719</ele>
        <time>2023-07-12T08:37:49.000Z</time>
      </trkpt>
      <trkpt lat="42.47287" lon="2.99831">
        <ele>1150</ele>
        <time>2023-07-12T08:37:56.000Z</time>
      </trkpt>
      <trkpt lat="42.47287" lon="2.99833">
        <ele>1149.8000488281</ele>
        <time>2023-07-12T08:38:05.000Z</time>
      </trkpt>
      <trkpt lat="42.47287" lon="2.99833">
        <ele>1149.8000488281</ele>
        <time>2023-07-12T08:38:14.000Z</time>
      </trkpt>
      <trkpt lat="42.47288" lon="2.99835">
        <ele>1149.5999755859</ele>
        <time>2023-07-12T08:38:24.000Z</time>
      </trkpt>
      <trkpt lat="42.47288" lon="2.99835">
        <ele>1149.5999755859</ele>
        <time>2023-07-12T08:38:33.000Z</time>
      </trkpt>
      <trkpt lat="42.47288" lon="2.99835">
        <ele>1149.5999755859</ele>
        <time>2023-07-12T08:38:35.000Z</time>
      </trkpt>
      <trkpt lat="42.47291" lon="2.99838">
        <ele>1149.4000244141</ele>
        <time>2023-07-12T08:38:40.000Z</time>
      </trkpt>
      <trkpt lat="42.47292" lon="2.99838">
        <ele>1149.1999511719</ele>
        <time>2023-07-12T08:38:46.000Z</time>
      </trkpt>
      <trkpt lat="42.47292" lon="2.99839">
        <ele>1148.4000244141</ele>
        <time>2023-07-12T08:38:50.000Z</time>
      </trkpt>
      <trkpt lat="42.47292" lon="2.9984">
        <ele>1148.4000244141</ele>
        <time>2023-07-12T08:38:56.000Z</time>
      </trkpt>
      <trkpt lat="42.4729" lon="2.99839">
        <ele>1148.1999511719</ele>
        <time>2023-07-12T08:39:06.000Z</time>
      </trkpt>
      <trkpt lat="42.47293" lon="2.99837">
        <ele>1148.5999755859</ele>
        <time>2023-07-12T08:39:15.000Z</time>
      </trkpt>
      <trkpt lat="42.47293" lon="2.99835">
        <ele>1149.5999755859</ele>
        <time>2023-07-12T08:39:18.000Z</time>
      </trkpt>
      <trkpt lat="42.47293" lon="2.99834">
        <ele>1150.4000244141</ele>
        <time>2023-07-12T08:39:22.000Z</time>
      </trkpt>
      <trkpt lat="42.47292" lon="2.99832">
        <ele>1150</ele>
        <time>2023-07-12T08:39:28.000Z</time>
      </trkpt>
      <trkpt lat="42.47291" lon="2.99832">
        <ele>1150</ele>
        <time>2023-07-12T08:39:38.000Z</time>
      </trkpt>
      <trkpt lat="42.47291" lon="2.99835">
        <ele>1149.5999755859</ele>
        <time>2023-07-12T08:39:46.000Z</time>
      </trkpt>
      <trkpt lat="42.4729" lon="2.99837">
        <ele>1148.5999755859</ele>
        <time>2023-07-12T08:39:53.000Z</time>
      </trkpt>
      <trkpt lat="42.4729" lon="2.99839">
        <ele>1148.5999755859</ele>
        <time>2023-07-12T08:39:55.000Z</time>
      </trkpt>
      <trkpt lat="42.4729" lon="2.99838">
        <ele>1148.8000488281</ele>
        <time>2023-07-12T08:40:00.000Z</time>
      </trkpt>
      <trkpt lat="42.47294" lon="2.99836">
        <ele>1148.8000488281</ele>
        <time>2023-07-12T08:40:11.000Z</time>
      </trkpt>
      <trkpt lat="42.47293" lon="2.99837">
        <ele>1148.5999755859</ele>
        <time>2023-07-12T08:40:19.000Z</time>
      </trkpt>
      <trkpt lat="42.47294" lon="2.99836">
        <ele>1148.4000244141</ele>
        <time>2023-07-12T08:40:28.000Z</time>
      </trkpt>
      <trkpt lat="42.47297" lon="2.99839">
        <ele>1148.1999511719</ele>
        <time>2023-07-12T08:40:38.000Z</time>
      </trkpt>
      <trkpt lat="42.47295" lon="2.99837">
        <ele>1147.8000488281</ele>
        <time>2023-07-12T08:40:49.000Z</time>
      </trkpt>
      <trkpt lat="42.47294" lon="2.99837">
        <ele>1147.8000488281</ele>
        <time>2023-07-12T08:40:58.000Z</time>
      </trkpt>
      <trkpt lat="42.47294" lon="2.99837">
        <ele>1147.5999755859</ele>
        <time>2023-07-12T08:41:03.000Z</time>
      </trkpt>
      <trkpt lat="42.47293" lon="2.99837">
        <ele>1147.4000244141</ele>
        <time>2023-07-12T08:41:06.000Z</time>
      </trkpt>
      <trkpt lat="42.47292" lon="2.99834">
        <ele>1147.1999511719</ele>
        <time>2023-07-12T08:41:16.000Z</time>
      </trkpt>
      <trkpt lat="42.47291" lon="2.99836">
        <ele>1147.1999511719</ele>
        <time>2023-07-12T08:41:23.000Z</time>
      </trkpt>
      <trkpt lat="42.4729" lon="2.99836">
        <ele>1146.8000488281</ele>
        <time>2023-07-12T08:41:31.000Z</time>
      </trkpt>
      <trkpt lat="42.4729" lon="2.99834">
        <ele>1147</ele>
        <time>2023-07-12T08:41:40.000Z</time>
      </trkpt>
      <trkpt lat="42.47292" lon="2.99833">
        <ele>1146.8000488281</ele>
        <time>2023-07-12T08:41:47.000Z</time>
      </trkpt>
      <trkpt lat="42.47291" lon="2.99835">
        <ele>1146.4000244141</ele>
        <time>2023-07-12T08:41:57.000Z</time>
      </trkpt>
      <trkpt lat="42.47291" lon="2.99835">
        <ele>1146.1999511719</ele>
        <time>2023-07-12T08:41:58.000Z</time>
      </trkpt>
      <trkpt lat="42.47291" lon="2.99835">
        <ele>1146</ele>
        <time>2023-07-12T08:42:05.000Z</time>
      </trkpt>
      <trkpt lat="42.4729" lon="2.99835">
        <ele>1146</ele>
        <time>2023-07-12T08:42:14.000Z</time>
      </trkpt>
      <trkpt lat="42.47293" lon="2.99835">
        <ele>1146.1999511719</ele>
        <time>2023-07-12T08:42:24.000Z</time>
      </trkpt>
      <trkpt lat="42.47291" lon="2.99835">
        <ele>1146.5999755859</ele>
        <time>2023-07-12T08:42:32.000Z</time>
      </trkpt>
      <trkpt lat="42.4729" lon="2.99838">
        <ele>1146.1999511719</ele>
        <time>2023-07-12T08:42:39.000Z</time>
      </trkpt>
      <trkpt lat="42.47293" lon="2.99839">
        <ele>1145.1999511719</ele>
        <time>2023-07-12T08:42:42.000Z</time>
      </trkpt>
      <trkpt lat="42.47295" lon="2.99838">
        <ele>1145.1999511719</ele>
        <time>2023-07-12T08:42:45.000Z</time>
      </trkpt>
      <trkpt lat="42.47295" lon="2.99839">
        <ele>1146</ele>
        <time>2023-07-12T08:42:53.000Z</time>
      </trkpt>
      <trkpt lat="42.47295" lon="2.99839">
        <ele>1145.8000488281</ele>
        <time>2023-07-12T08:43:03.000Z</time>
      </trkpt>
      <trkpt lat="42.47294" lon="2.99839">
        <ele>1145.4000244141</ele>
        <time>2023-07-12T08:43:12.000Z</time>
      </trkpt>
      <trkpt lat="42.47293" lon="2.99838">
        <ele>1145.4000244141</ele>
        <time>2023-07-12T08:43:21.000Z</time>
      </trkpt>
      <trkpt lat="42.47298" lon="2.99837">
        <ele>1145.4000244141</ele>
        <time>2023-07-12T08:43:31.000Z</time>
      </trkpt>
      <trkpt lat="42.47306" lon="2.99831">
        <ele>1145.4000244141</ele>
        <time>2023-07-12T08:43:40.000Z</time>
      </trkpt>
      <trkpt lat="42.47317" lon="2.99827">
        <ele>1144.8000488281</ele>
        <time>2023-07-12T08:43:51.000Z</time>
      </trkpt>
      <trkpt lat="42.47319" lon="2.99827">
        <ele>1145.4000244141</ele>
        <time>2023-07-12T08:43:58.000Z</time>
      </trkpt>
      <trkpt lat="42.4732" lon="2.99825">
        <ele>1146</ele>
        <time>2023-07-12T08:44:08.000Z</time>
      </trkpt>
      <trkpt lat="42.47318" lon="2.99826">
        <ele>1145</ele>
        <time>2023-07-12T08:44:19.000Z</time>
      </trkpt>
      <trkpt lat="42.47318" lon="2.99828">
        <ele>1145.4000244141</ele>
        <time>2023-07-12T08:44:26.000Z</time>
      </trkpt>
      <trkpt lat="42.4732" lon="2.99826">
        <ele>1145.4000244141</ele>
        <time>2023-07-12T08:44:32.000Z</time>
      </trkpt>
      <trkpt lat="42.47325" lon="2.99824">
        <ele>1145.8000488281</ele>
        <time>2023-07-12T08:44:37.000Z</time>
      </trkpt>
      <trkpt lat="42.47332" lon="2.99824">
        <ele>1144.4000244141</ele>
        <time>2023-07-12T08:44:44.000Z</time>
      </trkpt>
      <trkpt lat="42.47335" lon="2.99824">
        <ele>1144.1999511719</ele>
        <time>2023-07-12T08:44:46.000Z</time>
      </trkpt>
      <trkpt lat="42.47342" lon="2.99824">
        <ele>1142.8000488281</ele>
        <time>2023-07-12T08:44:51.000Z</time>
      </trkpt>
      <trkpt lat="42.47343" lon="2.99824">
        <ele>1142.8000488281</ele>
        <time>2023-07-12T08:44:52.000Z</time>
      </trkpt>
      <trkpt lat="42.4735" lon="2.99823">
        <ele>1142.1999511719</ele>
        <time>2023-07-12T08:45:00.000Z</time>
      </trkpt>
      <trkpt lat="42.47357" lon="2.99819">
        <ele>1141.8000488281</ele>
        <time>2023-07-12T08:45:06.000Z</time>
      </trkpt>
      <trkpt lat="42.47359" lon="2.99818">
        <ele>1141.5999755859</ele>
        <time>2023-07-12T08:45:09.000Z</time>
      </trkpt>
      <trkpt lat="42.47362" lon="2.99818">
        <ele>1140.5999755859</ele>
        <time>2023-07-12T08:45:13.000Z</time>
      </trkpt>
      <trkpt lat="42.47363" lon="2.99818">
        <ele>1139.5999755859</ele>
        <time>2023-07-12T08:45:18.000Z</time>
      </trkpt>
      <trkpt lat="42.47367" lon="2.9982">
        <ele>1139</ele>
        <time>2023-07-12T08:45:26.000Z</time>
      </trkpt>
      <trkpt lat="42.47368" lon="2.99821">
        <ele>1138.5999755859</ele>
        <time>2023-07-12T08:45:29.000Z</time>
      </trkpt>
      <trkpt lat="42.47372" lon="2.99825">
        <ele>1137.5999755859</ele>
        <time>2023-07-12T08:45:34.000Z</time>
      </trkpt>
      <trkpt lat="42.47373" lon="2.99825">
        <ele>1137.4000244141</ele>
        <time>2023-07-12T08:45:36.000Z</time>
      </trkpt>
      <trkpt lat="42.47376" lon="2.99823">
        <ele>1136.8000488281</ele>
        <time>2023-07-12T08:45:41.000Z</time>
      </trkpt>
      <trkpt lat="42.47377" lon="2.99823">
        <ele>1136.4000244141</ele>
        <time>2023-07-12T08:45:42.000Z</time>
      </trkpt>
      <trkpt lat="42.47378" lon="2.9982">
        <ele>1135.5999755859</ele>
        <time>2023-07-12T08:45:46.000Z</time>
      </trkpt>
      <trkpt lat="42.47379" lon="2.99818">
        <ele>1135.4000244141</ele>
        <time>2023-07-12T08:45:48.000Z</time>
      </trkpt>
      <trkpt lat="42.47381" lon="2.99816">
        <ele>1135.1999511719</ele>
        <time>2023-07-12T08:45:52.000Z</time>
      </trkpt>
      <trkpt lat="42.47382" lon="2.99814">
        <ele>1135.1999511719</ele>
        <time>2023-07-12T08:45:54.000Z</time>
      </trkpt>
      <trkpt lat="42.47382" lon="2.99813">
        <ele>1134</ele>
        <time>2023-07-12T08:45:59.000Z</time>
      </trkpt>
      <trkpt lat="42.47382" lon="2.99813">
        <ele>1133.8000488281</ele>
        <time>2023-07-12T08:46:00.000Z</time>
      </trkpt>
      <trkpt lat="42.47381" lon="2.99813">
        <ele>1133.8000488281</ele>
        <time>2023-07-12T08:46:02.000Z</time>
      </trkpt>
      <trkpt lat="42.4738" lon="2.99813">
        <ele>1133.8000488281</ele>
        <time>2023-07-12T08:46:05.000Z</time>
      </trkpt>
      <trkpt lat="42.47379" lon="2.99813">
        <ele>1134</ele>
        <time>2023-07-12T08:46:10.000Z</time>
      </trkpt>
      <trkpt lat="42.4738" lon="2.99812">
        <ele>1134.1999511719</ele>
        <time>2023-07-12T08:46:21.000Z</time>
      </trkpt>
      <trkpt lat="42.47386" lon="2.99811">
        <ele>1133.4000244141</ele>
        <time>2023-07-12T08:46:27.000Z</time>
      </trkpt>
      <trkpt lat="42.47388" lon="2.99811">
        <ele>1133</ele>
        <time>2023-07-12T08:46:29.000Z</time>
      </trkpt>
      <trkpt lat="42.47392" lon="2.99812">
        <ele>1132</ele>
        <time>2023-07-12T08:46:34.000Z</time>
      </trkpt>
      <trkpt lat="42.47394" lon="2.99812">
        <ele>1131.8000488281</ele>
        <time>2023-07-12T08:46:35.000Z</time>
      </trkpt>
      <trkpt lat="42.47397" lon="2.99812">
        <ele>1130.8000488281</ele>
        <time>2023-07-12T08:46:39.000Z</time>
      </trkpt>
      <trkpt lat="42.47401" lon="2.99811">
        <ele>1129.5999755859</ele>
        <time>2023-07-12T08:46:43.000Z</time>
      </trkpt>
      <trkpt lat="42.47406" lon="2.99809">
        <ele>1128.5999755859</ele>
        <time>2023-07-12T08:46:48.000Z</time>
      </trkpt>
      <trkpt lat="42.47407" lon="2.99809">
        <ele>1128.4000244141</ele>
        <time>2023-07-12T08:46:51.000Z</time>
      </trkpt>
      <trkpt lat="42.47407" lon="2.99808">
        <ele>1128.1999511719</ele>
        <time>2023-07-12T08:46:58.000Z</time>
      </trkpt>
      <trkpt lat="42.47407" lon="2.99808">
        <ele>1128.4000244141</ele>
        <time>2023-07-12T08:47:05.000Z</time>
      </trkpt>
      <trkpt lat="42.47406" lon="2.99808">
        <ele>1128.4000244141</ele>
        <time>2023-07-12T08:47:15.000Z</time>
      </trkpt>
      <trkpt lat="42.47405" lon="2.99807">
        <ele>1128.4000244141</ele>
        <time>2023-07-12T08:47:24.000Z</time>
      </trkpt>
      <trkpt lat="42.47406" lon="2.99809">
        <ele>1128.1999511719</ele>
        <time>2023-07-12T08:47:30.000Z</time>
      </trkpt>
      <trkpt lat="42.47406" lon="2.99809">
        <ele>1128.1999511719</ele>
        <time>2023-07-12T08:47:36.000Z</time>
      </trkpt>
      <trkpt lat="42.47408" lon="2.99808">
        <ele>1129.1999511719</ele>
        <time>2023-07-12T08:47:43.000Z</time>
      </trkpt>
      <trkpt lat="42.47406" lon="2.99808">
        <ele>1129.1999511719</ele>
        <time>2023-07-12T08:47:48.000Z</time>
      </trkpt>
      <trkpt lat="42.47408" lon="2.99808">
        <ele>1129</ele>
        <time>2023-07-12T08:47:53.000Z</time>
      </trkpt>
      <trkpt lat="42.4741" lon="2.99803">
        <ele>1128.5999755859</ele>
        <time>2023-07-12T08:48:01.000Z</time>
      </trkpt>
      <trkpt lat="42.47411" lon="2.99792">
        <ele>1129.5999755859</ele>
        <time>2023-07-12T08:48:09.000Z</time>
      </trkpt>
      <trkpt lat="42.47412" lon="2.99784">
        <ele>1129.4000244141</ele>
        <time>2023-07-12T08:48:15.000Z</time>
      </trkpt>
      <trkpt lat="42.47412" lon="2.99775">
        <ele>1129.4000244141</ele>
        <time>2023-07-12T08:48:21.000Z</time>
      </trkpt>
      <trkpt lat="42.47411" lon="2.99764">
        <ele>1129.5999755859</ele>
        <time>2023-07-12T08:48:27.000Z</time>
      </trkpt>
      <trkpt lat="42.4741" lon="2.99758">
        <ele>1129.1999511719</ele>
        <time>2023-07-12T08:48:33.000Z</time>
      </trkpt>
      <trkpt lat="42.4741" lon="2.99756">
        <ele>1129.1999511719</ele>
        <time>2023-07-12T08:48:38.000Z</time>
      </trkpt>
      <trkpt lat="42.4741" lon="2.99746">
        <ele>1128.5999755859</ele>
        <time>2023-07-12T08:48:45.000Z</time>
      </trkpt>
      <trkpt lat="42.47409" lon="2.99737">
        <ele>1127.5999755859</ele>
        <time>2023-07-12T08:48:53.000Z</time>
      </trkpt>
      <trkpt lat="42.47407" lon="2.99724">
        <ele>1127.1999511719</ele>
        <time>2023-07-12T08:49:01.000Z</time>
      </trkpt>
      <trkpt lat="42.47406" lon="2.99715">
        <ele>1126.5999755859</ele>
        <time>2023-07-12T08:49:07.000Z</time>
      </trkpt>
      <trkpt lat="42.47406" lon="2.99711">
        <ele>1126.4000244141</ele>
        <time>2023-07-12T08:49:09.000Z</time>
      </trkpt>
      <trkpt lat="42.47405" lon="2.99701">
        <ele>1125.5999755859</ele>
        <time>2023-07-12T08:49:15.000Z</time>
      </trkpt>
      <trkpt lat="42.47405" lon="2.997">
        <ele>1125.4000244141</ele>
        <time>2023-07-12T08:49:16.000Z</time>
      </trkpt>
      <trkpt lat="42.47406" lon="2.99694">
        <ele>1124.8000488281</ele>
        <time>2023-07-12T08:49:21.000Z</time>
      </trkpt>
      <trkpt lat="42.47405" lon="2.99693">
        <ele>1124.4000244141</ele>
        <time>2023-07-12T08:49:23.000Z</time>
      </trkpt>
      <trkpt lat="42.47404" lon="2.99687">
        <ele>1124.4000244141</ele>
        <time>2023-07-12T08:49:28.000Z</time>
      </trkpt>
      <trkpt lat="42.47404" lon="2.99676">
        <ele>1123.8000488281</ele>
        <time>2023-07-12T08:49:35.000Z</time>
      </trkpt>
      <trkpt lat="42.47405" lon="2.9967">
        <ele>1123.4000244141</ele>
        <time>2023-07-12T08:49:39.000Z</time>
      </trkpt>
      <trkpt lat="42.47405" lon="2.9967">
        <ele>1122.8000488281</ele>
        <time>2023-07-12T08:49:43.000Z</time>
      </trkpt>
      <trkpt lat="42.47404" lon="2.99671">
        <ele>1122.5999755859</ele>
        <time>2023-07-12T08:49:45.000Z</time>
      </trkpt>
      <trkpt lat="42.47404" lon="2.9967">
        <ele>1122.1999511719</ele>
        <time>2023-07-12T08:49:49.000Z</time>
      </trkpt>
      <trkpt lat="42.47404" lon="2.99671">
        <ele>1122.1999511719</ele>
        <time>2023-07-12T08:49:52.000Z</time>
      </trkpt>
      <trkpt lat="42.47405" lon="2.99667">
        <ele>1122.8000488281</ele>
        <time>2023-07-12T08:49:59.000Z</time>
      </trkpt>
      <trkpt lat="42.47403" lon="2.99665">
        <ele>1122.4000244141</ele>
        <time>2023-07-12T08:50:04.000Z</time>
      </trkpt>
      <trkpt lat="42.47402" lon="2.99663">
        <ele>1122.1999511719</ele>
        <time>2023-07-12T08:50:12.000Z</time>
      </trkpt>
      <trkpt lat="42.47402" lon="2.99656">
        <ele>1122.1999511719</ele>
        <time>2023-07-12T08:50:18.000Z</time>
      </trkpt>
      <trkpt lat="42.47403" lon="2.99648">
        <ele>1121.1999511719</ele>
        <time>2023-07-12T08:50:23.000Z</time>
      </trkpt>
      <trkpt lat="42.47403" lon="2.99645">
        <ele>1121.1999511719</ele>
        <time>2023-07-12T08:50:25.000Z</time>
      </trkpt>
      <trkpt lat="42.47402" lon="2.99631">
        <ele>1120.1999511719</ele>
        <time>2023-07-12T08:50:33.000Z</time>
      </trkpt>
      <trkpt lat="42.47402" lon="2.99628">
        <ele>1120</ele>
        <time>2023-07-12T08:50:35.000Z</time>
      </trkpt>
      <trkpt lat="42.474" lon="2.99618">
        <ele>1119.5999755859</ele>
        <time>2023-07-12T08:50:42.000Z</time>
      </trkpt>
      <trkpt lat="42.47401" lon="2.99612">
        <ele>1119.1999511719</ele>
        <time>2023-07-12T08:50:46.000Z</time>
      </trkpt>
      <trkpt lat="42.474" lon="2.99606">
        <ele>1118.8000488281</ele>
        <time>2023-07-12T08:50:49.000Z</time>
      </trkpt>
      <trkpt lat="42.47398" lon="2.99598">
        <ele>1118.4000244141</ele>
        <time>2023-07-12T08:50:55.000Z</time>
      </trkpt>
      <trkpt lat="42.47397" lon="2.99589">
        <ele>1118</ele>
        <time>2023-07-12T08:51:00.000Z</time>
      </trkpt>
      <trkpt lat="42.47395" lon="2.99584">
        <ele>1117.8000488281</ele>
        <time>2023-07-12T08:51:03.000Z</time>
      </trkpt>
      <trkpt lat="42.47392" lon="2.99573">
        <ele>1117.5999755859</ele>
        <time>2023-07-12T08:51:11.000Z</time>
      </trkpt>
      <trkpt lat="42.4739" lon="2.99562">
        <ele>1118</ele>
        <time>2023-07-12T08:51:18.000Z</time>
      </trkpt>
      <trkpt lat="42.47387" lon="2.99551">
        <ele>1117.8000488281</ele>
        <time>2023-07-12T08:51:26.000Z</time>
      </trkpt>
      <trkpt lat="42.4738" lon="2.99536">
        <ele>1117.5999755859</ele>
        <time>2023-07-12T08:51:35.000Z</time>
      </trkpt>
      <trkpt lat="42.47376" lon="2.99524">
        <ele>1117.5999755859</ele>
        <time>2023-07-12T08:51:43.000Z</time>
      </trkpt>
      <trkpt lat="42.47372" lon="2.99513">
        <ele>1117.5999755859</ele>
        <time>2023-07-12T08:51:51.000Z</time>
      </trkpt>
      <trkpt lat="42.47375" lon="2.99499">
        <ele>1118</ele>
        <time>2023-07-12T08:51:58.000Z</time>
      </trkpt>
      <trkpt lat="42.47379" lon="2.99486">
        <ele>1118.1999511719</ele>
        <time>2023-07-12T08:52:06.000Z</time>
      </trkpt>
      <trkpt lat="42.47381" lon="2.99474">
        <ele>1118.4000244141</ele>
        <time>2023-07-12T08:52:14.000Z</time>
      </trkpt>
      <trkpt lat="42.47386" lon="2.99459">
        <ele>1118.5999755859</ele>
        <time>2023-07-12T08:52:22.000Z</time>
      </trkpt>
      <trkpt lat="42.47389" lon="2.99456">
        <ele>1118.4000244141</ele>
        <time>2023-07-12T08:52:29.000Z</time>
      </trkpt>
      <trkpt lat="42.47389" lon="2.99456">
        <ele>1118.4000244141</ele>
        <time>2023-07-12T08:52:30.000Z</time>
      </trkpt>
      <trkpt lat="42.47389" lon="2.99457">
        <ele>1118.5999755859</ele>
        <time>2023-07-12T08:52:32.000Z</time>
      </trkpt>
      <trkpt lat="42.47389" lon="2.99457">
        <ele>1118.8000488281</ele>
        <time>2023-07-12T08:52:37.000Z</time>
      </trkpt>
      <trkpt lat="42.47389" lon="2.99458">
        <ele>1119</ele>
        <time>2023-07-12T08:52:39.000Z</time>
      </trkpt>
      <trkpt lat="42.4739" lon="2.99458">
        <ele>1118.8000488281</ele>
        <time>2023-07-12T08:52:49.000Z</time>
      </trkpt>
      <trkpt lat="42.47393" lon="2.99457">
        <ele>1119</ele>
        <time>2023-07-12T08:52:59.000Z</time>
      </trkpt>
      <trkpt lat="42.47392" lon="2.99454">
        <ele>1119</ele>
        <time>2023-07-12T08:53:06.000Z</time>
      </trkpt>
      <trkpt lat="42.47395" lon="2.99446">
        <ele>1119.4000244141</ele>
        <time>2023-07-12T08:53:11.000Z</time>
      </trkpt>
      <trkpt lat="42.47398" lon="2.99437">
        <ele>1119.5999755859</ele>
        <time>2023-07-12T08:53:18.000Z</time>
      </trkpt>
      <trkpt lat="42.47405" lon="2.99427">
        <ele>1120</ele>
        <time>2023-07-12T08:53:25.000Z</time>
      </trkpt>
      <trkpt lat="42.47415" lon="2.99418">
        <ele>1120.1999511719</ele>
        <time>2023-07-12T08:53:33.000Z</time>
      </trkpt>
      <trkpt lat="42.4742" lon="2.99411">
        <ele>1119.1999511719</ele>
        <time>2023-07-12T08:53:40.000Z</time>
      </trkpt>
      <trkpt lat="42.4742" lon="2.9941">
        <ele>1119</ele>
        <time>2023-07-12T08:53:41.000Z</time>
      </trkpt>
      <trkpt lat="42.47424" lon="2.99401">
        <ele>1118.5999755859</ele>
        <time>2023-07-12T08:53:48.000Z</time>
      </trkpt>
      <trkpt lat="42.47428" lon="2.99394">
        <ele>1118</ele>
        <time>2023-07-12T08:53:54.000Z</time>
      </trkpt>
      <trkpt lat="42.47428" lon="2.99392">
        <ele>1117.8000488281</ele>
        <time>2023-07-12T08:53:55.000Z</time>
      </trkpt>
      <trkpt lat="42.47431" lon="2.99382">
        <ele>1117.1999511719</ele>
        <time>2023-07-12T08:54:02.000Z</time>
      </trkpt>
      <trkpt lat="42.47432" lon="2.99375">
        <ele>1116.8000488281</ele>
        <time>2023-07-12T08:54:06.000Z</time>
      </trkpt>
      <trkpt lat="42.47432" lon="2.99372">
        <ele>1116.8000488281</ele>
        <time>2023-07-12T08:54:09.000Z</time>
      </trkpt>
      <trkpt lat="42.47435" lon="2.99364">
        <ele>1117</ele>
        <time>2023-07-12T08:54:16.000Z</time>
      </trkpt>
      <trkpt lat="42.47438" lon="2.99355">
        <ele>1117</ele>
        <time>2023-07-12T08:54:24.000Z</time>
      </trkpt>
      <trkpt lat="42.47438" lon="2.99353">
        <ele>1116.8000488281</ele>
        <time>2023-07-12T08:54:30.000Z</time>
      </trkpt>
      <trkpt lat="42.4744" lon="2.99345">
        <ele>1117</ele>
        <time>2023-07-12T08:54:39.000Z</time>
      </trkpt>
      <trkpt lat="42.47443" lon="2.99338">
        <ele>1116.1999511719</ele>
        <time>2023-07-12T08:54:46.000Z</time>
      </trkpt>
      <trkpt lat="42.47449" lon="2.9933">
        <ele>1115.8000488281</ele>
        <time>2023-07-12T08:54:53.000Z</time>
      </trkpt>
      <trkpt lat="42.47451" lon="2.99324">
        <ele>1114.8000488281</ele>
        <time>2023-07-12T08:54:58.000Z</time>
      </trkpt>
      <trkpt lat="42.47453" lon="2.99316">
        <ele>1113.5999755859</ele>
        <time>2023-07-12T08:55:04.000Z</time>
      </trkpt>
      <trkpt lat="42.47455" lon="2.9931">
        <ele>1112.5999755859</ele>
        <time>2023-07-12T08:55:09.000Z</time>
      </trkpt>
      <trkpt lat="42.47456" lon="2.99308">
        <ele>1112</ele>
        <time>2023-07-12T08:55:12.000Z</time>
      </trkpt>
      <trkpt lat="42.47456" lon="2.99309">
        <ele>1111.5999755859</ele>
        <time>2023-07-12T08:55:16.000Z</time>
      </trkpt>
      <trkpt lat="42.47456" lon="2.9931">
        <ele>1111.5999755859</ele>
        <time>2023-07-12T08:55:18.000Z</time>
      </trkpt>
      <trkpt lat="42.47456" lon="2.9931">
        <ele>1111.4000244141</ele>
        <time>2023-07-12T08:55:21.000Z</time>
      </trkpt>
      <trkpt lat="42.47456" lon="2.99307">
        <ele>1111.5999755859</ele>
        <time>2023-07-12T08:55:31.000Z</time>
      </trkpt>
      <trkpt lat="42.47456" lon="2.99308">
        <ele>1111.5999755859</ele>
        <time>2023-07-12T08:55:36.000Z</time>
      </trkpt>
      <trkpt lat="42.47456" lon="2.99309">
        <ele>1111.8000488281</ele>
        <time>2023-07-12T08:55:46.000Z</time>
      </trkpt>
      <trkpt lat="42.47455" lon="2.99302">
        <ele>1112</ele>
        <time>2023-07-12T08:55:57.000Z</time>
      </trkpt>
      <trkpt lat="42.47455" lon="2.99303">
        <ele>1112</ele>
        <time>2023-07-12T08:56:06.000Z</time>
      </trkpt>
      <trkpt lat="42.47462" lon="2.99297">
        <ele>1111.5999755859</ele>
        <time>2023-07-12T08:56:14.000Z</time>
      </trkpt>
      <trkpt lat="42.47464" lon="2.99292">
        <ele>1110.4000244141</ele>
        <time>2023-07-12T08:56:18.000Z</time>
      </trkpt>
      <trkpt lat="42.47463" lon="2.99286">
        <ele>1109.8000488281</ele>
        <time>2023-07-12T08:56:23.000Z</time>
      </trkpt>
      <trkpt lat="42.47465" lon="2.99278">
        <ele>1109.5999755859</ele>
        <time>2023-07-12T08:56:31.000Z</time>
      </trkpt>
      <trkpt lat="42.47466" lon="2.99273">
        <ele>1109.4000244141</ele>
        <time>2023-07-12T08:56:34.000Z</time>
      </trkpt>
      <trkpt lat="42.47469" lon="2.99267">
        <ele>1109</ele>
        <time>2023-07-12T08:56:38.000Z</time>
      </trkpt>
      <trkpt lat="42.47472" lon="2.99255">
        <ele>1108.5999755859</ele>
        <time>2023-07-12T08:56:48.000Z</time>
      </trkpt>
      <trkpt lat="42.47469" lon="2.99258">
        <ele>1108.8000488281</ele>
        <time>2023-07-12T08:56:56.000Z</time>
      </trkpt>
      <trkpt lat="42.47466" lon="2.9926">
        <ele>1109</ele>
        <time>2023-07-12T08:57:06.000Z</time>
      </trkpt>
      <trkpt lat="42.4747" lon="2.99261">
        <ele>1109.1999511719</ele>
        <time>2023-07-12T08:57:16.000Z</time>
      </trkpt>
      <trkpt lat="42.47469" lon="2.99255">
        <ele>1109.4000244141</ele>
        <time>2023-07-12T08:57:23.000Z</time>
      </trkpt>
      <trkpt lat="42.47467" lon="2.99252">
        <ele>1109.5999755859</ele>
        <time>2023-07-12T08:57:30.000Z</time>
      </trkpt>
      <trkpt lat="42.47465" lon="2.99252">
        <ele>1110.5999755859</ele>
        <time>2023-07-12T08:57:38.000Z</time>
      </trkpt>
      <trkpt lat="42.47463" lon="2.99251">
        <ele>1111.5999755859</ele>
        <time>2023-07-12T08:57:42.000Z</time>
      </trkpt>
      <trkpt lat="42.4746" lon="2.99252">
        <ele>1112.5999755859</ele>
        <time>2023-07-12T08:57:46.000Z</time>
      </trkpt>
      <trkpt lat="42.47459" lon="2.99252">
        <ele>1112.8000488281</ele>
        <time>2023-07-12T08:57:47.000Z</time>
      </trkpt>
      <trkpt lat="42.47455" lon="2.99251">
        <ele>1114</ele>
        <time>2023-07-12T08:57:51.000Z</time>
      </trkpt>
      <trkpt lat="42.47453" lon="2.9925">
        <ele>1114.4000244141</ele>
        <time>2023-07-12T08:57:53.000Z</time>
      </trkpt>
      <trkpt lat="42.47452" lon="2.99249">
        <ele>1115.1999511719</ele>
        <time>2023-07-12T08:57:56.000Z</time>
      </trkpt>
      <trkpt lat="42.47451" lon="2.99247">
        <ele>1116.1999511719</ele>
        <time>2023-07-12T08:58:01.000Z</time>
      </trkpt>
      <trkpt lat="42.47451" lon="2.99247">
        <ele>1116.4000244141</ele>
        <time>2023-07-12T08:58:02.000Z</time>
      </trkpt>
      <trkpt lat="42.47449" lon="2.99245">
        <ele>1117.1999511719</ele>
        <time>2023-07-12T08:58:05.000Z</time>
      </trkpt>
      <trkpt lat="42.47448" lon="2.99245">
        <ele>1118.1999511719</ele>
        <time>2023-07-12T08:58:10.000Z</time>
      </trkpt>
      <trkpt lat="42.47449" lon="2.99246">
        <ele>1118.5999755859</ele>
        <time>2023-07-12T08:58:11.000Z</time>
      </trkpt>
      <trkpt lat="42.4745" lon="2.99243">
        <ele>1119.1999511719</ele>
        <time>2023-07-12T08:58:17.000Z</time>
      </trkpt>
      <trkpt lat="42.47448" lon="2.9924">
        <ele>1119.1999511719</ele>
        <time>2023-07-12T08:58:20.000Z</time>
      </trkpt>
      <trkpt lat="42.47447" lon="2.99239">
        <ele>1119.4000244141</ele>
        <time>2023-07-12T08:58:25.000Z</time>
      </trkpt>
      <trkpt lat="42.47449" lon="2.99243">
        <ele>1119.5999755859</ele>
        <time>2023-07-12T08:58:34.000Z</time>
      </trkpt>
      <trkpt lat="42.47449" lon="2.99245">
        <ele>1120.4000244141</ele>
        <time>2023-07-12T08:58:39.000Z</time>
      </trkpt>
      <trkpt lat="42.47445" lon="2.99242">
        <ele>1121.1999511719</ele>
        <time>2023-07-12T08:58:44.000Z</time>
      </trkpt>
      <trkpt lat="42.47445" lon="2.99242">
        <ele>1121.4000244141</ele>
        <time>2023-07-12T08:58:45.000Z</time>
      </trkpt>
      <trkpt lat="42.47442" lon="2.99243">
        <ele>1122.4000244141</ele>
        <time>2023-07-12T08:58:50.000Z</time>
      </trkpt>
      <trkpt lat="42.47441" lon="2.99243">
        <ele>1122.8000488281</ele>
        <time>2023-07-12T08:58:51.000Z</time>
      </trkpt>
      <trkpt lat="42.47437" lon="2.99244">
        <ele>1123.5999755859</ele>
        <time>2023-07-12T08:58:56.000Z</time>
      </trkpt>
      <trkpt lat="42.47434" lon="2.99243">
        <ele>1124.5999755859</ele>
        <time>2023-07-12T08:59:00.000Z</time>
      </trkpt>
      <trkpt lat="42.47434" lon="2.99243">
        <ele>1124.8000488281</ele>
        <time>2023-07-12T08:59:01.000Z</time>
      </trkpt>
      <trkpt lat="42.47433" lon="2.99243">
        <ele>1126</ele>
        <time>2023-07-12T08:59:06.000Z</time>
      </trkpt>
      <trkpt lat="42.4743" lon="2.99244">
        <ele>1126.8000488281</ele>
        <time>2023-07-12T08:59:10.000Z</time>
      </trkpt>
      <trkpt lat="42.47429" lon="2.99245">
        <ele>1127</ele>
        <time>2023-07-12T08:59:11.000Z</time>
      </trkpt>
      <trkpt lat="42.47426" lon="2.99244">
        <ele>1128</ele>
        <time>2023-07-12T08:59:16.000Z</time>
      </trkpt>
      <trkpt lat="42.47426" lon="2.99243">
        <ele>1128.4000244141</ele>
        <time>2023-07-12T08:59:18.000Z</time>
      </trkpt>
      <trkpt lat="42.47425" lon="2.99244">
        <ele>1129.1999511719</ele>
        <time>2023-07-12T08:59:21.000Z</time>
      </trkpt>
      <trkpt lat="42.47424" lon="2.99245">
        <ele>1130.1999511719</ele>
        <time>2023-07-12T08:59:27.000Z</time>
      </trkpt>
      <trkpt lat="42.47418" lon="2.99244">
        <ele>1131.4000244141</ele>
        <time>2023-07-12T08:59:34.000Z</time>
      </trkpt>
      <trkpt lat="42.47417" lon="2.99244">
        <ele>1131.5999755859</ele>
        <time>2023-07-12T08:59:35.000Z</time>
      </trkpt>
      <trkpt lat="42.47415" lon="2.99243">
        <ele>1132.5999755859</ele>
        <time>2023-07-12T08:59:40.000Z</time>
      </trkpt>
      <trkpt lat="42.47414" lon="2.99242">
        <ele>1133</ele>
        <time>2023-07-12T08:59:42.000Z</time>
      </trkpt>
      <trkpt lat="42.47413" lon="2.99242">
        <ele>1133.8000488281</ele>
        <time>2023-07-12T08:59:46.000Z</time>
      </trkpt>
      <trkpt lat="42.47412" lon="2.99242">
        <ele>1134.4000244141</ele>
        <time>2023-07-12T08:59:50.000Z</time>
      </trkpt>
      <trkpt lat="42.47412" lon="2.99242">
        <ele>1134.8000488281</ele>
        <time>2023-07-12T08:59:51.000Z</time>
      </trkpt>
      <trkpt lat="42.47407" lon="2.99243">
        <ele>1135.8000488281</ele>
        <time>2023-07-12T08:59:57.000Z</time>
      </trkpt>
      <trkpt lat="42.47406" lon="2.99243">
        <ele>1136</ele>
        <time>2023-07-12T08:59:58.000Z</time>
      </trkpt>
      <trkpt lat="42.47405" lon="2.99243">
        <ele>1137</ele>
        <time>2023-07-12T09:00:02.000Z</time>
      </trkpt>
      <trkpt lat="42.47403" lon="2.99243">
        <ele>1137.5999755859</ele>
        <time>2023-07-12T09:00:06.000Z</time>
      </trkpt>
      <trkpt lat="42.47402" lon="2.99243">
        <ele>1138.1999511719</ele>
        <time>2023-07-12T09:00:09.000Z</time>
      </trkpt>
      <trkpt lat="42.47399" lon="2.99244">
        <ele>1139.4000244141</ele>
        <time>2023-07-12T09:00:15.000Z</time>
      </trkpt>
      <trkpt lat="42.47398" lon="2.99245">
        <ele>1139.5999755859</ele>
        <time>2023-07-12T09:00:16.000Z</time>
      </trkpt>
      <trkpt lat="42.47395" lon="2.99245">
        <ele>1140.4000244141</ele>
        <time>2023-07-12T09:00:20.000Z</time>
      </trkpt>
      <trkpt lat="42.47391" lon="2.99244">
        <ele>1141.4000244141</ele>
        <time>2023-07-12T09:00:26.000Z</time>
      </trkpt>
      <trkpt lat="42.47391" lon="2.99242">
        <ele>1141.4000244141</ele>
        <time>2023-07-12T09:00:27.000Z</time>
      </trkpt>
      <trkpt lat="42.47388" lon="2.99237">
        <ele>1142.4000244141</ele>
        <time>2023-07-12T09:00:33.000Z</time>
      </trkpt>
      <trkpt lat="42.47386" lon="2.99237">
        <ele>1143.5999755859</ele>
        <time>2023-07-12T09:00:40.000Z</time>
      </trkpt>
      <trkpt lat="42.47382" lon="2.99238">
        <ele>1144.5999755859</ele>
        <time>2023-07-12T09:00:46.000Z</time>
      </trkpt>
      <trkpt lat="42.4738" lon="2.99239">
        <ele>1144.8000488281</ele>
        <time>2023-07-12T09:00:48.000Z</time>
      </trkpt>
      <trkpt lat="42.47377" lon="2.99239">
        <ele>1145.5999755859</ele>
        <time>2023-07-12T09:00:54.000Z</time>
      </trkpt>
      <trkpt lat="42.47377" lon="2.99239">
        <ele>1146</ele>
        <time>2023-07-12T09:00:55.000Z</time>
      </trkpt>
      <trkpt lat="42.47374" lon="2.99239">
        <ele>1146.8000488281</ele>
        <time>2023-07-12T09:01:00.000Z</time>
      </trkpt>
      <trkpt lat="42.47374" lon="2.99239">
        <ele>1147</ele>
        <time>2023-07-12T09:01:02.000Z</time>
      </trkpt>
      <trkpt lat="42.4737" lon="2.99235">
        <ele>1147.5999755859</ele>
        <time>2023-07-12T09:01:07.000Z</time>
      </trkpt>
      <trkpt lat="42.47367" lon="2.99236">
        <ele>1148</ele>
        <time>2023-07-12T09:01:12.000Z</time>
      </trkpt>
      <trkpt lat="42.47365" lon="2.99235">
        <ele>1148.1999511719</ele>
        <time>2023-07-12T09:01:14.000Z</time>
      </trkpt>
      <trkpt lat="42.47361" lon="2.99234">
        <ele>1149</ele>
        <time>2023-07-12T09:01:21.000Z</time>
      </trkpt>
      <trkpt lat="42.47361" lon="2.99234">
        <ele>1149</ele>
        <time>2023-07-12T09:01:22.000Z</time>
      </trkpt>
      <trkpt lat="42.47361" lon="2.99234">
        <ele>1149.4000244141</ele>
        <time>2023-07-12T09:01:30.000Z</time>
      </trkpt>
      <trkpt lat="42.4736" lon="2.99234">
        <ele>1149.4000244141</ele>
        <time>2023-07-12T09:01:41.000Z</time>
      </trkpt>
      <trkpt lat="42.47363" lon="2.99232">
        <ele>1149.4000244141</ele>
        <time>2023-07-12T09:01:50.000Z</time>
      </trkpt>
      <trkpt lat="42.47366" lon="2.99225">
        <ele>1149.1999511719</ele>
        <time>2023-07-12T09:01:56.000Z</time>
      </trkpt>
      <trkpt lat="42.4737" lon="2.99219">
        <ele>1149</ele>
        <time>2023-07-12T09:02:03.000Z</time>
      </trkpt>
      <trkpt lat="42.47374" lon="2.99209">
        <ele>1147.8000488281</ele>
        <time>2023-07-12T09:02:10.000Z</time>
      </trkpt>
      <trkpt lat="42.47374" lon="2.99201">
        <ele>1148.1999511719</ele>
        <time>2023-07-12T09:02:16.000Z</time>
      </trkpt>
      <trkpt lat="42.47371" lon="2.9919">
        <ele>1148.4000244141</ele>
        <time>2023-07-12T09:02:24.000Z</time>
      </trkpt>
      <trkpt lat="42.4737" lon="2.9919">
        <ele>1148.8000488281</ele>
        <time>2023-07-12T09:02:28.000Z</time>
      </trkpt>
      <trkpt lat="42.4737" lon="2.9919">
        <ele>1148.8000488281</ele>
        <time>2023-07-12T09:02:30.000Z</time>
      </trkpt>
      <trkpt lat="42.4737" lon="2.99189">
        <ele>1148.8000488281</ele>
        <time>2023-07-12T09:02:32.000Z</time>
      </trkpt>
      <trkpt lat="42.4737" lon="2.99183">
        <ele>1148.8000488281</ele>
        <time>2023-07-12T09:02:38.000Z</time>
      </trkpt>
      <trkpt lat="42.47368" lon="2.99173">
        <ele>1149.8000488281</ele>
        <time>2023-07-12T09:02:45.000Z</time>
      </trkpt>
      <trkpt lat="42.47365" lon="2.99162">
        <ele>1150.5999755859</ele>
        <time>2023-07-12T09:02:52.000Z</time>
      </trkpt>
      <trkpt lat="42.47365" lon="2.9916">
        <ele>1151</ele>
        <time>2023-07-12T09:02:54.000Z</time>
      </trkpt>
      <trkpt lat="42.47364" lon="2.99154">
        <ele>1151.4000244141</ele>
        <time>2023-07-12T09:02:59.000Z</time>
      </trkpt>
      <trkpt lat="42.47364" lon="2.99149">
        <ele>1152.1999511719</ele>
        <time>2023-07-12T09:03:03.000Z</time>
      </trkpt>
      <trkpt lat="42.47363" lon="2.99144">
        <ele>1152.4000244141</ele>
        <time>2023-07-12T09:03:06.000Z</time>
      </trkpt>
      <trkpt lat="42.47363" lon="2.99135">
        <ele>1153.1999511719</ele>
        <time>2023-07-12T09:03:12.000Z</time>
      </trkpt>
      <trkpt lat="42.47363" lon="2.99133">
        <ele>1153.4000244141</ele>
        <time>2023-07-12T09:03:14.000Z</time>
      </trkpt>
      <trkpt lat="42.47365" lon="2.99125">
        <ele>1154.1999511719</ele>
        <time>2023-07-12T09:03:19.000Z</time>
      </trkpt>
      <trkpt lat="42.47365" lon="2.99124">
        <ele>1154.4000244141</ele>
        <time>2023-07-12T09:03:20.000Z</time>
      </trkpt>
      <trkpt lat="42.47365" lon="2.9912">
        <ele>1155.4000244141</ele>
        <time>2023-07-12T09:03:25.000Z</time>
      </trkpt>
      <trkpt lat="42.47366" lon="2.99118">
        <ele>1155.5999755859</ele>
        <time>2023-07-12T09:03:27.000Z</time>
      </trkpt>
      <trkpt lat="42.47365" lon="2.99112">
        <ele>1156.5999755859</ele>
        <time>2023-07-12T09:03:33.000Z</time>
      </trkpt>
      <trkpt lat="42.47365" lon="2.99111">
        <ele>1156.8000488281</ele>
        <time>2023-07-12T09:03:34.000Z</time>
      </trkpt>
      <trkpt lat="42.47364" lon="2.99105">
        <ele>1157.5999755859</ele>
        <time>2023-07-12T09:03:39.000Z</time>
      </trkpt>
      <trkpt lat="42.47364" lon="2.99103">
        <ele>1157.5999755859</ele>
        <time>2023-07-12T09:03:40.000Z</time>
      </trkpt>
      <trkpt lat="42.47364" lon="2.99096">
        <ele>1158.5999755859</ele>
        <time>2023-07-12T09:03:46.000Z</time>
      </trkpt>
      <trkpt lat="42.47364" lon="2.99094">
        <ele>1159</ele>
        <time>2023-07-12T09:03:48.000Z</time>
      </trkpt>
      <trkpt lat="42.47364" lon="2.99092">
        <ele>1159.8000488281</ele>
        <time>2023-07-12T09:03:51.000Z</time>
      </trkpt>
      <trkpt lat="42.47366" lon="2.99088">
        <ele>1160.4000244141</ele>
        <time>2023-07-12T09:03:55.000Z</time>
      </trkpt>
      <trkpt lat="42.47367" lon="2.99087">
        <ele>1160.4000244141</ele>
        <time>2023-07-12T09:03:56.000Z</time>
      </trkpt>
      <trkpt lat="42.47368" lon="2.99085">
        <ele>1160.8000488281</ele>
        <time>2023-07-12T09:03:58.000Z</time>
      </trkpt>
      <trkpt lat="42.47372" lon="2.9908">
        <ele>1161.5999755859</ele>
        <time>2023-07-12T09:04:04.000Z</time>
      </trkpt>
      <trkpt lat="42.47373" lon="2.99073">
        <ele>1162</ele>
        <time>2023-07-12T09:04:12.000Z</time>
      </trkpt>
      <trkpt lat="42.47373" lon="2.99073">
        <ele>1162</ele>
        <time>2023-07-12T09:04:13.000Z</time>
      </trkpt>
      <trkpt lat="42.47375" lon="2.99063">
        <ele>1163.1999511719</ele>
        <time>2023-07-12T09:04:21.000Z</time>
      </trkpt>
      <trkpt lat="42.47379" lon="2.99053">
        <ele>1163.5999755859</ele>
        <time>2023-07-12T09:04:29.000Z</time>
      </trkpt>
      <trkpt lat="42.4738" lon="2.99047">
        <ele>1163.5999755859</ele>
        <time>2023-07-12T09:04:35.000Z</time>
      </trkpt>
      <trkpt lat="42.47381" lon="2.99039">
        <ele>1164.1999511719</ele>
        <time>2023-07-12T09:04:41.000Z</time>
      </trkpt>
      <trkpt lat="42.47382" lon="2.99038">
        <ele>1164.4000244141</ele>
        <time>2023-07-12T09:04:42.000Z</time>
      </trkpt>
      <trkpt lat="42.47385" lon="2.9903">
        <ele>1165.1999511719</ele>
        <time>2023-07-12T09:04:50.000Z</time>
      </trkpt>
      <trkpt lat="42.47385" lon="2.99028">
        <ele>1165.4000244141</ele>
        <time>2023-07-12T09:04:51.000Z</time>
      </trkpt>
      <trkpt lat="42.47387" lon="2.99024">
        <ele>1165.8000488281</ele>
        <time>2023-07-12T09:04:55.000Z</time>
      </trkpt>
      <trkpt lat="42.47389" lon="2.99018">
        <ele>1166</ele>
        <time>2023-07-12T09:05:01.000Z</time>
      </trkpt>
      <trkpt lat="42.47388" lon="2.99018">
        <ele>1166</ele>
        <time>2023-07-12T09:05:10.000Z</time>
      </trkpt>
      <trkpt lat="42.47389" lon="2.9902">
        <ele>1166</ele>
        <time>2023-07-12T09:05:18.000Z</time>
      </trkpt>
      <trkpt lat="42.47391" lon="2.99016">
        <ele>1166</ele>
        <time>2023-07-12T09:05:25.000Z</time>
      </trkpt>
      <trkpt lat="42.4739" lon="2.9901">
        <ele>1166.4000244141</ele>
        <time>2023-07-12T09:05:30.000Z</time>
      </trkpt>
      <trkpt lat="42.47389" lon="2.99009">
        <ele>1166.5999755859</ele>
        <time>2023-07-12T09:05:32.000Z</time>
      </trkpt>
      <trkpt lat="42.47386" lon="2.99008">
        <ele>1167.4000244141</ele>
        <time>2023-07-12T09:05:36.000Z</time>
      </trkpt>
      <trkpt lat="42.47385" lon="2.99002">
        <ele>1168.4000244141</ele>
        <time>2023-07-12T09:05:41.000Z</time>
      </trkpt>
      <trkpt lat="42.47385" lon="2.99001">
        <ele>1168.5999755859</ele>
        <time>2023-07-12T09:05:42.000Z</time>
      </trkpt>
      <trkpt lat="42.47385" lon="2.98998">
        <ele>1169.5999755859</ele>
        <time>2023-07-12T09:05:48.000Z</time>
      </trkpt>
      <trkpt lat="42.47387" lon="2.98991">
        <ele>1170.1999511719</ele>
        <time>2023-07-12T09:05:55.000Z</time>
      </trkpt>
      <trkpt lat="42.47391" lon="2.98989">
        <ele>1170.5999755859</ele>
        <time>2023-07-12T09:06:04.000Z</time>
      </trkpt>
      <trkpt lat="42.47391" lon="2.98989">
        <ele>1170.5999755859</ele>
        <time>2023-07-12T09:06:05.000Z</time>
      </trkpt>
      <trkpt lat="42.47393" lon="2.98986">
        <ele>1170.4000244141</ele>
        <time>2023-07-12T09:06:11.000Z</time>
      </trkpt>
      <trkpt lat="42.47394" lon="2.98986">
        <ele>1169.5999755859</ele>
        <time>2023-07-12T09:06:13.000Z</time>
      </trkpt>
      <trkpt lat="42.47395" lon="2.98984">
        <ele>1169.1999511719</ele>
        <time>2023-07-12T09:06:18.000Z</time>
      </trkpt>
      <trkpt lat="42.47395" lon="2.98978">
        <ele>1169.1999511719</ele>
        <time>2023-07-12T09:06:24.000Z</time>
      </trkpt>
      <trkpt lat="42.47397" lon="2.98974">
        <ele>1169.5999755859</ele>
        <time>2023-07-12T09:06:29.000Z</time>
      </trkpt>
      <trkpt lat="42.47399" lon="2.9897">
        <ele>1170.1999511719</ele>
        <time>2023-07-12T09:06:35.000Z</time>
      </trkpt>
      <trkpt lat="42.47401" lon="2.98967">
        <ele>1170.1999511719</ele>
        <time>2023-07-12T09:06:42.000Z</time>
      </trkpt>
      <trkpt lat="42.47401" lon="2.98962">
        <ele>1169.4000244141</ele>
        <time>2023-07-12T09:06:48.000Z</time>
      </trkpt>
      <trkpt lat="42.47403" lon="2.98959">
        <ele>1168.5999755859</ele>
        <time>2023-07-12T09:06:52.000Z</time>
      </trkpt>
      <trkpt lat="42.47403" lon="2.98958">
        <ele>1167.5999755859</ele>
        <time>2023-07-12T09:06:54.000Z</time>
      </trkpt>
      <trkpt lat="42.47403" lon="2.98957">
        <ele>1167.1999511719</ele>
        <time>2023-07-12T09:06:55.000Z</time>
      </trkpt>
      <trkpt lat="42.47405" lon="2.9895">
        <ele>1167.4000244141</ele>
        <time>2023-07-12T09:07:01.000Z</time>
      </trkpt>
      <trkpt lat="42.47406" lon="2.98937">
        <ele>1167</ele>
        <time>2023-07-12T09:07:10.000Z</time>
      </trkpt>
      <trkpt lat="42.47405" lon="2.98922">
        <ele>1167</ele>
        <time>2023-07-12T09:07:18.000Z</time>
      </trkpt>
      <trkpt lat="42.47408" lon="2.98915">
        <ele>1167.5999755859</ele>
        <time>2023-07-12T09:07:25.000Z</time>
      </trkpt>
      <trkpt lat="42.47408" lon="2.98906">
        <ele>1167</ele>
        <time>2023-07-12T09:07:33.000Z</time>
      </trkpt>
      <trkpt lat="42.47407" lon="2.98903">
        <ele>1166</ele>
        <time>2023-07-12T09:07:36.000Z</time>
      </trkpt>
      <trkpt lat="42.47408" lon="2.98898">
        <ele>1164.8000488281</ele>
        <time>2023-07-12T09:07:42.000Z</time>
      </trkpt>
      <trkpt lat="42.47413" lon="2.98894">
        <ele>1163.8000488281</ele>
        <time>2023-07-12T09:07:49.000Z</time>
      </trkpt>
      <trkpt lat="42.47414" lon="2.9889">
        <ele>1162.8000488281</ele>
        <time>2023-07-12T09:07:53.000Z</time>
      </trkpt>
      <trkpt lat="42.47414" lon="2.98886">
        <ele>1162.4000244141</ele>
        <time>2023-07-12T09:07:56.000Z</time>
      </trkpt>
      <trkpt lat="42.47413" lon="2.98878">
        <ele>1161.5999755859</ele>
        <time>2023-07-12T09:08:03.000Z</time>
      </trkpt>
      <trkpt lat="42.47412" lon="2.98875">
        <ele>1161.5999755859</ele>
        <time>2023-07-12T09:08:05.000Z</time>
      </trkpt>
      <trkpt lat="42.47413" lon="2.98864">
        <ele>1160.5999755859</ele>
        <time>2023-07-12T09:08:14.000Z</time>
      </trkpt>
      <trkpt lat="42.47413" lon="2.98865">
        <ele>1160.1999511719</ele>
        <time>2023-07-12T09:08:19.000Z</time>
      </trkpt>
      <trkpt lat="42.47412" lon="2.98866">
        <ele>1160.1999511719</ele>
        <time>2023-07-12T09:08:23.000Z</time>
      </trkpt>
      <trkpt lat="42.47414" lon="2.98863">
        <ele>1160.1999511719</ele>
        <time>2023-07-12T09:08:33.000Z</time>
      </trkpt>
      <trkpt lat="42.47416" lon="2.98859">
        <ele>1159.1999511719</ele>
        <time>2023-07-12T09:08:37.000Z</time>
      </trkpt>
      <trkpt lat="42.47417" lon="2.98856">
        <ele>1158.4000244141</ele>
        <time>2023-07-12T09:08:41.000Z</time>
      </trkpt>
      <trkpt lat="42.47415" lon="2.98853">
        <ele>1158</ele>
        <time>2023-07-12T09:08:43.000Z</time>
      </trkpt>
      <trkpt lat="42.47409" lon="2.98851">
        <ele>1158</ele>
        <time>2023-07-12T09:08:49.000Z</time>
      </trkpt>
      <trkpt lat="42.47402" lon="2.9885">
        <ele>1158.8000488281</ele>
        <time>2023-07-12T09:08:56.000Z</time>
      </trkpt>
      <trkpt lat="42.47398" lon="2.98846">
        <ele>1158.5999755859</ele>
        <time>2023-07-12T09:09:04.000Z</time>
      </trkpt>
      <trkpt lat="42.47396" lon="2.98844">
        <ele>1157.8000488281</ele>
        <time>2023-07-12T09:09:11.000Z</time>
      </trkpt>
      <trkpt lat="42.47395" lon="2.9884">
        <ele>1157</ele>
        <time>2023-07-12T09:09:16.000Z</time>
      </trkpt>
      <trkpt lat="42.47395" lon="2.98838">
        <ele>1156</ele>
        <time>2023-07-12T09:09:19.000Z</time>
      </trkpt>
      <trkpt lat="42.47395" lon="2.98837">
        <ele>1155.8000488281</ele>
        <time>2023-07-12T09:09:20.000Z</time>
      </trkpt>
      <trkpt lat="42.47394" lon="2.98835">
        <ele>1154.8000488281</ele>
        <time>2023-07-12T09:09:26.000Z</time>
      </trkpt>
      <trkpt lat="42.47391" lon="2.98831">
        <ele>1153.8000488281</ele>
        <time>2023-07-12T09:09:31.000Z</time>
      </trkpt>
      <trkpt lat="42.47391" lon="2.9883">
        <ele>1153.4000244141</ele>
        <time>2023-07-12T09:09:32.000Z</time>
      </trkpt>
      <trkpt lat="42.47391" lon="2.98829">
        <ele>1152.5999755859</ele>
        <time>2023-07-12T09:09:35.000Z</time>
      </trkpt>
      <trkpt lat="42.4739" lon="2.98826">
        <ele>1151.4000244141</ele>
        <time>2023-07-12T09:09:40.000Z</time>
      </trkpt>
      <trkpt lat="42.47389" lon="2.98823">
        <ele>1150.1999511719</ele>
        <time>2023-07-12T09:09:46.000Z</time>
      </trkpt>
      <trkpt lat="42.47388" lon="2.98822">
        <ele>1149.8000488281</ele>
        <time>2023-07-12T09:09:48.000Z</time>
      </trkpt>
      <trkpt lat="42.47387" lon="2.9882">
        <ele>1149.1999511719</ele>
        <time>2023-07-12T09:09:54.000Z</time>
      </trkpt>
      <trkpt lat="42.47388" lon="2.98819">
        <ele>1148.5999755859</ele>
        <time>2023-07-12T09:09:57.000Z</time>
      </trkpt>
      <trkpt lat="42.47389" lon="2.98817">
        <ele>1148</ele>
        <time>2023-07-12T09:10:01.000Z</time>
      </trkpt>
      <trkpt lat="42.47386" lon="2.98812">
        <ele>1147</ele>
        <time>2023-07-12T09:10:06.000Z</time>
      </trkpt>
      <trkpt lat="42.47385" lon="2.98812">
        <ele>1146.5999755859</ele>
        <time>2023-07-12T09:10:07.000Z</time>
      </trkpt>
      <trkpt lat="42.47385" lon="2.98814">
        <ele>1146</ele>
        <time>2023-07-12T09:10:13.000Z</time>
      </trkpt>
      <trkpt lat="42.47384" lon="2.98814">
        <ele>1146</ele>
        <time>2023-07-12T09:10:16.000Z</time>
      </trkpt>
      <trkpt lat="42.47385" lon="2.98809">
        <ele>1145.8000488281</ele>
        <time>2023-07-12T09:10:25.000Z</time>
      </trkpt>
      <trkpt lat="42.47386" lon="2.98803">
        <ele>1144.5999755859</ele>
        <time>2023-07-12T09:10:31.000Z</time>
      </trkpt>
      <trkpt lat="42.47385" lon="2.98799">
        <ele>1143.4000244141</ele>
        <time>2023-07-12T09:10:36.000Z</time>
      </trkpt>
      <trkpt lat="42.47384" lon="2.98798">
        <ele>1142.4000244141</ele>
        <time>2023-07-12T09:10:40.000Z</time>
      </trkpt>
      <trkpt lat="42.47383" lon="2.98797">
        <ele>1142.1999511719</ele>
        <time>2023-07-12T09:10:41.000Z</time>
      </trkpt>
      <trkpt lat="42.47382" lon="2.98793">
        <ele>1141.1999511719</ele>
        <time>2023-07-12T09:10:47.000Z</time>
      </trkpt>
      <trkpt lat="42.47383" lon="2.98792">
        <ele>1141</ele>
        <time>2023-07-12T09:10:48.000Z</time>
      </trkpt>
      <trkpt lat="42.47382" lon="2.98791">
        <ele>1140.4000244141</ele>
        <time>2023-07-12T09:10:50.000Z</time>
      </trkpt>
      <trkpt lat="42.47382" lon="2.98791">
        <ele>1140</ele>
        <time>2023-07-12T09:10:51.000Z</time>
      </trkpt>
      <trkpt lat="42.4738" lon="2.98789">
        <ele>1139.4000244141</ele>
        <time>2023-07-12T09:10:54.000Z</time>
      </trkpt>
      <trkpt lat="42.4738" lon="2.98788">
        <ele>1139</ele>
        <time>2023-07-12T09:10:55.000Z</time>
      </trkpt>
      <trkpt lat="42.47376" lon="2.98789">
        <ele>1138.8000488281</ele>
        <time>2023-07-12T09:11:01.000Z</time>
      </trkpt>
      <trkpt lat="42.47371" lon="2.98789">
        <ele>1138.5999755859</ele>
        <time>2023-07-12T09:11:08.000Z</time>
      </trkpt>
      <trkpt lat="42.47371" lon="2.98791">
        <ele>1138.1999511719</ele>
        <time>2023-07-12T09:11:16.000Z</time>
      </trkpt>
      <trkpt lat="42.47373" lon="2.98793">
        <ele>1138</ele>
        <time>2023-07-12T09:11:24.000Z</time>
      </trkpt>
      <trkpt lat="42.47373" lon="2.98792">
        <ele>1138.1999511719</ele>
        <time>2023-07-12T09:11:33.000Z</time>
      </trkpt>
      <trkpt lat="42.47374" lon="2.98794">
        <ele>1138.1999511719</ele>
        <time>2023-07-12T09:11:42.000Z</time>
      </trkpt>
      <trkpt lat="42.47376" lon="2.98789">
        <ele>1138.5999755859</ele>
        <time>2023-07-12T09:11:50.000Z</time>
      </trkpt>
      <trkpt lat="42.47379" lon="2.98784">
        <ele>1138</ele>
        <time>2023-07-12T09:11:56.000Z</time>
      </trkpt>
      <trkpt lat="42.47382" lon="2.98779">
        <ele>1136.8000488281</ele>
        <time>2023-07-12T09:12:01.000Z</time>
      </trkpt>
      <trkpt lat="42.47383" lon="2.98778">
        <ele>1135.5999755859</ele>
        <time>2023-07-12T09:12:04.000Z</time>
      </trkpt>
      <trkpt lat="42.47383" lon="2.98777">
        <ele>1135.4000244141</ele>
        <time>2023-07-12T09:12:05.000Z</time>
      </trkpt>
      <trkpt lat="42.47384" lon="2.98775">
        <ele>1134.5999755859</ele>
        <time>2023-07-12T09:12:08.000Z</time>
      </trkpt>
      <trkpt lat="42.47382" lon="2.98774">
        <ele>1133.4000244141</ele>
        <time>2023-07-12T09:12:13.000Z</time>
      </trkpt>
      <trkpt lat="42.47379" lon="2.98769">
        <ele>1132.4000244141</ele>
        <time>2023-07-12T09:12:19.000Z</time>
      </trkpt>
      <trkpt lat="42.47379" lon="2.98766">
        <ele>1131.4000244141</ele>
        <time>2023-07-12T09:12:24.000Z</time>
      </trkpt>
      <trkpt lat="42.47378" lon="2.98764">
        <ele>1130.1999511719</ele>
        <time>2023-07-12T09:12:28.000Z</time>
      </trkpt>
      <trkpt lat="42.47375" lon="2.9876">
        <ele>1129.4000244141</ele>
        <time>2023-07-12T09:12:33.000Z</time>
      </trkpt>
      <trkpt lat="42.47374" lon="2.9876">
        <ele>1129</ele>
        <time>2023-07-12T09:12:34.000Z</time>
      </trkpt>
      <trkpt lat="42.47368" lon="2.98759">
        <ele>1128</ele>
        <time>2023-07-12T09:12:40.000Z</time>
      </trkpt>
      <trkpt lat="42.47367" lon="2.98759">
        <ele>1127.8000488281</ele>
        <time>2023-07-12T09:12:42.000Z</time>
      </trkpt>
      <trkpt lat="42.47362" lon="2.98757">
        <ele>1127.5999755859</ele>
        <time>2023-07-12T09:12:49.000Z</time>
      </trkpt>
      <trkpt lat="42.47354" lon="2.98752">
        <ele>1127</ele>
        <time>2023-07-12T09:12:56.000Z</time>
      </trkpt>
      <trkpt lat="42.47353" lon="2.98751">
        <ele>1126.8000488281</ele>
        <time>2023-07-12T09:12:57.000Z</time>
      </trkpt>
      <trkpt lat="42.47349" lon="2.98744">
        <ele>1126</ele>
        <time>2023-07-12T09:13:02.000Z</time>
      </trkpt>
      <trkpt lat="42.47349" lon="2.9874">
        <ele>1125.8000488281</ele>
        <time>2023-07-12T09:13:05.000Z</time>
      </trkpt>
      <trkpt lat="42.47347" lon="2.98736">
        <ele>1124.8000488281</ele>
        <time>2023-07-12T09:13:09.000Z</time>
      </trkpt>
      <trkpt lat="42.47347" lon="2.98736">
        <ele>1124.4000244141</ele>
        <time>2023-07-12T09:13:10.000Z</time>
      </trkpt>
      <trkpt lat="42.47345" lon="2.98731">
        <ele>1123.1999511719</ele>
        <time>2023-07-12T09:13:16.000Z</time>
      </trkpt>
      <trkpt lat="42.47344" lon="2.98724">
        <ele>1122.1999511719</ele>
        <time>2023-07-12T09:13:23.000Z</time>
      </trkpt>
      <trkpt lat="42.47343" lon="2.98722">
        <ele>1121.5999755859</ele>
        <time>2023-07-12T09:13:25.000Z</time>
      </trkpt>
      <trkpt lat="42.47344" lon="2.98721">
        <ele>1121.1999511719</ele>
        <time>2023-07-12T09:13:27.000Z</time>
      </trkpt>
      <trkpt lat="42.47344" lon="2.9872">
        <ele>1120</ele>
        <time>2023-07-12T09:13:31.000Z</time>
      </trkpt>
      <trkpt lat="42.47344" lon="2.98717">
        <ele>1119.1999511719</ele>
        <time>2023-07-12T09:13:34.000Z</time>
      </trkpt>
      <trkpt lat="42.47343" lon="2.98714">
        <ele>1118.8000488281</ele>
        <time>2023-07-12T09:13:35.000Z</time>
      </trkpt>
      <trkpt lat="42.4734" lon="2.98709">
        <ele>1117.5999755859</ele>
        <time>2023-07-12T09:13:40.000Z</time>
      </trkpt>
      <trkpt lat="42.4734" lon="2.98709">
        <ele>1117</ele>
        <time>2023-07-12T09:13:48.000Z</time>
      </trkpt>
      <trkpt lat="42.47341" lon="2.98708">
        <ele>1116.8000488281</ele>
        <time>2023-07-12T09:13:54.000Z</time>
      </trkpt>
      <trkpt lat="42.47342" lon="2.98709">
        <ele>1117</ele>
        <time>2023-07-12T09:14:01.000Z</time>
      </trkpt>
      <trkpt lat="42.47339" lon="2.98708">
        <ele>1117</ele>
        <time>2023-07-12T09:14:10.000Z</time>
      </trkpt>
      <trkpt lat="42.47339" lon="2.98708">
        <ele>1117</ele>
        <time>2023-07-12T09:14:20.000Z</time>
      </trkpt>
      <trkpt lat="42.47337" lon="2.98708">
        <ele>1117.1999511719</ele>
        <time>2023-07-12T09:14:28.000Z</time>
      </trkpt>
      <trkpt lat="42.47338" lon="2.98706">
        <ele>1116.8000488281</ele>
        <time>2023-07-12T09:14:36.000Z</time>
      </trkpt>
      <trkpt lat="42.47338" lon="2.98703">
        <ele>1116.5999755859</ele>
        <time>2023-07-12T09:14:39.000Z</time>
      </trkpt>
      <trkpt lat="42.47339" lon="2.98699">
        <ele>1115.4000244141</ele>
        <time>2023-07-12T09:14:44.000Z</time>
      </trkpt>
      <trkpt lat="42.47339" lon="2.98698">
        <ele>1115.1999511719</ele>
        <time>2023-07-12T09:14:45.000Z</time>
      </trkpt>
      <trkpt lat="42.47339" lon="2.98697">
        <ele>1114.1999511719</ele>
        <time>2023-07-12T09:14:49.000Z</time>
      </trkpt>
      <trkpt lat="42.47339" lon="2.98695">
        <ele>1113.5999755859</ele>
        <time>2023-07-12T09:14:52.000Z</time>
      </trkpt>
      <trkpt lat="42.47338" lon="2.98691">
        <ele>1113.1999511719</ele>
        <time>2023-07-12T09:14:55.000Z</time>
      </trkpt>
      <trkpt lat="42.47335" lon="2.98683">
        <ele>1112.1999511719</ele>
        <time>2023-07-12T09:15:00.000Z</time>
      </trkpt>
      <trkpt lat="42.47335" lon="2.98682">
        <ele>1112</ele>
        <time>2023-07-12T09:15:01.000Z</time>
      </trkpt>
      <trkpt lat="42.47331" lon="2.98679">
        <ele>1111</ele>
        <time>2023-07-12T09:15:05.000Z</time>
      </trkpt>
      <trkpt lat="42.47328" lon="2.98675">
        <ele>1110.4000244141</ele>
        <time>2023-07-12T09:15:11.000Z</time>
      </trkpt>
      <trkpt lat="42.47327" lon="2.98674">
        <ele>1109.8000488281</ele>
        <time>2023-07-12T09:15:14.000Z</time>
      </trkpt>
      <trkpt lat="42.47327" lon="2.98671">
        <ele>1108.8000488281</ele>
        <time>2023-07-12T09:15:19.000Z</time>
      </trkpt>
      <trkpt lat="42.47327" lon="2.98669">
        <ele>1108.5999755859</ele>
        <time>2023-07-12T09:15:20.000Z</time>
      </trkpt>
      <trkpt lat="42.47327" lon="2.98666">
        <ele>1107.4000244141</ele>
        <time>2023-07-12T09:15:24.000Z</time>
      </trkpt>
      <trkpt lat="42.47326" lon="2.98663">
        <ele>1106.5999755859</ele>
        <time>2023-07-12T09:15:27.000Z</time>
      </trkpt>
      <trkpt lat="42.47326" lon="2.98662">
        <ele>1106.1999511719</ele>
        <time>2023-07-12T09:15:28.000Z</time>
      </trkpt>
      <trkpt lat="42.47327" lon="2.98659">
        <ele>1105</ele>
        <time>2023-07-12T09:15:32.000Z</time>
      </trkpt>
      <trkpt lat="42.47326" lon="2.9866">
        <ele>1104.4000244141</ele>
        <time>2023-07-12T09:15:35.000Z</time>
      </trkpt>
      <trkpt lat="42.47326" lon="2.98661">
        <ele>1104.1999511719</ele>
        <time>2023-07-12T09:15:36.000Z</time>
      </trkpt>
      <trkpt lat="42.47326" lon="2.98661">
        <ele>1104</ele>
        <time>2023-07-12T09:15:37.000Z</time>
      </trkpt>
      <trkpt lat="42.47326" lon="2.98658">
        <ele>1103.8000488281</ele>
        <time>2023-07-12T09:15:39.000Z</time>
      </trkpt>
      <trkpt lat="42.47326" lon="2.98656">
        <ele>1103.8000488281</ele>
        <time>2023-07-12T09:15:40.000Z</time>
      </trkpt>
      <trkpt lat="42.47327" lon="2.98648">
        <ele>1102.8000488281</ele>
        <time>2023-07-12T09:15:46.000Z</time>
      </trkpt>
      <trkpt lat="42.47328" lon="2.98645">
        <ele>1102.1999511719</ele>
        <time>2023-07-12T09:15:48.000Z</time>
      </trkpt>
      <trkpt lat="42.47329" lon="2.98644">
        <ele>1101.8000488281</ele>
        <time>2023-07-12T09:15:50.000Z</time>
      </trkpt>
      <trkpt lat="42.47327" lon="2.98642">
        <ele>1100.5999755859</ele>
        <time>2023-07-12T09:15:55.000Z</time>
      </trkpt>
      <trkpt lat="42.47327" lon="2.98641">
        <ele>1100.1999511719</ele>
        <time>2023-07-12T09:15:56.000Z</time>
      </trkpt>
      <trkpt lat="42.47325" lon="2.9864">
        <ele>1099.8000488281</ele>
        <time>2023-07-12T09:15:58.000Z</time>
      </trkpt>
      <trkpt lat="42.47324" lon="2.9864">
        <ele>1099.4000244141</ele>
        <time>2023-07-12T09:16:01.000Z</time>
      </trkpt>
      <trkpt lat="42.47324" lon="2.98639">
        <ele>1099.4000244141</ele>
        <time>2023-07-12T09:16:02.000Z</time>
      </trkpt>
      <trkpt lat="42.47325" lon="2.98637">
        <ele>1099.1999511719</ele>
        <time>2023-07-12T09:16:04.000Z</time>
      </trkpt>
      <trkpt lat="42.47326" lon="2.98635">
        <ele>1099.1999511719</ele>
        <time>2023-07-12T09:16:06.000Z</time>
      </trkpt>
      <trkpt lat="42.47326" lon="2.98634">
        <ele>1098.8000488281</ele>
        <time>2023-07-12T09:16:08.000Z</time>
      </trkpt>
      <trkpt lat="42.47322" lon="2.98633">
        <ele>1098.4000244141</ele>
        <time>2023-07-12T09:16:14.000Z</time>
      </trkpt>
      <trkpt lat="42.47322" lon="2.98633">
        <ele>1098.4000244141</ele>
        <time>2023-07-12T09:16:15.000Z</time>
      </trkpt>
      <trkpt lat="42.47323" lon="2.98632">
        <ele>1099</ele>
        <time>2023-07-12T09:16:23.000Z</time>
      </trkpt>
      <trkpt lat="42.47322" lon="2.98635">
        <ele>1097.8000488281</ele>
        <time>2023-07-12T09:16:34.000Z</time>
      </trkpt>
      <trkpt lat="42.47323" lon="2.98629">
        <ele>1097.8000488281</ele>
        <time>2023-07-12T09:16:42.000Z</time>
      </trkpt>
      <trkpt lat="42.47323" lon="2.98626">
        <ele>1097.1999511719</ele>
        <time>2023-07-12T09:16:44.000Z</time>
      </trkpt>
      <trkpt lat="42.47323" lon="2.98623">
        <ele>1096.5999755859</ele>
        <time>2023-07-12T09:16:47.000Z</time>
      </trkpt>
      <trkpt lat="42.47323" lon="2.98622">
        <ele>1096.1999511719</ele>
        <time>2023-07-12T09:16:48.000Z</time>
      </trkpt>
      <trkpt lat="42.47322" lon="2.98619">
        <ele>1094.8000488281</ele>
        <time>2023-07-12T09:16:52.000Z</time>
      </trkpt>
      <trkpt lat="42.47321" lon="2.98619">
        <ele>1094.4000244141</ele>
        <time>2023-07-12T09:16:55.000Z</time>
      </trkpt>
      <trkpt lat="42.4732" lon="2.98619">
        <ele>1093.5999755859</ele>
        <time>2023-07-12T09:16:57.000Z</time>
      </trkpt>
      <trkpt lat="42.47319" lon="2.98616">
        <ele>1092.5999755859</ele>
        <time>2023-07-12T09:17:01.000Z</time>
      </trkpt>
      <trkpt lat="42.47318" lon="2.98613">
        <ele>1091.5999755859</ele>
        <time>2023-07-12T09:17:05.000Z</time>
      </trkpt>
      <trkpt lat="42.47318" lon="2.9861">
        <ele>1090.5999755859</ele>
        <time>2023-07-12T09:17:09.000Z</time>
      </trkpt>
      <trkpt lat="42.47319" lon="2.98609">
        <ele>1090.4000244141</ele>
        <time>2023-07-12T09:17:10.000Z</time>
      </trkpt>
      <trkpt lat="42.4732" lon="2.98605">
        <ele>1089.4000244141</ele>
        <time>2023-07-12T09:17:15.000Z</time>
      </trkpt>
      <trkpt lat="42.4732" lon="2.98605">
        <ele>1088.8000488281</ele>
        <time>2023-07-12T09:17:17.000Z</time>
      </trkpt>
      <trkpt lat="42.4732" lon="2.98605">
        <ele>1088.1999511719</ele>
        <time>2023-07-12T09:17:19.000Z</time>
      </trkpt>
      <trkpt lat="42.4732" lon="2.986">
        <ele>1087</ele>
        <time>2023-07-12T09:17:26.000Z</time>
      </trkpt>
      <trkpt lat="42.4732" lon="2.98597">
        <ele>1086</ele>
        <time>2023-07-12T09:17:30.000Z</time>
      </trkpt>
      <trkpt lat="42.47318" lon="2.98592">
        <ele>1084.8000488281</ele>
        <time>2023-07-12T09:17:34.000Z</time>
      </trkpt>
      <trkpt lat="42.47316" lon="2.98587">
        <ele>1083.8000488281</ele>
        <time>2023-07-12T09:17:38.000Z</time>
      </trkpt>
      <trkpt lat="42.47316" lon="2.98585">
        <ele>1082.5999755859</ele>
        <time>2023-07-12T09:17:42.000Z</time>
      </trkpt>
      <trkpt lat="42.47317" lon="2.98579">
        <ele>1081.5999755859</ele>
        <time>2023-07-12T09:17:46.000Z</time>
      </trkpt>
      <trkpt lat="42.47317" lon="2.98576">
        <ele>1080.5999755859</ele>
        <time>2023-07-12T09:17:49.000Z</time>
      </trkpt>
      <trkpt lat="42.47317" lon="2.98575">
        <ele>1080.1999511719</ele>
        <time>2023-07-12T09:17:50.000Z</time>
      </trkpt>
      <trkpt lat="42.47316" lon="2.98572">
        <ele>1079</ele>
        <time>2023-07-12T09:17:54.000Z</time>
      </trkpt>
      <trkpt lat="42.47314" lon="2.98569">
        <ele>1078</ele>
        <time>2023-07-12T09:17:58.000Z</time>
      </trkpt>
      <trkpt lat="42.47313" lon="2.98564">
        <ele>1076.5999755859</ele>
        <time>2023-07-12T09:18:04.000Z</time>
      </trkpt>
      <trkpt lat="42.47313" lon="2.98563">
        <ele>1076.4000244141</ele>
        <time>2023-07-12T09:18:05.000Z</time>
      </trkpt>
      <trkpt lat="42.47313" lon="2.98562">
        <ele>1075.5999755859</ele>
        <time>2023-07-12T09:18:07.000Z</time>
      </trkpt>
      <trkpt lat="42.47312" lon="2.98557">
        <ele>1074.4000244141</ele>
        <time>2023-07-12T09:18:11.000Z</time>
      </trkpt>
      <trkpt lat="42.47311" lon="2.98553">
        <ele>1073.4000244141</ele>
        <time>2023-07-12T09:18:15.000Z</time>
      </trkpt>
      <trkpt lat="42.47309" lon="2.98549">
        <ele>1072.1999511719</ele>
        <time>2023-07-12T09:18:20.000Z</time>
      </trkpt>
      <trkpt lat="42.47307" lon="2.98547">
        <ele>1071.4000244141</ele>
        <time>2023-07-12T09:18:23.000Z</time>
      </trkpt>
      <trkpt lat="42.47307" lon="2.98546">
        <ele>1071.1999511719</ele>
        <time>2023-07-12T09:18:24.000Z</time>
      </trkpt>
      <trkpt lat="42.47303" lon="2.98543">
        <ele>1070</ele>
        <time>2023-07-12T09:18:30.000Z</time>
      </trkpt>
      <trkpt lat="42.47302" lon="2.98544">
        <ele>1069.8000488281</ele>
        <time>2023-07-12T09:18:31.000Z</time>
      </trkpt>
      <trkpt lat="42.47301" lon="2.98543">
        <ele>1069</ele>
        <time>2023-07-12T09:18:36.000Z</time>
      </trkpt>
      <trkpt lat="42.47301" lon="2.98543">
        <ele>1069</ele>
        <time>2023-07-12T09:18:37.000Z</time>
      </trkpt>
      <trkpt lat="42.473" lon="2.9854">
        <ele>1067.8000488281</ele>
        <time>2023-07-12T09:18:42.000Z</time>
      </trkpt>
      <trkpt lat="42.47299" lon="2.98538">
        <ele>1067.1999511719</ele>
        <time>2023-07-12T09:18:45.000Z</time>
      </trkpt>
      <trkpt lat="42.47299" lon="2.98537">
        <ele>1066.8000488281</ele>
        <time>2023-07-12T09:18:47.000Z</time>
      </trkpt>
      <trkpt lat="42.47299" lon="2.98535">
        <ele>1065.8000488281</ele>
        <time>2023-07-12T09:18:53.000Z</time>
      </trkpt>
      <trkpt lat="42.47297" lon="2.9853">
        <ele>1064.5999755859</ele>
        <time>2023-07-12T09:19:00.000Z</time>
      </trkpt>
      <trkpt lat="42.47296" lon="2.98529">
        <ele>1064.5999755859</ele>
        <time>2023-07-12T09:19:01.000Z</time>
      </trkpt>
      <trkpt lat="42.47296" lon="2.98526">
        <ele>1063.4000244141</ele>
        <time>2023-07-12T09:19:07.000Z</time>
      </trkpt>
      <trkpt lat="42.47295" lon="2.98523">
        <ele>1062.1999511719</ele>
        <time>2023-07-12T09:19:11.000Z</time>
      </trkpt>
      <trkpt lat="42.47294" lon="2.98519">
        <ele>1061.4000244141</ele>
        <time>2023-07-12T09:19:18.000Z</time>
      </trkpt>
      <trkpt lat="42.47292" lon="2.98517">
        <ele>1061.1999511719</ele>
        <time>2023-07-12T09:19:22.000Z</time>
      </trkpt>
      <trkpt lat="42.47292" lon="2.98516">
        <ele>1060.1999511719</ele>
        <time>2023-07-12T09:19:25.000Z</time>
      </trkpt>
      <trkpt lat="42.47291" lon="2.98514">
        <ele>1059</ele>
        <time>2023-07-12T09:19:29.000Z</time>
      </trkpt>
      <trkpt lat="42.4729" lon="2.98511">
        <ele>1058.1999511719</ele>
        <time>2023-07-12T09:19:33.000Z</time>
      </trkpt>
      <trkpt lat="42.4729" lon="2.9851">
        <ele>1057.8000488281</ele>
        <time>2023-07-12T09:19:34.000Z</time>
      </trkpt>
      <trkpt lat="42.4729" lon="2.98508">
        <ele>1056.8000488281</ele>
        <time>2023-07-12T09:19:37.000Z</time>
      </trkpt>
      <trkpt lat="42.47291" lon="2.98505">
        <ele>1056.1999511719</ele>
        <time>2023-07-12T09:19:40.000Z</time>
      </trkpt>
      <trkpt lat="42.4729" lon="2.98502">
        <ele>1055.1999511719</ele>
        <time>2023-07-12T09:19:43.000Z</time>
      </trkpt>
      <trkpt lat="42.47288" lon="2.98501">
        <ele>1054.5999755859</ele>
        <time>2023-07-12T09:19:48.000Z</time>
      </trkpt>
      <trkpt lat="42.47288" lon="2.98499">
        <ele>1054</ele>
        <time>2023-07-12T09:19:50.000Z</time>
      </trkpt>
      <trkpt lat="42.47288" lon="2.98496">
        <ele>1053</ele>
        <time>2023-07-12T09:19:54.000Z</time>
      </trkpt>
      <trkpt lat="42.47288" lon="2.98491">
        <ele>1052.1999511719</ele>
        <time>2023-07-12T09:19:57.000Z</time>
      </trkpt>
      <trkpt lat="42.47288" lon="2.9849">
        <ele>1052</ele>
        <time>2023-07-12T09:19:58.000Z</time>
      </trkpt>
      <trkpt lat="42.47288" lon="2.98486">
        <ele>1050.8000488281</ele>
        <time>2023-07-12T09:20:03.000Z</time>
      </trkpt>
      <trkpt lat="42.47287" lon="2.98484">
        <ele>1050.1999511719</ele>
        <time>2023-07-12T09:20:05.000Z</time>
      </trkpt>
      <trkpt lat="42.47286" lon="2.98482">
        <ele>1049.5999755859</ele>
        <time>2023-07-12T09:20:07.000Z</time>
      </trkpt>
      <trkpt lat="42.47285" lon="2.98477">
        <ele>1048.5999755859</ele>
        <time>2023-07-12T09:20:11.000Z</time>
      </trkpt>
      <trkpt lat="42.47285" lon="2.98472">
        <ele>1047.8000488281</ele>
        <time>2023-07-12T09:20:14.000Z</time>
      </trkpt>
      <trkpt lat="42.47285" lon="2.9847">
        <ele>1047.4000244141</ele>
        <time>2023-07-12T09:20:16.000Z</time>
      </trkpt>
      <trkpt lat="42.47284" lon="2.98462">
        <ele>1046.8000488281</ele>
        <time>2023-07-12T09:20:21.000Z</time>
      </trkpt>
      <trkpt lat="42.47281" lon="2.98457">
        <ele>1046.1999511719</ele>
        <time>2023-07-12T09:20:25.000Z</time>
      </trkpt>
      <trkpt lat="42.47278" lon="2.98453">
        <ele>1045</ele>
        <time>2023-07-12T09:20:29.000Z</time>
      </trkpt>
      <trkpt lat="42.47274" lon="2.98446">
        <ele>1043.8000488281</ele>
        <time>2023-07-12T09:20:34.000Z</time>
      </trkpt>
      <trkpt lat="42.47273" lon="2.98443">
        <ele>1043.1999511719</ele>
        <time>2023-07-12T09:20:36.000Z</time>
      </trkpt>
      <trkpt lat="42.47271" lon="2.9844">
        <ele>1042.8000488281</ele>
        <time>2023-07-12T09:20:39.000Z</time>
      </trkpt>
      <trkpt lat="42.47271" lon="2.98434">
        <ele>1041.8000488281</ele>
        <time>2023-07-12T09:20:45.000Z</time>
      </trkpt>
      <trkpt lat="42.47271" lon="2.98433">
        <ele>1041.4000244141</ele>
        <time>2023-07-12T09:20:46.000Z</time>
      </trkpt>
      <trkpt lat="42.4727" lon="2.98429">
        <ele>1040.5999755859</ele>
        <time>2023-07-12T09:20:49.000Z</time>
      </trkpt>
      <trkpt lat="42.4727" lon="2.98427">
        <ele>1039.5999755859</ele>
        <time>2023-07-12T09:20:51.000Z</time>
      </trkpt>
      <trkpt lat="42.4727" lon="2.98425">
        <ele>1038.8000488281</ele>
        <time>2023-07-12T09:20:53.000Z</time>
      </trkpt>
      <trkpt lat="42.4727" lon="2.98423">
        <ele>1038.1999511719</ele>
        <time>2023-07-12T09:20:55.000Z</time>
      </trkpt>
      <trkpt lat="42.4727" lon="2.9842">
        <ele>1036.8000488281</ele>
        <time>2023-07-12T09:20:59.000Z</time>
      </trkpt>
      <trkpt lat="42.47272" lon="2.98416">
        <ele>1036.4000244141</ele>
        <time>2023-07-12T09:21:02.000Z</time>
      </trkpt>
      <trkpt lat="42.47273" lon="2.98414">
        <ele>1035.8000488281</ele>
        <time>2023-07-12T09:21:04.000Z</time>
      </trkpt>
      <trkpt lat="42.47272" lon="2.9841">
        <ele>1034.8000488281</ele>
        <time>2023-07-12T09:21:08.000Z</time>
      </trkpt>
      <trkpt lat="42.47273" lon="2.98409">
        <ele>1034.4000244141</ele>
        <time>2023-07-12T09:21:09.000Z</time>
      </trkpt>
      <trkpt lat="42.47274" lon="2.98405">
        <ele>1033.4000244141</ele>
        <time>2023-07-12T09:21:12.000Z</time>
      </trkpt>
      <trkpt lat="42.47274" lon="2.98399">
        <ele>1032.1999511719</ele>
        <time>2023-07-12T09:21:16.000Z</time>
      </trkpt>
      <trkpt lat="42.47274" lon="2.98394">
        <ele>1031</ele>
        <time>2023-07-12T09:21:20.000Z</time>
      </trkpt>
      <trkpt lat="42.47274" lon="2.98391">
        <ele>1029.8000488281</ele>
        <time>2023-07-12T09:21:23.000Z</time>
      </trkpt>
      <trkpt lat="42.47276" lon="2.98387">
        <ele>1028.5999755859</ele>
        <time>2023-07-12T09:21:27.000Z</time>
      </trkpt>
      <trkpt lat="42.47276" lon="2.98386">
        <ele>1028.1999511719</ele>
        <time>2023-07-12T09:21:28.000Z</time>
      </trkpt>
      <trkpt lat="42.47276" lon="2.98383">
        <ele>1027.4000244141</ele>
        <time>2023-07-12T09:21:31.000Z</time>
      </trkpt>
      <trkpt lat="42.47273" lon="2.98376">
        <ele>1026.4000244141</ele>
        <time>2023-07-12T09:21:36.000Z</time>
      </trkpt>
      <trkpt lat="42.4727" lon="2.98368">
        <ele>1025</ele>
        <time>2023-07-12T09:21:42.000Z</time>
      </trkpt>
      <trkpt lat="42.47269" lon="2.98365">
        <ele>1024.5999755859</ele>
        <time>2023-07-12T09:21:44.000Z</time>
      </trkpt>
      <trkpt lat="42.47269" lon="2.98362">
        <ele>1024</ele>
        <time>2023-07-12T09:21:47.000Z</time>
      </trkpt>
      <trkpt lat="42.47268" lon="2.98355">
        <ele>1022.799987793</ele>
        <time>2023-07-12T09:21:51.000Z</time>
      </trkpt>
      <trkpt lat="42.47267" lon="2.98353">
        <ele>1022.5999755859</ele>
        <time>2023-07-12T09:21:52.000Z</time>
      </trkpt>
      <trkpt lat="42.47266" lon="2.98348">
        <ele>1021.5999755859</ele>
        <time>2023-07-12T09:21:56.000Z</time>
      </trkpt>
      <trkpt lat="42.47264" lon="2.98344">
        <ele>1021.200012207</ele>
        <time>2023-07-12T09:21:59.000Z</time>
      </trkpt>
      <trkpt lat="42.47263" lon="2.98341">
        <ele>1020.4000244141</ele>
        <time>2023-07-12T09:22:02.000Z</time>
      </trkpt>
      <trkpt lat="42.47263" lon="2.98335">
        <ele>1019.4000244141</ele>
        <time>2023-07-12T09:22:07.000Z</time>
      </trkpt>
      <trkpt lat="42.47263" lon="2.98332">
        <ele>1019</ele>
        <time>2023-07-12T09:22:09.000Z</time>
      </trkpt>
      <trkpt lat="42.4726" lon="2.98327">
        <ele>1018.4000244141</ele>
        <time>2023-07-12T09:22:13.000Z</time>
      </trkpt>
      <trkpt lat="42.47259" lon="2.98325">
        <ele>1018.200012207</ele>
        <time>2023-07-12T09:22:15.000Z</time>
      </trkpt>
      <trkpt lat="42.47254" lon="2.98321">
        <ele>1017.5999755859</ele>
        <time>2023-07-12T09:22:22.000Z</time>
      </trkpt>
      <trkpt lat="42.47255" lon="2.98322">
        <ele>1017.799987793</ele>
        <time>2023-07-12T09:22:33.000Z</time>
      </trkpt>
      <trkpt lat="42.4725" lon="2.9832">
        <ele>1017.799987793</ele>
        <time>2023-07-12T09:22:41.000Z</time>
      </trkpt>
      <trkpt lat="42.47241" lon="2.98316">
        <ele>1018.5999755859</ele>
        <time>2023-07-12T09:22:50.000Z</time>
      </trkpt>
      <trkpt lat="42.47232" lon="2.98317">
        <ele>1019.200012207</ele>
        <time>2023-07-12T09:22:57.000Z</time>
      </trkpt>
      <trkpt lat="42.47229" lon="2.98317">
        <ele>1019.4000244141</ele>
        <time>2023-07-12T09:23:00.000Z</time>
      </trkpt>
      <trkpt lat="42.47224" lon="2.98315">
        <ele>1019.5999755859</ele>
        <time>2023-07-12T09:23:04.000Z</time>
      </trkpt>
      <trkpt lat="42.47214" lon="2.98313">
        <ele>1020</ele>
        <time>2023-07-12T09:23:12.000Z</time>
      </trkpt>
      <trkpt lat="42.47213" lon="2.98314">
        <ele>1020.5999755859</ele>
        <time>2023-07-12T09:23:17.000Z</time>
      </trkpt>
      <trkpt lat="42.47212" lon="2.98314">
        <ele>1020.5999755859</ele>
        <time>2023-07-12T09:23:18.000Z</time>
      </trkpt>
      <trkpt lat="42.4721" lon="2.98316">
        <ele>1020.5999755859</ele>
        <time>2023-07-12T09:23:22.000Z</time>
      </trkpt>
      <trkpt lat="42.47211" lon="2.98318">
        <ele>1020.5999755859</ele>
        <time>2023-07-12T09:23:25.000Z</time>
      </trkpt>
      <trkpt lat="42.47213" lon="2.98318">
        <ele>1020.5999755859</ele>
        <time>2023-07-12T09:23:30.000Z</time>
      </trkpt>
      <trkpt lat="42.47213" lon="2.98319">
        <ele>1020.799987793</ele>
        <time>2023-07-12T09:23:39.000Z</time>
      </trkpt>
      <trkpt lat="42.47213" lon="2.98318">
        <ele>1020.4000244141</ele>
        <time>2023-07-12T09:23:47.000Z</time>
      </trkpt>
      <trkpt lat="42.47214" lon="2.98318">
        <ele>1020.799987793</ele>
        <time>2023-07-12T09:23:57.000Z</time>
      </trkpt>
      <trkpt lat="42.47212" lon="2.98315">
        <ele>1020.799987793</ele>
        <time>2023-07-12T09:24:06.000Z</time>
      </trkpt>
      <trkpt lat="42.47208" lon="2.98303">
        <ele>1021.5999755859</ele>
        <time>2023-07-12T09:24:13.000Z</time>
      </trkpt>
      <trkpt lat="42.47207" lon="2.983">
        <ele>1022</ele>
        <time>2023-07-12T09:24:15.000Z</time>
      </trkpt>
      <trkpt lat="42.47205" lon="2.98293">
        <ele>1022.799987793</ele>
        <time>2023-07-12T09:24:19.000Z</time>
      </trkpt>
      <trkpt lat="42.47203" lon="2.9829">
        <ele>1023.200012207</ele>
        <time>2023-07-12T09:24:22.000Z</time>
      </trkpt>
      <trkpt lat="42.47202" lon="2.98284">
        <ele>1023</ele>
        <time>2023-07-12T09:24:29.000Z</time>
      </trkpt>
      <trkpt lat="42.47202" lon="2.98284">
        <ele>1024</ele>
        <time>2023-07-12T09:24:33.000Z</time>
      </trkpt>
      <trkpt lat="42.47201" lon="2.9828">
        <ele>1024.1999511719</ele>
        <time>2023-07-12T09:24:38.000Z</time>
      </trkpt>
      <trkpt lat="42.47199" lon="2.98274">
        <ele>1025</ele>
        <time>2023-07-12T09:24:42.000Z</time>
      </trkpt>
      <trkpt lat="42.47196" lon="2.98268">
        <ele>1025.5999755859</ele>
        <time>2023-07-12T09:24:47.000Z</time>
      </trkpt>
      <trkpt lat="42.47195" lon="2.98264">
        <ele>1026</ele>
        <time>2023-07-12T09:24:50.000Z</time>
      </trkpt>
      <trkpt lat="42.47194" lon="2.98258">
        <ele>1027</ele>
        <time>2023-07-12T09:24:55.000Z</time>
      </trkpt>
      <trkpt lat="42.47193" lon="2.98256">
        <ele>1027.1999511719</ele>
        <time>2023-07-12T09:24:57.000Z</time>
      </trkpt>
      <trkpt lat="42.47192" lon="2.98252">
        <ele>1028.1999511719</ele>
        <time>2023-07-12T09:25:01.000Z</time>
      </trkpt>
      <trkpt lat="42.47191" lon="2.98247">
        <ele>1029.1999511719</ele>
        <time>2023-07-12T09:25:06.000Z</time>
      </trkpt>
      <trkpt lat="42.4719" lon="2.98245">
        <ele>1029.1999511719</ele>
        <time>2023-07-12T09:25:08.000Z</time>
      </trkpt>
      <trkpt lat="42.47186" lon="2.98238">
        <ele>1030.1999511719</ele>
        <time>2023-07-12T09:25:15.000Z</time>
      </trkpt>
      <trkpt lat="42.47186" lon="2.98237">
        <ele>1030.4000244141</ele>
        <time>2023-07-12T09:25:16.000Z</time>
      </trkpt>
      <trkpt lat="42.47183" lon="2.98231">
        <ele>1031.4000244141</ele>
        <time>2023-07-12T09:25:22.000Z</time>
      </trkpt>
      <trkpt lat="42.47182" lon="2.98228">
        <ele>1031.4000244141</ele>
        <time>2023-07-12T09:25:24.000Z</time>
      </trkpt>
      <trkpt lat="42.47178" lon="2.98223">
        <ele>1032.4000244141</ele>
        <time>2023-07-12T09:25:30.000Z</time>
      </trkpt>
      <trkpt lat="42.47177" lon="2.98222">
        <ele>1032.4000244141</ele>
        <time>2023-07-12T09:25:31.000Z</time>
      </trkpt>
      <trkpt lat="42.47172" lon="2.98219">
        <ele>1033.1999511719</ele>
        <time>2023-07-12T09:25:36.000Z</time>
      </trkpt>
      <trkpt lat="42.47164" lon="2.98213">
        <ele>1033.5999755859</ele>
        <time>2023-07-12T09:25:43.000Z</time>
      </trkpt>
      <trkpt lat="42.47162" lon="2.98212">
        <ele>1033.8000488281</ele>
        <time>2023-07-12T09:25:45.000Z</time>
      </trkpt>
      <trkpt lat="42.47155" lon="2.98202">
        <ele>1034.5999755859</ele>
        <time>2023-07-12T09:25:54.000Z</time>
      </trkpt>
      <trkpt lat="42.47154" lon="2.98201">
        <ele>1034.5999755859</ele>
        <time>2023-07-12T09:25:55.000Z</time>
      </trkpt>
      <trkpt lat="42.47147" lon="2.98193">
        <ele>1035.5999755859</ele>
        <time>2023-07-12T09:26:04.000Z</time>
      </trkpt>
      <trkpt lat="42.47145" lon="2.98192">
        <ele>1035.5999755859</ele>
        <time>2023-07-12T09:26:05.000Z</time>
      </trkpt>
      <trkpt lat="42.47137" lon="2.98189">
        <ele>1036.8000488281</ele>
        <time>2023-07-12T09:26:12.000Z</time>
      </trkpt>
      <trkpt lat="42.47136" lon="2.9819">
        <ele>1037</ele>
        <time>2023-07-12T09:26:14.000Z</time>
      </trkpt>
      <trkpt lat="42.47129" lon="2.98189">
        <ele>1037</ele>
        <time>2023-07-12T09:26:22.000Z</time>
      </trkpt>
      <trkpt lat="42.47117" lon="2.98188">
        <ele>1036.8000488281</ele>
        <time>2023-07-12T09:26:31.000Z</time>
      </trkpt>
      <trkpt lat="42.47108" lon="2.98186">
        <ele>1037.1999511719</ele>
        <time>2023-07-12T09:26:38.000Z</time>
      </trkpt>
      <trkpt lat="42.47103" lon="2.98185">
        <ele>1037.8000488281</ele>
        <time>2023-07-12T09:26:43.000Z</time>
      </trkpt>
      <trkpt lat="42.47099" lon="2.98184">
        <ele>1038</ele>
        <time>2023-07-12T09:26:46.000Z</time>
      </trkpt>
      <trkpt lat="42.47093" lon="2.98178">
        <ele>1038.8000488281</ele>
        <time>2023-07-12T09:26:52.000Z</time>
      </trkpt>
      <trkpt lat="42.47092" lon="2.98177">
        <ele>1039</ele>
        <time>2023-07-12T09:26:53.000Z</time>
      </trkpt>
      <trkpt lat="42.47082" lon="2.98173">
        <ele>1039</ele>
        <time>2023-07-12T09:27:01.000Z</time>
      </trkpt>
      <trkpt lat="42.47075" lon="2.98173">
        <ele>1038.8000488281</ele>
        <time>2023-07-12T09:27:08.000Z</time>
      </trkpt>
      <trkpt lat="42.47066" lon="2.98174">
        <ele>1039</ele>
        <time>2023-07-12T09:27:16.000Z</time>
      </trkpt>
      <trkpt lat="42.47063" lon="2.98172">
        <ele>1039</ele>
        <time>2023-07-12T09:27:26.000Z</time>
      </trkpt>
      <trkpt lat="42.47056" lon="2.98168">
        <ele>1038.8000488281</ele>
        <time>2023-07-12T09:27:33.000Z</time>
      </trkpt>
      <trkpt lat="42.47055" lon="2.98168">
        <ele>1039</ele>
        <time>2023-07-12T09:27:36.000Z</time>
      </trkpt>
      <trkpt lat="42.47055" lon="2.98169">
        <ele>1039</ele>
        <time>2023-07-12T09:27:39.000Z</time>
      </trkpt>
      <trkpt lat="42.47056" lon="2.98169">
        <ele>1039</ele>
        <time>2023-07-12T09:27:40.000Z</time>
      </trkpt>
      <trkpt lat="42.47055" lon="2.98171">
        <ele>1039</ele>
        <time>2023-07-12T09:27:49.000Z</time>
      </trkpt>
      <trkpt lat="42.47048" lon="2.98171">
        <ele>1038.8000488281</ele>
        <time>2023-07-12T09:27:55.000Z</time>
      </trkpt>
      <trkpt lat="42.47039" lon="2.98169">
        <ele>1038.8000488281</ele>
        <time>2023-07-12T09:28:02.000Z</time>
      </trkpt>
      <trkpt lat="42.4703" lon="2.98166">
        <ele>1038.8000488281</ele>
        <time>2023-07-12T09:28:10.000Z</time>
      </trkpt>
      <trkpt lat="42.4702" lon="2.98167">
        <ele>1039</ele>
        <time>2023-07-12T09:28:17.000Z</time>
      </trkpt>
      <trkpt lat="42.47013" lon="2.98166">
        <ele>1038.8000488281</ele>
        <time>2023-07-12T09:28:24.000Z</time>
      </trkpt>
      <trkpt lat="42.47003" lon="2.98164">
        <ele>1038.8000488281</ele>
        <time>2023-07-12T09:28:31.000Z</time>
      </trkpt>
      <trkpt lat="42.46993" lon="2.9816">
        <ele>1039</ele>
        <time>2023-07-12T09:28:39.000Z</time>
      </trkpt>
      <trkpt lat="42.46983" lon="2.98156">
        <ele>1039.4000244141</ele>
        <time>2023-07-12T09:28:47.000Z</time>
      </trkpt>
      <trkpt lat="42.46975" lon="2.98152">
        <ele>1040</ele>
        <time>2023-07-12T09:28:53.000Z</time>
      </trkpt>
      <trkpt lat="42.46973" lon="2.9815">
        <ele>1040</ele>
        <time>2023-07-12T09:28:55.000Z</time>
      </trkpt>
      <trkpt lat="42.46968" lon="2.98148">
        <ele>1039.8000488281</ele>
        <time>2023-07-12T09:29:01.000Z</time>
      </trkpt>
      <trkpt lat="42.46959" lon="2.98143">
        <ele>1039.8000488281</ele>
        <time>2023-07-12T09:29:08.000Z</time>
      </trkpt>
      <trkpt lat="42.46954" lon="2.98141">
        <ele>1039.8000488281</ele>
        <time>2023-07-12T09:29:14.000Z</time>
      </trkpt>
      <trkpt lat="42.46955" lon="2.98141">
        <ele>1039.8000488281</ele>
        <time>2023-07-12T09:29:15.000Z</time>
      </trkpt>
      <trkpt lat="42.46955" lon="2.9814">
        <ele>1039.8000488281</ele>
        <time>2023-07-12T09:29:21.000Z</time>
      </trkpt>
      <trkpt lat="42.46955" lon="2.9814">
        <ele>1039.8000488281</ele>
        <time>2023-07-12T09:29:22.000Z</time>
      </trkpt>
      <trkpt lat="42.46953" lon="2.9814">
        <ele>1039.8000488281</ele>
        <time>2023-07-12T09:29:32.000Z</time>
      </trkpt>
      <trkpt lat="42.46949" lon="2.98138">
        <ele>1039.8000488281</ele>
        <time>2023-07-12T09:29:40.000Z</time>
      </trkpt>
      <trkpt lat="42.46938" lon="2.9813">
        <ele>1039.8000488281</ele>
        <time>2023-07-12T09:29:49.000Z</time>
      </trkpt>
      <trkpt lat="42.46928" lon="2.98124">
        <ele>1040</ele>
        <time>2023-07-12T09:29:58.000Z</time>
      </trkpt>
      <trkpt lat="42.46918" lon="2.98116">
        <ele>1040.1999511719</ele>
        <time>2023-07-12T09:30:06.000Z</time>
      </trkpt>
      <trkpt lat="42.4691" lon="2.98108">
        <ele>1040</ele>
        <time>2023-07-12T09:30:15.000Z</time>
      </trkpt>
      <trkpt lat="42.46902" lon="2.98099">
        <ele>1041</ele>
        <time>2023-07-12T09:30:23.000Z</time>
      </trkpt>
      <trkpt lat="42.46901" lon="2.98098">
        <ele>1041</ele>
        <time>2023-07-12T09:30:24.000Z</time>
      </trkpt>
      <trkpt lat="42.4689" lon="2.98083">
        <ele>1042</ele>
        <time>2023-07-12T09:30:35.000Z</time>
      </trkpt>
      <trkpt lat="42.46882" lon="2.98073">
        <ele>1041.8000488281</ele>
        <time>2023-07-12T09:30:44.000Z</time>
      </trkpt>
      <trkpt lat="42.46875" lon="2.98061">
        <ele>1041.8000488281</ele>
        <time>2023-07-12T09:30:53.000Z</time>
      </trkpt>
      <trkpt lat="42.46873" lon="2.98057">
        <ele>1042</ele>
        <time>2023-07-12T09:30:56.000Z</time>
      </trkpt>
      <trkpt lat="42.46868" lon="2.98047">
        <ele>1042.4000244141</ele>
        <time>2023-07-12T09:31:02.000Z</time>
      </trkpt>
      <trkpt lat="42.46864" lon="2.98039">
        <ele>1043</ele>
        <time>2023-07-12T09:31:08.000Z</time>
      </trkpt>
      <trkpt lat="42.46862" lon="2.98034">
        <ele>1043.1999511719</ele>
        <time>2023-07-12T09:31:11.000Z</time>
      </trkpt>
      <trkpt lat="42.46856" lon="2.98025">
        <ele>1044.1999511719</ele>
        <time>2023-07-12T09:31:19.000Z</time>
      </trkpt>
      <trkpt lat="42.46855" lon="2.98022">
        <ele>1044.4000244141</ele>
        <time>2023-07-12T09:31:21.000Z</time>
      </trkpt>
      <trkpt lat="42.46851" lon="2.98015">
        <ele>1045.1999511719</ele>
        <time>2023-07-12T09:31:26.000Z</time>
      </trkpt>
      <trkpt lat="42.4685" lon="2.98011">
        <ele>1045.5999755859</ele>
        <time>2023-07-12T09:31:29.000Z</time>
      </trkpt>
      <trkpt lat="42.46844" lon="2.97999">
        <ele>1045.8000488281</ele>
        <time>2023-07-12T09:31:37.000Z</time>
      </trkpt>
      <trkpt lat="42.4684" lon="2.97993">
        <ele>1046.4000244141</ele>
        <time>2023-07-12T09:31:42.000Z</time>
      </trkpt>
      <trkpt lat="42.46836" lon="2.97989">
        <ele>1046.8000488281</ele>
        <time>2023-07-12T09:31:46.000Z</time>
      </trkpt>
      <trkpt lat="42.46833" lon="2.97985">
        <ele>1047.4000244141</ele>
        <time>2023-07-12T09:31:50.000Z</time>
      </trkpt>
      <trkpt lat="42.46831" lon="2.97977">
        <ele>1048.1999511719</ele>
        <time>2023-07-12T09:31:55.000Z</time>
      </trkpt>
      <trkpt lat="42.46831" lon="2.97975">
        <ele>1048.4000244141</ele>
        <time>2023-07-12T09:31:56.000Z</time>
      </trkpt>
      <trkpt lat="42.46829" lon="2.97964">
        <ele>1049.1999511719</ele>
        <time>2023-07-12T09:32:03.000Z</time>
      </trkpt>
      <trkpt lat="42.46828" lon="2.97962">
        <ele>1049.4000244141</ele>
        <time>2023-07-12T09:32:05.000Z</time>
      </trkpt>
      <trkpt lat="42.46826" lon="2.97955">
        <ele>1050.4000244141</ele>
        <time>2023-07-12T09:32:11.000Z</time>
      </trkpt>
      <trkpt lat="42.46825" lon="2.97953">
        <ele>1050.4000244141</ele>
        <time>2023-07-12T09:32:12.000Z</time>
      </trkpt>
      <trkpt lat="42.46823" lon="2.97943">
        <ele>1051.4000244141</ele>
        <time>2023-07-12T09:32:19.000Z</time>
      </trkpt>
      <trkpt lat="42.46822" lon="2.97924">
        <ele>1052.4000244141</ele>
        <time>2023-07-12T09:32:30.000Z</time>
      </trkpt>
      <trkpt lat="42.46822" lon="2.97922">
        <ele>1052.4000244141</ele>
        <time>2023-07-12T09:32:32.000Z</time>
      </trkpt>
      <trkpt lat="42.46819" lon="2.97912">
        <ele>1053.4000244141</ele>
        <time>2023-07-12T09:32:39.000Z</time>
      </trkpt>
      <trkpt lat="42.46818" lon="2.97908">
        <ele>1053.5999755859</ele>
        <time>2023-07-12T09:32:41.000Z</time>
      </trkpt>
      <trkpt lat="42.46816" lon="2.97899">
        <ele>1054.1999511719</ele>
        <time>2023-07-12T09:32:47.000Z</time>
      </trkpt>
      <trkpt lat="42.46813" lon="2.97886">
        <ele>1054.8000488281</ele>
        <time>2023-07-12T09:32:55.000Z</time>
      </trkpt>
      <trkpt lat="42.46812" lon="2.97884">
        <ele>1054.8000488281</ele>
        <time>2023-07-12T09:32:56.000Z</time>
      </trkpt>
      <trkpt lat="42.4681" lon="2.97868">
        <ele>1055.5999755859</ele>
        <time>2023-07-12T09:33:06.000Z</time>
      </trkpt>
      <trkpt lat="42.46809" lon="2.97865">
        <ele>1055.8000488281</ele>
        <time>2023-07-12T09:33:08.000Z</time>
      </trkpt>
      <trkpt lat="42.46808" lon="2.9785">
        <ele>1056.5999755859</ele>
        <time>2023-07-12T09:33:16.000Z</time>
      </trkpt>
      <trkpt lat="42.46807" lon="2.9784">
        <ele>1056.8000488281</ele>
        <time>2023-07-12T09:33:22.000Z</time>
      </trkpt>
      <trkpt lat="42.46807" lon="2.97839">
        <ele>1056.8000488281</ele>
        <time>2023-07-12T09:33:23.000Z</time>
      </trkpt>
      <trkpt lat="42.46807" lon="2.97828">
        <ele>1056.5999755859</ele>
        <time>2023-07-12T09:33:30.000Z</time>
      </trkpt>
      <trkpt lat="42.46806" lon="2.97816">
        <ele>1056.4000244141</ele>
        <time>2023-07-12T09:33:37.000Z</time>
      </trkpt>
      <trkpt lat="42.46805" lon="2.97805">
        <ele>1056</ele>
        <time>2023-07-12T09:33:44.000Z</time>
      </trkpt>
      <trkpt lat="42.46803" lon="2.9779">
        <ele>1056.1999511719</ele>
        <time>2023-07-12T09:33:53.000Z</time>
      </trkpt>
      <trkpt lat="42.46801" lon="2.97777">
        <ele>1056.4000244141</ele>
        <time>2023-07-12T09:34:00.000Z</time>
      </trkpt>
      <trkpt lat="42.468" lon="2.97768">
        <ele>1056.4000244141</ele>
        <time>2023-07-12T09:34:07.000Z</time>
      </trkpt>
      <trkpt lat="42.46796" lon="2.97751">
        <ele>1056.1999511719</ele>
        <time>2023-07-12T09:34:16.000Z</time>
      </trkpt>
      <trkpt lat="42.46794" lon="2.97733">
        <ele>1056.4000244141</ele>
        <time>2023-07-12T09:34:26.000Z</time>
      </trkpt>
      <trkpt lat="42.46793" lon="2.97716">
        <ele>1055.8000488281</ele>
        <time>2023-07-12T09:34:36.000Z</time>
      </trkpt>
      <trkpt lat="42.46793" lon="2.97712">
        <ele>1055.8000488281</ele>
        <time>2023-07-12T09:34:38.000Z</time>
      </trkpt>
      <trkpt lat="42.46792" lon="2.97699">
        <ele>1055.4000244141</ele>
        <time>2023-07-12T09:34:45.000Z</time>
      </trkpt>
      <trkpt lat="42.46792" lon="2.97685">
        <ele>1054.8000488281</ele>
        <time>2023-07-12T09:34:53.000Z</time>
      </trkpt>
      <trkpt lat="42.46793" lon="2.97682">
        <ele>1054.4000244141</ele>
        <time>2023-07-12T09:34:55.000Z</time>
      </trkpt>
      <trkpt lat="42.46793" lon="2.97675">
        <ele>1053.8000488281</ele>
        <time>2023-07-12T09:34:59.000Z</time>
      </trkpt>
      <trkpt lat="42.46795" lon="2.9767">
        <ele>1053.1999511719</ele>
        <time>2023-07-12T09:35:03.000Z</time>
      </trkpt>
      <trkpt lat="42.46795" lon="2.97663">
        <ele>1052.4000244141</ele>
        <time>2023-07-12T09:35:07.000Z</time>
      </trkpt>
      <trkpt lat="42.46792" lon="2.97654">
        <ele>1051.4000244141</ele>
        <time>2023-07-12T09:35:12.000Z</time>
      </trkpt>
      <trkpt lat="42.46792" lon="2.97652">
        <ele>1051.4000244141</ele>
        <time>2023-07-12T09:35:13.000Z</time>
      </trkpt>
      <trkpt lat="42.46789" lon="2.97643">
        <ele>1050.1999511719</ele>
        <time>2023-07-12T09:35:19.000Z</time>
      </trkpt>
      <trkpt lat="42.46789" lon="2.97641">
        <ele>1050</ele>
        <time>2023-07-12T09:35:20.000Z</time>
      </trkpt>
      <trkpt lat="42.46786" lon="2.97635">
        <ele>1049.1999511719</ele>
        <time>2023-07-12T09:35:24.000Z</time>
      </trkpt>
      <trkpt lat="42.46786" lon="2.97632">
        <ele>1048.5999755859</ele>
        <time>2023-07-12T09:35:27.000Z</time>
      </trkpt>
      <trkpt lat="42.46786" lon="2.97631">
        <ele>1048.1999511719</ele>
        <time>2023-07-12T09:35:28.000Z</time>
      </trkpt>
      <trkpt lat="42.46785" lon="2.97624">
        <ele>1047</ele>
        <time>2023-07-12T09:35:33.000Z</time>
      </trkpt>
      <trkpt lat="42.46784" lon="2.97621">
        <ele>1046.5999755859</ele>
        <time>2023-07-12T09:35:35.000Z</time>
      </trkpt>
      <trkpt lat="42.46781" lon="2.97618">
        <ele>1046</ele>
        <time>2023-07-12T09:35:38.000Z</time>
      </trkpt>
      <trkpt lat="42.46778" lon="2.97612">
        <ele>1045</ele>
        <time>2023-07-12T09:35:43.000Z</time>
      </trkpt>
      <trkpt lat="42.46777" lon="2.9761">
        <ele>1044.5999755859</ele>
        <time>2023-07-12T09:35:44.000Z</time>
      </trkpt>
      <trkpt lat="42.46775" lon="2.97607">
        <ele>1043.8000488281</ele>
        <time>2023-07-12T09:35:47.000Z</time>
      </trkpt>
      <trkpt lat="42.46774" lon="2.97602">
        <ele>1042.8000488281</ele>
        <time>2023-07-12T09:35:50.000Z</time>
      </trkpt>
      <trkpt lat="42.46774" lon="2.97596">
        <ele>1042.1999511719</ele>
        <time>2023-07-12T09:35:53.000Z</time>
      </trkpt>
      <trkpt lat="42.46774" lon="2.97593">
        <ele>1041.5999755859</ele>
        <time>2023-07-12T09:35:55.000Z</time>
      </trkpt>
      <trkpt lat="42.46774" lon="2.97585">
        <ele>1040.1999511719</ele>
        <time>2023-07-12T09:36:00.000Z</time>
      </trkpt>
      <trkpt lat="42.46773" lon="2.97582">
        <ele>1040</ele>
        <time>2023-07-12T09:36:02.000Z</time>
      </trkpt>
      <trkpt lat="42.46772" lon="2.9758">
        <ele>1039.1999511719</ele>
        <time>2023-07-12T09:36:05.000Z</time>
      </trkpt>
      <trkpt lat="42.46772" lon="2.97581">
        <ele>1039</ele>
        <time>2023-07-12T09:36:09.000Z</time>
      </trkpt>
      <trkpt lat="42.46771" lon="2.9758">
        <ele>1038.5999755859</ele>
        <time>2023-07-12T09:36:18.000Z</time>
      </trkpt>
      <trkpt lat="42.46773" lon="2.97582">
        <ele>1038.4000244141</ele>
        <time>2023-07-12T09:36:27.000Z</time>
      </trkpt>
      <trkpt lat="42.46771" lon="2.97581">
        <ele>1038.5999755859</ele>
        <time>2023-07-12T09:36:37.000Z</time>
      </trkpt>
      <trkpt lat="42.46773" lon="2.97579">
        <ele>1038.1999511719</ele>
        <time>2023-07-12T09:36:50.000Z</time>
      </trkpt>
      <trkpt lat="42.46775" lon="2.97582">
        <ele>1038.4000244141</ele>
        <time>2023-07-12T09:36:59.000Z</time>
      </trkpt>
      <trkpt lat="42.46772" lon="2.97579">
        <ele>1038.4000244141</ele>
        <time>2023-07-12T09:37:09.000Z</time>
      </trkpt>
      <trkpt lat="42.46772" lon="2.97579">
        <ele>1038.5999755859</ele>
        <time>2023-07-12T09:37:18.000Z</time>
      </trkpt>
      <trkpt lat="42.46773" lon="2.97582">
        <ele>1038.8000488281</ele>
        <time>2023-07-12T09:37:28.000Z</time>
      </trkpt>
      <trkpt lat="42.46774" lon="2.97582">
        <ele>1039</ele>
        <time>2023-07-12T09:37:37.000Z</time>
      </trkpt>
      <trkpt lat="42.46773" lon="2.9758">
        <ele>1038.8000488281</ele>
        <time>2023-07-12T09:37:46.000Z</time>
      </trkpt>
      <trkpt lat="42.46774" lon="2.97577">
        <ele>1038.8000488281</ele>
        <time>2023-07-12T09:37:53.000Z</time>
      </trkpt>
      <trkpt lat="42.46774" lon="2.97571">
        <ele>1038</ele>
        <time>2023-07-12T09:37:58.000Z</time>
      </trkpt>
      <trkpt lat="42.46774" lon="2.97569">
        <ele>1037.5999755859</ele>
        <time>2023-07-12T09:38:00.000Z</time>
      </trkpt>
      <trkpt lat="42.46774" lon="2.97564">
        <ele>1036.8000488281</ele>
        <time>2023-07-12T09:38:04.000Z</time>
      </trkpt>
      <trkpt lat="42.46774" lon="2.97558">
        <ele>1035.8000488281</ele>
        <time>2023-07-12T09:38:09.000Z</time>
      </trkpt>
      <trkpt lat="42.46774" lon="2.97555">
        <ele>1035.1999511719</ele>
        <time>2023-07-12T09:38:12.000Z</time>
      </trkpt>
      <trkpt lat="42.46774" lon="2.97552">
        <ele>1034.5999755859</ele>
        <time>2023-07-12T09:38:14.000Z</time>
      </trkpt>
      <trkpt lat="42.46772" lon="2.97546">
        <ele>1033.4000244141</ele>
        <time>2023-07-12T09:38:19.000Z</time>
      </trkpt>
      <trkpt lat="42.46772" lon="2.97545">
        <ele>1033</ele>
        <time>2023-07-12T09:38:21.000Z</time>
      </trkpt>
      <trkpt lat="42.46771" lon="2.97541">
        <ele>1032.1999511719</ele>
        <time>2023-07-12T09:38:24.000Z</time>
      </trkpt>
      <trkpt lat="42.46769" lon="2.97537">
        <ele>1031.1999511719</ele>
        <time>2023-07-12T09:38:28.000Z</time>
      </trkpt>
      <trkpt lat="42.46769" lon="2.97535">
        <ele>1030.5999755859</ele>
        <time>2023-07-12T09:38:30.000Z</time>
      </trkpt>
      <trkpt lat="42.46767" lon="2.97532">
        <ele>1030</ele>
        <time>2023-07-12T09:38:33.000Z</time>
      </trkpt>
      <trkpt lat="42.46763" lon="2.97529">
        <ele>1029</ele>
        <time>2023-07-12T09:38:37.000Z</time>
      </trkpt>
      <trkpt lat="42.46759" lon="2.97527">
        <ele>1027.8000488281</ele>
        <time>2023-07-12T09:38:42.000Z</time>
      </trkpt>
      <trkpt lat="42.46757" lon="2.97525">
        <ele>1027</ele>
        <time>2023-07-12T09:38:45.000Z</time>
      </trkpt>
      <trkpt lat="42.46755" lon="2.97523">
        <ele>1026.5999755859</ele>
        <time>2023-07-12T09:38:47.000Z</time>
      </trkpt>
      <trkpt lat="42.46751" lon="2.97519">
        <ele>1025.4000244141</ele>
        <time>2023-07-12T09:38:51.000Z</time>
      </trkpt>
      <trkpt lat="42.46751" lon="2.97518">
        <ele>1024.8000488281</ele>
        <time>2023-07-12T09:38:52.000Z</time>
      </trkpt>
      <trkpt lat="42.46749" lon="2.97517">
        <ele>1024.1999511719</ele>
        <time>2023-07-12T09:38:55.000Z</time>
      </trkpt>
      <trkpt lat="42.46745" lon="2.9751">
        <ele>1023.200012207</ele>
        <time>2023-07-12T09:39:00.000Z</time>
      </trkpt>
      <trkpt lat="42.46741" lon="2.97506">
        <ele>1022.200012207</ele>
        <time>2023-07-12T09:39:04.000Z</time>
      </trkpt>
      <trkpt lat="42.46739" lon="2.97499">
        <ele>1021.4000244141</ele>
        <time>2023-07-12T09:39:08.000Z</time>
      </trkpt>
      <trkpt lat="42.46739" lon="2.97498">
        <ele>1021.200012207</ele>
        <time>2023-07-12T09:39:09.000Z</time>
      </trkpt>
      <trkpt lat="42.46737" lon="2.97491">
        <ele>1020.200012207</ele>
        <time>2023-07-12T09:39:14.000Z</time>
      </trkpt>
      <trkpt lat="42.46736" lon="2.97487">
        <ele>1019.4000244141</ele>
        <time>2023-07-12T09:39:17.000Z</time>
      </trkpt>
      <trkpt lat="42.46735" lon="2.97484">
        <ele>1018.799987793</ele>
        <time>2023-07-12T09:39:19.000Z</time>
      </trkpt>
      <trkpt lat="42.46734" lon="2.97479">
        <ele>1017.799987793</ele>
        <time>2023-07-12T09:39:24.000Z</time>
      </trkpt>
      <trkpt lat="42.46734" lon="2.97478">
        <ele>1017.799987793</ele>
        <time>2023-07-12T09:39:25.000Z</time>
      </trkpt>
      <trkpt lat="42.46731" lon="2.97469">
        <ele>1016.799987793</ele>
        <time>2023-07-12T09:39:31.000Z</time>
      </trkpt>
      <trkpt lat="42.46731" lon="2.97468">
        <ele>1016.4000244141</ele>
        <time>2023-07-12T09:39:32.000Z</time>
      </trkpt>
      <trkpt lat="42.46729" lon="2.97463">
        <ele>1015.5999755859</ele>
        <time>2023-07-12T09:39:36.000Z</time>
      </trkpt>
      <trkpt lat="42.46729" lon="2.9746">
        <ele>1015.200012207</ele>
        <time>2023-07-12T09:39:39.000Z</time>
      </trkpt>
      <trkpt lat="42.46729" lon="2.97456">
        <ele>1014.5999755859</ele>
        <time>2023-07-12T09:39:42.000Z</time>
      </trkpt>
      <trkpt lat="42.46727" lon="2.97447">
        <ele>1013.799987793</ele>
        <time>2023-07-12T09:39:47.000Z</time>
      </trkpt>
      <trkpt lat="42.46727" lon="2.97444">
        <ele>1013.4000244141</ele>
        <time>2023-07-12T09:39:49.000Z</time>
      </trkpt>
      <trkpt lat="42.46727" lon="2.97436">
        <ele>1012.4000244141</ele>
        <time>2023-07-12T09:39:55.000Z</time>
      </trkpt>
      <trkpt lat="42.46726" lon="2.97431">
        <ele>1011.5999755859</ele>
        <time>2023-07-12T09:39:58.000Z</time>
      </trkpt>
      <trkpt lat="42.46725" lon="2.97429">
        <ele>1011.200012207</ele>
        <time>2023-07-12T09:40:00.000Z</time>
      </trkpt>
      <trkpt lat="42.46723" lon="2.97423">
        <ele>1010.200012207</ele>
        <time>2023-07-12T09:40:05.000Z</time>
      </trkpt>
      <trkpt lat="42.46723" lon="2.97422">
        <ele>1009.799987793</ele>
        <time>2023-07-12T09:40:06.000Z</time>
      </trkpt>
      <trkpt lat="42.46722" lon="2.97416">
        <ele>1009.200012207</ele>
        <time>2023-07-12T09:40:09.000Z</time>
      </trkpt>
      <trkpt lat="42.46722" lon="2.97409">
        <ele>1008</ele>
        <time>2023-07-12T09:40:13.000Z</time>
      </trkpt>
      <trkpt lat="42.46722" lon="2.97408">
        <ele>1007.5999755859</ele>
        <time>2023-07-12T09:40:14.000Z</time>
      </trkpt>
      <trkpt lat="42.46721" lon="2.97404">
        <ele>1007</ele>
        <time>2023-07-12T09:40:17.000Z</time>
      </trkpt>
      <trkpt lat="42.46721" lon="2.97398">
        <ele>1005.799987793</ele>
        <time>2023-07-12T09:40:21.000Z</time>
      </trkpt>
      <trkpt lat="42.4672" lon="2.97397">
        <ele>1005.5999755859</ele>
        <time>2023-07-12T09:40:22.000Z</time>
      </trkpt>
      <trkpt lat="42.4672" lon="2.97393">
        <ele>1004.799987793</ele>
        <time>2023-07-12T09:40:25.000Z</time>
      </trkpt>
      <trkpt lat="42.46717" lon="2.97385">
        <ele>1003.5999755859</ele>
        <time>2023-07-12T09:40:30.000Z</time>
      </trkpt>
      <trkpt lat="42.46715" lon="2.97379">
        <ele>1002.4000244141</ele>
        <time>2023-07-12T09:40:35.000Z</time>
      </trkpt>
      <trkpt lat="42.46714" lon="2.97373">
        <ele>1001.200012207</ele>
        <time>2023-07-12T09:40:39.000Z</time>
      </trkpt>
      <trkpt lat="42.46712" lon="2.97366">
        <ele>1000</ele>
        <time>2023-07-12T09:40:44.000Z</time>
      </trkpt>
      <trkpt lat="42.46711" lon="2.97363">
        <ele>999.59997558594</ele>
        <time>2023-07-12T09:40:47.000Z</time>
      </trkpt>
      <trkpt lat="42.46709" lon="2.97359">
        <ele>999</ele>
        <time>2023-07-12T09:40:50.000Z</time>
      </trkpt>
      <trkpt lat="42.46708" lon="2.97355">
        <ele>998.20001220703</ele>
        <time>2023-07-12T09:40:54.000Z</time>
      </trkpt>
      <trkpt lat="42.46707" lon="2.97354">
        <ele>998</ele>
        <time>2023-07-12T09:40:55.000Z</time>
      </trkpt>
      <trkpt lat="42.46706" lon="2.97349">
        <ele>996.79998779297</ele>
        <time>2023-07-12T09:40:59.000Z</time>
      </trkpt>
      <trkpt lat="42.46705" lon="2.97345">
        <ele>996.20001220703</ele>
        <time>2023-07-12T09:41:02.000Z</time>
      </trkpt>
      <trkpt lat="42.46705" lon="2.9734">
        <ele>995.79998779297</ele>
        <time>2023-07-12T09:41:05.000Z</time>
      </trkpt>
      <trkpt lat="42.46705" lon="2.97335">
        <ele>995</ele>
        <time>2023-07-12T09:41:08.000Z</time>
      </trkpt>
      <trkpt lat="42.46706" lon="2.97332">
        <ele>994.59997558594</ele>
        <time>2023-07-12T09:41:10.000Z</time>
      </trkpt>
      <trkpt lat="42.46706" lon="2.97327">
        <ele>993.59997558594</ele>
        <time>2023-07-12T09:41:15.000Z</time>
      </trkpt>
      <trkpt lat="42.46706" lon="2.97324">
        <ele>993.40002441406</ele>
        <time>2023-07-12T09:41:17.000Z</time>
      </trkpt>
      <trkpt lat="42.46705" lon="2.9732">
        <ele>992.59997558594</ele>
        <time>2023-07-12T09:41:20.000Z</time>
      </trkpt>
      <trkpt lat="42.46704" lon="2.97312">
        <ele>991.59997558594</ele>
        <time>2023-07-12T09:41:25.000Z</time>
      </trkpt>
      <trkpt lat="42.46703" lon="2.97306">
        <ele>990.40002441406</ele>
        <time>2023-07-12T09:41:29.000Z</time>
      </trkpt>
      <trkpt lat="42.46702" lon="2.97299">
        <ele>989.59997558594</ele>
        <time>2023-07-12T09:41:33.000Z</time>
      </trkpt>
      <trkpt lat="42.46702" lon="2.97298">
        <ele>989.40002441406</ele>
        <time>2023-07-12T09:41:34.000Z</time>
      </trkpt>
      <trkpt lat="42.46701" lon="2.97292">
        <ele>988.40002441406</ele>
        <time>2023-07-12T09:41:38.000Z</time>
      </trkpt>
      <trkpt lat="42.467" lon="2.97287">
        <ele>987.40002441406</ele>
        <time>2023-07-12T09:41:42.000Z</time>
      </trkpt>
      <trkpt lat="42.467" lon="2.97286">
        <ele>987.20001220703</ele>
        <time>2023-07-12T09:41:43.000Z</time>
      </trkpt>
      <trkpt lat="42.46699" lon="2.9728">
        <ele>986</ele>
        <time>2023-07-12T09:41:47.000Z</time>
      </trkpt>
      <trkpt lat="42.46698" lon="2.97277">
        <ele>985.59997558594</ele>
        <time>2023-07-12T09:41:49.000Z</time>
      </trkpt>
      <trkpt lat="42.46697" lon="2.97272">
        <ele>984.79998779297</ele>
        <time>2023-07-12T09:41:53.000Z</time>
      </trkpt>
      <trkpt lat="42.46695" lon="2.97268">
        <ele>984.20001220703</ele>
        <time>2023-07-12T09:41:56.000Z</time>
      </trkpt>
      <trkpt lat="42.46694" lon="2.97265">
        <ele>983.59997558594</ele>
        <time>2023-07-12T09:41:59.000Z</time>
      </trkpt>
      <trkpt lat="42.46693" lon="2.97262">
        <ele>982.59997558594</ele>
        <time>2023-07-12T09:42:04.000Z</time>
      </trkpt>
      <trkpt lat="42.46692" lon="2.97259">
        <ele>982.20001220703</ele>
        <time>2023-07-12T09:42:06.000Z</time>
      </trkpt>
      <trkpt lat="42.46691" lon="2.97253">
        <ele>981.40002441406</ele>
        <time>2023-07-12T09:42:10.000Z</time>
      </trkpt>
      <trkpt lat="42.4669" lon="2.97248">
        <ele>980.59997558594</ele>
        <time>2023-07-12T09:42:13.000Z</time>
      </trkpt>
      <trkpt lat="42.46689" lon="2.97245">
        <ele>980.20001220703</ele>
        <time>2023-07-12T09:42:15.000Z</time>
      </trkpt>
      <trkpt lat="42.46688" lon="2.9724">
        <ele>979.20001220703</ele>
        <time>2023-07-12T09:42:19.000Z</time>
      </trkpt>
      <trkpt lat="42.46685" lon="2.97234">
        <ele>978.40002441406</ele>
        <time>2023-07-12T09:42:23.000Z</time>
      </trkpt>
      <trkpt lat="42.46684" lon="2.97233">
        <ele>978.20001220703</ele>
        <time>2023-07-12T09:42:24.000Z</time>
      </trkpt>
      <trkpt lat="42.46681" lon="2.97225">
        <ele>976.79998779297</ele>
        <time>2023-07-12T09:42:30.000Z</time>
      </trkpt>
      <trkpt lat="42.4668" lon="2.9722">
        <ele>976</ele>
        <time>2023-07-12T09:42:33.000Z</time>
      </trkpt>
      <trkpt lat="42.4668" lon="2.97218">
        <ele>975.59997558594</ele>
        <time>2023-07-12T09:42:35.000Z</time>
      </trkpt>
      <trkpt lat="42.4668" lon="2.97218">
        <ele>975</ele>
        <time>2023-07-12T09:42:39.000Z</time>
      </trkpt>
      <trkpt lat="42.4668" lon="2.97214">
        <ele>975</ele>
        <time>2023-07-12T09:42:48.000Z</time>
      </trkpt>
      <trkpt lat="42.46678" lon="2.97204">
        <ele>974.59997558594</ele>
        <time>2023-07-12T09:42:54.000Z</time>
      </trkpt>
      <trkpt lat="42.46677" lon="2.97201">
        <ele>974.59997558594</ele>
        <time>2023-07-12T09:42:56.000Z</time>
      </trkpt>
      <trkpt lat="42.46674" lon="2.97192">
        <ele>973.59997558594</ele>
        <time>2023-07-12T09:43:04.000Z</time>
      </trkpt>
      <trkpt lat="42.46674" lon="2.97192">
        <ele>973.59997558594</ele>
        <time>2023-07-12T09:43:05.000Z</time>
      </trkpt>
      <trkpt lat="42.46674" lon="2.9719">
        <ele>973.79998779297</ele>
        <time>2023-07-12T09:43:12.000Z</time>
      </trkpt>
      <trkpt lat="42.46672" lon="2.97184">
        <ele>973.59997558594</ele>
        <time>2023-07-12T09:43:19.000Z</time>
      </trkpt>
      <trkpt lat="42.46671" lon="2.97184">
        <ele>973</ele>
        <time>2023-07-12T09:43:28.000Z</time>
      </trkpt>
      <trkpt lat="42.46669" lon="2.97174">
        <ele>973.59997558594</ele>
        <time>2023-07-12T09:43:34.000Z</time>
      </trkpt>
      <trkpt lat="42.46665" lon="2.97158">
        <ele>973</ele>
        <time>2023-07-12T09:43:42.000Z</time>
      </trkpt>
      <trkpt lat="42.46664" lon="2.97141">
        <ele>972.79998779297</ele>
        <time>2023-07-12T09:43:51.000Z</time>
      </trkpt>
      <trkpt lat="42.46664" lon="2.97134">
        <ele>972.59997558594</ele>
        <time>2023-07-12T09:43:56.000Z</time>
      </trkpt>
      <trkpt lat="42.46664" lon="2.9713">
        <ele>972.40002441406</ele>
        <time>2023-07-12T09:43:58.000Z</time>
      </trkpt>
      <trkpt lat="42.46665" lon="2.97114">
        <ele>972.59997558594</ele>
        <time>2023-07-12T09:44:07.000Z</time>
      </trkpt>
      <trkpt lat="42.46664" lon="2.97097">
        <ele>972.59997558594</ele>
        <time>2023-07-12T09:44:17.000Z</time>
      </trkpt>
      <trkpt lat="42.46665" lon="2.97082">
        <ele>972.20001220703</ele>
        <time>2023-07-12T09:44:25.000Z</time>
      </trkpt>
      <trkpt lat="42.46668" lon="2.97071">
        <ele>972.20001220703</ele>
        <time>2023-07-12T09:44:33.000Z</time>
      </trkpt>
      <trkpt lat="42.46672" lon="2.97059">
        <ele>971.40002441406</ele>
        <time>2023-07-12T09:44:41.000Z</time>
      </trkpt>
      <trkpt lat="42.46671" lon="2.97053">
        <ele>971</ele>
        <time>2023-07-12T09:44:50.000Z</time>
      </trkpt>
      <trkpt lat="42.4667" lon="2.97046">
        <ele>971.79998779297</ele>
        <time>2023-07-12T09:44:59.000Z</time>
      </trkpt>
      <trkpt lat="42.46669" lon="2.97037">
        <ele>972.20001220703</ele>
        <time>2023-07-12T09:45:06.000Z</time>
      </trkpt>
      <trkpt lat="42.46669" lon="2.97035">
        <ele>972.59997558594</ele>
        <time>2023-07-12T09:45:08.000Z</time>
      </trkpt>
      <trkpt lat="42.46667" lon="2.97027">
        <ele>973.20001220703</ele>
        <time>2023-07-12T09:45:14.000Z</time>
      </trkpt>
      <trkpt lat="42.46666" lon="2.9702">
        <ele>973.59997558594</ele>
        <time>2023-07-12T09:45:18.000Z</time>
      </trkpt>
      <trkpt lat="42.46666" lon="2.97015">
        <ele>973.79998779297</ele>
        <time>2023-07-12T09:45:21.000Z</time>
      </trkpt>
      <trkpt lat="42.46666" lon="2.97003">
        <ele>974.59997558594</ele>
        <time>2023-07-12T09:45:28.000Z</time>
      </trkpt>
      <trkpt lat="42.46666" lon="2.96998">
        <ele>975.20001220703</ele>
        <time>2023-07-12T09:45:31.000Z</time>
      </trkpt>
      <trkpt lat="42.46667" lon="2.96991">
        <ele>975.79998779297</ele>
        <time>2023-07-12T09:45:36.000Z</time>
      </trkpt>
      <trkpt lat="42.46666" lon="2.96985">
        <ele>976.59997558594</ele>
        <time>2023-07-12T09:45:40.000Z</time>
      </trkpt>
      <trkpt lat="42.46667" lon="2.96982">
        <ele>977</ele>
        <time>2023-07-12T09:45:42.000Z</time>
      </trkpt>
      <trkpt lat="42.46669" lon="2.96972">
        <ele>977.59997558594</ele>
        <time>2023-07-12T09:45:49.000Z</time>
      </trkpt>
      <trkpt lat="42.46669" lon="2.96965">
        <ele>978.20001220703</ele>
        <time>2023-07-12T09:45:54.000Z</time>
      </trkpt>
      <trkpt lat="42.4667" lon="2.96961">
        <ele>979.20001220703</ele>
        <time>2023-07-12T09:45:57.000Z</time>
      </trkpt>
      <trkpt lat="42.46671" lon="2.96948">
        <ele>979.40002441406</ele>
        <time>2023-07-12T09:46:06.000Z</time>
      </trkpt>
      <trkpt lat="42.46673" lon="2.96932">
        <ele>979.79998779297</ele>
        <time>2023-07-12T09:46:15.000Z</time>
      </trkpt>
      <trkpt lat="42.46672" lon="2.9692">
        <ele>979.79998779297</ele>
        <time>2023-07-12T09:46:24.000Z</time>
      </trkpt>
      <trkpt lat="42.4667" lon="2.96905">
        <ele>979.40002441406</ele>
        <time>2023-07-12T09:46:32.000Z</time>
      </trkpt>
      <trkpt lat="42.46669" lon="2.96891">
        <ele>979.20001220703</ele>
        <time>2023-07-12T09:46:41.000Z</time>
      </trkpt>
      <trkpt lat="42.46668" lon="2.96876">
        <ele>979.20001220703</ele>
        <time>2023-07-12T09:46:49.000Z</time>
      </trkpt>
      <trkpt lat="42.46668" lon="2.96866">
        <ele>979</ele>
        <time>2023-07-12T09:46:56.000Z</time>
      </trkpt>
      <trkpt lat="42.46671" lon="2.96851">
        <ele>978.79998779297</ele>
        <time>2023-07-12T09:47:04.000Z</time>
      </trkpt>
      <trkpt lat="42.46673" lon="2.96835">
        <ele>978.79998779297</ele>
        <time>2023-07-12T09:47:13.000Z</time>
      </trkpt>
      <trkpt lat="42.46674" lon="2.9682">
        <ele>979</ele>
        <time>2023-07-12T09:47:21.000Z</time>
      </trkpt>
      <trkpt lat="42.46677" lon="2.96803">
        <ele>979.20001220703</ele>
        <time>2023-07-12T09:47:31.000Z</time>
      </trkpt>
      <trkpt lat="42.46678" lon="2.9679">
        <ele>979.59997558594</ele>
        <time>2023-07-12T09:47:39.000Z</time>
      </trkpt>
      <trkpt lat="42.4668" lon="2.96779">
        <ele>979.79998779297</ele>
        <time>2023-07-12T09:47:46.000Z</time>
      </trkpt>
      <trkpt lat="42.46681" lon="2.96768">
        <ele>980</ele>
        <time>2023-07-12T09:47:52.000Z</time>
      </trkpt>
      <trkpt lat="42.46684" lon="2.96755">
        <ele>980.20001220703</ele>
        <time>2023-07-12T09:48:00.000Z</time>
      </trkpt>
      <trkpt lat="42.46685" lon="2.96751">
        <ele>980.20001220703</ele>
        <time>2023-07-12T09:48:02.000Z</time>
      </trkpt>
      <trkpt lat="42.46686" lon="2.96742">
        <ele>980.40002441406</ele>
        <time>2023-07-12T09:48:07.000Z</time>
      </trkpt>
      <trkpt lat="42.4669" lon="2.96728">
        <ele>981.20001220703</ele>
        <time>2023-07-12T09:48:16.000Z</time>
      </trkpt>
      <trkpt lat="42.4669" lon="2.96726">
        <ele>981.59997558594</ele>
        <time>2023-07-12T09:48:17.000Z</time>
      </trkpt>
      <trkpt lat="42.46693" lon="2.9672">
        <ele>981.79998779297</ele>
        <time>2023-07-12T09:48:22.000Z</time>
      </trkpt>
      <trkpt lat="42.467" lon="2.96711">
        <ele>982.20001220703</ele>
        <time>2023-07-12T09:48:29.000Z</time>
      </trkpt>
      <trkpt lat="42.46705" lon="2.96703">
        <ele>982.20001220703</ele>
        <time>2023-07-12T09:48:36.000Z</time>
      </trkpt>
      <trkpt lat="42.4671" lon="2.96694">
        <ele>982.59997558594</ele>
        <time>2023-07-12T09:48:42.000Z</time>
      </trkpt>
      <trkpt lat="42.46711" lon="2.9669">
        <ele>982.59997558594</ele>
        <time>2023-07-12T09:48:44.000Z</time>
      </trkpt>
      <trkpt lat="42.46714" lon="2.96677">
        <ele>982.79998779297</ele>
        <time>2023-07-12T09:48:53.000Z</time>
      </trkpt>
      <trkpt lat="42.46716" lon="2.96665">
        <ele>983</ele>
        <time>2023-07-12T09:49:01.000Z</time>
      </trkpt>
      <trkpt lat="42.46716" lon="2.9666">
        <ele>983.20001220703</ele>
        <time>2023-07-12T09:49:08.000Z</time>
      </trkpt>
      <trkpt lat="42.46722" lon="2.96648">
        <ele>983.20001220703</ele>
        <time>2023-07-12T09:49:17.000Z</time>
      </trkpt>
      <trkpt lat="42.46729" lon="2.96635">
        <ele>983.40002441406</ele>
        <time>2023-07-12T09:49:25.000Z</time>
      </trkpt>
      <trkpt lat="42.46734" lon="2.96628">
        <ele>983.59997558594</ele>
        <time>2023-07-12T09:49:30.000Z</time>
      </trkpt>
      <trkpt lat="42.46737" lon="2.96622">
        <ele>984</ele>
        <time>2023-07-12T09:49:35.000Z</time>
      </trkpt>
      <trkpt lat="42.46738" lon="2.96618">
        <ele>984.79998779297</ele>
        <time>2023-07-12T09:49:40.000Z</time>
      </trkpt>
      <trkpt lat="42.46739" lon="2.96613">
        <ele>985.40002441406</ele>
        <time>2023-07-12T09:49:44.000Z</time>
      </trkpt>
      <trkpt lat="42.46739" lon="2.96612">
        <ele>985.79998779297</ele>
        <time>2023-07-12T09:49:46.000Z</time>
      </trkpt>
      <trkpt lat="42.46741" lon="2.96608">
        <ele>986.79998779297</ele>
        <time>2023-07-12T09:49:52.000Z</time>
      </trkpt>
      <trkpt lat="42.46746" lon="2.96607">
        <ele>987.20001220703</ele>
        <time>2023-07-12T09:49:59.000Z</time>
      </trkpt>
      <trkpt lat="42.4675" lon="2.96607">
        <ele>987.79998779297</ele>
        <time>2023-07-12T09:50:04.000Z</time>
      </trkpt>
      <trkpt lat="42.46751" lon="2.96607">
        <ele>988</ele>
        <time>2023-07-12T09:50:06.000Z</time>
      </trkpt>
      <trkpt lat="42.46756" lon="2.96601">
        <ele>988.79998779297</ele>
        <time>2023-07-12T09:50:12.000Z</time>
      </trkpt>
      <trkpt lat="42.46756" lon="2.966">
        <ele>989</ele>
        <time>2023-07-12T09:50:13.000Z</time>
      </trkpt>
      <trkpt lat="42.46758" lon="2.96598">
        <ele>990</ele>
        <time>2023-07-12T09:50:18.000Z</time>
      </trkpt>
      <trkpt lat="42.46761" lon="2.96596">
        <ele>990.59997558594</ele>
        <time>2023-07-12T09:50:21.000Z</time>
      </trkpt>
      <trkpt lat="42.46761" lon="2.96593">
        <ele>991.20001220703</ele>
        <time>2023-07-12T09:50:25.000Z</time>
      </trkpt>
      <trkpt lat="42.46762" lon="2.96589">
        <ele>991.79998779297</ele>
        <time>2023-07-12T09:50:29.000Z</time>
      </trkpt>
      <trkpt lat="42.46763" lon="2.96588">
        <ele>992.20001220703</ele>
        <time>2023-07-12T09:50:31.000Z</time>
      </trkpt>
      <trkpt lat="42.46767" lon="2.96589">
        <ele>993</ele>
        <time>2023-07-12T09:50:36.000Z</time>
      </trkpt>
      <trkpt lat="42.46774" lon="2.96587">
        <ele>993.20001220703</ele>
        <time>2023-07-12T09:50:45.000Z</time>
      </trkpt>
      <trkpt lat="42.46777" lon="2.96584">
        <ele>993.40002441406</ele>
        <time>2023-07-12T09:50:49.000Z</time>
      </trkpt>
      <trkpt lat="42.4678" lon="2.9658">
        <ele>994</ele>
        <time>2023-07-12T09:50:53.000Z</time>
      </trkpt>
      <trkpt lat="42.46781" lon="2.96575">
        <ele>994.59997558594</ele>
        <time>2023-07-12T09:50:58.000Z</time>
      </trkpt>
      <trkpt lat="42.4678" lon="2.96571">
        <ele>995.20001220703</ele>
        <time>2023-07-12T09:51:01.000Z</time>
      </trkpt>
      <trkpt lat="42.46781" lon="2.96569">
        <ele>995.79998779297</ele>
        <time>2023-07-12T09:51:04.000Z</time>
      </trkpt>
      <trkpt lat="42.46784" lon="2.96565">
        <ele>996.79998779297</ele>
        <time>2023-07-12T09:51:10.000Z</time>
      </trkpt>
      <trkpt lat="42.46789" lon="2.96565">
        <ele>997.59997558594</ele>
        <time>2023-07-12T09:51:16.000Z</time>
      </trkpt>
      <trkpt lat="42.46793" lon="2.96563">
        <ele>998</ele>
        <time>2023-07-12T09:51:20.000Z</time>
      </trkpt>
      <trkpt lat="42.46795" lon="2.96561">
        <ele>998.59997558594</ele>
        <time>2023-07-12T09:51:23.000Z</time>
      </trkpt>
      <trkpt lat="42.46798" lon="2.96559">
        <ele>999</ele>
        <time>2023-07-12T09:51:27.000Z</time>
      </trkpt>
      <trkpt lat="42.468" lon="2.96557">
        <ele>999.59997558594</ele>
        <time>2023-07-12T09:51:31.000Z</time>
      </trkpt>
      <trkpt lat="42.468" lon="2.96557">
        <ele>1000.200012207</ele>
        <time>2023-07-12T09:51:34.000Z</time>
      </trkpt>
      <trkpt lat="42.46802" lon="2.96556">
        <ele>1000.4000244141</ele>
        <time>2023-07-12T09:51:38.000Z</time>
      </trkpt>
      <trkpt lat="42.46808" lon="2.96555">
        <ele>1001.4000244141</ele>
        <time>2023-07-12T09:51:46.000Z</time>
      </trkpt>
      <trkpt lat="42.46812" lon="2.96553">
        <ele>1002.4000244141</ele>
        <time>2023-07-12T09:51:53.000Z</time>
      </trkpt>
      <trkpt lat="42.46813" lon="2.96552">
        <ele>1002.4000244141</ele>
        <time>2023-07-12T09:51:54.000Z</time>
      </trkpt>
      <trkpt lat="42.46817" lon="2.96549">
        <ele>1003.4000244141</ele>
        <time>2023-07-12T09:52:00.000Z</time>
      </trkpt>
      <trkpt lat="42.46819" lon="2.96547">
        <ele>1004</ele>
        <time>2023-07-12T09:52:03.000Z</time>
      </trkpt>
      <trkpt lat="42.46821" lon="2.96545">
        <ele>1004.4000244141</ele>
        <time>2023-07-12T09:52:06.000Z</time>
      </trkpt>
      <trkpt lat="42.46824" lon="2.9654">
        <ele>1005.5999755859</ele>
        <time>2023-07-12T09:52:13.000Z</time>
      </trkpt>
      <trkpt lat="42.46825" lon="2.96536">
        <ele>1006.799987793</ele>
        <time>2023-07-12T09:52:21.000Z</time>
      </trkpt>
      <trkpt lat="42.46825" lon="2.96529">
        <ele>1008</ele>
        <time>2023-07-12T09:52:28.000Z</time>
      </trkpt>
      <trkpt lat="42.46826" lon="2.96527">
        <ele>1008.4000244141</ele>
        <time>2023-07-12T09:52:31.000Z</time>
      </trkpt>
      <trkpt lat="42.46828" lon="2.96523">
        <ele>1009.200012207</ele>
        <time>2023-07-12T09:52:35.000Z</time>
      </trkpt>
      <trkpt lat="42.4683" lon="2.96519">
        <ele>1010.200012207</ele>
        <time>2023-07-12T09:52:40.000Z</time>
      </trkpt>
      <trkpt lat="42.4683" lon="2.96519">
        <ele>1010.200012207</ele>
        <time>2023-07-12T09:52:41.000Z</time>
      </trkpt>
      <trkpt lat="42.46833" lon="2.96514">
        <ele>1011.200012207</ele>
        <time>2023-07-12T09:52:48.000Z</time>
      </trkpt>
      <trkpt lat="42.46834" lon="2.96513">
        <ele>1011.4000244141</ele>
        <time>2023-07-12T09:52:51.000Z</time>
      </trkpt>
      <trkpt lat="42.46837" lon="2.96508">
        <ele>1012.200012207</ele>
        <time>2023-07-12T09:52:57.000Z</time>
      </trkpt>
      <trkpt lat="42.46839" lon="2.96504">
        <ele>1013</ele>
        <time>2023-07-12T09:53:01.000Z</time>
      </trkpt>
      <trkpt lat="42.46839" lon="2.96501">
        <ele>1013.4000244141</ele>
        <time>2023-07-12T09:53:05.000Z</time>
      </trkpt>
      <trkpt lat="42.46844" lon="2.96496">
        <ele>1014.200012207</ele>
        <time>2023-07-12T09:53:11.000Z</time>
      </trkpt>
      <trkpt lat="42.46845" lon="2.96495">
        <ele>1014.4000244141</ele>
        <time>2023-07-12T09:53:13.000Z</time>
      </trkpt>
      <trkpt lat="42.46851" lon="2.9649">
        <ele>1015.200012207</ele>
        <time>2023-07-12T09:53:20.000Z</time>
      </trkpt>
      <trkpt lat="42.46853" lon="2.96488">
        <ele>1015.5999755859</ele>
        <time>2023-07-12T09:53:23.000Z</time>
      </trkpt>
      <trkpt lat="42.46858" lon="2.96485">
        <ele>1016.200012207</ele>
        <time>2023-07-12T09:53:28.000Z</time>
      </trkpt>
      <trkpt lat="42.46863" lon="2.96481">
        <ele>1016.4000244141</ele>
        <time>2023-07-12T09:53:34.000Z</time>
      </trkpt>
      <trkpt lat="42.46865" lon="2.96479">
        <ele>1016.5999755859</ele>
        <time>2023-07-12T09:53:37.000Z</time>
      </trkpt>
      <trkpt lat="42.46869" lon="2.96473">
        <ele>1017.4000244141</ele>
        <time>2023-07-12T09:53:44.000Z</time>
      </trkpt>
      <trkpt lat="42.4687" lon="2.96471">
        <ele>1017.5999755859</ele>
        <time>2023-07-12T09:53:47.000Z</time>
      </trkpt>
      <trkpt lat="42.46872" lon="2.96467">
        <ele>1018</ele>
        <time>2023-07-12T09:53:51.000Z</time>
      </trkpt>
      <trkpt lat="42.46874" lon="2.96465">
        <ele>1018.200012207</ele>
        <time>2023-07-12T09:53:57.000Z</time>
      </trkpt>
      <trkpt lat="42.46878" lon="2.9646">
        <ele>1018.5999755859</ele>
        <time>2023-07-12T09:54:04.000Z</time>
      </trkpt>
      <trkpt lat="42.46879" lon="2.96458">
        <ele>1018.799987793</ele>
        <time>2023-07-12T09:54:05.000Z</time>
      </trkpt>
      <trkpt lat="42.4688" lon="2.9645">
        <ele>1019.200012207</ele>
        <time>2023-07-12T09:54:11.000Z</time>
      </trkpt>
      <trkpt lat="42.46885" lon="2.96443">
        <ele>1019.799987793</ele>
        <time>2023-07-12T09:54:18.000Z</time>
      </trkpt>
      <trkpt lat="42.46887" lon="2.96439">
        <ele>1020.200012207</ele>
        <time>2023-07-12T09:54:21.000Z</time>
      </trkpt>
      <trkpt lat="42.46891" lon="2.96432">
        <ele>1021</ele>
        <time>2023-07-12T09:54:28.000Z</time>
      </trkpt>
      <trkpt lat="42.46891" lon="2.9643">
        <ele>1021.200012207</ele>
        <time>2023-07-12T09:54:30.000Z</time>
      </trkpt>
      <trkpt lat="42.46893" lon="2.96422">
        <ele>1022</ele>
        <time>2023-07-12T09:54:36.000Z</time>
      </trkpt>
      <trkpt lat="42.46893" lon="2.96418">
        <ele>1022.5999755859</ele>
        <time>2023-07-12T09:54:39.000Z</time>
      </trkpt>
      <trkpt lat="42.46892" lon="2.96414">
        <ele>1023</ele>
        <time>2023-07-12T09:54:42.000Z</time>
      </trkpt>
      <trkpt lat="42.46892" lon="2.9641">
        <ele>1023.799987793</ele>
        <time>2023-07-12T09:54:46.000Z</time>
      </trkpt>
      <trkpt lat="42.46893" lon="2.96409">
        <ele>1024.1999511719</ele>
        <time>2023-07-12T09:54:48.000Z</time>
      </trkpt>
      <trkpt lat="42.46894" lon="2.96404">
        <ele>1025.4000244141</ele>
        <time>2023-07-12T09:54:54.000Z</time>
      </trkpt>
      <trkpt lat="42.46895" lon="2.96403">
        <ele>1025.5999755859</ele>
        <time>2023-07-12T09:54:55.000Z</time>
      </trkpt>
      <trkpt lat="42.46897" lon="2.96398">
        <ele>1026.4000244141</ele>
        <time>2023-07-12T09:55:01.000Z</time>
      </trkpt>
      <trkpt lat="42.46899" lon="2.96394">
        <ele>1027.1999511719</ele>
        <time>2023-07-12T09:55:05.000Z</time>
      </trkpt>
      <trkpt lat="42.469" lon="2.96391">
        <ele>1027.5999755859</ele>
        <time>2023-07-12T09:55:08.000Z</time>
      </trkpt>
      <trkpt lat="42.46904" lon="2.96385">
        <ele>1028.4000244141</ele>
        <time>2023-07-12T09:55:13.000Z</time>
      </trkpt>
      <trkpt lat="42.46904" lon="2.96384">
        <ele>1028.5999755859</ele>
        <time>2023-07-12T09:55:15.000Z</time>
      </trkpt>
      <trkpt lat="42.46908" lon="2.96381">
        <ele>1029.5999755859</ele>
        <time>2023-07-12T09:55:20.000Z</time>
      </trkpt>
      <trkpt lat="42.46908" lon="2.96381">
        <ele>1029.8000488281</ele>
        <time>2023-07-12T09:55:21.000Z</time>
      </trkpt>
      <trkpt lat="42.46914" lon="2.96375">
        <ele>1030.8000488281</ele>
        <time>2023-07-12T09:55:27.000Z</time>
      </trkpt>
      <trkpt lat="42.4692" lon="2.96371">
        <ele>1031.8000488281</ele>
        <time>2023-07-12T09:55:33.000Z</time>
      </trkpt>
      <trkpt lat="42.46924" lon="2.96372">
        <ele>1032.8000488281</ele>
        <time>2023-07-12T09:55:40.000Z</time>
      </trkpt>
      <trkpt lat="42.4693" lon="2.96373">
        <ele>1033.8000488281</ele>
        <time>2023-07-12T09:55:46.000Z</time>
      </trkpt>
      <trkpt lat="42.4693" lon="2.96372">
        <ele>1034</ele>
        <time>2023-07-12T09:55:48.000Z</time>
      </trkpt>
      <trkpt lat="42.4693" lon="2.96368">
        <ele>1035.5999755859</ele>
        <time>2023-07-12T09:55:55.000Z</time>
      </trkpt>
      <trkpt lat="42.4693" lon="2.96367">
        <ele>1036.1999511719</ele>
        <time>2023-07-12T09:55:59.000Z</time>
      </trkpt>
      <trkpt lat="42.46931" lon="2.96365">
        <ele>1037</ele>
        <time>2023-07-12T09:56:05.000Z</time>
      </trkpt>
      <trkpt lat="42.46931" lon="2.96364">
        <ele>1037.1999511719</ele>
        <time>2023-07-12T09:56:06.000Z</time>
      </trkpt>
      <trkpt lat="42.46938" lon="2.96361">
        <ele>1038.4000244141</ele>
        <time>2023-07-12T09:56:10.000Z</time>
      </trkpt>
      <trkpt lat="42.46941" lon="2.9636">
        <ele>1038.4000244141</ele>
        <time>2023-07-12T09:56:12.000Z</time>
      </trkpt>
      <trkpt lat="42.46946" lon="2.96353">
        <ele>1038.4000244141</ele>
        <time>2023-07-12T09:56:19.000Z</time>
      </trkpt>
      <trkpt lat="42.46949" lon="2.96349">
        <ele>1038.1999511719</ele>
        <time>2023-07-12T09:56:27.000Z</time>
      </trkpt>
      <trkpt lat="42.46953" lon="2.9634">
        <ele>1038</ele>
        <time>2023-07-12T09:56:39.000Z</time>
      </trkpt>
      <trkpt lat="42.46946" lon="2.96342">
        <ele>1038</ele>
        <time>2023-07-12T09:56:46.000Z</time>
      </trkpt>
      <trkpt lat="42.46942" lon="2.96341">
        <ele>1038.1999511719</ele>
        <time>2023-07-12T09:56:54.000Z</time>
      </trkpt>
      <trkpt lat="42.46945" lon="2.96331">
        <ele>1039.1999511719</ele>
        <time>2023-07-12T09:57:02.000Z</time>
      </trkpt>
      <trkpt lat="42.46946" lon="2.96331">
        <ele>1039.4000244141</ele>
        <time>2023-07-12T09:57:03.000Z</time>
      </trkpt>
      <trkpt lat="42.46951" lon="2.96329">
        <ele>1039.1999511719</ele>
        <time>2023-07-12T09:57:09.000Z</time>
      </trkpt>
      <trkpt lat="42.46959" lon="2.96329">
        <ele>1039.1999511719</ele>
        <time>2023-07-12T09:57:20.000Z</time>
      </trkpt>
      <trkpt lat="42.46963" lon="2.9633">
        <ele>1038.8000488281</ele>
        <time>2023-07-12T09:57:37.000Z</time>
      </trkpt>
      <trkpt lat="42.46962" lon="2.96326">
        <ele>1038.8000488281</ele>
        <time>2023-07-12T09:57:44.000Z</time>
      </trkpt>
      <trkpt lat="42.46969" lon="2.96323">
        <ele>1039.1999511719</ele>
        <time>2023-07-12T09:57:52.000Z</time>
      </trkpt>
      <trkpt lat="42.46975" lon="2.96319">
        <ele>1038.8000488281</ele>
        <time>2023-07-12T09:58:02.000Z</time>
      </trkpt>
      <trkpt lat="42.46984" lon="2.96316">
        <ele>1038.5999755859</ele>
        <time>2023-07-12T09:58:11.000Z</time>
      </trkpt>
      <trkpt lat="42.46995" lon="2.96311">
        <ele>1039.1999511719</ele>
        <time>2023-07-12T09:58:20.000Z</time>
      </trkpt>
      <trkpt lat="42.47007" lon="2.96306">
        <ele>1039.1999511719</ele>
        <time>2023-07-12T09:58:28.000Z</time>
      </trkpt>
      <trkpt lat="42.47016" lon="2.96296">
        <ele>1038.8000488281</ele>
        <time>2023-07-12T09:58:37.000Z</time>
      </trkpt>
      <trkpt lat="42.47021" lon="2.9629">
        <ele>1038.8000488281</ele>
        <time>2023-07-12T09:58:44.000Z</time>
      </trkpt>
      <trkpt lat="42.47033" lon="2.96277">
        <ele>1039</ele>
        <time>2023-07-12T09:58:55.000Z</time>
      </trkpt>
      <trkpt lat="42.47042" lon="2.96263">
        <ele>1040</ele>
        <time>2023-07-12T09:59:03.000Z</time>
      </trkpt>
      <trkpt lat="42.47046" lon="2.96259">
        <ele>1040.5999755859</ele>
        <time>2023-07-12T09:59:08.000Z</time>
      </trkpt>
      <trkpt lat="42.47049" lon="2.96257">
        <ele>1041</ele>
        <time>2023-07-12T09:59:11.000Z</time>
      </trkpt>
      <trkpt lat="42.47049" lon="2.96254">
        <ele>1041.4000244141</ele>
        <time>2023-07-12T09:59:16.000Z</time>
      </trkpt>
      <trkpt lat="42.47049" lon="2.96254">
        <ele>1041.5999755859</ele>
        <time>2023-07-12T09:59:17.000Z</time>
      </trkpt>
      <trkpt lat="42.4705" lon="2.96244">
        <ele>1042.5999755859</ele>
        <time>2023-07-12T09:59:24.000Z</time>
      </trkpt>
      <trkpt lat="42.47055" lon="2.96235">
        <ele>1043.5999755859</ele>
        <time>2023-07-12T09:59:33.000Z</time>
      </trkpt>
      <trkpt lat="42.47062" lon="2.96226">
        <ele>1043.5999755859</ele>
        <time>2023-07-12T09:59:40.000Z</time>
      </trkpt>
      <trkpt lat="42.47066" lon="2.96218">
        <ele>1043.5999755859</ele>
        <time>2023-07-12T09:59:46.000Z</time>
      </trkpt>
      <trkpt lat="42.47074" lon="2.96208">
        <ele>1043.1999511719</ele>
        <time>2023-07-12T09:59:54.000Z</time>
      </trkpt>
      <trkpt lat="42.47086" lon="2.96198">
        <ele>1043</ele>
        <time>2023-07-12T10:00:03.000Z</time>
      </trkpt>
      <trkpt lat="42.47091" lon="2.96191">
        <ele>1043.1999511719</ele>
        <time>2023-07-12T10:00:10.000Z</time>
      </trkpt>
      <trkpt lat="42.471" lon="2.96187">
        <ele>1042.5999755859</ele>
        <time>2023-07-12T10:00:18.000Z</time>
      </trkpt>
      <trkpt lat="42.47107" lon="2.96184">
        <ele>1041.5999755859</ele>
        <time>2023-07-12T10:00:25.000Z</time>
      </trkpt>
      <trkpt lat="42.47108" lon="2.96184">
        <ele>1041.4000244141</ele>
        <time>2023-07-12T10:00:26.000Z</time>
      </trkpt>
      <trkpt lat="42.47117" lon="2.9618">
        <ele>1040.5999755859</ele>
        <time>2023-07-12T10:00:33.000Z</time>
      </trkpt>
      <trkpt lat="42.47118" lon="2.9618">
        <ele>1040.4000244141</ele>
        <time>2023-07-12T10:00:34.000Z</time>
      </trkpt>
      <trkpt lat="42.47125" lon="2.96178">
        <ele>1039.4000244141</ele>
        <time>2023-07-12T10:00:39.000Z</time>
      </trkpt>
      <trkpt lat="42.47127" lon="2.96178">
        <ele>1039.1999511719</ele>
        <time>2023-07-12T10:00:41.000Z</time>
      </trkpt>
      <trkpt lat="42.47132" lon="2.96176">
        <ele>1038.4000244141</ele>
        <time>2023-07-12T10:00:47.000Z</time>
      </trkpt>
      <trkpt lat="42.47134" lon="2.96175">
        <ele>1038.4000244141</ele>
        <time>2023-07-12T10:00:48.000Z</time>
      </trkpt>
      <trkpt lat="42.47143" lon="2.96169">
        <ele>1037.5999755859</ele>
        <time>2023-07-12T10:00:57.000Z</time>
      </trkpt>
      <trkpt lat="42.47146" lon="2.96166">
        <ele>1037.4000244141</ele>
        <time>2023-07-12T10:01:01.000Z</time>
      </trkpt>
      <trkpt lat="42.47148" lon="2.96165">
        <ele>1036.8000488281</ele>
        <time>2023-07-12T10:01:07.000Z</time>
      </trkpt>
      <trkpt lat="42.47164" lon="2.96158">
        <ele>1036.5999755859</ele>
        <time>2023-07-12T10:01:20.000Z</time>
      </trkpt>
      <trkpt lat="42.47167" lon="2.96157">
        <ele>1036.4000244141</ele>
        <time>2023-07-12T10:01:21.000Z</time>
      </trkpt>
      <trkpt lat="42.47169" lon="2.96157">
        <ele>1036.4000244141</ele>
        <time>2023-07-12T10:01:22.000Z</time>
      </trkpt>
      <trkpt lat="42.4718" lon="2.96156">
        <ele>1035.8000488281</ele>
        <time>2023-07-12T10:01:30.000Z</time>
      </trkpt>
      <trkpt lat="42.47193" lon="2.96154">
        <ele>1035.5999755859</ele>
        <time>2023-07-12T10:01:37.000Z</time>
      </trkpt>
      <trkpt lat="42.47202" lon="2.9615">
        <ele>1036.1999511719</ele>
        <time>2023-07-12T10:01:45.000Z</time>
      </trkpt>
      <trkpt lat="42.47206" lon="2.96146">
        <ele>1036.8000488281</ele>
        <time>2023-07-12T10:01:52.000Z</time>
      </trkpt>
      <trkpt lat="42.47211" lon="2.96145">
        <ele>1036.8000488281</ele>
        <time>2023-07-12T10:01:58.000Z</time>
      </trkpt>
      <trkpt lat="42.47221" lon="2.96144">
        <ele>1036.8000488281</ele>
        <time>2023-07-12T10:02:06.000Z</time>
      </trkpt>
      <trkpt lat="42.47228" lon="2.96138">
        <ele>1036.5999755859</ele>
        <time>2023-07-12T10:02:14.000Z</time>
      </trkpt>
      <trkpt lat="42.4724" lon="2.96134">
        <ele>1036.4000244141</ele>
        <time>2023-07-12T10:02:22.000Z</time>
      </trkpt>
      <trkpt lat="42.47239" lon="2.96135">
        <ele>1036</ele>
        <time>2023-07-12T10:02:28.000Z</time>
      </trkpt>
      <trkpt lat="42.47241" lon="2.96131">
        <ele>1035.4000244141</ele>
        <time>2023-07-12T10:02:36.000Z</time>
      </trkpt>
      <trkpt lat="42.47245" lon="2.96129">
        <ele>1035</ele>
        <time>2023-07-12T10:02:43.000Z</time>
      </trkpt>
      <trkpt lat="42.47246" lon="2.96127">
        <ele>1034.5999755859</ele>
        <time>2023-07-12T10:02:54.000Z</time>
      </trkpt>
      <trkpt lat="42.47248" lon="2.96124">
        <ele>1034.5999755859</ele>
        <time>2023-07-12T10:03:01.000Z</time>
      </trkpt>
      <trkpt lat="42.47252" lon="2.96124">
        <ele>1034.1999511719</ele>
        <time>2023-07-12T10:03:06.000Z</time>
      </trkpt>
      <trkpt lat="42.47253" lon="2.96124">
        <ele>1034</ele>
        <time>2023-07-12T10:03:07.000Z</time>
      </trkpt>
      <trkpt lat="42.47255" lon="2.96121">
        <ele>1033</ele>
        <time>2023-07-12T10:03:11.000Z</time>
      </trkpt>
      <trkpt lat="42.47258" lon="2.96118">
        <ele>1032.4000244141</ele>
        <time>2023-07-12T10:03:15.000Z</time>
      </trkpt>
      <trkpt lat="42.47259" lon="2.96117">
        <ele>1031.8000488281</ele>
        <time>2023-07-12T10:03:18.000Z</time>
      </trkpt>
      <trkpt lat="42.47263" lon="2.96114">
        <ele>1030.8000488281</ele>
        <time>2023-07-12T10:03:22.000Z</time>
      </trkpt>
      <trkpt lat="42.47266" lon="2.96112">
        <ele>1030.1999511719</ele>
        <time>2023-07-12T10:03:25.000Z</time>
      </trkpt>
      <trkpt lat="42.47268" lon="2.96111">
        <ele>1029.8000488281</ele>
        <time>2023-07-12T10:03:27.000Z</time>
      </trkpt>
      <trkpt lat="42.47273" lon="2.96106">
        <ele>1028.5999755859</ele>
        <time>2023-07-12T10:03:32.000Z</time>
      </trkpt>
      <trkpt lat="42.47275" lon="2.96105">
        <ele>1028</ele>
        <time>2023-07-12T10:03:34.000Z</time>
      </trkpt>
      <trkpt lat="42.47278" lon="2.96102">
        <ele>1027.4000244141</ele>
        <time>2023-07-12T10:03:37.000Z</time>
      </trkpt>
      <trkpt lat="42.47283" lon="2.96099">
        <ele>1026.4000244141</ele>
        <time>2023-07-12T10:03:42.000Z</time>
      </trkpt>
      <trkpt lat="42.47283" lon="2.96099">
        <ele>1026.1999511719</ele>
        <time>2023-07-12T10:03:43.000Z</time>
      </trkpt>
      <trkpt lat="42.47286" lon="2.96098">
        <ele>1025.1999511719</ele>
        <time>2023-07-12T10:03:47.000Z</time>
      </trkpt>
      <trkpt lat="42.47289" lon="2.96096">
        <ele>1024.4000244141</ele>
        <time>2023-07-12T10:03:50.000Z</time>
      </trkpt>
      <trkpt lat="42.47291" lon="2.96095">
        <ele>1024</ele>
        <time>2023-07-12T10:03:52.000Z</time>
      </trkpt>
      <trkpt lat="42.47296" lon="2.96091">
        <ele>1022.5999755859</ele>
        <time>2023-07-12T10:03:57.000Z</time>
      </trkpt>
      <trkpt lat="42.47297" lon="2.9609">
        <ele>1022.4000244141</ele>
        <time>2023-07-12T10:03:58.000Z</time>
      </trkpt>
      <trkpt lat="42.473" lon="2.96088">
        <ele>1021.5999755859</ele>
        <time>2023-07-12T10:04:02.000Z</time>
      </trkpt>
      <trkpt lat="42.47305" lon="2.96083">
        <ele>1020.799987793</ele>
        <time>2023-07-12T10:04:06.000Z</time>
      </trkpt>
      <trkpt lat="42.47306" lon="2.96082">
        <ele>1020.4000244141</ele>
        <time>2023-07-12T10:04:07.000Z</time>
      </trkpt>
      <trkpt lat="42.4731" lon="2.96079">
        <ele>1019.4000244141</ele>
        <time>2023-07-12T10:04:11.000Z</time>
      </trkpt>
      <trkpt lat="42.47311" lon="2.96075">
        <ele>1018.5999755859</ele>
        <time>2023-07-12T10:04:15.000Z</time>
      </trkpt>
      <trkpt lat="42.47311" lon="2.96074">
        <ele>1018.200012207</ele>
        <time>2023-07-12T10:04:16.000Z</time>
      </trkpt>
      <trkpt lat="42.47315" lon="2.96069">
        <ele>1017.200012207</ele>
        <time>2023-07-12T10:04:21.000Z</time>
      </trkpt>
      <trkpt lat="42.47318" lon="2.96067">
        <ele>1016.799987793</ele>
        <time>2023-07-12T10:04:23.000Z</time>
      </trkpt>
      <trkpt lat="42.47322" lon="2.96065">
        <ele>1016</ele>
        <time>2023-07-12T10:04:28.000Z</time>
      </trkpt>
      <trkpt lat="42.47323" lon="2.96064">
        <ele>1015</ele>
        <time>2023-07-12T10:04:31.000Z</time>
      </trkpt>
      <trkpt lat="42.47326" lon="2.96064">
        <ele>1014.5999755859</ele>
        <time>2023-07-12T10:05:02.000Z</time>
      </trkpt>
      <trkpt lat="42.4733" lon="2.96071">
        <ele>1014.5999755859</ele>
        <time>2023-07-12T10:05:08.000Z</time>
      </trkpt>
      <trkpt lat="42.47337" lon="2.96076">
        <ele>1014</ele>
        <time>2023-07-12T10:05:16.000Z</time>
      </trkpt>
      <trkpt lat="42.47339" lon="2.96077">
        <ele>1013.5999755859</ele>
        <time>2023-07-12T10:05:17.000Z</time>
      </trkpt>
      <trkpt lat="42.47345" lon="2.96085">
        <ele>1012.4000244141</ele>
        <time>2023-07-12T10:05:23.000Z</time>
      </trkpt>
      <trkpt lat="42.47346" lon="2.96086">
        <ele>1012.200012207</ele>
        <time>2023-07-12T10:05:24.000Z</time>
      </trkpt>
      <trkpt lat="42.47349" lon="2.96088">
        <ele>1011.200012207</ele>
        <time>2023-07-12T10:05:28.000Z</time>
      </trkpt>
      <trkpt lat="42.47353" lon="2.9609">
        <ele>1010.200012207</ele>
        <time>2023-07-12T10:05:33.000Z</time>
      </trkpt>
      <trkpt lat="42.47352" lon="2.96089">
        <ele>1009.799987793</ele>
        <time>2023-07-12T10:05:37.000Z</time>
      </trkpt>
      <trkpt lat="42.4735" lon="2.96083">
        <ele>1009.5999755859</ele>
        <time>2023-07-12T10:05:42.000Z</time>
      </trkpt>
      <trkpt lat="42.47353" lon="2.96086">
        <ele>1009.5999755859</ele>
        <time>2023-07-12T10:05:56.000Z</time>
      </trkpt>
      <trkpt lat="42.47359" lon="2.96085">
        <ele>1009.4000244141</ele>
        <time>2023-07-12T10:06:03.000Z</time>
      </trkpt>
      <trkpt lat="42.47359" lon="2.96086">
        <ele>1009.200012207</ele>
        <time>2023-07-12T10:06:06.000Z</time>
      </trkpt>
      <trkpt lat="42.47363" lon="2.96083">
        <ele>1009</ele>
        <time>2023-07-12T10:06:09.000Z</time>
      </trkpt>
      <trkpt lat="42.47366" lon="2.9608">
        <ele>1009</ele>
        <time>2023-07-12T10:06:11.000Z</time>
      </trkpt>
      <trkpt lat="42.47375" lon="2.96076">
        <ele>1009</ele>
        <time>2023-07-12T10:06:19.000Z</time>
      </trkpt>
      <trkpt lat="42.47384" lon="2.96069">
        <ele>1010</ele>
        <time>2023-07-12T10:06:27.000Z</time>
      </trkpt>
      <trkpt lat="42.47386" lon="2.96068">
        <ele>1010.200012207</ele>
        <time>2023-07-12T10:06:28.000Z</time>
      </trkpt>
      <trkpt lat="42.47389" lon="2.96066">
        <ele>1010.799987793</ele>
        <time>2023-07-12T10:06:33.000Z</time>
      </trkpt>
      <trkpt lat="42.47391" lon="2.96064">
        <ele>1011.4000244141</ele>
        <time>2023-07-12T10:06:36.000Z</time>
      </trkpt>
      <trkpt lat="42.47395" lon="2.96062">
        <ele>1012.5999755859</ele>
        <time>2023-07-12T10:06:41.000Z</time>
      </trkpt>
      <trkpt lat="42.47397" lon="2.96061">
        <ele>1013</ele>
        <time>2023-07-12T10:06:43.000Z</time>
      </trkpt>
      <trkpt lat="42.47401" lon="2.96059">
        <ele>1013.799987793</ele>
        <time>2023-07-12T10:06:47.000Z</time>
      </trkpt>
      <trkpt lat="42.47406" lon="2.96055">
        <ele>1014</ele>
        <time>2023-07-12T10:06:52.000Z</time>
      </trkpt>
      <trkpt lat="42.47414" lon="2.96049">
        <ele>1014.799987793</ele>
        <time>2023-07-12T10:07:00.000Z</time>
      </trkpt>
      <trkpt lat="42.47416" lon="2.96048">
        <ele>1015</ele>
        <time>2023-07-12T10:07:02.000Z</time>
      </trkpt>
      <trkpt lat="42.47425" lon="2.96043">
        <ele>1015.5999755859</ele>
        <time>2023-07-12T10:07:09.000Z</time>
      </trkpt>
      <trkpt lat="42.47427" lon="2.96041">
        <ele>1015.799987793</ele>
        <time>2023-07-12T10:07:11.000Z</time>
      </trkpt>
      <trkpt lat="42.47432" lon="2.96035">
        <ele>1016.799987793</ele>
        <time>2023-07-12T10:07:18.000Z</time>
      </trkpt>
      <trkpt lat="42.47432" lon="2.96035">
        <ele>1017</ele>
        <time>2023-07-12T10:07:19.000Z</time>
      </trkpt>
      <trkpt lat="42.47437" lon="2.96029">
        <ele>1017.4000244141</ele>
        <time>2023-07-12T10:07:26.000Z</time>
      </trkpt>
      <trkpt lat="42.4744" lon="2.96025">
        <ele>1018</ele>
        <time>2023-07-12T10:07:30.000Z</time>
      </trkpt>
      <trkpt lat="42.47442" lon="2.96022">
        <ele>1018.4000244141</ele>
        <time>2023-07-12T10:07:34.000Z</time>
      </trkpt>
      <trkpt lat="42.47445" lon="2.96015">
        <ele>1019</ele>
        <time>2023-07-12T10:07:40.000Z</time>
      </trkpt>
      <trkpt lat="42.47446" lon="2.96014">
        <ele>1019.200012207</ele>
        <time>2023-07-12T10:07:42.000Z</time>
      </trkpt>
      <trkpt lat="42.47449" lon="2.96006">
        <ele>1019.799987793</ele>
        <time>2023-07-12T10:07:49.000Z</time>
      </trkpt>
      <trkpt lat="42.47451" lon="2.96003">
        <ele>1020</ele>
        <time>2023-07-12T10:07:52.000Z</time>
      </trkpt>
      <trkpt lat="42.47452" lon="2.95998">
        <ele>1020.200012207</ele>
        <time>2023-07-12T10:07:56.000Z</time>
      </trkpt>
      <trkpt lat="42.47453" lon="2.95991">
        <ele>1021.200012207</ele>
        <time>2023-07-12T10:08:04.000Z</time>
      </trkpt>
      <trkpt lat="42.47457" lon="2.95981">
        <ele>1021.799987793</ele>
        <time>2023-07-12T10:08:12.000Z</time>
      </trkpt>
      <trkpt lat="42.47462" lon="2.9597">
        <ele>1022.200012207</ele>
        <time>2023-07-12T10:08:21.000Z</time>
      </trkpt>
      <trkpt lat="42.47465" lon="2.95963">
        <ele>1022.4000244141</ele>
        <time>2023-07-12T10:08:27.000Z</time>
      </trkpt>
      <trkpt lat="42.47474" lon="2.95956">
        <ele>1022.5999755859</ele>
        <time>2023-07-12T10:08:37.000Z</time>
      </trkpt>
      <trkpt lat="42.47482" lon="2.95943">
        <ele>1022.200012207</ele>
        <time>2023-07-12T10:08:46.000Z</time>
      </trkpt>
      <trkpt lat="42.47486" lon="2.95929">
        <ele>1022.4000244141</ele>
        <time>2023-07-12T10:08:54.000Z</time>
      </trkpt>
      <trkpt lat="42.47486" lon="2.95921">
        <ele>1023.200012207</ele>
        <time>2023-07-12T10:09:00.000Z</time>
      </trkpt>
      <trkpt lat="42.47486" lon="2.9592">
        <ele>1023.4000244141</ele>
        <time>2023-07-12T10:09:01.000Z</time>
      </trkpt>
      <trkpt lat="42.47487" lon="2.95911">
        <ele>1024.4000244141</ele>
        <time>2023-07-12T10:09:08.000Z</time>
      </trkpt>
      <trkpt lat="42.47487" lon="2.95909">
        <ele>1024.5999755859</ele>
        <time>2023-07-12T10:09:10.000Z</time>
      </trkpt>
      <trkpt lat="42.47489" lon="2.95898">
        <ele>1025</ele>
        <time>2023-07-12T10:09:18.000Z</time>
      </trkpt>
      <trkpt lat="42.4749" lon="2.95893">
        <ele>1025.4000244141</ele>
        <time>2023-07-12T10:09:23.000Z</time>
      </trkpt>
      <trkpt lat="42.47493" lon="2.95885">
        <ele>1025.8000488281</ele>
        <time>2023-07-12T10:09:26.000Z</time>
      </trkpt>
      <trkpt lat="42.47495" lon="2.95875">
        <ele>1026.1999511719</ele>
        <time>2023-07-12T10:09:33.000Z</time>
      </trkpt>
      <trkpt lat="42.47495" lon="2.95871">
        <ele>1026.4000244141</ele>
        <time>2023-07-12T10:09:36.000Z</time>
      </trkpt>
      <trkpt lat="42.47499" lon="2.95861">
        <ele>1026.4000244141</ele>
        <time>2023-07-12T10:09:42.000Z</time>
      </trkpt>
      <trkpt lat="42.47503" lon="2.9585">
        <ele>1026.5999755859</ele>
        <time>2023-07-12T10:09:49.000Z</time>
      </trkpt>
      <trkpt lat="42.47506" lon="2.95836">
        <ele>1027.4000244141</ele>
        <time>2023-07-12T10:09:57.000Z</time>
      </trkpt>
      <trkpt lat="42.47507" lon="2.95834">
        <ele>1027.5999755859</ele>
        <time>2023-07-12T10:09:59.000Z</time>
      </trkpt>
      <trkpt lat="42.47507" lon="2.95824">
        <ele>1028.4000244141</ele>
        <time>2023-07-12T10:10:05.000Z</time>
      </trkpt>
      <trkpt lat="42.47508" lon="2.95822">
        <ele>1028.8000488281</ele>
        <time>2023-07-12T10:10:07.000Z</time>
      </trkpt>
      <trkpt lat="42.47512" lon="2.95816">
        <ele>1029.5999755859</ele>
        <time>2023-07-12T10:10:13.000Z</time>
      </trkpt>
      <trkpt lat="42.47514" lon="2.95814">
        <ele>1029.8000488281</ele>
        <time>2023-07-12T10:10:15.000Z</time>
      </trkpt>
      <trkpt lat="42.47518" lon="2.95806">
        <ele>1030.5999755859</ele>
        <time>2023-07-12T10:10:22.000Z</time>
      </trkpt>
      <trkpt lat="42.47519" lon="2.95804">
        <ele>1030.8000488281</ele>
        <time>2023-07-12T10:10:23.000Z</time>
      </trkpt>
      <trkpt lat="42.4752" lon="2.95801">
        <ele>1031.8000488281</ele>
        <time>2023-07-12T10:10:29.000Z</time>
      </trkpt>
      <trkpt lat="42.47521" lon="2.95799">
        <ele>1032</ele>
        <time>2023-07-12T10:10:30.000Z</time>
      </trkpt>
      <trkpt lat="42.47521" lon="2.95791">
        <ele>1033</ele>
        <time>2023-07-12T10:10:36.000Z</time>
      </trkpt>
      <trkpt lat="42.47522" lon="2.95788">
        <ele>1033.4000244141</ele>
        <time>2023-07-12T10:10:38.000Z</time>
      </trkpt>
      <trkpt lat="42.47525" lon="2.95779">
        <ele>1034.1999511719</ele>
        <time>2023-07-12T10:10:45.000Z</time>
      </trkpt>
      <trkpt lat="42.47534" lon="2.95768">
        <ele>1034.8000488281</ele>
        <time>2023-07-12T10:10:54.000Z</time>
      </trkpt>
      <trkpt lat="42.47536" lon="2.95764">
        <ele>1035.1999511719</ele>
        <time>2023-07-12T10:10:57.000Z</time>
      </trkpt>
      <trkpt lat="42.47539" lon="2.9576">
        <ele>1035.8000488281</ele>
        <time>2023-07-12T10:11:01.000Z</time>
      </trkpt>
      <trkpt lat="42.47543" lon="2.95755">
        <ele>1036</ele>
        <time>2023-07-12T10:11:08.000Z</time>
      </trkpt>
      <trkpt lat="42.47542" lon="2.95755">
        <ele>1036</ele>
        <time>2023-07-12T10:11:09.000Z</time>
      </trkpt>
      <trkpt lat="42.47542" lon="2.95756">
        <ele>1036</ele>
        <time>2023-07-12T10:11:16.000Z</time>
      </trkpt>
      <trkpt lat="42.4754" lon="2.95755">
        <ele>1036</ele>
        <time>2023-07-12T10:11:24.000Z</time>
      </trkpt>
      <trkpt lat="42.47543" lon="2.95751">
        <ele>1036.4000244141</ele>
        <time>2023-07-12T10:11:29.000Z</time>
      </trkpt>
      <trkpt lat="42.47546" lon="2.95749">
        <ele>1036.8000488281</ele>
        <time>2023-07-12T10:11:31.000Z</time>
      </trkpt>
      <trkpt lat="42.47553" lon="2.95745">
        <ele>1037.5999755859</ele>
        <time>2023-07-12T10:11:37.000Z</time>
      </trkpt>
      <trkpt lat="42.47554" lon="2.95744">
        <ele>1037.5999755859</ele>
        <time>2023-07-12T10:11:38.000Z</time>
      </trkpt>
      <trkpt lat="42.47559" lon="2.95736">
        <ele>1038.1999511719</ele>
        <time>2023-07-12T10:11:45.000Z</time>
      </trkpt>
      <trkpt lat="42.47562" lon="2.95734">
        <ele>1038.5999755859</ele>
        <time>2023-07-12T10:11:48.000Z</time>
      </trkpt>
      <trkpt lat="42.47565" lon="2.95733">
        <ele>1039</ele>
        <time>2023-07-12T10:11:53.000Z</time>
      </trkpt>
      <trkpt lat="42.47571" lon="2.95726">
        <ele>1039.5999755859</ele>
        <time>2023-07-12T10:12:00.000Z</time>
      </trkpt>
      <trkpt lat="42.47572" lon="2.95724">
        <ele>1039.8000488281</ele>
        <time>2023-07-12T10:12:02.000Z</time>
      </trkpt>
      <trkpt lat="42.47579" lon="2.95715">
        <ele>1039.8000488281</ele>
        <time>2023-07-12T10:12:11.000Z</time>
      </trkpt>
      <trkpt lat="42.47586" lon="2.95709">
        <ele>1039.8000488281</ele>
        <time>2023-07-12T10:12:19.000Z</time>
      </trkpt>
      <trkpt lat="42.47597" lon="2.95706">
        <ele>1040</ele>
        <time>2023-07-12T10:12:26.000Z</time>
      </trkpt>
      <trkpt lat="42.47597" lon="2.95706">
        <ele>1039.8000488281</ele>
        <time>2023-07-12T10:12:27.000Z</time>
      </trkpt>
      <trkpt lat="42.47593" lon="2.95705">
        <ele>1039.5999755859</ele>
        <time>2023-07-12T10:12:35.000Z</time>
      </trkpt>
      <trkpt lat="42.4759" lon="2.95704">
        <ele>1039.5999755859</ele>
        <time>2023-07-12T10:12:45.000Z</time>
      </trkpt>
      <trkpt lat="42.47591" lon="2.95699">
        <ele>1040</ele>
        <time>2023-07-12T10:12:53.000Z</time>
      </trkpt>
      <trkpt lat="42.47591" lon="2.95698">
        <ele>1039.8000488281</ele>
        <time>2023-07-12T10:13:08.000Z</time>
      </trkpt>
      <trkpt lat="42.47591" lon="2.95696">
        <ele>1040</ele>
        <time>2023-07-12T10:13:18.000Z</time>
      </trkpt>
      <trkpt lat="42.47597" lon="2.95695">
        <ele>1040</ele>
        <time>2023-07-12T10:13:34.000Z</time>
      </trkpt>
      <trkpt lat="42.47597" lon="2.9569">
        <ele>1040.4000244141</ele>
        <time>2023-07-12T10:13:39.000Z</time>
      </trkpt>
      <trkpt lat="42.47598" lon="2.95686">
        <ele>1040.8000488281</ele>
        <time>2023-07-12T10:13:43.000Z</time>
      </trkpt>
      <trkpt lat="42.47598" lon="2.95683">
        <ele>1041</ele>
        <time>2023-07-12T10:13:45.000Z</time>
      </trkpt>
      <trkpt lat="42.47599" lon="2.95672">
        <ele>1041.8000488281</ele>
        <time>2023-07-12T10:13:52.000Z</time>
      </trkpt>
      <trkpt lat="42.476" lon="2.9567">
        <ele>1042</ele>
        <time>2023-07-12T10:13:53.000Z</time>
      </trkpt>
      <trkpt lat="42.476" lon="2.95662">
        <ele>1042.1999511719</ele>
        <time>2023-07-12T10:13:58.000Z</time>
      </trkpt>
      <trkpt lat="42.476" lon="2.95654">
        <ele>1043</ele>
        <time>2023-07-12T10:14:03.000Z</time>
      </trkpt>
      <trkpt lat="42.47599" lon="2.95648">
        <ele>1043.4000244141</ele>
        <time>2023-07-12T10:14:07.000Z</time>
      </trkpt>
      <trkpt lat="42.47598" lon="2.95637">
        <ele>1043.8000488281</ele>
        <time>2023-07-12T10:14:15.000Z</time>
      </trkpt>
      <trkpt lat="42.47602" lon="2.95622">
        <ele>1043.4000244141</ele>
        <time>2023-07-12T10:14:24.000Z</time>
      </trkpt>
      <trkpt lat="42.47603" lon="2.95603">
        <ele>1043.4000244141</ele>
        <time>2023-07-12T10:14:33.000Z</time>
      </trkpt>
      <trkpt lat="42.47607" lon="2.9559">
        <ele>1043.4000244141</ele>
        <time>2023-07-12T10:14:41.000Z</time>
      </trkpt>
      <trkpt lat="42.47611" lon="2.95576">
        <ele>1042.5999755859</ele>
        <time>2023-07-12T10:14:50.000Z</time>
      </trkpt>
      <trkpt lat="42.47612" lon="2.95565">
        <ele>1042.5999755859</ele>
        <time>2023-07-12T10:14:57.000Z</time>
      </trkpt>
      <trkpt lat="42.47615" lon="2.9555">
        <ele>1042.5999755859</ele>
        <time>2023-07-12T10:15:06.000Z</time>
      </trkpt>
      <trkpt lat="42.47619" lon="2.9554">
        <ele>1043.1999511719</ele>
        <time>2023-07-12T10:15:12.000Z</time>
      </trkpt>
      <trkpt lat="42.47622" lon="2.9553">
        <ele>1043.5999755859</ele>
        <time>2023-07-12T10:15:19.000Z</time>
      </trkpt>
      <trkpt lat="42.47626" lon="2.95518">
        <ele>1043.5999755859</ele>
        <time>2023-07-12T10:15:28.000Z</time>
      </trkpt>
      <trkpt lat="42.47629" lon="2.95511">
        <ele>1044</ele>
        <time>2023-07-12T10:15:32.000Z</time>
      </trkpt>
      <trkpt lat="42.4763" lon="2.95507">
        <ele>1044.4000244141</ele>
        <time>2023-07-12T10:15:35.000Z</time>
      </trkpt>
      <trkpt lat="42.47635" lon="2.95497">
        <ele>1044.5999755859</ele>
        <time>2023-07-12T10:15:42.000Z</time>
      </trkpt>
      <trkpt lat="42.4764" lon="2.95486">
        <ele>1044.4000244141</ele>
        <time>2023-07-12T10:15:49.000Z</time>
      </trkpt>
      <trkpt lat="42.47641" lon="2.95474">
        <ele>1044.5999755859</ele>
        <time>2023-07-12T10:15:57.000Z</time>
      </trkpt>
      <trkpt lat="42.47647" lon="2.95459">
        <ele>1045.1999511719</ele>
        <time>2023-07-12T10:16:06.000Z</time>
      </trkpt>
      <trkpt lat="42.47653" lon="2.95449">
        <ele>1045.8000488281</ele>
        <time>2023-07-12T10:16:14.000Z</time>
      </trkpt>
      <trkpt lat="42.47661" lon="2.95436">
        <ele>1046</ele>
        <time>2023-07-12T10:16:22.000Z</time>
      </trkpt>
      <trkpt lat="42.47662" lon="2.95434">
        <ele>1046.1999511719</ele>
        <time>2023-07-12T10:16:25.000Z</time>
      </trkpt>
      <trkpt lat="42.47664" lon="2.95427">
        <ele>1046.5999755859</ele>
        <time>2023-07-12T10:16:30.000Z</time>
      </trkpt>
      <trkpt lat="42.47667" lon="2.95422">
        <ele>1047.1999511719</ele>
        <time>2023-07-12T10:16:34.000Z</time>
      </trkpt>
      <trkpt lat="42.47671" lon="2.95416">
        <ele>1047.8000488281</ele>
        <time>2023-07-12T10:16:38.000Z</time>
      </trkpt>
      <trkpt lat="42.47677" lon="2.95409">
        <ele>1048.1999511719</ele>
        <time>2023-07-12T10:16:45.000Z</time>
      </trkpt>
      <trkpt lat="42.47679" lon="2.95407">
        <ele>1048.1999511719</ele>
        <time>2023-07-12T10:16:47.000Z</time>
      </trkpt>
      <trkpt lat="42.47689" lon="2.95392">
        <ele>1047.4000244141</ele>
        <time>2023-07-12T10:16:58.000Z</time>
      </trkpt>
      <trkpt lat="42.47699" lon="2.95381">
        <ele>1047.5999755859</ele>
        <time>2023-07-12T10:17:07.000Z</time>
      </trkpt>
      <trkpt lat="42.47705" lon="2.95374">
        <ele>1047.5999755859</ele>
        <time>2023-07-12T10:17:14.000Z</time>
      </trkpt>
      <trkpt lat="42.47714" lon="2.95367">
        <ele>1048</ele>
        <time>2023-07-12T10:17:22.000Z</time>
      </trkpt>
      <trkpt lat="42.47722" lon="2.95358">
        <ele>1048</ele>
        <time>2023-07-12T10:17:30.000Z</time>
      </trkpt>
      <trkpt lat="42.47728" lon="2.9535">
        <ele>1048.1999511719</ele>
        <time>2023-07-12T10:17:37.000Z</time>
      </trkpt>
      <trkpt lat="42.47735" lon="2.9534">
        <ele>1048.8000488281</ele>
        <time>2023-07-12T10:17:46.000Z</time>
      </trkpt>
      <trkpt lat="42.4774" lon="2.9533">
        <ele>1048.8000488281</ele>
        <time>2023-07-12T10:17:53.000Z</time>
      </trkpt>
      <trkpt lat="42.47744" lon="2.95322">
        <ele>1049.1999511719</ele>
        <time>2023-07-12T10:17:58.000Z</time>
      </trkpt>
      <trkpt lat="42.47746" lon="2.9532">
        <ele>1049.4000244141</ele>
        <time>2023-07-12T10:18:00.000Z</time>
      </trkpt>
      <trkpt lat="42.47753" lon="2.95312">
        <ele>1049.5999755859</ele>
        <time>2023-07-12T10:18:07.000Z</time>
      </trkpt>
      <trkpt lat="42.47761" lon="2.95306">
        <ele>1049.8000488281</ele>
        <time>2023-07-12T10:18:15.000Z</time>
      </trkpt>
      <trkpt lat="42.4777" lon="2.953">
        <ele>1049.4000244141</ele>
        <time>2023-07-12T10:18:23.000Z</time>
      </trkpt>
      <trkpt lat="42.47776" lon="2.95293">
        <ele>1049.4000244141</ele>
        <time>2023-07-12T10:18:29.000Z</time>
      </trkpt>
      <trkpt lat="42.47784" lon="2.95282">
        <ele>1050</ele>
        <time>2023-07-12T10:18:38.000Z</time>
      </trkpt>
      <trkpt lat="42.4779" lon="2.95274">
        <ele>1050.1999511719</ele>
        <time>2023-07-12T10:18:46.000Z</time>
      </trkpt>
      <trkpt lat="42.47791" lon="2.95273">
        <ele>1050.4000244141</ele>
        <time>2023-07-12T10:18:47.000Z</time>
      </trkpt>
      <trkpt lat="42.47795" lon="2.95267">
        <ele>1051</ele>
        <time>2023-07-12T10:18:54.000Z</time>
      </trkpt>
      <trkpt lat="42.47799" lon="2.95264">
        <ele>1051.5999755859</ele>
        <time>2023-07-12T10:18:58.000Z</time>
      </trkpt>
      <trkpt lat="42.47804" lon="2.95258">
        <ele>1051.8000488281</ele>
        <time>2023-07-12T10:19:03.000Z</time>
      </trkpt>
      <trkpt lat="42.47807" lon="2.95254">
        <ele>1052.5999755859</ele>
        <time>2023-07-12T10:19:07.000Z</time>
      </trkpt>
      <trkpt lat="42.4781" lon="2.9525">
        <ele>1052.8000488281</ele>
        <time>2023-07-12T10:19:11.000Z</time>
      </trkpt>
      <trkpt lat="42.47816" lon="2.95245">
        <ele>1053</ele>
        <time>2023-07-12T10:19:19.000Z</time>
      </trkpt>
      <trkpt lat="42.47825" lon="2.95238">
        <ele>1053.5999755859</ele>
        <time>2023-07-12T10:19:27.000Z</time>
      </trkpt>
      <trkpt lat="42.47828" lon="2.95229">
        <ele>1053.5999755859</ele>
        <time>2023-07-12T10:19:35.000Z</time>
      </trkpt>
      <trkpt lat="42.47826" lon="2.95226">
        <ele>1053.5999755859</ele>
        <time>2023-07-12T10:19:41.000Z</time>
      </trkpt>
      <trkpt lat="42.47825" lon="2.95226">
        <ele>1053.8000488281</ele>
        <time>2023-07-12T10:19:42.000Z</time>
      </trkpt>
      <trkpt lat="42.47825" lon="2.95225">
        <ele>1053.8000488281</ele>
        <time>2023-07-12T10:19:49.000Z</time>
      </trkpt>
      <trkpt lat="42.47826" lon="2.95229">
        <ele>1054</ele>
        <time>2023-07-12T10:19:58.000Z</time>
      </trkpt>
      <trkpt lat="42.47826" lon="2.95229">
        <ele>1054.1999511719</ele>
        <time>2023-07-12T10:20:06.000Z</time>
      </trkpt>
      <trkpt lat="42.47827" lon="2.95227">
        <ele>1054.1999511719</ele>
        <time>2023-07-12T10:20:14.000Z</time>
      </trkpt>
      <trkpt lat="42.47832" lon="2.95222">
        <ele>1053.5999755859</ele>
        <time>2023-07-12T10:20:20.000Z</time>
      </trkpt>
      <trkpt lat="42.47836" lon="2.95224">
        <ele>1053</ele>
        <time>2023-07-12T10:20:26.000Z</time>
      </trkpt>
      <trkpt lat="42.47837" lon="2.95224">
        <ele>1052.4000244141</ele>
        <time>2023-07-12T10:20:29.000Z</time>
      </trkpt>
      <trkpt lat="42.47836" lon="2.95219">
        <ele>1052.4000244141</ele>
        <time>2023-07-12T10:20:35.000Z</time>
      </trkpt>
      <trkpt lat="42.47839" lon="2.9522">
        <ele>1052.4000244141</ele>
        <time>2023-07-12T10:20:43.000Z</time>
      </trkpt>
      <trkpt lat="42.47848" lon="2.95216">
        <ele>1052.4000244141</ele>
        <time>2023-07-12T10:20:50.000Z</time>
      </trkpt>
      <trkpt lat="42.47854" lon="2.95211">
        <ele>1053</ele>
        <time>2023-07-12T10:20:59.000Z</time>
      </trkpt>
      <trkpt lat="42.47858" lon="2.95209">
        <ele>1053.4000244141</ele>
        <time>2023-07-12T10:21:02.000Z</time>
      </trkpt>
      <trkpt lat="42.47862" lon="2.95209">
        <ele>1053.8000488281</ele>
        <time>2023-07-12T10:21:06.000Z</time>
      </trkpt>
      <trkpt lat="42.47871" lon="2.95207">
        <ele>1054.5999755859</ele>
        <time>2023-07-12T10:21:13.000Z</time>
      </trkpt>
      <trkpt lat="42.47873" lon="2.95205">
        <ele>1054.5999755859</ele>
        <time>2023-07-12T10:21:17.000Z</time>
      </trkpt>
      <trkpt lat="42.47872" lon="2.95205">
        <ele>1054.8000488281</ele>
        <time>2023-07-12T10:21:18.000Z</time>
      </trkpt>
      <trkpt lat="42.47865" lon="2.95201">
        <ele>1055.1999511719</ele>
        <time>2023-07-12T10:21:25.000Z</time>
      </trkpt>
      <trkpt lat="42.47863" lon="2.952">
        <ele>1055.5999755859</ele>
        <time>2023-07-12T10:21:28.000Z</time>
      </trkpt>
      <trkpt lat="42.4786" lon="2.95197">
        <ele>1056</ele>
        <time>2023-07-12T10:21:31.000Z</time>
      </trkpt>
      <trkpt lat="42.47859" lon="2.95192">
        <ele>1056.5999755859</ele>
        <time>2023-07-12T10:21:37.000Z</time>
      </trkpt>
      <trkpt lat="42.47859" lon="2.95192">
        <ele>1056.8000488281</ele>
        <time>2023-07-12T10:21:38.000Z</time>
      </trkpt>
      <trkpt lat="42.47858" lon="2.95188">
        <ele>1057.8000488281</ele>
        <time>2023-07-12T10:21:42.000Z</time>
      </trkpt>
      <trkpt lat="42.47858" lon="2.95186">
        <ele>1058.1999511719</ele>
        <time>2023-07-12T10:21:44.000Z</time>
      </trkpt>
      <trkpt lat="42.47857" lon="2.95182">
        <ele>1059</ele>
        <time>2023-07-12T10:21:48.000Z</time>
      </trkpt>
      <trkpt lat="42.47856" lon="2.95181">
        <ele>1059.1999511719</ele>
        <time>2023-07-12T10:21:50.000Z</time>
      </trkpt>
      <trkpt lat="42.47854" lon="2.95178">
        <ele>1060</ele>
        <time>2023-07-12T10:21:56.000Z</time>
      </trkpt>
      <trkpt lat="42.47854" lon="2.95179">
        <ele>1060</ele>
        <time>2023-07-12T10:21:57.000Z</time>
      </trkpt>
      <trkpt lat="42.47855" lon="2.95181">
        <ele>1060.5999755859</ele>
        <time>2023-07-12T10:22:07.000Z</time>
      </trkpt>
      <trkpt lat="42.47854" lon="2.95175">
        <ele>1060.8000488281</ele>
        <time>2023-07-12T10:22:14.000Z</time>
      </trkpt>
      <trkpt lat="42.47853" lon="2.95175">
        <ele>1061</ele>
        <time>2023-07-12T10:22:15.000Z</time>
      </trkpt>
      <trkpt lat="42.47851" lon="2.95175">
        <ele>1061.5999755859</ele>
        <time>2023-07-12T10:22:21.000Z</time>
      </trkpt>
      <trkpt lat="42.47852" lon="2.95176">
        <ele>1061.5999755859</ele>
        <time>2023-07-12T10:22:33.000Z</time>
      </trkpt>
      <trkpt lat="42.47849" lon="2.95175">
        <ele>1061.5999755859</ele>
        <time>2023-07-12T10:22:42.000Z</time>
      </trkpt>
      <trkpt lat="42.47851" lon="2.95174">
        <ele>1061.8000488281</ele>
        <time>2023-07-12T10:22:49.000Z</time>
      </trkpt>
      <trkpt lat="42.4786" lon="2.95157">
        <ele>1063.4000244141</ele>
        <time>2023-07-12T11:08:51.000Z</time>
      </trkpt>
      <trkpt lat="42.47882" lon="2.9515">
        <ele>1067.4000244141</ele>
        <time>2023-07-12T11:09:18.000Z</time>
      </trkpt>
      <trkpt lat="42.47884" lon="2.95143">
        <ele>1068.5999755859</ele>
        <time>2023-07-12T11:09:26.000Z</time>
      </trkpt>
      <trkpt lat="42.47884" lon="2.95142">
        <ele>1068.8000488281</ele>
        <time>2023-07-12T11:09:27.000Z</time>
      </trkpt>
      <trkpt lat="42.47883" lon="2.95142">
        <ele>1069.5999755859</ele>
        <time>2023-07-12T11:09:33.000Z</time>
      </trkpt>
      <trkpt lat="42.47884" lon="2.9514">
        <ele>1070.8000488281</ele>
        <time>2023-07-12T11:09:39.000Z</time>
      </trkpt>
      <trkpt lat="42.47886" lon="2.95139">
        <ele>1071</ele>
        <time>2023-07-12T11:09:41.000Z</time>
      </trkpt>
      <trkpt lat="42.47886" lon="2.95138">
        <ele>1071.8000488281</ele>
        <time>2023-07-12T11:09:45.000Z</time>
      </trkpt>
      <trkpt lat="42.47886" lon="2.95136">
        <ele>1072.1999511719</ele>
        <time>2023-07-12T11:09:48.000Z</time>
      </trkpt>
      <trkpt lat="42.47889" lon="2.95133">
        <ele>1073</ele>
        <time>2023-07-12T11:09:53.000Z</time>
      </trkpt>
      <trkpt lat="42.47891" lon="2.95132">
        <ele>1073.4000244141</ele>
        <time>2023-07-12T11:09:56.000Z</time>
      </trkpt>
      <trkpt lat="42.47892" lon="2.95131">
        <ele>1074.1999511719</ele>
        <time>2023-07-12T11:10:01.000Z</time>
      </trkpt>
      <trkpt lat="42.47895" lon="2.95129">
        <ele>1075</ele>
        <time>2023-07-12T11:10:08.000Z</time>
      </trkpt>
      <trkpt lat="42.47895" lon="2.95128">
        <ele>1075.1999511719</ele>
        <time>2023-07-12T11:10:09.000Z</time>
      </trkpt>
      <trkpt lat="42.47896" lon="2.95122">
        <ele>1076.4000244141</ele>
        <time>2023-07-12T11:10:17.000Z</time>
      </trkpt>
      <trkpt lat="42.47896" lon="2.95119">
        <ele>1077.5999755859</ele>
        <time>2023-07-12T11:10:24.000Z</time>
      </trkpt>
      <trkpt lat="42.47897" lon="2.95119">
        <ele>1077.5999755859</ele>
        <time>2023-07-12T11:10:25.000Z</time>
      </trkpt>
      <trkpt lat="42.47899" lon="2.95114">
        <ele>1078.5999755859</ele>
        <time>2023-07-12T11:10:31.000Z</time>
      </trkpt>
      <trkpt lat="42.47899" lon="2.95113">
        <ele>1079</ele>
        <time>2023-07-12T11:10:33.000Z</time>
      </trkpt>
      <trkpt lat="42.479" lon="2.95112">
        <ele>1079.5999755859</ele>
        <time>2023-07-12T11:10:38.000Z</time>
      </trkpt>
      <trkpt lat="42.47904" lon="2.95109">
        <ele>1080.1999511719</ele>
        <time>2023-07-12T11:10:43.000Z</time>
      </trkpt>
      <trkpt lat="42.47908" lon="2.95106">
        <ele>1080.8000488281</ele>
        <time>2023-07-12T11:10:47.000Z</time>
      </trkpt>
      <trkpt lat="42.47909" lon="2.95105">
        <ele>1081.4000244141</ele>
        <time>2023-07-12T11:10:51.000Z</time>
      </trkpt>
      <trkpt lat="42.47909" lon="2.95104">
        <ele>1081.8000488281</ele>
        <time>2023-07-12T11:10:54.000Z</time>
      </trkpt>
      <trkpt lat="42.4791" lon="2.95103">
        <ele>1082.5999755859</ele>
        <time>2023-07-12T11:10:58.000Z</time>
      </trkpt>
      <trkpt lat="42.47911" lon="2.95102">
        <ele>1083</ele>
        <time>2023-07-12T11:11:00.000Z</time>
      </trkpt>
      <trkpt lat="42.47912" lon="2.95099">
        <ele>1084</ele>
        <time>2023-07-12T11:11:06.000Z</time>
      </trkpt>
      <trkpt lat="42.47912" lon="2.95099">
        <ele>1084.1999511719</ele>
        <time>2023-07-12T11:11:07.000Z</time>
      </trkpt>
      <trkpt lat="42.47911" lon="2.95094">
        <ele>1085</ele>
        <time>2023-07-12T11:11:15.000Z</time>
      </trkpt>
      <trkpt lat="42.47912" lon="2.9509">
        <ele>1086</ele>
        <time>2023-07-12T11:11:21.000Z</time>
      </trkpt>
      <trkpt lat="42.47913" lon="2.95087">
        <ele>1086.4000244141</ele>
        <time>2023-07-12T11:11:24.000Z</time>
      </trkpt>
      <trkpt lat="42.47917" lon="2.95085">
        <ele>1087</ele>
        <time>2023-07-12T11:11:28.000Z</time>
      </trkpt>
      <trkpt lat="42.47919" lon="2.95085">
        <ele>1087.8000488281</ele>
        <time>2023-07-12T11:11:32.000Z</time>
      </trkpt>
      <trkpt lat="42.47919" lon="2.95085">
        <ele>1088.1999511719</ele>
        <time>2023-07-12T11:11:35.000Z</time>
      </trkpt>
      <trkpt lat="42.4792" lon="2.95085">
        <ele>1088.8000488281</ele>
        <time>2023-07-12T11:11:40.000Z</time>
      </trkpt>
      <trkpt lat="42.47921" lon="2.95085">
        <ele>1089.1999511719</ele>
        <time>2023-07-12T11:11:43.000Z</time>
      </trkpt>
      <trkpt lat="42.47921" lon="2.95083">
        <ele>1089.8000488281</ele>
        <time>2023-07-12T11:11:48.000Z</time>
      </trkpt>
      <trkpt lat="42.47923" lon="2.9508">
        <ele>1090.4000244141</ele>
        <time>2023-07-12T11:11:51.000Z</time>
      </trkpt>
      <trkpt lat="42.47924" lon="2.95078">
        <ele>1091</ele>
        <time>2023-07-12T11:11:55.000Z</time>
      </trkpt>
      <trkpt lat="42.47924" lon="2.95076">
        <ele>1091.4000244141</ele>
        <time>2023-07-12T11:11:58.000Z</time>
      </trkpt>
      <trkpt lat="42.47926" lon="2.95073">
        <ele>1092.4000244141</ele>
        <time>2023-07-12T11:12:03.000Z</time>
      </trkpt>
      <trkpt lat="42.47927" lon="2.95073">
        <ele>1092.5999755859</ele>
        <time>2023-07-12T11:12:05.000Z</time>
      </trkpt>
      <trkpt lat="42.4793" lon="2.95072">
        <ele>1093.5999755859</ele>
        <time>2023-07-12T11:12:11.000Z</time>
      </trkpt>
      <trkpt lat="42.47933" lon="2.95069">
        <ele>1094.5999755859</ele>
        <time>2023-07-12T11:12:19.000Z</time>
      </trkpt>
      <trkpt lat="42.47933" lon="2.95069">
        <ele>1094.8000488281</ele>
        <time>2023-07-12T11:12:20.000Z</time>
      </trkpt>
      <trkpt lat="42.47934" lon="2.95068">
        <ele>1095.8000488281</ele>
        <time>2023-07-12T11:12:24.000Z</time>
      </trkpt>
      <trkpt lat="42.47936" lon="2.95066">
        <ele>1096.1999511719</ele>
        <time>2023-07-12T11:12:28.000Z</time>
      </trkpt>
      <trkpt lat="42.47938" lon="2.95065">
        <ele>1097</ele>
        <time>2023-07-12T11:12:32.000Z</time>
      </trkpt>
      <trkpt lat="42.4794" lon="2.95065">
        <ele>1097.5999755859</ele>
        <time>2023-07-12T11:12:35.000Z</time>
      </trkpt>
      <trkpt lat="42.47942" lon="2.95065">
        <ele>1098</ele>
        <time>2023-07-12T11:12:37.000Z</time>
      </trkpt>
      <trkpt lat="42.47945" lon="2.95062">
        <ele>1098.5999755859</ele>
        <time>2023-07-12T11:12:44.000Z</time>
      </trkpt>
      <trkpt lat="42.47945" lon="2.95062">
        <ele>1099</ele>
        <time>2023-07-12T11:12:46.000Z</time>
      </trkpt>
      <trkpt lat="42.47946" lon="2.9506">
        <ele>1100</ele>
        <time>2023-07-12T11:12:51.000Z</time>
      </trkpt>
      <trkpt lat="42.47947" lon="2.9506">
        <ele>1100.1999511719</ele>
        <time>2023-07-12T11:12:52.000Z</time>
      </trkpt>
      <trkpt lat="42.47949" lon="2.95057">
        <ele>1100.5999755859</ele>
        <time>2023-07-12T11:12:58.000Z</time>
      </trkpt>
      <trkpt lat="42.47949" lon="2.95058">
        <ele>1101.1999511719</ele>
        <time>2023-07-12T11:13:02.000Z</time>
      </trkpt>
      <trkpt lat="42.4795" lon="2.95058">
        <ele>1101.1999511719</ele>
        <time>2023-07-12T11:13:04.000Z</time>
      </trkpt>
      <trkpt lat="42.47948" lon="2.95057">
        <ele>1101.4000244141</ele>
        <time>2023-07-12T11:13:11.000Z</time>
      </trkpt>
      <trkpt lat="42.47948" lon="2.95061">
        <ele>1101.1999511719</ele>
        <time>2023-07-12T11:13:19.000Z</time>
      </trkpt>
      <trkpt lat="42.47948" lon="2.95057">
        <ele>1101.4000244141</ele>
        <time>2023-07-12T11:13:27.000Z</time>
      </trkpt>
      <trkpt lat="42.47949" lon="2.95055">
        <ele>1101.4000244141</ele>
        <time>2023-07-12T11:13:34.000Z</time>
      </trkpt>
      <trkpt lat="42.47951" lon="2.95056">
        <ele>1101.5999755859</ele>
        <time>2023-07-12T11:13:45.000Z</time>
      </trkpt>
      <trkpt lat="42.47953" lon="2.95054">
        <ele>1102.1999511719</ele>
        <time>2023-07-12T11:13:50.000Z</time>
      </trkpt>
      <trkpt lat="42.47953" lon="2.95054">
        <ele>1102.8000488281</ele>
        <time>2023-07-12T11:13:52.000Z</time>
      </trkpt>
      <trkpt lat="42.47956" lon="2.95051">
        <ele>1103.4000244141</ele>
        <time>2023-07-12T11:13:55.000Z</time>
      </trkpt>
      <trkpt lat="42.47957" lon="2.9505">
        <ele>1104.1999511719</ele>
        <time>2023-07-12T11:13:59.000Z</time>
      </trkpt>
      <trkpt lat="42.47957" lon="2.95049">
        <ele>1104.4000244141</ele>
        <time>2023-07-12T11:14:00.000Z</time>
      </trkpt>
      <trkpt lat="42.4796" lon="2.95048">
        <ele>1105.4000244141</ele>
        <time>2023-07-12T11:14:06.000Z</time>
      </trkpt>
      <trkpt lat="42.47961" lon="2.95048">
        <ele>1105.8000488281</ele>
        <time>2023-07-12T11:14:08.000Z</time>
      </trkpt>
      <trkpt lat="42.47963" lon="2.95046">
        <ele>1106.5999755859</ele>
        <time>2023-07-12T11:14:14.000Z</time>
      </trkpt>
      <trkpt lat="42.47964" lon="2.95046">
        <ele>1106.8000488281</ele>
        <time>2023-07-12T11:14:16.000Z</time>
      </trkpt>
      <trkpt lat="42.47967" lon="2.95045">
        <ele>1107.5999755859</ele>
        <time>2023-07-12T11:14:21.000Z</time>
      </trkpt>
      <trkpt lat="42.47967" lon="2.95045">
        <ele>1108</ele>
        <time>2023-07-12T11:14:23.000Z</time>
      </trkpt>
      <trkpt lat="42.47968" lon="2.95045">
        <ele>1108.5999755859</ele>
        <time>2023-07-12T11:14:28.000Z</time>
      </trkpt>
      <trkpt lat="42.47969" lon="2.95044">
        <ele>1109</ele>
        <time>2023-07-12T11:14:31.000Z</time>
      </trkpt>
      <trkpt lat="42.47969" lon="2.95042">
        <ele>1109.8000488281</ele>
        <time>2023-07-12T11:14:35.000Z</time>
      </trkpt>
      <trkpt lat="42.4797" lon="2.95039">
        <ele>1110.1999511719</ele>
        <time>2023-07-12T11:14:38.000Z</time>
      </trkpt>
      <trkpt lat="42.4797" lon="2.95035">
        <ele>1110.8000488281</ele>
        <time>2023-07-12T11:14:42.000Z</time>
      </trkpt>
      <trkpt lat="42.4797" lon="2.95033">
        <ele>1111.4000244141</ele>
        <time>2023-07-12T11:14:45.000Z</time>
      </trkpt>
      <trkpt lat="42.47971" lon="2.95034">
        <ele>1112</ele>
        <time>2023-07-12T11:14:49.000Z</time>
      </trkpt>
      <trkpt lat="42.47972" lon="2.95033">
        <ele>1112.8000488281</ele>
        <time>2023-07-12T11:14:53.000Z</time>
      </trkpt>
      <trkpt lat="42.47972" lon="2.95032">
        <ele>1113.1999511719</ele>
        <time>2023-07-12T11:14:55.000Z</time>
      </trkpt>
      <trkpt lat="42.47974" lon="2.95028">
        <ele>1114.1999511719</ele>
        <time>2023-07-12T11:15:01.000Z</time>
      </trkpt>
      <trkpt lat="42.47978" lon="2.95024">
        <ele>1115</ele>
        <time>2023-07-12T11:15:08.000Z</time>
      </trkpt>
      <trkpt lat="42.47978" lon="2.95024">
        <ele>1115.4000244141</ele>
        <time>2023-07-12T11:15:10.000Z</time>
      </trkpt>
      <trkpt lat="42.47979" lon="2.95024">
        <ele>1116</ele>
        <time>2023-07-12T11:15:15.000Z</time>
      </trkpt>
      <trkpt lat="42.47981" lon="2.95024">
        <ele>1116.4000244141</ele>
        <time>2023-07-12T11:15:19.000Z</time>
      </trkpt>
      <trkpt lat="42.47982" lon="2.95022">
        <ele>1117.1999511719</ele>
        <time>2023-07-12T11:15:23.000Z</time>
      </trkpt>
      <trkpt lat="42.47982" lon="2.9502">
        <ele>1117.4000244141</ele>
        <time>2023-07-12T11:15:25.000Z</time>
      </trkpt>
      <trkpt lat="42.47981" lon="2.95019">
        <ele>1118.4000244141</ele>
        <time>2023-07-12T11:15:30.000Z</time>
      </trkpt>
      <trkpt lat="42.47981" lon="2.95018">
        <ele>1118.5999755859</ele>
        <time>2023-07-12T11:15:31.000Z</time>
      </trkpt>
      <trkpt lat="42.47981" lon="2.95016">
        <ele>1119.4000244141</ele>
        <time>2023-07-12T11:15:40.000Z</time>
      </trkpt>
      <trkpt lat="42.47982" lon="2.95016">
        <ele>1119.4000244141</ele>
        <time>2023-07-12T11:15:47.000Z</time>
      </trkpt>
      <trkpt lat="42.4798" lon="2.95017">
        <ele>1119.5999755859</ele>
        <time>2023-07-12T11:15:55.000Z</time>
      </trkpt>
      <trkpt lat="42.47981" lon="2.95017">
        <ele>1120</ele>
        <time>2023-07-12T11:16:02.000Z</time>
      </trkpt>
      <trkpt lat="42.47981" lon="2.95015">
        <ele>1120.5999755859</ele>
        <time>2023-07-12T11:16:09.000Z</time>
      </trkpt>
      <trkpt lat="42.47981" lon="2.95014">
        <ele>1120.8000488281</ele>
        <time>2023-07-12T11:16:10.000Z</time>
      </trkpt>
      <trkpt lat="42.47981" lon="2.95011">
        <ele>1121.8000488281</ele>
        <time>2023-07-12T11:16:16.000Z</time>
      </trkpt>
      <trkpt lat="42.47982" lon="2.95011">
        <ele>1122</ele>
        <time>2023-07-12T11:16:18.000Z</time>
      </trkpt>
      <trkpt lat="42.47983" lon="2.95012">
        <ele>1122.8000488281</ele>
        <time>2023-07-12T11:16:22.000Z</time>
      </trkpt>
      <trkpt lat="42.47984" lon="2.95011">
        <ele>1123.4000244141</ele>
        <time>2023-07-12T11:16:25.000Z</time>
      </trkpt>
      <trkpt lat="42.47986" lon="2.95009">
        <ele>1124</ele>
        <time>2023-07-12T11:16:29.000Z</time>
      </trkpt>
      <trkpt lat="42.47987" lon="2.95008">
        <ele>1124.1999511719</ele>
        <time>2023-07-12T11:16:31.000Z</time>
      </trkpt>
      <trkpt lat="42.47991" lon="2.95007">
        <ele>1125</ele>
        <time>2023-07-12T11:16:37.000Z</time>
      </trkpt>
      <trkpt lat="42.47993" lon="2.95006">
        <ele>1125.5999755859</ele>
        <time>2023-07-12T11:16:41.000Z</time>
      </trkpt>
      <trkpt lat="42.47995" lon="2.95005">
        <ele>1126</ele>
        <time>2023-07-12T11:16:45.000Z</time>
      </trkpt>
      <trkpt lat="42.47997" lon="2.95003">
        <ele>1126.8000488281</ele>
        <time>2023-07-12T11:16:50.000Z</time>
      </trkpt>
      <trkpt lat="42.47999" lon="2.95002">
        <ele>1127.1999511719</ele>
        <time>2023-07-12T11:16:54.000Z</time>
      </trkpt>
      <trkpt lat="42.48001" lon="2.95002">
        <ele>1127.8000488281</ele>
        <time>2023-07-12T11:16:58.000Z</time>
      </trkpt>
      <trkpt lat="42.48003" lon="2.95002">
        <ele>1128.1999511719</ele>
        <time>2023-07-12T11:17:02.000Z</time>
      </trkpt>
      <trkpt lat="42.48006" lon="2.95002">
        <ele>1128.8000488281</ele>
        <time>2023-07-12T11:17:06.000Z</time>
      </trkpt>
      <trkpt lat="42.48009" lon="2.95002">
        <ele>1129.4000244141</ele>
        <time>2023-07-12T11:17:09.000Z</time>
      </trkpt>
      <trkpt lat="42.4801" lon="2.95001">
        <ele>1130</ele>
        <time>2023-07-12T11:17:13.000Z</time>
      </trkpt>
      <trkpt lat="42.48013" lon="2.95002">
        <ele>1130.4000244141</ele>
        <time>2023-07-12T11:17:17.000Z</time>
      </trkpt>
      <trkpt lat="42.48016" lon="2.95002">
        <ele>1131</ele>
        <time>2023-07-12T11:17:20.000Z</time>
      </trkpt>
      <trkpt lat="42.48018" lon="2.95001">
        <ele>1131.5999755859</ele>
        <time>2023-07-12T11:17:24.000Z</time>
      </trkpt>
      <trkpt lat="42.4802" lon="2.95002">
        <ele>1132.4000244141</ele>
        <time>2023-07-12T11:17:29.000Z</time>
      </trkpt>
      <trkpt lat="42.48021" lon="2.95003">
        <ele>1132.5999755859</ele>
        <time>2023-07-12T11:17:31.000Z</time>
      </trkpt>
      <trkpt lat="42.48024" lon="2.95004">
        <ele>1133.4000244141</ele>
        <time>2023-07-12T11:17:38.000Z</time>
      </trkpt>
      <trkpt lat="42.48025" lon="2.95004">
        <ele>1133.8000488281</ele>
        <time>2023-07-12T11:17:40.000Z</time>
      </trkpt>
      <trkpt lat="42.48028" lon="2.95007">
        <ele>1134.4000244141</ele>
        <time>2023-07-12T11:17:46.000Z</time>
      </trkpt>
      <trkpt lat="42.48028" lon="2.95008">
        <ele>1134.8000488281</ele>
        <time>2023-07-12T11:17:48.000Z</time>
      </trkpt>
      <trkpt lat="42.48029" lon="2.95011">
        <ele>1136</ele>
        <time>2023-07-12T11:17:54.000Z</time>
      </trkpt>
      <trkpt lat="42.48029" lon="2.95011">
        <ele>1136.8000488281</ele>
        <time>2023-07-12T11:18:00.000Z</time>
      </trkpt>
      <trkpt lat="42.48031" lon="2.95012">
        <ele>1137</ele>
        <time>2023-07-12T11:18:02.000Z</time>
      </trkpt>
      <trkpt lat="42.48034" lon="2.9501">
        <ele>1138</ele>
        <time>2023-07-12T11:18:08.000Z</time>
      </trkpt>
      <trkpt lat="42.48035" lon="2.95009">
        <ele>1138.1999511719</ele>
        <time>2023-07-12T11:18:09.000Z</time>
      </trkpt>
      <trkpt lat="42.48044" lon="2.95009">
        <ele>1139.4000244141</ele>
        <time>2023-07-12T11:18:16.000Z</time>
      </trkpt>
      <trkpt lat="42.48044" lon="2.95009">
        <ele>1139.4000244141</ele>
        <time>2023-07-12T11:18:17.000Z</time>
      </trkpt>
      <trkpt lat="42.48049" lon="2.95006">
        <ele>1140.4000244141</ele>
        <time>2023-07-12T11:18:31.000Z</time>
      </trkpt>
      <trkpt lat="42.48054" lon="2.95009">
        <ele>1141.4000244141</ele>
        <time>2023-07-12T11:18:39.000Z</time>
      </trkpt>
      <trkpt lat="42.48056" lon="2.95008">
        <ele>1142.4000244141</ele>
        <time>2023-07-12T11:18:46.000Z</time>
      </trkpt>
      <trkpt lat="42.48057" lon="2.95008">
        <ele>1142.5999755859</ele>
        <time>2023-07-12T11:18:48.000Z</time>
      </trkpt>
      <trkpt lat="42.48056" lon="2.95006">
        <ele>1143.5999755859</ele>
        <time>2023-07-12T11:18:53.000Z</time>
      </trkpt>
      <trkpt lat="42.48058" lon="2.95004">
        <ele>1144.1999511719</ele>
        <time>2023-07-12T11:18:56.000Z</time>
      </trkpt>
      <trkpt lat="42.48059" lon="2.95003">
        <ele>1144.5999755859</ele>
        <time>2023-07-12T11:18:59.000Z</time>
      </trkpt>
      <trkpt lat="42.48059" lon="2.95001">
        <ele>1145</ele>
        <time>2023-07-12T11:19:02.000Z</time>
      </trkpt>
      <trkpt lat="42.48056" lon="2.94999">
        <ele>1145.8000488281</ele>
        <time>2023-07-12T11:19:07.000Z</time>
      </trkpt>
      <trkpt lat="42.48056" lon="2.94999">
        <ele>1146</ele>
        <time>2023-07-12T11:19:08.000Z</time>
      </trkpt>
      <trkpt lat="42.48055" lon="2.94996">
        <ele>1147</ele>
        <time>2023-07-12T11:19:13.000Z</time>
      </trkpt>
      <trkpt lat="42.48055" lon="2.94995">
        <ele>1147.1999511719</ele>
        <time>2023-07-12T11:19:15.000Z</time>
      </trkpt>
      <trkpt lat="42.48058" lon="2.94993">
        <ele>1148.1999511719</ele>
        <time>2023-07-12T11:19:21.000Z</time>
      </trkpt>
      <trkpt lat="42.48059" lon="2.94991">
        <ele>1148.4000244141</ele>
        <time>2023-07-12T11:19:23.000Z</time>
      </trkpt>
      <trkpt lat="42.48061" lon="2.94988">
        <ele>1149.1999511719</ele>
        <time>2023-07-12T11:19:28.000Z</time>
      </trkpt>
      <trkpt lat="42.4806" lon="2.94987">
        <ele>1150</ele>
        <time>2023-07-12T11:19:32.000Z</time>
      </trkpt>
      <trkpt lat="42.4806" lon="2.94986">
        <ele>1150.1999511719</ele>
        <time>2023-07-12T11:19:34.000Z</time>
      </trkpt>
      <trkpt lat="42.48058" lon="2.94984">
        <ele>1151.4000244141</ele>
        <time>2023-07-12T11:19:40.000Z</time>
      </trkpt>
      <trkpt lat="42.48058" lon="2.94984">
        <ele>1151.5999755859</ele>
        <time>2023-07-12T11:19:41.000Z</time>
      </trkpt>
      <trkpt lat="42.48056" lon="2.94982">
        <ele>1152.4000244141</ele>
        <time>2023-07-12T11:19:47.000Z</time>
      </trkpt>
      <trkpt lat="42.48056" lon="2.94981">
        <ele>1153</ele>
        <time>2023-07-12T11:19:50.000Z</time>
      </trkpt>
      <trkpt lat="42.48056" lon="2.94979">
        <ele>1153.4000244141</ele>
        <time>2023-07-12T11:19:53.000Z</time>
      </trkpt>
      <trkpt lat="42.48058" lon="2.94975">
        <ele>1154</ele>
        <time>2023-07-12T11:19:57.000Z</time>
      </trkpt>
      <trkpt lat="42.48059" lon="2.94972">
        <ele>1154.4000244141</ele>
        <time>2023-07-12T11:20:00.000Z</time>
      </trkpt>
      <trkpt lat="42.48061" lon="2.94971">
        <ele>1155.4000244141</ele>
        <time>2023-07-12T11:20:05.000Z</time>
      </trkpt>
      <trkpt lat="42.48061" lon="2.94971">
        <ele>1155.5999755859</ele>
        <time>2023-07-12T11:20:06.000Z</time>
      </trkpt>
      <trkpt lat="42.4806" lon="2.9497">
        <ele>1156.5999755859</ele>
        <time>2023-07-12T11:20:12.000Z</time>
      </trkpt>
      <trkpt lat="42.4806" lon="2.94965">
        <ele>1157.5999755859</ele>
        <time>2023-07-12T11:20:17.000Z</time>
      </trkpt>
      <trkpt lat="42.4806" lon="2.94964">
        <ele>1157.5999755859</ele>
        <time>2023-07-12T11:20:18.000Z</time>
      </trkpt>
      <trkpt lat="42.48061" lon="2.94962">
        <ele>1158.5999755859</ele>
        <time>2023-07-12T11:20:24.000Z</time>
      </trkpt>
      <trkpt lat="42.48061" lon="2.94962">
        <ele>1158.8000488281</ele>
        <time>2023-07-12T11:20:25.000Z</time>
      </trkpt>
      <trkpt lat="42.48061" lon="2.9496">
        <ele>1159.8000488281</ele>
        <time>2023-07-12T11:20:32.000Z</time>
      </trkpt>
      <trkpt lat="42.48062" lon="2.94959">
        <ele>1160.8000488281</ele>
        <time>2023-07-12T11:20:40.000Z</time>
      </trkpt>
      <trkpt lat="42.48063" lon="2.94955">
        <ele>1162</ele>
        <time>2023-07-12T11:20:47.000Z</time>
      </trkpt>
      <trkpt lat="42.48063" lon="2.94952">
        <ele>1162.4000244141</ele>
        <time>2023-07-12T11:20:50.000Z</time>
      </trkpt>
      <trkpt lat="42.48062" lon="2.94947">
        <ele>1163.1999511719</ele>
        <time>2023-07-12T11:20:54.000Z</time>
      </trkpt>
      <trkpt lat="42.48062" lon="2.94946">
        <ele>1163.5999755859</ele>
        <time>2023-07-12T11:20:57.000Z</time>
      </trkpt>
      <trkpt lat="42.48061" lon="2.94944">
        <ele>1164.1999511719</ele>
        <time>2023-07-12T11:21:01.000Z</time>
      </trkpt>
      <trkpt lat="42.48061" lon="2.94943">
        <ele>1164.5999755859</ele>
        <time>2023-07-12T11:21:04.000Z</time>
      </trkpt>
      <trkpt lat="42.48059" lon="2.9494">
        <ele>1165.1999511719</ele>
        <time>2023-07-12T11:21:09.000Z</time>
      </trkpt>
      <trkpt lat="42.48058" lon="2.94939">
        <ele>1165.5999755859</ele>
        <time>2023-07-12T11:21:13.000Z</time>
      </trkpt>
      <trkpt lat="42.4806" lon="2.94936">
        <ele>1166.1999511719</ele>
        <time>2023-07-12T11:21:18.000Z</time>
      </trkpt>
      <trkpt lat="42.48061" lon="2.94935">
        <ele>1166.5999755859</ele>
        <time>2023-07-12T11:21:21.000Z</time>
      </trkpt>
      <trkpt lat="42.48062" lon="2.94933">
        <ele>1167.4000244141</ele>
        <time>2023-07-12T11:21:26.000Z</time>
      </trkpt>
      <trkpt lat="42.48063" lon="2.94931">
        <ele>1168</ele>
        <time>2023-07-12T11:21:30.000Z</time>
      </trkpt>
      <trkpt lat="42.48063" lon="2.9493">
        <ele>1168.4000244141</ele>
        <time>2023-07-12T11:21:32.000Z</time>
      </trkpt>
      <trkpt lat="42.48065" lon="2.94929">
        <ele>1169.1999511719</ele>
        <time>2023-07-12T11:21:37.000Z</time>
      </trkpt>
      <trkpt lat="42.48067" lon="2.94929">
        <ele>1169.4000244141</ele>
        <time>2023-07-12T11:21:39.000Z</time>
      </trkpt>
      <trkpt lat="42.4807" lon="2.94928">
        <ele>1170.4000244141</ele>
        <time>2023-07-12T11:21:45.000Z</time>
      </trkpt>
      <trkpt lat="42.4807" lon="2.94928">
        <ele>1170.8000488281</ele>
        <time>2023-07-12T11:21:48.000Z</time>
      </trkpt>
      <trkpt lat="42.48069" lon="2.94926">
        <ele>1171.5999755859</ele>
        <time>2023-07-12T11:21:54.000Z</time>
      </trkpt>
      <trkpt lat="42.48069" lon="2.94926">
        <ele>1171.8000488281</ele>
        <time>2023-07-12T11:21:57.000Z</time>
      </trkpt>
      <trkpt lat="42.4807" lon="2.94922">
        <ele>1172.5999755859</ele>
        <time>2023-07-12T11:22:05.000Z</time>
      </trkpt>
      <trkpt lat="42.48071" lon="2.94916">
        <ele>1173.5999755859</ele>
        <time>2023-07-12T11:22:13.000Z</time>
      </trkpt>
      <trkpt lat="42.48071" lon="2.94916">
        <ele>1173.8000488281</ele>
        <time>2023-07-12T11:22:15.000Z</time>
      </trkpt>
      <trkpt lat="42.48071" lon="2.94916">
        <ele>1174.5999755859</ele>
        <time>2023-07-12T11:22:22.000Z</time>
      </trkpt>
      <trkpt lat="42.48071" lon="2.94917">
        <ele>1174.8000488281</ele>
        <time>2023-07-12T11:22:24.000Z</time>
      </trkpt>
      <trkpt lat="42.48073" lon="2.94916">
        <ele>1175.1999511719</ele>
        <time>2023-07-12T11:22:31.000Z</time>
      </trkpt>
      <trkpt lat="42.48075" lon="2.94915">
        <ele>1175.5999755859</ele>
        <time>2023-07-12T11:22:35.000Z</time>
      </trkpt>
      <trkpt lat="42.48077" lon="2.94914">
        <ele>1176.5999755859</ele>
        <time>2023-07-12T11:22:41.000Z</time>
      </trkpt>
      <trkpt lat="42.48078" lon="2.94913">
        <ele>1176.8000488281</ele>
        <time>2023-07-12T11:22:42.000Z</time>
      </trkpt>
      <trkpt lat="42.48078" lon="2.94912">
        <ele>1177.8000488281</ele>
        <time>2023-07-12T11:22:48.000Z</time>
      </trkpt>
      <trkpt lat="42.48078" lon="2.94913">
        <ele>1178</ele>
        <time>2023-07-12T11:22:49.000Z</time>
      </trkpt>
      <trkpt lat="42.48081" lon="2.94912">
        <ele>1178.8000488281</ele>
        <time>2023-07-12T11:22:55.000Z</time>
      </trkpt>
      <trkpt lat="42.48083" lon="2.94912">
        <ele>1179.1999511719</ele>
        <time>2023-07-12T11:22:57.000Z</time>
      </trkpt>
      <trkpt lat="42.48086" lon="2.94913">
        <ele>1179.8000488281</ele>
        <time>2023-07-12T11:23:01.000Z</time>
      </trkpt>
      <trkpt lat="42.48086" lon="2.94912">
        <ele>1180.4000244141</ele>
        <time>2023-07-12T11:23:05.000Z</time>
      </trkpt>
      <trkpt lat="42.48087" lon="2.9491">
        <ele>1181</ele>
        <time>2023-07-12T11:23:09.000Z</time>
      </trkpt>
      <trkpt lat="42.48089" lon="2.94909">
        <ele>1182</ele>
        <time>2023-07-12T11:23:15.000Z</time>
      </trkpt>
      <trkpt lat="42.48089" lon="2.94908">
        <ele>1182</ele>
        <time>2023-07-12T11:23:16.000Z</time>
      </trkpt>
      <trkpt lat="42.48088" lon="2.9491">
        <ele>1183.1999511719</ele>
        <time>2023-07-12T11:23:25.000Z</time>
      </trkpt>
      <trkpt lat="42.4809" lon="2.94909">
        <ele>1184.1999511719</ele>
        <time>2023-07-12T11:23:32.000Z</time>
      </trkpt>
      <trkpt lat="42.4809" lon="2.94908">
        <ele>1184.5999755859</ele>
        <time>2023-07-12T11:23:34.000Z</time>
      </trkpt>
      <trkpt lat="42.48092" lon="2.94906">
        <ele>1185.1999511719</ele>
        <time>2023-07-12T11:23:39.000Z</time>
      </trkpt>
      <trkpt lat="42.48093" lon="2.94904">
        <ele>1185.5999755859</ele>
        <time>2023-07-12T11:23:42.000Z</time>
      </trkpt>
      <trkpt lat="42.48094" lon="2.94902">
        <ele>1186.1999511719</ele>
        <time>2023-07-12T11:23:45.000Z</time>
      </trkpt>
      <trkpt lat="42.48099" lon="2.94898">
        <ele>1187</ele>
        <time>2023-07-12T11:23:50.000Z</time>
      </trkpt>
      <trkpt lat="42.481" lon="2.94897">
        <ele>1187.4000244141</ele>
        <time>2023-07-12T11:23:53.000Z</time>
      </trkpt>
      <trkpt lat="42.481" lon="2.94897">
        <ele>1188.4000244141</ele>
        <time>2023-07-12T11:23:59.000Z</time>
      </trkpt>
      <trkpt lat="42.48101" lon="2.94897">
        <ele>1188.5999755859</ele>
        <time>2023-07-12T11:24:00.000Z</time>
      </trkpt>
      <trkpt lat="42.48103" lon="2.94895">
        <ele>1189.5999755859</ele>
        <time>2023-07-12T11:24:07.000Z</time>
      </trkpt>
      <trkpt lat="42.48105" lon="2.94892">
        <ele>1190.5999755859</ele>
        <time>2023-07-12T11:24:15.000Z</time>
      </trkpt>
      <trkpt lat="42.48105" lon="2.94892">
        <ele>1190.8000488281</ele>
        <time>2023-07-12T11:24:16.000Z</time>
      </trkpt>
      <trkpt lat="42.48103" lon="2.9489">
        <ele>1191.5999755859</ele>
        <time>2023-07-12T11:24:23.000Z</time>
      </trkpt>
      <trkpt lat="42.48102" lon="2.9489">
        <ele>1192</ele>
        <time>2023-07-12T11:24:25.000Z</time>
      </trkpt>
      <trkpt lat="42.48105" lon="2.94887">
        <ele>1192.5999755859</ele>
        <time>2023-07-12T11:24:32.000Z</time>
      </trkpt>
      <trkpt lat="42.48106" lon="2.94886">
        <ele>1192.8000488281</ele>
        <time>2023-07-12T11:24:33.000Z</time>
      </trkpt>
      <trkpt lat="42.48108" lon="2.94885">
        <ele>1193.8000488281</ele>
        <time>2023-07-12T11:24:40.000Z</time>
      </trkpt>
      <trkpt lat="42.48111" lon="2.94885">
        <ele>1195</ele>
        <time>2023-07-12T11:24:48.000Z</time>
      </trkpt>
      <trkpt lat="42.48111" lon="2.94885">
        <ele>1195.1999511719</ele>
        <time>2023-07-12T11:24:49.000Z</time>
      </trkpt>
      <trkpt lat="42.48112" lon="2.94882">
        <ele>1196.1999511719</ele>
        <time>2023-07-12T11:24:57.000Z</time>
      </trkpt>
      <trkpt lat="42.48111" lon="2.9488">
        <ele>1197.1999511719</ele>
        <time>2023-07-12T11:25:05.000Z</time>
      </trkpt>
      <trkpt lat="42.48113" lon="2.94877">
        <ele>1198</ele>
        <time>2023-07-12T11:25:12.000Z</time>
      </trkpt>
      <trkpt lat="42.48115" lon="2.94877">
        <ele>1198.1999511719</ele>
        <time>2023-07-12T11:25:16.000Z</time>
      </trkpt>
      <trkpt lat="42.48117" lon="2.94876">
        <ele>1198.8000488281</ele>
        <time>2023-07-12T11:25:20.000Z</time>
      </trkpt>
      <trkpt lat="42.48119" lon="2.94873">
        <ele>1199.4000244141</ele>
        <time>2023-07-12T11:25:25.000Z</time>
      </trkpt>
      <trkpt lat="42.4812" lon="2.94871">
        <ele>1200</ele>
        <time>2023-07-12T11:25:29.000Z</time>
      </trkpt>
      <trkpt lat="42.48121" lon="2.9487">
        <ele>1200.4000244141</ele>
        <time>2023-07-12T11:25:33.000Z</time>
      </trkpt>
      <trkpt lat="42.48121" lon="2.9487">
        <ele>1201.5999755859</ele>
        <time>2023-07-12T11:25:39.000Z</time>
      </trkpt>
      <trkpt lat="42.48125" lon="2.94868">
        <ele>1202.5999755859</ele>
        <time>2023-07-12T11:25:47.000Z</time>
      </trkpt>
      <trkpt lat="42.48125" lon="2.94867">
        <ele>1203.5999755859</ele>
        <time>2023-07-12T11:25:55.000Z</time>
      </trkpt>
      <trkpt lat="42.48127" lon="2.94867">
        <ele>1204</ele>
        <time>2023-07-12T11:25:57.000Z</time>
      </trkpt>
      <trkpt lat="42.48129" lon="2.94866">
        <ele>1204.8000488281</ele>
        <time>2023-07-12T11:26:03.000Z</time>
      </trkpt>
      <trkpt lat="42.4813" lon="2.94864">
        <ele>1205.1999511719</ele>
        <time>2023-07-12T11:26:06.000Z</time>
      </trkpt>
      <trkpt lat="42.48131" lon="2.94862">
        <ele>1205.8000488281</ele>
        <time>2023-07-12T11:26:09.000Z</time>
      </trkpt>
      <trkpt lat="42.48133" lon="2.94861">
        <ele>1206.5999755859</ele>
        <time>2023-07-12T11:26:15.000Z</time>
      </trkpt>
      <trkpt lat="42.48134" lon="2.9486">
        <ele>1207</ele>
        <time>2023-07-12T11:26:17.000Z</time>
      </trkpt>
      <trkpt lat="42.48135" lon="2.94858">
        <ele>1207.5999755859</ele>
        <time>2023-07-12T11:26:21.000Z</time>
      </trkpt>
      <trkpt lat="42.48135" lon="2.94856">
        <ele>1208</ele>
        <time>2023-07-12T11:26:24.000Z</time>
      </trkpt>
      <trkpt lat="42.48137" lon="2.94854">
        <ele>1209</ele>
        <time>2023-07-12T11:26:30.000Z</time>
      </trkpt>
      <trkpt lat="42.48139" lon="2.94851">
        <ele>1210.1999511719</ele>
        <time>2023-07-12T11:26:37.000Z</time>
      </trkpt>
      <trkpt lat="42.4814" lon="2.9485">
        <ele>1210.5999755859</ele>
        <time>2023-07-12T11:26:39.000Z</time>
      </trkpt>
      <trkpt lat="42.48141" lon="2.94849">
        <ele>1211.1999511719</ele>
        <time>2023-07-12T11:26:43.000Z</time>
      </trkpt>
      <trkpt lat="42.48142" lon="2.94848">
        <ele>1211.8000488281</ele>
        <time>2023-07-12T11:26:46.000Z</time>
      </trkpt>
      <trkpt lat="42.48145" lon="2.94846">
        <ele>1212.4000244141</ele>
        <time>2023-07-12T11:26:50.000Z</time>
      </trkpt>
      <trkpt lat="42.48146" lon="2.94845">
        <ele>1212.5999755859</ele>
        <time>2023-07-12T11:26:55.000Z</time>
      </trkpt>
      <trkpt lat="42.48143" lon="2.94853">
        <ele>1212.5999755859</ele>
        <time>2023-07-12T11:27:03.000Z</time>
      </trkpt>
      <trkpt lat="42.48148" lon="2.94849">
        <ele>1212.8000488281</ele>
        <time>2023-07-12T11:27:11.000Z</time>
      </trkpt>
      <trkpt lat="42.48146" lon="2.94846">
        <ele>1213</ele>
        <time>2023-07-12T11:27:18.000Z</time>
      </trkpt>
      <trkpt lat="42.48144" lon="2.94843">
        <ele>1213</ele>
        <time>2023-07-12T11:27:29.000Z</time>
      </trkpt>
      <trkpt lat="42.48145" lon="2.94843">
        <ele>1213.4000244141</ele>
        <time>2023-07-12T11:27:31.000Z</time>
      </trkpt>
      <trkpt lat="42.48148" lon="2.94841">
        <ele>1214.5999755859</ele>
        <time>2023-07-12T11:27:37.000Z</time>
      </trkpt>
      <trkpt lat="42.48149" lon="2.94841">
        <ele>1214.8000488281</ele>
        <time>2023-07-12T11:27:38.000Z</time>
      </trkpt>
      <trkpt lat="42.48152" lon="2.94841">
        <ele>1215.5999755859</ele>
        <time>2023-07-12T11:27:42.000Z</time>
      </trkpt>
      <trkpt lat="42.48156" lon="2.94842">
        <ele>1216.5999755859</ele>
        <time>2023-07-12T11:27:48.000Z</time>
      </trkpt>
      <trkpt lat="42.4816" lon="2.94844">
        <ele>1217.8000488281</ele>
        <time>2023-07-12T11:27:54.000Z</time>
      </trkpt>
      <trkpt lat="42.48161" lon="2.94845">
        <ele>1218</ele>
        <time>2023-07-12T11:27:56.000Z</time>
      </trkpt>
      <trkpt lat="42.48165" lon="2.94845">
        <ele>1218.8000488281</ele>
        <time>2023-07-12T11:28:01.000Z</time>
      </trkpt>
      <trkpt lat="42.48167" lon="2.94844">
        <ele>1219.4000244141</ele>
        <time>2023-07-12T11:28:04.000Z</time>
      </trkpt>
      <trkpt lat="42.4817" lon="2.94844">
        <ele>1219.8000488281</ele>
        <time>2023-07-12T11:28:07.000Z</time>
      </trkpt>
      <trkpt lat="42.48171" lon="2.94843">
        <ele>1220.5999755859</ele>
        <time>2023-07-12T11:28:11.000Z</time>
      </trkpt>
      <trkpt lat="42.48172" lon="2.94842">
        <ele>1221</ele>
        <time>2023-07-12T11:28:14.000Z</time>
      </trkpt>
      <trkpt lat="42.48172" lon="2.94839">
        <ele>1221.8000488281</ele>
        <time>2023-07-12T11:28:20.000Z</time>
      </trkpt>
      <trkpt lat="42.48171" lon="2.94839">
        <ele>1222</ele>
        <time>2023-07-12T11:28:21.000Z</time>
      </trkpt>
      <trkpt lat="42.48175" lon="2.94838">
        <ele>1223</ele>
        <time>2023-07-12T11:28:28.000Z</time>
      </trkpt>
      <trkpt lat="42.48176" lon="2.94839">
        <ele>1223.1999511719</ele>
        <time>2023-07-12T11:28:29.000Z</time>
      </trkpt>
      <trkpt lat="42.48184" lon="2.94836">
        <ele>1224.1999511719</ele>
        <time>2023-07-12T11:28:36.000Z</time>
      </trkpt>
      <trkpt lat="42.48184" lon="2.94836">
        <ele>1224.1999511719</ele>
        <time>2023-07-12T11:28:37.000Z</time>
      </trkpt>
      <trkpt lat="42.4819" lon="2.94841">
        <ele>1224.1999511719</ele>
        <time>2023-07-12T11:28:45.000Z</time>
      </trkpt>
      <trkpt lat="42.48186" lon="2.94842">
        <ele>1224.4000244141</ele>
        <time>2023-07-12T11:28:51.000Z</time>
      </trkpt>
      <trkpt lat="42.48179" lon="2.94837">
        <ele>1225.1999511719</ele>
        <time>2023-07-12T11:28:59.000Z</time>
      </trkpt>
      <trkpt lat="42.48179" lon="2.94836">
        <ele>1225.1999511719</ele>
        <time>2023-07-12T11:29:00.000Z</time>
      </trkpt>
      <trkpt lat="42.4818" lon="2.94836">
        <ele>1226</ele>
        <time>2023-07-12T11:29:06.000Z</time>
      </trkpt>
      <trkpt lat="42.48183" lon="2.94837">
        <ele>1226.1999511719</ele>
        <time>2023-07-12T11:29:12.000Z</time>
      </trkpt>
      <trkpt lat="42.4818" lon="2.94828">
        <ele>1227.1999511719</ele>
        <time>2023-07-12T11:29:19.000Z</time>
      </trkpt>
      <trkpt lat="42.48179" lon="2.94826">
        <ele>1227.4000244141</ele>
        <time>2023-07-12T11:29:20.000Z</time>
      </trkpt>
      <trkpt lat="42.48181" lon="2.94823">
        <ele>1228.4000244141</ele>
        <time>2023-07-12T11:29:26.000Z</time>
      </trkpt>
      <trkpt lat="42.48181" lon="2.94824">
        <ele>1228.5999755859</ele>
        <time>2023-07-12T11:29:27.000Z</time>
      </trkpt>
      <trkpt lat="42.48179" lon="2.94823">
        <ele>1229.5999755859</ele>
        <time>2023-07-12T11:29:33.000Z</time>
      </trkpt>
      <trkpt lat="42.48178" lon="2.94821">
        <ele>1230</ele>
        <time>2023-07-12T11:29:35.000Z</time>
      </trkpt>
      <trkpt lat="42.48176" lon="2.9482">
        <ele>1230.5999755859</ele>
        <time>2023-07-12T11:29:41.000Z</time>
      </trkpt>
      <trkpt lat="42.48176" lon="2.9482">
        <ele>1230.5999755859</ele>
        <time>2023-07-12T11:29:44.000Z</time>
      </trkpt>
      <trkpt lat="42.48178" lon="2.94813">
        <ele>1231.5999755859</ele>
        <time>2023-07-12T11:29:53.000Z</time>
      </trkpt>
      <trkpt lat="42.48178" lon="2.9481">
        <ele>1232.5999755859</ele>
        <time>2023-07-12T11:30:00.000Z</time>
      </trkpt>
      <trkpt lat="42.48178" lon="2.9481">
        <ele>1232.8000488281</ele>
        <time>2023-07-12T11:30:01.000Z</time>
      </trkpt>
      <trkpt lat="42.4818" lon="2.94806">
        <ele>1233.8000488281</ele>
        <time>2023-07-12T11:30:08.000Z</time>
      </trkpt>
      <trkpt lat="42.4818" lon="2.94806">
        <ele>1234.1999511719</ele>
        <time>2023-07-12T11:30:11.000Z</time>
      </trkpt>
      <trkpt lat="42.48182" lon="2.94804">
        <ele>1234.8000488281</ele>
        <time>2023-07-12T11:30:15.000Z</time>
      </trkpt>
      <trkpt lat="42.48183" lon="2.948">
        <ele>1235.4000244141</ele>
        <time>2023-07-12T11:30:19.000Z</time>
      </trkpt>
      <trkpt lat="42.48183" lon="2.94795">
        <ele>1236</ele>
        <time>2023-07-12T11:30:24.000Z</time>
      </trkpt>
      <trkpt lat="42.48184" lon="2.94794">
        <ele>1236.5999755859</ele>
        <time>2023-07-12T11:30:36.000Z</time>
      </trkpt>
      <trkpt lat="42.48188" lon="2.94792">
        <ele>1236.8000488281</ele>
        <time>2023-07-12T11:30:54.000Z</time>
      </trkpt>
      <trkpt lat="42.48188" lon="2.94791">
        <ele>1237</ele>
        <time>2023-07-12T11:31:01.000Z</time>
      </trkpt>
      <trkpt lat="42.48185" lon="2.94792">
        <ele>1238</ele>
        <time>2023-07-12T11:31:08.000Z</time>
      </trkpt>
      <trkpt lat="42.48185" lon="2.94791">
        <ele>1238</ele>
        <time>2023-07-12T11:31:09.000Z</time>
      </trkpt>
      <trkpt lat="42.48183" lon="2.94787">
        <ele>1238.8000488281</ele>
        <time>2023-07-12T11:31:17.000Z</time>
      </trkpt>
      <trkpt lat="42.48183" lon="2.94786">
        <ele>1239.1999511719</ele>
        <time>2023-07-12T11:31:20.000Z</time>
      </trkpt>
      <trkpt lat="42.48183" lon="2.94783">
        <ele>1239.5999755859</ele>
        <time>2023-07-12T11:31:25.000Z</time>
      </trkpt>
      <trkpt lat="42.48182" lon="2.94782">
        <ele>1240.1999511719</ele>
        <time>2023-07-12T11:31:29.000Z</time>
      </trkpt>
      <trkpt lat="42.48182" lon="2.94781">
        <ele>1240.4000244141</ele>
        <time>2023-07-12T11:31:31.000Z</time>
      </trkpt>
      <trkpt lat="42.48182" lon="2.94777">
        <ele>1241.1999511719</ele>
        <time>2023-07-12T11:31:37.000Z</time>
      </trkpt>
      <trkpt lat="42.48183" lon="2.94775">
        <ele>1241.5999755859</ele>
        <time>2023-07-12T11:31:39.000Z</time>
      </trkpt>
      <trkpt lat="42.48183" lon="2.94772">
        <ele>1242.4000244141</ele>
        <time>2023-07-12T11:31:43.000Z</time>
      </trkpt>
      <trkpt lat="42.48184" lon="2.94769">
        <ele>1243</ele>
        <time>2023-07-12T11:31:47.000Z</time>
      </trkpt>
      <trkpt lat="42.48184" lon="2.94766">
        <ele>1243.4000244141</ele>
        <time>2023-07-12T11:31:50.000Z</time>
      </trkpt>
      <trkpt lat="42.48185" lon="2.94764">
        <ele>1244</ele>
        <time>2023-07-12T11:31:54.000Z</time>
      </trkpt>
      <trkpt lat="42.48185" lon="2.94763">
        <ele>1244.5999755859</ele>
        <time>2023-07-12T11:31:57.000Z</time>
      </trkpt>
      <trkpt lat="42.48186" lon="2.94762">
        <ele>1245.4000244141</ele>
        <time>2023-07-12T11:32:02.000Z</time>
      </trkpt>
      <trkpt lat="42.48186" lon="2.94763">
        <ele>1245.5999755859</ele>
        <time>2023-07-12T11:32:03.000Z</time>
      </trkpt>
      <trkpt lat="42.48186" lon="2.94763">
        <ele>1245.8000488281</ele>
        <time>2023-07-12T11:32:04.000Z</time>
      </trkpt>
      <trkpt lat="42.48187" lon="2.94762">
        <ele>1245.8000488281</ele>
        <time>2023-07-12T11:32:09.000Z</time>
      </trkpt>
      <trkpt lat="42.48187" lon="2.94762">
        <ele>1245.8000488281</ele>
        <time>2023-07-12T11:32:10.000Z</time>
      </trkpt>
      <trkpt lat="42.48189" lon="2.94754">
        <ele>1246</ele>
        <time>2023-07-12T11:32:17.000Z</time>
      </trkpt>
      <trkpt lat="42.48189" lon="2.94756">
        <ele>1245.8000488281</ele>
        <time>2023-07-12T11:32:24.000Z</time>
      </trkpt>
      <trkpt lat="42.48188" lon="2.94757">
        <ele>1245.8000488281</ele>
        <time>2023-07-12T11:32:31.000Z</time>
      </trkpt>
      <trkpt lat="42.48187" lon="2.94755">
        <ele>1246.1999511719</ele>
        <time>2023-07-12T11:32:39.000Z</time>
      </trkpt>
      <trkpt lat="42.48185" lon="2.94752">
        <ele>1246.8000488281</ele>
        <time>2023-07-12T11:32:44.000Z</time>
      </trkpt>
      <trkpt lat="42.48185" lon="2.9475">
        <ele>1247.1999511719</ele>
        <time>2023-07-12T11:32:46.000Z</time>
      </trkpt>
      <trkpt lat="42.48184" lon="2.94743">
        <ele>1247.8000488281</ele>
        <time>2023-07-12T11:32:53.000Z</time>
      </trkpt>
      <trkpt lat="42.48182" lon="2.94736">
        <ele>1248</ele>
        <time>2023-07-12T11:32:58.000Z</time>
      </trkpt>
      <trkpt lat="42.48181" lon="2.94729">
        <ele>1248</ele>
        <time>2023-07-12T11:33:04.000Z</time>
      </trkpt>
      <trkpt lat="42.48182" lon="2.94725">
        <ele>1248</ele>
        <time>2023-07-12T11:33:10.000Z</time>
      </trkpt>
      <trkpt lat="42.48184" lon="2.94719">
        <ele>1248.5999755859</ele>
        <time>2023-07-12T11:33:16.000Z</time>
      </trkpt>
      <trkpt lat="42.48185" lon="2.94713">
        <ele>1248.8000488281</ele>
        <time>2023-07-12T11:33:22.000Z</time>
      </trkpt>
      <trkpt lat="42.48186" lon="2.94712">
        <ele>1248.8000488281</ele>
        <time>2023-07-12T11:33:23.000Z</time>
      </trkpt>
      <trkpt lat="42.48185" lon="2.94704">
        <ele>1249</ele>
        <time>2023-07-12T11:33:29.000Z</time>
      </trkpt>
      <trkpt lat="42.48184" lon="2.947">
        <ele>1248.5999755859</ele>
        <time>2023-07-12T11:33:36.000Z</time>
      </trkpt>
      <trkpt lat="42.48184" lon="2.94699">
        <ele>1248.5999755859</ele>
        <time>2023-07-12T11:33:37.000Z</time>
      </trkpt>
      <trkpt lat="42.48186" lon="2.94694">
        <ele>1248.8000488281</ele>
        <time>2023-07-12T11:33:43.000Z</time>
      </trkpt>
      <trkpt lat="42.48188" lon="2.94689">
        <ele>1249</ele>
        <time>2023-07-12T11:33:49.000Z</time>
      </trkpt>
      <trkpt lat="42.48191" lon="2.94686">
        <ele>1249.4000244141</ele>
        <time>2023-07-12T11:33:56.000Z</time>
      </trkpt>
      <trkpt lat="42.48194" lon="2.94685">
        <ele>1249.4000244141</ele>
        <time>2023-07-12T11:34:01.000Z</time>
      </trkpt>
      <trkpt lat="42.48194" lon="2.94684">
        <ele>1249.8000488281</ele>
        <time>2023-07-12T11:34:06.000Z</time>
      </trkpt>
      <trkpt lat="42.48194" lon="2.94685">
        <ele>1249.8000488281</ele>
        <time>2023-07-12T11:34:09.000Z</time>
      </trkpt>
      <trkpt lat="42.48191" lon="2.94683">
        <ele>1249.8000488281</ele>
        <time>2023-07-12T11:34:16.000Z</time>
      </trkpt>
      <trkpt lat="42.48191" lon="2.94683">
        <ele>1249.8000488281</ele>
        <time>2023-07-12T11:34:17.000Z</time>
      </trkpt>
      <trkpt lat="42.4819" lon="2.94682">
        <ele>1249.8000488281</ele>
        <time>2023-07-12T11:34:26.000Z</time>
      </trkpt>
      <trkpt lat="42.48195" lon="2.94684">
        <ele>1249.8000488281</ele>
        <time>2023-07-12T11:34:37.000Z</time>
      </trkpt>
      <trkpt lat="42.48196" lon="2.94686">
        <ele>1249.8000488281</ele>
        <time>2023-07-12T11:34:45.000Z</time>
      </trkpt>
      <trkpt lat="42.48197" lon="2.94679">
        <ele>1249.8000488281</ele>
        <time>2023-07-12T11:34:53.000Z</time>
      </trkpt>
      <trkpt lat="42.48198" lon="2.94672">
        <ele>1249.8000488281</ele>
        <time>2023-07-12T11:34:59.000Z</time>
      </trkpt>
      <trkpt lat="42.482" lon="2.94668">
        <ele>1249.4000244141</ele>
        <time>2023-07-12T11:35:04.000Z</time>
      </trkpt>
      <trkpt lat="42.48203" lon="2.94666">
        <ele>1248.8000488281</ele>
        <time>2023-07-12T11:35:11.000Z</time>
      </trkpt>
      <trkpt lat="42.48208" lon="2.94661">
        <ele>1248.4000244141</ele>
        <time>2023-07-12T11:35:17.000Z</time>
      </trkpt>
      <trkpt lat="42.48211" lon="2.94659">
        <ele>1247.8000488281</ele>
        <time>2023-07-12T11:35:24.000Z</time>
      </trkpt>
      <trkpt lat="42.48213" lon="2.94657">
        <ele>1247.5999755859</ele>
        <time>2023-07-12T11:35:26.000Z</time>
      </trkpt>
      <trkpt lat="42.48216" lon="2.94654">
        <ele>1246.5999755859</ele>
        <time>2023-07-12T11:35:32.000Z</time>
      </trkpt>
      <trkpt lat="42.48217" lon="2.94653">
        <ele>1246.4000244141</ele>
        <time>2023-07-12T11:35:34.000Z</time>
      </trkpt>
      <trkpt lat="42.48221" lon="2.94654">
        <ele>1245.5999755859</ele>
        <time>2023-07-12T11:35:39.000Z</time>
      </trkpt>
      <trkpt lat="42.48222" lon="2.94654">
        <ele>1245</ele>
        <time>2023-07-12T11:35:42.000Z</time>
      </trkpt>
      <trkpt lat="42.48221" lon="2.94652">
        <ele>1244.4000244141</ele>
        <time>2023-07-12T11:35:46.000Z</time>
      </trkpt>
      <trkpt lat="42.48222" lon="2.9465">
        <ele>1243.5999755859</ele>
        <time>2023-07-12T11:35:51.000Z</time>
      </trkpt>
      <trkpt lat="42.48222" lon="2.94649">
        <ele>1243.4000244141</ele>
        <time>2023-07-12T11:35:52.000Z</time>
      </trkpt>
      <trkpt lat="42.48223" lon="2.94647">
        <ele>1242.4000244141</ele>
        <time>2023-07-12T11:35:57.000Z</time>
      </trkpt>
      <trkpt lat="42.48224" lon="2.94646">
        <ele>1242.1999511719</ele>
        <time>2023-07-12T11:35:58.000Z</time>
      </trkpt>
      <trkpt lat="42.48224" lon="2.94642">
        <ele>1241.4000244141</ele>
        <time>2023-07-12T11:36:03.000Z</time>
      </trkpt>
      <trkpt lat="42.48224" lon="2.94639">
        <ele>1241</ele>
        <time>2023-07-12T11:36:06.000Z</time>
      </trkpt>
      <trkpt lat="42.48226" lon="2.94631">
        <ele>1240.1999511719</ele>
        <time>2023-07-12T11:36:12.000Z</time>
      </trkpt>
      <trkpt lat="42.48226" lon="2.94628">
        <ele>1239.8000488281</ele>
        <time>2023-07-12T11:36:15.000Z</time>
      </trkpt>
      <trkpt lat="42.48229" lon="2.94624">
        <ele>1239.1999511719</ele>
        <time>2023-07-12T11:36:21.000Z</time>
      </trkpt>
      <trkpt lat="42.48229" lon="2.94626">
        <ele>1239.1999511719</ele>
        <time>2023-07-12T11:36:23.000Z</time>
      </trkpt>
      <trkpt lat="42.48227" lon="2.94636">
        <ele>1239.4000244141</ele>
        <time>2023-07-12T11:36:30.000Z</time>
      </trkpt>
      <trkpt lat="42.48228" lon="2.94647">
        <ele>1240.4000244141</ele>
        <time>2023-07-12T11:36:37.000Z</time>
      </trkpt>
      <trkpt lat="42.48228" lon="2.94648">
        <ele>1240.4000244141</ele>
        <time>2023-07-12T11:36:38.000Z</time>
      </trkpt>
      <trkpt lat="42.48231" lon="2.94654">
        <ele>1241</ele>
        <time>2023-07-12T11:36:45.000Z</time>
      </trkpt>
      <trkpt lat="42.48233" lon="2.94656">
        <ele>1241.1999511719</ele>
        <time>2023-07-12T11:36:51.000Z</time>
      </trkpt>
      <trkpt lat="42.48233" lon="2.9466">
        <ele>1241.1999511719</ele>
        <time>2023-07-12T11:37:01.000Z</time>
      </trkpt>
      <trkpt lat="42.48233" lon="2.94661">
        <ele>1241.1999511719</ele>
        <time>2023-07-12T11:37:11.000Z</time>
      </trkpt>
      <trkpt lat="42.4823" lon="2.94659">
        <ele>1241.1999511719</ele>
        <time>2023-07-12T11:37:19.000Z</time>
      </trkpt>
      <trkpt lat="42.4823" lon="2.94657">
        <ele>1241.1999511719</ele>
        <time>2023-07-12T11:37:26.000Z</time>
      </trkpt>
      <trkpt lat="42.48229" lon="2.9466">
        <ele>1241</ele>
        <time>2023-07-12T11:37:36.000Z</time>
      </trkpt>
      <trkpt lat="42.48229" lon="2.94663">
        <ele>1241</ele>
        <time>2023-07-12T11:37:46.000Z</time>
      </trkpt>
      <trkpt lat="42.48228" lon="2.94661">
        <ele>1240.8000488281</ele>
        <time>2023-07-12T11:37:55.000Z</time>
      </trkpt>
      <trkpt lat="42.48224" lon="2.94658">
        <ele>1241</ele>
        <time>2023-07-12T11:38:01.000Z</time>
      </trkpt>
      <trkpt lat="42.48222" lon="2.94657">
        <ele>1241.4000244141</ele>
        <time>2023-07-12T11:38:03.000Z</time>
      </trkpt>
      <trkpt lat="42.4822" lon="2.94656">
        <ele>1242.1999511719</ele>
        <time>2023-07-12T11:38:08.000Z</time>
      </trkpt>
      <trkpt lat="42.4822" lon="2.94656">
        <ele>1242.4000244141</ele>
        <time>2023-07-12T11:38:09.000Z</time>
      </trkpt>
      <trkpt lat="42.48216" lon="2.94656">
        <ele>1243.4000244141</ele>
        <time>2023-07-12T11:38:14.000Z</time>
      </trkpt>
      <trkpt lat="42.48215" lon="2.94656">
        <ele>1243.4000244141</ele>
        <time>2023-07-12T11:38:15.000Z</time>
      </trkpt>
      <trkpt lat="42.48213" lon="2.94659">
        <ele>1244.5999755859</ele>
        <time>2023-07-12T11:38:22.000Z</time>
      </trkpt>
      <trkpt lat="42.48206" lon="2.94662">
        <ele>1245.5999755859</ele>
        <time>2023-07-12T11:38:29.000Z</time>
      </trkpt>
      <trkpt lat="42.48202" lon="2.94667">
        <ele>1246.1999511719</ele>
        <time>2023-07-12T11:38:35.000Z</time>
      </trkpt>
      <trkpt lat="42.48199" lon="2.94669">
        <ele>1246.5999755859</ele>
        <time>2023-07-12T11:38:39.000Z</time>
      </trkpt>
      <trkpt lat="42.48196" lon="2.9467">
        <ele>1246.8000488281</ele>
        <time>2023-07-12T11:38:43.000Z</time>
      </trkpt>
      <trkpt lat="42.48189" lon="2.9467">
        <ele>1246.4000244141</ele>
        <time>2023-07-12T11:38:53.000Z</time>
      </trkpt>
      <trkpt lat="42.48185" lon="2.94669">
        <ele>1245.5999755859</ele>
        <time>2023-07-12T11:38:59.000Z</time>
      </trkpt>
      <trkpt lat="42.48185" lon="2.94668">
        <ele>1245.4000244141</ele>
        <time>2023-07-12T11:39:02.000Z</time>
      </trkpt>
      <trkpt lat="42.48185" lon="2.94669">
        <ele>1245.4000244141</ele>
        <time>2023-07-12T11:39:03.000Z</time>
      </trkpt>
      <trkpt lat="42.48181" lon="2.94672">
        <ele>1245.1999511719</ele>
        <time>2023-07-12T11:39:09.000Z</time>
      </trkpt>
      <trkpt lat="42.48181" lon="2.94673">
        <ele>1245.1999511719</ele>
        <time>2023-07-12T11:39:16.000Z</time>
      </trkpt>
      <trkpt lat="42.48181" lon="2.94672">
        <ele>1245.1999511719</ele>
        <time>2023-07-12T11:39:18.000Z</time>
      </trkpt>
      <trkpt lat="42.48184" lon="2.94671">
        <ele>1245</ele>
        <time>2023-07-12T11:39:28.000Z</time>
      </trkpt>
      <trkpt lat="42.48185" lon="2.94672">
        <ele>1245</ele>
        <time>2023-07-12T11:39:37.000Z</time>
      </trkpt>
      <trkpt lat="42.48177" lon="2.94669">
        <ele>1244.5999755859</ele>
        <time>2023-07-12T11:39:43.000Z</time>
      </trkpt>
      <trkpt lat="42.4817" lon="2.94667">
        <ele>1244.1999511719</ele>
        <time>2023-07-12T11:39:49.000Z</time>
      </trkpt>
      <trkpt lat="42.48169" lon="2.94666">
        <ele>1244</ele>
        <time>2023-07-12T11:39:50.000Z</time>
      </trkpt>
      <trkpt lat="42.48163" lon="2.9466">
        <ele>1243</ele>
        <time>2023-07-12T11:39:57.000Z</time>
      </trkpt>
      <trkpt lat="42.48156" lon="2.94654">
        <ele>1241.8000488281</ele>
        <time>2023-07-12T11:40:03.000Z</time>
      </trkpt>
      <trkpt lat="42.48154" lon="2.94652">
        <ele>1241.8000488281</ele>
        <time>2023-07-12T11:40:05.000Z</time>
      </trkpt>
      <trkpt lat="42.48147" lon="2.94646">
        <ele>1240.8000488281</ele>
        <time>2023-07-12T11:40:12.000Z</time>
      </trkpt>
      <trkpt lat="42.48146" lon="2.94645">
        <ele>1240.5999755859</ele>
        <time>2023-07-12T11:40:13.000Z</time>
      </trkpt>
      <trkpt lat="42.48144" lon="2.94643">
        <ele>1239.8000488281</ele>
        <time>2023-07-12T11:40:17.000Z</time>
      </trkpt>
      <trkpt lat="42.48143" lon="2.94643">
        <ele>1239.4000244141</ele>
        <time>2023-07-12T11:40:19.000Z</time>
      </trkpt>
      <trkpt lat="42.48143" lon="2.94642">
        <ele>1239.1999511719</ele>
        <time>2023-07-12T11:40:25.000Z</time>
      </trkpt>
      <trkpt lat="42.48143" lon="2.94642">
        <ele>1239.1999511719</ele>
        <time>2023-07-12T11:40:26.000Z</time>
      </trkpt>
      <trkpt lat="42.48143" lon="2.94644">
        <ele>1239</ele>
        <time>2023-07-12T11:40:35.000Z</time>
      </trkpt>
      <trkpt lat="42.48139" lon="2.94638">
        <ele>1238.8000488281</ele>
        <time>2023-07-12T11:40:41.000Z</time>
      </trkpt>
      <trkpt lat="42.48138" lon="2.94638">
        <ele>1238.5999755859</ele>
        <time>2023-07-12T11:40:42.000Z</time>
      </trkpt>
      <trkpt lat="42.48138" lon="2.94639">
        <ele>1238</ele>
        <time>2023-07-12T11:40:48.000Z</time>
      </trkpt>
      <trkpt lat="42.48138" lon="2.94638">
        <ele>1237.8000488281</ele>
        <time>2023-07-12T11:40:57.000Z</time>
      </trkpt>
      <trkpt lat="42.48136" lon="2.94635">
        <ele>1237.5999755859</ele>
        <time>2023-07-12T11:41:00.000Z</time>
      </trkpt>
      <trkpt lat="42.4813" lon="2.94629">
        <ele>1236.8000488281</ele>
        <time>2023-07-12T11:41:05.000Z</time>
      </trkpt>
      <trkpt lat="42.48129" lon="2.94629">
        <ele>1236.5999755859</ele>
        <time>2023-07-12T11:41:06.000Z</time>
      </trkpt>
      <trkpt lat="42.48121" lon="2.94625">
        <ele>1235.5999755859</ele>
        <time>2023-07-12T11:41:12.000Z</time>
      </trkpt>
      <trkpt lat="42.4812" lon="2.94625">
        <ele>1235.5999755859</ele>
        <time>2023-07-12T11:41:13.000Z</time>
      </trkpt>
      <trkpt lat="42.48113" lon="2.9462">
        <ele>1234.4000244141</ele>
        <time>2023-07-12T11:41:20.000Z</time>
      </trkpt>
      <trkpt lat="42.48112" lon="2.9462">
        <ele>1234.4000244141</ele>
        <time>2023-07-12T11:41:21.000Z</time>
      </trkpt>
      <trkpt lat="42.48105" lon="2.94617">
        <ele>1233.4000244141</ele>
        <time>2023-07-12T11:41:27.000Z</time>
      </trkpt>
      <trkpt lat="42.48103" lon="2.94615">
        <ele>1233.1999511719</ele>
        <time>2023-07-12T11:41:29.000Z</time>
      </trkpt>
      <trkpt lat="42.48097" lon="2.94612">
        <ele>1232.4000244141</ele>
        <time>2023-07-12T11:41:37.000Z</time>
      </trkpt>
      <trkpt lat="42.4809" lon="2.9461">
        <ele>1232.1999511719</ele>
        <time>2023-07-12T11:41:43.000Z</time>
      </trkpt>
      <trkpt lat="42.48079" lon="2.94602">
        <ele>1231.5999755859</ele>
        <time>2023-07-12T11:41:51.000Z</time>
      </trkpt>
      <trkpt lat="42.48079" lon="2.946">
        <ele>1231.4000244141</ele>
        <time>2023-07-12T11:41:52.000Z</time>
      </trkpt>
      <trkpt lat="42.48073" lon="2.94595">
        <ele>1230.1999511719</ele>
        <time>2023-07-12T11:41:58.000Z</time>
      </trkpt>
      <trkpt lat="42.4807" lon="2.94592">
        <ele>1230</ele>
        <time>2023-07-12T11:42:00.000Z</time>
      </trkpt>
      <trkpt lat="42.48059" lon="2.94584">
        <ele>1229.1999511719</ele>
        <time>2023-07-12T11:42:09.000Z</time>
      </trkpt>
      <trkpt lat="42.48058" lon="2.94583">
        <ele>1229.1999511719</ele>
        <time>2023-07-12T11:42:10.000Z</time>
      </trkpt>
      <trkpt lat="42.48051" lon="2.94579">
        <ele>1228.8000488281</ele>
        <time>2023-07-12T11:42:16.000Z</time>
      </trkpt>
      <trkpt lat="42.48044" lon="2.94568">
        <ele>1228.5999755859</ele>
        <time>2023-07-12T11:42:23.000Z</time>
      </trkpt>
      <trkpt lat="42.48039" lon="2.94557">
        <ele>1228.4000244141</ele>
        <time>2023-07-12T11:42:30.000Z</time>
      </trkpt>
      <trkpt lat="42.48035" lon="2.9455">
        <ele>1228.1999511719</ele>
        <time>2023-07-12T11:42:35.000Z</time>
      </trkpt>
      <trkpt lat="42.48031" lon="2.94542">
        <ele>1228</ele>
        <time>2023-07-12T11:42:41.000Z</time>
      </trkpt>
      <trkpt lat="42.48029" lon="2.94532">
        <ele>1227.8000488281</ele>
        <time>2023-07-12T11:42:48.000Z</time>
      </trkpt>
      <trkpt lat="42.48028" lon="2.94523">
        <ele>1227.1999511719</ele>
        <time>2023-07-12T11:42:55.000Z</time>
      </trkpt>
      <trkpt lat="42.48027" lon="2.9452">
        <ele>1226.8000488281</ele>
        <time>2023-07-12T11:42:57.000Z</time>
      </trkpt>
      <trkpt lat="42.48027" lon="2.94513">
        <ele>1226</ele>
        <time>2023-07-12T11:43:01.000Z</time>
      </trkpt>
      <trkpt lat="42.48026" lon="2.94508">
        <ele>1225.4000244141</ele>
        <time>2023-07-12T11:43:04.000Z</time>
      </trkpt>
      <trkpt lat="42.48023" lon="2.94503">
        <ele>1224.8000488281</ele>
        <time>2023-07-12T11:43:08.000Z</time>
      </trkpt>
      <trkpt lat="42.48018" lon="2.94496">
        <ele>1224.4000244141</ele>
        <time>2023-07-12T11:43:13.000Z</time>
      </trkpt>
      <trkpt lat="42.48016" lon="2.9449">
        <ele>1223.8000488281</ele>
        <time>2023-07-12T11:43:18.000Z</time>
      </trkpt>
      <trkpt lat="42.48015" lon="2.94487">
        <ele>1223.5999755859</ele>
        <time>2023-07-12T11:43:20.000Z</time>
      </trkpt>
      <trkpt lat="42.4801" lon="2.94477">
        <ele>1222.8000488281</ele>
        <time>2023-07-12T11:43:26.000Z</time>
      </trkpt>
      <trkpt lat="42.48009" lon="2.94475">
        <ele>1222.5999755859</ele>
        <time>2023-07-12T11:43:28.000Z</time>
      </trkpt>
      <trkpt lat="42.48005" lon="2.94471">
        <ele>1222</ele>
        <time>2023-07-12T11:43:32.000Z</time>
      </trkpt>
      <trkpt lat="42.48003" lon="2.94467">
        <ele>1221.5999755859</ele>
        <time>2023-07-12T11:43:35.000Z</time>
      </trkpt>
      <trkpt lat="42.47999" lon="2.94461">
        <ele>1221</ele>
        <time>2023-07-12T11:43:41.000Z</time>
      </trkpt>
      <trkpt lat="42.47998" lon="2.94459">
        <ele>1220.5999755859</ele>
        <time>2023-07-12T11:43:43.000Z</time>
      </trkpt>
      <trkpt lat="42.47995" lon="2.94452">
        <ele>1220</ele>
        <time>2023-07-12T11:43:49.000Z</time>
      </trkpt>
      <trkpt lat="42.47993" lon="2.9445">
        <ele>1219.5999755859</ele>
        <time>2023-07-12T11:43:52.000Z</time>
      </trkpt>
      <trkpt lat="42.4799" lon="2.94443">
        <ele>1218.5999755859</ele>
        <time>2023-07-12T11:43:58.000Z</time>
      </trkpt>
      <trkpt lat="42.4799" lon="2.94442">
        <ele>1218.4000244141</ele>
        <time>2023-07-12T11:43:59.000Z</time>
      </trkpt>
      <trkpt lat="42.47989" lon="2.94438">
        <ele>1217.5999755859</ele>
        <time>2023-07-12T11:44:05.000Z</time>
      </trkpt>
      <trkpt lat="42.47987" lon="2.94433">
        <ele>1217.1999511719</ele>
        <time>2023-07-12T11:44:08.000Z</time>
      </trkpt>
      <trkpt lat="42.47985" lon="2.94426">
        <ele>1216.8000488281</ele>
        <time>2023-07-12T11:44:12.000Z</time>
      </trkpt>
      <trkpt lat="42.47984" lon="2.94422">
        <ele>1216.1999511719</ele>
        <time>2023-07-12T11:44:15.000Z</time>
      </trkpt>
      <trkpt lat="42.47982" lon="2.94418">
        <ele>1215.1999511719</ele>
        <time>2023-07-12T11:44:18.000Z</time>
      </trkpt>
      <trkpt lat="42.4798" lon="2.94415">
        <ele>1214.4000244141</ele>
        <time>2023-07-12T11:44:21.000Z</time>
      </trkpt>
      <trkpt lat="42.47977" lon="2.94411">
        <ele>1214.1999511719</ele>
        <time>2023-07-12T11:44:24.000Z</time>
      </trkpt>
      <trkpt lat="42.47972" lon="2.94401">
        <ele>1213.1999511719</ele>
        <time>2023-07-12T11:44:31.000Z</time>
      </trkpt>
      <trkpt lat="42.47971" lon="2.944">
        <ele>1213.1999511719</ele>
        <time>2023-07-12T11:44:32.000Z</time>
      </trkpt>
      <trkpt lat="42.4797" lon="2.94388">
        <ele>1212.4000244141</ele>
        <time>2023-07-12T11:44:38.000Z</time>
      </trkpt>
      <trkpt lat="42.47969" lon="2.94384">
        <ele>1212.1999511719</ele>
        <time>2023-07-12T11:44:40.000Z</time>
      </trkpt>
      <trkpt lat="42.47968" lon="2.94376">
        <ele>1211.4000244141</ele>
        <time>2023-07-12T11:44:46.000Z</time>
      </trkpt>
      <trkpt lat="42.47967" lon="2.94373">
        <ele>1211</ele>
        <time>2023-07-12T11:44:48.000Z</time>
      </trkpt>
      <trkpt lat="42.47968" lon="2.9437">
        <ele>1210.8000488281</ele>
        <time>2023-07-12T11:44:53.000Z</time>
      </trkpt>
      <trkpt lat="42.47968" lon="2.94369">
        <ele>1210.8000488281</ele>
        <time>2023-07-12T11:44:56.000Z</time>
      </trkpt>
      <trkpt lat="42.47966" lon="2.94365">
        <ele>1210.5999755859</ele>
        <time>2023-07-12T11:44:59.000Z</time>
      </trkpt>
      <trkpt lat="42.47964" lon="2.94348">
        <ele>1210.1999511719</ele>
        <time>2023-07-12T11:45:07.000Z</time>
      </trkpt>
      <trkpt lat="42.47963" lon="2.94347">
        <ele>1210</ele>
        <time>2023-07-12T11:45:08.000Z</time>
      </trkpt>
      <trkpt lat="42.47959" lon="2.94337">
        <ele>1209.1999511719</ele>
        <time>2023-07-12T11:45:15.000Z</time>
      </trkpt>
      <trkpt lat="42.47958" lon="2.94335">
        <ele>1209</ele>
        <time>2023-07-12T11:45:17.000Z</time>
      </trkpt>
      <trkpt lat="42.47955" lon="2.94326">
        <ele>1208.1999511719</ele>
        <time>2023-07-12T11:45:23.000Z</time>
      </trkpt>
      <trkpt lat="42.47953" lon="2.94322">
        <ele>1207.8000488281</ele>
        <time>2023-07-12T11:45:25.000Z</time>
      </trkpt>
      <trkpt lat="42.47952" lon="2.94315">
        <ele>1207</ele>
        <time>2023-07-12T11:45:31.000Z</time>
      </trkpt>
      <trkpt lat="42.47952" lon="2.94314">
        <ele>1206.8000488281</ele>
        <time>2023-07-12T11:45:37.000Z</time>
      </trkpt>
      <trkpt lat="42.47952" lon="2.94316">
        <ele>1206.8000488281</ele>
        <time>2023-07-12T11:45:39.000Z</time>
      </trkpt>
      <trkpt lat="42.47952" lon="2.94317">
        <ele>1206.8000488281</ele>
        <time>2023-07-12T11:45:40.000Z</time>
      </trkpt>
      <trkpt lat="42.47951" lon="2.94318">
        <ele>1206.8000488281</ele>
        <time>2023-07-12T11:45:41.000Z</time>
      </trkpt>
      <trkpt lat="42.47951" lon="2.94315">
        <ele>1206.8000488281</ele>
        <time>2023-07-12T11:45:48.000Z</time>
      </trkpt>
      <trkpt lat="42.47951" lon="2.94315">
        <ele>1206.8000488281</ele>
        <time>2023-07-12T11:45:56.000Z</time>
      </trkpt>
      <trkpt lat="42.4795" lon="2.94313">
        <ele>1206.5999755859</ele>
        <time>2023-07-12T11:46:04.000Z</time>
      </trkpt>
      <trkpt lat="42.47949" lon="2.94308">
        <ele>1206</ele>
        <time>2023-07-12T11:46:11.000Z</time>
      </trkpt>
      <trkpt lat="42.47948" lon="2.94304">
        <ele>1205.8000488281</ele>
        <time>2023-07-12T11:46:14.000Z</time>
      </trkpt>
      <trkpt lat="42.47946" lon="2.94297">
        <ele>1205.5999755859</ele>
        <time>2023-07-12T11:46:17.000Z</time>
      </trkpt>
      <trkpt lat="42.47944" lon="2.94292">
        <ele>1205.1999511719</ele>
        <time>2023-07-12T11:46:22.000Z</time>
      </trkpt>
      <trkpt lat="42.47943" lon="2.94289">
        <ele>1204.5999755859</ele>
        <time>2023-07-12T11:46:25.000Z</time>
      </trkpt>
      <trkpt lat="42.47939" lon="2.94281">
        <ele>1203.8000488281</ele>
        <time>2023-07-12T11:46:30.000Z</time>
      </trkpt>
      <trkpt lat="42.47939" lon="2.9428">
        <ele>1203.5999755859</ele>
        <time>2023-07-12T11:46:31.000Z</time>
      </trkpt>
      <trkpt lat="42.47935" lon="2.94273">
        <ele>1202.8000488281</ele>
        <time>2023-07-12T11:46:37.000Z</time>
      </trkpt>
      <trkpt lat="42.47935" lon="2.94272">
        <ele>1202.5999755859</ele>
        <time>2023-07-12T11:46:38.000Z</time>
      </trkpt>
      <trkpt lat="42.47933" lon="2.94265">
        <ele>1201.4000244141</ele>
        <time>2023-07-12T11:46:43.000Z</time>
      </trkpt>
      <trkpt lat="42.47932" lon="2.94262">
        <ele>1201</ele>
        <time>2023-07-12T11:46:45.000Z</time>
      </trkpt>
      <trkpt lat="42.47931" lon="2.94257">
        <ele>1200.4000244141</ele>
        <time>2023-07-12T11:46:49.000Z</time>
      </trkpt>
      <trkpt lat="42.47929" lon="2.94253">
        <ele>1199.5999755859</ele>
        <time>2023-07-12T11:46:53.000Z</time>
      </trkpt>
      <trkpt lat="42.47929" lon="2.9425">
        <ele>1199.1999511719</ele>
        <time>2023-07-12T11:46:55.000Z</time>
      </trkpt>
      <trkpt lat="42.47927" lon="2.94242">
        <ele>1198</ele>
        <time>2023-07-12T11:47:00.000Z</time>
      </trkpt>
      <trkpt lat="42.47926" lon="2.9424">
        <ele>1197.5999755859</ele>
        <time>2023-07-12T11:47:02.000Z</time>
      </trkpt>
      <trkpt lat="42.47924" lon="2.94235">
        <ele>1197</ele>
        <time>2023-07-12T11:47:06.000Z</time>
      </trkpt>
      <trkpt lat="42.47924" lon="2.94231">
        <ele>1196.4000244141</ele>
        <time>2023-07-12T11:47:09.000Z</time>
      </trkpt>
      <trkpt lat="42.47923" lon="2.94225">
        <ele>1195.8000488281</ele>
        <time>2023-07-12T11:47:12.000Z</time>
      </trkpt>
      <trkpt lat="42.47922" lon="2.9422">
        <ele>1195.4000244141</ele>
        <time>2023-07-12T11:47:15.000Z</time>
      </trkpt>
      <trkpt lat="42.4792" lon="2.94213">
        <ele>1194.8000488281</ele>
        <time>2023-07-12T11:47:19.000Z</time>
      </trkpt>
      <trkpt lat="42.47918" lon="2.94204">
        <ele>1193.8000488281</ele>
        <time>2023-07-12T11:47:25.000Z</time>
      </trkpt>
      <trkpt lat="42.47917" lon="2.94202">
        <ele>1193.5999755859</ele>
        <time>2023-07-12T11:47:26.000Z</time>
      </trkpt>
      <trkpt lat="42.47916" lon="2.94196">
        <ele>1192.8000488281</ele>
        <time>2023-07-12T11:47:31.000Z</time>
      </trkpt>
      <trkpt lat="42.47916" lon="2.94195">
        <ele>1192.4000244141</ele>
        <time>2023-07-12T11:47:33.000Z</time>
      </trkpt>
      <trkpt lat="42.47916" lon="2.94189">
        <ele>1192.4000244141</ele>
        <time>2023-07-12T11:47:37.000Z</time>
      </trkpt>
      <trkpt lat="42.4791" lon="2.94179">
        <ele>1191.4000244141</ele>
        <time>2023-07-12T11:47:44.000Z</time>
      </trkpt>
      <trkpt lat="42.47902" lon="2.94171">
        <ele>1191.1999511719</ele>
        <time>2023-07-12T11:47:52.000Z</time>
      </trkpt>
      <trkpt lat="42.47896" lon="2.94162">
        <ele>1190.4000244141</ele>
        <time>2023-07-12T11:47:59.000Z</time>
      </trkpt>
      <trkpt lat="42.47892" lon="2.94153">
        <ele>1189.1999511719</ele>
        <time>2023-07-12T11:48:05.000Z</time>
      </trkpt>
      <trkpt lat="42.4789" lon="2.94147">
        <ele>1188.5999755859</ele>
        <time>2023-07-12T11:48:09.000Z</time>
      </trkpt>
      <trkpt lat="42.47888" lon="2.94142">
        <ele>1188.1999511719</ele>
        <time>2023-07-12T11:48:13.000Z</time>
      </trkpt>
      <trkpt lat="42.47886" lon="2.94137">
        <ele>1187.4000244141</ele>
        <time>2023-07-12T11:48:17.000Z</time>
      </trkpt>
      <trkpt lat="42.47884" lon="2.94134">
        <ele>1187</ele>
        <time>2023-07-12T11:48:20.000Z</time>
      </trkpt>
      <trkpt lat="42.4788" lon="2.94129">
        <ele>1186</ele>
        <time>2023-07-12T11:48:25.000Z</time>
      </trkpt>
      <trkpt lat="42.47879" lon="2.94128">
        <ele>1185.8000488281</ele>
        <time>2023-07-12T11:48:26.000Z</time>
      </trkpt>
      <trkpt lat="42.47876" lon="2.94122">
        <ele>1184.8000488281</ele>
        <time>2023-07-12T11:48:32.000Z</time>
      </trkpt>
      <trkpt lat="42.47876" lon="2.94121">
        <ele>1184.5999755859</ele>
        <time>2023-07-12T11:48:33.000Z</time>
      </trkpt>
      <trkpt lat="42.47874" lon="2.94113">
        <ele>1183.4000244141</ele>
        <time>2023-07-12T11:48:38.000Z</time>
      </trkpt>
      <trkpt lat="42.47874" lon="2.94107">
        <ele>1182.5999755859</ele>
        <time>2023-07-12T11:48:42.000Z</time>
      </trkpt>
      <trkpt lat="42.47874" lon="2.94107">
        <ele>1182.4000244141</ele>
        <time>2023-07-12T11:48:43.000Z</time>
      </trkpt>
      <trkpt lat="42.47874" lon="2.94103">
        <ele>1181.4000244141</ele>
        <time>2023-07-12T11:48:47.000Z</time>
      </trkpt>
      <trkpt lat="42.47874" lon="2.94099">
        <ele>1180.8000488281</ele>
        <time>2023-07-12T11:48:50.000Z</time>
      </trkpt>
      <trkpt lat="42.47873" lon="2.94097">
        <ele>1180.1999511719</ele>
        <time>2023-07-12T11:48:52.000Z</time>
      </trkpt>
      <trkpt lat="42.47871" lon="2.94093">
        <ele>1179.1999511719</ele>
        <time>2023-07-12T11:48:56.000Z</time>
      </trkpt>
      <trkpt lat="42.47871" lon="2.94092">
        <ele>1178.5999755859</ele>
        <time>2023-07-12T11:48:58.000Z</time>
      </trkpt>
      <trkpt lat="42.4787" lon="2.9409">
        <ele>1178</ele>
        <time>2023-07-12T11:49:00.000Z</time>
      </trkpt>
      <trkpt lat="42.47867" lon="2.94086">
        <ele>1177.1999511719</ele>
        <time>2023-07-12T11:49:04.000Z</time>
      </trkpt>
      <trkpt lat="42.47866" lon="2.94085">
        <ele>1177</ele>
        <time>2023-07-12T11:49:05.000Z</time>
      </trkpt>
      <trkpt lat="42.47862" lon="2.9408">
        <ele>1175.8000488281</ele>
        <time>2023-07-12T11:49:11.000Z</time>
      </trkpt>
      <trkpt lat="42.4786" lon="2.94078">
        <ele>1175.1999511719</ele>
        <time>2023-07-12T11:49:13.000Z</time>
      </trkpt>
      <trkpt lat="42.47857" lon="2.94078">
        <ele>1174.5999755859</ele>
        <time>2023-07-12T11:49:16.000Z</time>
      </trkpt>
      <trkpt lat="42.47852" lon="2.94074">
        <ele>1174</ele>
        <time>2023-07-12T11:49:20.000Z</time>
      </trkpt>
      <trkpt lat="42.47849" lon="2.94071">
        <ele>1173.5999755859</ele>
        <time>2023-07-12T11:49:23.000Z</time>
      </trkpt>
      <trkpt lat="42.47845" lon="2.94065">
        <ele>1172.4000244141</ele>
        <time>2023-07-12T11:49:29.000Z</time>
      </trkpt>
      <trkpt lat="42.47841" lon="2.94056">
        <ele>1171.4000244141</ele>
        <time>2023-07-12T11:49:35.000Z</time>
      </trkpt>
      <trkpt lat="42.4784" lon="2.94054">
        <ele>1171.1999511719</ele>
        <time>2023-07-12T11:49:36.000Z</time>
      </trkpt>
      <trkpt lat="42.47837" lon="2.94042">
        <ele>1170.4000244141</ele>
        <time>2023-07-12T11:49:43.000Z</time>
      </trkpt>
      <trkpt lat="42.47837" lon="2.94041">
        <ele>1170.1999511719</ele>
        <time>2023-07-12T11:49:44.000Z</time>
      </trkpt>
      <trkpt lat="42.4783" lon="2.94029">
        <ele>1169.8000488281</ele>
        <time>2023-07-12T11:49:54.000Z</time>
      </trkpt>
      <trkpt lat="42.47828" lon="2.94025">
        <ele>1169.4000244141</ele>
        <time>2023-07-12T11:49:57.000Z</time>
      </trkpt>
      <trkpt lat="42.47824" lon="2.94019">
        <ele>1168.1999511719</ele>
        <time>2023-07-12T11:50:03.000Z</time>
      </trkpt>
      <trkpt lat="42.47823" lon="2.94016">
        <ele>1168</ele>
        <time>2023-07-12T11:50:05.000Z</time>
      </trkpt>
      <trkpt lat="42.47818" lon="2.94008">
        <ele>1167</ele>
        <time>2023-07-12T11:50:11.000Z</time>
      </trkpt>
      <trkpt lat="42.47817" lon="2.94006">
        <ele>1166.5999755859</ele>
        <time>2023-07-12T11:50:13.000Z</time>
      </trkpt>
      <trkpt lat="42.47812" lon="2.93999">
        <ele>1165.8000488281</ele>
        <time>2023-07-12T11:50:18.000Z</time>
      </trkpt>
      <trkpt lat="42.47811" lon="2.93995">
        <ele>1165.4000244141</ele>
        <time>2023-07-12T11:50:20.000Z</time>
      </trkpt>
      <trkpt lat="42.47809" lon="2.93986">
        <ele>1164.5999755859</ele>
        <time>2023-07-12T11:50:26.000Z</time>
      </trkpt>
      <trkpt lat="42.47809" lon="2.93984">
        <ele>1164.4000244141</ele>
        <time>2023-07-12T11:50:27.000Z</time>
      </trkpt>
      <trkpt lat="42.47805" lon="2.93979">
        <ele>1163.5999755859</ele>
        <time>2023-07-12T11:50:32.000Z</time>
      </trkpt>
      <trkpt lat="42.47803" lon="2.93975">
        <ele>1163</ele>
        <time>2023-07-12T11:50:35.000Z</time>
      </trkpt>
      <trkpt lat="42.47801" lon="2.9397">
        <ele>1162.4000244141</ele>
        <time>2023-07-12T11:50:38.000Z</time>
      </trkpt>
      <trkpt lat="42.478" lon="2.93966">
        <ele>1161.8000488281</ele>
        <time>2023-07-12T11:50:41.000Z</time>
      </trkpt>
      <trkpt lat="42.478" lon="2.93963">
        <ele>1161.1999511719</ele>
        <time>2023-07-12T11:50:43.000Z</time>
      </trkpt>
      <trkpt lat="42.478" lon="2.9396">
        <ele>1160.1999511719</ele>
        <time>2023-07-12T11:50:47.000Z</time>
      </trkpt>
      <trkpt lat="42.478" lon="2.93958">
        <ele>1159.8000488281</ele>
        <time>2023-07-12T11:50:49.000Z</time>
      </trkpt>
      <trkpt lat="42.47797" lon="2.93948">
        <ele>1159</ele>
        <time>2023-07-12T11:50:54.000Z</time>
      </trkpt>
      <trkpt lat="42.47796" lon="2.93944">
        <ele>1158.4000244141</ele>
        <time>2023-07-12T11:50:57.000Z</time>
      </trkpt>
      <trkpt lat="42.47794" lon="2.93941">
        <ele>1158</ele>
        <time>2023-07-12T11:50:59.000Z</time>
      </trkpt>
      <trkpt lat="42.47792" lon="2.93934">
        <ele>1156.8000488281</ele>
        <time>2023-07-12T11:51:04.000Z</time>
      </trkpt>
      <trkpt lat="42.4779" lon="2.93929">
        <ele>1156</ele>
        <time>2023-07-12T11:51:07.000Z</time>
      </trkpt>
      <trkpt lat="42.4779" lon="2.93926">
        <ele>1155.5999755859</ele>
        <time>2023-07-12T11:51:09.000Z</time>
      </trkpt>
      <trkpt lat="42.47787" lon="2.9392">
        <ele>1154.5999755859</ele>
        <time>2023-07-12T11:51:13.000Z</time>
      </trkpt>
      <trkpt lat="42.47786" lon="2.93918">
        <ele>1154.4000244141</ele>
        <time>2023-07-12T11:51:14.000Z</time>
      </trkpt>
      <trkpt lat="42.47782" lon="2.93912">
        <ele>1153.4000244141</ele>
        <time>2023-07-12T11:51:19.000Z</time>
      </trkpt>
      <trkpt lat="42.47782" lon="2.9391">
        <ele>1153.1999511719</ele>
        <time>2023-07-12T11:51:20.000Z</time>
      </trkpt>
      <trkpt lat="42.4778" lon="2.93905">
        <ele>1152.1999511719</ele>
        <time>2023-07-12T11:51:24.000Z</time>
      </trkpt>
      <trkpt lat="42.47776" lon="2.93896">
        <ele>1151.1999511719</ele>
        <time>2023-07-12T11:51:29.000Z</time>
      </trkpt>
      <trkpt lat="42.47776" lon="2.93894">
        <ele>1151</ele>
        <time>2023-07-12T11:51:30.000Z</time>
      </trkpt>
      <trkpt lat="42.47773" lon="2.93888">
        <ele>1149.8000488281</ele>
        <time>2023-07-12T11:51:35.000Z</time>
      </trkpt>
      <trkpt lat="42.47772" lon="2.93885">
        <ele>1149.4000244141</ele>
        <time>2023-07-12T11:51:37.000Z</time>
      </trkpt>
      <trkpt lat="42.47769" lon="2.93878">
        <ele>1148.8000488281</ele>
        <time>2023-07-12T11:51:42.000Z</time>
      </trkpt>
      <trkpt lat="42.47767" lon="2.93874">
        <ele>1148.1999511719</ele>
        <time>2023-07-12T11:51:45.000Z</time>
      </trkpt>
      <trkpt lat="42.47766" lon="2.9387">
        <ele>1147.5999755859</ele>
        <time>2023-07-12T11:51:48.000Z</time>
      </trkpt>
      <trkpt lat="42.47763" lon="2.9386">
        <ele>1146.5999755859</ele>
        <time>2023-07-12T11:51:54.000Z</time>
      </trkpt>
      <trkpt lat="42.47758" lon="2.93852">
        <ele>1145.4000244141</ele>
        <time>2023-07-12T11:52:00.000Z</time>
      </trkpt>
      <trkpt lat="42.47758" lon="2.93851">
        <ele>1145.4000244141</ele>
        <time>2023-07-12T11:52:01.000Z</time>
      </trkpt>
      <trkpt lat="42.47755" lon="2.93847">
        <ele>1144.4000244141</ele>
        <time>2023-07-12T11:52:05.000Z</time>
      </trkpt>
      <trkpt lat="42.47753" lon="2.93844">
        <ele>1143.8000488281</ele>
        <time>2023-07-12T11:52:07.000Z</time>
      </trkpt>
      <trkpt lat="42.47749" lon="2.93836">
        <ele>1143.1999511719</ele>
        <time>2023-07-12T11:52:13.000Z</time>
      </trkpt>
      <trkpt lat="42.47747" lon="2.93832">
        <ele>1142.5999755859</ele>
        <time>2023-07-12T11:52:16.000Z</time>
      </trkpt>
      <trkpt lat="42.47746" lon="2.93828">
        <ele>1142.1999511719</ele>
        <time>2023-07-12T11:52:18.000Z</time>
      </trkpt>
      <trkpt lat="42.47744" lon="2.93823">
        <ele>1141.1999511719</ele>
        <time>2023-07-12T11:52:23.000Z</time>
      </trkpt>
      <trkpt lat="42.47743" lon="2.93822">
        <ele>1141</ele>
        <time>2023-07-12T11:52:24.000Z</time>
      </trkpt>
      <trkpt lat="42.47739" lon="2.93816">
        <ele>1140</ele>
        <time>2023-07-12T11:52:29.000Z</time>
      </trkpt>
      <trkpt lat="42.47735" lon="2.93812">
        <ele>1139.4000244141</ele>
        <time>2023-07-12T11:52:33.000Z</time>
      </trkpt>
      <trkpt lat="42.47734" lon="2.93811">
        <ele>1139</ele>
        <time>2023-07-12T11:52:34.000Z</time>
      </trkpt>
      <trkpt lat="42.47729" lon="2.93806">
        <ele>1138</ele>
        <time>2023-07-12T11:52:39.000Z</time>
      </trkpt>
      <trkpt lat="42.47728" lon="2.93804">
        <ele>1137.5999755859</ele>
        <time>2023-07-12T11:52:41.000Z</time>
      </trkpt>
      <trkpt lat="42.47726" lon="2.93801">
        <ele>1136.8000488281</ele>
        <time>2023-07-12T11:52:44.000Z</time>
      </trkpt>
      <trkpt lat="42.47723" lon="2.93796">
        <ele>1135.4000244141</ele>
        <time>2023-07-12T11:52:49.000Z</time>
      </trkpt>
      <trkpt lat="42.47718" lon="2.93792">
        <ele>1134.4000244141</ele>
        <time>2023-07-12T11:52:53.000Z</time>
      </trkpt>
      <trkpt lat="42.47715" lon="2.9379">
        <ele>1133.4000244141</ele>
        <time>2023-07-12T11:52:56.000Z</time>
      </trkpt>
      <trkpt lat="42.47714" lon="2.9379">
        <ele>1133.1999511719</ele>
        <time>2023-07-12T11:52:57.000Z</time>
      </trkpt>
      <trkpt lat="42.47708" lon="2.93787">
        <ele>1132</ele>
        <time>2023-07-12T11:53:03.000Z</time>
      </trkpt>
      <trkpt lat="42.47707" lon="2.93786">
        <ele>1131.8000488281</ele>
        <time>2023-07-12T11:53:04.000Z</time>
      </trkpt>
      <trkpt lat="42.47703" lon="2.93782">
        <ele>1131</ele>
        <time>2023-07-12T11:53:08.000Z</time>
      </trkpt>
      <trkpt lat="42.47699" lon="2.93777">
        <ele>1130.1999511719</ele>
        <time>2023-07-12T11:53:12.000Z</time>
      </trkpt>
      <trkpt lat="42.47696" lon="2.93775">
        <ele>1130</ele>
        <time>2023-07-12T11:53:14.000Z</time>
      </trkpt>
      <trkpt lat="42.47689" lon="2.9377">
        <ele>1128.8000488281</ele>
        <time>2023-07-12T11:53:19.000Z</time>
      </trkpt>
      <trkpt lat="42.47688" lon="2.9377">
        <ele>1128.5999755859</ele>
        <time>2023-07-12T11:53:20.000Z</time>
      </trkpt>
      <trkpt lat="42.47682" lon="2.93764">
        <ele>1127.8000488281</ele>
        <time>2023-07-12T11:53:26.000Z</time>
      </trkpt>
      <trkpt lat="42.4768" lon="2.93763">
        <ele>1127.8000488281</ele>
        <time>2023-07-12T11:53:28.000Z</time>
      </trkpt>
      <trkpt lat="42.47674" lon="2.93758">
        <ele>1126.8000488281</ele>
        <time>2023-07-12T11:53:35.000Z</time>
      </trkpt>
      <trkpt lat="42.47672" lon="2.93757">
        <ele>1126.4000244141</ele>
        <time>2023-07-12T11:53:37.000Z</time>
      </trkpt>
      <trkpt lat="42.47666" lon="2.93753">
        <ele>1125.5999755859</ele>
        <time>2023-07-12T11:53:42.000Z</time>
      </trkpt>
      <trkpt lat="42.47662" lon="2.93751">
        <ele>1125</ele>
        <time>2023-07-12T11:53:45.000Z</time>
      </trkpt>
      <trkpt lat="42.47658" lon="2.93747">
        <ele>1124.5999755859</ele>
        <time>2023-07-12T11:53:49.000Z</time>
      </trkpt>
      <trkpt lat="42.47655" lon="2.93744">
        <ele>1123.8000488281</ele>
        <time>2023-07-12T11:53:53.000Z</time>
      </trkpt>
      <trkpt lat="42.47651" lon="2.93742">
        <ele>1123.4000244141</ele>
        <time>2023-07-12T11:53:56.000Z</time>
      </trkpt>
      <trkpt lat="42.47645" lon="2.93736">
        <ele>1122.4000244141</ele>
        <time>2023-07-12T11:54:02.000Z</time>
      </trkpt>
      <trkpt lat="42.47639" lon="2.9373">
        <ele>1121.4000244141</ele>
        <time>2023-07-12T11:54:08.000Z</time>
      </trkpt>
      <trkpt lat="42.47637" lon="2.93729">
        <ele>1121</ele>
        <time>2023-07-12T11:54:10.000Z</time>
      </trkpt>
      <trkpt lat="42.47631" lon="2.93726">
        <ele>1120.4000244141</ele>
        <time>2023-07-12T11:54:15.000Z</time>
      </trkpt>
      <trkpt lat="42.4763" lon="2.93726">
        <ele>1120.1999511719</ele>
        <time>2023-07-12T11:54:16.000Z</time>
      </trkpt>
      <trkpt lat="42.47624" lon="2.93724">
        <ele>1119.1999511719</ele>
        <time>2023-07-12T11:54:23.000Z</time>
      </trkpt>
      <trkpt lat="42.47623" lon="2.93724">
        <ele>1119</ele>
        <time>2023-07-12T11:54:24.000Z</time>
      </trkpt>
      <trkpt lat="42.47618" lon="2.93723">
        <ele>1118</ele>
        <time>2023-07-12T11:54:30.000Z</time>
      </trkpt>
      <trkpt lat="42.47614" lon="2.93722">
        <ele>1117.4000244141</ele>
        <time>2023-07-12T11:54:33.000Z</time>
      </trkpt>
      <trkpt lat="42.4761" lon="2.9372">
        <ele>1116.8000488281</ele>
        <time>2023-07-12T11:54:36.000Z</time>
      </trkpt>
      <trkpt lat="42.47606" lon="2.93715">
        <ele>1115.5999755859</ele>
        <time>2023-07-12T11:54:41.000Z</time>
      </trkpt>
      <trkpt lat="42.476" lon="2.9371">
        <ele>1114.5999755859</ele>
        <time>2023-07-12T11:54:46.000Z</time>
      </trkpt>
      <trkpt lat="42.47599" lon="2.93709">
        <ele>1114.1999511719</ele>
        <time>2023-07-12T11:54:48.000Z</time>
      </trkpt>
      <trkpt lat="42.47595" lon="2.93706">
        <ele>1113.5999755859</ele>
        <time>2023-07-12T11:54:51.000Z</time>
      </trkpt>
      <trkpt lat="42.47592" lon="2.93702">
        <ele>1112.8000488281</ele>
        <time>2023-07-12T11:54:55.000Z</time>
      </trkpt>
      <trkpt lat="42.47591" lon="2.937">
        <ele>1112.4000244141</ele>
        <time>2023-07-12T11:54:57.000Z</time>
      </trkpt>
      <trkpt lat="42.47587" lon="2.93696">
        <ele>1111.5999755859</ele>
        <time>2023-07-12T11:55:02.000Z</time>
      </trkpt>
      <trkpt lat="42.47586" lon="2.93695">
        <ele>1111.4000244141</ele>
        <time>2023-07-12T11:55:03.000Z</time>
      </trkpt>
      <trkpt lat="42.47578" lon="2.93683">
        <ele>1111</ele>
        <time>2023-07-12T11:55:11.000Z</time>
      </trkpt>
      <trkpt lat="42.47571" lon="2.9367">
        <ele>1111</ele>
        <time>2023-07-12T11:55:19.000Z</time>
      </trkpt>
      <trkpt lat="42.47565" lon="2.93661">
        <ele>1111.5999755859</ele>
        <time>2023-07-12T11:55:27.000Z</time>
      </trkpt>
      <trkpt lat="42.47557" lon="2.93652">
        <ele>1111.5999755859</ele>
        <time>2023-07-12T11:55:35.000Z</time>
      </trkpt>
      <trkpt lat="42.4755" lon="2.93647">
        <ele>1112</ele>
        <time>2023-07-12T11:55:42.000Z</time>
      </trkpt>
      <trkpt lat="42.47542" lon="2.93638">
        <ele>1111.8000488281</ele>
        <time>2023-07-12T11:55:50.000Z</time>
      </trkpt>
      <trkpt lat="42.47538" lon="2.93626">
        <ele>1110.8000488281</ele>
        <time>2023-07-12T11:55:58.000Z</time>
      </trkpt>
      <trkpt lat="42.47536" lon="2.93622">
        <ele>1110.4000244141</ele>
        <time>2023-07-12T11:56:01.000Z</time>
      </trkpt>
      <trkpt lat="42.47533" lon="2.93613">
        <ele>1109.5999755859</ele>
        <time>2023-07-12T11:56:08.000Z</time>
      </trkpt>
      <trkpt lat="42.47526" lon="2.93603">
        <ele>1109.4000244141</ele>
        <time>2023-07-12T11:56:15.000Z</time>
      </trkpt>
      <trkpt lat="42.4752" lon="2.93593">
        <ele>1109.4000244141</ele>
        <time>2023-07-12T11:56:23.000Z</time>
      </trkpt>
      <trkpt lat="42.47517" lon="2.93586">
        <ele>1109.1999511719</ele>
        <time>2023-07-12T11:56:27.000Z</time>
      </trkpt>
      <trkpt lat="42.47515" lon="2.93579">
        <ele>1109.1999511719</ele>
        <time>2023-07-12T11:56:33.000Z</time>
      </trkpt>
      <trkpt lat="42.47509" lon="2.93567">
        <ele>1108.1999511719</ele>
        <time>2023-07-12T11:56:41.000Z</time>
      </trkpt>
      <trkpt lat="42.47508" lon="2.93565">
        <ele>1108.1999511719</ele>
        <time>2023-07-12T11:56:42.000Z</time>
      </trkpt>
      <trkpt lat="42.47504" lon="2.93553">
        <ele>1107.4000244141</ele>
        <time>2023-07-12T11:56:49.000Z</time>
      </trkpt>
      <trkpt lat="42.47503" lon="2.9355">
        <ele>1107</ele>
        <time>2023-07-12T11:56:52.000Z</time>
      </trkpt>
      <trkpt lat="42.475" lon="2.93543">
        <ele>1106.5999755859</ele>
        <time>2023-07-12T11:56:56.000Z</time>
      </trkpt>
      <trkpt lat="42.47499" lon="2.93538">
        <ele>1106</ele>
        <time>2023-07-12T11:57:02.000Z</time>
      </trkpt>
      <trkpt lat="42.47499" lon="2.93538">
        <ele>1106</ele>
        <time>2023-07-12T11:57:03.000Z</time>
      </trkpt>
      <trkpt lat="42.47499" lon="2.93539">
        <ele>1106.1999511719</ele>
        <time>2023-07-12T11:57:14.000Z</time>
      </trkpt>
      <trkpt lat="42.47503" lon="2.93543">
        <ele>1106.1999511719</ele>
        <time>2023-07-12T11:57:24.000Z</time>
      </trkpt>
      <trkpt lat="42.47499" lon="2.93534">
        <ele>1106.1999511719</ele>
        <time>2023-07-12T11:57:32.000Z</time>
      </trkpt>
      <trkpt lat="42.47495" lon="2.93519">
        <ele>1106.4000244141</ele>
        <time>2023-07-12T11:57:39.000Z</time>
      </trkpt>
      <trkpt lat="42.47491" lon="2.93505">
        <ele>1106.1999511719</ele>
        <time>2023-07-12T11:57:45.000Z</time>
      </trkpt>
      <trkpt lat="42.4749" lon="2.93502">
        <ele>1106</ele>
        <time>2023-07-12T11:57:49.000Z</time>
      </trkpt>
      <trkpt lat="42.47489" lon="2.935">
        <ele>1106</ele>
        <time>2023-07-12T11:57:52.000Z</time>
      </trkpt>
      <trkpt lat="42.47487" lon="2.93489">
        <ele>1106</ele>
        <time>2023-07-12T11:57:58.000Z</time>
      </trkpt>
      <trkpt lat="42.47485" lon="2.93478">
        <ele>1105.4000244141</ele>
        <time>2023-07-12T11:58:05.000Z</time>
      </trkpt>
      <trkpt lat="42.47481" lon="2.93463">
        <ele>1105</ele>
        <time>2023-07-12T11:58:13.000Z</time>
      </trkpt>
      <trkpt lat="42.47481" lon="2.9346">
        <ele>1104.8000488281</ele>
        <time>2023-07-12T11:58:14.000Z</time>
      </trkpt>
      <trkpt lat="42.47483" lon="2.93445">
        <ele>1103.8000488281</ele>
        <time>2023-07-12T11:58:22.000Z</time>
      </trkpt>
      <trkpt lat="42.47484" lon="2.93443">
        <ele>1103.5999755859</ele>
        <time>2023-07-12T11:58:23.000Z</time>
      </trkpt>
      <trkpt lat="42.47487" lon="2.93434">
        <ele>1102.5999755859</ele>
        <time>2023-07-12T11:58:29.000Z</time>
      </trkpt>
      <trkpt lat="42.47487" lon="2.93432">
        <ele>1102.4000244141</ele>
        <time>2023-07-12T11:58:30.000Z</time>
      </trkpt>
      <trkpt lat="42.4749" lon="2.93421">
        <ele>1101.4000244141</ele>
        <time>2023-07-12T11:58:36.000Z</time>
      </trkpt>
      <trkpt lat="42.47491" lon="2.93418">
        <ele>1101.4000244141</ele>
        <time>2023-07-12T11:58:38.000Z</time>
      </trkpt>
      <trkpt lat="42.47495" lon="2.9341">
        <ele>1100.4000244141</ele>
        <time>2023-07-12T11:58:44.000Z</time>
      </trkpt>
      <trkpt lat="42.47497" lon="2.93406">
        <ele>1100</ele>
        <time>2023-07-12T11:58:46.000Z</time>
      </trkpt>
      <trkpt lat="42.47501" lon="2.93398">
        <ele>1099.4000244141</ele>
        <time>2023-07-12T11:58:51.000Z</time>
      </trkpt>
      <trkpt lat="42.47503" lon="2.93391">
        <ele>1098.5999755859</ele>
        <time>2023-07-12T11:58:54.000Z</time>
      </trkpt>
      <trkpt lat="42.47503" lon="2.93386">
        <ele>1098.1999511719</ele>
        <time>2023-07-12T11:58:57.000Z</time>
      </trkpt>
      <trkpt lat="42.47505" lon="2.9338">
        <ele>1097.4000244141</ele>
        <time>2023-07-12T11:59:02.000Z</time>
      </trkpt>
      <trkpt lat="42.47506" lon="2.9338">
        <ele>1097.1999511719</ele>
        <time>2023-07-12T11:59:03.000Z</time>
      </trkpt>
      <trkpt lat="42.47511" lon="2.93372">
        <ele>1096.8000488281</ele>
        <time>2023-07-12T11:59:10.000Z</time>
      </trkpt>
      <trkpt lat="42.47512" lon="2.9337">
        <ele>1096.1999511719</ele>
        <time>2023-07-12T11:59:17.000Z</time>
      </trkpt>
      <trkpt lat="42.47512" lon="2.93369">
        <ele>1096.1999511719</ele>
        <time>2023-07-12T11:59:19.000Z</time>
      </trkpt>
      <trkpt lat="42.47513" lon="2.93361">
        <ele>1096.1999511719</ele>
        <time>2023-07-12T11:59:31.000Z</time>
      </trkpt>
      <trkpt lat="42.47511" lon="2.93364">
        <ele>1096</ele>
        <time>2023-07-12T11:59:37.000Z</time>
      </trkpt>
      <trkpt lat="42.47514" lon="2.93364">
        <ele>1096</ele>
        <time>2023-07-12T11:59:45.000Z</time>
      </trkpt>
      <trkpt lat="42.47521" lon="2.9336">
        <ele>1095.4000244141</ele>
        <time>2023-07-12T11:59:58.000Z</time>
      </trkpt>
      <trkpt lat="42.47523" lon="2.93358">
        <ele>1095</ele>
        <time>2023-07-12T12:00:01.000Z</time>
      </trkpt>
      <trkpt lat="42.47528" lon="2.93354">
        <ele>1094</ele>
        <time>2023-07-12T12:00:07.000Z</time>
      </trkpt>
      <trkpt lat="42.47534" lon="2.93347">
        <ele>1093</ele>
        <time>2023-07-12T12:00:14.000Z</time>
      </trkpt>
      <trkpt lat="42.47536" lon="2.93344">
        <ele>1092.5999755859</ele>
        <time>2023-07-12T12:00:16.000Z</time>
      </trkpt>
      <trkpt lat="42.47536" lon="2.93337">
        <ele>1091.8000488281</ele>
        <time>2023-07-12T12:00:23.000Z</time>
      </trkpt>
      <trkpt lat="42.47535" lon="2.93336">
        <ele>1091.8000488281</ele>
        <time>2023-07-12T12:00:25.000Z</time>
      </trkpt>
      <trkpt lat="42.47535" lon="2.93327">
        <ele>1091.5999755859</ele>
        <time>2023-07-12T12:00:33.000Z</time>
      </trkpt>
      <trkpt lat="42.47537" lon="2.93321">
        <ele>1091.5999755859</ele>
        <time>2023-07-12T12:00:40.000Z</time>
      </trkpt>
      <trkpt lat="42.4754" lon="2.93318">
        <ele>1091.4000244141</ele>
        <time>2023-07-12T12:00:55.000Z</time>
      </trkpt>
      <trkpt lat="42.4754" lon="2.93319">
        <ele>1091.4000244141</ele>
        <time>2023-07-12T12:00:59.000Z</time>
      </trkpt>
      <trkpt lat="42.47538" lon="2.93329">
        <ele>1091.5999755859</ele>
        <time>2023-07-12T12:01:04.000Z</time>
      </trkpt>
      <trkpt lat="42.47537" lon="2.93338">
        <ele>1091.5999755859</ele>
        <time>2023-07-12T12:01:11.000Z</time>
      </trkpt>
      <trkpt lat="42.47534" lon="2.93348">
        <ele>1091.5999755859</ele>
        <time>2023-07-12T12:01:18.000Z</time>
      </trkpt>
      <trkpt lat="42.47532" lon="2.93362">
        <ele>1092</ele>
        <time>2023-07-12T12:01:25.000Z</time>
      </trkpt>
      <trkpt lat="42.4753" lon="2.93372">
        <ele>1092</ele>
        <time>2023-07-12T12:01:32.000Z</time>
      </trkpt>
      <trkpt lat="42.47524" lon="2.93385">
        <ele>1092.4000244141</ele>
        <time>2023-07-12T12:01:40.000Z</time>
      </trkpt>
      <trkpt lat="42.47522" lon="2.93389">
        <ele>1092.8000488281</ele>
        <time>2023-07-12T12:01:44.000Z</time>
      </trkpt>
      <trkpt lat="42.47518" lon="2.93388">
        <ele>1094</ele>
        <time>2023-07-12T12:01:49.000Z</time>
      </trkpt>
      <trkpt lat="42.47518" lon="2.93387">
        <ele>1094.1999511719</ele>
        <time>2023-07-12T12:01:50.000Z</time>
      </trkpt>
      <trkpt lat="42.47515" lon="2.93378">
        <ele>1094.8000488281</ele>
        <time>2023-07-12T12:01:57.000Z</time>
      </trkpt>
      <trkpt lat="42.47514" lon="2.93375">
        <ele>1095</ele>
        <time>2023-07-12T12:01:59.000Z</time>
      </trkpt>
      <trkpt lat="42.4751" lon="2.93368">
        <ele>1095.8000488281</ele>
        <time>2023-07-12T12:02:04.000Z</time>
      </trkpt>
      <trkpt lat="42.47509" lon="2.93364">
        <ele>1096.1999511719</ele>
        <time>2023-07-12T12:02:06.000Z</time>
      </trkpt>
      <trkpt lat="42.47508" lon="2.9336">
        <ele>1096.4000244141</ele>
        <time>2023-07-12T12:02:09.000Z</time>
      </trkpt>
      <trkpt lat="42.47507" lon="2.93354">
        <ele>1097.1999511719</ele>
        <time>2023-07-12T12:02:16.000Z</time>
      </trkpt>
      <trkpt lat="42.47507" lon="2.93341">
        <ele>1098</ele>
        <time>2023-07-12T12:02:23.000Z</time>
      </trkpt>
      <trkpt lat="42.47508" lon="2.9334">
        <ele>1098.4000244141</ele>
        <time>2023-07-12T12:02:26.000Z</time>
      </trkpt>
      <trkpt lat="42.47509" lon="2.93334">
        <ele>1098.5999755859</ele>
        <time>2023-07-12T12:02:30.000Z</time>
      </trkpt>
      <trkpt lat="42.47506" lon="2.93337">
        <ele>1098.5999755859</ele>
        <time>2023-07-12T12:02:38.000Z</time>
      </trkpt>
      <trkpt lat="42.47498" lon="2.93341">
        <ele>1098.5999755859</ele>
        <time>2023-07-12T12:02:43.000Z</time>
      </trkpt>
      <trkpt lat="42.47498" lon="2.9333">
        <ele>1099.4000244141</ele>
        <time>2023-07-12T12:02:49.000Z</time>
      </trkpt>
      <trkpt lat="42.475" lon="2.93322">
        <ele>1100.4000244141</ele>
        <time>2023-07-12T12:02:56.000Z</time>
      </trkpt>
      <trkpt lat="42.47496" lon="2.93314">
        <ele>1101.4000244141</ele>
        <time>2023-07-12T12:03:03.000Z</time>
      </trkpt>
      <trkpt lat="42.47495" lon="2.93313">
        <ele>1101.5999755859</ele>
        <time>2023-07-12T12:03:04.000Z</time>
      </trkpt>
      <trkpt lat="42.47492" lon="2.93304">
        <ele>1102.5999755859</ele>
        <time>2023-07-12T12:03:10.000Z</time>
      </trkpt>
      <trkpt lat="42.47492" lon="2.93302">
        <ele>1102.8000488281</ele>
        <time>2023-07-12T12:03:11.000Z</time>
      </trkpt>
      <trkpt lat="42.47492" lon="2.93293">
        <ele>1103.8000488281</ele>
        <time>2023-07-12T12:03:18.000Z</time>
      </trkpt>
      <trkpt lat="42.47492" lon="2.93291">
        <ele>1104</ele>
        <time>2023-07-12T12:03:19.000Z</time>
      </trkpt>
      <trkpt lat="42.4749" lon="2.93284">
        <ele>1105</ele>
        <time>2023-07-12T12:03:25.000Z</time>
      </trkpt>
      <trkpt lat="42.47489" lon="2.93282">
        <ele>1105</ele>
        <time>2023-07-12T12:03:26.000Z</time>
      </trkpt>
      <trkpt lat="42.47489" lon="2.93271">
        <ele>1106</ele>
        <time>2023-07-12T12:03:33.000Z</time>
      </trkpt>
      <trkpt lat="42.47489" lon="2.93269">
        <ele>1106</ele>
        <time>2023-07-12T12:03:34.000Z</time>
      </trkpt>
      <trkpt lat="42.47489" lon="2.93259">
        <ele>1107.1999511719</ele>
        <time>2023-07-12T12:03:41.000Z</time>
      </trkpt>
      <trkpt lat="42.47488" lon="2.9325">
        <ele>1108</ele>
        <time>2023-07-12T12:03:46.000Z</time>
      </trkpt>
      <trkpt lat="42.47487" lon="2.93248">
        <ele>1108.1999511719</ele>
        <time>2023-07-12T12:03:48.000Z</time>
      </trkpt>
      <trkpt lat="42.47483" lon="2.93242">
        <ele>1109</ele>
        <time>2023-07-12T12:03:53.000Z</time>
      </trkpt>
      <trkpt lat="42.47481" lon="2.93242">
        <ele>1109.4000244141</ele>
        <time>2023-07-12T12:03:56.000Z</time>
      </trkpt>
      <trkpt lat="42.47479" lon="2.93237">
        <ele>1110.1999511719</ele>
        <time>2023-07-12T12:04:01.000Z</time>
      </trkpt>
      <trkpt lat="42.47479" lon="2.93235">
        <ele>1110.5999755859</ele>
        <time>2023-07-12T12:04:02.000Z</time>
      </trkpt>
      <trkpt lat="42.4748" lon="2.93227">
        <ele>1111.5999755859</ele>
        <time>2023-07-12T12:04:08.000Z</time>
      </trkpt>
      <trkpt lat="42.4748" lon="2.93225">
        <ele>1111.8000488281</ele>
        <time>2023-07-12T12:04:09.000Z</time>
      </trkpt>
      <trkpt lat="42.47478" lon="2.9322">
        <ele>1112.5999755859</ele>
        <time>2023-07-12T12:04:15.000Z</time>
      </trkpt>
      <trkpt lat="42.47478" lon="2.93219">
        <ele>1112.5999755859</ele>
        <time>2023-07-12T12:04:16.000Z</time>
      </trkpt>
      <trkpt lat="42.47474" lon="2.93212">
        <ele>1113.4000244141</ele>
        <time>2023-07-12T12:04:22.000Z</time>
      </trkpt>
      <trkpt lat="42.47472" lon="2.9321">
        <ele>1113.8000488281</ele>
        <time>2023-07-12T12:04:24.000Z</time>
      </trkpt>
      <trkpt lat="42.47468" lon="2.93206">
        <ele>1114.4000244141</ele>
        <time>2023-07-12T12:04:29.000Z</time>
      </trkpt>
      <trkpt lat="42.47462" lon="2.93204">
        <ele>1115</ele>
        <time>2023-07-12T12:04:33.000Z</time>
      </trkpt>
      <trkpt lat="42.47458" lon="2.93204">
        <ele>1115.1999511719</ele>
        <time>2023-07-12T12:04:36.000Z</time>
      </trkpt>
      <trkpt lat="42.47451" lon="2.932">
        <ele>1115.8000488281</ele>
        <time>2023-07-12T12:04:44.000Z</time>
      </trkpt>
      <trkpt lat="42.47443" lon="2.93198">
        <ele>1115.4000244141</ele>
        <time>2023-07-12T12:04:52.000Z</time>
      </trkpt>
      <trkpt lat="42.47438" lon="2.93199">
        <ele>1114.1999511719</ele>
        <time>2023-07-12T12:04:59.000Z</time>
      </trkpt>
      <trkpt lat="42.47438" lon="2.93199">
        <ele>1114.1999511719</ele>
        <time>2023-07-12T12:05:03.000Z</time>
      </trkpt>
      <trkpt lat="42.47439" lon="2.93198">
        <ele>1114.1999511719</ele>
        <time>2023-07-12T12:05:08.000Z</time>
      </trkpt>
      <trkpt lat="42.47438" lon="2.932">
        <ele>1114.1999511719</ele>
        <time>2023-07-12T12:05:10.000Z</time>
      </trkpt>
      <trkpt lat="42.47434" lon="2.93199">
        <ele>1114.1999511719</ele>
        <time>2023-07-12T12:05:24.000Z</time>
      </trkpt>
      <trkpt lat="42.47437" lon="2.93195">
        <ele>1114.4000244141</ele>
        <time>2023-07-12T12:05:32.000Z</time>
      </trkpt>
      <trkpt lat="42.47434" lon="2.93195">
        <ele>1114.4000244141</ele>
        <time>2023-07-12T12:05:39.000Z</time>
      </trkpt>
      <trkpt lat="42.47432" lon="2.93192">
        <ele>1114.1999511719</ele>
        <time>2023-07-12T12:05:45.000Z</time>
      </trkpt>
      <trkpt lat="42.47435" lon="2.93192">
        <ele>1114</ele>
        <time>2023-07-12T12:05:50.000Z</time>
      </trkpt>
      <trkpt lat="42.47434" lon="2.93191">
        <ele>1114</ele>
        <time>2023-07-12T12:05:51.000Z</time>
      </trkpt>
      <trkpt lat="42.47425" lon="2.93188">
        <ele>1113.8000488281</ele>
        <time>2023-07-12T12:05:59.000Z</time>
      </trkpt>
      <trkpt lat="42.47416" lon="2.93184">
        <ele>1113.1999511719</ele>
        <time>2023-07-12T12:06:06.000Z</time>
      </trkpt>
      <trkpt lat="42.47411" lon="2.93179">
        <ele>1112.8000488281</ele>
        <time>2023-07-12T12:06:10.000Z</time>
      </trkpt>
      <trkpt lat="42.47408" lon="2.93176">
        <ele>1112.5999755859</ele>
        <time>2023-07-12T12:06:13.000Z</time>
      </trkpt>
      <trkpt lat="42.47402" lon="2.93171">
        <ele>1111.5999755859</ele>
        <time>2023-07-12T12:06:19.000Z</time>
      </trkpt>
      <trkpt lat="42.47398" lon="2.93169">
        <ele>1111</ele>
        <time>2023-07-12T12:06:22.000Z</time>
      </trkpt>
      <trkpt lat="42.47396" lon="2.93167">
        <ele>1110.4000244141</ele>
        <time>2023-07-12T12:06:25.000Z</time>
      </trkpt>
      <trkpt lat="42.47393" lon="2.93165">
        <ele>1109.8000488281</ele>
        <time>2023-07-12T12:06:29.000Z</time>
      </trkpt>
      <trkpt lat="42.47391" lon="2.93164">
        <ele>1109.1999511719</ele>
        <time>2023-07-12T12:06:31.000Z</time>
      </trkpt>
      <trkpt lat="42.47389" lon="2.93161">
        <ele>1108.1999511719</ele>
        <time>2023-07-12T12:06:36.000Z</time>
      </trkpt>
      <trkpt lat="42.47388" lon="2.93161">
        <ele>1108.1999511719</ele>
        <time>2023-07-12T12:06:37.000Z</time>
      </trkpt>
      <trkpt lat="42.47385" lon="2.93158">
        <ele>1107.5999755859</ele>
        <time>2023-07-12T12:06:45.000Z</time>
      </trkpt>
      <trkpt lat="42.47384" lon="2.93155">
        <ele>1107.1999511719</ele>
        <time>2023-07-12T12:06:49.000Z</time>
      </trkpt>
      <trkpt lat="42.47383" lon="2.93154">
        <ele>1106.5999755859</ele>
        <time>2023-07-12T12:06:53.000Z</time>
      </trkpt>
      <trkpt lat="42.47382" lon="2.93154">
        <ele>1106.1999511719</ele>
        <time>2023-07-12T12:06:56.000Z</time>
      </trkpt>
      <trkpt lat="42.47382" lon="2.93152">
        <ele>1105.5999755859</ele>
        <time>2023-07-12T12:07:03.000Z</time>
      </trkpt>
      <trkpt lat="42.4738" lon="2.93146">
        <ele>1105</ele>
        <time>2023-07-12T12:07:09.000Z</time>
      </trkpt>
      <trkpt lat="42.47379" lon="2.93144">
        <ele>1104.8000488281</ele>
        <time>2023-07-12T12:07:12.000Z</time>
      </trkpt>
      <trkpt lat="42.47383" lon="2.93136">
        <ele>1104.4000244141</ele>
        <time>2023-07-12T12:07:20.000Z</time>
      </trkpt>
      <trkpt lat="42.47384" lon="2.93133">
        <ele>1104</ele>
        <time>2023-07-12T12:07:23.000Z</time>
      </trkpt>
      <trkpt lat="42.47383" lon="2.93132">
        <ele>1104</ele>
        <time>2023-07-12T12:07:28.000Z</time>
      </trkpt>
      <trkpt lat="42.47381" lon="2.9313">
        <ele>1103.5999755859</ele>
        <time>2023-07-12T12:07:36.000Z</time>
      </trkpt>
      <trkpt lat="42.47377" lon="2.93128">
        <ele>1104</ele>
        <time>2023-07-12T12:07:44.000Z</time>
      </trkpt>
      <trkpt lat="42.47376" lon="2.93134">
        <ele>1103.1999511719</ele>
        <time>2023-07-12T12:07:52.000Z</time>
      </trkpt>
      <trkpt lat="42.47374" lon="2.93131">
        <ele>1103.1999511719</ele>
        <time>2023-07-12T12:07:59.000Z</time>
      </trkpt>
      <trkpt lat="42.47374" lon="2.93132">
        <ele>1103.1999511719</ele>
        <time>2023-07-12T12:08:07.000Z</time>
      </trkpt>
      <trkpt lat="42.47375" lon="2.93135">
        <ele>1103.1999511719</ele>
        <time>2023-07-12T12:08:18.000Z</time>
      </trkpt>
      <trkpt lat="42.47375" lon="2.93136">
        <ele>1103.1999511719</ele>
        <time>2023-07-12T12:08:26.000Z</time>
      </trkpt>
      <trkpt lat="42.47377" lon="2.93137">
        <ele>1103.4000244141</ele>
        <time>2023-07-12T12:08:36.000Z</time>
      </trkpt>
      <trkpt lat="42.47379" lon="2.93141">
        <ele>1103.1999511719</ele>
        <time>2023-07-12T12:08:47.000Z</time>
      </trkpt>
      <trkpt lat="42.47384" lon="2.9314">
        <ele>1103.1999511719</ele>
        <time>2023-07-12T12:08:57.000Z</time>
      </trkpt>
      <trkpt lat="42.47381" lon="2.93129">
        <ele>1103.4000244141</ele>
        <time>2023-07-12T12:09:08.000Z</time>
      </trkpt>
      <trkpt lat="42.47377" lon="2.93124">
        <ele>1103.5999755859</ele>
        <time>2023-07-12T12:09:17.000Z</time>
      </trkpt>
      <trkpt lat="42.47379" lon="2.93127">
        <ele>1103.8000488281</ele>
        <time>2023-07-12T12:09:23.000Z</time>
      </trkpt>
      <trkpt lat="42.47375" lon="2.93131">
        <ele>1103.8000488281</ele>
        <time>2023-07-12T12:09:29.000Z</time>
      </trkpt>
      <trkpt lat="42.47375" lon="2.93137">
        <ele>1103.8000488281</ele>
        <time>2023-07-12T12:09:38.000Z</time>
      </trkpt>
      <trkpt lat="42.47379" lon="2.93138">
        <ele>1103.8000488281</ele>
        <time>2023-07-12T12:09:46.000Z</time>
      </trkpt>
      <trkpt lat="42.47377" lon="2.93133">
        <ele>1104.4000244141</ele>
        <time>2023-07-12T12:09:53.000Z</time>
      </trkpt>
      <trkpt lat="42.47377" lon="2.93131">
        <ele>1104.8000488281</ele>
        <time>2023-07-12T12:10:02.000Z</time>
      </trkpt>
      <trkpt lat="42.47378" lon="2.93131">
        <ele>1104.8000488281</ele>
        <time>2023-07-12T12:10:10.000Z</time>
      </trkpt>
      <trkpt lat="42.47379" lon="2.93129">
        <ele>1104.4000244141</ele>
        <time>2023-07-12T12:10:20.000Z</time>
      </trkpt>
      <trkpt lat="42.47376" lon="2.93127">
        <ele>1104.8000488281</ele>
        <time>2023-07-12T12:10:28.000Z</time>
      </trkpt>
      <trkpt lat="42.47375" lon="2.93132">
        <ele>1104.8000488281</ele>
        <time>2023-07-12T12:10:36.000Z</time>
      </trkpt>
      <trkpt lat="42.47375" lon="2.93133">
        <ele>1105</ele>
        <time>2023-07-12T12:10:45.000Z</time>
      </trkpt>
      <trkpt lat="42.47378" lon="2.93139">
        <ele>1105.4000244141</ele>
        <time>2023-07-12T12:10:55.000Z</time>
      </trkpt>
      <trkpt lat="42.47381" lon="2.93142">
        <ele>1105.4000244141</ele>
        <time>2023-07-12T12:11:02.000Z</time>
      </trkpt>
      <trkpt lat="42.47382" lon="2.93141">
        <ele>1105.4000244141</ele>
        <time>2023-07-12T12:11:10.000Z</time>
      </trkpt>
      <trkpt lat="42.47389" lon="2.93138">
        <ele>1105.1999511719</ele>
        <time>2023-07-12T12:11:25.000Z</time>
      </trkpt>
      <trkpt lat="42.47386" lon="2.93145">
        <ele>1105.8000488281</ele>
        <time>2023-07-12T12:11:32.000Z</time>
      </trkpt>
      <trkpt lat="42.47386" lon="2.93149">
        <ele>1106</ele>
        <time>2023-07-12T12:11:36.000Z</time>
      </trkpt>
      <trkpt lat="42.47386" lon="2.93152">
        <ele>1106.1999511719</ele>
        <time>2023-07-12T12:11:38.000Z</time>
      </trkpt>
      <trkpt lat="42.47387" lon="2.93153">
        <ele>1106.8000488281</ele>
        <time>2023-07-12T12:11:43.000Z</time>
      </trkpt>
      <trkpt lat="42.47387" lon="2.93153">
        <ele>1107</ele>
        <time>2023-07-12T12:11:45.000Z</time>
      </trkpt>
      <trkpt lat="42.47388" lon="2.93157">
        <ele>1108</ele>
        <time>2023-07-12T12:11:50.000Z</time>
      </trkpt>
      <trkpt lat="42.47389" lon="2.93158">
        <ele>1108.1999511719</ele>
        <time>2023-07-12T12:11:51.000Z</time>
      </trkpt>
      <trkpt lat="42.4739" lon="2.9316">
        <ele>1109</ele>
        <time>2023-07-12T12:11:55.000Z</time>
      </trkpt>
      <trkpt lat="42.47388" lon="2.93161">
        <ele>1109.1999511719</ele>
        <time>2023-07-12T12:11:57.000Z</time>
      </trkpt>
      <trkpt lat="42.47381" lon="2.93163">
        <ele>1108.1999511719</ele>
        <time>2023-07-12T12:12:06.000Z</time>
      </trkpt>
      <trkpt lat="42.47377" lon="2.93165">
        <ele>1107.1999511719</ele>
        <time>2023-07-12T12:12:12.000Z</time>
      </trkpt>
      <trkpt lat="42.47376" lon="2.93165">
        <ele>1107</ele>
        <time>2023-07-12T12:12:13.000Z</time>
      </trkpt>
      <trkpt lat="42.47369" lon="2.93162">
        <ele>1106</ele>
        <time>2023-07-12T12:12:18.000Z</time>
      </trkpt>
      <trkpt lat="42.47365" lon="2.93159">
        <ele>1105.4000244141</ele>
        <time>2023-07-12T12:12:21.000Z</time>
      </trkpt>
      <trkpt lat="42.47363" lon="2.93158">
        <ele>1105</ele>
        <time>2023-07-12T12:12:23.000Z</time>
      </trkpt>
      <trkpt lat="42.47356" lon="2.93156">
        <ele>1104</ele>
        <time>2023-07-12T12:12:29.000Z</time>
      </trkpt>
      <trkpt lat="42.47349" lon="2.93149">
        <ele>1103</ele>
        <time>2023-07-12T12:12:36.000Z</time>
      </trkpt>
      <trkpt lat="42.47349" lon="2.93149">
        <ele>1102.8000488281</ele>
        <time>2023-07-12T12:12:37.000Z</time>
      </trkpt>
      <trkpt lat="42.47346" lon="2.93144">
        <ele>1101.8000488281</ele>
        <time>2023-07-12T12:12:43.000Z</time>
      </trkpt>
      <trkpt lat="42.47345" lon="2.93141">
        <ele>1101.4000244141</ele>
        <time>2023-07-12T12:12:45.000Z</time>
      </trkpt>
      <trkpt lat="42.47343" lon="2.93138">
        <ele>1100.5999755859</ele>
        <time>2023-07-12T12:12:48.000Z</time>
      </trkpt>
      <trkpt lat="42.47341" lon="2.93135">
        <ele>1100</ele>
        <time>2023-07-12T12:12:51.000Z</time>
      </trkpt>
      <trkpt lat="42.4734" lon="2.93132">
        <ele>1099.5999755859</ele>
        <time>2023-07-12T12:12:53.000Z</time>
      </trkpt>
      <trkpt lat="42.47333" lon="2.93126">
        <ele>1098.4000244141</ele>
        <time>2023-07-12T12:12:58.000Z</time>
      </trkpt>
      <trkpt lat="42.47331" lon="2.93124">
        <ele>1098</ele>
        <time>2023-07-12T12:13:00.000Z</time>
      </trkpt>
      <trkpt lat="42.47328" lon="2.93121">
        <ele>1097.4000244141</ele>
        <time>2023-07-12T12:13:03.000Z</time>
      </trkpt>
      <trkpt lat="42.47327" lon="2.93117">
        <ele>1096.4000244141</ele>
        <time>2023-07-12T12:13:08.000Z</time>
      </trkpt>
      <trkpt lat="42.47324" lon="2.93111">
        <ele>1095.1999511719</ele>
        <time>2023-07-12T12:13:13.000Z</time>
      </trkpt>
      <trkpt lat="42.4732" lon="2.93108">
        <ele>1094.8000488281</ele>
        <time>2023-07-12T12:13:17.000Z</time>
      </trkpt>
      <trkpt lat="42.47314" lon="2.93104">
        <ele>1094.1999511719</ele>
        <time>2023-07-12T12:13:22.000Z</time>
      </trkpt>
      <trkpt lat="42.4731" lon="2.93102">
        <ele>1094</ele>
        <time>2023-07-12T12:13:25.000Z</time>
      </trkpt>
      <trkpt lat="42.47305" lon="2.93098">
        <ele>1093</ele>
        <time>2023-07-12T12:13:30.000Z</time>
      </trkpt>
      <trkpt lat="42.47303" lon="2.93094">
        <ele>1092.1999511719</ele>
        <time>2023-07-12T12:13:35.000Z</time>
      </trkpt>
      <trkpt lat="42.47303" lon="2.93092">
        <ele>1091.8000488281</ele>
        <time>2023-07-12T12:13:36.000Z</time>
      </trkpt>
      <trkpt lat="42.473" lon="2.93088">
        <ele>1090.8000488281</ele>
        <time>2023-07-12T12:13:41.000Z</time>
      </trkpt>
      <trkpt lat="42.47299" lon="2.93085">
        <ele>1090.4000244141</ele>
        <time>2023-07-12T12:13:43.000Z</time>
      </trkpt>
      <trkpt lat="42.47297" lon="2.93083">
        <ele>1089.5999755859</ele>
        <time>2023-07-12T12:13:45.000Z</time>
      </trkpt>
      <trkpt lat="42.47293" lon="2.93077">
        <ele>1088.5999755859</ele>
        <time>2023-07-12T12:13:50.000Z</time>
      </trkpt>
      <trkpt lat="42.4729" lon="2.93074">
        <ele>1087.8000488281</ele>
        <time>2023-07-12T12:13:53.000Z</time>
      </trkpt>
      <trkpt lat="42.47287" lon="2.93071">
        <ele>1087.1999511719</ele>
        <time>2023-07-12T12:13:55.000Z</time>
      </trkpt>
      <trkpt lat="42.47285" lon="2.93066">
        <ele>1086</ele>
        <time>2023-07-12T12:13:59.000Z</time>
      </trkpt>
      <trkpt lat="42.47284" lon="2.93064">
        <ele>1085.8000488281</ele>
        <time>2023-07-12T12:14:00.000Z</time>
      </trkpt>
      <trkpt lat="42.47281" lon="2.93058">
        <ele>1084.8000488281</ele>
        <time>2023-07-12T12:14:04.000Z</time>
      </trkpt>
      <trkpt lat="42.47279" lon="2.93054">
        <ele>1084</ele>
        <time>2023-07-12T12:14:08.000Z</time>
      </trkpt>
      <trkpt lat="42.47278" lon="2.93053">
        <ele>1083.5999755859</ele>
        <time>2023-07-12T12:14:09.000Z</time>
      </trkpt>
      <trkpt lat="42.47274" lon="2.93048">
        <ele>1082.4000244141</ele>
        <time>2023-07-12T12:14:14.000Z</time>
      </trkpt>
      <trkpt lat="42.47272" lon="2.93048">
        <ele>1082.1999511719</ele>
        <time>2023-07-12T12:14:15.000Z</time>
      </trkpt>
      <trkpt lat="42.47267" lon="2.93047">
        <ele>1081.4000244141</ele>
        <time>2023-07-12T12:14:19.000Z</time>
      </trkpt>
      <trkpt lat="42.47266" lon="2.93047">
        <ele>1081</ele>
        <time>2023-07-12T12:14:21.000Z</time>
      </trkpt>
      <trkpt lat="42.47262" lon="2.93045">
        <ele>1080.1999511719</ele>
        <time>2023-07-12T12:14:25.000Z</time>
      </trkpt>
      <trkpt lat="42.47256" lon="2.9304">
        <ele>1079.1999511719</ele>
        <time>2023-07-12T12:14:30.000Z</time>
      </trkpt>
      <trkpt lat="42.4725" lon="2.93035">
        <ele>1078.1999511719</ele>
        <time>2023-07-12T12:14:34.000Z</time>
      </trkpt>
      <trkpt lat="42.47248" lon="2.93031">
        <ele>1077.8000488281</ele>
        <time>2023-07-12T12:14:36.000Z</time>
      </trkpt>
      <trkpt lat="42.47241" lon="2.93023">
        <ele>1077</ele>
        <time>2023-07-12T12:14:42.000Z</time>
      </trkpt>
      <trkpt lat="42.47239" lon="2.93021">
        <ele>1076.8000488281</ele>
        <time>2023-07-12T12:14:44.000Z</time>
      </trkpt>
      <trkpt lat="42.47235" lon="2.9301">
        <ele>1076.1999511719</ele>
        <time>2023-07-12T12:14:51.000Z</time>
      </trkpt>
      <trkpt lat="42.47229" lon="2.93001">
        <ele>1075.8000488281</ele>
        <time>2023-07-12T12:14:58.000Z</time>
      </trkpt>
      <trkpt lat="42.47228" lon="2.93001">
        <ele>1075.8000488281</ele>
        <time>2023-07-12T12:14:59.000Z</time>
      </trkpt>
      <trkpt lat="42.47222" lon="2.92997">
        <ele>1074.5999755859</ele>
        <time>2023-07-12T12:15:05.000Z</time>
      </trkpt>
      <trkpt lat="42.47221" lon="2.92996">
        <ele>1074.4000244141</ele>
        <time>2023-07-12T12:15:06.000Z</time>
      </trkpt>
      <trkpt lat="42.47214" lon="2.92995">
        <ele>1073.4000244141</ele>
        <time>2023-07-12T12:15:13.000Z</time>
      </trkpt>
      <trkpt lat="42.47207" lon="2.92994">
        <ele>1072.4000244141</ele>
        <time>2023-07-12T12:15:19.000Z</time>
      </trkpt>
      <trkpt lat="42.47206" lon="2.92993">
        <ele>1072</ele>
        <time>2023-07-12T12:15:20.000Z</time>
      </trkpt>
      <trkpt lat="42.47202" lon="2.9299">
        <ele>1071.1999511719</ele>
        <time>2023-07-12T12:15:24.000Z</time>
      </trkpt>
      <trkpt lat="42.47196" lon="2.92988">
        <ele>1069.8000488281</ele>
        <time>2023-07-12T12:15:29.000Z</time>
      </trkpt>
      <trkpt lat="42.47193" lon="2.92989">
        <ele>1068.8000488281</ele>
        <time>2023-07-12T12:15:33.000Z</time>
      </trkpt>
      <trkpt lat="42.47192" lon="2.9299">
        <ele>1068</ele>
        <time>2023-07-12T12:15:35.000Z</time>
      </trkpt>
      <trkpt lat="42.4719" lon="2.9299">
        <ele>1067.5999755859</ele>
        <time>2023-07-12T12:15:38.000Z</time>
      </trkpt>
      <trkpt lat="42.47187" lon="2.92992">
        <ele>1066.8000488281</ele>
        <time>2023-07-12T12:15:42.000Z</time>
      </trkpt>
      <trkpt lat="42.47185" lon="2.92994">
        <ele>1066.4000244141</ele>
        <time>2023-07-12T12:15:44.000Z</time>
      </trkpt>
      <trkpt lat="42.47181" lon="2.92996">
        <ele>1065.1999511719</ele>
        <time>2023-07-12T12:15:48.000Z</time>
      </trkpt>
      <trkpt lat="42.47177" lon="2.92997">
        <ele>1064.4000244141</ele>
        <time>2023-07-12T12:15:51.000Z</time>
      </trkpt>
      <trkpt lat="42.47176" lon="2.92997">
        <ele>1064.1999511719</ele>
        <time>2023-07-12T12:15:52.000Z</time>
      </trkpt>
      <trkpt lat="42.47171" lon="2.92999">
        <ele>1063.1999511719</ele>
        <time>2023-07-12T12:15:56.000Z</time>
      </trkpt>
      <trkpt lat="42.4717" lon="2.93">
        <ele>1062.4000244141</ele>
        <time>2023-07-12T12:15:59.000Z</time>
      </trkpt>
      <trkpt lat="42.47168" lon="2.93001">
        <ele>1061.8000488281</ele>
        <time>2023-07-12T12:16:01.000Z</time>
      </trkpt>
      <trkpt lat="42.47164" lon="2.93">
        <ele>1061</ele>
        <time>2023-07-12T12:16:06.000Z</time>
      </trkpt>
      <trkpt lat="42.47164" lon="2.93">
        <ele>1060.8000488281</ele>
        <time>2023-07-12T12:16:07.000Z</time>
      </trkpt>
      <trkpt lat="42.4716" lon="2.92999">
        <ele>1059.5999755859</ele>
        <time>2023-07-12T12:16:11.000Z</time>
      </trkpt>
      <trkpt lat="42.47159" lon="2.93">
        <ele>1059</ele>
        <time>2023-07-12T12:16:13.000Z</time>
      </trkpt>
      <trkpt lat="42.47157" lon="2.93">
        <ele>1058.5999755859</ele>
        <time>2023-07-12T12:16:15.000Z</time>
      </trkpt>
      <trkpt lat="42.47152" lon="2.92998">
        <ele>1057.4000244141</ele>
        <time>2023-07-12T12:16:20.000Z</time>
      </trkpt>
      <trkpt lat="42.47151" lon="2.92998">
        <ele>1057.1999511719</ele>
        <time>2023-07-12T12:16:21.000Z</time>
      </trkpt>
      <trkpt lat="42.47148" lon="2.92996">
        <ele>1056.1999511719</ele>
        <time>2023-07-12T12:16:24.000Z</time>
      </trkpt>
      <trkpt lat="42.47145" lon="2.92994">
        <ele>1055</ele>
        <time>2023-07-12T12:16:29.000Z</time>
      </trkpt>
      <trkpt lat="42.47141" lon="2.92991">
        <ele>1053.8000488281</ele>
        <time>2023-07-12T12:16:34.000Z</time>
      </trkpt>
      <trkpt lat="42.47141" lon="2.92991">
        <ele>1053.5999755859</ele>
        <time>2023-07-12T12:16:35.000Z</time>
      </trkpt>
      <trkpt lat="42.47137" lon="2.92986">
        <ele>1052.8000488281</ele>
        <time>2023-07-12T12:16:38.000Z</time>
      </trkpt>
      <trkpt lat="42.47134" lon="2.92983">
        <ele>1052</ele>
        <time>2023-07-12T12:16:41.000Z</time>
      </trkpt>
      <trkpt lat="42.47134" lon="2.92982">
        <ele>1051.5999755859</ele>
        <time>2023-07-12T12:16:42.000Z</time>
      </trkpt>
      <trkpt lat="42.47133" lon="2.92982">
        <ele>1050.5999755859</ele>
        <time>2023-07-12T12:16:46.000Z</time>
      </trkpt>
      <trkpt lat="42.4713" lon="2.92981">
        <ele>1049.8000488281</ele>
        <time>2023-07-12T12:16:49.000Z</time>
      </trkpt>
      <trkpt lat="42.47129" lon="2.9298">
        <ele>1049.4000244141</ele>
        <time>2023-07-12T12:16:51.000Z</time>
      </trkpt>
      <trkpt lat="42.47126" lon="2.92981">
        <ele>1048.1999511719</ele>
        <time>2023-07-12T12:16:56.000Z</time>
      </trkpt>
      <trkpt lat="42.47124" lon="2.92982">
        <ele>1047.8000488281</ele>
        <time>2023-07-12T12:16:58.000Z</time>
      </trkpt>
      <trkpt lat="42.47121" lon="2.92985">
        <ele>1047</ele>
        <time>2023-07-12T12:17:02.000Z</time>
      </trkpt>
      <trkpt lat="42.47118" lon="2.92985">
        <ele>1046.4000244141</ele>
        <time>2023-07-12T12:17:05.000Z</time>
      </trkpt>
      <trkpt lat="42.47116" lon="2.92985">
        <ele>1045.8000488281</ele>
        <time>2023-07-12T12:17:07.000Z</time>
      </trkpt>
      <trkpt lat="42.47113" lon="2.92984">
        <ele>1044.5999755859</ele>
        <time>2023-07-12T12:17:12.000Z</time>
      </trkpt>
      <trkpt lat="42.4711" lon="2.92985">
        <ele>1044</ele>
        <time>2023-07-12T12:17:15.000Z</time>
      </trkpt>
      <trkpt lat="42.47107" lon="2.92983">
        <ele>1043.5999755859</ele>
        <time>2023-07-12T12:17:18.000Z</time>
      </trkpt>
      <trkpt lat="42.47103" lon="2.9298">
        <ele>1042.4000244141</ele>
        <time>2023-07-12T12:17:22.000Z</time>
      </trkpt>
      <trkpt lat="42.471" lon="2.92978">
        <ele>1041.8000488281</ele>
        <time>2023-07-12T12:17:25.000Z</time>
      </trkpt>
      <trkpt lat="42.47098" lon="2.92978">
        <ele>1041.4000244141</ele>
        <time>2023-07-12T12:17:27.000Z</time>
      </trkpt>
      <trkpt lat="42.47095" lon="2.92978">
        <ele>1040.1999511719</ele>
        <time>2023-07-12T12:17:31.000Z</time>
      </trkpt>
      <trkpt lat="42.47092" lon="2.92977">
        <ele>1039.4000244141</ele>
        <time>2023-07-12T12:17:34.000Z</time>
      </trkpt>
      <trkpt lat="42.47092" lon="2.92977">
        <ele>1039.1999511719</ele>
        <time>2023-07-12T12:17:35.000Z</time>
      </trkpt>
      <trkpt lat="42.47089" lon="2.92974">
        <ele>1038</ele>
        <time>2023-07-12T12:17:39.000Z</time>
      </trkpt>
      <trkpt lat="42.47088" lon="2.92974">
        <ele>1037.8000488281</ele>
        <time>2023-07-12T12:17:40.000Z</time>
      </trkpt>
      <trkpt lat="42.47086" lon="2.92972">
        <ele>1037</ele>
        <time>2023-07-12T12:17:44.000Z</time>
      </trkpt>
      <trkpt lat="42.47083" lon="2.92971">
        <ele>1036</ele>
        <time>2023-07-12T12:17:48.000Z</time>
      </trkpt>
      <trkpt lat="42.47082" lon="2.9297">
        <ele>1035.8000488281</ele>
        <time>2023-07-12T12:17:49.000Z</time>
      </trkpt>
      <trkpt lat="42.47079" lon="2.92968">
        <ele>1034.5999755859</ele>
        <time>2023-07-12T12:17:54.000Z</time>
      </trkpt>
      <trkpt lat="42.47077" lon="2.92967">
        <ele>1033.5999755859</ele>
        <time>2023-07-12T12:17:58.000Z</time>
      </trkpt>
      <trkpt lat="42.47076" lon="2.92966">
        <ele>1033.1999511719</ele>
        <time>2023-07-12T12:17:59.000Z</time>
      </trkpt>
      <trkpt lat="42.47071" lon="2.92964">
        <ele>1032.1999511719</ele>
        <time>2023-07-12T12:18:04.000Z</time>
      </trkpt>
      <trkpt lat="42.47068" lon="2.92962">
        <ele>1031.4000244141</ele>
        <time>2023-07-12T12:18:07.000Z</time>
      </trkpt>
      <trkpt lat="42.47066" lon="2.92962">
        <ele>1030.8000488281</ele>
        <time>2023-07-12T12:18:09.000Z</time>
      </trkpt>
      <trkpt lat="42.47065" lon="2.92961">
        <ele>1029.8000488281</ele>
        <time>2023-07-12T12:18:13.000Z</time>
      </trkpt>
      <trkpt lat="42.47064" lon="2.9296">
        <ele>1029.1999511719</ele>
        <time>2023-07-12T12:18:15.000Z</time>
      </trkpt>
      <trkpt lat="42.47064" lon="2.9296">
        <ele>1028.5999755859</ele>
        <time>2023-07-12T12:18:18.000Z</time>
      </trkpt>
      <trkpt lat="42.47057" lon="2.9296">
        <ele>1026.4000244141</ele>
        <time>2023-07-12T12:18:28.000Z</time>
      </trkpt>
      <trkpt lat="42.47056" lon="2.92958">
        <ele>1026</ele>
        <time>2023-07-12T12:18:30.000Z</time>
      </trkpt>
      <trkpt lat="42.47056" lon="2.92954">
        <ele>1025.1999511719</ele>
        <time>2023-07-12T12:18:34.000Z</time>
      </trkpt>
      <trkpt lat="42.47052" lon="2.92948">
        <ele>1024</ele>
        <time>2023-07-12T12:18:39.000Z</time>
      </trkpt>
      <trkpt lat="42.47052" lon="2.92946">
        <ele>1023.799987793</ele>
        <time>2023-07-12T12:18:40.000Z</time>
      </trkpt>
      <trkpt lat="42.4705" lon="2.92944">
        <ele>1023</ele>
        <time>2023-07-12T12:18:44.000Z</time>
      </trkpt>
      <trkpt lat="42.4705" lon="2.92942">
        <ele>1022.799987793</ele>
        <time>2023-07-12T12:18:47.000Z</time>
      </trkpt>
      <trkpt lat="42.47044" lon="2.92938">
        <ele>1022.200012207</ele>
        <time>2023-07-12T12:18:55.000Z</time>
      </trkpt>
      <trkpt lat="42.47043" lon="2.92937">
        <ele>1022</ele>
        <time>2023-07-12T12:18:56.000Z</time>
      </trkpt>
      <trkpt lat="42.4704" lon="2.92936">
        <ele>1021</ele>
        <time>2023-07-12T12:19:01.000Z</time>
      </trkpt>
      <trkpt lat="42.47037" lon="2.92932">
        <ele>1019.4000244141</ele>
        <time>2023-07-12T12:19:08.000Z</time>
      </trkpt>
      <trkpt lat="42.47035" lon="2.92929">
        <ele>1018.799987793</ele>
        <time>2023-07-12T12:19:11.000Z</time>
      </trkpt>
      <trkpt lat="42.47031" lon="2.92926">
        <ele>1018</ele>
        <time>2023-07-12T12:19:15.000Z</time>
      </trkpt>
      <trkpt lat="42.4703" lon="2.92926">
        <ele>1017.5999755859</ele>
        <time>2023-07-12T12:19:16.000Z</time>
      </trkpt>
      <trkpt lat="42.47027" lon="2.92925">
        <ele>1016.5999755859</ele>
        <time>2023-07-12T12:19:21.000Z</time>
      </trkpt>
      <trkpt lat="42.47025" lon="2.92925">
        <ele>1016</ele>
        <time>2023-07-12T12:19:23.000Z</time>
      </trkpt>
      <trkpt lat="42.47023" lon="2.92926">
        <ele>1015.4000244141</ele>
        <time>2023-07-12T12:19:26.000Z</time>
      </trkpt>
      <trkpt lat="42.4702" lon="2.92924">
        <ele>1014.4000244141</ele>
        <time>2023-07-12T12:19:31.000Z</time>
      </trkpt>
      <trkpt lat="42.47019" lon="2.92924">
        <ele>1014.200012207</ele>
        <time>2023-07-12T12:19:32.000Z</time>
      </trkpt>
      <trkpt lat="42.47016" lon="2.92922">
        <ele>1013.200012207</ele>
        <time>2023-07-12T12:19:37.000Z</time>
      </trkpt>
      <trkpt lat="42.47014" lon="2.92922">
        <ele>1012.799987793</ele>
        <time>2023-07-12T12:19:40.000Z</time>
      </trkpt>
      <trkpt lat="42.47012" lon="2.92922">
        <ele>1012.200012207</ele>
        <time>2023-07-12T12:19:44.000Z</time>
      </trkpt>
      <trkpt lat="42.47007" lon="2.92918">
        <ele>1011.200012207</ele>
        <time>2023-07-12T12:19:51.000Z</time>
      </trkpt>
      <trkpt lat="42.47007" lon="2.92915">
        <ele>1010.5999755859</ele>
        <time>2023-07-12T12:19:58.000Z</time>
      </trkpt>
      <trkpt lat="42.47008" lon="2.9292">
        <ele>1010.4000244141</ele>
        <time>2023-07-12T12:20:04.000Z</time>
      </trkpt>
      <trkpt lat="42.47006" lon="2.9292">
        <ele>1010.200012207</ele>
        <time>2023-07-12T12:20:08.000Z</time>
      </trkpt>
      <trkpt lat="42.47" lon="2.92918">
        <ele>1009.200012207</ele>
        <time>2023-07-12T12:20:15.000Z</time>
      </trkpt>
      <trkpt lat="42.46999" lon="2.92918">
        <ele>1009.200012207</ele>
        <time>2023-07-12T12:20:16.000Z</time>
      </trkpt>
      <trkpt lat="42.46996" lon="2.92921">
        <ele>1008</ele>
        <time>2023-07-12T12:20:22.000Z</time>
      </trkpt>
      <trkpt lat="42.46994" lon="2.92922">
        <ele>1007.799987793</ele>
        <time>2023-07-12T12:20:24.000Z</time>
      </trkpt>
      <trkpt lat="42.46992" lon="2.92922">
        <ele>1007</ele>
        <time>2023-07-12T12:20:29.000Z</time>
      </trkpt>
      <trkpt lat="42.4699" lon="2.9292">
        <ele>1005.799987793</ele>
        <time>2023-07-12T12:20:34.000Z</time>
      </trkpt>
      <trkpt lat="42.46985" lon="2.92915">
        <ele>1004.5999755859</ele>
        <time>2023-07-12T12:20:41.000Z</time>
      </trkpt>
      <trkpt lat="42.46985" lon="2.92915">
        <ele>1004.4000244141</ele>
        <time>2023-07-12T12:20:42.000Z</time>
      </trkpt>
      <trkpt lat="42.46985" lon="2.92909">
        <ele>1004</ele>
        <time>2023-07-12T12:20:48.000Z</time>
      </trkpt>
      <trkpt lat="42.46984" lon="2.92906">
        <ele>1003.5999755859</ele>
        <time>2023-07-12T12:20:52.000Z</time>
      </trkpt>
      <trkpt lat="42.46981" lon="2.92903">
        <ele>1002.799987793</ele>
        <time>2023-07-12T12:20:57.000Z</time>
      </trkpt>
      <trkpt lat="42.4698" lon="2.92902">
        <ele>1002.4000244141</ele>
        <time>2023-07-12T12:20:58.000Z</time>
      </trkpt>
      <trkpt lat="42.46976" lon="2.92898">
        <ele>1001.4000244141</ele>
        <time>2023-07-12T12:21:05.000Z</time>
      </trkpt>
      <trkpt lat="42.46973" lon="2.92894">
        <ele>1000.4000244141</ele>
        <time>2023-07-12T12:21:10.000Z</time>
      </trkpt>
      <trkpt lat="42.46972" lon="2.92892">
        <ele>1000</ele>
        <time>2023-07-12T12:21:12.000Z</time>
      </trkpt>
      <trkpt lat="42.46968" lon="2.92887">
        <ele>999.20001220703</ele>
        <time>2023-07-12T12:21:16.000Z</time>
      </trkpt>
      <trkpt lat="42.46966" lon="2.92884">
        <ele>998.59997558594</ele>
        <time>2023-07-12T12:21:19.000Z</time>
      </trkpt>
      <trkpt lat="42.46965" lon="2.92883">
        <ele>998.20001220703</ele>
        <time>2023-07-12T12:21:21.000Z</time>
      </trkpt>
      <trkpt lat="42.46962" lon="2.92885">
        <ele>997.20001220703</ele>
        <time>2023-07-12T12:21:26.000Z</time>
      </trkpt>
      <trkpt lat="42.46962" lon="2.92886">
        <ele>997.20001220703</ele>
        <time>2023-07-12T12:21:27.000Z</time>
      </trkpt>
      <trkpt lat="42.46962" lon="2.9289">
        <ele>996.59997558594</ele>
        <time>2023-07-12T12:21:31.000Z</time>
      </trkpt>
      <trkpt lat="42.46962" lon="2.9289">
        <ele>996.40002441406</ele>
        <time>2023-07-12T12:21:33.000Z</time>
      </trkpt>
      <trkpt lat="42.46962" lon="2.92889">
        <ele>996.20001220703</ele>
        <time>2023-07-12T12:21:34.000Z</time>
      </trkpt>
      <trkpt lat="42.46962" lon="2.92886">
        <ele>996</ele>
        <time>2023-07-12T12:21:36.000Z</time>
      </trkpt>
      <trkpt lat="42.46959" lon="2.92879">
        <ele>995.59997558594</ele>
        <time>2023-07-12T12:21:40.000Z</time>
      </trkpt>
      <trkpt lat="42.46957" lon="2.92877">
        <ele>995</ele>
        <time>2023-07-12T12:21:43.000Z</time>
      </trkpt>
      <trkpt lat="42.46955" lon="2.92875">
        <ele>994.20001220703</ele>
        <time>2023-07-12T12:21:47.000Z</time>
      </trkpt>
      <trkpt lat="42.46954" lon="2.92874">
        <ele>993.79998779297</ele>
        <time>2023-07-12T12:21:48.000Z</time>
      </trkpt>
      <trkpt lat="42.4695" lon="2.92872">
        <ele>992.59997558594</ele>
        <time>2023-07-12T12:21:54.000Z</time>
      </trkpt>
      <trkpt lat="42.46943" lon="2.92872">
        <ele>991.59997558594</ele>
        <time>2023-07-12T12:21:59.000Z</time>
      </trkpt>
      <trkpt lat="42.46942" lon="2.92872">
        <ele>991.40002441406</ele>
        <time>2023-07-12T12:22:00.000Z</time>
      </trkpt>
      <trkpt lat="42.46939" lon="2.9287">
        <ele>990.59997558594</ele>
        <time>2023-07-12T12:22:05.000Z</time>
      </trkpt>
      <trkpt lat="42.46937" lon="2.92868">
        <ele>990</ele>
        <time>2023-07-12T12:22:08.000Z</time>
      </trkpt>
      <trkpt lat="42.46934" lon="2.92866">
        <ele>989.59997558594</ele>
        <time>2023-07-12T12:22:11.000Z</time>
      </trkpt>
      <trkpt lat="42.46931" lon="2.92864">
        <ele>988.59997558594</ele>
        <time>2023-07-12T12:22:16.000Z</time>
      </trkpt>
      <trkpt lat="42.46931" lon="2.92864">
        <ele>988.20001220703</ele>
        <time>2023-07-12T12:22:17.000Z</time>
      </trkpt>
      <trkpt lat="42.46929" lon="2.92864">
        <ele>987.20001220703</ele>
        <time>2023-07-12T12:22:22.000Z</time>
      </trkpt>
      <trkpt lat="42.46927" lon="2.92862">
        <ele>987</ele>
        <time>2023-07-12T12:22:23.000Z</time>
      </trkpt>
      <trkpt lat="42.46928" lon="2.92864">
        <ele>986.79998779297</ele>
        <time>2023-07-12T12:22:25.000Z</time>
      </trkpt>
      <trkpt lat="42.46919" lon="2.92857">
        <ele>985.40002441406</ele>
        <time>2023-07-12T12:22:35.000Z</time>
      </trkpt>
      <trkpt lat="42.46919" lon="2.92856">
        <ele>985</ele>
        <time>2023-07-12T12:22:37.000Z</time>
      </trkpt>
      <trkpt lat="42.46919" lon="2.92854">
        <ele>983.79998779297</ele>
        <time>2023-07-12T12:22:41.000Z</time>
      </trkpt>
      <trkpt lat="42.46919" lon="2.92853">
        <ele>983.79998779297</ele>
        <time>2023-07-12T12:22:42.000Z</time>
      </trkpt>
      <trkpt lat="42.46914" lon="2.9285">
        <ele>982.79998779297</ele>
        <time>2023-07-12T12:22:47.000Z</time>
      </trkpt>
      <trkpt lat="42.46912" lon="2.92847">
        <ele>982.40002441406</ele>
        <time>2023-07-12T12:22:49.000Z</time>
      </trkpt>
      <trkpt lat="42.46907" lon="2.92842">
        <ele>981.79998779297</ele>
        <time>2023-07-12T12:22:53.000Z</time>
      </trkpt>
      <trkpt lat="42.46905" lon="2.92841">
        <ele>981.20001220703</ele>
        <time>2023-07-12T12:22:55.000Z</time>
      </trkpt>
      <trkpt lat="42.46903" lon="2.92839">
        <ele>980.59997558594</ele>
        <time>2023-07-12T12:22:58.000Z</time>
      </trkpt>
      <trkpt lat="42.46898" lon="2.92834">
        <ele>979.59997558594</ele>
        <time>2023-07-12T12:23:03.000Z</time>
      </trkpt>
      <trkpt lat="42.46897" lon="2.92834">
        <ele>979.40002441406</ele>
        <time>2023-07-12T12:23:04.000Z</time>
      </trkpt>
      <trkpt lat="42.46889" lon="2.92831">
        <ele>978.40002441406</ele>
        <time>2023-07-12T12:23:10.000Z</time>
      </trkpt>
      <trkpt lat="42.46884" lon="2.92831">
        <ele>977.59997558594</ele>
        <time>2023-07-12T12:23:15.000Z</time>
      </trkpt>
      <trkpt lat="42.46881" lon="2.92831">
        <ele>977.20001220703</ele>
        <time>2023-07-12T12:23:17.000Z</time>
      </trkpt>
      <trkpt lat="42.46873" lon="2.92828">
        <ele>976.40002441406</ele>
        <time>2023-07-12T12:23:23.000Z</time>
      </trkpt>
      <trkpt lat="42.46872" lon="2.92827">
        <ele>976.20001220703</ele>
        <time>2023-07-12T12:23:24.000Z</time>
      </trkpt>
      <trkpt lat="42.46867" lon="2.92823">
        <ele>975.59997558594</ele>
        <time>2023-07-12T12:23:29.000Z</time>
      </trkpt>
      <trkpt lat="42.46866" lon="2.92819">
        <ele>975</ele>
        <time>2023-07-12T12:23:34.000Z</time>
      </trkpt>
      <trkpt lat="42.46865" lon="2.92817">
        <ele>975</ele>
        <time>2023-07-12T12:23:36.000Z</time>
      </trkpt>
      <trkpt lat="42.46857" lon="2.92807">
        <ele>974.20001220703</ele>
        <time>2023-07-12T12:23:44.000Z</time>
      </trkpt>
      <trkpt lat="42.46854" lon="2.92805">
        <ele>974</ele>
        <time>2023-07-12T12:23:47.000Z</time>
      </trkpt>
      <trkpt lat="42.46849" lon="2.92802">
        <ele>973.79998779297</ele>
        <time>2023-07-12T12:23:51.000Z</time>
      </trkpt>
      <trkpt lat="42.46839" lon="2.9279">
        <ele>973.59997558594</ele>
        <time>2023-07-12T12:24:01.000Z</time>
      </trkpt>
      <trkpt lat="42.46834" lon="2.92788">
        <ele>972.79998779297</ele>
        <time>2023-07-12T12:24:07.000Z</time>
      </trkpt>
      <trkpt lat="42.46824" lon="2.92783">
        <ele>971.79998779297</ele>
        <time>2023-07-12T12:24:14.000Z</time>
      </trkpt>
      <trkpt lat="42.46823" lon="2.92783">
        <ele>971.59997558594</ele>
        <time>2023-07-12T12:24:15.000Z</time>
      </trkpt>
      <trkpt lat="42.46816" lon="2.92782">
        <ele>970.79998779297</ele>
        <time>2023-07-12T12:24:22.000Z</time>
      </trkpt>
      <trkpt lat="42.46814" lon="2.92781">
        <ele>970.59997558594</ele>
        <time>2023-07-12T12:24:24.000Z</time>
      </trkpt>
      <trkpt lat="42.46808" lon="2.92774">
        <ele>969.59997558594</ele>
        <time>2023-07-12T12:24:31.000Z</time>
      </trkpt>
      <trkpt lat="42.46807" lon="2.92773">
        <ele>969.59997558594</ele>
        <time>2023-07-12T12:24:32.000Z</time>
      </trkpt>
      <trkpt lat="42.46798" lon="2.92766">
        <ele>968.59997558594</ele>
        <time>2023-07-12T12:24:40.000Z</time>
      </trkpt>
      <trkpt lat="42.46796" lon="2.92765">
        <ele>968.59997558594</ele>
        <time>2023-07-12T12:24:41.000Z</time>
      </trkpt>
      <trkpt lat="42.46787" lon="2.9276">
        <ele>967.79998779297</ele>
        <time>2023-07-12T12:24:49.000Z</time>
      </trkpt>
      <trkpt lat="42.46784" lon="2.92758">
        <ele>967.40002441406</ele>
        <time>2023-07-12T12:24:52.000Z</time>
      </trkpt>
      <trkpt lat="42.46779" lon="2.92756">
        <ele>967</ele>
        <time>2023-07-12T12:24:56.000Z</time>
      </trkpt>
      <trkpt lat="42.46771" lon="2.92749">
        <ele>966.40002441406</ele>
        <time>2023-07-12T12:25:03.000Z</time>
      </trkpt>
      <trkpt lat="42.46768" lon="2.92746">
        <ele>966.40002441406</ele>
        <time>2023-07-12T12:25:05.000Z</time>
      </trkpt>
      <trkpt lat="42.46763" lon="2.92744">
        <ele>965.79998779297</ele>
        <time>2023-07-12T12:25:10.000Z</time>
      </trkpt>
      <trkpt lat="42.46754" lon="2.9274">
        <ele>965.20001220703</ele>
        <time>2023-07-12T12:25:17.000Z</time>
      </trkpt>
      <trkpt lat="42.46746" lon="2.92729">
        <ele>964.79998779297</ele>
        <time>2023-07-12T12:25:25.000Z</time>
      </trkpt>
      <trkpt lat="42.4674" lon="2.92722">
        <ele>964.79998779297</ele>
        <time>2023-07-12T12:25:34.000Z</time>
      </trkpt>
      <trkpt lat="42.4673" lon="2.92709">
        <ele>965.59997558594</ele>
        <time>2023-07-12T12:25:44.000Z</time>
      </trkpt>
      <trkpt lat="42.46726" lon="2.92701">
        <ele>966.20001220703</ele>
        <time>2023-07-12T12:25:51.000Z</time>
      </trkpt>
      <trkpt lat="42.46724" lon="2.92698">
        <ele>966.40002441406</ele>
        <time>2023-07-12T12:25:53.000Z</time>
      </trkpt>
      <trkpt lat="42.4672" lon="2.92686">
        <ele>966.59997558594</ele>
        <time>2023-07-12T12:26:01.000Z</time>
      </trkpt>
      <trkpt lat="42.46714" lon="2.92674">
        <ele>966.20001220703</ele>
        <time>2023-07-12T12:26:09.000Z</time>
      </trkpt>
      <trkpt lat="42.46705" lon="2.92665">
        <ele>965.40002441406</ele>
        <time>2023-07-12T12:26:17.000Z</time>
      </trkpt>
      <trkpt lat="42.46698" lon="2.92662">
        <ele>965.59997558594</ele>
        <time>2023-07-12T12:26:24.000Z</time>
      </trkpt>
      <trkpt lat="42.4669" lon="2.92658">
        <ele>966</ele>
        <time>2023-07-12T12:26:32.000Z</time>
      </trkpt>
      <trkpt lat="42.46679" lon="2.92654">
        <ele>966</ele>
        <time>2023-07-12T12:26:40.000Z</time>
      </trkpt>
      <trkpt lat="42.46676" lon="2.92652">
        <ele>965.79998779297</ele>
        <time>2023-07-12T12:26:46.000Z</time>
      </trkpt>
      <trkpt lat="42.46665" lon="2.92645">
        <ele>965.79998779297</ele>
        <time>2023-07-12T12:26:56.000Z</time>
      </trkpt>
      <trkpt lat="42.46657" lon="2.92641">
        <ele>965.40002441406</ele>
        <time>2023-07-12T12:27:01.000Z</time>
      </trkpt>
      <trkpt lat="42.46649" lon="2.92635">
        <ele>965.20001220703</ele>
        <time>2023-07-12T12:27:07.000Z</time>
      </trkpt>
      <trkpt lat="42.46646" lon="2.92634">
        <ele>965.20001220703</ele>
        <time>2023-07-12T12:27:09.000Z</time>
      </trkpt>
      <trkpt lat="42.46632" lon="2.92628">
        <ele>964.59997558594</ele>
        <time>2023-07-12T12:27:20.000Z</time>
      </trkpt>
      <trkpt lat="42.46624" lon="2.92622">
        <ele>964.59997558594</ele>
        <time>2023-07-12T12:27:26.000Z</time>
      </trkpt>
      <trkpt lat="42.46617" lon="2.9262">
        <ele>964.40002441406</ele>
        <time>2023-07-12T12:27:34.000Z</time>
      </trkpt>
      <trkpt lat="42.46608" lon="2.92614">
        <ele>964.40002441406</ele>
        <time>2023-07-12T12:27:41.000Z</time>
      </trkpt>
      <trkpt lat="42.46599" lon="2.92606">
        <ele>964.40002441406</ele>
        <time>2023-07-12T12:27:51.000Z</time>
      </trkpt>
      <trkpt lat="42.46595" lon="2.92603">
        <ele>964.20001220703</ele>
        <time>2023-07-12T12:28:02.000Z</time>
      </trkpt>
      <trkpt lat="42.46589" lon="2.92596">
        <ele>964</ele>
        <time>2023-07-12T12:28:09.000Z</time>
      </trkpt>
      <trkpt lat="42.4658" lon="2.92591">
        <ele>963.20001220703</ele>
        <time>2023-07-12T12:28:16.000Z</time>
      </trkpt>
      <trkpt lat="42.46579" lon="2.9259">
        <ele>963</ele>
        <time>2023-07-12T12:28:17.000Z</time>
      </trkpt>
      <trkpt lat="42.46571" lon="2.92585">
        <ele>962.40002441406</ele>
        <time>2023-07-12T12:28:25.000Z</time>
      </trkpt>
      <trkpt lat="42.46568" lon="2.92582">
        <ele>962.20001220703</ele>
        <time>2023-07-12T12:28:27.000Z</time>
      </trkpt>
      <trkpt lat="42.46564" lon="2.92574">
        <ele>961.79998779297</ele>
        <time>2023-07-12T12:28:33.000Z</time>
      </trkpt>
      <trkpt lat="42.46555" lon="2.92566">
        <ele>961.40002441406</ele>
        <time>2023-07-12T12:28:41.000Z</time>
      </trkpt>
      <trkpt lat="42.46553" lon="2.92563">
        <ele>961</ele>
        <time>2023-07-12T12:28:44.000Z</time>
      </trkpt>
      <trkpt lat="42.46547" lon="2.92555">
        <ele>960.20001220703</ele>
        <time>2023-07-12T12:28:50.000Z</time>
      </trkpt>
      <trkpt lat="42.46546" lon="2.92554">
        <ele>960</ele>
        <time>2023-07-12T12:28:51.000Z</time>
      </trkpt>
      <trkpt lat="42.4654" lon="2.92551">
        <ele>958.79998779297</ele>
        <time>2023-07-12T12:28:55.000Z</time>
      </trkpt>
      <trkpt lat="42.46538" lon="2.9255">
        <ele>958.40002441406</ele>
        <time>2023-07-12T12:28:57.000Z</time>
      </trkpt>
      <trkpt lat="42.46536" lon="2.92548">
        <ele>957.79998779297</ele>
        <time>2023-07-12T12:29:00.000Z</time>
      </trkpt>
      <trkpt lat="42.46531" lon="2.92544">
        <ele>956.79998779297</ele>
        <time>2023-07-12T12:29:04.000Z</time>
      </trkpt>
      <trkpt lat="42.4653" lon="2.92543">
        <ele>956.59997558594</ele>
        <time>2023-07-12T12:29:05.000Z</time>
      </trkpt>
      <trkpt lat="42.46526" lon="2.9254">
        <ele>955.40002441406</ele>
        <time>2023-07-12T12:29:10.000Z</time>
      </trkpt>
      <trkpt lat="42.46525" lon="2.9254">
        <ele>955.40002441406</ele>
        <time>2023-07-12T12:29:11.000Z</time>
      </trkpt>
      <trkpt lat="42.46517" lon="2.92533">
        <ele>954.40002441406</ele>
        <time>2023-07-12T12:29:19.000Z</time>
      </trkpt>
      <trkpt lat="42.46508" lon="2.9253">
        <ele>954.20001220703</ele>
        <time>2023-07-12T12:29:26.000Z</time>
      </trkpt>
      <trkpt lat="42.46498" lon="2.92521">
        <ele>954.40002441406</ele>
        <time>2023-07-12T12:29:34.000Z</time>
      </trkpt>
      <trkpt lat="42.46491" lon="2.92517">
        <ele>953.79998779297</ele>
        <time>2023-07-12T12:29:41.000Z</time>
      </trkpt>
      <trkpt lat="42.46487" lon="2.92515">
        <ele>953.40002441406</ele>
        <time>2023-07-12T12:29:43.000Z</time>
      </trkpt>
      <trkpt lat="42.46481" lon="2.92513">
        <ele>952.40002441406</ele>
        <time>2023-07-12T12:29:48.000Z</time>
      </trkpt>
      <trkpt lat="42.4648" lon="2.92513">
        <ele>952.20001220703</ele>
        <time>2023-07-12T12:29:49.000Z</time>
      </trkpt>
      <trkpt lat="42.46474" lon="2.9251">
        <ele>951.20001220703</ele>
        <time>2023-07-12T12:29:55.000Z</time>
      </trkpt>
      <trkpt lat="42.46472" lon="2.92509">
        <ele>951</ele>
        <time>2023-07-12T12:29:56.000Z</time>
      </trkpt>
      <trkpt lat="42.46468" lon="2.92509">
        <ele>950</ele>
        <time>2023-07-12T12:30:00.000Z</time>
      </trkpt>
      <trkpt lat="42.46464" lon="2.92506">
        <ele>949.59997558594</ele>
        <time>2023-07-12T12:30:03.000Z</time>
      </trkpt>
      <trkpt lat="42.46459" lon="2.92501">
        <ele>949</ele>
        <time>2023-07-12T12:30:07.000Z</time>
      </trkpt>
      <trkpt lat="42.46453" lon="2.92496">
        <ele>948.59997558594</ele>
        <time>2023-07-12T12:30:13.000Z</time>
      </trkpt>
      <trkpt lat="42.46446" lon="2.92486">
        <ele>948.59997558594</ele>
        <time>2023-07-12T12:30:22.000Z</time>
      </trkpt>
      <trkpt lat="42.46439" lon="2.92478">
        <ele>948.79998779297</ele>
        <time>2023-07-12T12:30:31.000Z</time>
      </trkpt>
      <trkpt lat="42.4643" lon="2.92467">
        <ele>949.40002441406</ele>
        <time>2023-07-12T12:30:40.000Z</time>
      </trkpt>
      <trkpt lat="42.46423" lon="2.92464">
        <ele>949.79998779297</ele>
        <time>2023-07-12T12:30:47.000Z</time>
      </trkpt>
      <trkpt lat="42.46415" lon="2.92459">
        <ele>950</ele>
        <time>2023-07-12T12:30:54.000Z</time>
      </trkpt>
      <trkpt lat="42.46404" lon="2.92457">
        <ele>949.20001220703</ele>
        <time>2023-07-12T12:31:04.000Z</time>
      </trkpt>
      <trkpt lat="42.46395" lon="2.92463">
        <ele>949.20001220703</ele>
        <time>2023-07-12T12:31:10.000Z</time>
      </trkpt>
      <trkpt lat="42.46391" lon="2.92468">
        <ele>949.59997558594</ele>
        <time>2023-07-12T12:31:17.000Z</time>
      </trkpt>
      <trkpt lat="42.46387" lon="2.9247">
        <ele>950.20001220703</ele>
        <time>2023-07-12T12:31:21.000Z</time>
      </trkpt>
      <trkpt lat="42.46383" lon="2.92472">
        <ele>950.40002441406</ele>
        <time>2023-07-12T12:31:25.000Z</time>
      </trkpt>
      <trkpt lat="42.46377" lon="2.92473">
        <ele>950.20001220703</ele>
        <time>2023-07-12T12:31:33.000Z</time>
      </trkpt>
      <trkpt lat="42.46368" lon="2.92472">
        <ele>949.20001220703</ele>
        <time>2023-07-12T12:31:40.000Z</time>
      </trkpt>
      <trkpt lat="42.46367" lon="2.92471">
        <ele>949</ele>
        <time>2023-07-12T12:31:42.000Z</time>
      </trkpt>
      <trkpt lat="42.46363" lon="2.9247">
        <ele>948.20001220703</ele>
        <time>2023-07-12T12:31:47.000Z</time>
      </trkpt>
      <trkpt lat="42.46361" lon="2.92471">
        <ele>947.79998779297</ele>
        <time>2023-07-12T12:31:50.000Z</time>
      </trkpt>
      <trkpt lat="42.46359" lon="2.92475">
        <ele>947.59997558594</ele>
        <time>2023-07-12T12:31:53.000Z</time>
      </trkpt>
      <trkpt lat="42.46357" lon="2.9248">
        <ele>947.20001220703</ele>
        <time>2023-07-12T12:31:57.000Z</time>
      </trkpt>
      <trkpt lat="42.46356" lon="2.92481">
        <ele>947</ele>
        <time>2023-07-12T12:31:58.000Z</time>
      </trkpt>
      <trkpt lat="42.46352" lon="2.92483">
        <ele>946</ele>
        <time>2023-07-12T12:32:04.000Z</time>
      </trkpt>
      <trkpt lat="42.46351" lon="2.92484">
        <ele>945</ele>
        <time>2023-07-12T12:32:10.000Z</time>
      </trkpt>
      <trkpt lat="42.46351" lon="2.92486">
        <ele>944.59997558594</ele>
        <time>2023-07-12T12:32:13.000Z</time>
      </trkpt>
      <trkpt lat="42.46348" lon="2.92487">
        <ele>944</ele>
        <time>2023-07-12T12:32:21.000Z</time>
      </trkpt>
      <trkpt lat="42.46338" lon="2.92492">
        <ele>943</ele>
        <time>2023-07-12T12:32:29.000Z</time>
      </trkpt>
      <trkpt lat="42.46335" lon="2.92495">
        <ele>942.79998779297</ele>
        <time>2023-07-12T12:32:31.000Z</time>
      </trkpt>
      <trkpt lat="42.46333" lon="2.92495">
        <ele>942.20001220703</ele>
        <time>2023-07-12T12:32:36.000Z</time>
      </trkpt>
      <trkpt lat="42.46334" lon="2.92492">
        <ele>941.79998779297</ele>
        <time>2023-07-12T12:32:41.000Z</time>
      </trkpt>
      <trkpt lat="42.46334" lon="2.92492">
        <ele>941.79998779297</ele>
        <time>2023-07-12T12:32:44.000Z</time>
      </trkpt>
      <trkpt lat="42.46336" lon="2.92494">
        <ele>941.79998779297</ele>
        <time>2023-07-12T12:32:52.000Z</time>
      </trkpt>
      <trkpt lat="42.46336" lon="2.92493">
        <ele>941.79998779297</ele>
        <time>2023-07-12T12:32:56.000Z</time>
      </trkpt>
      <trkpt lat="42.46335" lon="2.92496">
        <ele>941.59997558594</ele>
        <time>2023-07-12T12:33:02.000Z</time>
      </trkpt>
      <trkpt lat="42.46333" lon="2.92497">
        <ele>941.59997558594</ele>
        <time>2023-07-12T12:33:10.000Z</time>
      </trkpt>
      <trkpt lat="42.4633" lon="2.92502">
        <ele>941.40002441406</ele>
        <time>2023-07-12T12:33:17.000Z</time>
      </trkpt>
      <trkpt lat="42.46329" lon="2.92501">
        <ele>941.40002441406</ele>
        <time>2023-07-12T12:33:18.000Z</time>
      </trkpt>
      <trkpt lat="42.46322" lon="2.92501">
        <ele>941.20001220703</ele>
        <time>2023-07-12T12:33:24.000Z</time>
      </trkpt>
      <trkpt lat="42.46321" lon="2.92502">
        <ele>941</ele>
        <time>2023-07-12T12:33:29.000Z</time>
      </trkpt>
      <trkpt lat="42.46321" lon="2.92503">
        <ele>941</ele>
        <time>2023-07-12T12:33:31.000Z</time>
      </trkpt>
      <trkpt lat="42.46319" lon="2.92504">
        <ele>941.20001220703</ele>
        <time>2023-07-12T12:33:35.000Z</time>
      </trkpt>
      <trkpt lat="42.46312" lon="2.92506">
        <ele>941.59997558594</ele>
        <time>2023-07-12T12:33:42.000Z</time>
      </trkpt>
      <trkpt lat="42.46307" lon="2.9251">
        <ele>942.79998779297</ele>
        <time>2023-07-12T12:33:51.000Z</time>
      </trkpt>
      <trkpt lat="42.46307" lon="2.9251">
        <ele>942.79998779297</ele>
        <time>2023-07-12T12:33:52.000Z</time>
      </trkpt>
      <trkpt lat="42.46307" lon="2.9251">
        <ele>943</ele>
        <time>2023-07-12T12:33:55.000Z</time>
      </trkpt>
      <trkpt lat="42.46307" lon="2.92508">
        <ele>943.20001220703</ele>
        <time>2023-07-12T12:34:00.000Z</time>
      </trkpt>
      <trkpt lat="42.46309" lon="2.92504">
        <ele>943.20001220703</ele>
        <time>2023-07-12T12:34:06.000Z</time>
      </trkpt>
      <trkpt lat="42.46309" lon="2.92506">
        <ele>943</ele>
        <time>2023-07-12T12:34:14.000Z</time>
      </trkpt>
      <trkpt lat="42.46305" lon="2.92509">
        <ele>943</ele>
        <time>2023-07-12T12:34:20.000Z</time>
      </trkpt>
      <trkpt lat="42.46299" lon="2.92511">
        <ele>943</ele>
        <time>2023-07-12T12:34:26.000Z</time>
      </trkpt>
      <trkpt lat="42.46292" lon="2.92514">
        <ele>942.20001220703</ele>
        <time>2023-07-12T12:34:33.000Z</time>
      </trkpt>
      <trkpt lat="42.46284" lon="2.92517">
        <ele>941.79998779297</ele>
        <time>2023-07-12T12:34:41.000Z</time>
      </trkpt>
      <trkpt lat="42.46278" lon="2.92518">
        <ele>940.79998779297</ele>
        <time>2023-07-12T12:34:48.000Z</time>
      </trkpt>
      <trkpt lat="42.46278" lon="2.92518">
        <ele>940.59997558594</ele>
        <time>2023-07-12T12:34:50.000Z</time>
      </trkpt>
      <trkpt lat="42.46275" lon="2.92522">
        <ele>940.20001220703</ele>
        <time>2023-07-12T12:34:55.000Z</time>
      </trkpt>
      <trkpt lat="42.46273" lon="2.92525">
        <ele>940</ele>
        <time>2023-07-12T12:34:57.000Z</time>
      </trkpt>
      <trkpt lat="42.46271" lon="2.92527">
        <ele>939.59997558594</ele>
        <time>2023-07-12T12:35:00.000Z</time>
      </trkpt>
      <trkpt lat="42.4627" lon="2.92528">
        <ele>938.79998779297</ele>
        <time>2023-07-12T12:35:06.000Z</time>
      </trkpt>
      <trkpt lat="42.46269" lon="2.92529">
        <ele>938.59997558594</ele>
        <time>2023-07-12T12:35:08.000Z</time>
      </trkpt>
      <trkpt lat="42.46267" lon="2.92527">
        <ele>937.59997558594</ele>
        <time>2023-07-12T12:35:15.000Z</time>
      </trkpt>
      <trkpt lat="42.46267" lon="2.92527">
        <ele>937.40002441406</ele>
        <time>2023-07-12T12:35:16.000Z</time>
      </trkpt>
      <trkpt lat="42.46269" lon="2.9252">
        <ele>937.40002441406</ele>
        <time>2023-07-12T12:35:24.000Z</time>
      </trkpt>
      <trkpt lat="42.46266" lon="2.92518">
        <ele>937.20001220703</ele>
        <time>2023-07-12T12:35:32.000Z</time>
      </trkpt>
      <trkpt lat="42.4626" lon="2.92519">
        <ele>936.40002441406</ele>
        <time>2023-07-12T12:35:37.000Z</time>
      </trkpt>
      <trkpt lat="42.46259" lon="2.92521">
        <ele>935.79998779297</ele>
        <time>2023-07-12T12:35:40.000Z</time>
      </trkpt>
      <trkpt lat="42.46258" lon="2.9252">
        <ele>935.40002441406</ele>
        <time>2023-07-12T12:35:43.000Z</time>
      </trkpt>
      <trkpt lat="42.46255" lon="2.92517">
        <ele>934.40002441406</ele>
        <time>2023-07-12T12:35:49.000Z</time>
      </trkpt>
      <trkpt lat="42.46252" lon="2.92517">
        <ele>933.20001220703</ele>
        <time>2023-07-12T12:35:55.000Z</time>
      </trkpt>
      <trkpt lat="42.4625" lon="2.92518">
        <ele>932.79998779297</ele>
        <time>2023-07-12T12:35:58.000Z</time>
      </trkpt>
      <trkpt lat="42.46249" lon="2.9252">
        <ele>932.20001220703</ele>
        <time>2023-07-12T12:36:01.000Z</time>
      </trkpt>
      <trkpt lat="42.46246" lon="2.92518">
        <ele>931</ele>
        <time>2023-07-12T12:36:06.000Z</time>
      </trkpt>
      <trkpt lat="42.4624" lon="2.92511">
        <ele>929.79998779297</ele>
        <time>2023-07-12T12:36:12.000Z</time>
      </trkpt>
      <trkpt lat="42.46236" lon="2.92511">
        <ele>928.59997558594</ele>
        <time>2023-07-12T12:36:17.000Z</time>
      </trkpt>
      <trkpt lat="42.46234" lon="2.92511">
        <ele>928.20001220703</ele>
        <time>2023-07-12T12:36:19.000Z</time>
      </trkpt>
      <trkpt lat="42.4623" lon="2.92512">
        <ele>927.40002441406</ele>
        <time>2023-07-12T12:36:23.000Z</time>
      </trkpt>
      <trkpt lat="42.46226" lon="2.92513">
        <ele>926.40002441406</ele>
        <time>2023-07-12T12:36:28.000Z</time>
      </trkpt>
      <trkpt lat="42.46225" lon="2.92513">
        <ele>926.20001220703</ele>
        <time>2023-07-12T12:36:29.000Z</time>
      </trkpt>
      <trkpt lat="42.46223" lon="2.92513">
        <ele>925.40002441406</ele>
        <time>2023-07-12T12:36:37.000Z</time>
      </trkpt>
      <trkpt lat="42.46222" lon="2.92513">
        <ele>925</ele>
        <time>2023-07-12T12:36:39.000Z</time>
      </trkpt>
      <trkpt lat="42.46221" lon="2.92515">
        <ele>924.20001220703</ele>
        <time>2023-07-12T12:36:43.000Z</time>
      </trkpt>
      <trkpt lat="42.46218" lon="2.92517">
        <ele>923.20001220703</ele>
        <time>2023-07-12T12:36:48.000Z</time>
      </trkpt>
      <trkpt lat="42.46217" lon="2.92517">
        <ele>923</ele>
        <time>2023-07-12T12:36:50.000Z</time>
      </trkpt>
      <trkpt lat="42.46217" lon="2.92515">
        <ele>922.59997558594</ele>
        <time>2023-07-12T12:36:58.000Z</time>
      </trkpt>
      <trkpt lat="42.46214" lon="2.92513">
        <ele>922.20001220703</ele>
        <time>2023-07-12T12:37:01.000Z</time>
      </trkpt>
      <trkpt lat="42.46211" lon="2.92514">
        <ele>921.20001220703</ele>
        <time>2023-07-12T12:37:06.000Z</time>
      </trkpt>
      <trkpt lat="42.46211" lon="2.92514">
        <ele>921.20001220703</ele>
        <time>2023-07-12T12:37:07.000Z</time>
      </trkpt>
      <trkpt lat="42.46207" lon="2.92513">
        <ele>920</ele>
        <time>2023-07-12T12:37:12.000Z</time>
      </trkpt>
      <trkpt lat="42.46205" lon="2.92512">
        <ele>919.59997558594</ele>
        <time>2023-07-12T12:37:15.000Z</time>
      </trkpt>
      <trkpt lat="42.46204" lon="2.92512">
        <ele>919</ele>
        <time>2023-07-12T12:37:18.000Z</time>
      </trkpt>
      <trkpt lat="42.46203" lon="2.92513">
        <ele>918.59997558594</ele>
        <time>2023-07-12T12:37:20.000Z</time>
      </trkpt>
      <trkpt lat="42.46203" lon="2.92513">
        <ele>918.20001220703</ele>
        <time>2023-07-12T12:37:22.000Z</time>
      </trkpt>
      <trkpt lat="42.46195" lon="2.92516">
        <ele>918</ele>
        <time>2023-07-12T12:37:31.000Z</time>
      </trkpt>
      <trkpt lat="42.46198" lon="2.92512">
        <ele>918</ele>
        <time>2023-07-12T12:37:40.000Z</time>
      </trkpt>
      <trkpt lat="42.46198" lon="2.92513">
        <ele>918</ele>
        <time>2023-07-12T12:37:44.000Z</time>
      </trkpt>
      <trkpt lat="42.46198" lon="2.92514">
        <ele>917.20001220703</ele>
        <time>2023-07-12T12:37:49.000Z</time>
      </trkpt>
      <trkpt lat="42.46197" lon="2.92514">
        <ele>917</ele>
        <time>2023-07-12T12:37:50.000Z</time>
      </trkpt>
      <trkpt lat="42.46195" lon="2.92512">
        <ele>915.79998779297</ele>
        <time>2023-07-12T12:37:54.000Z</time>
      </trkpt>
      <trkpt lat="42.46193" lon="2.9251">
        <ele>915.40002441406</ele>
        <time>2023-07-12T12:37:57.000Z</time>
      </trkpt>
      <trkpt lat="42.46191" lon="2.92505">
        <ele>914.79998779297</ele>
        <time>2023-07-12T12:38:01.000Z</time>
      </trkpt>
      <trkpt lat="42.46189" lon="2.92501">
        <ele>914.20001220703</ele>
        <time>2023-07-12T12:38:04.000Z</time>
      </trkpt>
      <trkpt lat="42.46187" lon="2.92499">
        <ele>913.79998779297</ele>
        <time>2023-07-12T12:38:07.000Z</time>
      </trkpt>
      <trkpt lat="42.46183" lon="2.92494">
        <ele>912.59997558594</ele>
        <time>2023-07-12T12:38:12.000Z</time>
      </trkpt>
      <trkpt lat="42.46183" lon="2.92494">
        <ele>912.40002441406</ele>
        <time>2023-07-12T12:38:13.000Z</time>
      </trkpt>
      <trkpt lat="42.46181" lon="2.92493">
        <ele>911.59997558594</ele>
        <time>2023-07-12T12:38:17.000Z</time>
      </trkpt>
      <trkpt lat="42.4618" lon="2.92492">
        <ele>910.40002441406</ele>
        <time>2023-07-12T12:38:23.000Z</time>
      </trkpt>
      <trkpt lat="42.46175" lon="2.92489">
        <ele>909.20001220703</ele>
        <time>2023-07-12T12:38:29.000Z</time>
      </trkpt>
      <trkpt lat="42.46173" lon="2.92488">
        <ele>908.59997558594</ele>
        <time>2023-07-12T12:38:32.000Z</time>
      </trkpt>
      <trkpt lat="42.46172" lon="2.92487">
        <ele>908.20001220703</ele>
        <time>2023-07-12T12:38:34.000Z</time>
      </trkpt>
      <trkpt lat="42.4617" lon="2.92487">
        <ele>907</ele>
        <time>2023-07-12T12:38:39.000Z</time>
      </trkpt>
      <trkpt lat="42.46169" lon="2.92486">
        <ele>906.40002441406</ele>
        <time>2023-07-12T12:38:42.000Z</time>
      </trkpt>
      <trkpt lat="42.46166" lon="2.92484">
        <ele>905.79998779297</ele>
        <time>2023-07-12T12:38:45.000Z</time>
      </trkpt>
      <trkpt lat="42.46161" lon="2.92483">
        <ele>904.79998779297</ele>
        <time>2023-07-12T12:38:50.000Z</time>
      </trkpt>
      <trkpt lat="42.46161" lon="2.92483">
        <ele>904.59997558594</ele>
        <time>2023-07-12T12:38:51.000Z</time>
      </trkpt>
      <trkpt lat="42.46151" lon="2.92487">
        <ele>903.59997558594</ele>
        <time>2023-07-12T12:38:57.000Z</time>
      </trkpt>
      <trkpt lat="42.46149" lon="2.92487">
        <ele>903.59997558594</ele>
        <time>2023-07-12T12:38:58.000Z</time>
      </trkpt>
      <trkpt lat="42.46145" lon="2.92489">
        <ele>903.20001220703</ele>
        <time>2023-07-12T12:39:03.000Z</time>
      </trkpt>
      <trkpt lat="42.46142" lon="2.92489">
        <ele>902.59997558594</ele>
        <time>2023-07-12T12:39:08.000Z</time>
      </trkpt>
      <trkpt lat="42.46141" lon="2.92489">
        <ele>902.40002441406</ele>
        <time>2023-07-12T12:39:09.000Z</time>
      </trkpt>
      <trkpt lat="42.46136" lon="2.9249">
        <ele>901.59997558594</ele>
        <time>2023-07-12T12:39:16.000Z</time>
      </trkpt>
      <trkpt lat="42.4613" lon="2.92495">
        <ele>900.40002441406</ele>
        <time>2023-07-12T12:39:24.000Z</time>
      </trkpt>
      <trkpt lat="42.46129" lon="2.92496">
        <ele>900.40002441406</ele>
        <time>2023-07-12T12:39:25.000Z</time>
      </trkpt>
      <trkpt lat="42.4612" lon="2.92508">
        <ele>899.59997558594</ele>
        <time>2023-07-12T12:39:34.000Z</time>
      </trkpt>
      <trkpt lat="42.46117" lon="2.9251">
        <ele>899.40002441406</ele>
        <time>2023-07-12T12:39:36.000Z</time>
      </trkpt>
      <trkpt lat="42.46109" lon="2.92512">
        <ele>898.40002441406</ele>
        <time>2023-07-12T12:39:43.000Z</time>
      </trkpt>
      <trkpt lat="42.46103" lon="2.92504">
        <ele>897.40002441406</ele>
        <time>2023-07-12T12:39:51.000Z</time>
      </trkpt>
      <trkpt lat="42.46102" lon="2.92502">
        <ele>897.40002441406</ele>
        <time>2023-07-12T12:39:52.000Z</time>
      </trkpt>
      <trkpt lat="42.46098" lon="2.92496">
        <ele>896.59997558594</ele>
        <time>2023-07-12T12:39:59.000Z</time>
      </trkpt>
      <trkpt lat="42.46097" lon="2.92493">
        <ele>896.20001220703</ele>
        <time>2023-07-12T12:40:02.000Z</time>
      </trkpt>
      <trkpt lat="42.46092" lon="2.92484">
        <ele>896.20001220703</ele>
        <time>2023-07-12T12:40:11.000Z</time>
      </trkpt>
      <trkpt lat="42.46087" lon="2.92474">
        <ele>895.59997558594</ele>
        <time>2023-07-12T12:40:20.000Z</time>
      </trkpt>
      <trkpt lat="42.46086" lon="2.92472">
        <ele>895</ele>
        <time>2023-07-12T12:40:23.000Z</time>
      </trkpt>
      <trkpt lat="42.46084" lon="2.9247">
        <ele>894.40002441406</ele>
        <time>2023-07-12T12:40:27.000Z</time>
      </trkpt>
      <trkpt lat="42.46082" lon="2.92463">
        <ele>894</ele>
        <time>2023-07-12T12:40:31.000Z</time>
      </trkpt>
      <trkpt lat="42.46081" lon="2.9246">
        <ele>893.40002441406</ele>
        <time>2023-07-12T12:40:34.000Z</time>
      </trkpt>
      <trkpt lat="42.46078" lon="2.92454">
        <ele>893</ele>
        <time>2023-07-12T12:40:37.000Z</time>
      </trkpt>
      <trkpt lat="42.46075" lon="2.9245">
        <ele>892.59997558594</ele>
        <time>2023-07-12T12:40:40.000Z</time>
      </trkpt>
      <trkpt lat="42.46072" lon="2.92446">
        <ele>891.79998779297</ele>
        <time>2023-07-12T12:40:44.000Z</time>
      </trkpt>
      <trkpt lat="42.4607" lon="2.92442">
        <ele>891</ele>
        <time>2023-07-12T12:40:48.000Z</time>
      </trkpt>
      <trkpt lat="42.4607" lon="2.92441">
        <ele>890.79998779297</ele>
        <time>2023-07-12T12:40:49.000Z</time>
      </trkpt>
      <trkpt lat="42.46068" lon="2.92434">
        <ele>889.59997558594</ele>
        <time>2023-07-12T12:40:54.000Z</time>
      </trkpt>
      <trkpt lat="42.46067" lon="2.92432">
        <ele>889.20001220703</ele>
        <time>2023-07-12T12:40:56.000Z</time>
      </trkpt>
      <trkpt lat="42.46066" lon="2.92427">
        <ele>888.40002441406</ele>
        <time>2023-07-12T12:41:02.000Z</time>
      </trkpt>
      <trkpt lat="42.46065" lon="2.92426">
        <ele>887.79998779297</ele>
        <time>2023-07-12T12:41:05.000Z</time>
      </trkpt>
      <trkpt lat="42.46066" lon="2.92423">
        <ele>887.40002441406</ele>
        <time>2023-07-12T12:41:08.000Z</time>
      </trkpt>
      <trkpt lat="42.46067" lon="2.92417">
        <ele>887</ele>
        <time>2023-07-12T12:41:10.000Z</time>
      </trkpt>
      <trkpt lat="42.46068" lon="2.92416">
        <ele>886.79998779297</ele>
        <time>2023-07-12T12:41:11.000Z</time>
      </trkpt>
      <trkpt lat="42.46069" lon="2.92416">
        <ele>886.40002441406</ele>
        <time>2023-07-12T12:41:20.000Z</time>
      </trkpt>
      <trkpt lat="42.46072" lon="2.92408">
        <ele>886.40002441406</ele>
        <time>2023-07-12T12:41:28.000Z</time>
      </trkpt>
      <trkpt lat="42.46071" lon="2.92405">
        <ele>886.20001220703</ele>
        <time>2023-07-12T12:41:31.000Z</time>
      </trkpt>
      <trkpt lat="42.46067" lon="2.92399">
        <ele>885.40002441406</ele>
        <time>2023-07-12T12:41:38.000Z</time>
      </trkpt>
      <trkpt lat="42.46066" lon="2.92399">
        <ele>885.20001220703</ele>
        <time>2023-07-12T12:41:39.000Z</time>
      </trkpt>
      <trkpt lat="42.4606" lon="2.92396">
        <ele>884.20001220703</ele>
        <time>2023-07-12T12:41:48.000Z</time>
      </trkpt>
      <trkpt lat="42.46058" lon="2.92395">
        <ele>883</ele>
        <time>2023-07-12T12:41:54.000Z</time>
      </trkpt>
      <trkpt lat="42.46057" lon="2.92396">
        <ele>882.59997558594</ele>
        <time>2023-07-12T12:41:56.000Z</time>
      </trkpt>
      <trkpt lat="42.46057" lon="2.92393">
        <ele>882</ele>
        <time>2023-07-12T12:42:02.000Z</time>
      </trkpt>
      <trkpt lat="42.46056" lon="2.92393">
        <ele>882</ele>
        <time>2023-07-12T12:42:04.000Z</time>
      </trkpt>
      <trkpt lat="42.46052" lon="2.92385">
        <ele>881.40002441406</ele>
        <time>2023-07-12T12:42:12.000Z</time>
      </trkpt>
      <trkpt lat="42.46051" lon="2.92385">
        <ele>881</ele>
        <time>2023-07-12T12:42:14.000Z</time>
      </trkpt>
      <trkpt lat="42.46047" lon="2.92381">
        <ele>880.59997558594</ele>
        <time>2023-07-12T12:42:18.000Z</time>
      </trkpt>
      <trkpt lat="42.4604" lon="2.92376">
        <ele>880</ele>
        <time>2023-07-12T12:42:27.000Z</time>
      </trkpt>
      <trkpt lat="42.46029" lon="2.92373">
        <ele>879</ele>
        <time>2023-07-12T12:42:41.000Z</time>
      </trkpt>
      <trkpt lat="42.46029" lon="2.92373">
        <ele>878.79998779297</ele>
        <time>2023-07-12T12:42:42.000Z</time>
      </trkpt>
      <trkpt lat="42.46028" lon="2.9237">
        <ele>878.40002441406</ele>
        <time>2023-07-12T12:42:51.000Z</time>
      </trkpt>
      <trkpt lat="42.46027" lon="2.92367">
        <ele>877.79998779297</ele>
        <time>2023-07-12T12:42:57.000Z</time>
      </trkpt>
      <trkpt lat="42.46027" lon="2.92365">
        <ele>877.40002441406</ele>
        <time>2023-07-12T12:42:59.000Z</time>
      </trkpt>
      <trkpt lat="42.46023" lon="2.9236">
        <ele>876.79998779297</ele>
        <time>2023-07-12T12:43:04.000Z</time>
      </trkpt>
      <trkpt lat="42.46018" lon="2.92356">
        <ele>876</ele>
        <time>2023-07-12T12:43:09.000Z</time>
      </trkpt>
      <trkpt lat="42.46016" lon="2.92355">
        <ele>875.79998779297</ele>
        <time>2023-07-12T12:43:12.000Z</time>
      </trkpt>
      <trkpt lat="42.45991" lon="2.92352">
        <ele>874.79998779297</ele>
        <time>2023-07-12T12:43:35.000Z</time>
      </trkpt>
      <trkpt lat="42.45988" lon="2.9235">
        <ele>873.79998779297</ele>
        <time>2023-07-12T12:43:42.000Z</time>
      </trkpt>
      <trkpt lat="42.45988" lon="2.92349">
        <ele>873.59997558594</ele>
        <time>2023-07-12T12:43:44.000Z</time>
      </trkpt>
      <trkpt lat="42.45989" lon="2.92346">
        <ele>872.59997558594</ele>
        <time>2023-07-12T12:43:51.000Z</time>
      </trkpt>
      <trkpt lat="42.45988" lon="2.92346">
        <ele>872.40002441406</ele>
        <time>2023-07-12T12:43:52.000Z</time>
      </trkpt>
      <trkpt lat="42.45984" lon="2.9234">
        <ele>872</ele>
        <time>2023-07-12T12:43:58.000Z</time>
      </trkpt>
      <trkpt lat="42.4598" lon="2.92337">
        <ele>871.40002441406</ele>
        <time>2023-07-12T12:44:01.000Z</time>
      </trkpt>
      <trkpt lat="42.45976" lon="2.9233">
        <ele>871</ele>
        <time>2023-07-12T12:44:05.000Z</time>
      </trkpt>
      <trkpt lat="42.45974" lon="2.92327">
        <ele>870.79998779297</ele>
        <time>2023-07-12T12:44:13.000Z</time>
      </trkpt>
      <trkpt lat="42.45973" lon="2.92325">
        <ele>870.40002441406</ele>
        <time>2023-07-12T12:44:15.000Z</time>
      </trkpt>
      <trkpt lat="42.45973" lon="2.9232">
        <ele>869.79998779297</ele>
        <time>2023-07-12T12:44:20.000Z</time>
      </trkpt>
      <trkpt lat="42.45973" lon="2.92318">
        <ele>869.40002441406</ele>
        <time>2023-07-12T12:44:22.000Z</time>
      </trkpt>
      <trkpt lat="42.45969" lon="2.92313">
        <ele>868.40002441406</ele>
        <time>2023-07-12T12:44:28.000Z</time>
      </trkpt>
      <trkpt lat="42.45961" lon="2.92309">
        <ele>867.20001220703</ele>
        <time>2023-07-12T12:44:34.000Z</time>
      </trkpt>
      <trkpt lat="42.45959" lon="2.92308">
        <ele>867</ele>
        <time>2023-07-12T12:44:36.000Z</time>
      </trkpt>
      <trkpt lat="42.45955" lon="2.92305">
        <ele>866.20001220703</ele>
        <time>2023-07-12T12:44:40.000Z</time>
      </trkpt>
      <trkpt lat="42.4595" lon="2.92303">
        <ele>865.40002441406</ele>
        <time>2023-07-12T12:44:44.000Z</time>
      </trkpt>
      <trkpt lat="42.45947" lon="2.92302">
        <ele>865.20001220703</ele>
        <time>2023-07-12T12:44:46.000Z</time>
      </trkpt>
      <trkpt lat="42.45941" lon="2.92298">
        <ele>864.40002441406</ele>
        <time>2023-07-12T12:44:51.000Z</time>
      </trkpt>
      <trkpt lat="42.4594" lon="2.92296">
        <ele>864</ele>
        <time>2023-07-12T12:44:53.000Z</time>
      </trkpt>
      <trkpt lat="42.45938" lon="2.92293">
        <ele>863</ele>
        <time>2023-07-12T12:44:58.000Z</time>
      </trkpt>
      <trkpt lat="42.45938" lon="2.92291">
        <ele>862.40002441406</ele>
        <time>2023-07-12T12:45:00.000Z</time>
      </trkpt>
      <trkpt lat="42.45937" lon="2.92288">
        <ele>862</ele>
        <time>2023-07-12T12:45:03.000Z</time>
      </trkpt>
      <trkpt lat="42.45935" lon="2.92283">
        <ele>861</ele>
        <time>2023-07-12T12:45:07.000Z</time>
      </trkpt>
      <trkpt lat="42.45934" lon="2.92281">
        <ele>860.79998779297</ele>
        <time>2023-07-12T12:45:09.000Z</time>
      </trkpt>
      <trkpt lat="42.4593" lon="2.92275">
        <ele>859.79998779297</ele>
        <time>2023-07-12T12:45:16.000Z</time>
      </trkpt>
      <trkpt lat="42.4593" lon="2.92273">
        <ele>859.59997558594</ele>
        <time>2023-07-12T12:45:18.000Z</time>
      </trkpt>
      <trkpt lat="42.45928" lon="2.92272">
        <ele>859.20001220703</ele>
        <time>2023-07-12T12:45:22.000Z</time>
      </trkpt>
      <trkpt lat="42.45925" lon="2.92271">
        <ele>858.59997558594</ele>
        <time>2023-07-12T12:45:25.000Z</time>
      </trkpt>
      <trkpt lat="42.45922" lon="2.92268">
        <ele>858.40002441406</ele>
        <time>2023-07-12T12:45:33.000Z</time>
      </trkpt>
      <trkpt lat="42.4592" lon="2.92266">
        <ele>858.20001220703</ele>
        <time>2023-07-12T12:45:35.000Z</time>
      </trkpt>
      <trkpt lat="42.45917" lon="2.92263">
        <ele>857.40002441406</ele>
        <time>2023-07-12T12:45:40.000Z</time>
      </trkpt>
      <trkpt lat="42.45915" lon="2.92261">
        <ele>857.20001220703</ele>
        <time>2023-07-12T12:45:43.000Z</time>
      </trkpt>
      <trkpt lat="42.45902" lon="2.92251">
        <ele>856.40002441406</ele>
        <time>2023-07-12T12:45:54.000Z</time>
      </trkpt>
      <trkpt lat="42.45901" lon="2.9225">
        <ele>856.40002441406</ele>
        <time>2023-07-12T12:45:55.000Z</time>
      </trkpt>
      <trkpt lat="42.45898" lon="2.92246">
        <ele>855.40002441406</ele>
        <time>2023-07-12T12:46:00.000Z</time>
      </trkpt>
      <trkpt lat="42.45898" lon="2.92245">
        <ele>855</ele>
        <time>2023-07-12T12:46:01.000Z</time>
      </trkpt>
      <trkpt lat="42.4589" lon="2.92243">
        <ele>854.40002441406</ele>
        <time>2023-07-12T12:46:11.000Z</time>
      </trkpt>
      <trkpt lat="42.45886" lon="2.9224">
        <ele>855.20001220703</ele>
        <time>2023-07-12T12:46:20.000Z</time>
      </trkpt>
      <trkpt lat="42.45879" lon="2.92233">
        <ele>855</ele>
        <time>2023-07-12T12:46:28.000Z</time>
      </trkpt>
      <trkpt lat="42.45874" lon="2.92229">
        <ele>854</ele>
        <time>2023-07-12T12:46:33.000Z</time>
      </trkpt>
      <trkpt lat="42.45873" lon="2.92228">
        <ele>853.79998779297</ele>
        <time>2023-07-12T12:46:35.000Z</time>
      </trkpt>
      <trkpt lat="42.45869" lon="2.92224">
        <ele>853</ele>
        <time>2023-07-12T12:46:39.000Z</time>
      </trkpt>
      <trkpt lat="42.45865" lon="2.92218">
        <ele>851.79998779297</ele>
        <time>2023-07-12T12:46:44.000Z</time>
      </trkpt>
      <trkpt lat="42.45865" lon="2.92217">
        <ele>851.59997558594</ele>
        <time>2023-07-12T12:46:45.000Z</time>
      </trkpt>
      <trkpt lat="42.45861" lon="2.92215">
        <ele>850.59997558594</ele>
        <time>2023-07-12T12:46:50.000Z</time>
      </trkpt>
      <trkpt lat="42.45859" lon="2.92213">
        <ele>850.20001220703</ele>
        <time>2023-07-12T12:46:53.000Z</time>
      </trkpt>
      <trkpt lat="42.45854" lon="2.9221">
        <ele>849.59997558594</ele>
        <time>2023-07-12T12:46:57.000Z</time>
      </trkpt>
      <trkpt lat="42.45848" lon="2.92207">
        <ele>848.40002441406</ele>
        <time>2023-07-12T12:47:02.000Z</time>
      </trkpt>
      <trkpt lat="42.45847" lon="2.92206">
        <ele>848</ele>
        <time>2023-07-12T12:47:04.000Z</time>
      </trkpt>
      <trkpt lat="42.45845" lon="2.92204">
        <ele>847.20001220703</ele>
        <time>2023-07-12T12:47:07.000Z</time>
      </trkpt>
      <trkpt lat="42.45843" lon="2.92201">
        <ele>846.20001220703</ele>
        <time>2023-07-12T12:47:11.000Z</time>
      </trkpt>
      <trkpt lat="42.45841" lon="2.92199">
        <ele>845.59997558594</ele>
        <time>2023-07-12T12:47:13.000Z</time>
      </trkpt>
      <trkpt lat="42.45839" lon="2.92196">
        <ele>845</ele>
        <time>2023-07-12T12:47:16.000Z</time>
      </trkpt>
      <trkpt lat="42.45838" lon="2.92193">
        <ele>843.79998779297</ele>
        <time>2023-07-12T12:47:21.000Z</time>
      </trkpt>
      <trkpt lat="42.45833" lon="2.92189">
        <ele>842.79998779297</ele>
        <time>2023-07-12T12:47:27.000Z</time>
      </trkpt>
      <trkpt lat="42.45832" lon="2.92188">
        <ele>842.79998779297</ele>
        <time>2023-07-12T12:47:29.000Z</time>
      </trkpt>
      <trkpt lat="42.45827" lon="2.92183">
        <ele>842</ele>
        <time>2023-07-12T12:47:36.000Z</time>
      </trkpt>
      <trkpt lat="42.45826" lon="2.92182">
        <ele>841.79998779297</ele>
        <time>2023-07-12T12:47:38.000Z</time>
      </trkpt>
      <trkpt lat="42.45823" lon="2.92177">
        <ele>841</ele>
        <time>2023-07-12T12:47:45.000Z</time>
      </trkpt>
      <trkpt lat="42.45821" lon="2.92175">
        <ele>840.59997558594</ele>
        <time>2023-07-12T12:47:47.000Z</time>
      </trkpt>
      <trkpt lat="42.45819" lon="2.92173">
        <ele>839.59997558594</ele>
        <time>2023-07-12T12:47:53.000Z</time>
      </trkpt>
      <trkpt lat="42.45816" lon="2.92175">
        <ele>839.40002441406</ele>
        <time>2023-07-12T12:47:57.000Z</time>
      </trkpt>
      <trkpt lat="42.45811" lon="2.92174">
        <ele>838.79998779297</ele>
        <time>2023-07-12T12:48:01.000Z</time>
      </trkpt>
      <trkpt lat="42.45811" lon="2.92173">
        <ele>838.59997558594</ele>
        <time>2023-07-12T12:48:03.000Z</time>
      </trkpt>
      <trkpt lat="42.45809" lon="2.92171">
        <ele>837.40002441406</ele>
        <time>2023-07-12T12:48:11.000Z</time>
      </trkpt>
      <trkpt lat="42.45807" lon="2.92168">
        <ele>836.79998779297</ele>
        <time>2023-07-12T12:48:18.000Z</time>
      </trkpt>
      <trkpt lat="42.45805" lon="2.92165">
        <ele>836.40002441406</ele>
        <time>2023-07-12T12:48:23.000Z</time>
      </trkpt>
      <trkpt lat="42.45803" lon="2.92165">
        <ele>836.20001220703</ele>
        <time>2023-07-12T12:48:26.000Z</time>
      </trkpt>
      <trkpt lat="42.45801" lon="2.92162">
        <ele>835.40002441406</ele>
        <time>2023-07-12T12:48:34.000Z</time>
      </trkpt>
      <trkpt lat="42.458" lon="2.92161">
        <ele>835.40002441406</ele>
        <time>2023-07-12T12:48:35.000Z</time>
      </trkpt>
      <trkpt lat="42.45797" lon="2.92159">
        <ele>834.59997558594</ele>
        <time>2023-07-12T12:48:45.000Z</time>
      </trkpt>
      <trkpt lat="42.45797" lon="2.92158">
        <ele>834.40002441406</ele>
        <time>2023-07-12T12:48:52.000Z</time>
      </trkpt>
      <trkpt lat="42.45797" lon="2.92157">
        <ele>834.40002441406</ele>
        <time>2023-07-12T12:48:53.000Z</time>
      </trkpt>
      <trkpt lat="42.45797" lon="2.92153">
        <ele>833.79998779297</ele>
        <time>2023-07-12T12:49:01.000Z</time>
      </trkpt>
      <trkpt lat="42.45795" lon="2.92151">
        <ele>833.59997558594</ele>
        <time>2023-07-12T12:49:07.000Z</time>
      </trkpt>
      <trkpt lat="42.45794" lon="2.9215">
        <ele>833.20001220703</ele>
        <time>2023-07-12T12:49:11.000Z</time>
      </trkpt>
      <trkpt lat="42.45793" lon="2.9215">
        <ele>833</ele>
        <time>2023-07-12T12:49:15.000Z</time>
      </trkpt>
      <trkpt lat="42.45793" lon="2.92153">
        <ele>832.79998779297</ele>
        <time>2023-07-12T12:49:23.000Z</time>
      </trkpt>
      <trkpt lat="42.45794" lon="2.9215">
        <ele>832.79998779297</ele>
        <time>2023-07-12T12:49:33.000Z</time>
      </trkpt>
      <trkpt lat="42.45794" lon="2.92149">
        <ele>832.79998779297</ele>
        <time>2023-07-12T12:49:43.000Z</time>
      </trkpt>
      <trkpt lat="42.45793" lon="2.92144">
        <ele>832.59997558594</ele>
        <time>2023-07-12T12:49:50.000Z</time>
      </trkpt>
      <trkpt lat="42.45793" lon="2.92145">
        <ele>832.40002441406</ele>
        <time>2023-07-12T12:49:58.000Z</time>
      </trkpt>
      <trkpt lat="42.4579" lon="2.92142">
        <ele>832.40002441406</ele>
        <time>2023-07-12T12:50:06.000Z</time>
      </trkpt>
      <trkpt lat="42.45788" lon="2.92138">
        <ele>832.20001220703</ele>
        <time>2023-07-12T12:50:13.000Z</time>
      </trkpt>
      <trkpt lat="42.45787" lon="2.92136">
        <ele>832.20001220703</ele>
        <time>2023-07-12T12:50:14.000Z</time>
      </trkpt>
      <trkpt lat="42.45786" lon="2.92131">
        <ele>832</ele>
        <time>2023-07-12T12:50:20.000Z</time>
      </trkpt>
      <trkpt lat="42.45785" lon="2.92128">
        <ele>831.79998779297</ele>
        <time>2023-07-12T12:50:30.000Z</time>
      </trkpt>
      <trkpt lat="42.45785" lon="2.92129">
        <ele>831.59997558594</ele>
        <time>2023-07-12T12:50:38.000Z</time>
      </trkpt>
      <trkpt lat="42.45786" lon="2.92128">
        <ele>831.59997558594</ele>
        <time>2023-07-12T12:50:47.000Z</time>
      </trkpt>
      <trkpt lat="42.45787" lon="2.92127">
        <ele>831.40002441406</ele>
        <time>2023-07-12T12:50:55.000Z</time>
      </trkpt>
      <trkpt lat="42.45785" lon="2.92124">
        <ele>831.40002441406</ele>
        <time>2023-07-12T12:51:03.000Z</time>
      </trkpt>
      <trkpt lat="42.45781" lon="2.92115">
        <ele>832</ele>
        <time>2023-07-12T12:51:13.000Z</time>
      </trkpt>
      <trkpt lat="42.4578" lon="2.92108">
        <ele>832.20001220703</ele>
        <time>2023-07-12T12:51:20.000Z</time>
      </trkpt>
      <trkpt lat="42.4578" lon="2.92105">
        <ele>832.79998779297</ele>
        <time>2023-07-12T12:51:29.000Z</time>
      </trkpt>
      <trkpt lat="42.4578" lon="2.92103">
        <ele>832.79998779297</ele>
        <time>2023-07-12T12:51:39.000Z</time>
      </trkpt>
      <trkpt lat="42.45779" lon="2.92103">
        <ele>833</ele>
        <time>2023-07-12T12:51:46.000Z</time>
      </trkpt>
      <trkpt lat="42.45779" lon="2.921">
        <ele>833.40002441406</ele>
        <time>2023-07-12T12:51:49.000Z</time>
      </trkpt>
      <trkpt lat="42.45778" lon="2.92095">
        <ele>833.79998779297</ele>
        <time>2023-07-12T12:51:55.000Z</time>
      </trkpt>
      <trkpt lat="42.45778" lon="2.92091">
        <ele>834.20001220703</ele>
        <time>2023-07-12T12:52:03.000Z</time>
      </trkpt>
      <trkpt lat="42.45775" lon="2.92091">
        <ele>834</ele>
        <time>2023-07-12T12:52:11.000Z</time>
      </trkpt>
      <trkpt lat="42.45776" lon="2.9209">
        <ele>834.20001220703</ele>
        <time>2023-07-12T12:52:18.000Z</time>
      </trkpt>
      <trkpt lat="42.45778" lon="2.92087">
        <ele>834.20001220703</ele>
        <time>2023-07-12T12:52:25.000Z</time>
      </trkpt>
      <trkpt lat="42.45782" lon="2.92085">
        <ele>834.20001220703</ele>
        <time>2023-07-12T12:52:34.000Z</time>
      </trkpt>
      <trkpt lat="42.45785" lon="2.92084">
        <ele>834.20001220703</ele>
        <time>2023-07-12T12:52:40.000Z</time>
      </trkpt>
      <trkpt lat="42.45783" lon="2.92085">
        <ele>834.20001220703</ele>
        <time>2023-07-12T12:52:47.000Z</time>
      </trkpt>
      <trkpt lat="42.45781" lon="2.92086">
        <ele>834</ele>
        <time>2023-07-12T12:52:54.000Z</time>
      </trkpt>
      <trkpt lat="42.45781" lon="2.92085">
        <ele>834</ele>
        <time>2023-07-12T12:53:03.000Z</time>
      </trkpt>
      <trkpt lat="42.4578" lon="2.92082">
        <ele>834</ele>
        <time>2023-07-12T12:53:10.000Z</time>
      </trkpt>
      <trkpt lat="42.45781" lon="2.92085">
        <ele>834.20001220703</ele>
        <time>2023-07-12T12:53:18.000Z</time>
      </trkpt>
      <trkpt lat="42.45782" lon="2.92084">
        <ele>834</ele>
        <time>2023-07-12T12:53:30.000Z</time>
      </trkpt>
      <trkpt lat="42.45783" lon="2.92083">
        <ele>834</ele>
        <time>2023-07-12T12:53:39.000Z</time>
      </trkpt>
      <trkpt lat="42.45781" lon="2.92082">
        <ele>833.79998779297</ele>
        <time>2023-07-12T12:53:51.000Z</time>
      </trkpt>
      <trkpt lat="42.45785" lon="2.92081">
        <ele>833.79998779297</ele>
        <time>2023-07-12T12:53:59.000Z</time>
      </trkpt>
      <trkpt lat="42.45786" lon="2.92083">
        <ele>833.79998779297</ele>
        <time>2023-07-12T12:54:07.000Z</time>
      </trkpt>
      <trkpt lat="42.45783" lon="2.92084">
        <ele>833.79998779297</ele>
        <time>2023-07-12T12:54:15.000Z</time>
      </trkpt>
      <trkpt lat="42.45779" lon="2.92084">
        <ele>834</ele>
        <time>2023-07-12T12:54:21.000Z</time>
      </trkpt>
      <trkpt lat="42.45779" lon="2.92086">
        <ele>834.20001220703</ele>
        <time>2023-07-12T12:54:29.000Z</time>
      </trkpt>
      <trkpt lat="42.45778" lon="2.92093">
        <ele>834</ele>
        <time>2023-07-12T12:54:36.000Z</time>
      </trkpt>
      <trkpt lat="42.45777" lon="2.92094">
        <ele>833.59997558594</ele>
        <time>2023-07-12T12:54:42.000Z</time>
      </trkpt>
      <trkpt lat="42.45776" lon="2.92094">
        <ele>833.59997558594</ele>
        <time>2023-07-12T12:54:48.000Z</time>
      </trkpt>
      <trkpt lat="42.45773" lon="2.92092">
        <ele>833.79998779297</ele>
        <time>2023-07-12T12:54:53.000Z</time>
      </trkpt>
      <trkpt lat="42.45771" lon="2.9209">
        <ele>834.40002441406</ele>
        <time>2023-07-12T12:55:01.000Z</time>
      </trkpt>
      <trkpt lat="42.45771" lon="2.92091">
        <ele>834.40002441406</ele>
        <time>2023-07-12T12:55:02.000Z</time>
      </trkpt>
      <trkpt lat="42.4577" lon="2.92089">
        <ele>834.20001220703</ele>
        <time>2023-07-12T12:55:08.000Z</time>
      </trkpt>
      <trkpt lat="42.45772" lon="2.92094">
        <ele>834</ele>
        <time>2023-07-12T12:55:16.000Z</time>
      </trkpt>
      <trkpt lat="42.45771" lon="2.92093">
        <ele>833.79998779297</ele>
        <time>2023-07-12T12:55:23.000Z</time>
      </trkpt>
      <trkpt lat="42.45771" lon="2.92093">
        <ele>833.79998779297</ele>
        <time>2023-07-12T12:55:32.000Z</time>
      </trkpt>
      <trkpt lat="42.45773" lon="2.92095">
        <ele>833.79998779297</ele>
        <time>2023-07-12T12:55:42.000Z</time>
      </trkpt>
      <trkpt lat="42.45777" lon="2.92095">
        <ele>833.59997558594</ele>
        <time>2023-07-12T12:55:48.000Z</time>
      </trkpt>
      <trkpt lat="42.45781" lon="2.92097">
        <ele>833.40002441406</ele>
        <time>2023-07-12T12:55:53.000Z</time>
      </trkpt>
      <trkpt lat="42.45782" lon="2.92098">
        <ele>833.20001220703</ele>
        <time>2023-07-12T12:55:54.000Z</time>
      </trkpt>
      <trkpt lat="42.45784" lon="2.92098">
        <ele>833</ele>
        <time>2023-07-12T12:56:01.000Z</time>
      </trkpt>
      <trkpt lat="42.45786" lon="2.921">
        <ele>832.79998779297</ele>
        <time>2023-07-12T12:56:07.000Z</time>
      </trkpt>
      <trkpt lat="42.45789" lon="2.92102">
        <ele>832.59997558594</ele>
        <time>2023-07-12T12:56:16.000Z</time>
      </trkpt>
      <trkpt lat="42.45793" lon="2.92105">
        <ele>832.20001220703</ele>
        <time>2023-07-12T12:56:20.000Z</time>
      </trkpt>
      <trkpt lat="42.45795" lon="2.92105">
        <ele>831.79998779297</ele>
        <time>2023-07-12T12:56:24.000Z</time>
      </trkpt>
      <trkpt lat="42.45795" lon="2.92102">
        <ele>831.59997558594</ele>
        <time>2023-07-12T12:56:32.000Z</time>
      </trkpt>
      <trkpt lat="42.45795" lon="2.92101">
        <ele>831.59997558594</ele>
        <time>2023-07-12T12:56:34.000Z</time>
      </trkpt>
      <trkpt lat="42.45795" lon="2.921">
        <ele>831.59997558594</ele>
        <time>2023-07-12T12:56:35.000Z</time>
      </trkpt>
      <trkpt lat="42.45794" lon="2.92098">
        <ele>831.40002441406</ele>
        <time>2023-07-12T12:56:45.000Z</time>
      </trkpt>
      <trkpt lat="42.45791" lon="2.92105">
        <ele>831.40002441406</ele>
        <time>2023-07-12T12:56:53.000Z</time>
      </trkpt>
      <trkpt lat="42.45792" lon="2.92106">
        <ele>831.20001220703</ele>
        <time>2023-07-12T12:56:56.000Z</time>
      </trkpt>
      <trkpt lat="42.45796" lon="2.92105">
        <ele>830.59997558594</ele>
        <time>2023-07-12T12:57:02.000Z</time>
      </trkpt>
      <trkpt lat="42.45804" lon="2.92105">
        <ele>830</ele>
        <time>2023-07-12T12:57:09.000Z</time>
      </trkpt>
      <trkpt lat="42.45805" lon="2.92104">
        <ele>829.79998779297</ele>
        <time>2023-07-12T12:57:10.000Z</time>
      </trkpt>
      <trkpt lat="42.4581" lon="2.92103">
        <ele>829.40002441406</ele>
        <time>2023-07-12T12:57:16.000Z</time>
      </trkpt>
      <trkpt lat="42.45813" lon="2.92104">
        <ele>829</ele>
        <time>2023-07-12T12:57:21.000Z</time>
      </trkpt>
      <trkpt lat="42.45816" lon="2.92105">
        <ele>828.59997558594</ele>
        <time>2023-07-12T12:57:24.000Z</time>
      </trkpt>
      <trkpt lat="42.4582" lon="2.92103">
        <ele>827.79998779297</ele>
        <time>2023-07-12T12:57:28.000Z</time>
      </trkpt>
      <trkpt lat="42.45827" lon="2.92103">
        <ele>827.20001220703</ele>
        <time>2023-07-12T12:57:32.000Z</time>
      </trkpt>
      <trkpt lat="42.45831" lon="2.92104">
        <ele>826.79998779297</ele>
        <time>2023-07-12T12:57:34.000Z</time>
      </trkpt>
      <trkpt lat="42.45835" lon="2.92103">
        <ele>825.79998779297</ele>
        <time>2023-07-12T12:57:38.000Z</time>
      </trkpt>
      <trkpt lat="42.45836" lon="2.92103">
        <ele>825.59997558594</ele>
        <time>2023-07-12T12:57:39.000Z</time>
      </trkpt>
      <trkpt lat="42.45837" lon="2.92102">
        <ele>824.79998779297</ele>
        <time>2023-07-12T12:57:45.000Z</time>
      </trkpt>
      <trkpt lat="42.45839" lon="2.92102">
        <ele>824.59997558594</ele>
        <time>2023-07-12T12:57:47.000Z</time>
      </trkpt>
      <trkpt lat="42.45847" lon="2.92105">
        <ele>823.79998779297</ele>
        <time>2023-07-12T12:57:55.000Z</time>
      </trkpt>
      <trkpt lat="42.45845" lon="2.92105">
        <ele>823.79998779297</ele>
        <time>2023-07-12T12:57:58.000Z</time>
      </trkpt>
      <trkpt lat="42.45846" lon="2.92103">
        <ele>823.79998779297</ele>
        <time>2023-07-12T12:58:01.000Z</time>
      </trkpt>
      <trkpt lat="42.45845" lon="2.92101">
        <ele>823.79998779297</ele>
        <time>2023-07-12T12:58:08.000Z</time>
      </trkpt>
      <trkpt lat="42.45845" lon="2.92101">
        <ele>823.79998779297</ele>
        <time>2023-07-12T12:58:09.000Z</time>
      </trkpt>
      <trkpt lat="42.45853" lon="2.921">
        <ele>823.59997558594</ele>
        <time>2023-07-12T12:58:19.000Z</time>
      </trkpt>
      <trkpt lat="42.4586" lon="2.92099">
        <ele>823</ele>
        <time>2023-07-12T12:58:27.000Z</time>
      </trkpt>
      <trkpt lat="42.4586" lon="2.92098">
        <ele>822.79998779297</ele>
        <time>2023-07-12T12:58:28.000Z</time>
      </trkpt>
      <trkpt lat="42.45861" lon="2.92096">
        <ele>821.59997558594</ele>
        <time>2023-07-12T12:58:32.000Z</time>
      </trkpt>
      <trkpt lat="42.4586" lon="2.92096">
        <ele>821.40002441406</ele>
        <time>2023-07-12T12:58:34.000Z</time>
      </trkpt>
      <trkpt lat="42.45862" lon="2.92088">
        <ele>820.59997558594</ele>
        <time>2023-07-12T12:58:41.000Z</time>
      </trkpt>
      <trkpt lat="42.45862" lon="2.92086">
        <ele>820.40002441406</ele>
        <time>2023-07-12T12:58:42.000Z</time>
      </trkpt>
      <trkpt lat="42.45862" lon="2.9208">
        <ele>819.59997558594</ele>
        <time>2023-07-12T12:58:47.000Z</time>
      </trkpt>
      <trkpt lat="42.45861" lon="2.92076">
        <ele>819.40002441406</ele>
        <time>2023-07-12T12:58:50.000Z</time>
      </trkpt>
      <trkpt lat="42.45861" lon="2.92068">
        <ele>818.59997558594</ele>
        <time>2023-07-12T12:58:56.000Z</time>
      </trkpt>
      <trkpt lat="42.45861" lon="2.92068">
        <ele>818.40002441406</ele>
        <time>2023-07-12T12:58:57.000Z</time>
      </trkpt>
      <trkpt lat="42.45863" lon="2.9206">
        <ele>817.40002441406</ele>
        <time>2023-07-12T12:59:03.000Z</time>
      </trkpt>
      <trkpt lat="42.45864" lon="2.92057">
        <ele>817.20001220703</ele>
        <time>2023-07-12T12:59:05.000Z</time>
      </trkpt>
      <trkpt lat="42.45868" lon="2.9205">
        <ele>816.40002441406</ele>
        <time>2023-07-12T12:59:09.000Z</time>
      </trkpt>
      <trkpt lat="42.45869" lon="2.92044">
        <ele>815.40002441406</ele>
        <time>2023-07-12T12:59:14.000Z</time>
      </trkpt>
      <trkpt lat="42.45869" lon="2.92043">
        <ele>815.40002441406</ele>
        <time>2023-07-12T12:59:15.000Z</time>
      </trkpt>
      <trkpt lat="42.45871" lon="2.92034">
        <ele>814.20001220703</ele>
        <time>2023-07-12T12:59:21.000Z</time>
      </trkpt>
      <trkpt lat="42.45871" lon="2.92033">
        <ele>814.20001220703</ele>
        <time>2023-07-12T12:59:22.000Z</time>
      </trkpt>
      <trkpt lat="42.45869" lon="2.92021">
        <ele>813.20001220703</ele>
        <time>2023-07-12T12:59:28.000Z</time>
      </trkpt>
      <trkpt lat="42.45868" lon="2.92015">
        <ele>812.59997558594</ele>
        <time>2023-07-12T12:59:31.000Z</time>
      </trkpt>
      <trkpt lat="42.45867" lon="2.92007">
        <ele>812</ele>
        <time>2023-07-12T12:59:34.000Z</time>
      </trkpt>
      <trkpt lat="42.45869" lon="2.91996">
        <ele>811</ele>
        <time>2023-07-12T12:59:40.000Z</time>
      </trkpt>
      <trkpt lat="42.4587" lon="2.91989">
        <ele>810</ele>
        <time>2023-07-12T12:59:46.000Z</time>
      </trkpt>
      <trkpt lat="42.4587" lon="2.91988">
        <ele>809.79998779297</ele>
        <time>2023-07-12T12:59:47.000Z</time>
      </trkpt>
      <trkpt lat="42.45872" lon="2.91981">
        <ele>808.79998779297</ele>
        <time>2023-07-12T12:59:52.000Z</time>
      </trkpt>
      <trkpt lat="42.45872" lon="2.9198">
        <ele>808.79998779297</ele>
        <time>2023-07-12T12:59:53.000Z</time>
      </trkpt>
      <trkpt lat="42.45874" lon="2.9197">
        <ele>808.20001220703</ele>
        <time>2023-07-12T13:00:00.000Z</time>
      </trkpt>
      <trkpt lat="42.45872" lon="2.91975">
        <ele>808.20001220703</ele>
        <time>2023-07-12T13:00:06.000Z</time>
      </trkpt>
      <trkpt lat="42.45871" lon="2.91967">
        <ele>807.79998779297</ele>
        <time>2023-07-12T13:00:15.000Z</time>
      </trkpt>
      <trkpt lat="42.45872" lon="2.91966">
        <ele>807.79998779297</ele>
        <time>2023-07-12T13:00:16.000Z</time>
      </trkpt>
      <trkpt lat="42.45874" lon="2.9196">
        <ele>806.79998779297</ele>
        <time>2023-07-12T13:00:23.000Z</time>
      </trkpt>
      <trkpt lat="42.45874" lon="2.91959">
        <ele>806.79998779297</ele>
        <time>2023-07-12T13:00:24.000Z</time>
      </trkpt>
      <trkpt lat="42.45875" lon="2.91945">
        <ele>805.79998779297</ele>
        <time>2023-07-12T13:00:32.000Z</time>
      </trkpt>
      <trkpt lat="42.45875" lon="2.91941">
        <ele>805.59997558594</ele>
        <time>2023-07-12T13:00:34.000Z</time>
      </trkpt>
      <trkpt lat="42.45877" lon="2.91934">
        <ele>805</ele>
        <time>2023-07-12T13:00:41.000Z</time>
      </trkpt>
      <trkpt lat="42.45879" lon="2.91928">
        <ele>804.59997558594</ele>
        <time>2023-07-12T13:00:45.000Z</time>
      </trkpt>
      <trkpt lat="42.45881" lon="2.91921">
        <ele>804.20001220703</ele>
        <time>2023-07-12T13:00:50.000Z</time>
      </trkpt>
      <trkpt lat="42.45883" lon="2.91912">
        <ele>803.79998779297</ele>
        <time>2023-07-12T13:00:57.000Z</time>
      </trkpt>
      <trkpt lat="42.45883" lon="2.91909">
        <ele>803.59997558594</ele>
        <time>2023-07-12T13:00:59.000Z</time>
      </trkpt>
      <trkpt lat="42.45883" lon="2.91901">
        <ele>803.20001220703</ele>
        <time>2023-07-12T13:01:03.000Z</time>
      </trkpt>
      <trkpt lat="42.45884" lon="2.91895">
        <ele>802.40002441406</ele>
        <time>2023-07-12T13:01:07.000Z</time>
      </trkpt>
      <trkpt lat="42.45885" lon="2.91891">
        <ele>801.79998779297</ele>
        <time>2023-07-12T13:01:11.000Z</time>
      </trkpt>
      <trkpt lat="42.45886" lon="2.91889">
        <ele>801.40002441406</ele>
        <time>2023-07-12T13:01:13.000Z</time>
      </trkpt>
      <trkpt lat="42.45889" lon="2.91885">
        <ele>800.79998779297</ele>
        <time>2023-07-12T13:01:17.000Z</time>
      </trkpt>
      <trkpt lat="42.45894" lon="2.91879">
        <ele>800.40002441406</ele>
        <time>2023-07-12T13:01:23.000Z</time>
      </trkpt>
      <trkpt lat="42.45894" lon="2.91878">
        <ele>800.20001220703</ele>
        <time>2023-07-12T13:01:24.000Z</time>
      </trkpt>
      <trkpt lat="42.459" lon="2.9187">
        <ele>799.40002441406</ele>
        <time>2023-07-12T13:01:31.000Z</time>
      </trkpt>
      <trkpt lat="42.45902" lon="2.91867">
        <ele>799.20001220703</ele>
        <time>2023-07-12T13:01:33.000Z</time>
      </trkpt>
      <trkpt lat="42.45904" lon="2.91861">
        <ele>798.79998779297</ele>
        <time>2023-07-12T13:01:39.000Z</time>
      </trkpt>
      <trkpt lat="42.4591" lon="2.9185">
        <ele>798.20001220703</ele>
        <time>2023-07-12T13:01:45.000Z</time>
      </trkpt>
      <trkpt lat="42.4591" lon="2.91848">
        <ele>798.20001220703</ele>
        <time>2023-07-12T13:01:47.000Z</time>
      </trkpt>
      <trkpt lat="42.45911" lon="2.91832">
        <ele>798.40002441406</ele>
        <time>2023-07-12T13:01:55.000Z</time>
      </trkpt>
      <trkpt lat="42.45908" lon="2.91821">
        <ele>798.79998779297</ele>
        <time>2023-07-12T13:02:03.000Z</time>
      </trkpt>
      <trkpt lat="42.45908" lon="2.91815">
        <ele>799.40002441406</ele>
        <time>2023-07-12T13:02:07.000Z</time>
      </trkpt>
      <trkpt lat="42.45908" lon="2.9181">
        <ele>799.59997558594</ele>
        <time>2023-07-12T13:02:11.000Z</time>
      </trkpt>
      <trkpt lat="42.45911" lon="2.918">
        <ele>800.40002441406</ele>
        <time>2023-07-12T13:02:17.000Z</time>
      </trkpt>
      <trkpt lat="42.45913" lon="2.91795">
        <ele>800.40002441406</ele>
        <time>2023-07-12T13:02:20.000Z</time>
      </trkpt>
      <trkpt lat="42.45915" lon="2.91784">
        <ele>799.79998779297</ele>
        <time>2023-07-12T13:02:28.000Z</time>
      </trkpt>
      <trkpt lat="42.45918" lon="2.91769">
        <ele>799.59997558594</ele>
        <time>2023-07-12T13:02:37.000Z</time>
      </trkpt>
      <trkpt lat="42.45918" lon="2.91753">
        <ele>800</ele>
        <time>2023-07-12T13:02:46.000Z</time>
      </trkpt>
      <trkpt lat="42.45913" lon="2.9174">
        <ele>800.20001220703</ele>
        <time>2023-07-12T13:02:53.000Z</time>
      </trkpt>
      <trkpt lat="42.45909" lon="2.91729">
        <ele>801</ele>
        <time>2023-07-12T13:03:01.000Z</time>
      </trkpt>
      <trkpt lat="42.45907" lon="2.91723">
        <ele>801.40002441406</ele>
        <time>2023-07-12T13:03:05.000Z</time>
      </trkpt>
      <trkpt lat="42.45907" lon="2.91715">
        <ele>801.79998779297</ele>
        <time>2023-07-12T13:03:10.000Z</time>
      </trkpt>
      <trkpt lat="42.45909" lon="2.91703">
        <ele>802</ele>
        <time>2023-07-12T13:03:19.000Z</time>
      </trkpt>
      <trkpt lat="42.45913" lon="2.91688">
        <ele>802.40002441406</ele>
        <time>2023-07-12T13:03:28.000Z</time>
      </trkpt>
      <trkpt lat="42.4591" lon="2.91671">
        <ele>803.40002441406</ele>
        <time>2023-07-12T13:03:38.000Z</time>
      </trkpt>
      <trkpt lat="42.45908" lon="2.91658">
        <ele>804.59997558594</ele>
        <time>2023-07-12T13:03:45.000Z</time>
      </trkpt>
      <trkpt lat="42.45908" lon="2.91656">
        <ele>804.59997558594</ele>
        <time>2023-07-12T13:03:46.000Z</time>
      </trkpt>
      <trkpt lat="42.45905" lon="2.91646">
        <ele>805.59997558594</ele>
        <time>2023-07-12T13:03:53.000Z</time>
      </trkpt>
      <trkpt lat="42.45905" lon="2.91645">
        <ele>805.59997558594</ele>
        <time>2023-07-12T13:03:54.000Z</time>
      </trkpt>
      <trkpt lat="42.45905" lon="2.91639">
        <ele>806.40002441406</ele>
        <time>2023-07-12T13:04:00.000Z</time>
      </trkpt>
      <trkpt lat="42.45906" lon="2.91636">
        <ele>806.79998779297</ele>
        <time>2023-07-12T13:04:03.000Z</time>
      </trkpt>
      <trkpt lat="42.45906" lon="2.91631">
        <ele>807.40002441406</ele>
        <time>2023-07-12T13:04:08.000Z</time>
      </trkpt>
      <trkpt lat="42.45903" lon="2.91624">
        <ele>807.79998779297</ele>
        <time>2023-07-12T13:04:13.000Z</time>
      </trkpt>
      <trkpt lat="42.459" lon="2.91615">
        <ele>808.40002441406</ele>
        <time>2023-07-12T13:04:18.000Z</time>
      </trkpt>
      <trkpt lat="42.459" lon="2.91603">
        <ele>808.20001220703</ele>
        <time>2023-07-12T13:04:25.000Z</time>
      </trkpt>
      <trkpt lat="42.45901" lon="2.91595">
        <ele>808</ele>
        <time>2023-07-12T13:04:33.000Z</time>
      </trkpt>
      <trkpt lat="42.45896" lon="2.91584">
        <ele>808.40002441406</ele>
        <time>2023-07-12T13:04:40.000Z</time>
      </trkpt>
      <trkpt lat="42.45892" lon="2.91571">
        <ele>808.59997558594</ele>
        <time>2023-07-12T13:04:49.000Z</time>
      </trkpt>
      <trkpt lat="42.4588" lon="2.91552">
        <ele>808.59997558594</ele>
        <time>2023-07-12T13:04:58.000Z</time>
      </trkpt>
      <trkpt lat="42.45878" lon="2.91545">
        <ele>808.59997558594</ele>
        <time>2023-07-12T13:05:04.000Z</time>
      </trkpt>
      <trkpt lat="42.45877" lon="2.91537">
        <ele>808.59997558594</ele>
        <time>2023-07-12T13:05:12.000Z</time>
      </trkpt>
      <trkpt lat="42.45874" lon="2.91528">
        <ele>808.59997558594</ele>
        <time>2023-07-12T13:05:19.000Z</time>
      </trkpt>
      <trkpt lat="42.45875" lon="2.91521">
        <ele>808.20001220703</ele>
        <time>2023-07-12T13:05:24.000Z</time>
      </trkpt>
      <trkpt lat="42.45875" lon="2.91511">
        <ele>807.59997558594</ele>
        <time>2023-07-12T13:05:30.000Z</time>
      </trkpt>
      <trkpt lat="42.45873" lon="2.91492">
        <ele>807</ele>
        <time>2023-07-12T13:05:37.000Z</time>
      </trkpt>
      <trkpt lat="42.4587" lon="2.9148">
        <ele>806.79998779297</ele>
        <time>2023-07-12T13:05:42.000Z</time>
      </trkpt>
      <trkpt lat="42.45867" lon="2.91474">
        <ele>806.40002441406</ele>
        <time>2023-07-12T13:05:45.000Z</time>
      </trkpt>
      <trkpt lat="42.45863" lon="2.91461">
        <ele>806</ele>
        <time>2023-07-12T13:05:53.000Z</time>
      </trkpt>
      <trkpt lat="42.45861" lon="2.91452">
        <ele>805.59997558594</ele>
        <time>2023-07-12T13:05:59.000Z</time>
      </trkpt>
      <trkpt lat="42.4586" lon="2.91449">
        <ele>805.40002441406</ele>
        <time>2023-07-12T13:06:01.000Z</time>
      </trkpt>
      <trkpt lat="42.45861" lon="2.9144">
        <ele>804.59997558594</ele>
        <time>2023-07-12T13:06:07.000Z</time>
      </trkpt>
      <trkpt lat="42.45861" lon="2.91435">
        <ele>804.59997558594</ele>
        <time>2023-07-12T13:06:10.000Z</time>
      </trkpt>
      <trkpt lat="42.45858" lon="2.91422">
        <ele>804</ele>
        <time>2023-07-12T13:06:17.000Z</time>
      </trkpt>
      <trkpt lat="42.45858" lon="2.91415">
        <ele>803.40002441406</ele>
        <time>2023-07-12T13:06:21.000Z</time>
      </trkpt>
      <trkpt lat="42.45855" lon="2.91411">
        <ele>802.79998779297</ele>
        <time>2023-07-12T13:06:25.000Z</time>
      </trkpt>
      <trkpt lat="42.45853" lon="2.91406">
        <ele>802.20001220703</ele>
        <time>2023-07-12T13:06:28.000Z</time>
      </trkpt>
      <trkpt lat="42.45849" lon="2.914">
        <ele>801.20001220703</ele>
        <time>2023-07-12T13:06:33.000Z</time>
      </trkpt>
      <trkpt lat="42.45848" lon="2.91398">
        <ele>800.79998779297</ele>
        <time>2023-07-12T13:06:34.000Z</time>
      </trkpt>
      <trkpt lat="42.45845" lon="2.91391">
        <ele>800</ele>
        <time>2023-07-12T13:06:38.000Z</time>
      </trkpt>
      <trkpt lat="42.45842" lon="2.91387">
        <ele>799.40002441406</ele>
        <time>2023-07-12T13:06:41.000Z</time>
      </trkpt>
      <trkpt lat="42.4584" lon="2.91386">
        <ele>799</ele>
        <time>2023-07-12T13:06:43.000Z</time>
      </trkpt>
      <trkpt lat="42.45838" lon="2.91381">
        <ele>798.40002441406</ele>
        <time>2023-07-12T13:06:47.000Z</time>
      </trkpt>
      <trkpt lat="42.45837" lon="2.91377">
        <ele>797.79998779297</ele>
        <time>2023-07-12T13:06:50.000Z</time>
      </trkpt>
      <trkpt lat="42.45835" lon="2.91371">
        <ele>796.79998779297</ele>
        <time>2023-07-12T13:06:55.000Z</time>
      </trkpt>
      <trkpt lat="42.45834" lon="2.91369">
        <ele>795.79998779297</ele>
        <time>2023-07-12T13:07:00.000Z</time>
      </trkpt>
      <trkpt lat="42.45831" lon="2.91365">
        <ele>795.40002441406</ele>
        <time>2023-07-12T13:07:03.000Z</time>
      </trkpt>
      <trkpt lat="42.45828" lon="2.91362">
        <ele>794.59997558594</ele>
        <time>2023-07-12T13:07:06.000Z</time>
      </trkpt>
      <trkpt lat="42.45824" lon="2.91357">
        <ele>793.40002441406</ele>
        <time>2023-07-12T13:07:11.000Z</time>
      </trkpt>
      <trkpt lat="42.45822" lon="2.91355">
        <ele>793</ele>
        <time>2023-07-12T13:07:13.000Z</time>
      </trkpt>
      <trkpt lat="42.45819" lon="2.91351">
        <ele>792.20001220703</ele>
        <time>2023-07-12T13:07:16.000Z</time>
      </trkpt>
      <trkpt lat="42.45817" lon="2.9135">
        <ele>791.20001220703</ele>
        <time>2023-07-12T13:07:20.000Z</time>
      </trkpt>
      <trkpt lat="42.45816" lon="2.9135">
        <ele>791.20001220703</ele>
        <time>2023-07-12T13:07:21.000Z</time>
      </trkpt>
      <trkpt lat="42.45811" lon="2.91344">
        <ele>790</ele>
        <time>2023-07-12T13:07:27.000Z</time>
      </trkpt>
      <trkpt lat="42.45804" lon="2.91337">
        <ele>788.79998779297</ele>
        <time>2023-07-12T13:07:34.000Z</time>
      </trkpt>
      <trkpt lat="42.45803" lon="2.91336">
        <ele>788.59997558594</ele>
        <time>2023-07-12T13:07:35.000Z</time>
      </trkpt>
      <trkpt lat="42.45794" lon="2.91332">
        <ele>787.59997558594</ele>
        <time>2023-07-12T13:07:42.000Z</time>
      </trkpt>
      <trkpt lat="42.45791" lon="2.9133">
        <ele>787.40002441406</ele>
        <time>2023-07-12T13:07:44.000Z</time>
      </trkpt>
      <trkpt lat="42.45783" lon="2.91325">
        <ele>786.40002441406</ele>
        <time>2023-07-12T13:07:49.000Z</time>
      </trkpt>
      <trkpt lat="42.45778" lon="2.91321">
        <ele>786</ele>
        <time>2023-07-12T13:07:53.000Z</time>
      </trkpt>
      <trkpt lat="42.45775" lon="2.91318">
        <ele>785.40002441406</ele>
        <time>2023-07-12T13:07:56.000Z</time>
      </trkpt>
      <trkpt lat="42.45771" lon="2.91316">
        <ele>784.59997558594</ele>
        <time>2023-07-12T13:08:02.000Z</time>
      </trkpt>
      <trkpt lat="42.45769" lon="2.91311">
        <ele>784.40002441406</ele>
        <time>2023-07-12T13:08:06.000Z</time>
      </trkpt>
      <trkpt lat="42.45764" lon="2.91305">
        <ele>783.79998779297</ele>
        <time>2023-07-12T13:08:10.000Z</time>
      </trkpt>
      <trkpt lat="42.45759" lon="2.913">
        <ele>783.40002441406</ele>
        <time>2023-07-12T13:08:15.000Z</time>
      </trkpt>
      <trkpt lat="42.45755" lon="2.91296">
        <ele>782.79998779297</ele>
        <time>2023-07-12T13:08:20.000Z</time>
      </trkpt>
      <trkpt lat="42.45752" lon="2.91285">
        <ele>782.40002441406</ele>
        <time>2023-07-12T13:08:28.000Z</time>
      </trkpt>
      <trkpt lat="42.45752" lon="2.91283">
        <ele>782.20001220703</ele>
        <time>2023-07-12T13:08:29.000Z</time>
      </trkpt>
      <trkpt lat="42.45752" lon="2.91269">
        <ele>781.40002441406</ele>
        <time>2023-07-12T13:08:37.000Z</time>
      </trkpt>
      <trkpt lat="42.45752" lon="2.91268">
        <ele>781.20001220703</ele>
        <time>2023-07-12T13:08:38.000Z</time>
      </trkpt>
      <trkpt lat="42.45754" lon="2.91261">
        <ele>780</ele>
        <time>2023-07-12T13:08:43.000Z</time>
      </trkpt>
      <trkpt lat="42.45754" lon="2.91257">
        <ele>779.40002441406</ele>
        <time>2023-07-12T13:08:47.000Z</time>
      </trkpt>
      <trkpt lat="42.45753" lon="2.91255">
        <ele>778.79998779297</ele>
        <time>2023-07-12T13:08:49.000Z</time>
      </trkpt>
      <trkpt lat="42.45751" lon="2.91246">
        <ele>778</ele>
        <time>2023-07-12T13:08:54.000Z</time>
      </trkpt>
      <trkpt lat="42.45751" lon="2.91244">
        <ele>777.79998779297</ele>
        <time>2023-07-12T13:08:55.000Z</time>
      </trkpt>
      <trkpt lat="42.45748" lon="2.91237">
        <ele>776.59997558594</ele>
        <time>2023-07-12T13:09:00.000Z</time>
      </trkpt>
      <trkpt lat="42.45748" lon="2.91235">
        <ele>776.40002441406</ele>
        <time>2023-07-12T13:09:01.000Z</time>
      </trkpt>
      <trkpt lat="42.45746" lon="2.91227">
        <ele>775.59997558594</ele>
        <time>2023-07-12T13:09:06.000Z</time>
      </trkpt>
      <trkpt lat="42.45746" lon="2.91219">
        <ele>774.79998779297</ele>
        <time>2023-07-12T13:09:11.000Z</time>
      </trkpt>
      <trkpt lat="42.45747" lon="2.91215">
        <ele>774.40002441406</ele>
        <time>2023-07-12T13:09:13.000Z</time>
      </trkpt>
      <trkpt lat="42.45749" lon="2.9121">
        <ele>773.20001220703</ele>
        <time>2023-07-12T13:09:18.000Z</time>
      </trkpt>
      <trkpt lat="42.45749" lon="2.9121">
        <ele>773.20001220703</ele>
        <time>2023-07-12T13:09:19.000Z</time>
      </trkpt>
      <trkpt lat="42.45752" lon="2.91204">
        <ele>773.40002441406</ele>
        <time>2023-07-12T13:09:29.000Z</time>
      </trkpt>
      <trkpt lat="42.45753" lon="2.91204">
        <ele>773.40002441406</ele>
        <time>2023-07-12T13:09:31.000Z</time>
      </trkpt>
      <trkpt lat="42.45755" lon="2.91202">
        <ele>773</ele>
        <time>2023-07-12T13:09:39.000Z</time>
      </trkpt>
      <trkpt lat="42.45757" lon="2.91195">
        <ele>772.40002441406</ele>
        <time>2023-07-12T13:09:48.000Z</time>
      </trkpt>
      <trkpt lat="42.45758" lon="2.91192">
        <ele>772</ele>
        <time>2023-07-12T13:09:50.000Z</time>
      </trkpt>
      <trkpt lat="42.45758" lon="2.9119">
        <ele>771.40002441406</ele>
        <time>2023-07-12T13:09:55.000Z</time>
      </trkpt>
      <trkpt lat="42.45758" lon="2.91191">
        <ele>771</ele>
        <time>2023-07-12T13:09:57.000Z</time>
      </trkpt>
      <trkpt lat="42.45762" lon="2.91191">
        <ele>770.79998779297</ele>
        <time>2023-07-12T13:10:06.000Z</time>
      </trkpt>
      <trkpt lat="42.45763" lon="2.91189">
        <ele>770.79998779297</ele>
        <time>2023-07-12T13:10:15.000Z</time>
      </trkpt>
      <trkpt lat="42.45762" lon="2.91182">
        <ele>770.40002441406</ele>
        <time>2023-07-12T13:10:22.000Z</time>
      </trkpt>
      <trkpt lat="42.45762" lon="2.91178">
        <ele>769.79998779297</ele>
        <time>2023-07-12T13:10:25.000Z</time>
      </trkpt>
      <trkpt lat="42.45763" lon="2.91174">
        <ele>769.20001220703</ele>
        <time>2023-07-12T13:10:29.000Z</time>
      </trkpt>
      <trkpt lat="42.45763" lon="2.91172">
        <ele>768.79998779297</ele>
        <time>2023-07-12T13:10:31.000Z</time>
      </trkpt>
      <trkpt lat="42.45766" lon="2.91165">
        <ele>768</ele>
        <time>2023-07-12T13:10:37.000Z</time>
      </trkpt>
      <trkpt lat="42.45768" lon="2.91161">
        <ele>767.79998779297</ele>
        <time>2023-07-12T13:10:39.000Z</time>
      </trkpt>
      <trkpt lat="42.4577" lon="2.91154">
        <ele>767.20001220703</ele>
        <time>2023-07-12T13:10:44.000Z</time>
      </trkpt>
      <trkpt lat="42.45771" lon="2.9115">
        <ele>766.59997558594</ele>
        <time>2023-07-12T13:10:47.000Z</time>
      </trkpt>
      <trkpt lat="42.45775" lon="2.91141">
        <ele>766</ele>
        <time>2023-07-12T13:10:53.000Z</time>
      </trkpt>
      <trkpt lat="42.45777" lon="2.91139">
        <ele>765.59997558594</ele>
        <time>2023-07-12T13:10:57.000Z</time>
      </trkpt>
      <trkpt lat="42.45782" lon="2.91139">
        <ele>765.20001220703</ele>
        <time>2023-07-12T13:11:02.000Z</time>
      </trkpt>
      <trkpt lat="42.45787" lon="2.91142">
        <ele>764.59997558594</ele>
        <time>2023-07-12T13:11:07.000Z</time>
      </trkpt>
      <trkpt lat="42.45789" lon="2.91145">
        <ele>763.59997558594</ele>
        <time>2023-07-12T13:11:11.000Z</time>
      </trkpt>
      <trkpt lat="42.4579" lon="2.91147">
        <ele>763.59997558594</ele>
        <time>2023-07-12T13:11:14.000Z</time>
      </trkpt>
      <trkpt lat="42.4579" lon="2.91152">
        <ele>763</ele>
        <time>2023-07-12T13:11:19.000Z</time>
      </trkpt>
      <trkpt lat="42.45793" lon="2.9116">
        <ele>762.40002441406</ele>
        <time>2023-07-12T13:11:24.000Z</time>
      </trkpt>
      <trkpt lat="42.45796" lon="2.91162">
        <ele>762</ele>
        <time>2023-07-12T13:11:26.000Z</time>
      </trkpt>
      <trkpt lat="42.458" lon="2.91162">
        <ele>761.40002441406</ele>
        <time>2023-07-12T13:11:29.000Z</time>
      </trkpt>
      <trkpt lat="42.45801" lon="2.91161">
        <ele>761.20001220703</ele>
        <time>2023-07-12T13:11:30.000Z</time>
      </trkpt>
      <trkpt lat="42.45804" lon="2.9116">
        <ele>760.79998779297</ele>
        <time>2023-07-12T13:11:32.000Z</time>
      </trkpt>
      <trkpt lat="42.45807" lon="2.91157">
        <ele>760.20001220703</ele>
        <time>2023-07-12T13:11:36.000Z</time>
      </trkpt>
      <trkpt lat="42.45809" lon="2.91151">
        <ele>759.40002441406</ele>
        <time>2023-07-12T13:11:39.000Z</time>
      </trkpt>
      <trkpt lat="42.45809" lon="2.9115">
        <ele>759</ele>
        <time>2023-07-12T13:11:41.000Z</time>
      </trkpt>
      <trkpt lat="42.45809" lon="2.91149">
        <ele>758.79998779297</ele>
        <time>2023-07-12T13:11:42.000Z</time>
      </trkpt>
      <trkpt lat="42.45812" lon="2.91145">
        <ele>758.40002441406</ele>
        <time>2023-07-12T13:11:47.000Z</time>
      </trkpt>
      <trkpt lat="42.45813" lon="2.91143">
        <ele>757.79998779297</ele>
        <time>2023-07-12T13:11:50.000Z</time>
      </trkpt>
      <trkpt lat="42.45815" lon="2.91141">
        <ele>757.20001220703</ele>
        <time>2023-07-12T13:11:54.000Z</time>
      </trkpt>
      <trkpt lat="42.45816" lon="2.9114">
        <ele>756.79998779297</ele>
        <time>2023-07-12T13:11:55.000Z</time>
      </trkpt>
      <trkpt lat="42.45822" lon="2.9113">
        <ele>755.59997558594</ele>
        <time>2023-07-12T13:12:02.000Z</time>
      </trkpt>
      <trkpt lat="42.45829" lon="2.91119">
        <ele>754.59997558594</ele>
        <time>2023-07-12T13:12:10.000Z</time>
      </trkpt>
      <trkpt lat="42.45834" lon="2.91115">
        <ele>754</ele>
        <time>2023-07-12T13:12:15.000Z</time>
      </trkpt>
      <trkpt lat="42.45837" lon="2.91112">
        <ele>753.59997558594</ele>
        <time>2023-07-12T13:12:18.000Z</time>
      </trkpt>
      <trkpt lat="42.4584" lon="2.91106">
        <ele>753</ele>
        <time>2023-07-12T13:12:22.000Z</time>
      </trkpt>
      <trkpt lat="42.45841" lon="2.911">
        <ele>752.40002441406</ele>
        <time>2023-07-12T13:12:26.000Z</time>
      </trkpt>
      <trkpt lat="42.45843" lon="2.91091">
        <ele>751.40002441406</ele>
        <time>2023-07-12T13:12:31.000Z</time>
      </trkpt>
      <trkpt lat="42.45844" lon="2.91088">
        <ele>751.40002441406</ele>
        <time>2023-07-12T13:12:33.000Z</time>
      </trkpt>
      <trkpt lat="42.45845" lon="2.91073">
        <ele>750.59997558594</ele>
        <time>2023-07-12T13:12:42.000Z</time>
      </trkpt>
      <trkpt lat="42.45844" lon="2.91065">
        <ele>750.20001220703</ele>
        <time>2023-07-12T13:12:47.000Z</time>
      </trkpt>
      <trkpt lat="42.45843" lon="2.9106">
        <ele>750</ele>
        <time>2023-07-12T13:12:50.000Z</time>
      </trkpt>
      <trkpt lat="42.45839" lon="2.91048">
        <ele>749.20001220703</ele>
        <time>2023-07-12T13:12:58.000Z</time>
      </trkpt>
      <trkpt lat="42.45838" lon="2.91045">
        <ele>749</ele>
        <time>2023-07-12T13:12:59.000Z</time>
      </trkpt>
      <trkpt lat="42.45836" lon="2.91036">
        <ele>748.20001220703</ele>
        <time>2023-07-12T13:13:04.000Z</time>
      </trkpt>
      <trkpt lat="42.45836" lon="2.91031">
        <ele>747.59997558594</ele>
        <time>2023-07-12T13:13:07.000Z</time>
      </trkpt>
      <trkpt lat="42.45834" lon="2.91025">
        <ele>747</ele>
        <time>2023-07-12T13:13:11.000Z</time>
      </trkpt>
      <trkpt lat="42.45832" lon="2.91017">
        <ele>746</ele>
        <time>2023-07-12T13:13:16.000Z</time>
      </trkpt>
      <trkpt lat="42.4583" lon="2.91007">
        <ele>745</ele>
        <time>2023-07-12T13:13:21.000Z</time>
      </trkpt>
      <trkpt lat="42.45829" lon="2.91001">
        <ele>744.40002441406</ele>
        <time>2023-07-12T13:13:24.000Z</time>
      </trkpt>
      <trkpt lat="42.45828" lon="2.90995">
        <ele>743.79998779297</ele>
        <time>2023-07-12T13:13:27.000Z</time>
      </trkpt>
      <trkpt lat="42.45827" lon="2.9099">
        <ele>742.59997558594</ele>
        <time>2023-07-12T13:13:31.000Z</time>
      </trkpt>
      <trkpt lat="42.45826" lon="2.90988">
        <ele>742.40002441406</ele>
        <time>2023-07-12T13:13:32.000Z</time>
      </trkpt>
      <trkpt lat="42.45823" lon="2.90981">
        <ele>741.59997558594</ele>
        <time>2023-07-12T13:13:37.000Z</time>
      </trkpt>
      <trkpt lat="42.4582" lon="2.90977">
        <ele>741</ele>
        <time>2023-07-12T13:13:40.000Z</time>
      </trkpt>
      <trkpt lat="42.45818" lon="2.90974">
        <ele>740.59997558594</ele>
        <time>2023-07-12T13:13:42.000Z</time>
      </trkpt>
      <trkpt lat="42.45814" lon="2.90966">
        <ele>739.40002441406</ele>
        <time>2023-07-12T13:13:48.000Z</time>
      </trkpt>
      <trkpt lat="42.4581" lon="2.90962">
        <ele>738.79998779297</ele>
        <time>2023-07-12T13:13:52.000Z</time>
      </trkpt>
      <trkpt lat="42.45806" lon="2.90957">
        <ele>738.40002441406</ele>
        <time>2023-07-12T13:13:56.000Z</time>
      </trkpt>
      <trkpt lat="42.45802" lon="2.90954">
        <ele>737.59997558594</ele>
        <time>2023-07-12T13:14:01.000Z</time>
      </trkpt>
      <trkpt lat="42.45801" lon="2.90953">
        <ele>737.40002441406</ele>
        <time>2023-07-12T13:14:02.000Z</time>
      </trkpt>
      <trkpt lat="42.45791" lon="2.90946">
        <ele>736.20001220703</ele>
        <time>2023-07-12T13:14:08.000Z</time>
      </trkpt>
      <trkpt lat="42.45787" lon="2.90944">
        <ele>735.79998779297</ele>
        <time>2023-07-12T13:14:11.000Z</time>
      </trkpt>
      <trkpt lat="42.45781" lon="2.90942">
        <ele>735.40002441406</ele>
        <time>2023-07-12T13:14:18.000Z</time>
      </trkpt>
      <trkpt lat="42.45779" lon="2.90941">
        <ele>735.20001220703</ele>
        <time>2023-07-12T13:14:20.000Z</time>
      </trkpt>
      <trkpt lat="42.45774" lon="2.90932">
        <ele>734</ele>
        <time>2023-07-12T13:14:27.000Z</time>
      </trkpt>
      <trkpt lat="42.45773" lon="2.90931">
        <ele>734</ele>
        <time>2023-07-12T13:14:28.000Z</time>
      </trkpt>
      <trkpt lat="42.45769" lon="2.90924">
        <ele>732.79998779297</ele>
        <time>2023-07-12T13:14:34.000Z</time>
      </trkpt>
      <trkpt lat="42.45766" lon="2.90919">
        <ele>732.20001220703</ele>
        <time>2023-07-12T13:14:36.000Z</time>
      </trkpt>
      <trkpt lat="42.45763" lon="2.90916">
        <ele>731.59997558594</ele>
        <time>2023-07-12T13:14:39.000Z</time>
      </trkpt>
      <trkpt lat="42.4576" lon="2.90915">
        <ele>730.59997558594</ele>
        <time>2023-07-12T13:14:43.000Z</time>
      </trkpt>
      <trkpt lat="42.45759" lon="2.90914">
        <ele>730.40002441406</ele>
        <time>2023-07-12T13:14:44.000Z</time>
      </trkpt>
      <trkpt lat="42.45752" lon="2.90909">
        <ele>729.20001220703</ele>
        <time>2023-07-12T13:14:49.000Z</time>
      </trkpt>
      <trkpt lat="42.45749" lon="2.90904">
        <ele>728.40002441406</ele>
        <time>2023-07-12T13:14:53.000Z</time>
      </trkpt>
      <trkpt lat="42.45748" lon="2.909">
        <ele>728</ele>
        <time>2023-07-12T13:14:55.000Z</time>
      </trkpt>
      <trkpt lat="42.45747" lon="2.90891">
        <ele>726.79998779297</ele>
        <time>2023-07-12T13:15:01.000Z</time>
      </trkpt>
      <trkpt lat="42.45743" lon="2.9088">
        <ele>725.79998779297</ele>
        <time>2023-07-12T13:15:07.000Z</time>
      </trkpt>
      <trkpt lat="42.45741" lon="2.90874">
        <ele>725.40002441406</ele>
        <time>2023-07-12T13:15:10.000Z</time>
      </trkpt>
      <trkpt lat="42.4574" lon="2.9087">
        <ele>724.79998779297</ele>
        <time>2023-07-12T13:15:12.000Z</time>
      </trkpt>
      <trkpt lat="42.45738" lon="2.90863">
        <ele>723.59997558594</ele>
        <time>2023-07-12T13:15:19.000Z</time>
      </trkpt>
      <trkpt lat="42.45738" lon="2.90856">
        <ele>722.59997558594</ele>
        <time>2023-07-12T13:15:24.000Z</time>
      </trkpt>
      <trkpt lat="42.45738" lon="2.90848">
        <ele>721.40002441406</ele>
        <time>2023-07-12T13:15:29.000Z</time>
      </trkpt>
      <trkpt lat="42.45738" lon="2.9084">
        <ele>720.40002441406</ele>
        <time>2023-07-12T13:15:35.000Z</time>
      </trkpt>
      <trkpt lat="42.45738" lon="2.90839">
        <ele>720</ele>
        <time>2023-07-12T13:15:36.000Z</time>
      </trkpt>
      <trkpt lat="42.45737" lon="2.90837">
        <ele>719.20001220703</ele>
        <time>2023-07-12T13:15:39.000Z</time>
      </trkpt>
      <trkpt lat="42.45736" lon="2.9083">
        <ele>718.59997558594</ele>
        <time>2023-07-12T13:15:44.000Z</time>
      </trkpt>
      <trkpt lat="42.45736" lon="2.90827">
        <ele>718.20001220703</ele>
        <time>2023-07-12T13:15:46.000Z</time>
      </trkpt>
      <trkpt lat="42.45737" lon="2.90818">
        <ele>717.20001220703</ele>
        <time>2023-07-12T13:15:54.000Z</time>
      </trkpt>
      <trkpt lat="42.45737" lon="2.90817">
        <ele>717</ele>
        <time>2023-07-12T13:15:55.000Z</time>
      </trkpt>
      <trkpt lat="42.4574" lon="2.90807">
        <ele>716.20001220703</ele>
        <time>2023-07-12T13:16:01.000Z</time>
      </trkpt>
      <trkpt lat="42.4574" lon="2.90806">
        <ele>716</ele>
        <time>2023-07-12T13:16:02.000Z</time>
      </trkpt>
      <trkpt lat="42.45742" lon="2.90798">
        <ele>715.59997558594</ele>
        <time>2023-07-12T13:16:09.000Z</time>
      </trkpt>
      <trkpt lat="42.45744" lon="2.90788">
        <ele>715</ele>
        <time>2023-07-12T13:16:17.000Z</time>
      </trkpt>
      <trkpt lat="42.45744" lon="2.90788">
        <ele>715</ele>
        <time>2023-07-12T13:16:18.000Z</time>
      </trkpt>
      <trkpt lat="42.45746" lon="2.9078">
        <ele>714.20001220703</ele>
        <time>2023-07-12T13:16:24.000Z</time>
      </trkpt>
      <trkpt lat="42.45747" lon="2.90779">
        <ele>714</ele>
        <time>2023-07-12T13:16:25.000Z</time>
      </trkpt>
      <trkpt lat="42.45751" lon="2.90773">
        <ele>713</ele>
        <time>2023-07-12T13:16:32.000Z</time>
      </trkpt>
      <trkpt lat="42.45753" lon="2.9077">
        <ele>712.79998779297</ele>
        <time>2023-07-12T13:16:34.000Z</time>
      </trkpt>
      <trkpt lat="42.45755" lon="2.90763">
        <ele>711.79998779297</ele>
        <time>2023-07-12T13:16:41.000Z</time>
      </trkpt>
      <trkpt lat="42.45755" lon="2.90761">
        <ele>711.79998779297</ele>
        <time>2023-07-12T13:16:42.000Z</time>
      </trkpt>
      <trkpt lat="42.45756" lon="2.90753">
        <ele>710.79998779297</ele>
        <time>2023-07-12T13:16:47.000Z</time>
      </trkpt>
      <trkpt lat="42.45758" lon="2.90748">
        <ele>710.40002441406</ele>
        <time>2023-07-12T13:16:50.000Z</time>
      </trkpt>
      <trkpt lat="42.45759" lon="2.90741">
        <ele>709.79998779297</ele>
        <time>2023-07-12T13:16:53.000Z</time>
      </trkpt>
      <trkpt lat="42.45759" lon="2.90735">
        <ele>709</ele>
        <time>2023-07-12T13:16:57.000Z</time>
      </trkpt>
      <trkpt lat="42.4576" lon="2.90734">
        <ele>708.59997558594</ele>
        <time>2023-07-12T13:16:58.000Z</time>
      </trkpt>
      <trkpt lat="42.45762" lon="2.90724">
        <ele>707.59997558594</ele>
        <time>2023-07-12T13:17:04.000Z</time>
      </trkpt>
      <trkpt lat="42.45762" lon="2.90723">
        <ele>707.40002441406</ele>
        <time>2023-07-12T13:17:05.000Z</time>
      </trkpt>
      <trkpt lat="42.45763" lon="2.90717">
        <ele>706.59997558594</ele>
        <time>2023-07-12T13:17:08.000Z</time>
      </trkpt>
      <trkpt lat="42.45764" lon="2.9071">
        <ele>705.79998779297</ele>
        <time>2023-07-12T13:17:12.000Z</time>
      </trkpt>
      <trkpt lat="42.45764" lon="2.90708">
        <ele>705.40002441406</ele>
        <time>2023-07-12T13:17:13.000Z</time>
      </trkpt>
      <trkpt lat="42.45766" lon="2.907">
        <ele>704.40002441406</ele>
        <time>2023-07-12T13:17:18.000Z</time>
      </trkpt>
      <trkpt lat="42.45769" lon="2.90691">
        <ele>703.79998779297</ele>
        <time>2023-07-12T13:17:23.000Z</time>
      </trkpt>
      <trkpt lat="42.4577" lon="2.90686">
        <ele>703.40002441406</ele>
        <time>2023-07-12T13:17:26.000Z</time>
      </trkpt>
      <trkpt lat="42.4577" lon="2.90677">
        <ele>702.20001220703</ele>
        <time>2023-07-12T13:17:32.000Z</time>
      </trkpt>
      <trkpt lat="42.4577" lon="2.90675">
        <ele>702</ele>
        <time>2023-07-12T13:17:33.000Z</time>
      </trkpt>
      <trkpt lat="42.4577" lon="2.9067">
        <ele>701.20001220703</ele>
        <time>2023-07-12T13:17:37.000Z</time>
      </trkpt>
      <trkpt lat="42.45769" lon="2.90663">
        <ele>700.59997558594</ele>
        <time>2023-07-12T13:17:41.000Z</time>
      </trkpt>
      <trkpt lat="42.4577" lon="2.90651">
        <ele>700</ele>
        <time>2023-07-12T13:17:47.000Z</time>
      </trkpt>
      <trkpt lat="42.45769" lon="2.90649">
        <ele>699.79998779297</ele>
        <time>2023-07-12T13:17:49.000Z</time>
      </trkpt>
      <trkpt lat="42.45769" lon="2.90645">
        <ele>699</ele>
        <time>2023-07-12T13:17:52.000Z</time>
      </trkpt>
      <trkpt lat="42.45769" lon="2.90639">
        <ele>698</ele>
        <time>2023-07-12T13:17:56.000Z</time>
      </trkpt>
      <trkpt lat="42.45769" lon="2.90637">
        <ele>697.59997558594</ele>
        <time>2023-07-12T13:17:57.000Z</time>
      </trkpt>
      <trkpt lat="42.45766" lon="2.90625">
        <ele>697</ele>
        <time>2023-07-12T13:18:03.000Z</time>
      </trkpt>
      <trkpt lat="42.45766" lon="2.90623">
        <ele>696.79998779297</ele>
        <time>2023-07-12T13:18:04.000Z</time>
      </trkpt>
      <trkpt lat="42.45766" lon="2.90614">
        <ele>695.79998779297</ele>
        <time>2023-07-12T13:18:09.000Z</time>
      </trkpt>
      <trkpt lat="42.45765" lon="2.9061">
        <ele>695.20001220703</ele>
        <time>2023-07-12T13:18:12.000Z</time>
      </trkpt>
      <trkpt lat="42.45765" lon="2.90598">
        <ele>694.59997558594</ele>
        <time>2023-07-12T13:18:18.000Z</time>
      </trkpt>
      <trkpt lat="42.45766" lon="2.90592">
        <ele>694.20001220703</ele>
        <time>2023-07-12T13:18:22.000Z</time>
      </trkpt>
      <trkpt lat="42.45765" lon="2.90588">
        <ele>693.59997558594</ele>
        <time>2023-07-12T13:18:25.000Z</time>
      </trkpt>
      <trkpt lat="42.45765" lon="2.90584">
        <ele>693.20001220703</ele>
        <time>2023-07-12T13:18:28.000Z</time>
      </trkpt>
      <trkpt lat="42.45765" lon="2.90579">
        <ele>692.59997558594</ele>
        <time>2023-07-12T13:18:31.000Z</time>
      </trkpt>
      <trkpt lat="42.45763" lon="2.90573">
        <ele>691.59997558594</ele>
        <time>2023-07-12T13:18:36.000Z</time>
      </trkpt>
      <trkpt lat="42.45764" lon="2.90571">
        <ele>691.40002441406</ele>
        <time>2023-07-12T13:18:37.000Z</time>
      </trkpt>
      <trkpt lat="42.45764" lon="2.90563">
        <ele>690.40002441406</ele>
        <time>2023-07-12T13:18:42.000Z</time>
      </trkpt>
      <trkpt lat="42.45764" lon="2.90561">
        <ele>690.20001220703</ele>
        <time>2023-07-12T13:18:43.000Z</time>
      </trkpt>
      <trkpt lat="42.45764" lon="2.90551">
        <ele>689.40002441406</ele>
        <time>2023-07-12T13:18:48.000Z</time>
      </trkpt>
      <trkpt lat="42.45763" lon="2.90549">
        <ele>688.79998779297</ele>
        <time>2023-07-12T13:18:50.000Z</time>
      </trkpt>
      <trkpt lat="42.45763" lon="2.90545">
        <ele>688.20001220703</ele>
        <time>2023-07-12T13:18:52.000Z</time>
      </trkpt>
      <trkpt lat="42.45764" lon="2.90534">
        <ele>687</ele>
        <time>2023-07-12T13:18:57.000Z</time>
      </trkpt>
      <trkpt lat="42.45764" lon="2.90533">
        <ele>686.79998779297</ele>
        <time>2023-07-12T13:18:58.000Z</time>
      </trkpt>
      <trkpt lat="42.45764" lon="2.90525">
        <ele>685.79998779297</ele>
        <time>2023-07-12T13:19:02.000Z</time>
      </trkpt>
      <trkpt lat="42.45764" lon="2.90517">
        <ele>684.79998779297</ele>
        <time>2023-07-12T13:19:07.000Z</time>
      </trkpt>
      <trkpt lat="42.45764" lon="2.90515">
        <ele>684.59997558594</ele>
        <time>2023-07-12T13:19:08.000Z</time>
      </trkpt>
      <trkpt lat="42.45765" lon="2.90506">
        <ele>683.59997558594</ele>
        <time>2023-07-12T13:19:13.000Z</time>
      </trkpt>
      <trkpt lat="42.45765" lon="2.90501">
        <ele>683.20001220703</ele>
        <time>2023-07-12T13:19:15.000Z</time>
      </trkpt>
      <trkpt lat="42.45764" lon="2.90495">
        <ele>682.59997558594</ele>
        <time>2023-07-12T13:19:20.000Z</time>
      </trkpt>
      <trkpt lat="42.45764" lon="2.90493">
        <ele>682.40002441406</ele>
        <time>2023-07-12T13:19:22.000Z</time>
      </trkpt>
      <trkpt lat="42.45762" lon="2.90479">
        <ele>681.40002441406</ele>
        <time>2023-07-12T13:19:31.000Z</time>
      </trkpt>
      <trkpt lat="42.45763" lon="2.90464">
        <ele>680.40002441406</ele>
        <time>2023-07-12T13:19:38.000Z</time>
      </trkpt>
      <trkpt lat="42.45763" lon="2.90462">
        <ele>680.20001220703</ele>
        <time>2023-07-12T13:19:39.000Z</time>
      </trkpt>
      <trkpt lat="42.45763" lon="2.90446">
        <ele>679.59997558594</ele>
        <time>2023-07-12T13:19:48.000Z</time>
      </trkpt>
      <trkpt lat="42.45763" lon="2.90439">
        <ele>679.20001220703</ele>
        <time>2023-07-12T13:19:51.000Z</time>
      </trkpt>
      <trkpt lat="42.45762" lon="2.90429">
        <ele>678.59997558594</ele>
        <time>2023-07-12T13:19:57.000Z</time>
      </trkpt>
      <trkpt lat="42.45764" lon="2.90415">
        <ele>678.20001220703</ele>
        <time>2023-07-12T13:20:05.000Z</time>
      </trkpt>
      <trkpt lat="42.45765" lon="2.90411">
        <ele>678.20001220703</ele>
        <time>2023-07-12T13:20:07.000Z</time>
      </trkpt>
      <trkpt lat="42.45767" lon="2.90404">
        <ele>677.79998779297</ele>
        <time>2023-07-12T13:20:11.000Z</time>
      </trkpt>
      <trkpt lat="42.45771" lon="2.90397">
        <ele>677</ele>
        <time>2023-07-12T13:20:18.000Z</time>
      </trkpt>
      <trkpt lat="42.45775" lon="2.90387">
        <ele>676</ele>
        <time>2023-07-12T13:20:24.000Z</time>
      </trkpt>
      <trkpt lat="42.45776" lon="2.90385">
        <ele>675.59997558594</ele>
        <time>2023-07-12T13:20:26.000Z</time>
      </trkpt>
      <trkpt lat="42.4578" lon="2.90381">
        <ele>674.79998779297</ele>
        <time>2023-07-12T13:20:29.000Z</time>
      </trkpt>
      <trkpt lat="42.45787" lon="2.90376">
        <ele>674</ele>
        <time>2023-07-12T13:20:34.000Z</time>
      </trkpt>
      <trkpt lat="42.45789" lon="2.90374">
        <ele>673.79998779297</ele>
        <time>2023-07-12T13:20:36.000Z</time>
      </trkpt>
      <trkpt lat="42.45796" lon="2.90369">
        <ele>672.40002441406</ele>
        <time>2023-07-12T13:20:42.000Z</time>
      </trkpt>
      <trkpt lat="42.45797" lon="2.90367">
        <ele>672</ele>
        <time>2023-07-12T13:20:44.000Z</time>
      </trkpt>
      <trkpt lat="42.45798" lon="2.90365">
        <ele>671.40002441406</ele>
        <time>2023-07-12T13:20:46.000Z</time>
      </trkpt>
      <trkpt lat="42.45801" lon="2.90358">
        <ele>670.40002441406</ele>
        <time>2023-07-12T13:20:51.000Z</time>
      </trkpt>
      <trkpt lat="42.45801" lon="2.90356">
        <ele>670.40002441406</ele>
        <time>2023-07-12T13:20:52.000Z</time>
      </trkpt>
      <trkpt lat="42.45803" lon="2.9035">
        <ele>669.20001220703</ele>
        <time>2023-07-12T13:20:56.000Z</time>
      </trkpt>
      <trkpt lat="42.45808" lon="2.90341">
        <ele>668.59997558594</ele>
        <time>2023-07-12T13:21:02.000Z</time>
      </trkpt>
      <trkpt lat="42.45811" lon="2.90337">
        <ele>668</ele>
        <time>2023-07-12T13:21:06.000Z</time>
      </trkpt>
      <trkpt lat="42.45814" lon="2.90326">
        <ele>667</ele>
        <time>2023-07-12T13:21:12.000Z</time>
      </trkpt>
      <trkpt lat="42.45815" lon="2.90324">
        <ele>667</ele>
        <time>2023-07-12T13:21:13.000Z</time>
      </trkpt>
      <trkpt lat="42.45818" lon="2.90311">
        <ele>665.79998779297</ele>
        <time>2023-07-12T13:21:19.000Z</time>
      </trkpt>
      <trkpt lat="42.45818" lon="2.9031">
        <ele>665.79998779297</ele>
        <time>2023-07-12T13:21:20.000Z</time>
      </trkpt>
      <trkpt lat="42.45822" lon="2.90299">
        <ele>664.79998779297</ele>
        <time>2023-07-12T13:21:27.000Z</time>
      </trkpt>
      <trkpt lat="42.45822" lon="2.90298">
        <ele>664.59997558594</ele>
        <time>2023-07-12T13:21:28.000Z</time>
      </trkpt>
      <trkpt lat="42.45826" lon="2.90292">
        <ele>663.59997558594</ele>
        <time>2023-07-12T13:21:33.000Z</time>
      </trkpt>
      <trkpt lat="42.45829" lon="2.90286">
        <ele>662.59997558594</ele>
        <time>2023-07-12T13:21:37.000Z</time>
      </trkpt>
      <trkpt lat="42.4583" lon="2.90285">
        <ele>662.40002441406</ele>
        <time>2023-07-12T13:21:38.000Z</time>
      </trkpt>
      <trkpt lat="42.45835" lon="2.90278">
        <ele>661.59997558594</ele>
        <time>2023-07-12T13:21:43.000Z</time>
      </trkpt>
      <trkpt lat="42.45835" lon="2.90277">
        <ele>661.40002441406</ele>
        <time>2023-07-12T13:21:44.000Z</time>
      </trkpt>
      <trkpt lat="42.45838" lon="2.90268">
        <ele>660.20001220703</ele>
        <time>2023-07-12T13:21:50.000Z</time>
      </trkpt>
      <trkpt lat="42.45839" lon="2.90266">
        <ele>660</ele>
        <time>2023-07-12T13:21:51.000Z</time>
      </trkpt>
      <trkpt lat="42.45841" lon="2.90258">
        <ele>659</ele>
        <time>2023-07-12T13:21:56.000Z</time>
      </trkpt>
      <trkpt lat="42.45842" lon="2.90251">
        <ele>658.20001220703</ele>
        <time>2023-07-12T13:22:00.000Z</time>
      </trkpt>
      <trkpt lat="42.45842" lon="2.9025">
        <ele>658</ele>
        <time>2023-07-12T13:22:01.000Z</time>
      </trkpt>
      <trkpt lat="42.45844" lon="2.90245">
        <ele>656.79998779297</ele>
        <time>2023-07-12T13:22:06.000Z</time>
      </trkpt>
      <trkpt lat="42.45846" lon="2.90243">
        <ele>656.20001220703</ele>
        <time>2023-07-12T13:22:09.000Z</time>
      </trkpt>
      <trkpt lat="42.45848" lon="2.90241">
        <ele>655.79998779297</ele>
        <time>2023-07-12T13:22:11.000Z</time>
      </trkpt>
      <trkpt lat="42.45852" lon="2.90238">
        <ele>654.59997558594</ele>
        <time>2023-07-12T13:22:15.000Z</time>
      </trkpt>
      <trkpt lat="42.45856" lon="2.90233">
        <ele>654</ele>
        <time>2023-07-12T13:22:18.000Z</time>
      </trkpt>
      <trkpt lat="42.45858" lon="2.90229">
        <ele>653.40002441406</ele>
        <time>2023-07-12T13:22:20.000Z</time>
      </trkpt>
      <trkpt lat="42.45861" lon="2.90222">
        <ele>652.20001220703</ele>
        <time>2023-07-12T13:22:25.000Z</time>
      </trkpt>
      <trkpt lat="42.45862" lon="2.90218">
        <ele>651.59997558594</ele>
        <time>2023-07-12T13:22:28.000Z</time>
      </trkpt>
      <trkpt lat="42.45864" lon="2.90215">
        <ele>651.20001220703</ele>
        <time>2023-07-12T13:22:30.000Z</time>
      </trkpt>
      <trkpt lat="42.45865" lon="2.90207">
        <ele>650</ele>
        <time>2023-07-12T13:22:34.000Z</time>
      </trkpt>
      <trkpt lat="42.45866" lon="2.90203">
        <ele>649.40002441406</ele>
        <time>2023-07-12T13:22:36.000Z</time>
      </trkpt>
      <trkpt lat="42.45867" lon="2.90201">
        <ele>649</ele>
        <time>2023-07-12T13:22:37.000Z</time>
      </trkpt>
      <trkpt lat="42.45868" lon="2.90194">
        <ele>648</ele>
        <time>2023-07-12T13:22:41.000Z</time>
      </trkpt>
      <trkpt lat="42.4587" lon="2.90187">
        <ele>647.20001220703</ele>
        <time>2023-07-12T13:22:45.000Z</time>
      </trkpt>
      <trkpt lat="42.45871" lon="2.90185">
        <ele>647</ele>
        <time>2023-07-12T13:22:46.000Z</time>
      </trkpt>
      <trkpt lat="42.45875" lon="2.90175">
        <ele>645.79998779297</ele>
        <time>2023-07-12T13:22:52.000Z</time>
      </trkpt>
      <trkpt lat="42.45875" lon="2.90174">
        <ele>645.59997558594</ele>
        <time>2023-07-12T13:22:53.000Z</time>
      </trkpt>
      <trkpt lat="42.45876" lon="2.90168">
        <ele>644.59997558594</ele>
        <time>2023-07-12T13:22:58.000Z</time>
      </trkpt>
      <trkpt lat="42.45879" lon="2.90163">
        <ele>644</ele>
        <time>2023-07-12T13:23:02.000Z</time>
      </trkpt>
      <trkpt lat="42.4588" lon="2.90161">
        <ele>643.59997558594</ele>
        <time>2023-07-12T13:23:03.000Z</time>
      </trkpt>
      <trkpt lat="42.45883" lon="2.90154">
        <ele>642.59997558594</ele>
        <time>2023-07-12T13:23:08.000Z</time>
      </trkpt>
      <trkpt lat="42.45887" lon="2.90145">
        <ele>641.59997558594</ele>
        <time>2023-07-12T13:23:14.000Z</time>
      </trkpt>
      <trkpt lat="42.45889" lon="2.90137">
        <ele>640.79998779297</ele>
        <time>2023-07-12T13:23:18.000Z</time>
      </trkpt>
      <trkpt lat="42.45889" lon="2.90135">
        <ele>640.40002441406</ele>
        <time>2023-07-12T13:23:19.000Z</time>
      </trkpt>
      <trkpt lat="42.45891" lon="2.90126">
        <ele>639.40002441406</ele>
        <time>2023-07-12T13:23:25.000Z</time>
      </trkpt>
      <trkpt lat="42.45897" lon="2.90119">
        <ele>638.40002441406</ele>
        <time>2023-07-12T13:23:32.000Z</time>
      </trkpt>
      <trkpt lat="42.45898" lon="2.90118">
        <ele>638.20001220703</ele>
        <time>2023-07-12T13:23:33.000Z</time>
      </trkpt>
      <trkpt lat="42.45902" lon="2.90112">
        <ele>637.20001220703</ele>
        <time>2023-07-12T13:23:38.000Z</time>
      </trkpt>
      <trkpt lat="42.45905" lon="2.9011">
        <ele>636.59997558594</ele>
        <time>2023-07-12T13:23:42.000Z</time>
      </trkpt>
      <trkpt lat="42.45909" lon="2.90109">
        <ele>636.20001220703</ele>
        <time>2023-07-12T13:23:45.000Z</time>
      </trkpt>
      <trkpt lat="42.45917" lon="2.90109">
        <ele>635.20001220703</ele>
        <time>2023-07-12T13:23:51.000Z</time>
      </trkpt>
      <trkpt lat="42.45918" lon="2.90109">
        <ele>635</ele>
        <time>2023-07-12T13:23:52.000Z</time>
      </trkpt>
      <trkpt lat="42.45929" lon="2.90106">
        <ele>634</ele>
        <time>2023-07-12T13:24:00.000Z</time>
      </trkpt>
      <trkpt lat="42.4593" lon="2.90105">
        <ele>633.79998779297</ele>
        <time>2023-07-12T13:24:01.000Z</time>
      </trkpt>
      <trkpt lat="42.45936" lon="2.90102">
        <ele>632.79998779297</ele>
        <time>2023-07-12T13:24:06.000Z</time>
      </trkpt>
      <trkpt lat="42.4594" lon="2.90101">
        <ele>632.20001220703</ele>
        <time>2023-07-12T13:24:09.000Z</time>
      </trkpt>
      <trkpt lat="42.4595" lon="2.90095">
        <ele>631.79998779297</ele>
        <time>2023-07-12T13:24:17.000Z</time>
      </trkpt>
      <trkpt lat="42.45961" lon="2.90092">
        <ele>630.59997558594</ele>
        <time>2023-07-12T13:24:24.000Z</time>
      </trkpt>
      <trkpt lat="42.45962" lon="2.90092">
        <ele>630.40002441406</ele>
        <time>2023-07-12T13:24:25.000Z</time>
      </trkpt>
      <trkpt lat="42.45967" lon="2.90089">
        <ele>629.20001220703</ele>
        <time>2023-07-12T13:24:30.000Z</time>
      </trkpt>
      <trkpt lat="42.45971" lon="2.90087">
        <ele>628.40002441406</ele>
        <time>2023-07-12T13:24:34.000Z</time>
      </trkpt>
      <trkpt lat="42.45971" lon="2.90087">
        <ele>628.20001220703</ele>
        <time>2023-07-12T13:24:35.000Z</time>
      </trkpt>
      <trkpt lat="42.45975" lon="2.90083">
        <ele>627.20001220703</ele>
        <time>2023-07-12T13:24:39.000Z</time>
      </trkpt>
      <trkpt lat="42.45981" lon="2.90081">
        <ele>626.59997558594</ele>
        <time>2023-07-12T13:24:43.000Z</time>
      </trkpt>
      <trkpt lat="42.45987" lon="2.90079">
        <ele>626</ele>
        <time>2023-07-12T13:24:47.000Z</time>
      </trkpt>
      <trkpt lat="42.45991" lon="2.90078">
        <ele>625.59997558594</ele>
        <time>2023-07-12T13:24:50.000Z</time>
      </trkpt>
      <trkpt lat="42.45998" lon="2.90078">
        <ele>625</ele>
        <time>2023-07-12T13:24:55.000Z</time>
      </trkpt>
      <trkpt lat="42.46004" lon="2.90079">
        <ele>624.59997558594</ele>
        <time>2023-07-12T13:24:58.000Z</time>
      </trkpt>
      <trkpt lat="42.46005" lon="2.90081">
        <ele>624</ele>
        <time>2023-07-12T13:25:03.000Z</time>
      </trkpt>
      <trkpt lat="42.46009" lon="2.90085">
        <ele>624</ele>
        <time>2023-07-12T13:25:11.000Z</time>
      </trkpt>
      <trkpt lat="42.4601" lon="2.90085">
        <ele>623.79998779297</ele>
        <time>2023-07-12T13:25:12.000Z</time>
      </trkpt>
      <trkpt lat="42.46009" lon="2.9008">
        <ele>623.59997558594</ele>
        <time>2023-07-12T13:25:20.000Z</time>
      </trkpt>
      <trkpt lat="42.46009" lon="2.9008">
        <ele>623.59997558594</ele>
        <time>2023-07-12T13:25:26.000Z</time>
      </trkpt>
      <trkpt lat="42.4601" lon="2.90079">
        <ele>623.59997558594</ele>
        <time>2023-07-12T13:25:35.000Z</time>
      </trkpt>
      <trkpt lat="42.46013" lon="2.9008">
        <ele>623.59997558594</ele>
        <time>2023-07-12T13:25:44.000Z</time>
      </trkpt>
      <trkpt lat="42.46019" lon="2.90076">
        <ele>623</ele>
        <time>2023-07-12T13:25:52.000Z</time>
      </trkpt>
      <trkpt lat="42.46022" lon="2.90073">
        <ele>623</ele>
        <time>2023-07-12T13:25:55.000Z</time>
      </trkpt>
      <trkpt lat="42.46026" lon="2.90066">
        <ele>622.79998779297</ele>
        <time>2023-07-12T13:26:00.000Z</time>
      </trkpt>
      <trkpt lat="42.46029" lon="2.90053">
        <ele>622.40002441406</ele>
        <time>2023-07-12T13:26:08.000Z</time>
      </trkpt>
      <trkpt lat="42.46033" lon="2.90038">
        <ele>622.40002441406</ele>
        <time>2023-07-12T13:26:17.000Z</time>
      </trkpt>
      <trkpt lat="42.46039" lon="2.90027">
        <ele>622.20001220703</ele>
        <time>2023-07-12T13:26:25.000Z</time>
      </trkpt>
      <trkpt lat="42.46038" lon="2.90023">
        <ele>622.20001220703</ele>
        <time>2023-07-12T13:26:33.000Z</time>
      </trkpt>
      <trkpt lat="42.46035" lon="2.90018">
        <ele>622</ele>
        <time>2023-07-12T13:26:42.000Z</time>
      </trkpt>
      <trkpt lat="42.46038" lon="2.90023">
        <ele>622</ele>
        <time>2023-07-12T13:26:51.000Z</time>
      </trkpt>
      <trkpt lat="42.46041" lon="2.90021">
        <ele>621.79998779297</ele>
        <time>2023-07-12T13:26:59.000Z</time>
      </trkpt>
      <trkpt lat="42.4605" lon="2.90014">
        <ele>622</ele>
        <time>2023-07-12T13:27:08.000Z</time>
      </trkpt>
      <trkpt lat="42.46061" lon="2.90006">
        <ele>621.79998779297</ele>
        <time>2023-07-12T13:27:17.000Z</time>
      </trkpt>
      <trkpt lat="42.46069" lon="2.89999">
        <ele>621.79998779297</ele>
        <time>2023-07-12T13:27:25.000Z</time>
      </trkpt>
      <trkpt lat="42.4608" lon="2.89988">
        <ele>621.59997558594</ele>
        <time>2023-07-12T13:27:34.000Z</time>
      </trkpt>
      <trkpt lat="42.4609" lon="2.89974">
        <ele>621.20001220703</ele>
        <time>2023-07-12T13:27:44.000Z</time>
      </trkpt>
      <trkpt lat="42.46098" lon="2.89964">
        <ele>620.79998779297</ele>
        <time>2023-07-12T13:27:51.000Z</time>
      </trkpt>
      <trkpt lat="42.46099" lon="2.89963">
        <ele>620.59997558594</ele>
        <time>2023-07-12T13:27:52.000Z</time>
      </trkpt>
      <trkpt lat="42.46105" lon="2.89948">
        <ele>620.20001220703</ele>
        <time>2023-07-12T13:28:02.000Z</time>
      </trkpt>
      <trkpt lat="42.46108" lon="2.89935">
        <ele>620</ele>
        <time>2023-07-12T13:28:10.000Z</time>
      </trkpt>
      <trkpt lat="42.46108" lon="2.89932">
        <ele>619.59997558594</ele>
        <time>2023-07-12T13:28:13.000Z</time>
      </trkpt>
      <trkpt lat="42.46106" lon="2.89923">
        <ele>619.40002441406</ele>
        <time>2023-07-12T13:28:17.000Z</time>
      </trkpt>
      <trkpt lat="42.46104" lon="2.89901">
        <ele>619.20001220703</ele>
        <time>2023-07-12T13:28:25.000Z</time>
      </trkpt>
      <trkpt lat="42.46097" lon="2.89875">
        <ele>618.79998779297</ele>
        <time>2023-07-12T13:28:37.000Z</time>
      </trkpt>
      <trkpt lat="42.46095" lon="2.89856">
        <ele>618.59997558594</ele>
        <time>2023-07-12T13:28:46.000Z</time>
      </trkpt>
      <trkpt lat="42.46094" lon="2.89849">
        <ele>618.59997558594</ele>
        <time>2023-07-12T13:28:49.000Z</time>
      </trkpt>
      <trkpt lat="42.46095" lon="2.89843">
        <ele>618.40002441406</ele>
        <time>2023-07-12T13:28:53.000Z</time>
      </trkpt>
      <trkpt lat="42.46098" lon="2.89831">
        <ele>618.20001220703</ele>
        <time>2023-07-12T13:29:01.000Z</time>
      </trkpt>
      <trkpt lat="42.46104" lon="2.89816">
        <ele>618</ele>
        <time>2023-07-12T13:29:09.000Z</time>
      </trkpt>
      <trkpt lat="42.4611" lon="2.89798">
        <ele>617.59997558594</ele>
        <time>2023-07-12T13:29:19.000Z</time>
      </trkpt>
      <trkpt lat="42.46115" lon="2.89784">
        <ele>617.79998779297</ele>
        <time>2023-07-12T13:29:27.000Z</time>
      </trkpt>
      <trkpt lat="42.46116" lon="2.89769">
        <ele>617.40002441406</ele>
        <time>2023-07-12T13:29:33.000Z</time>
      </trkpt>
      <trkpt lat="42.46116" lon="2.89756">
        <ele>617.20001220703</ele>
        <time>2023-07-12T13:29:38.000Z</time>
      </trkpt>
      <trkpt lat="42.46118" lon="2.89738">
        <ele>617</ele>
        <time>2023-07-12T13:29:47.000Z</time>
      </trkpt>
      <trkpt lat="42.46121" lon="2.89719">
        <ele>616.59997558594</ele>
        <time>2023-07-12T13:29:57.000Z</time>
      </trkpt>
      <trkpt lat="42.46129" lon="2.89708">
        <ele>616.79998779297</ele>
        <time>2023-07-12T13:30:05.000Z</time>
      </trkpt>
      <trkpt lat="42.46138" lon="2.89698">
        <ele>616.59997558594</ele>
        <time>2023-07-12T13:30:13.000Z</time>
      </trkpt>
      <trkpt lat="42.46145" lon="2.89691">
        <ele>616.40002441406</ele>
        <time>2023-07-12T13:30:18.000Z</time>
      </trkpt>
      <trkpt lat="42.46148" lon="2.89689">
        <ele>616.40002441406</ele>
        <time>2023-07-12T13:30:20.000Z</time>
      </trkpt>
      <trkpt lat="42.46163" lon="2.8968">
        <ele>616.20001220703</ele>
        <time>2023-07-12T13:30:29.000Z</time>
      </trkpt>
      <trkpt lat="42.46173" lon="2.89664">
        <ele>616</ele>
        <time>2023-07-12T13:30:39.000Z</time>
      </trkpt>
      <trkpt lat="42.46175" lon="2.89648">
        <ele>615.79998779297</ele>
        <time>2023-07-12T13:30:47.000Z</time>
      </trkpt>
      <trkpt lat="42.46177" lon="2.8964">
        <ele>615.40002441406</ele>
        <time>2023-07-12T13:30:52.000Z</time>
      </trkpt>
      <trkpt lat="42.46182" lon="2.89629">
        <ele>614.79998779297</ele>
        <time>2023-07-12T13:30:59.000Z</time>
      </trkpt>
      <trkpt lat="42.46184" lon="2.89625">
        <ele>614.40002441406</ele>
        <time>2023-07-12T13:31:01.000Z</time>
      </trkpt>
      <trkpt lat="42.46188" lon="2.89614">
        <ele>614.20001220703</ele>
        <time>2023-07-12T13:31:07.000Z</time>
      </trkpt>
      <trkpt lat="42.462" lon="2.89605">
        <ele>614.40002441406</ele>
        <time>2023-07-12T13:31:17.000Z</time>
      </trkpt>
      <trkpt lat="42.4621" lon="2.89598">
        <ele>614.20001220703</ele>
        <time>2023-07-12T13:31:26.000Z</time>
      </trkpt>
      <trkpt lat="42.46221" lon="2.8959">
        <ele>614.40002441406</ele>
        <time>2023-07-12T13:31:34.000Z</time>
      </trkpt>
      <trkpt lat="42.46231" lon="2.89583">
        <ele>614.40002441406</ele>
        <time>2023-07-12T13:31:40.000Z</time>
      </trkpt>
      <trkpt lat="42.46243" lon="2.89573">
        <ele>614.40002441406</ele>
        <time>2023-07-12T13:31:48.000Z</time>
      </trkpt>
      <trkpt lat="42.46248" lon="2.89559">
        <ele>614</ele>
        <time>2023-07-12T13:31:56.000Z</time>
      </trkpt>
      <trkpt lat="42.46247" lon="2.89542">
        <ele>613.40002441406</ele>
        <time>2023-07-12T13:32:04.000Z</time>
      </trkpt>
      <trkpt lat="42.46246" lon="2.89533">
        <ele>613.40002441406</ele>
        <time>2023-07-12T13:32:07.000Z</time>
      </trkpt>
      <trkpt lat="42.46244" lon="2.89523">
        <ele>613</ele>
        <time>2023-07-12T13:32:12.000Z</time>
      </trkpt>
      <trkpt lat="42.46236" lon="2.89508">
        <ele>612.79998779297</ele>
        <time>2023-07-12T13:32:18.000Z</time>
      </trkpt>
      <trkpt lat="42.46232" lon="2.89484">
        <ele>613</ele>
        <time>2023-07-12T13:32:28.000Z</time>
      </trkpt>
      <trkpt lat="42.46229" lon="2.89473">
        <ele>612.79998779297</ele>
        <time>2023-07-12T13:32:35.000Z</time>
      </trkpt>
      <trkpt lat="42.46229" lon="2.89458">
        <ele>613.20001220703</ele>
        <time>2023-07-12T13:32:44.000Z</time>
      </trkpt>
      <trkpt lat="42.46233" lon="2.89444">
        <ele>613.20001220703</ele>
        <time>2023-07-12T13:32:52.000Z</time>
      </trkpt>
      <trkpt lat="42.46235" lon="2.8943">
        <ele>613.20001220703</ele>
        <time>2023-07-12T13:32:59.000Z</time>
      </trkpt>
      <trkpt lat="42.46238" lon="2.89418">
        <ele>613.59997558594</ele>
        <time>2023-07-12T13:33:06.000Z</time>
      </trkpt>
      <trkpt lat="42.46242" lon="2.89413">
        <ele>613.20001220703</ele>
        <time>2023-07-12T13:33:13.000Z</time>
      </trkpt>
      <trkpt lat="42.46246" lon="2.89401">
        <ele>613.40002441406</ele>
        <time>2023-07-12T13:33:19.000Z</time>
      </trkpt>
      <trkpt lat="42.4625" lon="2.89385">
        <ele>613.20001220703</ele>
        <time>2023-07-12T13:33:27.000Z</time>
      </trkpt>
      <trkpt lat="42.46256" lon="2.89372">
        <ele>612.79998779297</ele>
        <time>2023-07-12T13:33:36.000Z</time>
      </trkpt>
      <trkpt lat="42.4627" lon="2.89365">
        <ele>612.40002441406</ele>
        <time>2023-07-12T13:33:45.000Z</time>
      </trkpt>
      <trkpt lat="42.46273" lon="2.89361">
        <ele>612.20001220703</ele>
        <time>2023-07-12T13:33:48.000Z</time>
      </trkpt>
      <trkpt lat="42.46281" lon="2.89349">
        <ele>611.79998779297</ele>
        <time>2023-07-12T13:33:56.000Z</time>
      </trkpt>
      <trkpt lat="42.46281" lon="2.89329">
        <ele>611.40002441406</ele>
        <time>2023-07-12T13:34:05.000Z</time>
      </trkpt>
      <trkpt lat="42.4628" lon="2.89315">
        <ele>611.20001220703</ele>
        <time>2023-07-12T13:34:13.000Z</time>
      </trkpt>
      <trkpt lat="42.4628" lon="2.89313">
        <ele>611</ele>
        <time>2023-07-12T13:34:14.000Z</time>
      </trkpt>
      <trkpt lat="42.46275" lon="2.893">
        <ele>610.79998779297</ele>
        <time>2023-07-12T13:34:21.000Z</time>
      </trkpt>
      <trkpt lat="42.46272" lon="2.89287">
        <ele>610.79998779297</ele>
        <time>2023-07-12T13:34:30.000Z</time>
      </trkpt>
      <trkpt lat="42.46271" lon="2.89264">
        <ele>610.79998779297</ele>
        <time>2023-07-12T13:34:39.000Z</time>
      </trkpt>
      <trkpt lat="42.46271" lon="2.89254">
        <ele>610.79998779297</ele>
        <time>2023-07-12T13:34:45.000Z</time>
      </trkpt>
      <trkpt lat="42.46274" lon="2.89246">
        <ele>610.79998779297</ele>
        <time>2023-07-12T13:34:52.000Z</time>
      </trkpt>
      <trkpt lat="42.4628" lon="2.89234">
        <ele>611</ele>
        <time>2023-07-12T13:35:00.000Z</time>
      </trkpt>
      <trkpt lat="42.46283" lon="2.89216">
        <ele>610.59997558594</ele>
        <time>2023-07-12T13:35:09.000Z</time>
      </trkpt>
      <trkpt lat="42.46281" lon="2.89198">
        <ele>610.40002441406</ele>
        <time>2023-07-12T13:35:17.000Z</time>
      </trkpt>
      <trkpt lat="42.46277" lon="2.89178">
        <ele>610.20001220703</ele>
        <time>2023-07-12T13:35:25.000Z</time>
      </trkpt>
      <trkpt lat="42.46276" lon="2.89176">
        <ele>610.20001220703</ele>
        <time>2023-07-12T13:35:26.000Z</time>
      </trkpt>
      <trkpt lat="42.46272" lon="2.89159">
        <ele>610</ele>
        <time>2023-07-12T13:35:33.000Z</time>
      </trkpt>
      <trkpt lat="42.46274" lon="2.89147">
        <ele>609.79998779297</ele>
        <time>2023-07-12T13:35:41.000Z</time>
      </trkpt>
      <trkpt lat="42.46278" lon="2.89139">
        <ele>609.59997558594</ele>
        <time>2023-07-12T13:35:48.000Z</time>
      </trkpt>
      <trkpt lat="42.4628" lon="2.89128">
        <ele>609.40002441406</ele>
        <time>2023-07-12T13:35:56.000Z</time>
      </trkpt>
      <trkpt lat="42.46285" lon="2.89121">
        <ele>609.20001220703</ele>
        <time>2023-07-12T13:36:01.000Z</time>
      </trkpt>
      <trkpt lat="42.46286" lon="2.89118">
        <ele>609</ele>
        <time>2023-07-12T13:36:03.000Z</time>
      </trkpt>
      <trkpt lat="42.46287" lon="2.891">
        <ele>608.40002441406</ele>
        <time>2023-07-12T13:36:14.000Z</time>
      </trkpt>
      <trkpt lat="42.46293" lon="2.89097">
        <ele>608</ele>
        <time>2023-07-12T13:36:19.000Z</time>
      </trkpt>
      <trkpt lat="42.46291" lon="2.89091">
        <ele>607.79998779297</ele>
        <time>2023-07-12T13:36:23.000Z</time>
      </trkpt>
      <trkpt lat="42.46287" lon="2.89062">
        <ele>607.79998779297</ele>
        <time>2023-07-12T13:36:36.000Z</time>
      </trkpt>
      <trkpt lat="42.46279" lon="2.89049">
        <ele>607.40002441406</ele>
        <time>2023-07-12T13:36:44.000Z</time>
      </trkpt>
      <trkpt lat="42.46278" lon="2.89041">
        <ele>607.20001220703</ele>
        <time>2023-07-12T13:36:50.000Z</time>
      </trkpt>
      <trkpt lat="42.46278" lon="2.89036">
        <ele>607.20001220703</ele>
        <time>2023-07-12T13:36:57.000Z</time>
      </trkpt>
      <trkpt lat="42.46275" lon="2.88994">
        <ele>606.59997558594</ele>
        <time>2023-07-12T13:37:15.000Z</time>
      </trkpt>
      <trkpt lat="42.46285" lon="2.88971">
        <ele>606.40002441406</ele>
        <time>2023-07-12T13:37:29.000Z</time>
      </trkpt>
      <trkpt lat="42.46293" lon="2.8895">
        <ele>606</ele>
        <time>2023-07-12T13:37:41.000Z</time>
      </trkpt>
      <trkpt lat="42.46296" lon="2.88946">
        <ele>606</ele>
        <time>2023-07-12T13:37:43.000Z</time>
      </trkpt>
      <trkpt lat="42.46302" lon="2.88918">
        <ele>605.59997558594</ele>
        <time>2023-07-12T13:37:59.000Z</time>
      </trkpt>
      <trkpt lat="42.46309" lon="2.88897">
        <ele>605.20001220703</ele>
        <time>2023-07-12T13:38:10.000Z</time>
      </trkpt>
      <trkpt lat="42.46317" lon="2.88891">
        <ele>605</ele>
        <time>2023-07-12T13:38:16.000Z</time>
      </trkpt>
      <trkpt lat="42.46323" lon="2.88886">
        <ele>604.59997558594</ele>
        <time>2023-07-12T13:38:22.000Z</time>
      </trkpt>
      <trkpt lat="42.46317" lon="2.88877">
        <ele>604.59997558594</ele>
        <time>2023-07-12T13:38:24.000Z</time>
      </trkpt>
      <trkpt lat="42.46312" lon="2.88865">
        <ele>604.40002441406</ele>
        <time>2023-07-12T13:38:26.000Z</time>
      </trkpt>
      <trkpt lat="42.46302" lon="2.88845">
        <ele>604</ele>
        <time>2023-07-12T13:38:31.000Z</time>
      </trkpt>
      <trkpt lat="42.46297" lon="2.8884">
        <ele>603.59997558594</ele>
        <time>2023-07-12T13:38:34.000Z</time>
      </trkpt>
      <trkpt lat="42.46293" lon="2.88836">
        <ele>603.59997558594</ele>
        <time>2023-07-12T13:38:38.000Z</time>
      </trkpt>
      <trkpt lat="42.46293" lon="2.88833">
        <ele>603.59997558594</ele>
        <time>2023-07-12T13:38:40.000Z</time>
      </trkpt>
      <trkpt lat="42.46288" lon="2.8883">
        <ele>603.59997558594</ele>
        <time>2023-07-12T13:38:47.000Z</time>
      </trkpt>
      <trkpt lat="42.46285" lon="2.88828">
        <ele>603.59997558594</ele>
        <time>2023-07-12T13:38:49.000Z</time>
      </trkpt>
      <trkpt lat="42.46282" lon="2.88826">
        <ele>603.79998779297</ele>
        <time>2023-07-12T13:38:51.000Z</time>
      </trkpt>
      <trkpt lat="42.46278" lon="2.88824">
        <ele>603.79998779297</ele>
        <time>2023-07-12T13:38:52.000Z</time>
      </trkpt>
      <trkpt lat="42.46264" lon="2.8881">
        <ele>603.79998779297</ele>
        <time>2023-07-12T13:38:58.000Z</time>
      </trkpt>
      <trkpt lat="42.46249" lon="2.88798">
        <ele>603.59997558594</ele>
        <time>2023-07-12T13:39:08.000Z</time>
      </trkpt>
      <trkpt lat="42.46242" lon="2.88793">
        <ele>603.59997558594</ele>
        <time>2023-07-12T13:39:13.000Z</time>
      </trkpt>
      <trkpt lat="42.46215" lon="2.88776">
        <ele>603.20001220703</ele>
        <time>2023-07-12T13:39:33.000Z</time>
      </trkpt>
      <trkpt lat="42.46199" lon="2.88777">
        <ele>603.20001220703</ele>
        <time>2023-07-12T13:39:44.000Z</time>
      </trkpt>
      <trkpt lat="42.46188" lon="2.88779">
        <ele>603</ele>
        <time>2023-07-12T13:39:52.000Z</time>
      </trkpt>
      <trkpt lat="42.46177" lon="2.8878">
        <ele>603</ele>
        <time>2023-07-12T13:40:01.000Z</time>
      </trkpt>
      <trkpt lat="42.46166" lon="2.88786">
        <ele>603</ele>
        <time>2023-07-12T13:40:08.000Z</time>
      </trkpt>
      <trkpt lat="42.46153" lon="2.88793">
        <ele>603</ele>
        <time>2023-07-12T13:40:18.000Z</time>
      </trkpt>
      <trkpt lat="42.46143" lon="2.88796">
        <ele>603</ele>
        <time>2023-07-12T13:40:25.000Z</time>
      </trkpt>
      <trkpt lat="42.46135" lon="2.88801">
        <ele>603.20001220703</ele>
        <time>2023-07-12T13:40:33.000Z</time>
      </trkpt>
      <trkpt lat="42.4612" lon="2.88804">
        <ele>602.79998779297</ele>
        <time>2023-07-12T13:40:42.000Z</time>
      </trkpt>
      <trkpt lat="42.46116" lon="2.88804">
        <ele>602.79998779297</ele>
        <time>2023-07-12T13:40:47.000Z</time>
      </trkpt>
      <trkpt lat="42.46106" lon="2.88807">
        <ele>602.79998779297</ele>
        <time>2023-07-12T13:40:53.000Z</time>
      </trkpt>
      <trkpt lat="42.46101" lon="2.88812">
        <ele>603.20001220703</ele>
        <time>2023-07-12T13:40:59.000Z</time>
      </trkpt>
      <trkpt lat="42.46101" lon="2.88814">
        <ele>602.79998779297</ele>
        <time>2023-07-12T13:41:07.000Z</time>
      </trkpt>
      <trkpt lat="42.46096" lon="2.88808">
        <ele>602.79998779297</ele>
        <time>2023-07-12T13:41:13.000Z</time>
      </trkpt>
      <trkpt lat="42.46089" lon="2.88802">
        <ele>603.20001220703</ele>
        <time>2023-07-12T13:41:21.000Z</time>
      </trkpt>
      <trkpt lat="42.46081" lon="2.88794">
        <ele>603.20001220703</ele>
        <time>2023-07-12T13:41:28.000Z</time>
      </trkpt>
      <trkpt lat="42.46082" lon="2.88796">
        <ele>603</ele>
        <time>2023-07-12T13:41:39.000Z</time>
      </trkpt>
      <trkpt lat="42.46087" lon="2.88797">
        <ele>603.20001220703</ele>
        <time>2023-07-12T13:41:47.000Z</time>
      </trkpt>
      <trkpt lat="42.46085" lon="2.88794">
        <ele>603.20001220703</ele>
        <time>2023-07-12T13:41:56.000Z</time>
      </trkpt>
      <trkpt lat="42.46084" lon="2.88798">
        <ele>602.79998779297</ele>
        <time>2023-07-12T13:42:04.000Z</time>
      </trkpt>
      <trkpt lat="42.46089" lon="2.88796">
        <ele>602.79998779297</ele>
        <time>2023-07-12T13:42:10.000Z</time>
      </trkpt>
      <trkpt lat="42.46094" lon="2.88789">
        <ele>602</ele>
        <time>2023-07-12T13:42:17.000Z</time>
      </trkpt>
      <trkpt lat="42.461" lon="2.88776">
        <ele>602.20001220703</ele>
        <time>2023-07-12T13:42:24.000Z</time>
      </trkpt>
      <trkpt lat="42.46102" lon="2.88766">
        <ele>601.79998779297</ele>
        <time>2023-07-12T13:42:30.000Z</time>
      </trkpt>
      <trkpt lat="42.46102" lon="2.88761">
        <ele>601.59997558594</ele>
        <time>2023-07-12T13:42:32.000Z</time>
      </trkpt>
      <trkpt lat="42.46103" lon="2.88755">
        <ele>601.20001220703</ele>
        <time>2023-07-12T13:42:38.000Z</time>
      </trkpt>
      <trkpt lat="42.46101" lon="2.88741">
        <ele>600.79998779297</ele>
        <time>2023-07-12T13:42:47.000Z</time>
      </trkpt>
      <trkpt lat="42.46101" lon="2.88732">
        <ele>600.79998779297</ele>
        <time>2023-07-12T13:42:52.000Z</time>
      </trkpt>
      <trkpt lat="42.46102" lon="2.88728">
        <ele>600.59997558594</ele>
        <time>2023-07-12T13:42:54.000Z</time>
      </trkpt>
      <trkpt lat="42.46106" lon="2.8872">
        <ele>600.20001220703</ele>
        <time>2023-07-12T13:43:00.000Z</time>
      </trkpt>
      <trkpt lat="42.46107" lon="2.88716">
        <ele>599.79998779297</ele>
        <time>2023-07-12T13:43:02.000Z</time>
      </trkpt>
      <trkpt lat="42.46113" lon="2.8871">
        <ele>599.40002441406</ele>
        <time>2023-07-12T13:43:08.000Z</time>
      </trkpt>
      <trkpt lat="42.46112" lon="2.88709">
        <ele>599</ele>
        <time>2023-07-12T13:43:15.000Z</time>
      </trkpt>
      <trkpt lat="42.46113" lon="2.88699">
        <ele>599.20001220703</ele>
        <time>2023-07-12T13:43:22.000Z</time>
      </trkpt>
      <trkpt lat="42.46112" lon="2.8869">
        <ele>598.79998779297</ele>
        <time>2023-07-12T13:43:26.000Z</time>
      </trkpt>
      <trkpt lat="42.46112" lon="2.88685">
        <ele>598.59997558594</ele>
        <time>2023-07-12T13:43:29.000Z</time>
      </trkpt>
      <trkpt lat="42.46114" lon="2.88674">
        <ele>598</ele>
        <time>2023-07-12T13:43:35.000Z</time>
      </trkpt>
      <trkpt lat="42.46117" lon="2.88668">
        <ele>597.79998779297</ele>
        <time>2023-07-12T13:43:39.000Z</time>
      </trkpt>
      <trkpt lat="42.4612" lon="2.88662">
        <ele>597.40002441406</ele>
        <time>2023-07-12T13:43:43.000Z</time>
      </trkpt>
      <trkpt lat="42.46122" lon="2.88652">
        <ele>596.79998779297</ele>
        <time>2023-07-12T13:43:48.000Z</time>
      </trkpt>
      <trkpt lat="42.46123" lon="2.88645">
        <ele>596.59997558594</ele>
        <time>2023-07-12T13:43:51.000Z</time>
      </trkpt>
      <trkpt lat="42.46126" lon="2.88632">
        <ele>596</ele>
        <time>2023-07-12T13:43:58.000Z</time>
      </trkpt>
      <trkpt lat="42.46128" lon="2.88628">
        <ele>595.59997558594</ele>
        <time>2023-07-12T13:44:00.000Z</time>
      </trkpt>
      <trkpt lat="42.46131" lon="2.88621">
        <ele>595</ele>
        <time>2023-07-12T13:44:05.000Z</time>
      </trkpt>
      <trkpt lat="42.46133" lon="2.88616">
        <ele>594.59997558594</ele>
        <time>2023-07-12T13:44:08.000Z</time>
      </trkpt>
      <trkpt lat="42.46136" lon="2.88609">
        <ele>594</ele>
        <time>2023-07-12T13:44:13.000Z</time>
      </trkpt>
      <trkpt lat="42.46138" lon="2.88597">
        <ele>593.59997558594</ele>
        <time>2023-07-12T13:44:18.000Z</time>
      </trkpt>
      <trkpt lat="42.46138" lon="2.88592">
        <ele>593.20001220703</ele>
        <time>2023-07-12T13:44:20.000Z</time>
      </trkpt>
      <trkpt lat="42.46142" lon="2.88581">
        <ele>592.40002441406</ele>
        <time>2023-07-12T13:44:26.000Z</time>
      </trkpt>
      <trkpt lat="42.46144" lon="2.88576">
        <ele>591.79998779297</ele>
        <time>2023-07-12T13:44:29.000Z</time>
      </trkpt>
      <trkpt lat="42.46144" lon="2.88572">
        <ele>591.20001220703</ele>
        <time>2023-07-12T13:44:31.000Z</time>
      </trkpt>
      <trkpt lat="42.46147" lon="2.88563">
        <ele>590.59997558594</ele>
        <time>2023-07-12T13:44:37.000Z</time>
      </trkpt>
      <trkpt lat="42.46153" lon="2.88553">
        <ele>590</ele>
        <time>2023-07-12T13:44:43.000Z</time>
      </trkpt>
      <trkpt lat="42.46153" lon="2.88551">
        <ele>590</ele>
        <time>2023-07-12T13:44:44.000Z</time>
      </trkpt>
      <trkpt lat="42.46159" lon="2.88543">
        <ele>588.79998779297</ele>
        <time>2023-07-12T13:44:51.000Z</time>
      </trkpt>
      <trkpt lat="42.46161" lon="2.88539">
        <ele>588.20001220703</ele>
        <time>2023-07-12T13:44:53.000Z</time>
      </trkpt>
      <trkpt lat="42.46165" lon="2.88535">
        <ele>587.79998779297</ele>
        <time>2023-07-12T13:44:57.000Z</time>
      </trkpt>
      <trkpt lat="42.4617" lon="2.8853">
        <ele>586.79998779297</ele>
        <time>2023-07-12T13:45:02.000Z</time>
      </trkpt>
      <trkpt lat="42.46172" lon="2.88529">
        <ele>586.59997558594</ele>
        <time>2023-07-12T13:45:04.000Z</time>
      </trkpt>
      <trkpt lat="42.46177" lon="2.88521">
        <ele>585.59997558594</ele>
        <time>2023-07-12T13:45:11.000Z</time>
      </trkpt>
      <trkpt lat="42.46183" lon="2.88511">
        <ele>584.59997558594</ele>
        <time>2023-07-12T13:45:17.000Z</time>
      </trkpt>
      <trkpt lat="42.46186" lon="2.88506">
        <ele>584</ele>
        <time>2023-07-12T13:45:20.000Z</time>
      </trkpt>
      <trkpt lat="42.46187" lon="2.88502">
        <ele>583.59997558594</ele>
        <time>2023-07-12T13:45:22.000Z</time>
      </trkpt>
      <trkpt lat="42.46195" lon="2.88498">
        <ele>582.59997558594</ele>
        <time>2023-07-12T13:45:28.000Z</time>
      </trkpt>
      <trkpt lat="42.46203" lon="2.88491">
        <ele>581.79998779297</ele>
        <time>2023-07-12T13:45:34.000Z</time>
      </trkpt>
      <trkpt lat="42.46206" lon="2.8849">
        <ele>581.40002441406</ele>
        <time>2023-07-12T13:45:36.000Z</time>
      </trkpt>
      <trkpt lat="42.46212" lon="2.88484">
        <ele>580.59997558594</ele>
        <time>2023-07-12T13:45:41.000Z</time>
      </trkpt>
      <trkpt lat="42.46213" lon="2.88483">
        <ele>580.20001220703</ele>
        <time>2023-07-12T13:45:42.000Z</time>
      </trkpt>
      <trkpt lat="42.46219" lon="2.88476">
        <ele>579</ele>
        <time>2023-07-12T13:45:47.000Z</time>
      </trkpt>
      <trkpt lat="42.46223" lon="2.8847">
        <ele>578.20001220703</ele>
        <time>2023-07-12T13:45:51.000Z</time>
      </trkpt>
      <trkpt lat="42.46224" lon="2.88468">
        <ele>578</ele>
        <time>2023-07-12T13:45:52.000Z</time>
      </trkpt>
      <trkpt lat="42.46232" lon="2.88461">
        <ele>577</ele>
        <time>2023-07-12T13:45:57.000Z</time>
      </trkpt>
      <trkpt lat="42.46235" lon="2.8846">
        <ele>576.79998779297</ele>
        <time>2023-07-12T13:45:59.000Z</time>
      </trkpt>
      <trkpt lat="42.46247" lon="2.88454">
        <ele>576.20001220703</ele>
        <time>2023-07-12T13:46:05.000Z</time>
      </trkpt>
      <trkpt lat="42.46249" lon="2.88452">
        <ele>576</ele>
        <time>2023-07-12T13:46:07.000Z</time>
      </trkpt>
      <trkpt lat="42.46252" lon="2.88448">
        <ele>575.20001220703</ele>
        <time>2023-07-12T13:46:11.000Z</time>
      </trkpt>
      <trkpt lat="42.46253" lon="2.88447">
        <ele>575</ele>
        <time>2023-07-12T13:46:12.000Z</time>
      </trkpt>
      <trkpt lat="42.46254" lon="2.88439">
        <ele>574</ele>
        <time>2023-07-12T13:46:18.000Z</time>
      </trkpt>
      <trkpt lat="42.46255" lon="2.88437">
        <ele>573.59997558594</ele>
        <time>2023-07-12T13:46:19.000Z</time>
      </trkpt>
      <trkpt lat="42.46256" lon="2.88431">
        <ele>572.79998779297</ele>
        <time>2023-07-12T13:46:23.000Z</time>
      </trkpt>
      <trkpt lat="42.46256" lon="2.88422">
        <ele>571.79998779297</ele>
        <time>2023-07-12T13:46:27.000Z</time>
      </trkpt>
      <trkpt lat="42.46255" lon="2.8842">
        <ele>571.59997558594</ele>
        <time>2023-07-12T13:46:28.000Z</time>
      </trkpt>
      <trkpt lat="42.46253" lon="2.88407">
        <ele>570.59997558594</ele>
        <time>2023-07-12T13:46:33.000Z</time>
      </trkpt>
      <trkpt lat="42.46252" lon="2.88399">
        <ele>570</ele>
        <time>2023-07-12T13:46:36.000Z</time>
      </trkpt>
      <trkpt lat="42.46252" lon="2.88391">
        <ele>569.40002441406</ele>
        <time>2023-07-12T13:46:39.000Z</time>
      </trkpt>
      <trkpt lat="42.4625" lon="2.88379">
        <ele>569</ele>
        <time>2023-07-12T13:46:44.000Z</time>
      </trkpt>
      <trkpt lat="42.46248" lon="2.88373">
        <ele>568.40002441406</ele>
        <time>2023-07-12T13:46:47.000Z</time>
      </trkpt>
      <trkpt lat="42.46244" lon="2.88365">
        <ele>567.79998779297</ele>
        <time>2023-07-12T13:46:52.000Z</time>
      </trkpt>
      <trkpt lat="42.46241" lon="2.88358">
        <ele>567.40002441406</ele>
        <time>2023-07-12T13:46:55.000Z</time>
      </trkpt>
      <trkpt lat="42.46235" lon="2.88344">
        <ele>566.79998779297</ele>
        <time>2023-07-12T13:46:59.000Z</time>
      </trkpt>
      <trkpt lat="42.46231" lon="2.88333">
        <ele>566.40002441406</ele>
        <time>2023-07-12T13:47:04.000Z</time>
      </trkpt>
      <trkpt lat="42.46228" lon="2.88323">
        <ele>565.59997558594</ele>
        <time>2023-07-12T13:47:09.000Z</time>
      </trkpt>
      <trkpt lat="42.46228" lon="2.88318">
        <ele>565.20001220703</ele>
        <time>2023-07-12T13:47:12.000Z</time>
      </trkpt>
      <trkpt lat="42.46229" lon="2.88309">
        <ele>564.40002441406</ele>
        <time>2023-07-12T13:47:17.000Z</time>
      </trkpt>
      <trkpt lat="42.4623" lon="2.88306">
        <ele>564.20001220703</ele>
        <time>2023-07-12T13:47:18.000Z</time>
      </trkpt>
      <trkpt lat="42.46233" lon="2.88293">
        <ele>563.20001220703</ele>
        <time>2023-07-12T13:47:24.000Z</time>
      </trkpt>
      <trkpt lat="42.46233" lon="2.88292">
        <ele>563</ele>
        <time>2023-07-12T13:47:25.000Z</time>
      </trkpt>
      <trkpt lat="42.46236" lon="2.88279">
        <ele>562.20001220703</ele>
        <time>2023-07-12T13:47:32.000Z</time>
      </trkpt>
      <trkpt lat="42.46236" lon="2.88278">
        <ele>562</ele>
        <time>2023-07-12T13:47:33.000Z</time>
      </trkpt>
      <trkpt lat="42.4624" lon="2.88266">
        <ele>561</ele>
        <time>2023-07-12T13:47:39.000Z</time>
      </trkpt>
      <trkpt lat="42.46246" lon="2.88255">
        <ele>560.20001220703</ele>
        <time>2023-07-12T13:47:46.000Z</time>
      </trkpt>
      <trkpt lat="42.46248" lon="2.88252">
        <ele>560</ele>
        <time>2023-07-12T13:47:48.000Z</time>
      </trkpt>
      <trkpt lat="42.46255" lon="2.88242">
        <ele>558.79998779297</ele>
        <time>2023-07-12T13:47:55.000Z</time>
      </trkpt>
      <trkpt lat="42.46265" lon="2.88237">
        <ele>558</ele>
        <time>2023-07-12T13:48:02.000Z</time>
      </trkpt>
      <trkpt lat="42.46266" lon="2.88236">
        <ele>557.59997558594</ele>
        <time>2023-07-12T13:48:03.000Z</time>
      </trkpt>
      <trkpt lat="42.4628" lon="2.88227">
        <ele>556.40002441406</ele>
        <time>2023-07-12T13:48:12.000Z</time>
      </trkpt>
      <trkpt lat="42.46289" lon="2.88217">
        <ele>555.59997558594</ele>
        <time>2023-07-12T13:48:19.000Z</time>
      </trkpt>
      <trkpt lat="42.4629" lon="2.88212">
        <ele>555.20001220703</ele>
        <time>2023-07-12T13:48:22.000Z</time>
      </trkpt>
      <trkpt lat="42.46288" lon="2.88201">
        <ele>554.79998779297</ele>
        <time>2023-07-12T13:48:29.000Z</time>
      </trkpt>
      <trkpt lat="42.46291" lon="2.8819">
        <ele>554.20001220703</ele>
        <time>2023-07-12T13:48:35.000Z</time>
      </trkpt>
      <trkpt lat="42.46291" lon="2.88189">
        <ele>554.20001220703</ele>
        <time>2023-07-12T13:48:36.000Z</time>
      </trkpt>
      <trkpt lat="42.46295" lon="2.88184">
        <ele>553.79998779297</ele>
        <time>2023-07-12T13:48:44.000Z</time>
      </trkpt>
      <trkpt lat="42.46298" lon="2.88174">
        <ele>553.79998779297</ele>
        <time>2023-07-12T13:48:51.000Z</time>
      </trkpt>
      <trkpt lat="42.46298" lon="2.88167">
        <ele>554.40002441406</ele>
        <time>2023-07-12T13:48:57.000Z</time>
      </trkpt>
      <trkpt lat="42.46297" lon="2.88169">
        <ele>554</ele>
        <time>2023-07-12T13:49:05.000Z</time>
      </trkpt>
      <trkpt lat="42.46296" lon="2.88161">
        <ele>554</ele>
        <time>2023-07-12T13:49:12.000Z</time>
      </trkpt>
      <trkpt lat="42.46297" lon="2.88161">
        <ele>554</ele>
        <time>2023-07-12T13:49:18.000Z</time>
      </trkpt>
      <trkpt lat="42.46299" lon="2.88153">
        <ele>553.59997558594</ele>
        <time>2023-07-12T13:49:25.000Z</time>
      </trkpt>
      <trkpt lat="42.463" lon="2.8815">
        <ele>553.20001220703</ele>
        <time>2023-07-12T13:49:27.000Z</time>
      </trkpt>
      <trkpt lat="42.46301" lon="2.88146">
        <ele>551.79998779297</ele>
        <time>2023-07-12T13:49:31.000Z</time>
      </trkpt>
      <trkpt lat="42.46304" lon="2.88145">
        <ele>550.59997558594</ele>
        <time>2023-07-12T13:49:34.000Z</time>
      </trkpt>
      <trkpt lat="42.46306" lon="2.88144">
        <ele>549.40002441406</ele>
        <time>2023-07-12T13:49:37.000Z</time>
      </trkpt>
      <trkpt lat="42.46311" lon="2.88142">
        <ele>548.59997558594</ele>
        <time>2023-07-12T13:49:41.000Z</time>
      </trkpt>
      <trkpt lat="42.46312" lon="2.88141">
        <ele>548.40002441406</ele>
        <time>2023-07-12T13:49:42.000Z</time>
      </trkpt>
      <trkpt lat="42.46315" lon="2.88138">
        <ele>547.20001220703</ele>
        <time>2023-07-12T13:49:46.000Z</time>
      </trkpt>
      <trkpt lat="42.46317" lon="2.88135">
        <ele>546.59997558594</ele>
        <time>2023-07-12T13:49:48.000Z</time>
      </trkpt>
      <trkpt lat="42.46321" lon="2.88132">
        <ele>546.20001220703</ele>
        <time>2023-07-12T13:49:50.000Z</time>
      </trkpt>
      <trkpt lat="42.46324" lon="2.88128">
        <ele>545</ele>
        <time>2023-07-12T13:49:55.000Z</time>
      </trkpt>
      <trkpt lat="42.46328" lon="2.88123">
        <ele>544</ele>
        <time>2023-07-12T13:50:02.000Z</time>
      </trkpt>
      <trkpt lat="42.4633" lon="2.88121">
        <ele>543.59997558594</ele>
        <time>2023-07-12T13:50:04.000Z</time>
      </trkpt>
      <trkpt lat="42.46332" lon="2.88119">
        <ele>543</ele>
        <time>2023-07-12T13:50:08.000Z</time>
      </trkpt>
      <trkpt lat="42.46333" lon="2.88117">
        <ele>542.40002441406</ele>
        <time>2023-07-12T13:50:11.000Z</time>
      </trkpt>
      <trkpt lat="42.46337" lon="2.88111">
        <ele>542.20001220703</ele>
        <time>2023-07-12T13:50:18.000Z</time>
      </trkpt>
      <trkpt lat="42.46337" lon="2.88111">
        <ele>542</ele>
        <time>2023-07-12T13:50:19.000Z</time>
      </trkpt>
      <trkpt lat="42.4634" lon="2.88111">
        <ele>541</ele>
        <time>2023-07-12T13:50:35.000Z</time>
      </trkpt>
      <trkpt lat="42.46344" lon="2.8811">
        <ele>540.79998779297</ele>
        <time>2023-07-12T13:50:37.000Z</time>
      </trkpt>
      <trkpt lat="42.46352" lon="2.88104">
        <ele>539.79998779297</ele>
        <time>2023-07-12T13:50:43.000Z</time>
      </trkpt>
      <trkpt lat="42.46358" lon="2.88095">
        <ele>538.59997558594</ele>
        <time>2023-07-12T13:50:48.000Z</time>
      </trkpt>
      <trkpt lat="42.46362" lon="2.88089">
        <ele>537.59997558594</ele>
        <time>2023-07-12T13:50:52.000Z</time>
      </trkpt>
      <trkpt lat="42.46364" lon="2.88087">
        <ele>537.40002441406</ele>
        <time>2023-07-12T13:50:54.000Z</time>
      </trkpt>
      <trkpt lat="42.46367" lon="2.88075">
        <ele>536.40002441406</ele>
        <time>2023-07-12T13:51:00.000Z</time>
      </trkpt>
      <trkpt lat="42.46366" lon="2.88073">
        <ele>536.20001220703</ele>
        <time>2023-07-12T13:51:01.000Z</time>
      </trkpt>
      <trkpt lat="42.46367" lon="2.88065">
        <ele>535.40002441406</ele>
        <time>2023-07-12T13:51:07.000Z</time>
      </trkpt>
      <trkpt lat="42.46369" lon="2.88062">
        <ele>535</ele>
        <time>2023-07-12T13:51:09.000Z</time>
      </trkpt>
      <trkpt lat="42.4637" lon="2.88058">
        <ele>534.20001220703</ele>
        <time>2023-07-12T13:51:13.000Z</time>
      </trkpt>
      <trkpt lat="42.46372" lon="2.88051">
        <ele>533.59997558594</ele>
        <time>2023-07-12T13:51:17.000Z</time>
      </trkpt>
      <trkpt lat="42.46374" lon="2.88047">
        <ele>533</ele>
        <time>2023-07-12T13:51:19.000Z</time>
      </trkpt>
      <trkpt lat="42.46378" lon="2.88039">
        <ele>532</ele>
        <time>2023-07-12T13:51:23.000Z</time>
      </trkpt>
      <trkpt lat="42.4638" lon="2.88036">
        <ele>531.59997558594</ele>
        <time>2023-07-12T13:51:25.000Z</time>
      </trkpt>
      <trkpt lat="42.46381" lon="2.88031">
        <ele>530.79998779297</ele>
        <time>2023-07-12T13:51:30.000Z</time>
      </trkpt>
      <trkpt lat="42.46382" lon="2.88027">
        <ele>530.20001220703</ele>
        <time>2023-07-12T13:51:33.000Z</time>
      </trkpt>
      <trkpt lat="42.46382" lon="2.88022">
        <ele>529.79998779297</ele>
        <time>2023-07-12T13:51:36.000Z</time>
      </trkpt>
      <trkpt lat="42.46386" lon="2.88015">
        <ele>529</ele>
        <time>2023-07-12T13:51:40.000Z</time>
      </trkpt>
      <trkpt lat="42.46388" lon="2.8801">
        <ele>528.59997558594</ele>
        <time>2023-07-12T13:51:43.000Z</time>
      </trkpt>
      <trkpt lat="42.46389" lon="2.88005">
        <ele>527.79998779297</ele>
        <time>2023-07-12T13:51:47.000Z</time>
      </trkpt>
      <trkpt lat="42.46389" lon="2.88004">
        <ele>527.59997558594</ele>
        <time>2023-07-12T13:51:48.000Z</time>
      </trkpt>
      <trkpt lat="42.46392" lon="2.87995">
        <ele>526.59997558594</ele>
        <time>2023-07-12T13:51:54.000Z</time>
      </trkpt>
      <trkpt lat="42.46395" lon="2.87988">
        <ele>525.40002441406</ele>
        <time>2023-07-12T13:52:01.000Z</time>
      </trkpt>
      <trkpt lat="42.46397" lon="2.87985">
        <ele>525.20001220703</ele>
        <time>2023-07-12T13:52:04.000Z</time>
      </trkpt>
      <trkpt lat="42.46402" lon="2.8798">
        <ele>524.79998779297</ele>
        <time>2023-07-12T13:52:10.000Z</time>
      </trkpt>
      <trkpt lat="42.46403" lon="2.87978">
        <ele>524.40002441406</ele>
        <time>2023-07-12T13:52:12.000Z</time>
      </trkpt>
      <trkpt lat="42.46407" lon="2.87973">
        <ele>523.40002441406</ele>
        <time>2023-07-12T13:52:17.000Z</time>
      </trkpt>
      <trkpt lat="42.46409" lon="2.87963">
        <ele>523</ele>
        <time>2023-07-12T13:52:22.000Z</time>
      </trkpt>
      <trkpt lat="42.4641" lon="2.87947">
        <ele>522.79998779297</ele>
        <time>2023-07-12T13:52:29.000Z</time>
      </trkpt>
      <trkpt lat="42.46412" lon="2.87938">
        <ele>523.20001220703</ele>
        <time>2023-07-12T13:52:36.000Z</time>
      </trkpt>
      <trkpt lat="42.46413" lon="2.87931">
        <ele>522.20001220703</ele>
        <time>2023-07-12T13:52:41.000Z</time>
      </trkpt>
      <trkpt lat="42.46413" lon="2.87926">
        <ele>522.20001220703</ele>
        <time>2023-07-12T13:52:44.000Z</time>
      </trkpt>
      <trkpt lat="42.46419" lon="2.87918">
        <ele>522.40002441406</ele>
        <time>2023-07-12T13:52:51.000Z</time>
      </trkpt>
      <trkpt lat="42.46421" lon="2.87911">
        <ele>522.40002441406</ele>
        <time>2023-07-12T13:52:57.000Z</time>
      </trkpt>
      <trkpt lat="42.46429" lon="2.879">
        <ele>522.40002441406</ele>
        <time>2023-07-12T13:53:05.000Z</time>
      </trkpt>
      <trkpt lat="42.46434" lon="2.87887">
        <ele>522.79998779297</ele>
        <time>2023-07-12T13:53:14.000Z</time>
      </trkpt>
      <trkpt lat="42.46434" lon="2.87869">
        <ele>522.40002441406</ele>
        <time>2023-07-12T13:53:23.000Z</time>
      </trkpt>
      <trkpt lat="42.46434" lon="2.87858">
        <ele>522.40002441406</ele>
        <time>2023-07-12T13:53:29.000Z</time>
      </trkpt>
      <trkpt lat="42.4644" lon="2.87846">
        <ele>521.79998779297</ele>
        <time>2023-07-12T13:53:39.000Z</time>
      </trkpt>
      <trkpt lat="42.46442" lon="2.87842">
        <ele>521.20001220703</ele>
        <time>2023-07-12T13:53:42.000Z</time>
      </trkpt>
      <trkpt lat="42.46443" lon="2.87839">
        <ele>521</ele>
        <time>2023-07-12T13:53:45.000Z</time>
      </trkpt>
      <trkpt lat="42.46444" lon="2.87829">
        <ele>520.79998779297</ele>
        <time>2023-07-12T13:53:54.000Z</time>
      </trkpt>
      <trkpt lat="42.46443" lon="2.87822">
        <ele>520.40002441406</ele>
        <time>2023-07-12T13:54:02.000Z</time>
      </trkpt>
      <trkpt lat="42.46443" lon="2.87822">
        <ele>520.20001220703</ele>
        <time>2023-07-12T13:54:06.000Z</time>
      </trkpt>
      <trkpt lat="42.46443" lon="2.8782">
        <ele>519.79998779297</ele>
        <time>2023-07-12T13:54:10.000Z</time>
      </trkpt>
      <trkpt lat="42.46434" lon="2.87815">
        <ele>519.59997558594</ele>
        <time>2023-07-12T13:54:24.000Z</time>
      </trkpt>
      <trkpt lat="42.46435" lon="2.87815">
        <ele>519.59997558594</ele>
        <time>2023-07-12T13:54:31.000Z</time>
      </trkpt>
      <trkpt lat="42.46437" lon="2.87813">
        <ele>519.20001220703</ele>
        <time>2023-07-12T13:54:34.000Z</time>
      </trkpt>
      <trkpt lat="42.46437" lon="2.87812">
        <ele>518.59997558594</ele>
        <time>2023-07-12T13:54:38.000Z</time>
      </trkpt>
      <trkpt lat="42.46437" lon="2.8781">
        <ele>518</ele>
        <time>2023-07-12T13:54:44.000Z</time>
      </trkpt>
      <trkpt lat="42.4644" lon="2.87808">
        <ele>517.40002441406</ele>
        <time>2023-07-12T13:54:52.000Z</time>
      </trkpt>
      <trkpt lat="42.46446" lon="2.87806">
        <ele>516.79998779297</ele>
        <time>2023-07-12T13:55:05.000Z</time>
      </trkpt>
      <trkpt lat="42.46447" lon="2.87805">
        <ele>515.59997558594</ele>
        <time>2023-07-12T13:55:10.000Z</time>
      </trkpt>
      <trkpt lat="42.46447" lon="2.87805">
        <ele>515.40002441406</ele>
        <time>2023-07-12T13:55:11.000Z</time>
      </trkpt>
      <trkpt lat="42.46445" lon="2.87803">
        <ele>515</ele>
        <time>2023-07-12T13:55:16.000Z</time>
      </trkpt>
      <trkpt lat="42.46445" lon="2.87801">
        <ele>515</ele>
        <time>2023-07-12T13:55:18.000Z</time>
      </trkpt>
      <trkpt lat="42.46446" lon="2.87798">
        <ele>514.40002441406</ele>
        <time>2023-07-12T13:55:24.000Z</time>
      </trkpt>
      <trkpt lat="42.46446" lon="2.87797">
        <ele>513.40002441406</ele>
        <time>2023-07-12T13:55:30.000Z</time>
      </trkpt>
      <trkpt lat="42.46441" lon="2.87795">
        <ele>513.40002441406</ele>
        <time>2023-07-12T13:55:33.000Z</time>
      </trkpt>
      <trkpt lat="42.46439" lon="2.87791">
        <ele>513</ele>
        <time>2023-07-12T13:55:40.000Z</time>
      </trkpt>
      <trkpt lat="42.46437" lon="2.87789">
        <ele>513</ele>
        <time>2023-07-12T13:55:48.000Z</time>
      </trkpt>
      <trkpt lat="42.46438" lon="2.87786">
        <ele>513.20001220703</ele>
        <time>2023-07-12T13:55:55.000Z</time>
      </trkpt>
      <trkpt lat="42.46439" lon="2.87784">
        <ele>512.20001220703</ele>
        <time>2023-07-12T13:56:01.000Z</time>
      </trkpt>
      <trkpt lat="42.46439" lon="2.87783">
        <ele>512.20001220703</ele>
        <time>2023-07-12T13:56:02.000Z</time>
      </trkpt>
      <trkpt lat="42.46438" lon="2.87777">
        <ele>511.20001220703</ele>
        <time>2023-07-12T13:56:10.000Z</time>
      </trkpt>
      <trkpt lat="42.46438" lon="2.8777">
        <ele>510.20001220703</ele>
        <time>2023-07-12T13:56:15.000Z</time>
      </trkpt>
      <trkpt lat="42.46437" lon="2.87764">
        <ele>509</ele>
        <time>2023-07-12T13:56:20.000Z</time>
      </trkpt>
      <trkpt lat="42.46438" lon="2.87757">
        <ele>508</ele>
        <time>2023-07-12T13:56:26.000Z</time>
      </trkpt>
      <trkpt lat="42.46438" lon="2.87754">
        <ele>507.60000610352</ele>
        <time>2023-07-12T13:56:28.000Z</time>
      </trkpt>
      <trkpt lat="42.46438" lon="2.87747">
        <ele>507</ele>
        <time>2023-07-12T13:56:35.000Z</time>
      </trkpt>
      <trkpt lat="42.46438" lon="2.87746">
        <ele>506.79998779297</ele>
        <time>2023-07-12T13:56:36.000Z</time>
      </trkpt>
      <trkpt lat="42.46437" lon="2.87739">
        <ele>505.60000610352</ele>
        <time>2023-07-12T13:56:42.000Z</time>
      </trkpt>
      <trkpt lat="42.46438" lon="2.87737">
        <ele>505</ele>
        <time>2023-07-12T13:56:44.000Z</time>
      </trkpt>
      <trkpt lat="42.46437" lon="2.87734">
        <ele>504.60000610352</ele>
        <time>2023-07-12T13:56:46.000Z</time>
      </trkpt>
      <trkpt lat="42.46436" lon="2.87729">
        <ele>504</ele>
        <time>2023-07-12T13:56:53.000Z</time>
      </trkpt>
      <trkpt lat="42.46436" lon="2.87728">
        <ele>503.60000610352</ele>
        <time>2023-07-12T13:56:55.000Z</time>
      </trkpt>
      <trkpt lat="42.46438" lon="2.87722">
        <ele>503</ele>
        <time>2023-07-12T13:57:00.000Z</time>
      </trkpt>
      <trkpt lat="42.46439" lon="2.87719">
        <ele>502.39999389648</ele>
        <time>2023-07-12T13:57:03.000Z</time>
      </trkpt>
      <trkpt lat="42.46439" lon="2.87714">
        <ele>501.20001220703</ele>
        <time>2023-07-12T13:57:07.000Z</time>
      </trkpt>
      <trkpt lat="42.4644" lon="2.87713">
        <ele>500.60000610352</ele>
        <time>2023-07-12T13:57:09.000Z</time>
      </trkpt>
      <trkpt lat="42.4644" lon="2.87709">
        <ele>500.20001220703</ele>
        <time>2023-07-12T13:57:11.000Z</time>
      </trkpt>
      <trkpt lat="42.46442" lon="2.87704">
        <ele>499.60000610352</ele>
        <time>2023-07-12T13:57:16.000Z</time>
      </trkpt>
      <trkpt lat="42.46442" lon="2.87702">
        <ele>499</ele>
        <time>2023-07-12T13:57:18.000Z</time>
      </trkpt>
      <trkpt lat="42.46441" lon="2.87694">
        <ele>498.20001220703</ele>
        <time>2023-07-12T13:57:22.000Z</time>
      </trkpt>
      <trkpt lat="42.46441" lon="2.87693">
        <ele>497.60000610352</ele>
        <time>2023-07-12T13:57:23.000Z</time>
      </trkpt>
      <trkpt lat="42.46442" lon="2.87687">
        <ele>496.60000610352</ele>
        <time>2023-07-12T13:57:28.000Z</time>
      </trkpt>
      <trkpt lat="42.46443" lon="2.87683">
        <ele>496</ele>
        <time>2023-07-12T13:57:31.000Z</time>
      </trkpt>
      <trkpt lat="42.46445" lon="2.8768">
        <ele>495.60000610352</ele>
        <time>2023-07-12T13:57:34.000Z</time>
      </trkpt>
      <trkpt lat="42.46447" lon="2.87674">
        <ele>494.60000610352</ele>
        <time>2023-07-12T13:57:39.000Z</time>
      </trkpt>
      <trkpt lat="42.46448" lon="2.87673">
        <ele>494.39999389648</ele>
        <time>2023-07-12T13:57:40.000Z</time>
      </trkpt>
      <trkpt lat="42.46449" lon="2.87667">
        <ele>493.39999389648</ele>
        <time>2023-07-12T13:57:45.000Z</time>
      </trkpt>
      <trkpt lat="42.46449" lon="2.87665">
        <ele>493</ele>
        <time>2023-07-12T13:57:47.000Z</time>
      </trkpt>
      <trkpt lat="42.4645" lon="2.87662">
        <ele>492.39999389648</ele>
        <time>2023-07-12T13:57:50.000Z</time>
      </trkpt>
      <trkpt lat="42.46451" lon="2.87654">
        <ele>491.20001220703</ele>
        <time>2023-07-12T13:57:56.000Z</time>
      </trkpt>
      <trkpt lat="42.4645" lon="2.87644">
        <ele>490.20001220703</ele>
        <time>2023-07-12T13:58:03.000Z</time>
      </trkpt>
      <trkpt lat="42.4645" lon="2.87643">
        <ele>489.79998779297</ele>
        <time>2023-07-12T13:58:04.000Z</time>
      </trkpt>
      <trkpt lat="42.46451" lon="2.8764">
        <ele>489</ele>
        <time>2023-07-12T13:58:06.000Z</time>
      </trkpt>
      <trkpt lat="42.46451" lon="2.87632">
        <ele>488</ele>
        <time>2023-07-12T13:58:11.000Z</time>
      </trkpt>
      <trkpt lat="42.4645" lon="2.87629">
        <ele>487.60000610352</ele>
        <time>2023-07-12T13:58:13.000Z</time>
      </trkpt>
      <trkpt lat="42.46451" lon="2.87625">
        <ele>487</ele>
        <time>2023-07-12T13:58:16.000Z</time>
      </trkpt>
      <trkpt lat="42.46453" lon="2.87617">
        <ele>486.20001220703</ele>
        <time>2023-07-12T13:58:21.000Z</time>
      </trkpt>
      <trkpt lat="42.46455" lon="2.87614">
        <ele>485.79998779297</ele>
        <time>2023-07-12T13:58:24.000Z</time>
      </trkpt>
      <trkpt lat="42.46457" lon="2.87614">
        <ele>485</ele>
        <time>2023-07-12T13:58:28.000Z</time>
      </trkpt>
      <trkpt lat="42.46459" lon="2.87613">
        <ele>484.79998779297</ele>
        <time>2023-07-12T13:58:31.000Z</time>
      </trkpt>
      <trkpt lat="42.4646" lon="2.87614">
        <ele>484.39999389648</ele>
        <time>2023-07-12T13:58:35.000Z</time>
      </trkpt>
      <trkpt lat="42.46462" lon="2.87614">
        <ele>484.20001220703</ele>
        <time>2023-07-12T13:58:44.000Z</time>
      </trkpt>
      <trkpt lat="42.46461" lon="2.87615">
        <ele>483.79998779297</ele>
        <time>2023-07-12T13:58:51.000Z</time>
      </trkpt>
      <trkpt lat="42.46461" lon="2.87615">
        <ele>483.79998779297</ele>
        <time>2023-07-12T13:58:55.000Z</time>
      </trkpt>
      <trkpt lat="42.4646" lon="2.87614">
        <ele>483.79998779297</ele>
        <time>2023-07-12T13:59:01.000Z</time>
      </trkpt>
      <trkpt lat="42.46459" lon="2.87611">
        <ele>483.79998779297</ele>
        <time>2023-07-12T13:59:11.000Z</time>
      </trkpt>
      <trkpt lat="42.46461" lon="2.87611">
        <ele>484</ele>
        <time>2023-07-12T13:59:19.000Z</time>
      </trkpt>
      <trkpt lat="42.46468" lon="2.87609">
        <ele>484</ele>
        <time>2023-07-12T13:59:25.000Z</time>
      </trkpt>
      <trkpt lat="42.46476" lon="2.87604">
        <ele>483.39999389648</ele>
        <time>2023-07-12T13:59:32.000Z</time>
      </trkpt>
      <trkpt lat="42.46481" lon="2.87601">
        <ele>482.79998779297</ele>
        <time>2023-07-12T13:59:36.000Z</time>
      </trkpt>
      <trkpt lat="42.46485" lon="2.87599">
        <ele>482.20001220703</ele>
        <time>2023-07-12T13:59:40.000Z</time>
      </trkpt>
      <trkpt lat="42.4649" lon="2.87593">
        <ele>481.60000610352</ele>
        <time>2023-07-12T13:59:45.000Z</time>
      </trkpt>
      <trkpt lat="42.46493" lon="2.87588">
        <ele>480.60000610352</ele>
        <time>2023-07-12T13:59:49.000Z</time>
      </trkpt>
      <trkpt lat="42.46493" lon="2.87585">
        <ele>480.60000610352</ele>
        <time>2023-07-12T13:59:50.000Z</time>
      </trkpt>
      <trkpt lat="42.46495" lon="2.8758">
        <ele>479.39999389648</ele>
        <time>2023-07-12T13:59:54.000Z</time>
      </trkpt>
      <trkpt lat="42.46496" lon="2.87578">
        <ele>479.20001220703</ele>
        <time>2023-07-12T13:59:55.000Z</time>
      </trkpt>
      <trkpt lat="42.46497" lon="2.87576">
        <ele>478.79998779297</ele>
        <time>2023-07-12T13:59:59.000Z</time>
      </trkpt>
      <trkpt lat="42.46497" lon="2.87576">
        <ele>478.79998779297</ele>
        <time>2023-07-12T14:00:00.000Z</time>
      </trkpt>
      <trkpt lat="42.46496" lon="2.87575">
        <ele>478.79998779297</ele>
        <time>2023-07-12T14:00:04.000Z</time>
      </trkpt>
      <trkpt lat="42.46495" lon="2.87575">
        <ele>478.60000610352</ele>
        <time>2023-07-12T14:00:08.000Z</time>
      </trkpt>
      <trkpt lat="42.46494" lon="2.87575">
        <ele>478.39999389648</ele>
        <time>2023-07-12T14:00:10.000Z</time>
      </trkpt>
      <trkpt lat="42.46494" lon="2.87574">
        <ele>478.39999389648</ele>
        <time>2023-07-12T14:00:16.000Z</time>
      </trkpt>
      <trkpt lat="42.46496" lon="2.87575">
        <ele>478.39999389648</ele>
        <time>2023-07-12T14:00:24.000Z</time>
      </trkpt>
      <trkpt lat="42.46488" lon="2.87573">
        <ele>478</ele>
        <time>2023-07-12T14:00:31.000Z</time>
      </trkpt>
      <trkpt lat="42.4648" lon="2.87572">
        <ele>477.39999389648</ele>
        <time>2023-07-12T14:00:37.000Z</time>
      </trkpt>
      <trkpt lat="42.46476" lon="2.87571">
        <ele>477.20001220703</ele>
        <time>2023-07-12T14:00:41.000Z</time>
      </trkpt>
      <trkpt lat="42.46468" lon="2.87566">
        <ele>476.79998779297</ele>
        <time>2023-07-12T14:00:47.000Z</time>
      </trkpt>
      <trkpt lat="42.4647" lon="2.8756">
        <ele>476.60000610352</ele>
        <time>2023-07-12T14:00:53.000Z</time>
      </trkpt>
      <trkpt lat="42.46472" lon="2.8756">
        <ele>476.39999389648</ele>
        <time>2023-07-12T14:00:55.000Z</time>
      </trkpt>
      <trkpt lat="42.46473" lon="2.8756">
        <ele>476.20001220703</ele>
        <time>2023-07-12T14:00:56.000Z</time>
      </trkpt>
      <trkpt lat="42.46476" lon="2.8756">
        <ele>475.79998779297</ele>
        <time>2023-07-12T14:00:58.000Z</time>
      </trkpt>
      <trkpt lat="42.46478" lon="2.87561">
        <ele>475.20001220703</ele>
        <time>2023-07-12T14:01:00.000Z</time>
      </trkpt>
      <trkpt lat="42.46478" lon="2.87561">
        <ele>474.60000610352</ele>
        <time>2023-07-12T14:01:03.000Z</time>
      </trkpt>
      <trkpt lat="42.46478" lon="2.87564">
        <ele>474.20001220703</ele>
        <time>2023-07-12T14:01:11.000Z</time>
      </trkpt>
      <trkpt lat="42.46478" lon="2.87564">
        <ele>474.20001220703</ele>
        <time>2023-07-12T14:01:13.000Z</time>
      </trkpt>
      <trkpt lat="42.46483" lon="2.87564">
        <ele>474.39999389648</ele>
        <time>2023-07-12T14:01:20.000Z</time>
      </trkpt>
      <trkpt lat="42.4649" lon="2.87558">
        <ele>474</ele>
        <time>2023-07-12T14:01:27.000Z</time>
      </trkpt>
      <trkpt lat="42.46494" lon="2.87555">
        <ele>473.20001220703</ele>
        <time>2023-07-12T14:01:30.000Z</time>
      </trkpt>
      <trkpt lat="42.46499" lon="2.87551">
        <ele>472.20001220703</ele>
        <time>2023-07-12T14:01:34.000Z</time>
      </trkpt>
      <trkpt lat="42.46502" lon="2.87548">
        <ele>471.60000610352</ele>
        <time>2023-07-12T14:01:37.000Z</time>
      </trkpt>
      <trkpt lat="42.46503" lon="2.87547">
        <ele>471</ele>
        <time>2023-07-12T14:01:38.000Z</time>
      </trkpt>
      <trkpt lat="42.46511" lon="2.87542">
        <ele>470</ele>
        <time>2023-07-12T14:01:44.000Z</time>
      </trkpt>
      <trkpt lat="42.46512" lon="2.87542">
        <ele>469.60000610352</ele>
        <time>2023-07-12T14:01:45.000Z</time>
      </trkpt>
      <trkpt lat="42.46517" lon="2.8754">
        <ele>468.60000610352</ele>
        <time>2023-07-12T14:01:49.000Z</time>
      </trkpt>
      <trkpt lat="42.46522" lon="2.87536">
        <ele>467.60000610352</ele>
        <time>2023-07-12T14:01:54.000Z</time>
      </trkpt>
      <trkpt lat="42.46524" lon="2.87533">
        <ele>467.20001220703</ele>
        <time>2023-07-12T14:01:56.000Z</time>
      </trkpt>
      <trkpt lat="42.46527" lon="2.8753">
        <ele>466.39999389648</ele>
        <time>2023-07-12T14:01:59.000Z</time>
      </trkpt>
      <trkpt lat="42.46532" lon="2.87524">
        <ele>465.39999389648</ele>
        <time>2023-07-12T14:02:04.000Z</time>
      </trkpt>
      <trkpt lat="42.46532" lon="2.87523">
        <ele>465.20001220703</ele>
        <time>2023-07-12T14:02:05.000Z</time>
      </trkpt>
      <trkpt lat="42.46539" lon="2.87517">
        <ele>464.20001220703</ele>
        <time>2023-07-12T14:02:11.000Z</time>
      </trkpt>
      <trkpt lat="42.46542" lon="2.87515">
        <ele>463.79998779297</ele>
        <time>2023-07-12T14:02:14.000Z</time>
      </trkpt>
      <trkpt lat="42.46545" lon="2.87512">
        <ele>463.20001220703</ele>
        <time>2023-07-12T14:02:18.000Z</time>
      </trkpt>
      <trkpt lat="42.4655" lon="2.87508">
        <ele>462.20001220703</ele>
        <time>2023-07-12T14:02:22.000Z</time>
      </trkpt>
      <trkpt lat="42.46551" lon="2.87507">
        <ele>462</ele>
        <time>2023-07-12T14:02:23.000Z</time>
      </trkpt>
      <trkpt lat="42.46555" lon="2.87501">
        <ele>460.79998779297</ele>
        <time>2023-07-12T14:02:28.000Z</time>
      </trkpt>
      <trkpt lat="42.46556" lon="2.875">
        <ele>460.60000610352</ele>
        <time>2023-07-12T14:02:29.000Z</time>
      </trkpt>
      <trkpt lat="42.46563" lon="2.8749">
        <ele>459.79998779297</ele>
        <time>2023-07-12T14:02:36.000Z</time>
      </trkpt>
      <trkpt lat="42.46566" lon="2.87487">
        <ele>459.39999389648</ele>
        <time>2023-07-12T14:02:39.000Z</time>
      </trkpt>
      <trkpt lat="42.46569" lon="2.8748">
        <ele>458.60000610352</ele>
        <time>2023-07-12T14:02:44.000Z</time>
      </trkpt>
      <trkpt lat="42.46572" lon="2.87471">
        <ele>457.60000610352</ele>
        <time>2023-07-12T14:02:49.000Z</time>
      </trkpt>
      <trkpt lat="42.46573" lon="2.87466">
        <ele>456.39999389648</ele>
        <time>2023-07-12T14:02:53.000Z</time>
      </trkpt>
      <trkpt lat="42.46573" lon="2.87464">
        <ele>456</ele>
        <time>2023-07-12T14:02:57.000Z</time>
      </trkpt>
      <trkpt lat="42.46571" lon="2.87467">
        <ele>455.79998779297</ele>
        <time>2023-07-12T14:03:06.000Z</time>
      </trkpt>
      <trkpt lat="42.46574" lon="2.87469">
        <ele>456.20001220703</ele>
        <time>2023-07-12T14:03:13.000Z</time>
      </trkpt>
      <trkpt lat="42.46577" lon="2.87472">
        <ele>456.39999389648</ele>
        <time>2023-07-12T14:03:21.000Z</time>
      </trkpt>
      <trkpt lat="42.46578" lon="2.87467">
        <ele>456.60000610352</ele>
        <time>2023-07-12T14:03:27.000Z</time>
      </trkpt>
      <trkpt lat="42.46573" lon="2.87469">
        <ele>456.79998779297</ele>
        <time>2023-07-12T14:03:32.000Z</time>
      </trkpt>
      <trkpt lat="42.4657" lon="2.87474">
        <ele>457.60000610352</ele>
        <time>2023-07-12T14:03:36.000Z</time>
      </trkpt>
      <trkpt lat="42.46568" lon="2.87476">
        <ele>458</ele>
        <time>2023-07-12T14:03:38.000Z</time>
      </trkpt>
      <trkpt lat="42.46566" lon="2.8748">
        <ele>458.60000610352</ele>
        <time>2023-07-12T14:03:41.000Z</time>
      </trkpt>
      <trkpt lat="42.46563" lon="2.87485">
        <ele>459.39999389648</ele>
        <time>2023-07-12T14:03:45.000Z</time>
      </trkpt>
      <trkpt lat="42.46562" lon="2.87487">
        <ele>459.60000610352</ele>
        <time>2023-07-12T14:03:47.000Z</time>
      </trkpt>
      <trkpt lat="42.46559" lon="2.87493">
        <ele>460.79998779297</ele>
        <time>2023-07-12T14:03:53.000Z</time>
      </trkpt>
      <trkpt lat="42.46558" lon="2.87495">
        <ele>461.20001220703</ele>
        <time>2023-07-12T14:03:58.000Z</time>
      </trkpt>
      <trkpt lat="42.46554" lon="2.87501">
        <ele>461.39999389648</ele>
        <time>2023-07-12T14:04:04.000Z</time>
      </trkpt>
      <trkpt lat="42.46553" lon="2.87502">
        <ele>462</ele>
        <time>2023-07-12T14:04:07.000Z</time>
      </trkpt>
      <trkpt lat="42.4655" lon="2.87508">
        <ele>462.79998779297</ele>
        <time>2023-07-12T14:04:13.000Z</time>
      </trkpt>
      <trkpt lat="42.46549" lon="2.8751">
        <ele>463.20001220703</ele>
        <time>2023-07-12T14:04:15.000Z</time>
      </trkpt>
      <trkpt lat="42.46546" lon="2.87512">
        <ele>464</ele>
        <time>2023-07-12T14:04:20.000Z</time>
      </trkpt>
      <trkpt lat="42.46545" lon="2.87512">
        <ele>464.39999389648</ele>
        <time>2023-07-12T14:04:22.000Z</time>
      </trkpt>
      <trkpt lat="42.4654" lon="2.87514">
        <ele>465.60000610352</ele>
        <time>2023-07-12T14:04:27.000Z</time>
      </trkpt>
      <trkpt lat="42.46538" lon="2.87515">
        <ele>465.79998779297</ele>
        <time>2023-07-12T14:04:30.000Z</time>
      </trkpt>
      <trkpt lat="42.46538" lon="2.87515">
        <ele>466</ele>
        <time>2023-07-12T14:04:39.000Z</time>
      </trkpt>
      <trkpt lat="42.46536" lon="2.87517">
        <ele>466.60000610352</ele>
        <time>2023-07-12T14:04:44.000Z</time>
      </trkpt>
      <trkpt lat="42.46535" lon="2.87518">
        <ele>466.60000610352</ele>
        <time>2023-07-12T14:04:45.000Z</time>
      </trkpt>
      <trkpt lat="42.46531" lon="2.87521">
        <ele>467.60000610352</ele>
        <time>2023-07-12T14:04:50.000Z</time>
      </trkpt>
      <trkpt lat="42.46528" lon="2.87524">
        <ele>468.20001220703</ele>
        <time>2023-07-12T14:04:53.000Z</time>
      </trkpt>
      <trkpt lat="42.46526" lon="2.87525">
        <ele>468.60000610352</ele>
        <time>2023-07-12T14:04:56.000Z</time>
      </trkpt>
      <trkpt lat="42.46523" lon="2.87529">
        <ele>469.60000610352</ele>
        <time>2023-07-12T14:05:00.000Z</time>
      </trkpt>
      <trkpt lat="42.46522" lon="2.87529">
        <ele>469.79998779297</ele>
        <time>2023-07-12T14:05:01.000Z</time>
      </trkpt>
      <trkpt lat="42.46516" lon="2.87533">
        <ele>471</ele>
        <time>2023-07-12T14:05:07.000Z</time>
      </trkpt>
      <trkpt lat="42.46515" lon="2.87534">
        <ele>471.20001220703</ele>
        <time>2023-07-12T14:05:09.000Z</time>
      </trkpt>
      <trkpt lat="42.4651" lon="2.87537">
        <ele>472</ele>
        <time>2023-07-12T14:05:17.000Z</time>
      </trkpt>
      <trkpt lat="42.46509" lon="2.87537">
        <ele>472.20001220703</ele>
        <time>2023-07-12T14:05:18.000Z</time>
      </trkpt>
      <trkpt lat="42.46506" lon="2.87541">
        <ele>473</ele>
        <time>2023-07-12T14:05:24.000Z</time>
      </trkpt>
      <trkpt lat="42.46505" lon="2.87541">
        <ele>473.20001220703</ele>
        <time>2023-07-12T14:05:25.000Z</time>
      </trkpt>
      <trkpt lat="42.46501" lon="2.87545">
        <ele>474.20001220703</ele>
        <time>2023-07-12T14:05:30.000Z</time>
      </trkpt>
      <trkpt lat="42.46498" lon="2.87545">
        <ele>474.20001220703</ele>
        <time>2023-07-12T14:05:33.000Z</time>
      </trkpt>
      <trkpt lat="42.46495" lon="2.87546">
        <ele>475.20001220703</ele>
        <time>2023-07-12T14:05:37.000Z</time>
      </trkpt>
      <trkpt lat="42.46491" lon="2.87547">
        <ele>476</ele>
        <time>2023-07-12T14:05:41.000Z</time>
      </trkpt>
      <trkpt lat="42.46489" lon="2.87547">
        <ele>476.20001220703</ele>
        <time>2023-07-12T14:05:43.000Z</time>
      </trkpt>
      <trkpt lat="42.46487" lon="2.87549">
        <ele>477.20001220703</ele>
        <time>2023-07-12T14:05:48.000Z</time>
      </trkpt>
      <trkpt lat="42.46486" lon="2.87549">
        <ele>477.60000610352</ele>
        <time>2023-07-12T14:05:50.000Z</time>
      </trkpt>
      <trkpt lat="42.46483" lon="2.87552">
        <ele>478.39999389648</ele>
        <time>2023-07-12T14:05:55.000Z</time>
      </trkpt>
      <trkpt lat="42.46482" lon="2.87554">
        <ele>478.79998779297</ele>
        <time>2023-07-12T14:05:57.000Z</time>
      </trkpt>
      <trkpt lat="42.46479" lon="2.87555">
        <ele>479.20001220703</ele>
        <time>2023-07-12T14:06:04.000Z</time>
      </trkpt>
      <trkpt lat="42.46477" lon="2.87555">
        <ele>479.39999389648</ele>
        <time>2023-07-12T14:06:06.000Z</time>
      </trkpt>
      <trkpt lat="42.46472" lon="2.87556">
        <ele>480</ele>
        <time>2023-07-12T14:06:11.000Z</time>
      </trkpt>
      <trkpt lat="42.4647" lon="2.87556">
        <ele>480.60000610352</ele>
        <time>2023-07-12T14:06:14.000Z</time>
      </trkpt>
      <trkpt lat="42.46466" lon="2.87556">
        <ele>480.79998779297</ele>
        <time>2023-07-12T14:06:17.000Z</time>
      </trkpt>
      <trkpt lat="42.4646" lon="2.87557">
        <ele>481.39999389648</ele>
        <time>2023-07-12T14:06:24.000Z</time>
      </trkpt>
      <trkpt lat="42.46456" lon="2.87556">
        <ele>481.39999389648</ele>
        <time>2023-07-12T14:06:29.000Z</time>
      </trkpt>
      <trkpt lat="42.46451" lon="2.87548">
        <ele>480.79998779297</ele>
        <time>2023-07-12T14:06:36.000Z</time>
      </trkpt>
      <trkpt lat="42.46451" lon="2.87541">
        <ele>479.39999389648</ele>
        <time>2023-07-12T14:06:44.000Z</time>
      </trkpt>
      <trkpt lat="42.46451" lon="2.87541">
        <ele>479.20001220703</ele>
        <time>2023-07-12T14:06:45.000Z</time>
      </trkpt>
      <trkpt lat="42.46452" lon="2.87539">
        <ele>478.60000610352</ele>
        <time>2023-07-12T14:06:49.000Z</time>
      </trkpt>
      <trkpt lat="42.46452" lon="2.87538">
        <ele>478.60000610352</ele>
        <time>2023-07-12T14:06:52.000Z</time>
      </trkpt>
      <trkpt lat="42.46451" lon="2.87539">
        <ele>478.60000610352</ele>
        <time>2023-07-12T14:06:58.000Z</time>
      </trkpt>
      <trkpt lat="42.4645" lon="2.8754">
        <ele>478.60000610352</ele>
        <time>2023-07-12T14:07:01.000Z</time>
      </trkpt>
      <trkpt lat="42.46449" lon="2.87538">
        <ele>478.79998779297</ele>
        <time>2023-07-12T14:07:09.000Z</time>
      </trkpt>
      <trkpt lat="42.4645" lon="2.87537">
        <ele>478.20001220703</ele>
        <time>2023-07-12T14:07:15.000Z</time>
      </trkpt>
      <trkpt lat="42.46451" lon="2.87535">
        <ele>478</ele>
        <time>2023-07-12T14:07:16.000Z</time>
      </trkpt>
      <trkpt lat="42.46454" lon="2.87526">
        <ele>477.20001220703</ele>
        <time>2023-07-12T14:07:21.000Z</time>
      </trkpt>
      <trkpt lat="42.46455" lon="2.87524">
        <ele>477.20001220703</ele>
        <time>2023-07-12T14:07:22.000Z</time>
      </trkpt>
      <trkpt lat="42.46459" lon="2.87514">
        <ele>476.60000610352</ele>
        <time>2023-07-12T14:07:29.000Z</time>
      </trkpt>
      <trkpt lat="42.4646" lon="2.87507">
        <ele>476</ele>
        <time>2023-07-12T14:07:33.000Z</time>
      </trkpt>
      <trkpt lat="42.46461" lon="2.87499">
        <ele>475.20001220703</ele>
        <time>2023-07-12T14:07:38.000Z</time>
      </trkpt>
      <trkpt lat="42.46461" lon="2.87498">
        <ele>475</ele>
        <time>2023-07-12T14:07:39.000Z</time>
      </trkpt>
      <trkpt lat="42.46462" lon="2.87496">
        <ele>473.60000610352</ele>
        <time>2023-07-12T14:07:42.000Z</time>
      </trkpt>
      <trkpt lat="42.46463" lon="2.87496">
        <ele>472.79998779297</ele>
        <time>2023-07-12T14:07:45.000Z</time>
      </trkpt>
      <trkpt lat="42.46463" lon="2.87497">
        <ele>472.60000610352</ele>
        <time>2023-07-12T14:07:51.000Z</time>
      </trkpt>
      <trkpt lat="42.46463" lon="2.87494">
        <ele>472.20001220703</ele>
        <time>2023-07-12T14:08:02.000Z</time>
      </trkpt>
      <trkpt lat="42.46465" lon="2.87495">
        <ele>472.60000610352</ele>
        <time>2023-07-12T14:08:11.000Z</time>
      </trkpt>
      <trkpt lat="42.46468" lon="2.8749">
        <ele>471.20001220703</ele>
        <time>2023-07-12T14:08:15.000Z</time>
      </trkpt>
      <trkpt lat="42.46472" lon="2.87484">
        <ele>471</ele>
        <time>2023-07-12T14:08:19.000Z</time>
      </trkpt>
      <trkpt lat="42.46474" lon="2.87479">
        <ele>470.20001220703</ele>
        <time>2023-07-12T14:08:22.000Z</time>
      </trkpt>
      <trkpt lat="42.46476" lon="2.87472">
        <ele>469</ele>
        <time>2023-07-12T14:08:26.000Z</time>
      </trkpt>
      <trkpt lat="42.46477" lon="2.87469">
        <ele>467.60000610352</ele>
        <time>2023-07-12T14:08:28.000Z</time>
      </trkpt>
      <trkpt lat="42.46477" lon="2.87468">
        <ele>467.20001220703</ele>
        <time>2023-07-12T14:08:29.000Z</time>
      </trkpt>
      <trkpt lat="42.4648" lon="2.87462">
        <ele>466.20001220703</ele>
        <time>2023-07-12T14:08:33.000Z</time>
      </trkpt>
      <trkpt lat="42.46482" lon="2.87457">
        <ele>465.39999389648</ele>
        <time>2023-07-12T14:08:36.000Z</time>
      </trkpt>
      <trkpt lat="42.46483" lon="2.87455">
        <ele>465</ele>
        <time>2023-07-12T14:08:37.000Z</time>
      </trkpt>
      <trkpt lat="42.46486" lon="2.8745">
        <ele>463.79998779297</ele>
        <time>2023-07-12T14:08:41.000Z</time>
      </trkpt>
      <trkpt lat="42.4649" lon="2.87446">
        <ele>462.60000610352</ele>
        <time>2023-07-12T14:08:45.000Z</time>
      </trkpt>
      <trkpt lat="42.46491" lon="2.87445">
        <ele>462.20001220703</ele>
        <time>2023-07-12T14:08:46.000Z</time>
      </trkpt>
      <trkpt lat="42.46494" lon="2.87441">
        <ele>461.20001220703</ele>
        <time>2023-07-12T14:08:50.000Z</time>
      </trkpt>
      <trkpt lat="42.46497" lon="2.87435">
        <ele>460.20001220703</ele>
        <time>2023-07-12T14:08:55.000Z</time>
      </trkpt>
      <trkpt lat="42.46498" lon="2.87428">
        <ele>459</ele>
        <time>2023-07-12T14:08:59.000Z</time>
      </trkpt>
      <trkpt lat="42.46499" lon="2.87418">
        <ele>457.79998779297</ele>
        <time>2023-07-12T14:09:04.000Z</time>
      </trkpt>
      <trkpt lat="42.46499" lon="2.87403">
        <ele>456.60000610352</ele>
        <time>2023-07-12T14:09:12.000Z</time>
      </trkpt>
      <trkpt lat="42.465" lon="2.87393">
        <ele>455.39999389648</ele>
        <time>2023-07-12T14:09:17.000Z</time>
      </trkpt>
      <trkpt lat="42.46501" lon="2.87391">
        <ele>454.60000610352</ele>
        <time>2023-07-12T14:09:19.000Z</time>
      </trkpt>
      <trkpt lat="42.46501" lon="2.87387">
        <ele>454.20001220703</ele>
        <time>2023-07-12T14:09:21.000Z</time>
      </trkpt>
      <trkpt lat="42.46502" lon="2.87377">
        <ele>453</ele>
        <time>2023-07-12T14:09:27.000Z</time>
      </trkpt>
      <trkpt lat="42.46503" lon="2.87372">
        <ele>452.60000610352</ele>
        <time>2023-07-12T14:09:30.000Z</time>
      </trkpt>
      <trkpt lat="42.46503" lon="2.87366">
        <ele>451.79998779297</ele>
        <time>2023-07-12T14:09:33.000Z</time>
      </trkpt>
      <trkpt lat="42.46505" lon="2.87356">
        <ele>451.20001220703</ele>
        <time>2023-07-12T14:09:39.000Z</time>
      </trkpt>
      <trkpt lat="42.46505" lon="2.8735">
        <ele>450.79998779297</ele>
        <time>2023-07-12T14:09:42.000Z</time>
      </trkpt>
      <trkpt lat="42.46505" lon="2.87341">
        <ele>449.60000610352</ele>
        <time>2023-07-12T14:09:46.000Z</time>
      </trkpt>
      <trkpt lat="42.46506" lon="2.87336">
        <ele>448.39999389648</ele>
        <time>2023-07-12T14:09:50.000Z</time>
      </trkpt>
      <trkpt lat="42.46508" lon="2.87328">
        <ele>447.79998779297</ele>
        <time>2023-07-12T14:09:55.000Z</time>
      </trkpt>
      <trkpt lat="42.46509" lon="2.87323">
        <ele>447.39999389648</ele>
        <time>2023-07-12T14:09:58.000Z</time>
      </trkpt>
      <trkpt lat="42.4651" lon="2.87312">
        <ele>446.20001220703</ele>
        <time>2023-07-12T14:10:04.000Z</time>
      </trkpt>
      <trkpt lat="42.46511" lon="2.8731">
        <ele>446.20001220703</ele>
        <time>2023-07-12T14:10:05.000Z</time>
      </trkpt>
      <trkpt lat="42.46512" lon="2.873">
        <ele>445.20001220703</ele>
        <time>2023-07-12T14:10:11.000Z</time>
      </trkpt>
      <trkpt lat="42.46512" lon="2.87294">
        <ele>444.79998779297</ele>
        <time>2023-07-12T14:10:14.000Z</time>
      </trkpt>
      <trkpt lat="42.46513" lon="2.87289">
        <ele>444.20001220703</ele>
        <time>2023-07-12T14:10:17.000Z</time>
      </trkpt>
      <trkpt lat="42.46514" lon="2.87282">
        <ele>443.79998779297</ele>
        <time>2023-07-12T14:10:21.000Z</time>
      </trkpt>
      <trkpt lat="42.46515" lon="2.87278">
        <ele>443.20001220703</ele>
        <time>2023-07-12T14:10:24.000Z</time>
      </trkpt>
      <trkpt lat="42.46517" lon="2.87266">
        <ele>442</ele>
        <time>2023-07-12T14:10:31.000Z</time>
      </trkpt>
      <trkpt lat="42.46519" lon="2.87255">
        <ele>440.79998779297</ele>
        <time>2023-07-12T14:10:38.000Z</time>
      </trkpt>
      <trkpt lat="42.46519" lon="2.87251">
        <ele>440</ele>
        <time>2023-07-12T14:10:41.000Z</time>
      </trkpt>
      <trkpt lat="42.46519" lon="2.87249">
        <ele>439.79998779297</ele>
        <time>2023-07-12T14:10:42.000Z</time>
      </trkpt>
      <trkpt lat="42.4652" lon="2.87237">
        <ele>438.60000610352</ele>
        <time>2023-07-12T14:10:48.000Z</time>
      </trkpt>
      <trkpt lat="42.46519" lon="2.87234">
        <ele>438.20001220703</ele>
        <time>2023-07-12T14:10:50.000Z</time>
      </trkpt>
      <trkpt lat="42.46519" lon="2.8723">
        <ele>437.39999389648</ele>
        <time>2023-07-12T14:10:53.000Z</time>
      </trkpt>
      <trkpt lat="42.4652" lon="2.87222">
        <ele>436.39999389648</ele>
        <time>2023-07-12T14:10:58.000Z</time>
      </trkpt>
      <trkpt lat="42.4652" lon="2.8722">
        <ele>436</ele>
        <time>2023-07-12T14:10:59.000Z</time>
      </trkpt>
      <trkpt lat="42.46521" lon="2.8721">
        <ele>435</ele>
        <time>2023-07-12T14:11:05.000Z</time>
      </trkpt>
      <trkpt lat="42.46521" lon="2.87203">
        <ele>434.20001220703</ele>
        <time>2023-07-12T14:11:09.000Z</time>
      </trkpt>
      <trkpt lat="42.46521" lon="2.87202">
        <ele>433.79998779297</ele>
        <time>2023-07-12T14:11:10.000Z</time>
      </trkpt>
      <trkpt lat="42.4652" lon="2.87193">
        <ele>432.60000610352</ele>
        <time>2023-07-12T14:11:16.000Z</time>
      </trkpt>
      <trkpt lat="42.46518" lon="2.87188">
        <ele>432</ele>
        <time>2023-07-12T14:11:19.000Z</time>
      </trkpt>
      <trkpt lat="42.46516" lon="2.87183">
        <ele>431.60000610352</ele>
        <time>2023-07-12T14:11:22.000Z</time>
      </trkpt>
      <trkpt lat="42.46514" lon="2.87178">
        <ele>430.60000610352</ele>
        <time>2023-07-12T14:11:27.000Z</time>
      </trkpt>
      <trkpt lat="42.46513" lon="2.87177">
        <ele>430.39999389648</ele>
        <time>2023-07-12T14:11:28.000Z</time>
      </trkpt>
      <trkpt lat="42.46512" lon="2.87172">
        <ele>429</ele>
        <time>2023-07-12T14:11:32.000Z</time>
      </trkpt>
      <trkpt lat="42.46512" lon="2.8717">
        <ele>428.79998779297</ele>
        <time>2023-07-12T14:11:33.000Z</time>
      </trkpt>
      <trkpt lat="42.46514" lon="2.87167">
        <ele>428.20001220703</ele>
        <time>2023-07-12T14:11:35.000Z</time>
      </trkpt>
      <trkpt lat="42.46515" lon="2.87166">
        <ele>427.79998779297</ele>
        <time>2023-07-12T14:11:36.000Z</time>
      </trkpt>
      <trkpt lat="42.46517" lon="2.87167">
        <ele>427.39999389648</ele>
        <time>2023-07-12T14:11:38.000Z</time>
      </trkpt>
      <trkpt lat="42.46519" lon="2.87169">
        <ele>427.20001220703</ele>
        <time>2023-07-12T14:11:40.000Z</time>
      </trkpt>
      <trkpt lat="42.4652" lon="2.87171">
        <ele>426.79998779297</ele>
        <time>2023-07-12T14:11:42.000Z</time>
      </trkpt>
      <trkpt lat="42.46528" lon="2.87178">
        <ele>425.60000610352</ele>
        <time>2023-07-12T14:11:47.000Z</time>
      </trkpt>
      <trkpt lat="42.46539" lon="2.87187">
        <ele>424.60000610352</ele>
        <time>2023-07-12T14:11:55.000Z</time>
      </trkpt>
      <trkpt lat="42.46542" lon="2.8719">
        <ele>424.39999389648</ele>
        <time>2023-07-12T14:11:58.000Z</time>
      </trkpt>
      <trkpt lat="42.46548" lon="2.87198">
        <ele>423.60000610352</ele>
        <time>2023-07-12T14:12:05.000Z</time>
      </trkpt>
      <trkpt lat="42.4655" lon="2.87199">
        <ele>423.60000610352</ele>
        <time>2023-07-12T14:12:06.000Z</time>
      </trkpt>
      <trkpt lat="42.46558" lon="2.87203">
        <ele>422.79998779297</ele>
        <time>2023-07-12T14:12:13.000Z</time>
      </trkpt>
      <trkpt lat="42.46559" lon="2.87202">
        <ele>422.60000610352</ele>
        <time>2023-07-12T14:12:14.000Z</time>
      </trkpt>
      <trkpt lat="42.46561" lon="2.87193">
        <ele>421.20001220703</ele>
        <time>2023-07-12T14:12:20.000Z</time>
      </trkpt>
      <trkpt lat="42.46561" lon="2.8719">
        <ele>420.20001220703</ele>
        <time>2023-07-12T14:12:22.000Z</time>
      </trkpt>
      <trkpt lat="42.46559" lon="2.87181">
        <ele>419.39999389648</ele>
        <time>2023-07-12T14:12:28.000Z</time>
      </trkpt>
      <trkpt lat="42.46559" lon="2.87181">
        <ele>419</ele>
        <time>2023-07-12T14:12:31.000Z</time>
      </trkpt>
      <trkpt lat="42.46559" lon="2.8718">
        <ele>418.79998779297</ele>
        <time>2023-07-12T14:12:36.000Z</time>
      </trkpt>
      <trkpt lat="42.46559" lon="2.8718">
        <ele>418.79998779297</ele>
        <time>2023-07-12T14:12:37.000Z</time>
      </trkpt>
      <trkpt lat="42.46559" lon="2.87175">
        <ele>418.60000610352</ele>
        <time>2023-07-12T14:12:42.000Z</time>
      </trkpt>
      <trkpt lat="42.46557" lon="2.87167">
        <ele>418</ele>
        <time>2023-07-12T14:12:46.000Z</time>
      </trkpt>
      <trkpt lat="42.46554" lon="2.8716">
        <ele>416.60000610352</ele>
        <time>2023-07-12T14:12:50.000Z</time>
      </trkpt>
      <trkpt lat="42.46554" lon="2.87159">
        <ele>416.39999389648</ele>
        <time>2023-07-12T14:12:51.000Z</time>
      </trkpt>
      <trkpt lat="42.46552" lon="2.87154">
        <ele>415.39999389648</ele>
        <time>2023-07-12T14:12:54.000Z</time>
      </trkpt>
      <trkpt lat="42.46549" lon="2.87151">
        <ele>414.60000610352</ele>
        <time>2023-07-12T14:12:58.000Z</time>
      </trkpt>
      <trkpt lat="42.46547" lon="2.87149">
        <ele>414.20001220703</ele>
        <time>2023-07-12T14:13:00.000Z</time>
      </trkpt>
      <trkpt lat="42.46544" lon="2.87142">
        <ele>413</ele>
        <time>2023-07-12T14:13:06.000Z</time>
      </trkpt>
      <trkpt lat="42.46542" lon="2.87135">
        <ele>412</ele>
        <time>2023-07-12T14:13:11.000Z</time>
      </trkpt>
      <trkpt lat="42.46541" lon="2.87132">
        <ele>411.39999389648</ele>
        <time>2023-07-12T14:13:13.000Z</time>
      </trkpt>
      <trkpt lat="42.4654" lon="2.87128">
        <ele>411</ele>
        <time>2023-07-12T14:13:15.000Z</time>
      </trkpt>
      <trkpt lat="42.46539" lon="2.87123">
        <ele>409.79998779297</ele>
        <time>2023-07-12T14:13:19.000Z</time>
      </trkpt>
      <trkpt lat="42.46537" lon="2.87116">
        <ele>408.60000610352</ele>
        <time>2023-07-12T14:13:24.000Z</time>
      </trkpt>
      <trkpt lat="42.46534" lon="2.87108">
        <ele>407.60000610352</ele>
        <time>2023-07-12T14:13:29.000Z</time>
      </trkpt>
      <trkpt lat="42.46532" lon="2.87103">
        <ele>406.79998779297</ele>
        <time>2023-07-12T14:13:33.000Z</time>
      </trkpt>
      <trkpt lat="42.4653" lon="2.871">
        <ele>406.39999389648</ele>
        <time>2023-07-12T14:13:35.000Z</time>
      </trkpt>
      <trkpt lat="42.46526" lon="2.87094">
        <ele>405.39999389648</ele>
        <time>2023-07-12T14:13:40.000Z</time>
      </trkpt>
      <trkpt lat="42.46524" lon="2.87092">
        <ele>404.79998779297</ele>
        <time>2023-07-12T14:13:42.000Z</time>
      </trkpt>
      <trkpt lat="42.46521" lon="2.8709">
        <ele>404.39999389648</ele>
        <time>2023-07-12T14:13:44.000Z</time>
      </trkpt>
      <trkpt lat="42.46518" lon="2.87086">
        <ele>403.39999389648</ele>
        <time>2023-07-12T14:13:48.000Z</time>
      </trkpt>
      <trkpt lat="42.46514" lon="2.8708">
        <ele>402.39999389648</ele>
        <time>2023-07-12T14:13:52.000Z</time>
      </trkpt>
      <trkpt lat="42.46513" lon="2.87079">
        <ele>402.20001220703</ele>
        <time>2023-07-12T14:13:53.000Z</time>
      </trkpt>
      <trkpt lat="42.46513" lon="2.87078">
        <ele>402</ele>
        <time>2023-07-12T14:13:56.000Z</time>
      </trkpt>
      <trkpt lat="42.46513" lon="2.87078">
        <ele>402</ele>
        <time>2023-07-12T14:13:57.000Z</time>
      </trkpt>
      <trkpt lat="42.4651" lon="2.8708">
        <ele>401.79998779297</ele>
        <time>2023-07-12T14:14:03.000Z</time>
      </trkpt>
      <trkpt lat="42.46512" lon="2.87083">
        <ele>401.79998779297</ele>
        <time>2023-07-12T14:14:09.000Z</time>
      </trkpt>
      <trkpt lat="42.4651" lon="2.87083">
        <ele>401.39999389648</ele>
        <time>2023-07-12T14:14:18.000Z</time>
      </trkpt>
      <trkpt lat="42.46512" lon="2.87078">
        <ele>401.20001220703</ele>
        <time>2023-07-12T14:14:24.000Z</time>
      </trkpt>
      <trkpt lat="42.46514" lon="2.87078">
        <ele>401.20001220703</ele>
        <time>2023-07-12T14:14:25.000Z</time>
      </trkpt>
      <trkpt lat="42.46523" lon="2.87077">
        <ele>400.39999389648</ele>
        <time>2023-07-12T14:14:31.000Z</time>
      </trkpt>
      <trkpt lat="42.46525" lon="2.87076">
        <ele>400</ele>
        <time>2023-07-12T14:14:33.000Z</time>
      </trkpt>
      <trkpt lat="42.46536" lon="2.87073">
        <ele>399.60000610352</ele>
        <time>2023-07-12T14:14:41.000Z</time>
      </trkpt>
      <trkpt lat="42.46546" lon="2.8707">
        <ele>399.20001220703</ele>
        <time>2023-07-12T14:14:50.000Z</time>
      </trkpt>
      <trkpt lat="42.46547" lon="2.8707">
        <ele>399</ele>
        <time>2023-07-12T14:14:51.000Z</time>
      </trkpt>
      <trkpt lat="42.46554" lon="2.87074">
        <ele>398.79998779297</ele>
        <time>2023-07-12T14:14:58.000Z</time>
      </trkpt>
      <trkpt lat="42.46562" lon="2.87083">
        <ele>398</ele>
        <time>2023-07-12T14:15:04.000Z</time>
      </trkpt>
      <trkpt lat="42.46563" lon="2.87084">
        <ele>397.60000610352</ele>
        <time>2023-07-12T14:15:05.000Z</time>
      </trkpt>
      <trkpt lat="42.46566" lon="2.87088">
        <ele>396.60000610352</ele>
        <time>2023-07-12T14:15:10.000Z</time>
      </trkpt>
      <trkpt lat="42.46568" lon="2.8709">
        <ele>396.20001220703</ele>
        <time>2023-07-12T14:15:12.000Z</time>
      </trkpt>
      <trkpt lat="42.46575" lon="2.87098">
        <ele>395.60000610352</ele>
        <time>2023-07-12T14:15:18.000Z</time>
      </trkpt>
      <trkpt lat="42.46577" lon="2.87099">
        <ele>394.79998779297</ele>
        <time>2023-07-12T14:15:20.000Z</time>
      </trkpt>
      <trkpt lat="42.46578" lon="2.87101">
        <ele>394.39999389648</ele>
        <time>2023-07-12T14:15:22.000Z</time>
      </trkpt>
      <trkpt lat="42.46578" lon="2.87103">
        <ele>393.79998779297</ele>
        <time>2023-07-12T14:15:26.000Z</time>
      </trkpt>
      <trkpt lat="42.46578" lon="2.87102">
        <ele>393.79998779297</ele>
        <time>2023-07-12T14:15:28.000Z</time>
      </trkpt>
      <trkpt lat="42.46582" lon="2.87106">
        <ele>393.20001220703</ele>
        <time>2023-07-12T14:15:36.000Z</time>
      </trkpt>
      <trkpt lat="42.46586" lon="2.87113">
        <ele>392.20001220703</ele>
        <time>2023-07-12T14:15:42.000Z</time>
      </trkpt>
      <trkpt lat="42.46587" lon="2.87113">
        <ele>392</ele>
        <time>2023-07-12T14:15:43.000Z</time>
      </trkpt>
      <trkpt lat="42.46596" lon="2.87118">
        <ele>391.39999389648</ele>
        <time>2023-07-12T14:15:51.000Z</time>
      </trkpt>
      <trkpt lat="42.46602" lon="2.87124">
        <ele>391</ele>
        <time>2023-07-12T14:15:56.000Z</time>
      </trkpt>
      <trkpt lat="42.46605" lon="2.87125">
        <ele>390.79998779297</ele>
        <time>2023-07-12T14:15:59.000Z</time>
      </trkpt>
      <trkpt lat="42.46616" lon="2.87127">
        <ele>390.39999389648</ele>
        <time>2023-07-12T14:16:09.000Z</time>
      </trkpt>
      <trkpt lat="42.46622" lon="2.87116">
        <ele>390.60000610352</ele>
        <time>2023-07-12T14:16:17.000Z</time>
      </trkpt>
      <trkpt lat="42.46627" lon="2.87102">
        <ele>390.79998779297</ele>
        <time>2023-07-12T14:16:24.000Z</time>
      </trkpt>
      <trkpt lat="42.46628" lon="2.87101">
        <ele>390.79998779297</ele>
        <time>2023-07-12T14:16:31.000Z</time>
      </trkpt>
      <trkpt lat="42.46631" lon="2.87102">
        <ele>391.39999389648</ele>
        <time>2023-07-12T14:16:41.000Z</time>
      </trkpt>
      <trkpt lat="42.46627" lon="2.87103">
        <ele>391.39999389648</ele>
        <time>2023-07-12T14:16:45.000Z</time>
      </trkpt>
      <trkpt lat="42.46626" lon="2.87094">
        <ele>390.60000610352</ele>
        <time>2023-07-12T14:16:52.000Z</time>
      </trkpt>
      <trkpt lat="42.46626" lon="2.8709">
        <ele>390</ele>
        <time>2023-07-12T14:16:55.000Z</time>
      </trkpt>
      <trkpt lat="42.46626" lon="2.8708">
        <ele>389.20001220703</ele>
        <time>2023-07-12T14:17:01.000Z</time>
      </trkpt>
      <trkpt lat="42.46626" lon="2.87076">
        <ele>389</ele>
        <time>2023-07-12T14:17:03.000Z</time>
      </trkpt>
      <trkpt lat="42.46627" lon="2.87065">
        <ele>388.39999389648</ele>
        <time>2023-07-12T14:17:10.000Z</time>
      </trkpt>
      <trkpt lat="42.46628" lon="2.87053">
        <ele>387.79998779297</ele>
        <time>2023-07-12T14:17:18.000Z</time>
      </trkpt>
      <trkpt lat="42.46627" lon="2.87046">
        <ele>386.79998779297</ele>
        <time>2023-07-12T14:17:24.000Z</time>
      </trkpt>
      <trkpt lat="42.46626" lon="2.87045">
        <ele>386.20001220703</ele>
        <time>2023-07-12T14:17:26.000Z</time>
      </trkpt>
      <trkpt lat="42.46624" lon="2.87042">
        <ele>385.60000610352</ele>
        <time>2023-07-12T14:17:30.000Z</time>
      </trkpt>
      <trkpt lat="42.46622" lon="2.87033">
        <ele>384.60000610352</ele>
        <time>2023-07-12T14:17:36.000Z</time>
      </trkpt>
      <trkpt lat="42.46622" lon="2.87031">
        <ele>384.60000610352</ele>
        <time>2023-07-12T14:17:37.000Z</time>
      </trkpt>
      <trkpt lat="42.46619" lon="2.87022">
        <ele>383.60000610352</ele>
        <time>2023-07-12T14:17:44.000Z</time>
      </trkpt>
      <trkpt lat="42.46619" lon="2.8702">
        <ele>383.60000610352</ele>
        <time>2023-07-12T14:17:45.000Z</time>
      </trkpt>
      <trkpt lat="42.46617" lon="2.87014">
        <ele>383</ele>
        <time>2023-07-12T14:17:50.000Z</time>
      </trkpt>
      <trkpt lat="42.46614" lon="2.87011">
        <ele>382.60000610352</ele>
        <time>2023-07-12T14:17:54.000Z</time>
      </trkpt>
      <trkpt lat="42.46611" lon="2.87006">
        <ele>381.79998779297</ele>
        <time>2023-07-12T14:17:58.000Z</time>
      </trkpt>
      <trkpt lat="42.4661" lon="2.87005">
        <ele>381.60000610352</ele>
        <time>2023-07-12T14:17:59.000Z</time>
      </trkpt>
      <trkpt lat="42.46608" lon="2.87">
        <ele>380.39999389648</ele>
        <time>2023-07-12T14:18:04.000Z</time>
      </trkpt>
      <trkpt lat="42.46607" lon="2.86996">
        <ele>379.60000610352</ele>
        <time>2023-07-12T14:18:08.000Z</time>
      </trkpt>
      <trkpt lat="42.46607" lon="2.86992">
        <ele>379.20001220703</ele>
        <time>2023-07-12T14:18:10.000Z</time>
      </trkpt>
      <trkpt lat="42.46604" lon="2.86987">
        <ele>378</ele>
        <time>2023-07-12T14:18:14.000Z</time>
      </trkpt>
      <trkpt lat="42.46604" lon="2.86986">
        <ele>377.79998779297</ele>
        <time>2023-07-12T14:18:15.000Z</time>
      </trkpt>
      <trkpt lat="42.46603" lon="2.86983">
        <ele>377</ele>
        <time>2023-07-12T14:18:18.000Z</time>
      </trkpt>
      <trkpt lat="42.46604" lon="2.86975">
        <ele>376</ele>
        <time>2023-07-12T14:18:24.000Z</time>
      </trkpt>
      <trkpt lat="42.46604" lon="2.86974">
        <ele>375.79998779297</ele>
        <time>2023-07-12T14:18:25.000Z</time>
      </trkpt>
      <trkpt lat="42.46603" lon="2.86966">
        <ele>374.79998779297</ele>
        <time>2023-07-12T14:18:32.000Z</time>
      </trkpt>
      <trkpt lat="42.46603" lon="2.86965">
        <ele>374.79998779297</ele>
        <time>2023-07-12T14:18:33.000Z</time>
      </trkpt>
      <trkpt lat="42.46601" lon="2.86956">
        <ele>373.60000610352</ele>
        <time>2023-07-12T14:18:39.000Z</time>
      </trkpt>
      <trkpt lat="42.46601" lon="2.86954">
        <ele>373.39999389648</ele>
        <time>2023-07-12T14:18:40.000Z</time>
      </trkpt>
      <trkpt lat="42.466" lon="2.86948">
        <ele>372.60000610352</ele>
        <time>2023-07-12T14:18:43.000Z</time>
      </trkpt>
      <trkpt lat="42.46599" lon="2.86941">
        <ele>371.79998779297</ele>
        <time>2023-07-12T14:18:48.000Z</time>
      </trkpt>
      <trkpt lat="42.46599" lon="2.86938">
        <ele>371.60000610352</ele>
        <time>2023-07-12T14:18:50.000Z</time>
      </trkpt>
      <trkpt lat="42.46597" lon="2.8693">
        <ele>371</ele>
        <time>2023-07-12T14:18:55.000Z</time>
      </trkpt>
      <trkpt lat="42.46596" lon="2.86925">
        <ele>370.60000610352</ele>
        <time>2023-07-12T14:18:58.000Z</time>
      </trkpt>
      <trkpt lat="42.46598" lon="2.86913">
        <ele>369.79998779297</ele>
        <time>2023-07-12T14:19:04.000Z</time>
      </trkpt>
      <trkpt lat="42.46599" lon="2.86909">
        <ele>369.39999389648</ele>
        <time>2023-07-12T14:19:06.000Z</time>
      </trkpt>
      <trkpt lat="42.466" lon="2.86906">
        <ele>368.79998779297</ele>
        <time>2023-07-12T14:19:10.000Z</time>
      </trkpt>
      <trkpt lat="42.46601" lon="2.86902">
        <ele>368.39999389648</ele>
        <time>2023-07-12T14:19:13.000Z</time>
      </trkpt>
      <trkpt lat="42.46603" lon="2.86894">
        <ele>367.39999389648</ele>
        <time>2023-07-12T14:19:18.000Z</time>
      </trkpt>
      <trkpt lat="42.46603" lon="2.86891">
        <ele>367</ele>
        <time>2023-07-12T14:19:20.000Z</time>
      </trkpt>
      <trkpt lat="42.46603" lon="2.86884">
        <ele>366.20001220703</ele>
        <time>2023-07-12T14:19:26.000Z</time>
      </trkpt>
      <trkpt lat="42.46603" lon="2.86883">
        <ele>366</ele>
        <time>2023-07-12T14:19:27.000Z</time>
      </trkpt>
      <trkpt lat="42.46602" lon="2.86877">
        <ele>365.20001220703</ele>
        <time>2023-07-12T14:19:31.000Z</time>
      </trkpt>
      <trkpt lat="42.46603" lon="2.86872">
        <ele>364</ele>
        <time>2023-07-12T14:19:35.000Z</time>
      </trkpt>
      <trkpt lat="42.46603" lon="2.86869">
        <ele>363.39999389648</ele>
        <time>2023-07-12T14:19:37.000Z</time>
      </trkpt>
      <trkpt lat="42.46603" lon="2.86865">
        <ele>362.79998779297</ele>
        <time>2023-07-12T14:19:40.000Z</time>
      </trkpt>
      <trkpt lat="42.46603" lon="2.86862">
        <ele>362</ele>
        <time>2023-07-12T14:19:44.000Z</time>
      </trkpt>
      <trkpt lat="42.46603" lon="2.8686">
        <ele>361.60000610352</ele>
        <time>2023-07-12T14:19:46.000Z</time>
      </trkpt>
      <trkpt lat="42.46604" lon="2.86851">
        <ele>360.39999389648</ele>
        <time>2023-07-12T14:19:52.000Z</time>
      </trkpt>
      <trkpt lat="42.46605" lon="2.86842">
        <ele>359.39999389648</ele>
        <time>2023-07-12T14:19:57.000Z</time>
      </trkpt>
      <trkpt lat="42.46604" lon="2.86834">
        <ele>358.60000610352</ele>
        <time>2023-07-12T14:20:01.000Z</time>
      </trkpt>
      <trkpt lat="42.46604" lon="2.8683">
        <ele>358.20001220703</ele>
        <time>2023-07-12T14:20:03.000Z</time>
      </trkpt>
      <trkpt lat="42.46605" lon="2.86817">
        <ele>357.20001220703</ele>
        <time>2023-07-12T14:20:10.000Z</time>
      </trkpt>
      <trkpt lat="42.46609" lon="2.86803">
        <ele>356.79998779297</ele>
        <time>2023-07-12T14:20:19.000Z</time>
      </trkpt>
      <trkpt lat="42.46609" lon="2.86791">
        <ele>356.60000610352</ele>
        <time>2023-07-12T14:20:28.000Z</time>
      </trkpt>
      <trkpt lat="42.46609" lon="2.86787">
        <ele>356.20001220703</ele>
        <time>2023-07-12T14:20:31.000Z</time>
      </trkpt>
      <trkpt lat="42.46608" lon="2.86782">
        <ele>355</ele>
        <time>2023-07-12T14:20:36.000Z</time>
      </trkpt>
      <trkpt lat="42.46608" lon="2.86781">
        <ele>354.60000610352</ele>
        <time>2023-07-12T14:20:37.000Z</time>
      </trkpt>
      <trkpt lat="42.46607" lon="2.86778">
        <ele>354</ele>
        <time>2023-07-12T14:20:40.000Z</time>
      </trkpt>
      <trkpt lat="42.46607" lon="2.86771">
        <ele>353</ele>
        <time>2023-07-12T14:20:44.000Z</time>
      </trkpt>
      <trkpt lat="42.46607" lon="2.8677">
        <ele>352.79998779297</ele>
        <time>2023-07-12T14:20:45.000Z</time>
      </trkpt>
      <trkpt lat="42.46609" lon="2.86758">
        <ele>351.79998779297</ele>
        <time>2023-07-12T14:20:52.000Z</time>
      </trkpt>
      <trkpt lat="42.46609" lon="2.86754">
        <ele>350.79998779297</ele>
        <time>2023-07-12T14:20:59.000Z</time>
      </trkpt>
      <trkpt lat="42.46609" lon="2.86753">
        <ele>350.60000610352</ele>
        <time>2023-07-12T14:21:01.000Z</time>
      </trkpt>
      <trkpt lat="42.46609" lon="2.86752">
        <ele>349.79998779297</ele>
        <time>2023-07-12T14:21:07.000Z</time>
      </trkpt>
      <trkpt lat="42.46608" lon="2.86751">
        <ele>349.39999389648</ele>
        <time>2023-07-12T14:21:08.000Z</time>
      </trkpt>
      <trkpt lat="42.46607" lon="2.86748">
        <ele>348.39999389648</ele>
        <time>2023-07-12T14:21:14.000Z</time>
      </trkpt>
      <trkpt lat="42.46607" lon="2.86748">
        <ele>348</ele>
        <time>2023-07-12T14:21:16.000Z</time>
      </trkpt>
      <trkpt lat="42.46607" lon="2.86747">
        <ele>347.20001220703</ele>
        <time>2023-07-12T14:21:19.000Z</time>
      </trkpt>
      <trkpt lat="42.46608" lon="2.86743">
        <ele>346.20001220703</ele>
        <time>2023-07-12T14:21:24.000Z</time>
      </trkpt>
      <trkpt lat="42.46607" lon="2.8674">
        <ele>345</ele>
        <time>2023-07-12T14:21:28.000Z</time>
      </trkpt>
      <trkpt lat="42.46605" lon="2.86739">
        <ele>344.20001220703</ele>
        <time>2023-07-12T14:21:31.000Z</time>
      </trkpt>
      <trkpt lat="42.46605" lon="2.86738">
        <ele>344</ele>
        <time>2023-07-12T14:21:32.000Z</time>
      </trkpt>
      <trkpt lat="42.46603" lon="2.86734">
        <ele>342.79998779297</ele>
        <time>2023-07-12T14:21:38.000Z</time>
      </trkpt>
      <trkpt lat="42.46603" lon="2.86734">
        <ele>342.79998779297</ele>
        <time>2023-07-12T14:21:39.000Z</time>
      </trkpt>
      <trkpt lat="42.46601" lon="2.86734">
        <ele>342</ele>
        <time>2023-07-12T14:21:43.000Z</time>
      </trkpt>
      <trkpt lat="42.466" lon="2.86734">
        <ele>341.60000610352</ele>
        <time>2023-07-12T14:21:44.000Z</time>
      </trkpt>
      <trkpt lat="42.46599" lon="2.86734">
        <ele>340.79998779297</ele>
        <time>2023-07-12T14:21:48.000Z</time>
      </trkpt>
      <trkpt lat="42.46599" lon="2.86733">
        <ele>340.60000610352</ele>
        <time>2023-07-12T14:21:49.000Z</time>
      </trkpt>
      <trkpt lat="42.46598" lon="2.8673">
        <ele>339.60000610352</ele>
        <time>2023-07-12T14:21:53.000Z</time>
      </trkpt>
      <trkpt lat="42.46597" lon="2.86726">
        <ele>338.39999389648</ele>
        <time>2023-07-12T14:21:58.000Z</time>
      </trkpt>
      <trkpt lat="42.46598" lon="2.86723">
        <ele>337.20001220703</ele>
        <time>2023-07-12T14:22:02.000Z</time>
      </trkpt>
      <trkpt lat="42.466" lon="2.86719">
        <ele>336.39999389648</ele>
        <time>2023-07-12T14:22:07.000Z</time>
      </trkpt>
      <trkpt lat="42.466" lon="2.86718">
        <ele>336.20001220703</ele>
        <time>2023-07-12T14:22:08.000Z</time>
      </trkpt>
      <trkpt lat="42.466" lon="2.86716">
        <ele>335.20001220703</ele>
        <time>2023-07-12T14:22:12.000Z</time>
      </trkpt>
      <trkpt lat="42.466" lon="2.86715">
        <ele>335</ele>
        <time>2023-07-12T14:22:13.000Z</time>
      </trkpt>
      <trkpt lat="42.46599" lon="2.86715">
        <ele>334.79998779297</ele>
        <time>2023-07-12T14:22:14.000Z</time>
      </trkpt>
      <trkpt lat="42.46593" lon="2.86711">
        <ele>333.79998779297</ele>
        <time>2023-07-12T14:22:19.000Z</time>
      </trkpt>
      <trkpt lat="42.46591" lon="2.86708">
        <ele>332.60000610352</ele>
        <time>2023-07-12T14:22:24.000Z</time>
      </trkpt>
      <trkpt lat="42.46591" lon="2.86707">
        <ele>332.39999389648</ele>
        <time>2023-07-12T14:22:25.000Z</time>
      </trkpt>
      <trkpt lat="42.46592" lon="2.86704">
        <ele>331.60000610352</ele>
        <time>2023-07-12T14:22:31.000Z</time>
      </trkpt>
      <trkpt lat="42.46592" lon="2.86703">
        <ele>331.20001220703</ele>
        <time>2023-07-12T14:22:33.000Z</time>
      </trkpt>
      <trkpt lat="42.46591" lon="2.867">
        <ele>330.60000610352</ele>
        <time>2023-07-12T14:22:37.000Z</time>
      </trkpt>
      <trkpt lat="42.4659" lon="2.86698">
        <ele>330</ele>
        <time>2023-07-12T14:22:40.000Z</time>
      </trkpt>
      <trkpt lat="42.46589" lon="2.86696">
        <ele>329.39999389648</ele>
        <time>2023-07-12T14:22:43.000Z</time>
      </trkpt>
      <trkpt lat="42.46587" lon="2.86692">
        <ele>328.20001220703</ele>
        <time>2023-07-12T14:22:48.000Z</time>
      </trkpt>
      <trkpt lat="42.46584" lon="2.86687">
        <ele>327.20001220703</ele>
        <time>2023-07-12T14:22:53.000Z</time>
      </trkpt>
      <trkpt lat="42.46582" lon="2.86686">
        <ele>326.79998779297</ele>
        <time>2023-07-12T14:22:55.000Z</time>
      </trkpt>
      <trkpt lat="42.46579" lon="2.86682">
        <ele>326.20001220703</ele>
        <time>2023-07-12T14:22:58.000Z</time>
      </trkpt>
      <trkpt lat="42.46576" lon="2.86677">
        <ele>325</ele>
        <time>2023-07-12T14:23:04.000Z</time>
      </trkpt>
      <trkpt lat="42.46575" lon="2.86676">
        <ele>324.79998779297</ele>
        <time>2023-07-12T14:23:13.000Z</time>
      </trkpt>
      <trkpt lat="42.46576" lon="2.86676">
        <ele>324.79998779297</ele>
        <time>2023-07-12T14:23:23.000Z</time>
      </trkpt>
      <trkpt lat="42.46576" lon="2.86672">
        <ele>324.60000610352</ele>
        <time>2023-07-12T14:23:31.000Z</time>
      </trkpt>
      <trkpt lat="42.46576" lon="2.86658">
        <ele>324</ele>
        <time>2023-07-12T14:23:38.000Z</time>
      </trkpt>
      <trkpt lat="42.46576" lon="2.86655">
        <ele>323.79998779297</ele>
        <time>2023-07-12T14:23:40.000Z</time>
      </trkpt>
      <trkpt lat="42.46576" lon="2.8664">
        <ele>323</ele>
        <time>2023-07-12T14:23:47.000Z</time>
      </trkpt>
      <trkpt lat="42.46577" lon="2.86639">
        <ele>322.79998779297</ele>
        <time>2023-07-12T14:23:48.000Z</time>
      </trkpt>
      <trkpt lat="42.46577" lon="2.86628">
        <ele>321.79998779297</ele>
        <time>2023-07-12T14:23:56.000Z</time>
      </trkpt>
      <trkpt lat="42.46577" lon="2.86627">
        <ele>321.60000610352</ele>
        <time>2023-07-12T14:23:57.000Z</time>
      </trkpt>
      <trkpt lat="42.46578" lon="2.86624">
        <ele>320.79998779297</ele>
        <time>2023-07-12T14:24:02.000Z</time>
      </trkpt>
      <trkpt lat="42.46577" lon="2.86624">
        <ele>320.79998779297</ele>
        <time>2023-07-12T14:24:04.000Z</time>
      </trkpt>
      <trkpt lat="42.46579" lon="2.86615">
        <ele>320.60000610352</ele>
        <time>2023-07-12T14:24:10.000Z</time>
      </trkpt>
      <trkpt lat="42.46584" lon="2.86605">
        <ele>319.60000610352</ele>
        <time>2023-07-12T14:24:17.000Z</time>
      </trkpt>
      <trkpt lat="42.46585" lon="2.86604">
        <ele>319.39999389648</ele>
        <time>2023-07-12T14:24:18.000Z</time>
      </trkpt>
      <trkpt lat="42.4659" lon="2.86599">
        <ele>318.20001220703</ele>
        <time>2023-07-12T14:24:24.000Z</time>
      </trkpt>
      <trkpt lat="42.46591" lon="2.866">
        <ele>317.79998779297</ele>
        <time>2023-07-12T14:24:26.000Z</time>
      </trkpt>
      <trkpt lat="42.46591" lon="2.86601">
        <ele>317.60000610352</ele>
        <time>2023-07-12T14:24:27.000Z</time>
      </trkpt>
      <trkpt lat="42.46593" lon="2.86602">
        <ele>317.20001220703</ele>
        <time>2023-07-12T14:24:29.000Z</time>
      </trkpt>
      <trkpt lat="42.46597" lon="2.86608">
        <ele>316.20001220703</ele>
        <time>2023-07-12T14:24:34.000Z</time>
      </trkpt>
      <trkpt lat="42.466" lon="2.86619">
        <ele>315.20001220703</ele>
        <time>2023-07-12T14:24:39.000Z</time>
      </trkpt>
      <trkpt lat="42.466" lon="2.86623">
        <ele>314.79998779297</ele>
        <time>2023-07-12T14:24:42.000Z</time>
      </trkpt>
      <trkpt lat="42.466" lon="2.86626">
        <ele>314.20001220703</ele>
        <time>2023-07-12T14:24:47.000Z</time>
      </trkpt>
      <trkpt lat="42.46601" lon="2.86627">
        <ele>314.20001220703</ele>
        <time>2023-07-12T14:24:48.000Z</time>
      </trkpt>
      <trkpt lat="42.46603" lon="2.86638">
        <ele>314.20001220703</ele>
        <time>2023-07-12T14:24:55.000Z</time>
      </trkpt>
      <trkpt lat="42.46608" lon="2.86651">
        <ele>313.39999389648</ele>
        <time>2023-07-12T14:25:03.000Z</time>
      </trkpt>
      <trkpt lat="42.46609" lon="2.86654">
        <ele>313.20001220703</ele>
        <time>2023-07-12T14:25:05.000Z</time>
      </trkpt>
      <trkpt lat="42.46618" lon="2.86659">
        <ele>312.60000610352</ele>
        <time>2023-07-12T14:25:11.000Z</time>
      </trkpt>
      <trkpt lat="42.46621" lon="2.86655">
        <ele>312.20001220703</ele>
        <time>2023-07-12T14:25:14.000Z</time>
      </trkpt>
      <trkpt lat="42.46623" lon="2.86652">
        <ele>311.60000610352</ele>
        <time>2023-07-12T14:25:16.000Z</time>
      </trkpt>
      <trkpt lat="42.46623" lon="2.86647">
        <ele>311</ele>
        <time>2023-07-12T14:25:19.000Z</time>
      </trkpt>
      <trkpt lat="42.46622" lon="2.86639">
        <ele>310.20001220703</ele>
        <time>2023-07-12T14:25:23.000Z</time>
      </trkpt>
      <trkpt lat="42.46622" lon="2.86637">
        <ele>310</ele>
        <time>2023-07-12T14:25:24.000Z</time>
      </trkpt>
      <trkpt lat="42.46619" lon="2.86631">
        <ele>309</ele>
        <time>2023-07-12T14:25:30.000Z</time>
      </trkpt>
      <trkpt lat="42.46619" lon="2.8663">
        <ele>309</ele>
        <time>2023-07-12T14:25:31.000Z</time>
      </trkpt>
      <trkpt lat="42.46618" lon="2.86618">
        <ele>308</ele>
        <time>2023-07-12T14:25:38.000Z</time>
      </trkpt>
      <trkpt lat="42.46619" lon="2.86605">
        <ele>307</ele>
        <time>2023-07-12T14:25:45.000Z</time>
      </trkpt>
      <trkpt lat="42.4662" lon="2.86603">
        <ele>306.79998779297</ele>
        <time>2023-07-12T14:25:46.000Z</time>
      </trkpt>
      <trkpt lat="42.46622" lon="2.86599">
        <ele>305.79998779297</ele>
        <time>2023-07-12T14:25:50.000Z</time>
      </trkpt>
      <trkpt lat="42.46623" lon="2.86597">
        <ele>305.60000610352</ele>
        <time>2023-07-12T14:25:52.000Z</time>
      </trkpt>
      <trkpt lat="42.46627" lon="2.86593">
        <ele>304.79998779297</ele>
        <time>2023-07-12T14:25:56.000Z</time>
      </trkpt>
      <trkpt lat="42.46636" lon="2.86586">
        <ele>303.60000610352</ele>
        <time>2023-07-12T14:26:03.000Z</time>
      </trkpt>
      <trkpt lat="42.46641" lon="2.8658">
        <ele>302.39999389648</ele>
        <time>2023-07-12T14:26:09.000Z</time>
      </trkpt>
      <trkpt lat="42.46642" lon="2.86579">
        <ele>302.20001220703</ele>
        <time>2023-07-12T14:26:10.000Z</time>
      </trkpt>
      <trkpt lat="42.46643" lon="2.86573">
        <ele>301.20001220703</ele>
        <time>2023-07-12T14:26:14.000Z</time>
      </trkpt>
      <trkpt lat="42.46645" lon="2.86569">
        <ele>300.39999389648</ele>
        <time>2023-07-12T14:26:17.000Z</time>
      </trkpt>
      <trkpt lat="42.46645" lon="2.86567">
        <ele>300.20001220703</ele>
        <time>2023-07-12T14:26:18.000Z</time>
      </trkpt>
      <trkpt lat="42.46648" lon="2.86559">
        <ele>299</ele>
        <time>2023-07-12T14:26:23.000Z</time>
      </trkpt>
      <trkpt lat="42.46648" lon="2.86554">
        <ele>298</ele>
        <time>2023-07-12T14:26:27.000Z</time>
      </trkpt>
      <trkpt lat="42.46649" lon="2.86547">
        <ele>296.79998779297</ele>
        <time>2023-07-12T14:26:31.000Z</time>
      </trkpt>
      <trkpt lat="42.46652" lon="2.8654">
        <ele>295.39999389648</ele>
        <time>2023-07-12T14:26:35.000Z</time>
      </trkpt>
      <trkpt lat="42.46653" lon="2.86539">
        <ele>295</ele>
        <time>2023-07-12T14:26:36.000Z</time>
      </trkpt>
      <trkpt lat="42.46655" lon="2.86536">
        <ele>294.20001220703</ele>
        <time>2023-07-12T14:26:39.000Z</time>
      </trkpt>
      <trkpt lat="42.46659" lon="2.86534">
        <ele>293.39999389648</ele>
        <time>2023-07-12T14:26:43.000Z</time>
      </trkpt>
      <trkpt lat="42.46659" lon="2.86533">
        <ele>293</ele>
        <time>2023-07-12T14:26:44.000Z</time>
      </trkpt>
      <trkpt lat="42.46665" lon="2.86527">
        <ele>292.20001220703</ele>
        <time>2023-07-12T14:26:51.000Z</time>
      </trkpt>
      <trkpt lat="42.46665" lon="2.86526">
        <ele>291.79998779297</ele>
        <time>2023-07-12T14:26:58.000Z</time>
      </trkpt>
      <trkpt lat="42.46665" lon="2.86526">
        <ele>291.79998779297</ele>
        <time>2023-07-12T14:27:03.000Z</time>
      </trkpt>
      <trkpt lat="42.46665" lon="2.86525">
        <ele>291.79998779297</ele>
        <time>2023-07-12T14:27:05.000Z</time>
      </trkpt>
      <trkpt lat="42.46665" lon="2.86525">
        <ele>291.79998779297</ele>
        <time>2023-07-12T14:27:06.000Z</time>
      </trkpt>
      <trkpt lat="42.46668" lon="2.86508">
        <ele>291.20001220703</ele>
        <time>2023-07-12T14:27:27.000Z</time>
      </trkpt>
      <trkpt lat="42.4667" lon="2.86496">
        <ele>291.60000610352</ele>
        <time>2023-07-12T14:27:35.000Z</time>
      </trkpt>
      <trkpt lat="42.46673" lon="2.86485">
        <ele>290.79998779297</ele>
        <time>2023-07-12T14:27:42.000Z</time>
      </trkpt>
      <trkpt lat="42.46678" lon="2.8647">
        <ele>290.20001220703</ele>
        <time>2023-07-12T14:27:50.000Z</time>
      </trkpt>
      <trkpt lat="42.46679" lon="2.86455">
        <ele>289.79998779297</ele>
        <time>2023-07-12T14:27:58.000Z</time>
      </trkpt>
      <trkpt lat="42.4668" lon="2.86447">
        <ele>289.60000610352</ele>
        <time>2023-07-12T14:28:02.000Z</time>
      </trkpt>
      <trkpt lat="42.46682" lon="2.8644">
        <ele>288.79998779297</ele>
        <time>2023-07-12T14:28:07.000Z</time>
      </trkpt>
      <trkpt lat="42.46684" lon="2.86423">
        <ele>288.79998779297</ele>
        <time>2023-07-12T14:28:15.000Z</time>
      </trkpt>
      <trkpt lat="42.46689" lon="2.86408">
        <ele>288</ele>
        <time>2023-07-12T14:28:22.000Z</time>
      </trkpt>
      <trkpt lat="42.46689" lon="2.86405">
        <ele>287.60000610352</ele>
        <time>2023-07-12T14:28:23.000Z</time>
      </trkpt>
      <trkpt lat="42.46692" lon="2.86394">
        <ele>287</ele>
        <time>2023-07-12T14:28:30.000Z</time>
      </trkpt>
      <trkpt lat="42.46694" lon="2.86383">
        <ele>286.60000610352</ele>
        <time>2023-07-12T14:28:36.000Z</time>
      </trkpt>
      <trkpt lat="42.46694" lon="2.86381">
        <ele>286.60000610352</ele>
        <time>2023-07-12T14:28:37.000Z</time>
      </trkpt>
      <trkpt lat="42.46694" lon="2.86372">
        <ele>286.39999389648</ele>
        <time>2023-07-12T14:28:42.000Z</time>
      </trkpt>
      <trkpt lat="42.46692" lon="2.86361">
        <ele>285.60000610352</ele>
        <time>2023-07-12T14:28:49.000Z</time>
      </trkpt>
      <trkpt lat="42.46692" lon="2.86359">
        <ele>285.60000610352</ele>
        <time>2023-07-12T14:28:51.000Z</time>
      </trkpt>
      <trkpt lat="42.4669" lon="2.86351">
        <ele>285</ele>
        <time>2023-07-12T14:28:57.000Z</time>
      </trkpt>
      <trkpt lat="42.46688" lon="2.86352">
        <ele>284.60000610352</ele>
        <time>2023-07-12T14:29:04.000Z</time>
      </trkpt>
      <trkpt lat="42.46687" lon="2.86353">
        <ele>284.60000610352</ele>
        <time>2023-07-12T14:29:06.000Z</time>
      </trkpt>
      <trkpt lat="42.46684" lon="2.86349">
        <ele>284.39999389648</ele>
        <time>2023-07-12T14:29:10.000Z</time>
      </trkpt>
      <trkpt lat="42.46685" lon="2.86348">
        <ele>284.39999389648</ele>
        <time>2023-07-12T14:29:11.000Z</time>
      </trkpt>
      <trkpt lat="42.46686" lon="2.86347">
        <ele>284</ele>
        <time>2023-07-12T14:29:16.000Z</time>
      </trkpt>
      <trkpt lat="42.46685" lon="2.86349">
        <ele>284</ele>
        <time>2023-07-12T14:29:24.000Z</time>
      </trkpt>
      <trkpt lat="42.46682" lon="2.86341">
        <ele>284</ele>
        <time>2023-07-12T14:29:33.000Z</time>
      </trkpt>
      <trkpt lat="42.46682" lon="2.86343">
        <ele>283.39999389648</ele>
        <time>2023-07-12T14:29:43.000Z</time>
      </trkpt>
      <trkpt lat="42.46681" lon="2.86347">
        <ele>283.20001220703</ele>
        <time>2023-07-12T14:29:52.000Z</time>
      </trkpt>
      <trkpt lat="42.46682" lon="2.86344">
        <ele>282.79998779297</ele>
        <time>2023-07-12T14:30:03.000Z</time>
      </trkpt>
      <trkpt lat="42.46684" lon="2.86342">
        <ele>282.79998779297</ele>
        <time>2023-07-12T14:30:11.000Z</time>
      </trkpt>
      <trkpt lat="42.46685" lon="2.86347">
        <ele>282.79998779297</ele>
        <time>2023-07-12T14:30:20.000Z</time>
      </trkpt>
      <trkpt lat="42.46682" lon="2.86346">
        <ele>282.39999389648</ele>
        <time>2023-07-12T14:30:27.000Z</time>
      </trkpt>
      <trkpt lat="42.46682" lon="2.8634">
        <ele>282.39999389648</ele>
        <time>2023-07-12T14:30:36.000Z</time>
      </trkpt>
      <trkpt lat="42.46681" lon="2.8634">
        <ele>282.20001220703</ele>
        <time>2023-07-12T14:30:45.000Z</time>
      </trkpt>
      <trkpt lat="42.46682" lon="2.86344">
        <ele>282.20001220703</ele>
        <time>2023-07-12T14:30:52.000Z</time>
      </trkpt>
      <trkpt lat="42.46683" lon="2.86345">
        <ele>282.20001220703</ele>
        <time>2023-07-12T14:31:01.000Z</time>
      </trkpt>
      <trkpt lat="42.46679" lon="2.86344">
        <ele>282</ele>
        <time>2023-07-12T14:31:08.000Z</time>
      </trkpt>
      <trkpt lat="42.46669" lon="2.8634">
        <ele>282</ele>
        <time>2023-07-12T14:31:15.000Z</time>
      </trkpt>
      <trkpt lat="42.46664" lon="2.86336">
        <ele>281.39999389648</ele>
        <time>2023-07-12T14:31:20.000Z</time>
      </trkpt>
      <trkpt lat="42.46663" lon="2.86335">
        <ele>281.39999389648</ele>
        <time>2023-07-12T14:31:21.000Z</time>
      </trkpt>
      <trkpt lat="42.46653" lon="2.86327">
        <ele>281</ele>
        <time>2023-07-12T14:31:30.000Z</time>
      </trkpt>
      <trkpt lat="42.46644" lon="2.86319">
        <ele>280.39999389648</ele>
        <time>2023-07-12T14:31:37.000Z</time>
      </trkpt>
      <trkpt lat="42.46641" lon="2.86315">
        <ele>280.39999389648</ele>
        <time>2023-07-12T14:31:39.000Z</time>
      </trkpt>
      <trkpt lat="42.46635" lon="2.86306">
        <ele>280</ele>
        <time>2023-07-12T14:31:45.000Z</time>
      </trkpt>
      <trkpt lat="42.46626" lon="2.86302">
        <ele>279.79998779297</ele>
        <time>2023-07-12T14:31:52.000Z</time>
      </trkpt>
      <trkpt lat="42.46617" lon="2.86302">
        <ele>279.60000610352</ele>
        <time>2023-07-12T14:31:59.000Z</time>
      </trkpt>
      <trkpt lat="42.46609" lon="2.86303">
        <ele>281</ele>
        <time>2023-07-12T14:32:08.000Z</time>
      </trkpt>
      <trkpt lat="42.46607" lon="2.86304">
        <ele>281.39999389648</ele>
        <time>2023-07-12T14:32:11.000Z</time>
      </trkpt>
      <trkpt lat="42.46601" lon="2.86308">
        <ele>282</ele>
        <time>2023-07-12T14:32:16.000Z</time>
      </trkpt>
      <trkpt lat="42.46597" lon="2.86309">
        <ele>282.39999389648</ele>
        <time>2023-07-12T14:32:20.000Z</time>
      </trkpt>
      <trkpt lat="42.46592" lon="2.86311">
        <ele>282.79998779297</ele>
        <time>2023-07-12T14:32:24.000Z</time>
      </trkpt>
      <trkpt lat="42.46585" lon="2.86314">
        <ele>283.39999389648</ele>
        <time>2023-07-12T14:32:31.000Z</time>
      </trkpt>
      <trkpt lat="42.46582" lon="2.86313">
        <ele>283.60000610352</ele>
        <time>2023-07-12T14:32:33.000Z</time>
      </trkpt>
      <trkpt lat="42.4657" lon="2.86313">
        <ele>284.39999389648</ele>
        <time>2023-07-12T14:32:40.000Z</time>
      </trkpt>
      <trkpt lat="42.46569" lon="2.86314">
        <ele>284.60000610352</ele>
        <time>2023-07-12T14:32:41.000Z</time>
      </trkpt>
      <trkpt lat="42.46562" lon="2.8632">
        <ele>285.60000610352</ele>
        <time>2023-07-12T14:32:49.000Z</time>
      </trkpt>
      <trkpt lat="42.46546" lon="2.86324">
        <ele>286.60000610352</ele>
        <time>2023-07-12T14:32:59.000Z</time>
      </trkpt>
      <trkpt lat="42.46537" lon="2.86328">
        <ele>287.39999389648</ele>
        <time>2023-07-12T14:33:06.000Z</time>
      </trkpt>
      <trkpt lat="42.46532" lon="2.86327">
        <ele>287.60000610352</ele>
        <time>2023-07-12T14:33:09.000Z</time>
      </trkpt>
      <trkpt lat="42.46527" lon="2.86325">
        <ele>288</ele>
        <time>2023-07-12T14:33:13.000Z</time>
      </trkpt>
      <trkpt lat="42.4652" lon="2.86322">
        <ele>288.60000610352</ele>
        <time>2023-07-12T14:33:21.000Z</time>
      </trkpt>
      <trkpt lat="42.46516" lon="2.86322">
        <ele>288.60000610352</ele>
        <time>2023-07-12T14:33:24.000Z</time>
      </trkpt>
      <trkpt lat="42.46504" lon="2.86319">
        <ele>288.60000610352</ele>
        <time>2023-07-12T14:33:31.000Z</time>
      </trkpt>
      <trkpt lat="42.46503" lon="2.86321">
        <ele>288.79998779297</ele>
        <time>2023-07-12T14:33:35.000Z</time>
      </trkpt>
      <trkpt lat="42.46503" lon="2.86323">
        <ele>288.79998779297</ele>
        <time>2023-07-12T14:33:36.000Z</time>
      </trkpt>
      <trkpt lat="42.46501" lon="2.8633">
        <ele>289</ele>
        <time>2023-07-12T14:33:41.000Z</time>
      </trkpt>
      <trkpt lat="42.465" lon="2.86336">
        <ele>289.79998779297</ele>
        <time>2023-07-12T14:33:45.000Z</time>
      </trkpt>
      <trkpt lat="42.46501" lon="2.8634">
        <ele>290.39999389648</ele>
        <time>2023-07-12T14:33:48.000Z</time>
      </trkpt>
      <trkpt lat="42.465" lon="2.86345">
        <ele>291</ele>
        <time>2023-07-12T14:33:53.000Z</time>
      </trkpt>
      <trkpt lat="42.46499" lon="2.86351">
        <ele>292</ele>
        <time>2023-07-12T14:34:00.000Z</time>
      </trkpt>
      <trkpt lat="42.46498" lon="2.86352">
        <ele>292.20001220703</ele>
        <time>2023-07-12T14:34:01.000Z</time>
      </trkpt>
      <trkpt lat="42.46498" lon="2.86358">
        <ele>293.20001220703</ele>
        <time>2023-07-12T14:34:05.000Z</time>
      </trkpt>
      <trkpt lat="42.46499" lon="2.86365">
        <ele>294</ele>
        <time>2023-07-12T14:34:09.000Z</time>
      </trkpt>
      <trkpt lat="42.46499" lon="2.86366">
        <ele>294.20001220703</ele>
        <time>2023-07-12T14:34:10.000Z</time>
      </trkpt>
      <trkpt lat="42.46501" lon="2.8637">
        <ele>295.20001220703</ele>
        <time>2023-07-12T14:34:15.000Z</time>
      </trkpt>
      <trkpt lat="42.46501" lon="2.8637">
        <ele>295.39999389648</ele>
        <time>2023-07-12T14:34:16.000Z</time>
      </trkpt>
      <trkpt lat="42.46502" lon="2.86369">
        <ele>296.20001220703</ele>
        <time>2023-07-12T14:34:20.000Z</time>
      </trkpt>
      <trkpt lat="42.46502" lon="2.86369">
        <ele>296.60000610352</ele>
        <time>2023-07-12T14:34:22.000Z</time>
      </trkpt>
      <trkpt lat="42.46504" lon="2.86373">
        <ele>296.79998779297</ele>
        <time>2023-07-12T14:34:30.000Z</time>
      </trkpt>
      <trkpt lat="42.4651" lon="2.86376">
        <ele>297.20001220703</ele>
        <time>2023-07-12T14:34:37.000Z</time>
      </trkpt>
      <trkpt lat="42.46515" lon="2.86378">
        <ele>297.39999389648</ele>
        <time>2023-07-12T14:34:41.000Z</time>
      </trkpt>
      <trkpt lat="42.46517" lon="2.86379">
        <ele>297.20001220703</ele>
        <time>2023-07-12T14:34:42.000Z</time>
      </trkpt>
      <trkpt lat="42.46521" lon="2.86392">
        <ele>299.60000610352</ele>
        <time>2023-07-12T14:34:56.000Z</time>
      </trkpt>
      <trkpt lat="42.46523" lon="2.86396">
        <ele>300</ele>
        <time>2023-07-12T14:34:59.000Z</time>
      </trkpt>
      <trkpt lat="42.46525" lon="2.86401">
        <ele>300.60000610352</ele>
        <time>2023-07-12T14:35:03.000Z</time>
      </trkpt>
      <trkpt lat="42.46527" lon="2.86404">
        <ele>301.20001220703</ele>
        <time>2023-07-12T14:35:07.000Z</time>
      </trkpt>
      <trkpt lat="42.46528" lon="2.86407">
        <ele>301.79998779297</ele>
        <time>2023-07-12T14:35:10.000Z</time>
      </trkpt>
      <trkpt lat="42.46529" lon="2.86407">
        <ele>302.20001220703</ele>
        <time>2023-07-12T14:35:13.000Z</time>
      </trkpt>
      <trkpt lat="42.46531" lon="2.86412">
        <ele>303</ele>
        <time>2023-07-12T14:35:18.000Z</time>
      </trkpt>
      <trkpt lat="42.46531" lon="2.86413">
        <ele>303</ele>
        <time>2023-07-12T14:35:19.000Z</time>
      </trkpt>
      <trkpt lat="42.46531" lon="2.86414">
        <ele>303.39999389648</ele>
        <time>2023-07-12T14:35:21.000Z</time>
      </trkpt>
      <trkpt lat="42.4653" lon="2.86415">
        <ele>304</ele>
        <time>2023-07-12T14:35:24.000Z</time>
      </trkpt>
      <trkpt lat="42.46529" lon="2.86416">
        <ele>304.20001220703</ele>
        <time>2023-07-12T14:35:26.000Z</time>
      </trkpt>
      <trkpt lat="42.46527" lon="2.86417">
        <ele>304.79998779297</ele>
        <time>2023-07-12T14:35:32.000Z</time>
      </trkpt>
      <trkpt lat="42.46526" lon="2.86415">
        <ele>304.79998779297</ele>
        <time>2023-07-12T14:35:40.000Z</time>
      </trkpt>
      <trkpt lat="42.46525" lon="2.86417">
        <ele>304.79998779297</ele>
        <time>2023-07-12T14:35:46.000Z</time>
      </trkpt>
      <trkpt lat="42.46523" lon="2.86412">
        <ele>305</ele>
        <time>2023-07-12T14:35:53.000Z</time>
      </trkpt>
      <trkpt lat="42.46521" lon="2.86407">
        <ele>304.60000610352</ele>
        <time>2023-07-12T14:35:59.000Z</time>
      </trkpt>
    </trkseg>
  </trk>
</gpx>